<?xml version="1.0" encoding="UTF-8" standalone="no" ?>
<gpx xmlns="http://www.topografix.com/GPX/1/1" xmlns:xsi="http://www.w3.org/2001/XMLSchema-instance" xsi:schemaLocation="http://www.topografix.com/GPX/1/1 http://www.topografix.com/GPX/1/1/gpx.xsd" version="1.1" creator="VisuGPX - https://www.visugpx.com">
  <metadata>
    <name>Marche ACC du 02/04/2019</name>
    <desc><![CDATA[Circuit au départ du Château de l'Hôpitau, le rond point de la rivière, chemin du Gesvres, chemin de la pierre percée, quai de la Jonelière, quai du Halleray, promenade Van Iseghem, Ile de versailles, promenade de l'Erdre, rue de Coetquelfen pour voir les châtaigniers de l'Eraudière, les bords de l'erdre, le pont de la Jonelière, La Desnerie, la Métairie rouge et retour parking]]></desc>
  </metadata>
  <trk>
    <name><![CDATA[La Chapelle-sur-Erdre Autre]]></name>
    <trkseg>
      <trkpt lat="47.26971" lon="-1.55224">
        <ele>29</ele>
        <time>2019-04-02T06:42:39.000Z</time>
      </trkpt>
      <trkpt lat="47.26969" lon="-1.55223">
        <ele>28.799999237061</ele>
        <time>2019-04-02T06:42:40.000Z</time>
      </trkpt>
      <trkpt lat="47.26968" lon="-1.55223">
        <ele>28.799999237061</ele>
        <time>2019-04-02T06:42:41.000Z</time>
      </trkpt>
      <trkpt lat="47.26967" lon="-1.55223">
        <ele>28.799999237061</ele>
        <time>2019-04-02T06:42:42.000Z</time>
      </trkpt>
      <trkpt lat="47.26966" lon="-1.55223">
        <ele>28.799999237061</ele>
        <time>2019-04-02T06:42:43.000Z</time>
      </trkpt>
      <trkpt lat="47.26974" lon="-1.55225">
        <ele>29</ele>
        <time>2019-04-02T06:42:46.000Z</time>
      </trkpt>
      <trkpt lat="47.26973" lon="-1.55225">
        <ele>29</ele>
        <time>2019-04-02T06:42:47.000Z</time>
      </trkpt>
      <trkpt lat="47.26972" lon="-1.55225">
        <ele>29</ele>
        <time>2019-04-02T06:42:48.000Z</time>
      </trkpt>
      <trkpt lat="47.26971" lon="-1.55226">
        <ele>29</ele>
        <time>2019-04-02T06:42:49.000Z</time>
      </trkpt>
      <trkpt lat="47.26969" lon="-1.55226">
        <ele>29</ele>
        <time>2019-04-02T06:42:50.000Z</time>
      </trkpt>
      <trkpt lat="47.26968" lon="-1.55227">
        <ele>28.799999237061</ele>
        <time>2019-04-02T06:42:51.000Z</time>
      </trkpt>
      <trkpt lat="47.26966" lon="-1.55227">
        <ele>28.799999237061</ele>
        <time>2019-04-02T06:42:52.000Z</time>
      </trkpt>
      <trkpt lat="47.26965" lon="-1.55228">
        <ele>28.799999237061</ele>
        <time>2019-04-02T06:42:53.000Z</time>
      </trkpt>
      <trkpt lat="47.26964" lon="-1.55228">
        <ele>28.799999237061</ele>
        <time>2019-04-02T06:42:54.000Z</time>
      </trkpt>
      <trkpt lat="47.26963" lon="-1.55228">
        <ele>28.799999237061</ele>
        <time>2019-04-02T06:42:55.000Z</time>
      </trkpt>
      <trkpt lat="47.26962" lon="-1.55229">
        <ele>28.799999237061</ele>
        <time>2019-04-02T06:42:56.000Z</time>
      </trkpt>
      <trkpt lat="47.26961" lon="-1.5523">
        <ele>28.60000038147</ele>
        <time>2019-04-02T06:42:57.000Z</time>
      </trkpt>
      <trkpt lat="47.2696" lon="-1.55232">
        <ele>28.60000038147</ele>
        <time>2019-04-02T06:42:58.000Z</time>
      </trkpt>
      <trkpt lat="47.26959" lon="-1.55232">
        <ele>28.60000038147</ele>
        <time>2019-04-02T06:42:59.000Z</time>
      </trkpt>
      <trkpt lat="47.26958" lon="-1.55233">
        <ele>28.60000038147</ele>
        <time>2019-04-02T06:43:00.000Z</time>
      </trkpt>
      <trkpt lat="47.26957" lon="-1.55234">
        <ele>28.60000038147</ele>
        <time>2019-04-02T06:43:01.000Z</time>
      </trkpt>
      <trkpt lat="47.26953" lon="-1.55238">
        <ele>28.39999961853</ele>
        <time>2019-04-02T06:43:02.000Z</time>
      </trkpt>
      <trkpt lat="47.26953" lon="-1.55238">
        <ele>28.39999961853</ele>
        <time>2019-04-02T06:43:03.000Z</time>
      </trkpt>
      <trkpt lat="47.26951" lon="-1.55238">
        <ele>28.200000762939</ele>
        <time>2019-04-02T06:43:04.000Z</time>
      </trkpt>
      <trkpt lat="47.26949" lon="-1.55239">
        <ele>28.200000762939</ele>
        <time>2019-04-02T06:43:05.000Z</time>
      </trkpt>
      <trkpt lat="47.26947" lon="-1.5524">
        <ele>28.200000762939</ele>
        <time>2019-04-02T06:43:06.000Z</time>
      </trkpt>
      <trkpt lat="47.26946" lon="-1.5524">
        <ele>28</ele>
        <time>2019-04-02T06:43:07.000Z</time>
      </trkpt>
      <trkpt lat="47.26944" lon="-1.55241">
        <ele>28</ele>
        <time>2019-04-02T06:43:08.000Z</time>
      </trkpt>
      <trkpt lat="47.26943" lon="-1.55241">
        <ele>28</ele>
        <time>2019-04-02T06:43:09.000Z</time>
      </trkpt>
      <trkpt lat="47.26941" lon="-1.55242">
        <ele>27.799999237061</ele>
        <time>2019-04-02T06:43:10.000Z</time>
      </trkpt>
      <trkpt lat="47.2694" lon="-1.55243">
        <ele>27.799999237061</ele>
        <time>2019-04-02T06:43:11.000Z</time>
      </trkpt>
      <trkpt lat="47.26938" lon="-1.55244">
        <ele>27.60000038147</ele>
        <time>2019-04-02T06:43:12.000Z</time>
      </trkpt>
      <trkpt lat="47.26937" lon="-1.55244">
        <ele>27.60000038147</ele>
        <time>2019-04-02T06:43:13.000Z</time>
      </trkpt>
      <trkpt lat="47.26936" lon="-1.55245">
        <ele>27.60000038147</ele>
        <time>2019-04-02T06:43:14.000Z</time>
      </trkpt>
      <trkpt lat="47.26934" lon="-1.55245">
        <ele>27.60000038147</ele>
        <time>2019-04-02T06:43:15.000Z</time>
      </trkpt>
      <trkpt lat="47.26933" lon="-1.55245">
        <ele>27.39999961853</ele>
        <time>2019-04-02T06:43:16.000Z</time>
      </trkpt>
      <trkpt lat="47.26932" lon="-1.55245">
        <ele>27.39999961853</ele>
        <time>2019-04-02T06:43:17.000Z</time>
      </trkpt>
      <trkpt lat="47.26931" lon="-1.55246">
        <ele>27.39999961853</ele>
        <time>2019-04-02T06:43:18.000Z</time>
      </trkpt>
      <trkpt lat="47.26929" lon="-1.55246">
        <ele>27.200000762939</ele>
        <time>2019-04-02T06:43:19.000Z</time>
      </trkpt>
      <trkpt lat="47.26928" lon="-1.55247">
        <ele>27.200000762939</ele>
        <time>2019-04-02T06:43:20.000Z</time>
      </trkpt>
      <trkpt lat="47.26927" lon="-1.55247">
        <ele>27.200000762939</ele>
        <time>2019-04-02T06:43:21.000Z</time>
      </trkpt>
      <trkpt lat="47.26925" lon="-1.55248">
        <ele>27.200000762939</ele>
        <time>2019-04-02T06:43:22.000Z</time>
      </trkpt>
      <trkpt lat="47.26924" lon="-1.55248">
        <ele>27</ele>
        <time>2019-04-02T06:43:23.000Z</time>
      </trkpt>
      <trkpt lat="47.26923" lon="-1.55248">
        <ele>27</ele>
        <time>2019-04-02T06:43:24.000Z</time>
      </trkpt>
      <trkpt lat="47.26921" lon="-1.55249">
        <ele>27</ele>
        <time>2019-04-02T06:43:25.000Z</time>
      </trkpt>
      <trkpt lat="47.2692" lon="-1.5525">
        <ele>26.799999237061</ele>
        <time>2019-04-02T06:43:26.000Z</time>
      </trkpt>
      <trkpt lat="47.26919" lon="-1.55251">
        <ele>26.799999237061</ele>
        <time>2019-04-02T06:43:27.000Z</time>
      </trkpt>
      <trkpt lat="47.26917" lon="-1.55252">
        <ele>26.799999237061</ele>
        <time>2019-04-02T06:43:28.000Z</time>
      </trkpt>
      <trkpt lat="47.26916" lon="-1.55253">
        <ele>26.60000038147</ele>
        <time>2019-04-02T06:43:29.000Z</time>
      </trkpt>
      <trkpt lat="47.26914" lon="-1.55253">
        <ele>26.60000038147</ele>
        <time>2019-04-02T06:43:30.000Z</time>
      </trkpt>
      <trkpt lat="47.26913" lon="-1.55254">
        <ele>26.60000038147</ele>
        <time>2019-04-02T06:43:31.000Z</time>
      </trkpt>
      <trkpt lat="47.26911" lon="-1.55255">
        <ele>26.60000038147</ele>
        <time>2019-04-02T06:43:32.000Z</time>
      </trkpt>
      <trkpt lat="47.2691" lon="-1.55256">
        <ele>26.39999961853</ele>
        <time>2019-04-02T06:43:33.000Z</time>
      </trkpt>
      <trkpt lat="47.26909" lon="-1.55256">
        <ele>26.39999961853</ele>
        <time>2019-04-02T06:43:34.000Z</time>
      </trkpt>
      <trkpt lat="47.26907" lon="-1.55257">
        <ele>26.39999961853</ele>
        <time>2019-04-02T06:43:35.000Z</time>
      </trkpt>
      <trkpt lat="47.26906" lon="-1.55258">
        <ele>26.39999961853</ele>
        <time>2019-04-02T06:43:36.000Z</time>
      </trkpt>
      <trkpt lat="47.26904" lon="-1.55258">
        <ele>26.39999961853</ele>
        <time>2019-04-02T06:43:37.000Z</time>
      </trkpt>
      <trkpt lat="47.26903" lon="-1.55259">
        <ele>26.39999961853</ele>
        <time>2019-04-02T06:43:38.000Z</time>
      </trkpt>
      <trkpt lat="47.26901" lon="-1.5526">
        <ele>26.39999961853</ele>
        <time>2019-04-02T06:43:39.000Z</time>
      </trkpt>
      <trkpt lat="47.26898" lon="-1.55261">
        <ele>26.39999961853</ele>
        <time>2019-04-02T06:43:40.000Z</time>
      </trkpt>
      <trkpt lat="47.26898" lon="-1.55261">
        <ele>26.39999961853</ele>
        <time>2019-04-02T06:43:41.000Z</time>
      </trkpt>
      <trkpt lat="47.26897" lon="-1.55262">
        <ele>26.39999961853</ele>
        <time>2019-04-02T06:43:42.000Z</time>
      </trkpt>
      <trkpt lat="47.26895" lon="-1.55262">
        <ele>26.39999961853</ele>
        <time>2019-04-02T06:43:43.000Z</time>
      </trkpt>
      <trkpt lat="47.26894" lon="-1.55263">
        <ele>26.39999961853</ele>
        <time>2019-04-02T06:43:44.000Z</time>
      </trkpt>
      <trkpt lat="47.26893" lon="-1.55264">
        <ele>26.200000762939</ele>
        <time>2019-04-02T06:43:45.000Z</time>
      </trkpt>
      <trkpt lat="47.26891" lon="-1.55265">
        <ele>26.200000762939</ele>
        <time>2019-04-02T06:43:46.000Z</time>
      </trkpt>
      <trkpt lat="47.2689" lon="-1.55265">
        <ele>26.200000762939</ele>
        <time>2019-04-02T06:43:47.000Z</time>
      </trkpt>
      <trkpt lat="47.26889" lon="-1.55266">
        <ele>26.200000762939</ele>
        <time>2019-04-02T06:43:48.000Z</time>
      </trkpt>
      <trkpt lat="47.26887" lon="-1.55267">
        <ele>26.200000762939</ele>
        <time>2019-04-02T06:43:49.000Z</time>
      </trkpt>
      <trkpt lat="47.26886" lon="-1.55268">
        <ele>26.200000762939</ele>
        <time>2019-04-02T06:43:50.000Z</time>
      </trkpt>
      <trkpt lat="47.26885" lon="-1.55268">
        <ele>26.200000762939</ele>
        <time>2019-04-02T06:43:51.000Z</time>
      </trkpt>
      <trkpt lat="47.26883" lon="-1.55269">
        <ele>26.200000762939</ele>
        <time>2019-04-02T06:43:52.000Z</time>
      </trkpt>
      <trkpt lat="47.26882" lon="-1.5527">
        <ele>26.200000762939</ele>
        <time>2019-04-02T06:43:53.000Z</time>
      </trkpt>
      <trkpt lat="47.26881" lon="-1.55271">
        <ele>26.200000762939</ele>
        <time>2019-04-02T06:43:54.000Z</time>
      </trkpt>
      <trkpt lat="47.26879" lon="-1.55271">
        <ele>26.200000762939</ele>
        <time>2019-04-02T06:43:55.000Z</time>
      </trkpt>
      <trkpt lat="47.26878" lon="-1.55272">
        <ele>26</ele>
        <time>2019-04-02T06:43:56.000Z</time>
      </trkpt>
      <trkpt lat="47.26876" lon="-1.55272">
        <ele>26</ele>
        <time>2019-04-02T06:43:57.000Z</time>
      </trkpt>
      <trkpt lat="47.26875" lon="-1.55273">
        <ele>26</ele>
        <time>2019-04-02T06:43:58.000Z</time>
      </trkpt>
      <trkpt lat="47.26874" lon="-1.55273">
        <ele>26</ele>
        <time>2019-04-02T06:43:59.000Z</time>
      </trkpt>
      <trkpt lat="47.26872" lon="-1.55274">
        <ele>26</ele>
        <time>2019-04-02T06:44:00.000Z</time>
      </trkpt>
      <trkpt lat="47.26871" lon="-1.55274">
        <ele>26</ele>
        <time>2019-04-02T06:44:01.000Z</time>
      </trkpt>
      <trkpt lat="47.2687" lon="-1.55275">
        <ele>26</ele>
        <time>2019-04-02T06:44:02.000Z</time>
      </trkpt>
      <trkpt lat="47.26868" lon="-1.55276">
        <ele>26</ele>
        <time>2019-04-02T06:44:03.000Z</time>
      </trkpt>
      <trkpt lat="47.26867" lon="-1.55277">
        <ele>26</ele>
        <time>2019-04-02T06:44:04.000Z</time>
      </trkpt>
      <trkpt lat="47.26866" lon="-1.55278">
        <ele>26</ele>
        <time>2019-04-02T06:44:05.000Z</time>
      </trkpt>
      <trkpt lat="47.26865" lon="-1.55279">
        <ele>25.799999237061</ele>
        <time>2019-04-02T06:44:06.000Z</time>
      </trkpt>
      <trkpt lat="47.26863" lon="-1.5528">
        <ele>25.799999237061</ele>
        <time>2019-04-02T06:44:07.000Z</time>
      </trkpt>
      <trkpt lat="47.26862" lon="-1.55281">
        <ele>25.799999237061</ele>
        <time>2019-04-02T06:44:08.000Z</time>
      </trkpt>
      <trkpt lat="47.26861" lon="-1.55281">
        <ele>25.799999237061</ele>
        <time>2019-04-02T06:44:09.000Z</time>
      </trkpt>
      <trkpt lat="47.26859" lon="-1.55282">
        <ele>25.799999237061</ele>
        <time>2019-04-02T06:44:10.000Z</time>
      </trkpt>
      <trkpt lat="47.26859" lon="-1.55282">
        <ele>25.799999237061</ele>
        <time>2019-04-02T06:44:11.000Z</time>
      </trkpt>
      <trkpt lat="47.26857" lon="-1.55283">
        <ele>25.799999237061</ele>
        <time>2019-04-02T06:44:12.000Z</time>
      </trkpt>
      <trkpt lat="47.26856" lon="-1.55283">
        <ele>25.799999237061</ele>
        <time>2019-04-02T06:44:13.000Z</time>
      </trkpt>
      <trkpt lat="47.26855" lon="-1.55283">
        <ele>25.799999237061</ele>
        <time>2019-04-02T06:44:14.000Z</time>
      </trkpt>
      <trkpt lat="47.26853" lon="-1.55284">
        <ele>25.60000038147</ele>
        <time>2019-04-02T06:44:15.000Z</time>
      </trkpt>
      <trkpt lat="47.26852" lon="-1.55284">
        <ele>25.60000038147</ele>
        <time>2019-04-02T06:44:16.000Z</time>
      </trkpt>
      <trkpt lat="47.2685" lon="-1.55285">
        <ele>25.60000038147</ele>
        <time>2019-04-02T06:44:17.000Z</time>
      </trkpt>
      <trkpt lat="47.26849" lon="-1.55285">
        <ele>25.60000038147</ele>
        <time>2019-04-02T06:44:18.000Z</time>
      </trkpt>
      <trkpt lat="47.26848" lon="-1.55286">
        <ele>25.60000038147</ele>
        <time>2019-04-02T06:44:19.000Z</time>
      </trkpt>
      <trkpt lat="47.26847" lon="-1.55286">
        <ele>25.60000038147</ele>
        <time>2019-04-02T06:44:20.000Z</time>
      </trkpt>
      <trkpt lat="47.26845" lon="-1.55287">
        <ele>25.60000038147</ele>
        <time>2019-04-02T06:44:21.000Z</time>
      </trkpt>
      <trkpt lat="47.26844" lon="-1.55287">
        <ele>25.60000038147</ele>
        <time>2019-04-02T06:44:22.000Z</time>
      </trkpt>
      <trkpt lat="47.26843" lon="-1.55288">
        <ele>25.60000038147</ele>
        <time>2019-04-02T06:44:23.000Z</time>
      </trkpt>
      <trkpt lat="47.26841" lon="-1.55288">
        <ele>25.39999961853</ele>
        <time>2019-04-02T06:44:24.000Z</time>
      </trkpt>
      <trkpt lat="47.26839" lon="-1.55289">
        <ele>25.39999961853</ele>
        <time>2019-04-02T06:44:25.000Z</time>
      </trkpt>
      <trkpt lat="47.26838" lon="-1.5529">
        <ele>25.39999961853</ele>
        <time>2019-04-02T06:44:26.000Z</time>
      </trkpt>
      <trkpt lat="47.26836" lon="-1.5529">
        <ele>25.39999961853</ele>
        <time>2019-04-02T06:44:27.000Z</time>
      </trkpt>
      <trkpt lat="47.26835" lon="-1.5529">
        <ele>25.39999961853</ele>
        <time>2019-04-02T06:44:28.000Z</time>
      </trkpt>
      <trkpt lat="47.26833" lon="-1.55291">
        <ele>25.39999961853</ele>
        <time>2019-04-02T06:44:29.000Z</time>
      </trkpt>
      <trkpt lat="47.26832" lon="-1.55292">
        <ele>25.39999961853</ele>
        <time>2019-04-02T06:44:30.000Z</time>
      </trkpt>
      <trkpt lat="47.2683" lon="-1.55292">
        <ele>25.39999961853</ele>
        <time>2019-04-02T06:44:31.000Z</time>
      </trkpt>
      <trkpt lat="47.26829" lon="-1.55292">
        <ele>25.200000762939</ele>
        <time>2019-04-02T06:44:32.000Z</time>
      </trkpt>
      <trkpt lat="47.26828" lon="-1.55293">
        <ele>25.200000762939</ele>
        <time>2019-04-02T06:44:33.000Z</time>
      </trkpt>
      <trkpt lat="47.26826" lon="-1.55293">
        <ele>25.200000762939</ele>
        <time>2019-04-02T06:44:34.000Z</time>
      </trkpt>
      <trkpt lat="47.26825" lon="-1.55294">
        <ele>25.200000762939</ele>
        <time>2019-04-02T06:44:35.000Z</time>
      </trkpt>
      <trkpt lat="47.26823" lon="-1.55294">
        <ele>25.200000762939</ele>
        <time>2019-04-02T06:44:36.000Z</time>
      </trkpt>
      <trkpt lat="47.26822" lon="-1.55295">
        <ele>25</ele>
        <time>2019-04-02T06:44:37.000Z</time>
      </trkpt>
      <trkpt lat="47.26821" lon="-1.55295">
        <ele>25</ele>
        <time>2019-04-02T06:44:38.000Z</time>
      </trkpt>
      <trkpt lat="47.26819" lon="-1.55296">
        <ele>25</ele>
        <time>2019-04-02T06:44:39.000Z</time>
      </trkpt>
      <trkpt lat="47.26818" lon="-1.55297">
        <ele>25</ele>
        <time>2019-04-02T06:44:40.000Z</time>
      </trkpt>
      <trkpt lat="47.26815" lon="-1.55298">
        <ele>24.799999237061</ele>
        <time>2019-04-02T06:44:41.000Z</time>
      </trkpt>
      <trkpt lat="47.26815" lon="-1.55298">
        <ele>24.799999237061</ele>
        <time>2019-04-02T06:44:42.000Z</time>
      </trkpt>
      <trkpt lat="47.26814" lon="-1.55299">
        <ele>24.799999237061</ele>
        <time>2019-04-02T06:44:43.000Z</time>
      </trkpt>
      <trkpt lat="47.26813" lon="-1.553">
        <ele>24.799999237061</ele>
        <time>2019-04-02T06:44:44.000Z</time>
      </trkpt>
      <trkpt lat="47.26811" lon="-1.553">
        <ele>24.799999237061</ele>
        <time>2019-04-02T06:44:45.000Z</time>
      </trkpt>
      <trkpt lat="47.2681" lon="-1.55302">
        <ele>24.799999237061</ele>
        <time>2019-04-02T06:44:46.000Z</time>
      </trkpt>
      <trkpt lat="47.26809" lon="-1.55303">
        <ele>24.60000038147</ele>
        <time>2019-04-02T06:44:47.000Z</time>
      </trkpt>
      <trkpt lat="47.26808" lon="-1.55304">
        <ele>24.60000038147</ele>
        <time>2019-04-02T06:44:48.000Z</time>
      </trkpt>
      <trkpt lat="47.26806" lon="-1.55305">
        <ele>24.60000038147</ele>
        <time>2019-04-02T06:44:49.000Z</time>
      </trkpt>
      <trkpt lat="47.26805" lon="-1.55306">
        <ele>24.60000038147</ele>
        <time>2019-04-02T06:44:50.000Z</time>
      </trkpt>
      <trkpt lat="47.26804" lon="-1.55308">
        <ele>24.60000038147</ele>
        <time>2019-04-02T06:44:51.000Z</time>
      </trkpt>
      <trkpt lat="47.26803" lon="-1.55309">
        <ele>24.39999961853</ele>
        <time>2019-04-02T06:44:52.000Z</time>
      </trkpt>
      <trkpt lat="47.26802" lon="-1.5531">
        <ele>24.39999961853</ele>
        <time>2019-04-02T06:44:53.000Z</time>
      </trkpt>
      <trkpt lat="47.26801" lon="-1.55312">
        <ele>24.39999961853</ele>
        <time>2019-04-02T06:44:54.000Z</time>
      </trkpt>
      <trkpt lat="47.268" lon="-1.55313">
        <ele>24.39999961853</ele>
        <time>2019-04-02T06:44:55.000Z</time>
      </trkpt>
      <trkpt lat="47.26798" lon="-1.55315">
        <ele>24.200000762939</ele>
        <time>2019-04-02T06:44:56.000Z</time>
      </trkpt>
      <trkpt lat="47.26797" lon="-1.55316">
        <ele>24.200000762939</ele>
        <time>2019-04-02T06:44:57.000Z</time>
      </trkpt>
      <trkpt lat="47.26796" lon="-1.55318">
        <ele>24.200000762939</ele>
        <time>2019-04-02T06:44:58.000Z</time>
      </trkpt>
      <trkpt lat="47.26795" lon="-1.5532">
        <ele>24.200000762939</ele>
        <time>2019-04-02T06:44:59.000Z</time>
      </trkpt>
      <trkpt lat="47.26794" lon="-1.55321">
        <ele>24</ele>
        <time>2019-04-02T06:45:00.000Z</time>
      </trkpt>
      <trkpt lat="47.26793" lon="-1.55323">
        <ele>24</ele>
        <time>2019-04-02T06:45:01.000Z</time>
      </trkpt>
      <trkpt lat="47.26792" lon="-1.55325">
        <ele>23.799999237061</ele>
        <time>2019-04-02T06:45:02.000Z</time>
      </trkpt>
      <trkpt lat="47.26791" lon="-1.55326">
        <ele>23.799999237061</ele>
        <time>2019-04-02T06:45:03.000Z</time>
      </trkpt>
      <trkpt lat="47.2679" lon="-1.55328">
        <ele>23.60000038147</ele>
        <time>2019-04-02T06:45:04.000Z</time>
      </trkpt>
      <trkpt lat="47.26789" lon="-1.55329">
        <ele>23.60000038147</ele>
        <time>2019-04-02T06:45:05.000Z</time>
      </trkpt>
      <trkpt lat="47.26788" lon="-1.5533">
        <ele>23.60000038147</ele>
        <time>2019-04-02T06:45:06.000Z</time>
      </trkpt>
      <trkpt lat="47.26787" lon="-1.55332">
        <ele>23.39999961853</ele>
        <time>2019-04-02T06:45:07.000Z</time>
      </trkpt>
      <trkpt lat="47.26786" lon="-1.55333">
        <ele>23.39999961853</ele>
        <time>2019-04-02T06:45:08.000Z</time>
      </trkpt>
      <trkpt lat="47.26785" lon="-1.55334">
        <ele>23.39999961853</ele>
        <time>2019-04-02T06:45:09.000Z</time>
      </trkpt>
      <trkpt lat="47.26784" lon="-1.55336">
        <ele>23.200000762939</ele>
        <time>2019-04-02T06:45:10.000Z</time>
      </trkpt>
      <trkpt lat="47.26783" lon="-1.55337">
        <ele>23.200000762939</ele>
        <time>2019-04-02T06:45:11.000Z</time>
      </trkpt>
      <trkpt lat="47.26782" lon="-1.55338">
        <ele>23.200000762939</ele>
        <time>2019-04-02T06:45:12.000Z</time>
      </trkpt>
      <trkpt lat="47.2678" lon="-1.55339">
        <ele>23</ele>
        <time>2019-04-02T06:45:13.000Z</time>
      </trkpt>
      <trkpt lat="47.26779" lon="-1.5534">
        <ele>23</ele>
        <time>2019-04-02T06:45:14.000Z</time>
      </trkpt>
      <trkpt lat="47.26778" lon="-1.55341">
        <ele>23</ele>
        <time>2019-04-02T06:45:15.000Z</time>
      </trkpt>
      <trkpt lat="47.26777" lon="-1.55342">
        <ele>22.799999237061</ele>
        <time>2019-04-02T06:45:16.000Z</time>
      </trkpt>
      <trkpt lat="47.26776" lon="-1.55342">
        <ele>22.799999237061</ele>
        <time>2019-04-02T06:45:17.000Z</time>
      </trkpt>
      <trkpt lat="47.26775" lon="-1.55342">
        <ele>22.799999237061</ele>
        <time>2019-04-02T06:45:18.000Z</time>
      </trkpt>
      <trkpt lat="47.26773" lon="-1.55342">
        <ele>22.799999237061</ele>
        <time>2019-04-02T06:45:19.000Z</time>
      </trkpt>
      <trkpt lat="47.26772" lon="-1.55341">
        <ele>22.799999237061</ele>
        <time>2019-04-02T06:45:20.000Z</time>
      </trkpt>
      <trkpt lat="47.26771" lon="-1.5534">
        <ele>22.799999237061</ele>
        <time>2019-04-02T06:45:21.000Z</time>
      </trkpt>
      <trkpt lat="47.26769" lon="-1.55339">
        <ele>22.799999237061</ele>
        <time>2019-04-02T06:45:22.000Z</time>
      </trkpt>
      <trkpt lat="47.26768" lon="-1.55338">
        <ele>22.799999237061</ele>
        <time>2019-04-02T06:45:23.000Z</time>
      </trkpt>
      <trkpt lat="47.26767" lon="-1.55337">
        <ele>22.799999237061</ele>
        <time>2019-04-02T06:45:24.000Z</time>
      </trkpt>
      <trkpt lat="47.26766" lon="-1.55336">
        <ele>22.799999237061</ele>
        <time>2019-04-02T06:45:25.000Z</time>
      </trkpt>
      <trkpt lat="47.26764" lon="-1.55335">
        <ele>22.799999237061</ele>
        <time>2019-04-02T06:45:26.000Z</time>
      </trkpt>
      <trkpt lat="47.26763" lon="-1.55334">
        <ele>22.799999237061</ele>
        <time>2019-04-02T06:45:27.000Z</time>
      </trkpt>
      <trkpt lat="47.26762" lon="-1.55333">
        <ele>22.799999237061</ele>
        <time>2019-04-02T06:45:28.000Z</time>
      </trkpt>
      <trkpt lat="47.26761" lon="-1.55332">
        <ele>22.799999237061</ele>
        <time>2019-04-02T06:45:29.000Z</time>
      </trkpt>
      <trkpt lat="47.2676" lon="-1.55332">
        <ele>22.799999237061</ele>
        <time>2019-04-02T06:45:30.000Z</time>
      </trkpt>
      <trkpt lat="47.26759" lon="-1.55331">
        <ele>22.799999237061</ele>
        <time>2019-04-02T06:45:31.000Z</time>
      </trkpt>
      <trkpt lat="47.26757" lon="-1.5533">
        <ele>22.799999237061</ele>
        <time>2019-04-02T06:45:32.000Z</time>
      </trkpt>
      <trkpt lat="47.26756" lon="-1.55329">
        <ele>22.799999237061</ele>
        <time>2019-04-02T06:45:33.000Z</time>
      </trkpt>
      <trkpt lat="47.26755" lon="-1.55329">
        <ele>22.799999237061</ele>
        <time>2019-04-02T06:45:34.000Z</time>
      </trkpt>
      <trkpt lat="47.26754" lon="-1.55328">
        <ele>22.799999237061</ele>
        <time>2019-04-02T06:45:35.000Z</time>
      </trkpt>
      <trkpt lat="47.26752" lon="-1.55327">
        <ele>22.799999237061</ele>
        <time>2019-04-02T06:45:36.000Z</time>
      </trkpt>
      <trkpt lat="47.2675" lon="-1.55326">
        <ele>22.799999237061</ele>
        <time>2019-04-02T06:45:37.000Z</time>
      </trkpt>
      <trkpt lat="47.2675" lon="-1.55326">
        <ele>22.799999237061</ele>
        <time>2019-04-02T06:45:38.000Z</time>
      </trkpt>
      <trkpt lat="47.26748" lon="-1.55324">
        <ele>22.799999237061</ele>
        <time>2019-04-02T06:45:39.000Z</time>
      </trkpt>
      <trkpt lat="47.26748" lon="-1.55324">
        <ele>22.799999237061</ele>
        <time>2019-04-02T06:45:40.000Z</time>
      </trkpt>
      <trkpt lat="47.26746" lon="-1.55324">
        <ele>22.799999237061</ele>
        <time>2019-04-02T06:45:41.000Z</time>
      </trkpt>
      <trkpt lat="47.26745" lon="-1.55323">
        <ele>22.799999237061</ele>
        <time>2019-04-02T06:45:42.000Z</time>
      </trkpt>
      <trkpt lat="47.26744" lon="-1.55323">
        <ele>22.799999237061</ele>
        <time>2019-04-02T06:45:43.000Z</time>
      </trkpt>
      <trkpt lat="47.26743" lon="-1.55322">
        <ele>22.799999237061</ele>
        <time>2019-04-02T06:45:44.000Z</time>
      </trkpt>
      <trkpt lat="47.2674" lon="-1.55321">
        <ele>22.60000038147</ele>
        <time>2019-04-02T06:45:45.000Z</time>
      </trkpt>
      <trkpt lat="47.2674" lon="-1.55321">
        <ele>22.60000038147</ele>
        <time>2019-04-02T06:45:46.000Z</time>
      </trkpt>
      <trkpt lat="47.26738" lon="-1.5532">
        <ele>22.60000038147</ele>
        <time>2019-04-02T06:45:47.000Z</time>
      </trkpt>
      <trkpt lat="47.26736" lon="-1.55319">
        <ele>22.60000038147</ele>
        <time>2019-04-02T06:45:48.000Z</time>
      </trkpt>
      <trkpt lat="47.26735" lon="-1.55319">
        <ele>22.60000038147</ele>
        <time>2019-04-02T06:45:49.000Z</time>
      </trkpt>
      <trkpt lat="47.26733" lon="-1.55318">
        <ele>22.60000038147</ele>
        <time>2019-04-02T06:45:50.000Z</time>
      </trkpt>
      <trkpt lat="47.26732" lon="-1.55318">
        <ele>22.60000038147</ele>
        <time>2019-04-02T06:45:51.000Z</time>
      </trkpt>
      <trkpt lat="47.2673" lon="-1.55317">
        <ele>22.60000038147</ele>
        <time>2019-04-02T06:45:52.000Z</time>
      </trkpt>
      <trkpt lat="47.26729" lon="-1.55317">
        <ele>22.60000038147</ele>
        <time>2019-04-02T06:45:53.000Z</time>
      </trkpt>
      <trkpt lat="47.26727" lon="-1.55317">
        <ele>22.60000038147</ele>
        <time>2019-04-02T06:45:54.000Z</time>
      </trkpt>
      <trkpt lat="47.26726" lon="-1.55317">
        <ele>22.60000038147</ele>
        <time>2019-04-02T06:45:55.000Z</time>
      </trkpt>
      <trkpt lat="47.26725" lon="-1.55317">
        <ele>22.39999961853</ele>
        <time>2019-04-02T06:45:56.000Z</time>
      </trkpt>
      <trkpt lat="47.26723" lon="-1.55317">
        <ele>22.39999961853</ele>
        <time>2019-04-02T06:45:57.000Z</time>
      </trkpt>
      <trkpt lat="47.26722" lon="-1.55316">
        <ele>22.39999961853</ele>
        <time>2019-04-02T06:45:58.000Z</time>
      </trkpt>
      <trkpt lat="47.2672" lon="-1.55316">
        <ele>22.39999961853</ele>
        <time>2019-04-02T06:45:59.000Z</time>
      </trkpt>
      <trkpt lat="47.26719" lon="-1.55315">
        <ele>22.39999961853</ele>
        <time>2019-04-02T06:46:00.000Z</time>
      </trkpt>
      <trkpt lat="47.26718" lon="-1.55315">
        <ele>22.39999961853</ele>
        <time>2019-04-02T06:46:01.000Z</time>
      </trkpt>
      <trkpt lat="47.26716" lon="-1.55315">
        <ele>22.39999961853</ele>
        <time>2019-04-02T06:46:02.000Z</time>
      </trkpt>
      <trkpt lat="47.26715" lon="-1.55314">
        <ele>22.200000762939</ele>
        <time>2019-04-02T06:46:03.000Z</time>
      </trkpt>
      <trkpt lat="47.26714" lon="-1.55314">
        <ele>22.200000762939</ele>
        <time>2019-04-02T06:46:04.000Z</time>
      </trkpt>
      <trkpt lat="47.26712" lon="-1.55313">
        <ele>22.200000762939</ele>
        <time>2019-04-02T06:46:05.000Z</time>
      </trkpt>
      <trkpt lat="47.26711" lon="-1.55313">
        <ele>22.200000762939</ele>
        <time>2019-04-02T06:46:06.000Z</time>
      </trkpt>
      <trkpt lat="47.2671" lon="-1.55313">
        <ele>22.200000762939</ele>
        <time>2019-04-02T06:46:07.000Z</time>
      </trkpt>
      <trkpt lat="47.26708" lon="-1.55312">
        <ele>22.200000762939</ele>
        <time>2019-04-02T06:46:08.000Z</time>
      </trkpt>
      <trkpt lat="47.26705" lon="-1.55312">
        <ele>22</ele>
        <time>2019-04-02T06:46:09.000Z</time>
      </trkpt>
      <trkpt lat="47.26705" lon="-1.55312">
        <ele>22</ele>
        <time>2019-04-02T06:46:10.000Z</time>
      </trkpt>
      <trkpt lat="47.26704" lon="-1.55311">
        <ele>22</ele>
        <time>2019-04-02T06:46:11.000Z</time>
      </trkpt>
      <trkpt lat="47.26703" lon="-1.55311">
        <ele>22</ele>
        <time>2019-04-02T06:46:12.000Z</time>
      </trkpt>
      <trkpt lat="47.26702" lon="-1.5531">
        <ele>22</ele>
        <time>2019-04-02T06:46:13.000Z</time>
      </trkpt>
      <trkpt lat="47.26701" lon="-1.5531">
        <ele>22</ele>
        <time>2019-04-02T06:46:14.000Z</time>
      </trkpt>
      <trkpt lat="47.26699" lon="-1.55309">
        <ele>22</ele>
        <time>2019-04-02T06:46:15.000Z</time>
      </trkpt>
      <trkpt lat="47.26698" lon="-1.55309">
        <ele>22</ele>
        <time>2019-04-02T06:46:16.000Z</time>
      </trkpt>
      <trkpt lat="47.26697" lon="-1.55309">
        <ele>22</ele>
        <time>2019-04-02T06:46:17.000Z</time>
      </trkpt>
      <trkpt lat="47.26696" lon="-1.55308">
        <ele>22</ele>
        <time>2019-04-02T06:46:18.000Z</time>
      </trkpt>
      <trkpt lat="47.26695" lon="-1.55308">
        <ele>21.799999237061</ele>
        <time>2019-04-02T06:46:19.000Z</time>
      </trkpt>
      <trkpt lat="47.26693" lon="-1.55308">
        <ele>21.799999237061</ele>
        <time>2019-04-02T06:46:20.000Z</time>
      </trkpt>
      <trkpt lat="47.26692" lon="-1.55307">
        <ele>21.799999237061</ele>
        <time>2019-04-02T06:46:21.000Z</time>
      </trkpt>
      <trkpt lat="47.26691" lon="-1.55306">
        <ele>21.799999237061</ele>
        <time>2019-04-02T06:46:22.000Z</time>
      </trkpt>
      <trkpt lat="47.2669" lon="-1.55306">
        <ele>21.799999237061</ele>
        <time>2019-04-02T06:46:23.000Z</time>
      </trkpt>
      <trkpt lat="47.26688" lon="-1.55306">
        <ele>21.799999237061</ele>
        <time>2019-04-02T06:46:24.000Z</time>
      </trkpt>
      <trkpt lat="47.26687" lon="-1.55305">
        <ele>21.799999237061</ele>
        <time>2019-04-02T06:46:25.000Z</time>
      </trkpt>
      <trkpt lat="47.26685" lon="-1.55305">
        <ele>21.60000038147</ele>
        <time>2019-04-02T06:46:26.000Z</time>
      </trkpt>
      <trkpt lat="47.26684" lon="-1.55304">
        <ele>21.60000038147</ele>
        <time>2019-04-02T06:46:27.000Z</time>
      </trkpt>
      <trkpt lat="47.26683" lon="-1.55304">
        <ele>21.60000038147</ele>
        <time>2019-04-02T06:46:28.000Z</time>
      </trkpt>
      <trkpt lat="47.26681" lon="-1.55303">
        <ele>21.60000038147</ele>
        <time>2019-04-02T06:46:29.000Z</time>
      </trkpt>
      <trkpt lat="47.2668" lon="-1.55302">
        <ele>21.60000038147</ele>
        <time>2019-04-02T06:46:30.000Z</time>
      </trkpt>
      <trkpt lat="47.26679" lon="-1.55301">
        <ele>21.60000038147</ele>
        <time>2019-04-02T06:46:31.000Z</time>
      </trkpt>
      <trkpt lat="47.26677" lon="-1.55301">
        <ele>21.60000038147</ele>
        <time>2019-04-02T06:46:32.000Z</time>
      </trkpt>
      <trkpt lat="47.26676" lon="-1.553">
        <ele>21.60000038147</ele>
        <time>2019-04-02T06:46:33.000Z</time>
      </trkpt>
      <trkpt lat="47.26675" lon="-1.553">
        <ele>21.60000038147</ele>
        <time>2019-04-02T06:46:34.000Z</time>
      </trkpt>
      <trkpt lat="47.26673" lon="-1.55299">
        <ele>21.39999961853</ele>
        <time>2019-04-02T06:46:35.000Z</time>
      </trkpt>
      <trkpt lat="47.26672" lon="-1.55298">
        <ele>21.39999961853</ele>
        <time>2019-04-02T06:46:36.000Z</time>
      </trkpt>
      <trkpt lat="47.26671" lon="-1.55297">
        <ele>21.39999961853</ele>
        <time>2019-04-02T06:46:37.000Z</time>
      </trkpt>
      <trkpt lat="47.26668" lon="-1.55296">
        <ele>21.39999961853</ele>
        <time>2019-04-02T06:46:38.000Z</time>
      </trkpt>
      <trkpt lat="47.26668" lon="-1.55296">
        <ele>21.39999961853</ele>
        <time>2019-04-02T06:46:39.000Z</time>
      </trkpt>
      <trkpt lat="47.26667" lon="-1.55295">
        <ele>21.39999961853</ele>
        <time>2019-04-02T06:46:40.000Z</time>
      </trkpt>
      <trkpt lat="47.26666" lon="-1.55295">
        <ele>21.39999961853</ele>
        <time>2019-04-02T06:46:41.000Z</time>
      </trkpt>
      <trkpt lat="47.26665" lon="-1.55294">
        <ele>21.39999961853</ele>
        <time>2019-04-02T06:46:42.000Z</time>
      </trkpt>
      <trkpt lat="47.26663" lon="-1.55292">
        <ele>21.39999961853</ele>
        <time>2019-04-02T06:46:43.000Z</time>
      </trkpt>
      <trkpt lat="47.26662" lon="-1.55291">
        <ele>21.39999961853</ele>
        <time>2019-04-02T06:46:44.000Z</time>
      </trkpt>
      <trkpt lat="47.2666" lon="-1.5529">
        <ele>21.39999961853</ele>
        <time>2019-04-02T06:46:45.000Z</time>
      </trkpt>
      <trkpt lat="47.26659" lon="-1.55289">
        <ele>21.39999961853</ele>
        <time>2019-04-02T06:46:46.000Z</time>
      </trkpt>
      <trkpt lat="47.26657" lon="-1.55288">
        <ele>21.39999961853</ele>
        <time>2019-04-02T06:46:47.000Z</time>
      </trkpt>
      <trkpt lat="47.26656" lon="-1.55286">
        <ele>21.60000038147</ele>
        <time>2019-04-02T06:46:48.000Z</time>
      </trkpt>
      <trkpt lat="47.26654" lon="-1.55285">
        <ele>21.60000038147</ele>
        <time>2019-04-02T06:46:49.000Z</time>
      </trkpt>
      <trkpt lat="47.26653" lon="-1.55284">
        <ele>21.60000038147</ele>
        <time>2019-04-02T06:46:50.000Z</time>
      </trkpt>
      <trkpt lat="47.26652" lon="-1.55282">
        <ele>21.60000038147</ele>
        <time>2019-04-02T06:46:51.000Z</time>
      </trkpt>
      <trkpt lat="47.2665" lon="-1.55281">
        <ele>21.799999237061</ele>
        <time>2019-04-02T06:46:52.000Z</time>
      </trkpt>
      <trkpt lat="47.26649" lon="-1.5528">
        <ele>21.799999237061</ele>
        <time>2019-04-02T06:46:53.000Z</time>
      </trkpt>
      <trkpt lat="47.26648" lon="-1.55278">
        <ele>21.799999237061</ele>
        <time>2019-04-02T06:46:54.000Z</time>
      </trkpt>
      <trkpt lat="47.26645" lon="-1.55277">
        <ele>22</ele>
        <time>2019-04-02T06:46:55.000Z</time>
      </trkpt>
      <trkpt lat="47.26645" lon="-1.55277">
        <ele>22</ele>
        <time>2019-04-02T06:46:56.000Z</time>
      </trkpt>
      <trkpt lat="47.26644" lon="-1.55276">
        <ele>22</ele>
        <time>2019-04-02T06:46:57.000Z</time>
      </trkpt>
      <trkpt lat="47.26642" lon="-1.55275">
        <ele>22</ele>
        <time>2019-04-02T06:46:58.000Z</time>
      </trkpt>
      <trkpt lat="47.26641" lon="-1.55274">
        <ele>22</ele>
        <time>2019-04-02T06:46:59.000Z</time>
      </trkpt>
      <trkpt lat="47.2664" lon="-1.55273">
        <ele>22</ele>
        <time>2019-04-02T06:47:00.000Z</time>
      </trkpt>
      <trkpt lat="47.26638" lon="-1.55272">
        <ele>22.200000762939</ele>
        <time>2019-04-02T06:47:01.000Z</time>
      </trkpt>
      <trkpt lat="47.26637" lon="-1.55271">
        <ele>22.200000762939</ele>
        <time>2019-04-02T06:47:02.000Z</time>
      </trkpt>
      <trkpt lat="47.26636" lon="-1.5527">
        <ele>22.200000762939</ele>
        <time>2019-04-02T06:47:03.000Z</time>
      </trkpt>
      <trkpt lat="47.26634" lon="-1.55269">
        <ele>22.200000762939</ele>
        <time>2019-04-02T06:47:04.000Z</time>
      </trkpt>
      <trkpt lat="47.26633" lon="-1.55268">
        <ele>22.39999961853</ele>
        <time>2019-04-02T06:47:05.000Z</time>
      </trkpt>
      <trkpt lat="47.26631" lon="-1.55267">
        <ele>22.39999961853</ele>
        <time>2019-04-02T06:47:06.000Z</time>
      </trkpt>
      <trkpt lat="47.2663" lon="-1.55266">
        <ele>22.39999961853</ele>
        <time>2019-04-02T06:47:07.000Z</time>
      </trkpt>
      <trkpt lat="47.26629" lon="-1.55265">
        <ele>22.39999961853</ele>
        <time>2019-04-02T06:47:08.000Z</time>
      </trkpt>
      <trkpt lat="47.26627" lon="-1.55264">
        <ele>22.39999961853</ele>
        <time>2019-04-02T06:47:09.000Z</time>
      </trkpt>
      <trkpt lat="47.26626" lon="-1.55263">
        <ele>22.39999961853</ele>
        <time>2019-04-02T06:47:10.000Z</time>
      </trkpt>
      <trkpt lat="47.26625" lon="-1.55261">
        <ele>22.39999961853</ele>
        <time>2019-04-02T06:47:11.000Z</time>
      </trkpt>
      <trkpt lat="47.26623" lon="-1.5526">
        <ele>22.39999961853</ele>
        <time>2019-04-02T06:47:12.000Z</time>
      </trkpt>
      <trkpt lat="47.26622" lon="-1.55259">
        <ele>22.39999961853</ele>
        <time>2019-04-02T06:47:13.000Z</time>
      </trkpt>
      <trkpt lat="47.26621" lon="-1.55258">
        <ele>22.200000762939</ele>
        <time>2019-04-02T06:47:14.000Z</time>
      </trkpt>
      <trkpt lat="47.26619" lon="-1.55257">
        <ele>22.200000762939</ele>
        <time>2019-04-02T06:47:15.000Z</time>
      </trkpt>
      <trkpt lat="47.26618" lon="-1.55256">
        <ele>22.200000762939</ele>
        <time>2019-04-02T06:47:16.000Z</time>
      </trkpt>
      <trkpt lat="47.26615" lon="-1.55254">
        <ele>22.200000762939</ele>
        <time>2019-04-02T06:47:17.000Z</time>
      </trkpt>
      <trkpt lat="47.26615" lon="-1.55254">
        <ele>22.200000762939</ele>
        <time>2019-04-02T06:47:18.000Z</time>
      </trkpt>
      <trkpt lat="47.26613" lon="-1.55253">
        <ele>22.200000762939</ele>
        <time>2019-04-02T06:47:19.000Z</time>
      </trkpt>
      <trkpt lat="47.26612" lon="-1.55252">
        <ele>22.200000762939</ele>
        <time>2019-04-02T06:47:20.000Z</time>
      </trkpt>
      <trkpt lat="47.26611" lon="-1.55251">
        <ele>22.200000762939</ele>
        <time>2019-04-02T06:47:21.000Z</time>
      </trkpt>
      <trkpt lat="47.26609" lon="-1.5525">
        <ele>22.200000762939</ele>
        <time>2019-04-02T06:47:22.000Z</time>
      </trkpt>
      <trkpt lat="47.26608" lon="-1.55249">
        <ele>22.200000762939</ele>
        <time>2019-04-02T06:47:23.000Z</time>
      </trkpt>
      <trkpt lat="47.26606" lon="-1.55248">
        <ele>22.200000762939</ele>
        <time>2019-04-02T06:47:24.000Z</time>
      </trkpt>
      <trkpt lat="47.26605" lon="-1.55248">
        <ele>22.200000762939</ele>
        <time>2019-04-02T06:47:25.000Z</time>
      </trkpt>
      <trkpt lat="47.26604" lon="-1.55247">
        <ele>22.200000762939</ele>
        <time>2019-04-02T06:47:26.000Z</time>
      </trkpt>
      <trkpt lat="47.26603" lon="-1.55247">
        <ele>22.200000762939</ele>
        <time>2019-04-02T06:47:27.000Z</time>
      </trkpt>
      <trkpt lat="47.26601" lon="-1.55246">
        <ele>22.200000762939</ele>
        <time>2019-04-02T06:47:28.000Z</time>
      </trkpt>
      <trkpt lat="47.26601" lon="-1.55246">
        <ele>22.200000762939</ele>
        <time>2019-04-02T06:47:29.000Z</time>
      </trkpt>
      <trkpt lat="47.266" lon="-1.55245">
        <ele>22.200000762939</ele>
        <time>2019-04-02T06:47:30.000Z</time>
      </trkpt>
      <trkpt lat="47.26599" lon="-1.55245">
        <ele>22.200000762939</ele>
        <time>2019-04-02T06:47:31.000Z</time>
      </trkpt>
      <trkpt lat="47.26599" lon="-1.55244">
        <ele>22.200000762939</ele>
        <time>2019-04-02T06:47:32.000Z</time>
      </trkpt>
      <trkpt lat="47.26597" lon="-1.55243">
        <ele>22.200000762939</ele>
        <time>2019-04-02T06:47:33.000Z</time>
      </trkpt>
      <trkpt lat="47.26597" lon="-1.55243">
        <ele>22.200000762939</ele>
        <time>2019-04-02T06:47:34.000Z</time>
      </trkpt>
      <trkpt lat="47.26596" lon="-1.55243">
        <ele>22.200000762939</ele>
        <time>2019-04-02T06:47:35.000Z</time>
      </trkpt>
      <trkpt lat="47.26595" lon="-1.55242">
        <ele>22</ele>
        <time>2019-04-02T06:47:36.000Z</time>
      </trkpt>
      <trkpt lat="47.26594" lon="-1.55242">
        <ele>22</ele>
        <time>2019-04-02T06:47:37.000Z</time>
      </trkpt>
      <trkpt lat="47.26593" lon="-1.55242">
        <ele>22</ele>
        <time>2019-04-02T06:47:38.000Z</time>
      </trkpt>
      <trkpt lat="47.26592" lon="-1.55242">
        <ele>22</ele>
        <time>2019-04-02T06:47:39.000Z</time>
      </trkpt>
      <trkpt lat="47.26592" lon="-1.55242">
        <ele>22</ele>
        <time>2019-04-02T06:47:40.000Z</time>
      </trkpt>
      <trkpt lat="47.26591" lon="-1.55241">
        <ele>22</ele>
        <time>2019-04-02T06:47:41.000Z</time>
      </trkpt>
      <trkpt lat="47.2659" lon="-1.55241">
        <ele>22</ele>
        <time>2019-04-02T06:47:42.000Z</time>
      </trkpt>
      <trkpt lat="47.26589" lon="-1.55241">
        <ele>22</ele>
        <time>2019-04-02T06:47:43.000Z</time>
      </trkpt>
      <trkpt lat="47.26587" lon="-1.5524">
        <ele>22</ele>
        <time>2019-04-02T06:47:44.000Z</time>
      </trkpt>
      <trkpt lat="47.26586" lon="-1.55239">
        <ele>22</ele>
        <time>2019-04-02T06:47:45.000Z</time>
      </trkpt>
      <trkpt lat="47.26585" lon="-1.55239">
        <ele>22</ele>
        <time>2019-04-02T06:47:46.000Z</time>
      </trkpt>
      <trkpt lat="47.26584" lon="-1.55238">
        <ele>22</ele>
        <time>2019-04-02T06:47:47.000Z</time>
      </trkpt>
      <trkpt lat="47.26583" lon="-1.55237">
        <ele>22</ele>
        <time>2019-04-02T06:47:48.000Z</time>
      </trkpt>
      <trkpt lat="47.26582" lon="-1.55236">
        <ele>22</ele>
        <time>2019-04-02T06:47:49.000Z</time>
      </trkpt>
      <trkpt lat="47.2658" lon="-1.55236">
        <ele>22</ele>
        <time>2019-04-02T06:47:50.000Z</time>
      </trkpt>
      <trkpt lat="47.26579" lon="-1.55235">
        <ele>22</ele>
        <time>2019-04-02T06:47:51.000Z</time>
      </trkpt>
      <trkpt lat="47.26577" lon="-1.55235">
        <ele>22</ele>
        <time>2019-04-02T06:47:52.000Z</time>
      </trkpt>
      <trkpt lat="47.26575" lon="-1.55235">
        <ele>22</ele>
        <time>2019-04-02T06:47:53.000Z</time>
      </trkpt>
      <trkpt lat="47.26574" lon="-1.55236">
        <ele>22</ele>
        <time>2019-04-02T06:47:54.000Z</time>
      </trkpt>
      <trkpt lat="47.26573" lon="-1.55236">
        <ele>22</ele>
        <time>2019-04-02T06:47:55.000Z</time>
      </trkpt>
      <trkpt lat="47.26571" lon="-1.55238">
        <ele>21.799999237061</ele>
        <time>2019-04-02T06:47:56.000Z</time>
      </trkpt>
      <trkpt lat="47.26571" lon="-1.55238">
        <ele>21.799999237061</ele>
        <time>2019-04-02T06:47:57.000Z</time>
      </trkpt>
      <trkpt lat="47.26571" lon="-1.5524">
        <ele>21.799999237061</ele>
        <time>2019-04-02T06:47:58.000Z</time>
      </trkpt>
      <trkpt lat="47.26569" lon="-1.55241">
        <ele>21.799999237061</ele>
        <time>2019-04-02T06:47:59.000Z</time>
      </trkpt>
      <trkpt lat="47.26568" lon="-1.55242">
        <ele>21.799999237061</ele>
        <time>2019-04-02T06:48:00.000Z</time>
      </trkpt>
      <trkpt lat="47.26567" lon="-1.55244">
        <ele>21.799999237061</ele>
        <time>2019-04-02T06:48:01.000Z</time>
      </trkpt>
      <trkpt lat="47.26566" lon="-1.55245">
        <ele>21.799999237061</ele>
        <time>2019-04-02T06:48:02.000Z</time>
      </trkpt>
      <trkpt lat="47.26565" lon="-1.55247">
        <ele>21.799999237061</ele>
        <time>2019-04-02T06:48:03.000Z</time>
      </trkpt>
      <trkpt lat="47.26564" lon="-1.55248">
        <ele>21.799999237061</ele>
        <time>2019-04-02T06:48:04.000Z</time>
      </trkpt>
      <trkpt lat="47.26564" lon="-1.5525">
        <ele>21.799999237061</ele>
        <time>2019-04-02T06:48:05.000Z</time>
      </trkpt>
      <trkpt lat="47.26563" lon="-1.55252">
        <ele>21.799999237061</ele>
        <time>2019-04-02T06:48:06.000Z</time>
      </trkpt>
      <trkpt lat="47.26562" lon="-1.55253">
        <ele>21.799999237061</ele>
        <time>2019-04-02T06:48:07.000Z</time>
      </trkpt>
      <trkpt lat="47.26562" lon="-1.55255">
        <ele>21.799999237061</ele>
        <time>2019-04-02T06:48:08.000Z</time>
      </trkpt>
      <trkpt lat="47.26561" lon="-1.55257">
        <ele>21.799999237061</ele>
        <time>2019-04-02T06:48:09.000Z</time>
      </trkpt>
      <trkpt lat="47.26561" lon="-1.55259">
        <ele>21.799999237061</ele>
        <time>2019-04-02T06:48:10.000Z</time>
      </trkpt>
      <trkpt lat="47.2656" lon="-1.55261">
        <ele>21.799999237061</ele>
        <time>2019-04-02T06:48:11.000Z</time>
      </trkpt>
      <trkpt lat="47.2656" lon="-1.55263">
        <ele>21.799999237061</ele>
        <time>2019-04-02T06:48:12.000Z</time>
      </trkpt>
      <trkpt lat="47.26559" lon="-1.55265">
        <ele>21.799999237061</ele>
        <time>2019-04-02T06:48:13.000Z</time>
      </trkpt>
      <trkpt lat="47.26558" lon="-1.55267">
        <ele>21.799999237061</ele>
        <time>2019-04-02T06:48:14.000Z</time>
      </trkpt>
      <trkpt lat="47.26558" lon="-1.55269">
        <ele>21.799999237061</ele>
        <time>2019-04-02T06:48:15.000Z</time>
      </trkpt>
      <trkpt lat="47.26556" lon="-1.55273">
        <ele>22</ele>
        <time>2019-04-02T06:48:16.000Z</time>
      </trkpt>
      <trkpt lat="47.26556" lon="-1.55273">
        <ele>22</ele>
        <time>2019-04-02T06:48:17.000Z</time>
      </trkpt>
      <trkpt lat="47.26555" lon="-1.55275">
        <ele>22</ele>
        <time>2019-04-02T06:48:18.000Z</time>
      </trkpt>
      <trkpt lat="47.26554" lon="-1.55278">
        <ele>22</ele>
        <time>2019-04-02T06:48:19.000Z</time>
      </trkpt>
      <trkpt lat="47.26553" lon="-1.55279">
        <ele>22</ele>
        <time>2019-04-02T06:48:20.000Z</time>
      </trkpt>
      <trkpt lat="47.26552" lon="-1.55281">
        <ele>22</ele>
        <time>2019-04-02T06:48:21.000Z</time>
      </trkpt>
      <trkpt lat="47.26551" lon="-1.55283">
        <ele>22</ele>
        <time>2019-04-02T06:48:22.000Z</time>
      </trkpt>
      <trkpt lat="47.2655" lon="-1.55285">
        <ele>22</ele>
        <time>2019-04-02T06:48:23.000Z</time>
      </trkpt>
      <trkpt lat="47.26549" lon="-1.55287">
        <ele>22</ele>
        <time>2019-04-02T06:48:24.000Z</time>
      </trkpt>
      <trkpt lat="47.26549" lon="-1.55288">
        <ele>22</ele>
        <time>2019-04-02T06:48:25.000Z</time>
      </trkpt>
      <trkpt lat="47.26548" lon="-1.5529">
        <ele>22</ele>
        <time>2019-04-02T06:48:26.000Z</time>
      </trkpt>
      <trkpt lat="47.26547" lon="-1.55292">
        <ele>22</ele>
        <time>2019-04-02T06:48:27.000Z</time>
      </trkpt>
      <trkpt lat="47.26546" lon="-1.55294">
        <ele>22</ele>
        <time>2019-04-02T06:48:28.000Z</time>
      </trkpt>
      <trkpt lat="47.26545" lon="-1.55295">
        <ele>22</ele>
        <time>2019-04-02T06:48:29.000Z</time>
      </trkpt>
      <trkpt lat="47.26544" lon="-1.55297">
        <ele>22</ele>
        <time>2019-04-02T06:48:30.000Z</time>
      </trkpt>
      <trkpt lat="47.26543" lon="-1.55299">
        <ele>22</ele>
        <time>2019-04-02T06:48:31.000Z</time>
      </trkpt>
      <trkpt lat="47.26543" lon="-1.553">
        <ele>22</ele>
        <time>2019-04-02T06:48:32.000Z</time>
      </trkpt>
      <trkpt lat="47.26542" lon="-1.55302">
        <ele>22</ele>
        <time>2019-04-02T06:48:33.000Z</time>
      </trkpt>
      <trkpt lat="47.26541" lon="-1.55304">
        <ele>22</ele>
        <time>2019-04-02T06:48:34.000Z</time>
      </trkpt>
      <trkpt lat="47.2654" lon="-1.55305">
        <ele>22</ele>
        <time>2019-04-02T06:48:35.000Z</time>
      </trkpt>
      <trkpt lat="47.26539" lon="-1.55307">
        <ele>22</ele>
        <time>2019-04-02T06:48:36.000Z</time>
      </trkpt>
      <trkpt lat="47.26538" lon="-1.55309">
        <ele>22</ele>
        <time>2019-04-02T06:48:37.000Z</time>
      </trkpt>
      <trkpt lat="47.26538" lon="-1.5531">
        <ele>22</ele>
        <time>2019-04-02T06:48:38.000Z</time>
      </trkpt>
      <trkpt lat="47.26537" lon="-1.55312">
        <ele>22</ele>
        <time>2019-04-02T06:48:39.000Z</time>
      </trkpt>
      <trkpt lat="47.26536" lon="-1.55313">
        <ele>22</ele>
        <time>2019-04-02T06:48:40.000Z</time>
      </trkpt>
      <trkpt lat="47.26535" lon="-1.55315">
        <ele>21.799999237061</ele>
        <time>2019-04-02T06:48:41.000Z</time>
      </trkpt>
      <trkpt lat="47.26534" lon="-1.55316">
        <ele>21.799999237061</ele>
        <time>2019-04-02T06:48:42.000Z</time>
      </trkpt>
      <trkpt lat="47.26532" lon="-1.5532">
        <ele>21.799999237061</ele>
        <time>2019-04-02T06:48:43.000Z</time>
      </trkpt>
      <trkpt lat="47.26532" lon="-1.5532">
        <ele>21.799999237061</ele>
        <time>2019-04-02T06:48:44.000Z</time>
      </trkpt>
      <trkpt lat="47.26532" lon="-1.55322">
        <ele>21.799999237061</ele>
        <time>2019-04-02T06:48:45.000Z</time>
      </trkpt>
      <trkpt lat="47.26531" lon="-1.55323">
        <ele>21.60000038147</ele>
        <time>2019-04-02T06:48:46.000Z</time>
      </trkpt>
      <trkpt lat="47.2653" lon="-1.55325">
        <ele>21.60000038147</ele>
        <time>2019-04-02T06:48:47.000Z</time>
      </trkpt>
      <trkpt lat="47.26529" lon="-1.55326">
        <ele>21.60000038147</ele>
        <time>2019-04-02T06:48:48.000Z</time>
      </trkpt>
      <trkpt lat="47.26528" lon="-1.55327">
        <ele>21.60000038147</ele>
        <time>2019-04-02T06:48:49.000Z</time>
      </trkpt>
      <trkpt lat="47.26527" lon="-1.55328">
        <ele>21.39999961853</ele>
        <time>2019-04-02T06:48:50.000Z</time>
      </trkpt>
      <trkpt lat="47.26525" lon="-1.55329">
        <ele>21.39999961853</ele>
        <time>2019-04-02T06:48:51.000Z</time>
      </trkpt>
      <trkpt lat="47.26524" lon="-1.5533">
        <ele>21.39999961853</ele>
        <time>2019-04-02T06:48:52.000Z</time>
      </trkpt>
      <trkpt lat="47.26523" lon="-1.5533">
        <ele>21.39999961853</ele>
        <time>2019-04-02T06:48:53.000Z</time>
      </trkpt>
      <trkpt lat="47.26522" lon="-1.5533">
        <ele>21.39999961853</ele>
        <time>2019-04-02T06:48:54.000Z</time>
      </trkpt>
      <trkpt lat="47.26522" lon="-1.5533">
        <ele>21.200000762939</ele>
        <time>2019-04-02T06:48:55.000Z</time>
      </trkpt>
      <trkpt lat="47.2652" lon="-1.55331">
        <ele>21.200000762939</ele>
        <time>2019-04-02T06:48:56.000Z</time>
      </trkpt>
      <trkpt lat="47.2652" lon="-1.55331">
        <ele>21.200000762939</ele>
        <time>2019-04-02T06:48:57.000Z</time>
      </trkpt>
      <trkpt lat="47.26519" lon="-1.5533">
        <ele>21.200000762939</ele>
        <time>2019-04-02T06:48:58.000Z</time>
      </trkpt>
      <trkpt lat="47.26518" lon="-1.5533">
        <ele>21.200000762939</ele>
        <time>2019-04-02T06:48:59.000Z</time>
      </trkpt>
      <trkpt lat="47.26517" lon="-1.55329">
        <ele>21.200000762939</ele>
        <time>2019-04-02T06:49:00.000Z</time>
      </trkpt>
      <trkpt lat="47.26516" lon="-1.55328">
        <ele>21.200000762939</ele>
        <time>2019-04-02T06:49:01.000Z</time>
      </trkpt>
      <trkpt lat="47.26514" lon="-1.55327">
        <ele>21.200000762939</ele>
        <time>2019-04-02T06:49:02.000Z</time>
      </trkpt>
      <trkpt lat="47.26513" lon="-1.55325">
        <ele>21.200000762939</ele>
        <time>2019-04-02T06:49:03.000Z</time>
      </trkpt>
      <trkpt lat="47.26512" lon="-1.55324">
        <ele>21.200000762939</ele>
        <time>2019-04-02T06:49:04.000Z</time>
      </trkpt>
      <trkpt lat="47.26511" lon="-1.55323">
        <ele>21.200000762939</ele>
        <time>2019-04-02T06:49:05.000Z</time>
      </trkpt>
      <trkpt lat="47.2651" lon="-1.55322">
        <ele>21.200000762939</ele>
        <time>2019-04-02T06:49:06.000Z</time>
      </trkpt>
      <trkpt lat="47.26508" lon="-1.55321">
        <ele>21.200000762939</ele>
        <time>2019-04-02T06:49:07.000Z</time>
      </trkpt>
      <trkpt lat="47.26507" lon="-1.5532">
        <ele>21.200000762939</ele>
        <time>2019-04-02T06:49:08.000Z</time>
      </trkpt>
      <trkpt lat="47.26506" lon="-1.55318">
        <ele>21.200000762939</ele>
        <time>2019-04-02T06:49:09.000Z</time>
      </trkpt>
      <trkpt lat="47.26505" lon="-1.55317">
        <ele>21.200000762939</ele>
        <time>2019-04-02T06:49:10.000Z</time>
      </trkpt>
      <trkpt lat="47.26504" lon="-1.55316">
        <ele>21.200000762939</ele>
        <time>2019-04-02T06:49:11.000Z</time>
      </trkpt>
      <trkpt lat="47.26503" lon="-1.55315">
        <ele>21.200000762939</ele>
        <time>2019-04-02T06:49:12.000Z</time>
      </trkpt>
      <trkpt lat="47.26501" lon="-1.55313">
        <ele>21</ele>
        <time>2019-04-02T06:49:13.000Z</time>
      </trkpt>
      <trkpt lat="47.265" lon="-1.55312">
        <ele>21</ele>
        <time>2019-04-02T06:49:14.000Z</time>
      </trkpt>
      <trkpt lat="47.26497" lon="-1.55309">
        <ele>21</ele>
        <time>2019-04-02T06:49:15.000Z</time>
      </trkpt>
      <trkpt lat="47.26497" lon="-1.55309">
        <ele>21</ele>
        <time>2019-04-02T06:49:16.000Z</time>
      </trkpt>
      <trkpt lat="47.26496" lon="-1.55308">
        <ele>21</ele>
        <time>2019-04-02T06:49:17.000Z</time>
      </trkpt>
      <trkpt lat="47.26495" lon="-1.55307">
        <ele>21</ele>
        <time>2019-04-02T06:49:18.000Z</time>
      </trkpt>
      <trkpt lat="47.26493" lon="-1.55306">
        <ele>21</ele>
        <time>2019-04-02T06:49:19.000Z</time>
      </trkpt>
      <trkpt lat="47.26492" lon="-1.55306">
        <ele>21</ele>
        <time>2019-04-02T06:49:20.000Z</time>
      </trkpt>
      <trkpt lat="47.26491" lon="-1.55305">
        <ele>20.799999237061</ele>
        <time>2019-04-02T06:49:21.000Z</time>
      </trkpt>
      <trkpt lat="47.2649" lon="-1.55304">
        <ele>20.799999237061</ele>
        <time>2019-04-02T06:49:22.000Z</time>
      </trkpt>
      <trkpt lat="47.26488" lon="-1.55304">
        <ele>20.799999237061</ele>
        <time>2019-04-02T06:49:23.000Z</time>
      </trkpt>
      <trkpt lat="47.26487" lon="-1.55303">
        <ele>20.799999237061</ele>
        <time>2019-04-02T06:49:24.000Z</time>
      </trkpt>
      <trkpt lat="47.26486" lon="-1.55302">
        <ele>20.799999237061</ele>
        <time>2019-04-02T06:49:25.000Z</time>
      </trkpt>
      <trkpt lat="47.26484" lon="-1.55301">
        <ele>20.799999237061</ele>
        <time>2019-04-02T06:49:26.000Z</time>
      </trkpt>
      <trkpt lat="47.26481" lon="-1.55299">
        <ele>20.60000038147</ele>
        <time>2019-04-02T06:49:27.000Z</time>
      </trkpt>
      <trkpt lat="47.26481" lon="-1.55299">
        <ele>20.60000038147</ele>
        <time>2019-04-02T06:49:28.000Z</time>
      </trkpt>
      <trkpt lat="47.2648" lon="-1.55298">
        <ele>20.60000038147</ele>
        <time>2019-04-02T06:49:29.000Z</time>
      </trkpt>
      <trkpt lat="47.26479" lon="-1.55297">
        <ele>20.60000038147</ele>
        <time>2019-04-02T06:49:30.000Z</time>
      </trkpt>
      <trkpt lat="47.26477" lon="-1.55296">
        <ele>20.60000038147</ele>
        <time>2019-04-02T06:49:31.000Z</time>
      </trkpt>
      <trkpt lat="47.26476" lon="-1.55295">
        <ele>20.60000038147</ele>
        <time>2019-04-02T06:49:32.000Z</time>
      </trkpt>
      <trkpt lat="47.26475" lon="-1.55294">
        <ele>20.39999961853</ele>
        <time>2019-04-02T06:49:33.000Z</time>
      </trkpt>
      <trkpt lat="47.26473" lon="-1.55293">
        <ele>20.39999961853</ele>
        <time>2019-04-02T06:49:34.000Z</time>
      </trkpt>
      <trkpt lat="47.26472" lon="-1.55292">
        <ele>20.39999961853</ele>
        <time>2019-04-02T06:49:35.000Z</time>
      </trkpt>
      <trkpt lat="47.26471" lon="-1.55291">
        <ele>20.39999961853</ele>
        <time>2019-04-02T06:49:36.000Z</time>
      </trkpt>
      <trkpt lat="47.2647" lon="-1.5529">
        <ele>20.39999961853</ele>
        <time>2019-04-02T06:49:37.000Z</time>
      </trkpt>
      <trkpt lat="47.26469" lon="-1.55289">
        <ele>20.39999961853</ele>
        <time>2019-04-02T06:49:38.000Z</time>
      </trkpt>
      <trkpt lat="47.26467" lon="-1.55288">
        <ele>20.39999961853</ele>
        <time>2019-04-02T06:49:39.000Z</time>
      </trkpt>
      <trkpt lat="47.26466" lon="-1.55287">
        <ele>20.200000762939</ele>
        <time>2019-04-02T06:49:40.000Z</time>
      </trkpt>
      <trkpt lat="47.26464" lon="-1.55286">
        <ele>20.200000762939</ele>
        <time>2019-04-02T06:49:41.000Z</time>
      </trkpt>
      <trkpt lat="47.26463" lon="-1.55285">
        <ele>20.200000762939</ele>
        <time>2019-04-02T06:49:42.000Z</time>
      </trkpt>
      <trkpt lat="47.2646" lon="-1.55284">
        <ele>20.200000762939</ele>
        <time>2019-04-02T06:49:43.000Z</time>
      </trkpt>
      <trkpt lat="47.2646" lon="-1.55284">
        <ele>20.200000762939</ele>
        <time>2019-04-02T06:49:44.000Z</time>
      </trkpt>
      <trkpt lat="47.26459" lon="-1.55282">
        <ele>20.200000762939</ele>
        <time>2019-04-02T06:49:45.000Z</time>
      </trkpt>
      <trkpt lat="47.26457" lon="-1.55281">
        <ele>20</ele>
        <time>2019-04-02T06:49:46.000Z</time>
      </trkpt>
      <trkpt lat="47.26456" lon="-1.5528">
        <ele>20</ele>
        <time>2019-04-02T06:49:47.000Z</time>
      </trkpt>
      <trkpt lat="47.26455" lon="-1.55279">
        <ele>20</ele>
        <time>2019-04-02T06:49:48.000Z</time>
      </trkpt>
      <trkpt lat="47.26454" lon="-1.55278">
        <ele>20</ele>
        <time>2019-04-02T06:49:49.000Z</time>
      </trkpt>
      <trkpt lat="47.26453" lon="-1.55277">
        <ele>20</ele>
        <time>2019-04-02T06:49:50.000Z</time>
      </trkpt>
      <trkpt lat="47.26451" lon="-1.55276">
        <ele>20</ele>
        <time>2019-04-02T06:49:51.000Z</time>
      </trkpt>
      <trkpt lat="47.2645" lon="-1.55275">
        <ele>20</ele>
        <time>2019-04-02T06:49:52.000Z</time>
      </trkpt>
      <trkpt lat="47.26449" lon="-1.55275">
        <ele>20</ele>
        <time>2019-04-02T06:49:53.000Z</time>
      </trkpt>
      <trkpt lat="47.26448" lon="-1.55274">
        <ele>20</ele>
        <time>2019-04-02T06:49:54.000Z</time>
      </trkpt>
      <trkpt lat="47.26446" lon="-1.55273">
        <ele>20</ele>
        <time>2019-04-02T06:49:55.000Z</time>
      </trkpt>
      <trkpt lat="47.26445" lon="-1.55271">
        <ele>20</ele>
        <time>2019-04-02T06:49:56.000Z</time>
      </trkpt>
      <trkpt lat="47.26444" lon="-1.5527">
        <ele>20</ele>
        <time>2019-04-02T06:49:57.000Z</time>
      </trkpt>
      <trkpt lat="47.26443" lon="-1.55269">
        <ele>20</ele>
        <time>2019-04-02T06:49:58.000Z</time>
      </trkpt>
      <trkpt lat="47.26442" lon="-1.55267">
        <ele>20</ele>
        <time>2019-04-02T06:49:59.000Z</time>
      </trkpt>
      <trkpt lat="47.2644" lon="-1.55266">
        <ele>20</ele>
        <time>2019-04-02T06:50:00.000Z</time>
      </trkpt>
      <trkpt lat="47.26439" lon="-1.55265">
        <ele>20</ele>
        <time>2019-04-02T06:50:01.000Z</time>
      </trkpt>
      <trkpt lat="47.26438" lon="-1.55264">
        <ele>20</ele>
        <time>2019-04-02T06:50:02.000Z</time>
      </trkpt>
      <trkpt lat="47.26437" lon="-1.55263">
        <ele>20</ele>
        <time>2019-04-02T06:50:03.000Z</time>
      </trkpt>
      <trkpt lat="47.26436" lon="-1.55262">
        <ele>20</ele>
        <time>2019-04-02T06:50:04.000Z</time>
      </trkpt>
      <trkpt lat="47.26434" lon="-1.55261">
        <ele>20</ele>
        <time>2019-04-02T06:50:05.000Z</time>
      </trkpt>
      <trkpt lat="47.26433" lon="-1.5526">
        <ele>20</ele>
        <time>2019-04-02T06:50:06.000Z</time>
      </trkpt>
      <trkpt lat="47.26432" lon="-1.55259">
        <ele>20</ele>
        <time>2019-04-02T06:50:07.000Z</time>
      </trkpt>
      <trkpt lat="47.26431" lon="-1.55258">
        <ele>20</ele>
        <time>2019-04-02T06:50:08.000Z</time>
      </trkpt>
      <trkpt lat="47.2643" lon="-1.55257">
        <ele>20</ele>
        <time>2019-04-02T06:50:09.000Z</time>
      </trkpt>
      <trkpt lat="47.26428" lon="-1.55256">
        <ele>20</ele>
        <time>2019-04-02T06:50:10.000Z</time>
      </trkpt>
      <trkpt lat="47.26427" lon="-1.55255">
        <ele>20</ele>
        <time>2019-04-02T06:50:11.000Z</time>
      </trkpt>
      <trkpt lat="47.26426" lon="-1.55254">
        <ele>20</ele>
        <time>2019-04-02T06:50:12.000Z</time>
      </trkpt>
      <trkpt lat="47.26425" lon="-1.55253">
        <ele>20</ele>
        <time>2019-04-02T06:50:13.000Z</time>
      </trkpt>
      <trkpt lat="47.26423" lon="-1.55252">
        <ele>20</ele>
        <time>2019-04-02T06:50:14.000Z</time>
      </trkpt>
      <trkpt lat="47.26422" lon="-1.55251">
        <ele>20</ele>
        <time>2019-04-02T06:50:15.000Z</time>
      </trkpt>
      <trkpt lat="47.26421" lon="-1.5525">
        <ele>20</ele>
        <time>2019-04-02T06:50:16.000Z</time>
      </trkpt>
      <trkpt lat="47.26419" lon="-1.55249">
        <ele>19.799999237061</ele>
        <time>2019-04-02T06:50:17.000Z</time>
      </trkpt>
      <trkpt lat="47.26418" lon="-1.55248">
        <ele>19.799999237061</ele>
        <time>2019-04-02T06:50:18.000Z</time>
      </trkpt>
      <trkpt lat="47.26416" lon="-1.55247">
        <ele>19.799999237061</ele>
        <time>2019-04-02T06:50:19.000Z</time>
      </trkpt>
      <trkpt lat="47.26415" lon="-1.55245">
        <ele>19.799999237061</ele>
        <time>2019-04-02T06:50:20.000Z</time>
      </trkpt>
      <trkpt lat="47.26414" lon="-1.55244">
        <ele>19.799999237061</ele>
        <time>2019-04-02T06:50:21.000Z</time>
      </trkpt>
      <trkpt lat="47.26413" lon="-1.55243">
        <ele>19.799999237061</ele>
        <time>2019-04-02T06:50:22.000Z</time>
      </trkpt>
      <trkpt lat="47.26411" lon="-1.55242">
        <ele>19.799999237061</ele>
        <time>2019-04-02T06:50:23.000Z</time>
      </trkpt>
      <trkpt lat="47.2641" lon="-1.55241">
        <ele>19.799999237061</ele>
        <time>2019-04-02T06:50:24.000Z</time>
      </trkpt>
      <trkpt lat="47.26409" lon="-1.5524">
        <ele>19.799999237061</ele>
        <time>2019-04-02T06:50:25.000Z</time>
      </trkpt>
      <trkpt lat="47.26408" lon="-1.55238">
        <ele>19.799999237061</ele>
        <time>2019-04-02T06:50:26.000Z</time>
      </trkpt>
      <trkpt lat="47.26407" lon="-1.55237">
        <ele>19.799999237061</ele>
        <time>2019-04-02T06:50:27.000Z</time>
      </trkpt>
      <trkpt lat="47.26406" lon="-1.55236">
        <ele>19.60000038147</ele>
        <time>2019-04-02T06:50:28.000Z</time>
      </trkpt>
      <trkpt lat="47.26404" lon="-1.55235">
        <ele>19.60000038147</ele>
        <time>2019-04-02T06:50:29.000Z</time>
      </trkpt>
      <trkpt lat="47.26403" lon="-1.55234">
        <ele>19.60000038147</ele>
        <time>2019-04-02T06:50:30.000Z</time>
      </trkpt>
      <trkpt lat="47.26402" lon="-1.55233">
        <ele>19.60000038147</ele>
        <time>2019-04-02T06:50:31.000Z</time>
      </trkpt>
      <trkpt lat="47.264" lon="-1.55231">
        <ele>19.60000038147</ele>
        <time>2019-04-02T06:50:32.000Z</time>
      </trkpt>
      <trkpt lat="47.26399" lon="-1.5523">
        <ele>19.60000038147</ele>
        <time>2019-04-02T06:50:33.000Z</time>
      </trkpt>
      <trkpt lat="47.26398" lon="-1.55229">
        <ele>19.60000038147</ele>
        <time>2019-04-02T06:50:34.000Z</time>
      </trkpt>
      <trkpt lat="47.26397" lon="-1.55228">
        <ele>19.39999961853</ele>
        <time>2019-04-02T06:50:35.000Z</time>
      </trkpt>
      <trkpt lat="47.26395" lon="-1.55227">
        <ele>19.39999961853</ele>
        <time>2019-04-02T06:50:36.000Z</time>
      </trkpt>
      <trkpt lat="47.26394" lon="-1.55225">
        <ele>19.39999961853</ele>
        <time>2019-04-02T06:50:37.000Z</time>
      </trkpt>
      <trkpt lat="47.26393" lon="-1.55224">
        <ele>19.39999961853</ele>
        <time>2019-04-02T06:50:38.000Z</time>
      </trkpt>
      <trkpt lat="47.26391" lon="-1.55223">
        <ele>19.39999961853</ele>
        <time>2019-04-02T06:50:39.000Z</time>
      </trkpt>
      <trkpt lat="47.2639" lon="-1.55222">
        <ele>19.39999961853</ele>
        <time>2019-04-02T06:50:40.000Z</time>
      </trkpt>
      <trkpt lat="47.26389" lon="-1.55221">
        <ele>19.39999961853</ele>
        <time>2019-04-02T06:50:41.000Z</time>
      </trkpt>
      <trkpt lat="47.26388" lon="-1.55219">
        <ele>19.200000762939</ele>
        <time>2019-04-02T06:50:42.000Z</time>
      </trkpt>
      <trkpt lat="47.26386" lon="-1.55219">
        <ele>19.200000762939</ele>
        <time>2019-04-02T06:50:43.000Z</time>
      </trkpt>
      <trkpt lat="47.26385" lon="-1.55218">
        <ele>19.200000762939</ele>
        <time>2019-04-02T06:50:44.000Z</time>
      </trkpt>
      <trkpt lat="47.26384" lon="-1.55217">
        <ele>19.200000762939</ele>
        <time>2019-04-02T06:50:45.000Z</time>
      </trkpt>
      <trkpt lat="47.26382" lon="-1.55216">
        <ele>19.200000762939</ele>
        <time>2019-04-02T06:50:46.000Z</time>
      </trkpt>
      <trkpt lat="47.26381" lon="-1.55215">
        <ele>19</ele>
        <time>2019-04-02T06:50:47.000Z</time>
      </trkpt>
      <trkpt lat="47.2638" lon="-1.55214">
        <ele>19</ele>
        <time>2019-04-02T06:50:48.000Z</time>
      </trkpt>
      <trkpt lat="47.26379" lon="-1.55213">
        <ele>19</ele>
        <time>2019-04-02T06:50:49.000Z</time>
      </trkpt>
      <trkpt lat="47.26377" lon="-1.55212">
        <ele>19</ele>
        <time>2019-04-02T06:50:50.000Z</time>
      </trkpt>
      <trkpt lat="47.26376" lon="-1.55211">
        <ele>19</ele>
        <time>2019-04-02T06:50:51.000Z</time>
      </trkpt>
      <trkpt lat="47.26374" lon="-1.5521">
        <ele>18.799999237061</ele>
        <time>2019-04-02T06:50:52.000Z</time>
      </trkpt>
      <trkpt lat="47.26374" lon="-1.5521">
        <ele>18.799999237061</ele>
        <time>2019-04-02T06:50:53.000Z</time>
      </trkpt>
      <trkpt lat="47.26373" lon="-1.55209">
        <ele>18.799999237061</ele>
        <time>2019-04-02T06:50:54.000Z</time>
      </trkpt>
      <trkpt lat="47.26372" lon="-1.55208">
        <ele>18.799999237061</ele>
        <time>2019-04-02T06:50:55.000Z</time>
      </trkpt>
      <trkpt lat="47.26371" lon="-1.55207">
        <ele>18.799999237061</ele>
        <time>2019-04-02T06:50:56.000Z</time>
      </trkpt>
      <trkpt lat="47.26369" lon="-1.55207">
        <ele>18.799999237061</ele>
        <time>2019-04-02T06:50:57.000Z</time>
      </trkpt>
      <trkpt lat="47.26368" lon="-1.55206">
        <ele>18.799999237061</ele>
        <time>2019-04-02T06:50:58.000Z</time>
      </trkpt>
      <trkpt lat="47.26367" lon="-1.55205">
        <ele>18.60000038147</ele>
        <time>2019-04-02T06:50:59.000Z</time>
      </trkpt>
      <trkpt lat="47.26365" lon="-1.55204">
        <ele>18.60000038147</ele>
        <time>2019-04-02T06:51:00.000Z</time>
      </trkpt>
      <trkpt lat="47.26364" lon="-1.55202">
        <ele>18.60000038147</ele>
        <time>2019-04-02T06:51:01.000Z</time>
      </trkpt>
      <trkpt lat="47.26362" lon="-1.55201">
        <ele>18.60000038147</ele>
        <time>2019-04-02T06:51:02.000Z</time>
      </trkpt>
      <trkpt lat="47.26361" lon="-1.552">
        <ele>18.60000038147</ele>
        <time>2019-04-02T06:51:03.000Z</time>
      </trkpt>
      <trkpt lat="47.26359" lon="-1.55199">
        <ele>18.60000038147</ele>
        <time>2019-04-02T06:51:04.000Z</time>
      </trkpt>
      <trkpt lat="47.26358" lon="-1.55198">
        <ele>18.60000038147</ele>
        <time>2019-04-02T06:51:05.000Z</time>
      </trkpt>
      <trkpt lat="47.26357" lon="-1.55197">
        <ele>18.60000038147</ele>
        <time>2019-04-02T06:51:06.000Z</time>
      </trkpt>
      <trkpt lat="47.26356" lon="-1.55196">
        <ele>18.60000038147</ele>
        <time>2019-04-02T06:51:07.000Z</time>
      </trkpt>
      <trkpt lat="47.26355" lon="-1.55196">
        <ele>18.60000038147</ele>
        <time>2019-04-02T06:51:08.000Z</time>
      </trkpt>
      <trkpt lat="47.26353" lon="-1.55195">
        <ele>18.60000038147</ele>
        <time>2019-04-02T06:51:09.000Z</time>
      </trkpt>
      <trkpt lat="47.26352" lon="-1.55195">
        <ele>18.39999961853</ele>
        <time>2019-04-02T06:51:10.000Z</time>
      </trkpt>
      <trkpt lat="47.26351" lon="-1.55196">
        <ele>18.39999961853</ele>
        <time>2019-04-02T06:51:11.000Z</time>
      </trkpt>
      <trkpt lat="47.26349" lon="-1.55197">
        <ele>18.39999961853</ele>
        <time>2019-04-02T06:51:12.000Z</time>
      </trkpt>
      <trkpt lat="47.26348" lon="-1.55197">
        <ele>18.39999961853</ele>
        <time>2019-04-02T06:51:13.000Z</time>
      </trkpt>
      <trkpt lat="47.26346" lon="-1.55197">
        <ele>18.200000762939</ele>
        <time>2019-04-02T06:51:14.000Z</time>
      </trkpt>
      <trkpt lat="47.26345" lon="-1.55198">
        <ele>18.200000762939</ele>
        <time>2019-04-02T06:51:15.000Z</time>
      </trkpt>
      <trkpt lat="47.26343" lon="-1.55198">
        <ele>18.200000762939</ele>
        <time>2019-04-02T06:51:16.000Z</time>
      </trkpt>
      <trkpt lat="47.26342" lon="-1.55198">
        <ele>18.200000762939</ele>
        <time>2019-04-02T06:51:17.000Z</time>
      </trkpt>
      <trkpt lat="47.26341" lon="-1.55198">
        <ele>18.200000762939</ele>
        <time>2019-04-02T06:51:18.000Z</time>
      </trkpt>
      <trkpt lat="47.2634" lon="-1.55199">
        <ele>18</ele>
        <time>2019-04-02T06:51:19.000Z</time>
      </trkpt>
      <trkpt lat="47.26338" lon="-1.55199">
        <ele>18</ele>
        <time>2019-04-02T06:51:20.000Z</time>
      </trkpt>
      <trkpt lat="47.26337" lon="-1.552">
        <ele>18</ele>
        <time>2019-04-02T06:51:21.000Z</time>
      </trkpt>
      <trkpt lat="47.26336" lon="-1.55201">
        <ele>18</ele>
        <time>2019-04-02T06:51:22.000Z</time>
      </trkpt>
      <trkpt lat="47.26335" lon="-1.55202">
        <ele>18</ele>
        <time>2019-04-02T06:51:23.000Z</time>
      </trkpt>
      <trkpt lat="47.26334" lon="-1.55203">
        <ele>17.799999237061</ele>
        <time>2019-04-02T06:51:24.000Z</time>
      </trkpt>
      <trkpt lat="47.26332" lon="-1.55204">
        <ele>17.799999237061</ele>
        <time>2019-04-02T06:51:25.000Z</time>
      </trkpt>
      <trkpt lat="47.26331" lon="-1.55205">
        <ele>17.799999237061</ele>
        <time>2019-04-02T06:51:26.000Z</time>
      </trkpt>
      <trkpt lat="47.2633" lon="-1.55206">
        <ele>17.60000038147</ele>
        <time>2019-04-02T06:51:27.000Z</time>
      </trkpt>
      <trkpt lat="47.26329" lon="-1.55208">
        <ele>17.60000038147</ele>
        <time>2019-04-02T06:51:28.000Z</time>
      </trkpt>
      <trkpt lat="47.26327" lon="-1.5521">
        <ele>17.39999961853</ele>
        <time>2019-04-02T06:51:29.000Z</time>
      </trkpt>
      <trkpt lat="47.26327" lon="-1.5521">
        <ele>17.39999961853</ele>
        <time>2019-04-02T06:51:30.000Z</time>
      </trkpt>
      <trkpt lat="47.26326" lon="-1.55212">
        <ele>17.39999961853</ele>
        <time>2019-04-02T06:51:31.000Z</time>
      </trkpt>
      <trkpt lat="47.26325" lon="-1.55214">
        <ele>17.39999961853</ele>
        <time>2019-04-02T06:51:32.000Z</time>
      </trkpt>
      <trkpt lat="47.26324" lon="-1.55215">
        <ele>17.200000762939</ele>
        <time>2019-04-02T06:51:33.000Z</time>
      </trkpt>
      <trkpt lat="47.26322" lon="-1.55216">
        <ele>17.200000762939</ele>
        <time>2019-04-02T06:51:34.000Z</time>
      </trkpt>
      <trkpt lat="47.26321" lon="-1.55217">
        <ele>17.200000762939</ele>
        <time>2019-04-02T06:51:35.000Z</time>
      </trkpt>
      <trkpt lat="47.2632" lon="-1.55219">
        <ele>17</ele>
        <time>2019-04-02T06:51:36.000Z</time>
      </trkpt>
      <trkpt lat="47.26319" lon="-1.5522">
        <ele>17</ele>
        <time>2019-04-02T06:51:37.000Z</time>
      </trkpt>
      <trkpt lat="47.26318" lon="-1.55221">
        <ele>16.799999237061</ele>
        <time>2019-04-02T06:51:38.000Z</time>
      </trkpt>
      <trkpt lat="47.26316" lon="-1.55222">
        <ele>16.799999237061</ele>
        <time>2019-04-02T06:51:39.000Z</time>
      </trkpt>
      <trkpt lat="47.26315" lon="-1.55223">
        <ele>16.799999237061</ele>
        <time>2019-04-02T06:51:40.000Z</time>
      </trkpt>
      <trkpt lat="47.26314" lon="-1.55224">
        <ele>16.60000038147</ele>
        <time>2019-04-02T06:51:41.000Z</time>
      </trkpt>
      <trkpt lat="47.26313" lon="-1.55225">
        <ele>16.60000038147</ele>
        <time>2019-04-02T06:51:42.000Z</time>
      </trkpt>
      <trkpt lat="47.26311" lon="-1.55226">
        <ele>16.60000038147</ele>
        <time>2019-04-02T06:51:43.000Z</time>
      </trkpt>
      <trkpt lat="47.2631" lon="-1.55227">
        <ele>16.39999961853</ele>
        <time>2019-04-02T06:51:44.000Z</time>
      </trkpt>
      <trkpt lat="47.26309" lon="-1.55228">
        <ele>16.39999961853</ele>
        <time>2019-04-02T06:51:45.000Z</time>
      </trkpt>
      <trkpt lat="47.26308" lon="-1.55229">
        <ele>16.39999961853</ele>
        <time>2019-04-02T06:51:46.000Z</time>
      </trkpt>
      <trkpt lat="47.26306" lon="-1.5523">
        <ele>16.200000762939</ele>
        <time>2019-04-02T06:51:47.000Z</time>
      </trkpt>
      <trkpt lat="47.26305" lon="-1.55231">
        <ele>16.200000762939</ele>
        <time>2019-04-02T06:51:48.000Z</time>
      </trkpt>
      <trkpt lat="47.26303" lon="-1.55232">
        <ele>16.200000762939</ele>
        <time>2019-04-02T06:51:49.000Z</time>
      </trkpt>
      <trkpt lat="47.263" lon="-1.55233">
        <ele>16</ele>
        <time>2019-04-02T06:51:50.000Z</time>
      </trkpt>
      <trkpt lat="47.263" lon="-1.55233">
        <ele>16</ele>
        <time>2019-04-02T06:51:51.000Z</time>
      </trkpt>
      <trkpt lat="47.26298" lon="-1.55234">
        <ele>15.800000190735</ele>
        <time>2019-04-02T06:51:52.000Z</time>
      </trkpt>
      <trkpt lat="47.26297" lon="-1.55235">
        <ele>15.800000190735</ele>
        <time>2019-04-02T06:51:53.000Z</time>
      </trkpt>
      <trkpt lat="47.26296" lon="-1.55236">
        <ele>15.800000190735</ele>
        <time>2019-04-02T06:51:54.000Z</time>
      </trkpt>
      <trkpt lat="47.26294" lon="-1.55237">
        <ele>15.60000038147</ele>
        <time>2019-04-02T06:51:55.000Z</time>
      </trkpt>
      <trkpt lat="47.26293" lon="-1.55238">
        <ele>15.60000038147</ele>
        <time>2019-04-02T06:51:56.000Z</time>
      </trkpt>
      <trkpt lat="47.26292" lon="-1.5524">
        <ele>15.60000038147</ele>
        <time>2019-04-02T06:51:57.000Z</time>
      </trkpt>
      <trkpt lat="47.26291" lon="-1.55241">
        <ele>15.39999961853</ele>
        <time>2019-04-02T06:51:58.000Z</time>
      </trkpt>
      <trkpt lat="47.2629" lon="-1.55242">
        <ele>15.39999961853</ele>
        <time>2019-04-02T06:51:59.000Z</time>
      </trkpt>
      <trkpt lat="47.26289" lon="-1.55243">
        <ele>15.39999961853</ele>
        <time>2019-04-02T06:52:00.000Z</time>
      </trkpt>
      <trkpt lat="47.26287" lon="-1.55244">
        <ele>15.199999809265</ele>
        <time>2019-04-02T06:52:01.000Z</time>
      </trkpt>
      <trkpt lat="47.26286" lon="-1.55246">
        <ele>15.199999809265</ele>
        <time>2019-04-02T06:52:02.000Z</time>
      </trkpt>
      <trkpt lat="47.26285" lon="-1.55247">
        <ele>15</ele>
        <time>2019-04-02T06:52:03.000Z</time>
      </trkpt>
      <trkpt lat="47.26283" lon="-1.55249">
        <ele>15</ele>
        <time>2019-04-02T06:52:04.000Z</time>
      </trkpt>
      <trkpt lat="47.26282" lon="-1.5525">
        <ele>15</ele>
        <time>2019-04-02T06:52:05.000Z</time>
      </trkpt>
      <trkpt lat="47.26281" lon="-1.55251">
        <ele>14.800000190735</ele>
        <time>2019-04-02T06:52:06.000Z</time>
      </trkpt>
      <trkpt lat="47.2628" lon="-1.55253">
        <ele>14.800000190735</ele>
        <time>2019-04-02T06:52:07.000Z</time>
      </trkpt>
      <trkpt lat="47.26278" lon="-1.55256">
        <ele>14.60000038147</ele>
        <time>2019-04-02T06:52:08.000Z</time>
      </trkpt>
      <trkpt lat="47.26278" lon="-1.55256">
        <ele>14.60000038147</ele>
        <time>2019-04-02T06:52:09.000Z</time>
      </trkpt>
      <trkpt lat="47.26276" lon="-1.55257">
        <ele>14.60000038147</ele>
        <time>2019-04-02T06:52:10.000Z</time>
      </trkpt>
      <trkpt lat="47.26276" lon="-1.55259">
        <ele>14.39999961853</ele>
        <time>2019-04-02T06:52:11.000Z</time>
      </trkpt>
      <trkpt lat="47.26275" lon="-1.5526">
        <ele>14.39999961853</ele>
        <time>2019-04-02T06:52:12.000Z</time>
      </trkpt>
      <trkpt lat="47.26274" lon="-1.55262">
        <ele>14.39999961853</ele>
        <time>2019-04-02T06:52:13.000Z</time>
      </trkpt>
      <trkpt lat="47.26273" lon="-1.55263">
        <ele>14.199999809265</ele>
        <time>2019-04-02T06:52:14.000Z</time>
      </trkpt>
      <trkpt lat="47.26272" lon="-1.55265">
        <ele>14.199999809265</ele>
        <time>2019-04-02T06:52:15.000Z</time>
      </trkpt>
      <trkpt lat="47.26271" lon="-1.55267">
        <ele>14.199999809265</ele>
        <time>2019-04-02T06:52:16.000Z</time>
      </trkpt>
      <trkpt lat="47.2627" lon="-1.55268">
        <ele>14</ele>
        <time>2019-04-02T06:52:17.000Z</time>
      </trkpt>
      <trkpt lat="47.26269" lon="-1.5527">
        <ele>14</ele>
        <time>2019-04-02T06:52:18.000Z</time>
      </trkpt>
      <trkpt lat="47.26268" lon="-1.55272">
        <ele>13.800000190735</ele>
        <time>2019-04-02T06:52:19.000Z</time>
      </trkpt>
      <trkpt lat="47.26268" lon="-1.55274">
        <ele>13.800000190735</ele>
        <time>2019-04-02T06:52:20.000Z</time>
      </trkpt>
      <trkpt lat="47.26267" lon="-1.55275">
        <ele>13.800000190735</ele>
        <time>2019-04-02T06:52:21.000Z</time>
      </trkpt>
      <trkpt lat="47.26266" lon="-1.55277">
        <ele>13.800000190735</ele>
        <time>2019-04-02T06:52:22.000Z</time>
      </trkpt>
      <trkpt lat="47.26266" lon="-1.55278">
        <ele>13.60000038147</ele>
        <time>2019-04-02T06:52:23.000Z</time>
      </trkpt>
      <trkpt lat="47.26265" lon="-1.5528">
        <ele>13.60000038147</ele>
        <time>2019-04-02T06:52:24.000Z</time>
      </trkpt>
      <trkpt lat="47.26263" lon="-1.55282">
        <ele>13.39999961853</ele>
        <time>2019-04-02T06:52:25.000Z</time>
      </trkpt>
      <trkpt lat="47.26263" lon="-1.55283">
        <ele>13.39999961853</ele>
        <time>2019-04-02T06:52:26.000Z</time>
      </trkpt>
      <trkpt lat="47.26262" lon="-1.55285">
        <ele>13.39999961853</ele>
        <time>2019-04-02T06:52:27.000Z</time>
      </trkpt>
      <trkpt lat="47.26261" lon="-1.55286">
        <ele>13.199999809265</ele>
        <time>2019-04-02T06:52:28.000Z</time>
      </trkpt>
      <trkpt lat="47.26259" lon="-1.55288">
        <ele>13.199999809265</ele>
        <time>2019-04-02T06:52:29.000Z</time>
      </trkpt>
      <trkpt lat="47.26258" lon="-1.5529">
        <ele>13.199999809265</ele>
        <time>2019-04-02T06:52:30.000Z</time>
      </trkpt>
      <trkpt lat="47.26257" lon="-1.55291">
        <ele>13</ele>
        <time>2019-04-02T06:52:31.000Z</time>
      </trkpt>
      <trkpt lat="47.26256" lon="-1.55292">
        <ele>13</ele>
        <time>2019-04-02T06:52:32.000Z</time>
      </trkpt>
      <trkpt lat="47.26255" lon="-1.55293">
        <ele>12.800000190735</ele>
        <time>2019-04-02T06:52:33.000Z</time>
      </trkpt>
      <trkpt lat="47.26254" lon="-1.55295">
        <ele>12.800000190735</ele>
        <time>2019-04-02T06:52:34.000Z</time>
      </trkpt>
      <trkpt lat="47.26253" lon="-1.55296">
        <ele>12.800000190735</ele>
        <time>2019-04-02T06:52:35.000Z</time>
      </trkpt>
      <trkpt lat="47.26252" lon="-1.55298">
        <ele>12.60000038147</ele>
        <time>2019-04-02T06:52:36.000Z</time>
      </trkpt>
      <trkpt lat="47.26251" lon="-1.55299">
        <ele>12.60000038147</ele>
        <time>2019-04-02T06:52:37.000Z</time>
      </trkpt>
      <trkpt lat="47.2625" lon="-1.55301">
        <ele>12.60000038147</ele>
        <time>2019-04-02T06:52:38.000Z</time>
      </trkpt>
      <trkpt lat="47.26249" lon="-1.55303">
        <ele>12.39999961853</ele>
        <time>2019-04-02T06:52:39.000Z</time>
      </trkpt>
      <trkpt lat="47.26248" lon="-1.55304">
        <ele>12.39999961853</ele>
        <time>2019-04-02T06:52:40.000Z</time>
      </trkpt>
      <trkpt lat="47.26247" lon="-1.55305">
        <ele>12.39999961853</ele>
        <time>2019-04-02T06:52:41.000Z</time>
      </trkpt>
      <trkpt lat="47.26246" lon="-1.55306">
        <ele>12.199999809265</ele>
        <time>2019-04-02T06:52:42.000Z</time>
      </trkpt>
      <trkpt lat="47.26245" lon="-1.55308">
        <ele>12.199999809265</ele>
        <time>2019-04-02T06:52:43.000Z</time>
      </trkpt>
      <trkpt lat="47.26243" lon="-1.5531">
        <ele>12.199999809265</ele>
        <time>2019-04-02T06:52:44.000Z</time>
      </trkpt>
      <trkpt lat="47.26243" lon="-1.5531">
        <ele>12.199999809265</ele>
        <time>2019-04-02T06:52:45.000Z</time>
      </trkpt>
      <trkpt lat="47.26242" lon="-1.55312">
        <ele>12</ele>
        <time>2019-04-02T06:52:46.000Z</time>
      </trkpt>
      <trkpt lat="47.26241" lon="-1.55314">
        <ele>12</ele>
        <time>2019-04-02T06:52:47.000Z</time>
      </trkpt>
      <trkpt lat="47.2624" lon="-1.55315">
        <ele>12</ele>
        <time>2019-04-02T06:52:48.000Z</time>
      </trkpt>
      <trkpt lat="47.26239" lon="-1.55317">
        <ele>11.800000190735</ele>
        <time>2019-04-02T06:52:49.000Z</time>
      </trkpt>
      <trkpt lat="47.26238" lon="-1.55318">
        <ele>11.800000190735</ele>
        <time>2019-04-02T06:52:50.000Z</time>
      </trkpt>
      <trkpt lat="47.26237" lon="-1.5532">
        <ele>11.800000190735</ele>
        <time>2019-04-02T06:52:51.000Z</time>
      </trkpt>
      <trkpt lat="47.26236" lon="-1.55321">
        <ele>11.800000190735</ele>
        <time>2019-04-02T06:52:52.000Z</time>
      </trkpt>
      <trkpt lat="47.26235" lon="-1.55323">
        <ele>11.60000038147</ele>
        <time>2019-04-02T06:52:53.000Z</time>
      </trkpt>
      <trkpt lat="47.26234" lon="-1.55324">
        <ele>11.60000038147</ele>
        <time>2019-04-02T06:52:54.000Z</time>
      </trkpt>
      <trkpt lat="47.26233" lon="-1.55326">
        <ele>11.60000038147</ele>
        <time>2019-04-02T06:52:55.000Z</time>
      </trkpt>
      <trkpt lat="47.26232" lon="-1.55328">
        <ele>11.60000038147</ele>
        <time>2019-04-02T06:52:56.000Z</time>
      </trkpt>
      <trkpt lat="47.26231" lon="-1.5533">
        <ele>11.39999961853</ele>
        <time>2019-04-02T06:52:57.000Z</time>
      </trkpt>
      <trkpt lat="47.2623" lon="-1.55332">
        <ele>11.39999961853</ele>
        <time>2019-04-02T06:52:58.000Z</time>
      </trkpt>
      <trkpt lat="47.2623" lon="-1.55334">
        <ele>11.39999961853</ele>
        <time>2019-04-02T06:52:59.000Z</time>
      </trkpt>
      <trkpt lat="47.26229" lon="-1.55335">
        <ele>11.39999961853</ele>
        <time>2019-04-02T06:53:00.000Z</time>
      </trkpt>
      <trkpt lat="47.26227" lon="-1.55338">
        <ele>11.199999809265</ele>
        <time>2019-04-02T06:53:01.000Z</time>
      </trkpt>
      <trkpt lat="47.26227" lon="-1.55338">
        <ele>11.199999809265</ele>
        <time>2019-04-02T06:53:02.000Z</time>
      </trkpt>
      <trkpt lat="47.26226" lon="-1.5534">
        <ele>11.199999809265</ele>
        <time>2019-04-02T06:53:03.000Z</time>
      </trkpt>
      <trkpt lat="47.26225" lon="-1.55341">
        <ele>11.199999809265</ele>
        <time>2019-04-02T06:53:04.000Z</time>
      </trkpt>
      <trkpt lat="47.26224" lon="-1.55343">
        <ele>11.199999809265</ele>
        <time>2019-04-02T06:53:05.000Z</time>
      </trkpt>
      <trkpt lat="47.26223" lon="-1.55345">
        <ele>11</ele>
        <time>2019-04-02T06:53:06.000Z</time>
      </trkpt>
      <trkpt lat="47.26222" lon="-1.55346">
        <ele>11</ele>
        <time>2019-04-02T06:53:07.000Z</time>
      </trkpt>
      <trkpt lat="47.26221" lon="-1.55347">
        <ele>11</ele>
        <time>2019-04-02T06:53:08.000Z</time>
      </trkpt>
      <trkpt lat="47.2622" lon="-1.55349">
        <ele>11</ele>
        <time>2019-04-02T06:53:09.000Z</time>
      </trkpt>
      <trkpt lat="47.26218" lon="-1.55351">
        <ele>10.800000190735</ele>
        <time>2019-04-02T06:53:10.000Z</time>
      </trkpt>
      <trkpt lat="47.26217" lon="-1.55352">
        <ele>10.800000190735</ele>
        <time>2019-04-02T06:53:11.000Z</time>
      </trkpt>
      <trkpt lat="47.26216" lon="-1.55353">
        <ele>10.800000190735</ele>
        <time>2019-04-02T06:53:12.000Z</time>
      </trkpt>
      <trkpt lat="47.26215" lon="-1.55354">
        <ele>10.800000190735</ele>
        <time>2019-04-02T06:53:13.000Z</time>
      </trkpt>
      <trkpt lat="47.26213" lon="-1.55355">
        <ele>10.800000190735</ele>
        <time>2019-04-02T06:53:14.000Z</time>
      </trkpt>
      <trkpt lat="47.26212" lon="-1.55356">
        <ele>10.60000038147</ele>
        <time>2019-04-02T06:53:15.000Z</time>
      </trkpt>
      <trkpt lat="47.26211" lon="-1.55356">
        <ele>10.60000038147</ele>
        <time>2019-04-02T06:53:16.000Z</time>
      </trkpt>
      <trkpt lat="47.26209" lon="-1.55356">
        <ele>10.60000038147</ele>
        <time>2019-04-02T06:53:17.000Z</time>
      </trkpt>
      <trkpt lat="47.26207" lon="-1.55357">
        <ele>10.60000038147</ele>
        <time>2019-04-02T06:53:18.000Z</time>
      </trkpt>
      <trkpt lat="47.26206" lon="-1.55357">
        <ele>10.60000038147</ele>
        <time>2019-04-02T06:53:19.000Z</time>
      </trkpt>
      <trkpt lat="47.26204" lon="-1.55357">
        <ele>10.60000038147</ele>
        <time>2019-04-02T06:53:20.000Z</time>
      </trkpt>
      <trkpt lat="47.26203" lon="-1.55357">
        <ele>10.39999961853</ele>
        <time>2019-04-02T06:53:21.000Z</time>
      </trkpt>
      <trkpt lat="47.26201" lon="-1.55357">
        <ele>10.39999961853</ele>
        <time>2019-04-02T06:53:22.000Z</time>
      </trkpt>
      <trkpt lat="47.262" lon="-1.55357">
        <ele>10.39999961853</ele>
        <time>2019-04-02T06:53:23.000Z</time>
      </trkpt>
      <trkpt lat="47.26198" lon="-1.55357">
        <ele>10.39999961853</ele>
        <time>2019-04-02T06:53:24.000Z</time>
      </trkpt>
      <trkpt lat="47.26197" lon="-1.55357">
        <ele>10.39999961853</ele>
        <time>2019-04-02T06:53:25.000Z</time>
      </trkpt>
      <trkpt lat="47.26196" lon="-1.55357">
        <ele>10.39999961853</ele>
        <time>2019-04-02T06:53:26.000Z</time>
      </trkpt>
      <trkpt lat="47.26195" lon="-1.55357">
        <ele>10.199999809265</ele>
        <time>2019-04-02T06:53:27.000Z</time>
      </trkpt>
      <trkpt lat="47.26193" lon="-1.55356">
        <ele>10.199999809265</ele>
        <time>2019-04-02T06:53:28.000Z</time>
      </trkpt>
      <trkpt lat="47.26192" lon="-1.55356">
        <ele>10.199999809265</ele>
        <time>2019-04-02T06:53:29.000Z</time>
      </trkpt>
      <trkpt lat="47.26191" lon="-1.55355">
        <ele>10.199999809265</ele>
        <time>2019-04-02T06:53:30.000Z</time>
      </trkpt>
      <trkpt lat="47.26188" lon="-1.55354">
        <ele>10.199999809265</ele>
        <time>2019-04-02T06:53:31.000Z</time>
      </trkpt>
      <trkpt lat="47.26188" lon="-1.55354">
        <ele>10.199999809265</ele>
        <time>2019-04-02T06:53:32.000Z</time>
      </trkpt>
      <trkpt lat="47.26187" lon="-1.55353">
        <ele>10.199999809265</ele>
        <time>2019-04-02T06:53:33.000Z</time>
      </trkpt>
      <trkpt lat="47.26186" lon="-1.55352">
        <ele>10.199999809265</ele>
        <time>2019-04-02T06:53:34.000Z</time>
      </trkpt>
      <trkpt lat="47.26184" lon="-1.55351">
        <ele>10.199999809265</ele>
        <time>2019-04-02T06:53:35.000Z</time>
      </trkpt>
      <trkpt lat="47.26183" lon="-1.5535">
        <ele>10</ele>
        <time>2019-04-02T06:53:36.000Z</time>
      </trkpt>
      <trkpt lat="47.26182" lon="-1.55349">
        <ele>10</ele>
        <time>2019-04-02T06:53:37.000Z</time>
      </trkpt>
      <trkpt lat="47.2618" lon="-1.55348">
        <ele>10</ele>
        <time>2019-04-02T06:53:38.000Z</time>
      </trkpt>
      <trkpt lat="47.26179" lon="-1.55347">
        <ele>10</ele>
        <time>2019-04-02T06:53:39.000Z</time>
      </trkpt>
      <trkpt lat="47.26177" lon="-1.55347">
        <ele>10</ele>
        <time>2019-04-02T06:53:40.000Z</time>
      </trkpt>
      <trkpt lat="47.26176" lon="-1.55346">
        <ele>10</ele>
        <time>2019-04-02T06:53:41.000Z</time>
      </trkpt>
      <trkpt lat="47.26174" lon="-1.55345">
        <ele>10</ele>
        <time>2019-04-02T06:53:42.000Z</time>
      </trkpt>
      <trkpt lat="47.26173" lon="-1.55344">
        <ele>10</ele>
        <time>2019-04-02T06:53:43.000Z</time>
      </trkpt>
      <trkpt lat="47.26172" lon="-1.55343">
        <ele>10</ele>
        <time>2019-04-02T06:53:44.000Z</time>
      </trkpt>
      <trkpt lat="47.26171" lon="-1.55342">
        <ele>10</ele>
        <time>2019-04-02T06:53:45.000Z</time>
      </trkpt>
      <trkpt lat="47.26168" lon="-1.5534">
        <ele>9.8000001907349</ele>
        <time>2019-04-02T06:53:46.000Z</time>
      </trkpt>
      <trkpt lat="47.26168" lon="-1.5534">
        <ele>9.8000001907349</ele>
        <time>2019-04-02T06:53:47.000Z</time>
      </trkpt>
      <trkpt lat="47.26167" lon="-1.55338">
        <ele>9.8000001907349</ele>
        <time>2019-04-02T06:53:48.000Z</time>
      </trkpt>
      <trkpt lat="47.26165" lon="-1.55337">
        <ele>9.8000001907349</ele>
        <time>2019-04-02T06:53:49.000Z</time>
      </trkpt>
      <trkpt lat="47.26163" lon="-1.55337">
        <ele>9.8000001907349</ele>
        <time>2019-04-02T06:53:50.000Z</time>
      </trkpt>
      <trkpt lat="47.26162" lon="-1.55336">
        <ele>9.8000001907349</ele>
        <time>2019-04-02T06:53:51.000Z</time>
      </trkpt>
      <trkpt lat="47.2616" lon="-1.55335">
        <ele>9.8000001907349</ele>
        <time>2019-04-02T06:53:52.000Z</time>
      </trkpt>
      <trkpt lat="47.26159" lon="-1.55334">
        <ele>9.8000001907349</ele>
        <time>2019-04-02T06:53:53.000Z</time>
      </trkpt>
      <trkpt lat="47.26157" lon="-1.55333">
        <ele>9.6000003814697</ele>
        <time>2019-04-02T06:53:54.000Z</time>
      </trkpt>
      <trkpt lat="47.26156" lon="-1.55332">
        <ele>9.6000003814697</ele>
        <time>2019-04-02T06:53:55.000Z</time>
      </trkpt>
      <trkpt lat="47.26154" lon="-1.55331">
        <ele>9.6000003814697</ele>
        <time>2019-04-02T06:53:56.000Z</time>
      </trkpt>
      <trkpt lat="47.26152" lon="-1.55331">
        <ele>9.6000003814697</ele>
        <time>2019-04-02T06:53:57.000Z</time>
      </trkpt>
      <trkpt lat="47.26151" lon="-1.5533">
        <ele>9.6000003814697</ele>
        <time>2019-04-02T06:53:58.000Z</time>
      </trkpt>
      <trkpt lat="47.26149" lon="-1.55329">
        <ele>9.6000003814697</ele>
        <time>2019-04-02T06:53:59.000Z</time>
      </trkpt>
      <trkpt lat="47.26148" lon="-1.55329">
        <ele>9.6000003814697</ele>
        <time>2019-04-02T06:54:00.000Z</time>
      </trkpt>
      <trkpt lat="47.26146" lon="-1.55328">
        <ele>9.3999996185303</ele>
        <time>2019-04-02T06:54:01.000Z</time>
      </trkpt>
      <trkpt lat="47.26145" lon="-1.55327">
        <ele>9.3999996185303</ele>
        <time>2019-04-02T06:54:02.000Z</time>
      </trkpt>
      <trkpt lat="47.26143" lon="-1.55326">
        <ele>9.3999996185303</ele>
        <time>2019-04-02T06:54:03.000Z</time>
      </trkpt>
      <trkpt lat="47.26142" lon="-1.55325">
        <ele>9.3999996185303</ele>
        <time>2019-04-02T06:54:04.000Z</time>
      </trkpt>
      <trkpt lat="47.2614" lon="-1.55324">
        <ele>9.3999996185303</ele>
        <time>2019-04-02T06:54:05.000Z</time>
      </trkpt>
      <trkpt lat="47.26139" lon="-1.55323">
        <ele>9.3999996185303</ele>
        <time>2019-04-02T06:54:06.000Z</time>
      </trkpt>
      <trkpt lat="47.26138" lon="-1.55322">
        <ele>9.3999996185303</ele>
        <time>2019-04-02T06:54:07.000Z</time>
      </trkpt>
      <trkpt lat="47.26136" lon="-1.55322">
        <ele>9.3999996185303</ele>
        <time>2019-04-02T06:54:08.000Z</time>
      </trkpt>
      <trkpt lat="47.26135" lon="-1.55321">
        <ele>9.1999998092651</ele>
        <time>2019-04-02T06:54:09.000Z</time>
      </trkpt>
      <trkpt lat="47.26134" lon="-1.5532">
        <ele>9.1999998092651</ele>
        <time>2019-04-02T06:54:10.000Z</time>
      </trkpt>
      <trkpt lat="47.26133" lon="-1.5532">
        <ele>9.1999998092651</ele>
        <time>2019-04-02T06:54:11.000Z</time>
      </trkpt>
      <trkpt lat="47.26131" lon="-1.55319">
        <ele>9.1999998092651</ele>
        <time>2019-04-02T06:54:12.000Z</time>
      </trkpt>
      <trkpt lat="47.2613" lon="-1.55318">
        <ele>9.1999998092651</ele>
        <time>2019-04-02T06:54:13.000Z</time>
      </trkpt>
      <trkpt lat="47.26129" lon="-1.55317">
        <ele>9.1999998092651</ele>
        <time>2019-04-02T06:54:14.000Z</time>
      </trkpt>
      <trkpt lat="47.26127" lon="-1.55316">
        <ele>9.1999998092651</ele>
        <time>2019-04-02T06:54:15.000Z</time>
      </trkpt>
      <trkpt lat="47.26126" lon="-1.55315">
        <ele>9.1999998092651</ele>
        <time>2019-04-02T06:54:16.000Z</time>
      </trkpt>
      <trkpt lat="47.26125" lon="-1.55315">
        <ele>9.1999998092651</ele>
        <time>2019-04-02T06:54:17.000Z</time>
      </trkpt>
      <trkpt lat="47.26123" lon="-1.55314">
        <ele>9</ele>
        <time>2019-04-02T06:54:18.000Z</time>
      </trkpt>
      <trkpt lat="47.26122" lon="-1.55314">
        <ele>9</ele>
        <time>2019-04-02T06:54:19.000Z</time>
      </trkpt>
      <trkpt lat="47.26121" lon="-1.55313">
        <ele>9</ele>
        <time>2019-04-02T06:54:20.000Z</time>
      </trkpt>
      <trkpt lat="47.2612" lon="-1.55312">
        <ele>9</ele>
        <time>2019-04-02T06:54:21.000Z</time>
      </trkpt>
      <trkpt lat="47.26118" lon="-1.55312">
        <ele>9</ele>
        <time>2019-04-02T06:54:22.000Z</time>
      </trkpt>
      <trkpt lat="47.26117" lon="-1.55311">
        <ele>9</ele>
        <time>2019-04-02T06:54:23.000Z</time>
      </trkpt>
      <trkpt lat="47.26116" lon="-1.55311">
        <ele>9</ele>
        <time>2019-04-02T06:54:24.000Z</time>
      </trkpt>
      <trkpt lat="47.26115" lon="-1.5531">
        <ele>9</ele>
        <time>2019-04-02T06:54:25.000Z</time>
      </trkpt>
      <trkpt lat="47.26113" lon="-1.55309">
        <ele>9</ele>
        <time>2019-04-02T06:54:26.000Z</time>
      </trkpt>
      <trkpt lat="47.26112" lon="-1.55309">
        <ele>8.8000001907349</ele>
        <time>2019-04-02T06:54:27.000Z</time>
      </trkpt>
      <trkpt lat="47.26111" lon="-1.55308">
        <ele>8.8000001907349</ele>
        <time>2019-04-02T06:54:28.000Z</time>
      </trkpt>
      <trkpt lat="47.2611" lon="-1.55307">
        <ele>8.8000001907349</ele>
        <time>2019-04-02T06:54:29.000Z</time>
      </trkpt>
      <trkpt lat="47.26109" lon="-1.55307">
        <ele>8.8000001907349</ele>
        <time>2019-04-02T06:54:30.000Z</time>
      </trkpt>
      <trkpt lat="47.26107" lon="-1.55307">
        <ele>8.8000001907349</ele>
        <time>2019-04-02T06:54:31.000Z</time>
      </trkpt>
      <trkpt lat="47.26106" lon="-1.55308">
        <ele>8.8000001907349</ele>
        <time>2019-04-02T06:54:32.000Z</time>
      </trkpt>
      <trkpt lat="47.26105" lon="-1.55308">
        <ele>8.8000001907349</ele>
        <time>2019-04-02T06:54:33.000Z</time>
      </trkpt>
      <trkpt lat="47.26104" lon="-1.55309">
        <ele>8.6000003814697</ele>
        <time>2019-04-02T06:54:34.000Z</time>
      </trkpt>
      <trkpt lat="47.26103" lon="-1.55311">
        <ele>8.6000003814697</ele>
        <time>2019-04-02T06:54:35.000Z</time>
      </trkpt>
      <trkpt lat="47.26102" lon="-1.55312">
        <ele>8.6000003814697</ele>
        <time>2019-04-02T06:54:36.000Z</time>
      </trkpt>
      <trkpt lat="47.26101" lon="-1.55313">
        <ele>8.6000003814697</ele>
        <time>2019-04-02T06:54:37.000Z</time>
      </trkpt>
      <trkpt lat="47.261" lon="-1.55314">
        <ele>8.6000003814697</ele>
        <time>2019-04-02T06:54:38.000Z</time>
      </trkpt>
      <trkpt lat="47.26099" lon="-1.55316">
        <ele>8.3999996185303</ele>
        <time>2019-04-02T06:54:39.000Z</time>
      </trkpt>
      <trkpt lat="47.26099" lon="-1.55318">
        <ele>8.3999996185303</ele>
        <time>2019-04-02T06:54:40.000Z</time>
      </trkpt>
      <trkpt lat="47.26098" lon="-1.5532">
        <ele>8.3999996185303</ele>
        <time>2019-04-02T06:54:41.000Z</time>
      </trkpt>
      <trkpt lat="47.26097" lon="-1.55321">
        <ele>8.3999996185303</ele>
        <time>2019-04-02T06:54:42.000Z</time>
      </trkpt>
      <trkpt lat="47.26096" lon="-1.55323">
        <ele>8.3999996185303</ele>
        <time>2019-04-02T06:54:43.000Z</time>
      </trkpt>
      <trkpt lat="47.26095" lon="-1.55325">
        <ele>8.1999998092651</ele>
        <time>2019-04-02T06:54:44.000Z</time>
      </trkpt>
      <trkpt lat="47.26094" lon="-1.55327">
        <ele>8.1999998092651</ele>
        <time>2019-04-02T06:54:45.000Z</time>
      </trkpt>
      <trkpt lat="47.26094" lon="-1.55329">
        <ele>8.1999998092651</ele>
        <time>2019-04-02T06:54:46.000Z</time>
      </trkpt>
      <trkpt lat="47.26093" lon="-1.5533">
        <ele>8.1999998092651</ele>
        <time>2019-04-02T06:54:47.000Z</time>
      </trkpt>
      <trkpt lat="47.26092" lon="-1.55332">
        <ele>8.1999998092651</ele>
        <time>2019-04-02T06:54:48.000Z</time>
      </trkpt>
      <trkpt lat="47.26091" lon="-1.55334">
        <ele>8</ele>
        <time>2019-04-02T06:54:49.000Z</time>
      </trkpt>
      <trkpt lat="47.2609" lon="-1.55336">
        <ele>8</ele>
        <time>2019-04-02T06:54:50.000Z</time>
      </trkpt>
      <trkpt lat="47.2609" lon="-1.55338">
        <ele>8</ele>
        <time>2019-04-02T06:54:51.000Z</time>
      </trkpt>
      <trkpt lat="47.26089" lon="-1.5534">
        <ele>8</ele>
        <time>2019-04-02T06:54:52.000Z</time>
      </trkpt>
      <trkpt lat="47.26088" lon="-1.55342">
        <ele>8</ele>
        <time>2019-04-02T06:54:53.000Z</time>
      </trkpt>
      <trkpt lat="47.26087" lon="-1.55344">
        <ele>7.8000001907349</ele>
        <time>2019-04-02T06:54:54.000Z</time>
      </trkpt>
      <trkpt lat="47.26086" lon="-1.55346">
        <ele>7.8000001907349</ele>
        <time>2019-04-02T06:54:55.000Z</time>
      </trkpt>
      <trkpt lat="47.26085" lon="-1.55348">
        <ele>7.8000001907349</ele>
        <time>2019-04-02T06:54:56.000Z</time>
      </trkpt>
      <trkpt lat="47.26085" lon="-1.5535">
        <ele>7.8000001907349</ele>
        <time>2019-04-02T06:54:57.000Z</time>
      </trkpt>
      <trkpt lat="47.26083" lon="-1.55354">
        <ele>7.5999999046326</ele>
        <time>2019-04-02T06:54:58.000Z</time>
      </trkpt>
      <trkpt lat="47.26083" lon="-1.55354">
        <ele>7.5999999046326</ele>
        <time>2019-04-02T06:54:59.000Z</time>
      </trkpt>
      <trkpt lat="47.26082" lon="-1.55356">
        <ele>7.5999999046326</ele>
        <time>2019-04-02T06:55:00.000Z</time>
      </trkpt>
      <trkpt lat="47.26081" lon="-1.55357">
        <ele>7.5999999046326</ele>
        <time>2019-04-02T06:55:01.000Z</time>
      </trkpt>
      <trkpt lat="47.2608" lon="-1.55359">
        <ele>7.5999999046326</ele>
        <time>2019-04-02T06:55:02.000Z</time>
      </trkpt>
      <trkpt lat="47.2608" lon="-1.55361">
        <ele>7.4000000953674</ele>
        <time>2019-04-02T06:55:03.000Z</time>
      </trkpt>
      <trkpt lat="47.26079" lon="-1.55363">
        <ele>7.4000000953674</ele>
        <time>2019-04-02T06:55:04.000Z</time>
      </trkpt>
      <trkpt lat="47.26078" lon="-1.55365">
        <ele>7.4000000953674</ele>
        <time>2019-04-02T06:55:05.000Z</time>
      </trkpt>
      <trkpt lat="47.26077" lon="-1.55367">
        <ele>7.4000000953674</ele>
        <time>2019-04-02T06:55:06.000Z</time>
      </trkpt>
      <trkpt lat="47.26076" lon="-1.55368">
        <ele>7.4000000953674</ele>
        <time>2019-04-02T06:55:07.000Z</time>
      </trkpt>
      <trkpt lat="47.26075" lon="-1.5537">
        <ele>7.4000000953674</ele>
        <time>2019-04-02T06:55:08.000Z</time>
      </trkpt>
      <trkpt lat="47.26075" lon="-1.55372">
        <ele>7.1999998092651</ele>
        <time>2019-04-02T06:55:09.000Z</time>
      </trkpt>
      <trkpt lat="47.26074" lon="-1.55375">
        <ele>7.1999998092651</ele>
        <time>2019-04-02T06:55:10.000Z</time>
      </trkpt>
      <trkpt lat="47.26073" lon="-1.55377">
        <ele>7.1999998092651</ele>
        <time>2019-04-02T06:55:11.000Z</time>
      </trkpt>
      <trkpt lat="47.26072" lon="-1.55379">
        <ele>7.1999998092651</ele>
        <time>2019-04-02T06:55:12.000Z</time>
      </trkpt>
      <trkpt lat="47.26071" lon="-1.5538">
        <ele>7.1999998092651</ele>
        <time>2019-04-02T06:55:13.000Z</time>
      </trkpt>
      <trkpt lat="47.2607" lon="-1.55382">
        <ele>7.1999998092651</ele>
        <time>2019-04-02T06:55:14.000Z</time>
      </trkpt>
      <trkpt lat="47.26069" lon="-1.55384">
        <ele>7</ele>
        <time>2019-04-02T06:55:15.000Z</time>
      </trkpt>
      <trkpt lat="47.26068" lon="-1.55386">
        <ele>7</ele>
        <time>2019-04-02T06:55:16.000Z</time>
      </trkpt>
      <trkpt lat="47.26067" lon="-1.55388">
        <ele>7</ele>
        <time>2019-04-02T06:55:17.000Z</time>
      </trkpt>
      <trkpt lat="47.26066" lon="-1.55389">
        <ele>7</ele>
        <time>2019-04-02T06:55:18.000Z</time>
      </trkpt>
      <trkpt lat="47.26065" lon="-1.55391">
        <ele>7</ele>
        <time>2019-04-02T06:55:19.000Z</time>
      </trkpt>
      <trkpt lat="47.26064" lon="-1.55393">
        <ele>7</ele>
        <time>2019-04-02T06:55:20.000Z</time>
      </trkpt>
      <trkpt lat="47.26063" lon="-1.55395">
        <ele>6.8000001907349</ele>
        <time>2019-04-02T06:55:21.000Z</time>
      </trkpt>
      <trkpt lat="47.26062" lon="-1.55396">
        <ele>6.8000001907349</ele>
        <time>2019-04-02T06:55:22.000Z</time>
      </trkpt>
      <trkpt lat="47.26061" lon="-1.55398">
        <ele>6.8000001907349</ele>
        <time>2019-04-02T06:55:23.000Z</time>
      </trkpt>
      <trkpt lat="47.26061" lon="-1.554">
        <ele>6.8000001907349</ele>
        <time>2019-04-02T06:55:24.000Z</time>
      </trkpt>
      <trkpt lat="47.2606" lon="-1.55401">
        <ele>6.8000001907349</ele>
        <time>2019-04-02T06:55:25.000Z</time>
      </trkpt>
      <trkpt lat="47.26059" lon="-1.55403">
        <ele>6.8000001907349</ele>
        <time>2019-04-02T06:55:26.000Z</time>
      </trkpt>
      <trkpt lat="47.26058" lon="-1.55405">
        <ele>6.8000001907349</ele>
        <time>2019-04-02T06:55:27.000Z</time>
      </trkpt>
      <trkpt lat="47.26058" lon="-1.55407">
        <ele>6.8000001907349</ele>
        <time>2019-04-02T06:55:28.000Z</time>
      </trkpt>
      <trkpt lat="47.26057" lon="-1.55409">
        <ele>6.8000001907349</ele>
        <time>2019-04-02T06:55:29.000Z</time>
      </trkpt>
      <trkpt lat="47.26057" lon="-1.5541">
        <ele>6.8000001907349</ele>
        <time>2019-04-02T06:55:30.000Z</time>
      </trkpt>
      <trkpt lat="47.26055" lon="-1.55414">
        <ele>6.8000001907349</ele>
        <time>2019-04-02T06:55:31.000Z</time>
      </trkpt>
      <trkpt lat="47.26055" lon="-1.55414">
        <ele>6.8000001907349</ele>
        <time>2019-04-02T06:55:32.000Z</time>
      </trkpt>
      <trkpt lat="47.26055" lon="-1.55416">
        <ele>6.8000001907349</ele>
        <time>2019-04-02T06:55:33.000Z</time>
      </trkpt>
      <trkpt lat="47.26054" lon="-1.55418">
        <ele>6.5999999046326</ele>
        <time>2019-04-02T06:55:34.000Z</time>
      </trkpt>
      <trkpt lat="47.26054" lon="-1.5542">
        <ele>6.5999999046326</ele>
        <time>2019-04-02T06:55:35.000Z</time>
      </trkpt>
      <trkpt lat="47.26053" lon="-1.55422">
        <ele>6.5999999046326</ele>
        <time>2019-04-02T06:55:36.000Z</time>
      </trkpt>
      <trkpt lat="47.26052" lon="-1.55426">
        <ele>6.5999999046326</ele>
        <time>2019-04-02T06:55:37.000Z</time>
      </trkpt>
      <trkpt lat="47.26052" lon="-1.55426">
        <ele>6.5999999046326</ele>
        <time>2019-04-02T06:55:38.000Z</time>
      </trkpt>
      <trkpt lat="47.26051" lon="-1.55427">
        <ele>6.5999999046326</ele>
        <time>2019-04-02T06:55:39.000Z</time>
      </trkpt>
      <trkpt lat="47.26051" lon="-1.55429">
        <ele>6.5999999046326</ele>
        <time>2019-04-02T06:55:40.000Z</time>
      </trkpt>
      <trkpt lat="47.2605" lon="-1.55431">
        <ele>6.5999999046326</ele>
        <time>2019-04-02T06:55:41.000Z</time>
      </trkpt>
      <trkpt lat="47.2605" lon="-1.55433">
        <ele>6.5999999046326</ele>
        <time>2019-04-02T06:55:42.000Z</time>
      </trkpt>
      <trkpt lat="47.2605" lon="-1.55435">
        <ele>6.5999999046326</ele>
        <time>2019-04-02T06:55:43.000Z</time>
      </trkpt>
      <trkpt lat="47.26049" lon="-1.55437">
        <ele>6.5999999046326</ele>
        <time>2019-04-02T06:55:44.000Z</time>
      </trkpt>
      <trkpt lat="47.26048" lon="-1.55439">
        <ele>6.5999999046326</ele>
        <time>2019-04-02T06:55:45.000Z</time>
      </trkpt>
      <trkpt lat="47.26047" lon="-1.55443">
        <ele>6.4000000953674</ele>
        <time>2019-04-02T06:55:46.000Z</time>
      </trkpt>
      <trkpt lat="47.26047" lon="-1.55443">
        <ele>6.4000000953674</ele>
        <time>2019-04-02T06:55:47.000Z</time>
      </trkpt>
      <trkpt lat="47.26047" lon="-1.55445">
        <ele>6.4000000953674</ele>
        <time>2019-04-02T06:55:48.000Z</time>
      </trkpt>
      <trkpt lat="47.26047" lon="-1.55447">
        <ele>6.4000000953674</ele>
        <time>2019-04-02T06:55:49.000Z</time>
      </trkpt>
      <trkpt lat="47.26046" lon="-1.55449">
        <ele>6.4000000953674</ele>
        <time>2019-04-02T06:55:50.000Z</time>
      </trkpt>
      <trkpt lat="47.26045" lon="-1.5545">
        <ele>6.4000000953674</ele>
        <time>2019-04-02T06:55:51.000Z</time>
      </trkpt>
      <trkpt lat="47.26045" lon="-1.55452">
        <ele>6.4000000953674</ele>
        <time>2019-04-02T06:55:52.000Z</time>
      </trkpt>
      <trkpt lat="47.26044" lon="-1.55454">
        <ele>6.4000000953674</ele>
        <time>2019-04-02T06:55:53.000Z</time>
      </trkpt>
      <trkpt lat="47.26044" lon="-1.55456">
        <ele>6.4000000953674</ele>
        <time>2019-04-02T06:55:54.000Z</time>
      </trkpt>
      <trkpt lat="47.26044" lon="-1.55459">
        <ele>6.4000000953674</ele>
        <time>2019-04-02T06:55:55.000Z</time>
      </trkpt>
      <trkpt lat="47.26043" lon="-1.55463">
        <ele>6.1999998092651</ele>
        <time>2019-04-02T06:55:56.000Z</time>
      </trkpt>
      <trkpt lat="47.26043" lon="-1.55463">
        <ele>6.1999998092651</ele>
        <time>2019-04-02T06:55:57.000Z</time>
      </trkpt>
      <trkpt lat="47.26042" lon="-1.55465">
        <ele>6.1999998092651</ele>
        <time>2019-04-02T06:55:58.000Z</time>
      </trkpt>
      <trkpt lat="47.26041" lon="-1.55467">
        <ele>6.1999998092651</ele>
        <time>2019-04-02T06:55:59.000Z</time>
      </trkpt>
      <trkpt lat="47.26041" lon="-1.5547">
        <ele>6.1999998092651</ele>
        <time>2019-04-02T06:56:00.000Z</time>
      </trkpt>
      <trkpt lat="47.2604" lon="-1.55472">
        <ele>6.1999998092651</ele>
        <time>2019-04-02T06:56:01.000Z</time>
      </trkpt>
      <trkpt lat="47.26039" lon="-1.55474">
        <ele>6.1999998092651</ele>
        <time>2019-04-02T06:56:02.000Z</time>
      </trkpt>
      <trkpt lat="47.26039" lon="-1.55476">
        <ele>6.1999998092651</ele>
        <time>2019-04-02T06:56:03.000Z</time>
      </trkpt>
      <trkpt lat="47.26038" lon="-1.55478">
        <ele>6</ele>
        <time>2019-04-02T06:56:04.000Z</time>
      </trkpt>
      <trkpt lat="47.26038" lon="-1.55479">
        <ele>6</ele>
        <time>2019-04-02T06:56:05.000Z</time>
      </trkpt>
      <trkpt lat="47.26038" lon="-1.55481">
        <ele>6</ele>
        <time>2019-04-02T06:56:06.000Z</time>
      </trkpt>
      <trkpt lat="47.26037" lon="-1.55483">
        <ele>6</ele>
        <time>2019-04-02T06:56:07.000Z</time>
      </trkpt>
      <trkpt lat="47.26037" lon="-1.55485">
        <ele>6</ele>
        <time>2019-04-02T06:56:08.000Z</time>
      </trkpt>
      <trkpt lat="47.26036" lon="-1.55488">
        <ele>6</ele>
        <time>2019-04-02T06:56:09.000Z</time>
      </trkpt>
      <trkpt lat="47.26036" lon="-1.55488">
        <ele>6</ele>
        <time>2019-04-02T06:56:10.000Z</time>
      </trkpt>
      <trkpt lat="47.26035" lon="-1.5549">
        <ele>6.1999998092651</ele>
        <time>2019-04-02T06:56:11.000Z</time>
      </trkpt>
      <trkpt lat="47.26034" lon="-1.55492">
        <ele>6.1999998092651</ele>
        <time>2019-04-02T06:56:12.000Z</time>
      </trkpt>
      <trkpt lat="47.26034" lon="-1.55494">
        <ele>6.1999998092651</ele>
        <time>2019-04-02T06:56:13.000Z</time>
      </trkpt>
      <trkpt lat="47.26034" lon="-1.55496">
        <ele>6.1999998092651</ele>
        <time>2019-04-02T06:56:14.000Z</time>
      </trkpt>
      <trkpt lat="47.26034" lon="-1.55499">
        <ele>6.4000000953674</ele>
        <time>2019-04-02T06:56:15.000Z</time>
      </trkpt>
      <trkpt lat="47.26034" lon="-1.55501">
        <ele>6.4000000953674</ele>
        <time>2019-04-02T06:56:16.000Z</time>
      </trkpt>
      <trkpt lat="47.26034" lon="-1.55503">
        <ele>6.4000000953674</ele>
        <time>2019-04-02T06:56:17.000Z</time>
      </trkpt>
      <trkpt lat="47.26034" lon="-1.55504">
        <ele>6.4000000953674</ele>
        <time>2019-04-02T06:56:18.000Z</time>
      </trkpt>
      <trkpt lat="47.26034" lon="-1.55507">
        <ele>6.5999999046326</ele>
        <time>2019-04-02T06:56:19.000Z</time>
      </trkpt>
      <trkpt lat="47.26034" lon="-1.55509">
        <ele>6.5999999046326</ele>
        <time>2019-04-02T06:56:20.000Z</time>
      </trkpt>
      <trkpt lat="47.26035" lon="-1.5551">
        <ele>6.5999999046326</ele>
        <time>2019-04-02T06:56:21.000Z</time>
      </trkpt>
      <trkpt lat="47.26035" lon="-1.55512">
        <ele>6.5999999046326</ele>
        <time>2019-04-02T06:56:22.000Z</time>
      </trkpt>
      <trkpt lat="47.26035" lon="-1.55514">
        <ele>6.8000001907349</ele>
        <time>2019-04-02T06:56:23.000Z</time>
      </trkpt>
      <trkpt lat="47.26035" lon="-1.55516">
        <ele>6.8000001907349</ele>
        <time>2019-04-02T06:56:24.000Z</time>
      </trkpt>
      <trkpt lat="47.26035" lon="-1.55518">
        <ele>6.8000001907349</ele>
        <time>2019-04-02T06:56:25.000Z</time>
      </trkpt>
      <trkpt lat="47.26035" lon="-1.55519">
        <ele>6.8000001907349</ele>
        <time>2019-04-02T06:56:26.000Z</time>
      </trkpt>
      <trkpt lat="47.26035" lon="-1.5552">
        <ele>6.8000001907349</ele>
        <time>2019-04-02T06:56:27.000Z</time>
      </trkpt>
      <trkpt lat="47.26035" lon="-1.55522">
        <ele>7</ele>
        <time>2019-04-02T06:56:28.000Z</time>
      </trkpt>
      <trkpt lat="47.26035" lon="-1.55524">
        <ele>7</ele>
        <time>2019-04-02T06:56:29.000Z</time>
      </trkpt>
      <trkpt lat="47.26035" lon="-1.55526">
        <ele>7</ele>
        <time>2019-04-02T06:56:30.000Z</time>
      </trkpt>
      <trkpt lat="47.26035" lon="-1.55527">
        <ele>7</ele>
        <time>2019-04-02T06:56:31.000Z</time>
      </trkpt>
      <trkpt lat="47.26035" lon="-1.55529">
        <ele>7</ele>
        <time>2019-04-02T06:56:32.000Z</time>
      </trkpt>
      <trkpt lat="47.26035" lon="-1.55531">
        <ele>7</ele>
        <time>2019-04-02T06:56:33.000Z</time>
      </trkpt>
      <trkpt lat="47.26035" lon="-1.55533">
        <ele>7.1999998092651</ele>
        <time>2019-04-02T06:56:34.000Z</time>
      </trkpt>
      <trkpt lat="47.26035" lon="-1.55534">
        <ele>7.1999998092651</ele>
        <time>2019-04-02T06:56:35.000Z</time>
      </trkpt>
      <trkpt lat="47.26035" lon="-1.55536">
        <ele>7.1999998092651</ele>
        <time>2019-04-02T06:56:36.000Z</time>
      </trkpt>
      <trkpt lat="47.26034" lon="-1.55538">
        <ele>7.1999998092651</ele>
        <time>2019-04-02T06:56:37.000Z</time>
      </trkpt>
      <trkpt lat="47.26034" lon="-1.5554">
        <ele>7.1999998092651</ele>
        <time>2019-04-02T06:56:38.000Z</time>
      </trkpt>
      <trkpt lat="47.26034" lon="-1.55542">
        <ele>7.1999998092651</ele>
        <time>2019-04-02T06:56:39.000Z</time>
      </trkpt>
      <trkpt lat="47.26034" lon="-1.55543">
        <ele>7.1999998092651</ele>
        <time>2019-04-02T06:56:40.000Z</time>
      </trkpt>
      <trkpt lat="47.26033" lon="-1.55545">
        <ele>7.1999998092651</ele>
        <time>2019-04-02T06:56:41.000Z</time>
      </trkpt>
      <trkpt lat="47.26033" lon="-1.55547">
        <ele>7.4000000953674</ele>
        <time>2019-04-02T06:56:42.000Z</time>
      </trkpt>
      <trkpt lat="47.26033" lon="-1.55549">
        <ele>7.4000000953674</ele>
        <time>2019-04-02T06:56:43.000Z</time>
      </trkpt>
      <trkpt lat="47.26032" lon="-1.55551">
        <ele>7.4000000953674</ele>
        <time>2019-04-02T06:56:44.000Z</time>
      </trkpt>
      <trkpt lat="47.26032" lon="-1.55553">
        <ele>7.4000000953674</ele>
        <time>2019-04-02T06:56:45.000Z</time>
      </trkpt>
      <trkpt lat="47.26032" lon="-1.55555">
        <ele>7.4000000953674</ele>
        <time>2019-04-02T06:56:46.000Z</time>
      </trkpt>
      <trkpt lat="47.26031" lon="-1.55559">
        <ele>7.4000000953674</ele>
        <time>2019-04-02T06:56:47.000Z</time>
      </trkpt>
      <trkpt lat="47.26031" lon="-1.55559">
        <ele>7.4000000953674</ele>
        <time>2019-04-02T06:56:48.000Z</time>
      </trkpt>
      <trkpt lat="47.2603" lon="-1.55561">
        <ele>7.5999999046326</ele>
        <time>2019-04-02T06:56:49.000Z</time>
      </trkpt>
      <trkpt lat="47.26029" lon="-1.55563">
        <ele>7.5999999046326</ele>
        <time>2019-04-02T06:56:50.000Z</time>
      </trkpt>
      <trkpt lat="47.26028" lon="-1.55565">
        <ele>7.5999999046326</ele>
        <time>2019-04-02T06:56:51.000Z</time>
      </trkpt>
      <trkpt lat="47.26027" lon="-1.55567">
        <ele>7.5999999046326</ele>
        <time>2019-04-02T06:56:52.000Z</time>
      </trkpt>
      <trkpt lat="47.26026" lon="-1.55569">
        <ele>7.5999999046326</ele>
        <time>2019-04-02T06:56:53.000Z</time>
      </trkpt>
      <trkpt lat="47.26024" lon="-1.5557">
        <ele>7.8000001907349</ele>
        <time>2019-04-02T06:56:54.000Z</time>
      </trkpt>
      <trkpt lat="47.26023" lon="-1.55572">
        <ele>7.8000001907349</ele>
        <time>2019-04-02T06:56:55.000Z</time>
      </trkpt>
      <trkpt lat="47.26022" lon="-1.55573">
        <ele>7.8000001907349</ele>
        <time>2019-04-02T06:56:56.000Z</time>
      </trkpt>
      <trkpt lat="47.26022" lon="-1.55574">
        <ele>7.8000001907349</ele>
        <time>2019-04-02T06:56:57.000Z</time>
      </trkpt>
      <trkpt lat="47.2602" lon="-1.55576">
        <ele>8</ele>
        <time>2019-04-02T06:56:58.000Z</time>
      </trkpt>
      <trkpt lat="47.26019" lon="-1.55577">
        <ele>8</ele>
        <time>2019-04-02T06:56:59.000Z</time>
      </trkpt>
      <trkpt lat="47.26018" lon="-1.55579">
        <ele>8</ele>
        <time>2019-04-02T06:57:00.000Z</time>
      </trkpt>
      <trkpt lat="47.26017" lon="-1.5558">
        <ele>8</ele>
        <time>2019-04-02T06:57:01.000Z</time>
      </trkpt>
      <trkpt lat="47.26016" lon="-1.55581">
        <ele>8</ele>
        <time>2019-04-02T06:57:02.000Z</time>
      </trkpt>
      <trkpt lat="47.26015" lon="-1.55583">
        <ele>8.1999998092651</ele>
        <time>2019-04-02T06:57:03.000Z</time>
      </trkpt>
      <trkpt lat="47.26014" lon="-1.55585">
        <ele>8.1999998092651</ele>
        <time>2019-04-02T06:57:04.000Z</time>
      </trkpt>
      <trkpt lat="47.26013" lon="-1.55586">
        <ele>8.1999998092651</ele>
        <time>2019-04-02T06:57:05.000Z</time>
      </trkpt>
      <trkpt lat="47.26013" lon="-1.55588">
        <ele>8.1999998092651</ele>
        <time>2019-04-02T06:57:06.000Z</time>
      </trkpt>
      <trkpt lat="47.26012" lon="-1.5559">
        <ele>8.3999996185303</ele>
        <time>2019-04-02T06:57:07.000Z</time>
      </trkpt>
      <trkpt lat="47.26011" lon="-1.55592">
        <ele>8.3999996185303</ele>
        <time>2019-04-02T06:57:08.000Z</time>
      </trkpt>
      <trkpt lat="47.26011" lon="-1.55593">
        <ele>8.3999996185303</ele>
        <time>2019-04-02T06:57:09.000Z</time>
      </trkpt>
      <trkpt lat="47.26011" lon="-1.55595">
        <ele>8.3999996185303</ele>
        <time>2019-04-02T06:57:10.000Z</time>
      </trkpt>
      <trkpt lat="47.2601" lon="-1.55597">
        <ele>8.6000003814697</ele>
        <time>2019-04-02T06:57:11.000Z</time>
      </trkpt>
      <trkpt lat="47.2601" lon="-1.55599">
        <ele>8.6000003814697</ele>
        <time>2019-04-02T06:57:12.000Z</time>
      </trkpt>
      <trkpt lat="47.26009" lon="-1.55601">
        <ele>8.6000003814697</ele>
        <time>2019-04-02T06:57:13.000Z</time>
      </trkpt>
      <trkpt lat="47.26008" lon="-1.55603">
        <ele>8.8000001907349</ele>
        <time>2019-04-02T06:57:14.000Z</time>
      </trkpt>
      <trkpt lat="47.26007" lon="-1.55606">
        <ele>8.8000001907349</ele>
        <time>2019-04-02T06:57:15.000Z</time>
      </trkpt>
      <trkpt lat="47.26007" lon="-1.55606">
        <ele>8.8000001907349</ele>
        <time>2019-04-02T06:57:16.000Z</time>
      </trkpt>
      <trkpt lat="47.26006" lon="-1.55607">
        <ele>8.8000001907349</ele>
        <time>2019-04-02T06:57:17.000Z</time>
      </trkpt>
      <trkpt lat="47.26005" lon="-1.55608">
        <ele>8.8000001907349</ele>
        <time>2019-04-02T06:57:18.000Z</time>
      </trkpt>
      <trkpt lat="47.26003" lon="-1.55609">
        <ele>9</ele>
        <time>2019-04-02T06:57:19.000Z</time>
      </trkpt>
      <trkpt lat="47.26002" lon="-1.55609">
        <ele>9</ele>
        <time>2019-04-02T06:57:20.000Z</time>
      </trkpt>
      <trkpt lat="47.26001" lon="-1.5561">
        <ele>9</ele>
        <time>2019-04-02T06:57:21.000Z</time>
      </trkpt>
      <trkpt lat="47.26" lon="-1.55611">
        <ele>9</ele>
        <time>2019-04-02T06:57:22.000Z</time>
      </trkpt>
      <trkpt lat="47.25999" lon="-1.55612">
        <ele>9</ele>
        <time>2019-04-02T06:57:23.000Z</time>
      </trkpt>
      <trkpt lat="47.25998" lon="-1.55613">
        <ele>9</ele>
        <time>2019-04-02T06:57:24.000Z</time>
      </trkpt>
      <trkpt lat="47.25996" lon="-1.55614">
        <ele>9.1999998092651</ele>
        <time>2019-04-02T06:57:25.000Z</time>
      </trkpt>
      <trkpt lat="47.25995" lon="-1.55614">
        <ele>9.1999998092651</ele>
        <time>2019-04-02T06:57:26.000Z</time>
      </trkpt>
      <trkpt lat="47.25994" lon="-1.55614">
        <ele>9</ele>
        <time>2019-04-02T06:57:27.000Z</time>
      </trkpt>
      <trkpt lat="47.25992" lon="-1.55614">
        <ele>9</ele>
        <time>2019-04-02T06:57:28.000Z</time>
      </trkpt>
      <trkpt lat="47.25991" lon="-1.55615">
        <ele>9</ele>
        <time>2019-04-02T06:57:29.000Z</time>
      </trkpt>
      <trkpt lat="47.2599" lon="-1.55615">
        <ele>9</ele>
        <time>2019-04-02T06:57:30.000Z</time>
      </trkpt>
      <trkpt lat="47.25989" lon="-1.55616">
        <ele>9</ele>
        <time>2019-04-02T06:57:31.000Z</time>
      </trkpt>
      <trkpt lat="47.25988" lon="-1.55616">
        <ele>9</ele>
        <time>2019-04-02T06:57:32.000Z</time>
      </trkpt>
      <trkpt lat="47.25986" lon="-1.55616">
        <ele>9</ele>
        <time>2019-04-02T06:57:33.000Z</time>
      </trkpt>
      <trkpt lat="47.25985" lon="-1.55616">
        <ele>9</ele>
        <time>2019-04-02T06:57:34.000Z</time>
      </trkpt>
      <trkpt lat="47.25984" lon="-1.55617">
        <ele>9</ele>
        <time>2019-04-02T06:57:35.000Z</time>
      </trkpt>
      <trkpt lat="47.25982" lon="-1.55618">
        <ele>9</ele>
        <time>2019-04-02T06:57:36.000Z</time>
      </trkpt>
      <trkpt lat="47.25981" lon="-1.55619">
        <ele>9</ele>
        <time>2019-04-02T06:57:37.000Z</time>
      </trkpt>
      <trkpt lat="47.2598" lon="-1.5562">
        <ele>9</ele>
        <time>2019-04-02T06:57:38.000Z</time>
      </trkpt>
      <trkpt lat="47.25979" lon="-1.55621">
        <ele>9</ele>
        <time>2019-04-02T06:57:39.000Z</time>
      </trkpt>
      <trkpt lat="47.25978" lon="-1.55622">
        <ele>9</ele>
        <time>2019-04-02T06:57:40.000Z</time>
      </trkpt>
      <trkpt lat="47.25977" lon="-1.55622">
        <ele>9</ele>
        <time>2019-04-02T06:57:41.000Z</time>
      </trkpt>
      <trkpt lat="47.25976" lon="-1.55623">
        <ele>9</ele>
        <time>2019-04-02T06:57:42.000Z</time>
      </trkpt>
      <trkpt lat="47.25975" lon="-1.55624">
        <ele>9</ele>
        <time>2019-04-02T06:57:43.000Z</time>
      </trkpt>
      <trkpt lat="47.25974" lon="-1.55624">
        <ele>9</ele>
        <time>2019-04-02T06:57:44.000Z</time>
      </trkpt>
      <trkpt lat="47.25972" lon="-1.55625">
        <ele>9.1999998092651</ele>
        <time>2019-04-02T06:57:45.000Z</time>
      </trkpt>
      <trkpt lat="47.25971" lon="-1.55627">
        <ele>9.1999998092651</ele>
        <time>2019-04-02T06:57:46.000Z</time>
      </trkpt>
      <trkpt lat="47.2597" lon="-1.55629">
        <ele>9.1999998092651</ele>
        <time>2019-04-02T06:57:47.000Z</time>
      </trkpt>
      <trkpt lat="47.25969" lon="-1.5563">
        <ele>9.1999998092651</ele>
        <time>2019-04-02T06:57:48.000Z</time>
      </trkpt>
      <trkpt lat="47.25968" lon="-1.55632">
        <ele>9.1999998092651</ele>
        <time>2019-04-02T06:57:49.000Z</time>
      </trkpt>
      <trkpt lat="47.25967" lon="-1.55633">
        <ele>9.1999998092651</ele>
        <time>2019-04-02T06:57:50.000Z</time>
      </trkpt>
      <trkpt lat="47.25965" lon="-1.55634">
        <ele>9.1999998092651</ele>
        <time>2019-04-02T06:57:51.000Z</time>
      </trkpt>
      <trkpt lat="47.25964" lon="-1.55634">
        <ele>9.1999998092651</ele>
        <time>2019-04-02T06:57:52.000Z</time>
      </trkpt>
      <trkpt lat="47.25963" lon="-1.55635">
        <ele>9.1999998092651</ele>
        <time>2019-04-02T06:57:53.000Z</time>
      </trkpt>
      <trkpt lat="47.25962" lon="-1.55636">
        <ele>9.1999998092651</ele>
        <time>2019-04-02T06:57:54.000Z</time>
      </trkpt>
      <trkpt lat="47.25961" lon="-1.55636">
        <ele>9.1999998092651</ele>
        <time>2019-04-02T06:57:55.000Z</time>
      </trkpt>
      <trkpt lat="47.25959" lon="-1.55637">
        <ele>9.1999998092651</ele>
        <time>2019-04-02T06:57:56.000Z</time>
      </trkpt>
      <trkpt lat="47.25958" lon="-1.55638">
        <ele>9.1999998092651</ele>
        <time>2019-04-02T06:57:57.000Z</time>
      </trkpt>
      <trkpt lat="47.25957" lon="-1.55639">
        <ele>9.1999998092651</ele>
        <time>2019-04-02T06:57:58.000Z</time>
      </trkpt>
      <trkpt lat="47.25957" lon="-1.55641">
        <ele>9.1999998092651</ele>
        <time>2019-04-02T06:57:59.000Z</time>
      </trkpt>
      <trkpt lat="47.25956" lon="-1.55642">
        <ele>9.3999996185303</ele>
        <time>2019-04-02T06:58:00.000Z</time>
      </trkpt>
      <trkpt lat="47.25955" lon="-1.55644">
        <ele>9.3999996185303</ele>
        <time>2019-04-02T06:58:01.000Z</time>
      </trkpt>
      <trkpt lat="47.25955" lon="-1.55646">
        <ele>9.3999996185303</ele>
        <time>2019-04-02T06:58:02.000Z</time>
      </trkpt>
      <trkpt lat="47.25954" lon="-1.55647">
        <ele>9.3999996185303</ele>
        <time>2019-04-02T06:58:03.000Z</time>
      </trkpt>
      <trkpt lat="47.25953" lon="-1.55649">
        <ele>9.3999996185303</ele>
        <time>2019-04-02T06:58:04.000Z</time>
      </trkpt>
      <trkpt lat="47.25952" lon="-1.5565">
        <ele>9.3999996185303</ele>
        <time>2019-04-02T06:58:05.000Z</time>
      </trkpt>
      <trkpt lat="47.25952" lon="-1.55652">
        <ele>9.3999996185303</ele>
        <time>2019-04-02T06:58:06.000Z</time>
      </trkpt>
      <trkpt lat="47.25951" lon="-1.55654">
        <ele>9.3999996185303</ele>
        <time>2019-04-02T06:58:07.000Z</time>
      </trkpt>
      <trkpt lat="47.25951" lon="-1.55656">
        <ele>9.3999996185303</ele>
        <time>2019-04-02T06:58:08.000Z</time>
      </trkpt>
      <trkpt lat="47.2595" lon="-1.55657">
        <ele>9.3999996185303</ele>
        <time>2019-04-02T06:58:09.000Z</time>
      </trkpt>
      <trkpt lat="47.2595" lon="-1.55659">
        <ele>9.3999996185303</ele>
        <time>2019-04-02T06:58:10.000Z</time>
      </trkpt>
      <trkpt lat="47.25949" lon="-1.55661">
        <ele>9.3999996185303</ele>
        <time>2019-04-02T06:58:11.000Z</time>
      </trkpt>
      <trkpt lat="47.25949" lon="-1.55663">
        <ele>9.3999996185303</ele>
        <time>2019-04-02T06:58:12.000Z</time>
      </trkpt>
      <trkpt lat="47.25948" lon="-1.55666">
        <ele>9.3999996185303</ele>
        <time>2019-04-02T06:58:13.000Z</time>
      </trkpt>
      <trkpt lat="47.25948" lon="-1.55668">
        <ele>9.3999996185303</ele>
        <time>2019-04-02T06:58:14.000Z</time>
      </trkpt>
      <trkpt lat="47.25948" lon="-1.5567">
        <ele>9.3999996185303</ele>
        <time>2019-04-02T06:58:15.000Z</time>
      </trkpt>
      <trkpt lat="47.25947" lon="-1.55672">
        <ele>9.3999996185303</ele>
        <time>2019-04-02T06:58:16.000Z</time>
      </trkpt>
      <trkpt lat="47.25947" lon="-1.55674">
        <ele>9.3999996185303</ele>
        <time>2019-04-02T06:58:17.000Z</time>
      </trkpt>
      <trkpt lat="47.25946" lon="-1.55675">
        <ele>9.3999996185303</ele>
        <time>2019-04-02T06:58:18.000Z</time>
      </trkpt>
      <trkpt lat="47.25946" lon="-1.55677">
        <ele>9.3999996185303</ele>
        <time>2019-04-02T06:58:19.000Z</time>
      </trkpt>
      <trkpt lat="47.25945" lon="-1.55678">
        <ele>9.3999996185303</ele>
        <time>2019-04-02T06:58:20.000Z</time>
      </trkpt>
      <trkpt lat="47.25944" lon="-1.55679">
        <ele>9.3999996185303</ele>
        <time>2019-04-02T06:58:21.000Z</time>
      </trkpt>
      <trkpt lat="47.25943" lon="-1.5568">
        <ele>9.3999996185303</ele>
        <time>2019-04-02T06:58:22.000Z</time>
      </trkpt>
      <trkpt lat="47.25942" lon="-1.55681">
        <ele>9.3999996185303</ele>
        <time>2019-04-02T06:58:23.000Z</time>
      </trkpt>
      <trkpt lat="47.25941" lon="-1.55683">
        <ele>9.3999996185303</ele>
        <time>2019-04-02T06:58:24.000Z</time>
      </trkpt>
      <trkpt lat="47.2594" lon="-1.55685">
        <ele>9.3999996185303</ele>
        <time>2019-04-02T06:58:25.000Z</time>
      </trkpt>
      <trkpt lat="47.2594" lon="-1.55687">
        <ele>9.3999996185303</ele>
        <time>2019-04-02T06:58:26.000Z</time>
      </trkpt>
      <trkpt lat="47.2594" lon="-1.55689">
        <ele>9.3999996185303</ele>
        <time>2019-04-02T06:58:27.000Z</time>
      </trkpt>
      <trkpt lat="47.25941" lon="-1.55691">
        <ele>9.3999996185303</ele>
        <time>2019-04-02T06:58:28.000Z</time>
      </trkpt>
      <trkpt lat="47.25942" lon="-1.55692">
        <ele>9.3999996185303</ele>
        <time>2019-04-02T06:58:29.000Z</time>
      </trkpt>
      <trkpt lat="47.25942" lon="-1.55693">
        <ele>9.3999996185303</ele>
        <time>2019-04-02T06:58:30.000Z</time>
      </trkpt>
      <trkpt lat="47.25942" lon="-1.55694">
        <ele>9.3999996185303</ele>
        <time>2019-04-02T06:58:31.000Z</time>
      </trkpt>
      <trkpt lat="47.25943" lon="-1.55696">
        <ele>9.3999996185303</ele>
        <time>2019-04-02T06:58:32.000Z</time>
      </trkpt>
      <trkpt lat="47.25943" lon="-1.55697">
        <ele>9.3999996185303</ele>
        <time>2019-04-02T06:58:33.000Z</time>
      </trkpt>
      <trkpt lat="47.25944" lon="-1.55699">
        <ele>9.3999996185303</ele>
        <time>2019-04-02T06:58:34.000Z</time>
      </trkpt>
      <trkpt lat="47.25944" lon="-1.55701">
        <ele>9.3999996185303</ele>
        <time>2019-04-02T06:58:35.000Z</time>
      </trkpt>
      <trkpt lat="47.25945" lon="-1.55703">
        <ele>9.3999996185303</ele>
        <time>2019-04-02T06:58:36.000Z</time>
      </trkpt>
      <trkpt lat="47.25945" lon="-1.55705">
        <ele>9.3999996185303</ele>
        <time>2019-04-02T06:58:37.000Z</time>
      </trkpt>
      <trkpt lat="47.25945" lon="-1.55706">
        <ele>9.6000003814697</ele>
        <time>2019-04-02T06:58:38.000Z</time>
      </trkpt>
      <trkpt lat="47.25946" lon="-1.55708">
        <ele>9.6000003814697</ele>
        <time>2019-04-02T06:58:39.000Z</time>
      </trkpt>
      <trkpt lat="47.25946" lon="-1.5571">
        <ele>9.6000003814697</ele>
        <time>2019-04-02T06:58:40.000Z</time>
      </trkpt>
      <trkpt lat="47.25945" lon="-1.55712">
        <ele>9.8000001907349</ele>
        <time>2019-04-02T06:58:41.000Z</time>
      </trkpt>
      <trkpt lat="47.25945" lon="-1.55713">
        <ele>9.8000001907349</ele>
        <time>2019-04-02T06:58:42.000Z</time>
      </trkpt>
      <trkpt lat="47.25945" lon="-1.55715">
        <ele>9.8000001907349</ele>
        <time>2019-04-02T06:58:43.000Z</time>
      </trkpt>
      <trkpt lat="47.25944" lon="-1.55716">
        <ele>9.8000001907349</ele>
        <time>2019-04-02T06:58:44.000Z</time>
      </trkpt>
      <trkpt lat="47.25945" lon="-1.55717">
        <ele>10</ele>
        <time>2019-04-02T06:58:45.000Z</time>
      </trkpt>
      <trkpt lat="47.25945" lon="-1.55719">
        <ele>10</ele>
        <time>2019-04-02T06:58:46.000Z</time>
      </trkpt>
      <trkpt lat="47.25946" lon="-1.5572">
        <ele>10</ele>
        <time>2019-04-02T06:58:47.000Z</time>
      </trkpt>
      <trkpt lat="47.25947" lon="-1.55722">
        <ele>10.199999809265</ele>
        <time>2019-04-02T06:58:48.000Z</time>
      </trkpt>
      <trkpt lat="47.25948" lon="-1.55723">
        <ele>10.199999809265</ele>
        <time>2019-04-02T06:58:49.000Z</time>
      </trkpt>
      <trkpt lat="47.25948" lon="-1.55725">
        <ele>10.39999961853</ele>
        <time>2019-04-02T06:58:50.000Z</time>
      </trkpt>
      <trkpt lat="47.25949" lon="-1.55727">
        <ele>10.39999961853</ele>
        <time>2019-04-02T06:58:51.000Z</time>
      </trkpt>
      <trkpt lat="47.2595" lon="-1.55728">
        <ele>10.60000038147</ele>
        <time>2019-04-02T06:58:52.000Z</time>
      </trkpt>
      <trkpt lat="47.2595" lon="-1.5573">
        <ele>10.60000038147</ele>
        <time>2019-04-02T06:58:53.000Z</time>
      </trkpt>
      <trkpt lat="47.25951" lon="-1.55732">
        <ele>10.800000190735</ele>
        <time>2019-04-02T06:58:54.000Z</time>
      </trkpt>
      <trkpt lat="47.25952" lon="-1.55733">
        <ele>10.800000190735</ele>
        <time>2019-04-02T06:58:55.000Z</time>
      </trkpt>
      <trkpt lat="47.25952" lon="-1.55735">
        <ele>11</ele>
        <time>2019-04-02T06:58:56.000Z</time>
      </trkpt>
      <trkpt lat="47.25953" lon="-1.55737">
        <ele>11</ele>
        <time>2019-04-02T06:58:57.000Z</time>
      </trkpt>
      <trkpt lat="47.25954" lon="-1.55739">
        <ele>11</ele>
        <time>2019-04-02T06:58:58.000Z</time>
      </trkpt>
      <trkpt lat="47.25954" lon="-1.55741">
        <ele>11.199999809265</ele>
        <time>2019-04-02T06:58:59.000Z</time>
      </trkpt>
      <trkpt lat="47.25955" lon="-1.55743">
        <ele>11.199999809265</ele>
        <time>2019-04-02T06:59:00.000Z</time>
      </trkpt>
      <trkpt lat="47.25955" lon="-1.55745">
        <ele>11.199999809265</ele>
        <time>2019-04-02T06:59:01.000Z</time>
      </trkpt>
      <trkpt lat="47.25955" lon="-1.55745">
        <ele>11.199999809265</ele>
        <time>2019-04-02T06:59:02.000Z</time>
      </trkpt>
      <trkpt lat="47.25954" lon="-1.55747">
        <ele>11.39999961853</ele>
        <time>2019-04-02T06:59:03.000Z</time>
      </trkpt>
      <trkpt lat="47.25954" lon="-1.55748">
        <ele>11.39999961853</ele>
        <time>2019-04-02T06:59:04.000Z</time>
      </trkpt>
      <trkpt lat="47.25954" lon="-1.5575">
        <ele>11.39999961853</ele>
        <time>2019-04-02T06:59:05.000Z</time>
      </trkpt>
      <trkpt lat="47.25953" lon="-1.55751">
        <ele>11.39999961853</ele>
        <time>2019-04-02T06:59:06.000Z</time>
      </trkpt>
      <trkpt lat="47.25952" lon="-1.55752">
        <ele>11.39999961853</ele>
        <time>2019-04-02T06:59:07.000Z</time>
      </trkpt>
      <trkpt lat="47.25951" lon="-1.55753">
        <ele>11.199999809265</ele>
        <time>2019-04-02T06:59:08.000Z</time>
      </trkpt>
      <trkpt lat="47.2595" lon="-1.55754">
        <ele>11.199999809265</ele>
        <time>2019-04-02T06:59:09.000Z</time>
      </trkpt>
      <trkpt lat="47.2595" lon="-1.55755">
        <ele>11.199999809265</ele>
        <time>2019-04-02T06:59:10.000Z</time>
      </trkpt>
      <trkpt lat="47.2595" lon="-1.55755">
        <ele>11.199999809265</ele>
        <time>2019-04-02T06:59:11.000Z</time>
      </trkpt>
      <trkpt lat="47.25949" lon="-1.55756">
        <ele>11.199999809265</ele>
        <time>2019-04-02T06:59:12.000Z</time>
      </trkpt>
      <trkpt lat="47.25948" lon="-1.55756">
        <ele>11.199999809265</ele>
        <time>2019-04-02T06:59:13.000Z</time>
      </trkpt>
      <trkpt lat="47.25947" lon="-1.55756">
        <ele>11.199999809265</ele>
        <time>2019-04-02T06:59:14.000Z</time>
      </trkpt>
      <trkpt lat="47.25946" lon="-1.55757">
        <ele>11.199999809265</ele>
        <time>2019-04-02T06:59:15.000Z</time>
      </trkpt>
      <trkpt lat="47.25944" lon="-1.55757">
        <ele>11</ele>
        <time>2019-04-02T06:59:16.000Z</time>
      </trkpt>
      <trkpt lat="47.25943" lon="-1.55757">
        <ele>11</ele>
        <time>2019-04-02T06:59:17.000Z</time>
      </trkpt>
      <trkpt lat="47.25941" lon="-1.55757">
        <ele>11</ele>
        <time>2019-04-02T06:59:18.000Z</time>
      </trkpt>
      <trkpt lat="47.2594" lon="-1.55757">
        <ele>10.800000190735</ele>
        <time>2019-04-02T06:59:19.000Z</time>
      </trkpt>
      <trkpt lat="47.25939" lon="-1.55757">
        <ele>10.800000190735</ele>
        <time>2019-04-02T06:59:20.000Z</time>
      </trkpt>
      <trkpt lat="47.25937" lon="-1.55757">
        <ele>10.800000190735</ele>
        <time>2019-04-02T06:59:21.000Z</time>
      </trkpt>
      <trkpt lat="47.25936" lon="-1.55756">
        <ele>10.60000038147</ele>
        <time>2019-04-02T06:59:22.000Z</time>
      </trkpt>
      <trkpt lat="47.25934" lon="-1.55756">
        <ele>10.60000038147</ele>
        <time>2019-04-02T06:59:23.000Z</time>
      </trkpt>
      <trkpt lat="47.25933" lon="-1.55756">
        <ele>10.39999961853</ele>
        <time>2019-04-02T06:59:24.000Z</time>
      </trkpt>
      <trkpt lat="47.25932" lon="-1.55756">
        <ele>10.39999961853</ele>
        <time>2019-04-02T06:59:25.000Z</time>
      </trkpt>
      <trkpt lat="47.2593" lon="-1.55756">
        <ele>10.39999961853</ele>
        <time>2019-04-02T06:59:26.000Z</time>
      </trkpt>
      <trkpt lat="47.25929" lon="-1.55756">
        <ele>10.199999809265</ele>
        <time>2019-04-02T06:59:27.000Z</time>
      </trkpt>
      <trkpt lat="47.25928" lon="-1.55755">
        <ele>10.199999809265</ele>
        <time>2019-04-02T06:59:28.000Z</time>
      </trkpt>
      <trkpt lat="47.25927" lon="-1.55755">
        <ele>10.199999809265</ele>
        <time>2019-04-02T06:59:29.000Z</time>
      </trkpt>
      <trkpt lat="47.25925" lon="-1.55755">
        <ele>10</ele>
        <time>2019-04-02T06:59:30.000Z</time>
      </trkpt>
      <trkpt lat="47.25924" lon="-1.55755">
        <ele>10</ele>
        <time>2019-04-02T06:59:31.000Z</time>
      </trkpt>
      <trkpt lat="47.25922" lon="-1.55754">
        <ele>10</ele>
        <time>2019-04-02T06:59:32.000Z</time>
      </trkpt>
      <trkpt lat="47.2592" lon="-1.55754">
        <ele>9.8000001907349</ele>
        <time>2019-04-02T06:59:33.000Z</time>
      </trkpt>
      <trkpt lat="47.25919" lon="-1.55754">
        <ele>9.8000001907349</ele>
        <time>2019-04-02T06:59:34.000Z</time>
      </trkpt>
      <trkpt lat="47.25917" lon="-1.55754">
        <ele>9.8000001907349</ele>
        <time>2019-04-02T06:59:35.000Z</time>
      </trkpt>
      <trkpt lat="47.25916" lon="-1.55754">
        <ele>9.6000003814697</ele>
        <time>2019-04-02T06:59:36.000Z</time>
      </trkpt>
      <trkpt lat="47.25914" lon="-1.55754">
        <ele>9.6000003814697</ele>
        <time>2019-04-02T06:59:37.000Z</time>
      </trkpt>
      <trkpt lat="47.25913" lon="-1.55754">
        <ele>9.3999996185303</ele>
        <time>2019-04-02T06:59:38.000Z</time>
      </trkpt>
      <trkpt lat="47.2591" lon="-1.55754">
        <ele>9.3999996185303</ele>
        <time>2019-04-02T06:59:39.000Z</time>
      </trkpt>
      <trkpt lat="47.2591" lon="-1.55754">
        <ele>9.3999996185303</ele>
        <time>2019-04-02T06:59:40.000Z</time>
      </trkpt>
      <trkpt lat="47.25908" lon="-1.55754">
        <ele>9.3999996185303</ele>
        <time>2019-04-02T06:59:41.000Z</time>
      </trkpt>
      <trkpt lat="47.25907" lon="-1.55754">
        <ele>9.3999996185303</ele>
        <time>2019-04-02T06:59:42.000Z</time>
      </trkpt>
      <trkpt lat="47.25906" lon="-1.55754">
        <ele>9.3999996185303</ele>
        <time>2019-04-02T06:59:43.000Z</time>
      </trkpt>
      <trkpt lat="47.25904" lon="-1.55754">
        <ele>9.3999996185303</ele>
        <time>2019-04-02T06:59:44.000Z</time>
      </trkpt>
      <trkpt lat="47.25903" lon="-1.55753">
        <ele>9.3999996185303</ele>
        <time>2019-04-02T06:59:45.000Z</time>
      </trkpt>
      <trkpt lat="47.25901" lon="-1.55753">
        <ele>9.3999996185303</ele>
        <time>2019-04-02T06:59:46.000Z</time>
      </trkpt>
      <trkpt lat="47.259" lon="-1.55753">
        <ele>9.1999998092651</ele>
        <time>2019-04-02T06:59:47.000Z</time>
      </trkpt>
      <trkpt lat="47.25898" lon="-1.55753">
        <ele>9.1999998092651</ele>
        <time>2019-04-02T06:59:48.000Z</time>
      </trkpt>
      <trkpt lat="47.25895" lon="-1.55753">
        <ele>9.1999998092651</ele>
        <time>2019-04-02T06:59:49.000Z</time>
      </trkpt>
      <trkpt lat="47.25895" lon="-1.55753">
        <ele>9.1999998092651</ele>
        <time>2019-04-02T06:59:50.000Z</time>
      </trkpt>
      <trkpt lat="47.25894" lon="-1.55753">
        <ele>9.1999998092651</ele>
        <time>2019-04-02T06:59:51.000Z</time>
      </trkpt>
      <trkpt lat="47.25893" lon="-1.55755">
        <ele>9.1999998092651</ele>
        <time>2019-04-02T06:59:52.000Z</time>
      </trkpt>
      <trkpt lat="47.25892" lon="-1.55756">
        <ele>9.1999998092651</ele>
        <time>2019-04-02T06:59:53.000Z</time>
      </trkpt>
      <trkpt lat="47.25891" lon="-1.55758">
        <ele>9.1999998092651</ele>
        <time>2019-04-02T06:59:54.000Z</time>
      </trkpt>
      <trkpt lat="47.25889" lon="-1.55759">
        <ele>9.3999996185303</ele>
        <time>2019-04-02T06:59:55.000Z</time>
      </trkpt>
      <trkpt lat="47.25888" lon="-1.5576">
        <ele>9.3999996185303</ele>
        <time>2019-04-02T06:59:56.000Z</time>
      </trkpt>
      <trkpt lat="47.25887" lon="-1.55761">
        <ele>9.3999996185303</ele>
        <time>2019-04-02T06:59:57.000Z</time>
      </trkpt>
      <trkpt lat="47.25886" lon="-1.55762">
        <ele>9.3999996185303</ele>
        <time>2019-04-02T06:59:58.000Z</time>
      </trkpt>
      <trkpt lat="47.25885" lon="-1.55763">
        <ele>9.3999996185303</ele>
        <time>2019-04-02T06:59:59.000Z</time>
      </trkpt>
      <trkpt lat="47.25883" lon="-1.55764">
        <ele>9.3999996185303</ele>
        <time>2019-04-02T07:00:00.000Z</time>
      </trkpt>
      <trkpt lat="47.25882" lon="-1.55764">
        <ele>9.3999996185303</ele>
        <time>2019-04-02T07:00:01.000Z</time>
      </trkpt>
      <trkpt lat="47.2588" lon="-1.55764">
        <ele>9.3999996185303</ele>
        <time>2019-04-02T07:00:02.000Z</time>
      </trkpt>
      <trkpt lat="47.25879" lon="-1.55763">
        <ele>9.3999996185303</ele>
        <time>2019-04-02T07:00:03.000Z</time>
      </trkpt>
      <trkpt lat="47.25878" lon="-1.55762">
        <ele>9.3999996185303</ele>
        <time>2019-04-02T07:00:04.000Z</time>
      </trkpt>
      <trkpt lat="47.25876" lon="-1.55762">
        <ele>9.3999996185303</ele>
        <time>2019-04-02T07:00:05.000Z</time>
      </trkpt>
      <trkpt lat="47.25875" lon="-1.55761">
        <ele>9.3999996185303</ele>
        <time>2019-04-02T07:00:06.000Z</time>
      </trkpt>
      <trkpt lat="47.25874" lon="-1.5576">
        <ele>9.3999996185303</ele>
        <time>2019-04-02T07:00:07.000Z</time>
      </trkpt>
      <trkpt lat="47.25872" lon="-1.5576">
        <ele>9.3999996185303</ele>
        <time>2019-04-02T07:00:08.000Z</time>
      </trkpt>
      <trkpt lat="47.25871" lon="-1.5576">
        <ele>9.3999996185303</ele>
        <time>2019-04-02T07:00:09.000Z</time>
      </trkpt>
      <trkpt lat="47.2587" lon="-1.5576">
        <ele>9.6000003814697</ele>
        <time>2019-04-02T07:00:10.000Z</time>
      </trkpt>
      <trkpt lat="47.25868" lon="-1.55761">
        <ele>9.6000003814697</ele>
        <time>2019-04-02T07:00:11.000Z</time>
      </trkpt>
      <trkpt lat="47.25867" lon="-1.55761">
        <ele>9.6000003814697</ele>
        <time>2019-04-02T07:00:12.000Z</time>
      </trkpt>
      <trkpt lat="47.25866" lon="-1.55761">
        <ele>9.6000003814697</ele>
        <time>2019-04-02T07:00:13.000Z</time>
      </trkpt>
      <trkpt lat="47.25865" lon="-1.55762">
        <ele>9.6000003814697</ele>
        <time>2019-04-02T07:00:14.000Z</time>
      </trkpt>
      <trkpt lat="47.25863" lon="-1.55762">
        <ele>9.6000003814697</ele>
        <time>2019-04-02T07:00:15.000Z</time>
      </trkpt>
      <trkpt lat="47.25862" lon="-1.55762">
        <ele>9.6000003814697</ele>
        <time>2019-04-02T07:00:16.000Z</time>
      </trkpt>
      <trkpt lat="47.25861" lon="-1.55763">
        <ele>9.6000003814697</ele>
        <time>2019-04-02T07:00:17.000Z</time>
      </trkpt>
      <trkpt lat="47.2586" lon="-1.55764">
        <ele>9.6000003814697</ele>
        <time>2019-04-02T07:00:18.000Z</time>
      </trkpt>
      <trkpt lat="47.25858" lon="-1.55764">
        <ele>9.6000003814697</ele>
        <time>2019-04-02T07:00:19.000Z</time>
      </trkpt>
      <trkpt lat="47.25857" lon="-1.55765">
        <ele>9.6000003814697</ele>
        <time>2019-04-02T07:00:20.000Z</time>
      </trkpt>
      <trkpt lat="47.25855" lon="-1.55766">
        <ele>9.6000003814697</ele>
        <time>2019-04-02T07:00:21.000Z</time>
      </trkpt>
      <trkpt lat="47.25854" lon="-1.55766">
        <ele>9.8000001907349</ele>
        <time>2019-04-02T07:00:22.000Z</time>
      </trkpt>
      <trkpt lat="47.25852" lon="-1.55767">
        <ele>9.8000001907349</ele>
        <time>2019-04-02T07:00:23.000Z</time>
      </trkpt>
      <trkpt lat="47.2585" lon="-1.55768">
        <ele>9.8000001907349</ele>
        <time>2019-04-02T07:00:24.000Z</time>
      </trkpt>
      <trkpt lat="47.25849" lon="-1.55768">
        <ele>9.8000001907349</ele>
        <time>2019-04-02T07:00:25.000Z</time>
      </trkpt>
      <trkpt lat="47.25847" lon="-1.55769">
        <ele>9.8000001907349</ele>
        <time>2019-04-02T07:00:26.000Z</time>
      </trkpt>
      <trkpt lat="47.25846" lon="-1.55769">
        <ele>9.8000001907349</ele>
        <time>2019-04-02T07:00:27.000Z</time>
      </trkpt>
      <trkpt lat="47.25844" lon="-1.5577">
        <ele>9.8000001907349</ele>
        <time>2019-04-02T07:00:28.000Z</time>
      </trkpt>
      <trkpt lat="47.25843" lon="-1.5577">
        <ele>9.8000001907349</ele>
        <time>2019-04-02T07:00:29.000Z</time>
      </trkpt>
      <trkpt lat="47.25842" lon="-1.5577">
        <ele>9.8000001907349</ele>
        <time>2019-04-02T07:00:30.000Z</time>
      </trkpt>
      <trkpt lat="47.2584" lon="-1.5577">
        <ele>9.8000001907349</ele>
        <time>2019-04-02T07:00:31.000Z</time>
      </trkpt>
      <trkpt lat="47.25839" lon="-1.5577">
        <ele>9.8000001907349</ele>
        <time>2019-04-02T07:00:32.000Z</time>
      </trkpt>
      <trkpt lat="47.25838" lon="-1.5577">
        <ele>10</ele>
        <time>2019-04-02T07:00:33.000Z</time>
      </trkpt>
      <trkpt lat="47.25836" lon="-1.5577">
        <ele>10</ele>
        <time>2019-04-02T07:00:34.000Z</time>
      </trkpt>
      <trkpt lat="47.25836" lon="-1.5577">
        <ele>10</ele>
        <time>2019-04-02T07:00:35.000Z</time>
      </trkpt>
      <trkpt lat="47.25835" lon="-1.55769">
        <ele>10</ele>
        <time>2019-04-02T07:00:36.000Z</time>
      </trkpt>
      <trkpt lat="47.25833" lon="-1.55769">
        <ele>10</ele>
        <time>2019-04-02T07:00:37.000Z</time>
      </trkpt>
      <trkpt lat="47.25832" lon="-1.55769">
        <ele>10</ele>
        <time>2019-04-02T07:00:38.000Z</time>
      </trkpt>
      <trkpt lat="47.25831" lon="-1.55769">
        <ele>10</ele>
        <time>2019-04-02T07:00:39.000Z</time>
      </trkpt>
      <trkpt lat="47.25829" lon="-1.55768">
        <ele>10</ele>
        <time>2019-04-02T07:00:40.000Z</time>
      </trkpt>
      <trkpt lat="47.25828" lon="-1.55768">
        <ele>10.199999809265</ele>
        <time>2019-04-02T07:00:41.000Z</time>
      </trkpt>
      <trkpt lat="47.25827" lon="-1.55768">
        <ele>10.199999809265</ele>
        <time>2019-04-02T07:00:42.000Z</time>
      </trkpt>
      <trkpt lat="47.25826" lon="-1.55769">
        <ele>10.39999961853</ele>
        <time>2019-04-02T07:00:43.000Z</time>
      </trkpt>
      <trkpt lat="47.25824" lon="-1.55769">
        <ele>10.39999961853</ele>
        <time>2019-04-02T07:00:44.000Z</time>
      </trkpt>
      <trkpt lat="47.25823" lon="-1.55769">
        <ele>10.60000038147</ele>
        <time>2019-04-02T07:00:45.000Z</time>
      </trkpt>
      <trkpt lat="47.25822" lon="-1.5577">
        <ele>10.800000190735</ele>
        <time>2019-04-02T07:00:46.000Z</time>
      </trkpt>
      <trkpt lat="47.25821" lon="-1.5577">
        <ele>10.800000190735</ele>
        <time>2019-04-02T07:00:47.000Z</time>
      </trkpt>
      <trkpt lat="47.25819" lon="-1.55771">
        <ele>11</ele>
        <time>2019-04-02T07:00:48.000Z</time>
      </trkpt>
      <trkpt lat="47.25818" lon="-1.55771">
        <ele>11.199999809265</ele>
        <time>2019-04-02T07:00:49.000Z</time>
      </trkpt>
      <trkpt lat="47.25816" lon="-1.55772">
        <ele>11.199999809265</ele>
        <time>2019-04-02T07:00:50.000Z</time>
      </trkpt>
      <trkpt lat="47.25813" lon="-1.55773">
        <ele>11.60000038147</ele>
        <time>2019-04-02T07:00:51.000Z</time>
      </trkpt>
      <trkpt lat="47.25813" lon="-1.55773">
        <ele>11.60000038147</ele>
        <time>2019-04-02T07:00:52.000Z</time>
      </trkpt>
      <trkpt lat="47.25811" lon="-1.55773">
        <ele>11.800000190735</ele>
        <time>2019-04-02T07:00:53.000Z</time>
      </trkpt>
      <trkpt lat="47.2581" lon="-1.55773">
        <ele>11.800000190735</ele>
        <time>2019-04-02T07:00:54.000Z</time>
      </trkpt>
      <trkpt lat="47.25809" lon="-1.55773">
        <ele>12</ele>
        <time>2019-04-02T07:00:55.000Z</time>
      </trkpt>
      <trkpt lat="47.25809" lon="-1.55773">
        <ele>12</ele>
        <time>2019-04-02T07:00:56.000Z</time>
      </trkpt>
      <trkpt lat="47.25808" lon="-1.55772">
        <ele>12</ele>
        <time>2019-04-02T07:00:57.000Z</time>
      </trkpt>
      <trkpt lat="47.25807" lon="-1.55771">
        <ele>12.199999809265</ele>
        <time>2019-04-02T07:00:58.000Z</time>
      </trkpt>
      <trkpt lat="47.25806" lon="-1.55771">
        <ele>12.199999809265</ele>
        <time>2019-04-02T07:00:59.000Z</time>
      </trkpt>
      <trkpt lat="47.25805" lon="-1.5577">
        <ele>12.39999961853</ele>
        <time>2019-04-02T07:01:00.000Z</time>
      </trkpt>
      <trkpt lat="47.25804" lon="-1.55769">
        <ele>12.39999961853</ele>
        <time>2019-04-02T07:01:01.000Z</time>
      </trkpt>
      <trkpt lat="47.25803" lon="-1.55769">
        <ele>12.60000038147</ele>
        <time>2019-04-02T07:01:02.000Z</time>
      </trkpt>
      <trkpt lat="47.25802" lon="-1.55768">
        <ele>12.60000038147</ele>
        <time>2019-04-02T07:01:03.000Z</time>
      </trkpt>
      <trkpt lat="47.258" lon="-1.55768">
        <ele>12.800000190735</ele>
        <time>2019-04-02T07:01:04.000Z</time>
      </trkpt>
      <trkpt lat="47.25799" lon="-1.55768">
        <ele>13</ele>
        <time>2019-04-02T07:01:05.000Z</time>
      </trkpt>
      <trkpt lat="47.25798" lon="-1.55767">
        <ele>13</ele>
        <time>2019-04-02T07:01:06.000Z</time>
      </trkpt>
      <trkpt lat="47.25796" lon="-1.55768">
        <ele>13.199999809265</ele>
        <time>2019-04-02T07:01:07.000Z</time>
      </trkpt>
      <trkpt lat="47.25794" lon="-1.55768">
        <ele>13.39999961853</ele>
        <time>2019-04-02T07:01:08.000Z</time>
      </trkpt>
      <trkpt lat="47.25793" lon="-1.55767">
        <ele>13.60000038147</ele>
        <time>2019-04-02T07:01:09.000Z</time>
      </trkpt>
      <trkpt lat="47.25791" lon="-1.55767">
        <ele>13.800000190735</ele>
        <time>2019-04-02T07:01:10.000Z</time>
      </trkpt>
      <trkpt lat="47.2579" lon="-1.55767">
        <ele>13.800000190735</ele>
        <time>2019-04-02T07:01:11.000Z</time>
      </trkpt>
      <trkpt lat="47.25789" lon="-1.55766">
        <ele>14</ele>
        <time>2019-04-02T07:01:12.000Z</time>
      </trkpt>
      <trkpt lat="47.25787" lon="-1.55766">
        <ele>14.199999809265</ele>
        <time>2019-04-02T07:01:13.000Z</time>
      </trkpt>
      <trkpt lat="47.25786" lon="-1.55765">
        <ele>14.39999961853</ele>
        <time>2019-04-02T07:01:14.000Z</time>
      </trkpt>
      <trkpt lat="47.25785" lon="-1.55764">
        <ele>14.39999961853</ele>
        <time>2019-04-02T07:01:15.000Z</time>
      </trkpt>
      <trkpt lat="47.25784" lon="-1.55764">
        <ele>14.60000038147</ele>
        <time>2019-04-02T07:01:16.000Z</time>
      </trkpt>
      <trkpt lat="47.25783" lon="-1.55764">
        <ele>14.60000038147</ele>
        <time>2019-04-02T07:01:17.000Z</time>
      </trkpt>
      <trkpt lat="47.25782" lon="-1.55763">
        <ele>14.800000190735</ele>
        <time>2019-04-02T07:01:18.000Z</time>
      </trkpt>
      <trkpt lat="47.25782" lon="-1.55763">
        <ele>14.800000190735</ele>
        <time>2019-04-02T07:01:19.000Z</time>
      </trkpt>
      <trkpt lat="47.25781" lon="-1.55763">
        <ele>14.800000190735</ele>
        <time>2019-04-02T07:01:20.000Z</time>
      </trkpt>
      <trkpt lat="47.2578" lon="-1.55762">
        <ele>15</ele>
        <time>2019-04-02T07:01:21.000Z</time>
      </trkpt>
      <trkpt lat="47.25779" lon="-1.55761">
        <ele>15.199999809265</ele>
        <time>2019-04-02T07:01:22.000Z</time>
      </trkpt>
      <trkpt lat="47.25778" lon="-1.55761">
        <ele>15.199999809265</ele>
        <time>2019-04-02T07:01:23.000Z</time>
      </trkpt>
      <trkpt lat="47.25777" lon="-1.5576">
        <ele>15.39999961853</ele>
        <time>2019-04-02T07:01:24.000Z</time>
      </trkpt>
      <trkpt lat="47.25776" lon="-1.5576">
        <ele>15.39999961853</ele>
        <time>2019-04-02T07:01:25.000Z</time>
      </trkpt>
      <trkpt lat="47.25775" lon="-1.55759">
        <ele>15.60000038147</ele>
        <time>2019-04-02T07:01:26.000Z</time>
      </trkpt>
      <trkpt lat="47.25774" lon="-1.55758">
        <ele>15.60000038147</ele>
        <time>2019-04-02T07:01:27.000Z</time>
      </trkpt>
      <trkpt lat="47.25774" lon="-1.55758">
        <ele>15.800000190735</ele>
        <time>2019-04-02T07:01:28.000Z</time>
      </trkpt>
      <trkpt lat="47.25773" lon="-1.55757">
        <ele>15.800000190735</ele>
        <time>2019-04-02T07:01:29.000Z</time>
      </trkpt>
      <trkpt lat="47.25773" lon="-1.55757">
        <ele>15.800000190735</ele>
        <time>2019-04-02T07:01:30.000Z</time>
      </trkpt>
      <trkpt lat="47.25773" lon="-1.55757">
        <ele>15.800000190735</ele>
        <time>2019-04-02T07:01:31.000Z</time>
      </trkpt>
      <trkpt lat="47.25769" lon="-1.55713">
        <ele>16.60000038147</ele>
        <time>2019-04-02T07:02:33.000Z</time>
      </trkpt>
      <trkpt lat="47.25767" lon="-1.55713">
        <ele>16.60000038147</ele>
        <time>2019-04-02T07:02:34.000Z</time>
      </trkpt>
      <trkpt lat="47.25766" lon="-1.55713">
        <ele>16.799999237061</ele>
        <time>2019-04-02T07:02:35.000Z</time>
      </trkpt>
      <trkpt lat="47.25765" lon="-1.55712">
        <ele>16.799999237061</ele>
        <time>2019-04-02T07:02:36.000Z</time>
      </trkpt>
      <trkpt lat="47.25764" lon="-1.55711">
        <ele>16.799999237061</ele>
        <time>2019-04-02T07:02:37.000Z</time>
      </trkpt>
      <trkpt lat="47.25763" lon="-1.55709">
        <ele>16.799999237061</ele>
        <time>2019-04-02T07:02:38.000Z</time>
      </trkpt>
      <trkpt lat="47.25762" lon="-1.55708">
        <ele>16.799999237061</ele>
        <time>2019-04-02T07:02:39.000Z</time>
      </trkpt>
      <trkpt lat="47.25762" lon="-1.55707">
        <ele>16.799999237061</ele>
        <time>2019-04-02T07:02:40.000Z</time>
      </trkpt>
      <trkpt lat="47.25761" lon="-1.55705">
        <ele>16.799999237061</ele>
        <time>2019-04-02T07:02:41.000Z</time>
      </trkpt>
      <trkpt lat="47.2576" lon="-1.55704">
        <ele>16.799999237061</ele>
        <time>2019-04-02T07:02:42.000Z</time>
      </trkpt>
      <trkpt lat="47.25759" lon="-1.55703">
        <ele>16.799999237061</ele>
        <time>2019-04-02T07:02:43.000Z</time>
      </trkpt>
      <trkpt lat="47.25759" lon="-1.55702">
        <ele>16.60000038147</ele>
        <time>2019-04-02T07:02:44.000Z</time>
      </trkpt>
      <trkpt lat="47.25758" lon="-1.55701">
        <ele>16.60000038147</ele>
        <time>2019-04-02T07:02:45.000Z</time>
      </trkpt>
      <trkpt lat="47.25758" lon="-1.557">
        <ele>16.60000038147</ele>
        <time>2019-04-02T07:02:46.000Z</time>
      </trkpt>
      <trkpt lat="47.25758" lon="-1.55699">
        <ele>16.60000038147</ele>
        <time>2019-04-02T07:02:47.000Z</time>
      </trkpt>
      <trkpt lat="47.25758" lon="-1.55698">
        <ele>16.60000038147</ele>
        <time>2019-04-02T07:02:48.000Z</time>
      </trkpt>
      <trkpt lat="47.25758" lon="-1.55697">
        <ele>16.60000038147</ele>
        <time>2019-04-02T07:02:49.000Z</time>
      </trkpt>
      <trkpt lat="47.25758" lon="-1.55697">
        <ele>16.39999961853</ele>
        <time>2019-04-02T07:02:50.000Z</time>
      </trkpt>
      <trkpt lat="47.25762" lon="-1.55684">
        <ele>15.60000038147</ele>
        <time>2019-04-02T07:03:03.000Z</time>
      </trkpt>
      <trkpt lat="47.25762" lon="-1.55682">
        <ele>15.39999961853</ele>
        <time>2019-04-02T07:03:04.000Z</time>
      </trkpt>
      <trkpt lat="47.25763" lon="-1.5568">
        <ele>15.39999961853</ele>
        <time>2019-04-02T07:03:05.000Z</time>
      </trkpt>
      <trkpt lat="47.25763" lon="-1.55678">
        <ele>15.199999809265</ele>
        <time>2019-04-02T07:03:06.000Z</time>
      </trkpt>
      <trkpt lat="47.25764" lon="-1.55676">
        <ele>15.199999809265</ele>
        <time>2019-04-02T07:03:07.000Z</time>
      </trkpt>
      <trkpt lat="47.25764" lon="-1.55674">
        <ele>15</ele>
        <time>2019-04-02T07:03:08.000Z</time>
      </trkpt>
      <trkpt lat="47.25765" lon="-1.55672">
        <ele>14.800000190735</ele>
        <time>2019-04-02T07:03:09.000Z</time>
      </trkpt>
      <trkpt lat="47.25766" lon="-1.5567">
        <ele>14.800000190735</ele>
        <time>2019-04-02T07:03:10.000Z</time>
      </trkpt>
      <trkpt lat="47.25766" lon="-1.55668">
        <ele>14.60000038147</ele>
        <time>2019-04-02T07:03:11.000Z</time>
      </trkpt>
      <trkpt lat="47.25767" lon="-1.55667">
        <ele>14.60000038147</ele>
        <time>2019-04-02T07:03:12.000Z</time>
      </trkpt>
      <trkpt lat="47.25767" lon="-1.55665">
        <ele>14.39999961853</ele>
        <time>2019-04-02T07:03:13.000Z</time>
      </trkpt>
      <trkpt lat="47.25767" lon="-1.55663">
        <ele>14.39999961853</ele>
        <time>2019-04-02T07:03:14.000Z</time>
      </trkpt>
      <trkpt lat="47.25767" lon="-1.55661">
        <ele>14.199999809265</ele>
        <time>2019-04-02T07:03:15.000Z</time>
      </trkpt>
      <trkpt lat="47.25768" lon="-1.55659">
        <ele>14</ele>
        <time>2019-04-02T07:03:16.000Z</time>
      </trkpt>
      <trkpt lat="47.25768" lon="-1.55657">
        <ele>14</ele>
        <time>2019-04-02T07:03:17.000Z</time>
      </trkpt>
      <trkpt lat="47.25768" lon="-1.55655">
        <ele>14</ele>
        <time>2019-04-02T07:03:18.000Z</time>
      </trkpt>
      <trkpt lat="47.25768" lon="-1.55654">
        <ele>13.800000190735</ele>
        <time>2019-04-02T07:03:19.000Z</time>
      </trkpt>
      <trkpt lat="47.25768" lon="-1.55652">
        <ele>13.800000190735</ele>
        <time>2019-04-02T07:03:20.000Z</time>
      </trkpt>
      <trkpt lat="47.25769" lon="-1.5565">
        <ele>13.60000038147</ele>
        <time>2019-04-02T07:03:21.000Z</time>
      </trkpt>
      <trkpt lat="47.25769" lon="-1.55648">
        <ele>13.60000038147</ele>
        <time>2019-04-02T07:03:22.000Z</time>
      </trkpt>
      <trkpt lat="47.25769" lon="-1.55646">
        <ele>13.39999961853</ele>
        <time>2019-04-02T07:03:23.000Z</time>
      </trkpt>
      <trkpt lat="47.25769" lon="-1.55645">
        <ele>13.39999961853</ele>
        <time>2019-04-02T07:03:24.000Z</time>
      </trkpt>
      <trkpt lat="47.25769" lon="-1.55643">
        <ele>13.199999809265</ele>
        <time>2019-04-02T07:03:25.000Z</time>
      </trkpt>
      <trkpt lat="47.25768" lon="-1.55642">
        <ele>13.199999809265</ele>
        <time>2019-04-02T07:03:26.000Z</time>
      </trkpt>
      <trkpt lat="47.25768" lon="-1.5564">
        <ele>13.199999809265</ele>
        <time>2019-04-02T07:03:27.000Z</time>
      </trkpt>
      <trkpt lat="47.25768" lon="-1.55638">
        <ele>13</ele>
        <time>2019-04-02T07:03:28.000Z</time>
      </trkpt>
      <trkpt lat="47.25768" lon="-1.55636">
        <ele>13</ele>
        <time>2019-04-02T07:03:29.000Z</time>
      </trkpt>
      <trkpt lat="47.25768" lon="-1.55634">
        <ele>12.800000190735</ele>
        <time>2019-04-02T07:03:30.000Z</time>
      </trkpt>
      <trkpt lat="47.25767" lon="-1.55632">
        <ele>12.800000190735</ele>
        <time>2019-04-02T07:03:31.000Z</time>
      </trkpt>
      <trkpt lat="47.25767" lon="-1.55629">
        <ele>12.60000038147</ele>
        <time>2019-04-02T07:03:32.000Z</time>
      </trkpt>
      <trkpt lat="47.25767" lon="-1.55627">
        <ele>12.60000038147</ele>
        <time>2019-04-02T07:03:33.000Z</time>
      </trkpt>
      <trkpt lat="47.25767" lon="-1.55625">
        <ele>12.39999961853</ele>
        <time>2019-04-02T07:03:34.000Z</time>
      </trkpt>
      <trkpt lat="47.25767" lon="-1.55623">
        <ele>12.199999809265</ele>
        <time>2019-04-02T07:03:35.000Z</time>
      </trkpt>
      <trkpt lat="47.25766" lon="-1.55621">
        <ele>12.199999809265</ele>
        <time>2019-04-02T07:03:36.000Z</time>
      </trkpt>
      <trkpt lat="47.25765" lon="-1.55619">
        <ele>12</ele>
        <time>2019-04-02T07:03:37.000Z</time>
      </trkpt>
      <trkpt lat="47.25765" lon="-1.55618">
        <ele>12</ele>
        <time>2019-04-02T07:03:38.000Z</time>
      </trkpt>
      <trkpt lat="47.25763" lon="-1.55614">
        <ele>11.800000190735</ele>
        <time>2019-04-02T07:03:39.000Z</time>
      </trkpt>
      <trkpt lat="47.25763" lon="-1.55614">
        <ele>11.800000190735</ele>
        <time>2019-04-02T07:03:40.000Z</time>
      </trkpt>
      <trkpt lat="47.25763" lon="-1.55613">
        <ele>11.60000038147</ele>
        <time>2019-04-02T07:03:41.000Z</time>
      </trkpt>
      <trkpt lat="47.25763" lon="-1.55611">
        <ele>11.60000038147</ele>
        <time>2019-04-02T07:03:42.000Z</time>
      </trkpt>
      <trkpt lat="47.25762" lon="-1.55609">
        <ele>11.39999961853</ele>
        <time>2019-04-02T07:03:43.000Z</time>
      </trkpt>
      <trkpt lat="47.25762" lon="-1.55606">
        <ele>11.199999809265</ele>
        <time>2019-04-02T07:03:44.000Z</time>
      </trkpt>
      <trkpt lat="47.25762" lon="-1.55604">
        <ele>11</ele>
        <time>2019-04-02T07:03:45.000Z</time>
      </trkpt>
      <trkpt lat="47.25762" lon="-1.55601">
        <ele>10.800000190735</ele>
        <time>2019-04-02T07:03:46.000Z</time>
      </trkpt>
      <trkpt lat="47.25762" lon="-1.55599">
        <ele>10.60000038147</ele>
        <time>2019-04-02T07:03:47.000Z</time>
      </trkpt>
      <trkpt lat="47.25762" lon="-1.55594">
        <ele>10.39999961853</ele>
        <time>2019-04-02T07:03:48.000Z</time>
      </trkpt>
      <trkpt lat="47.25762" lon="-1.55594">
        <ele>10.39999961853</ele>
        <time>2019-04-02T07:03:49.000Z</time>
      </trkpt>
      <trkpt lat="47.25762" lon="-1.55592">
        <ele>10.199999809265</ele>
        <time>2019-04-02T07:03:50.000Z</time>
      </trkpt>
      <trkpt lat="47.25762" lon="-1.5559">
        <ele>10</ele>
        <time>2019-04-02T07:03:51.000Z</time>
      </trkpt>
      <trkpt lat="47.25763" lon="-1.55587">
        <ele>9.8000001907349</ele>
        <time>2019-04-02T07:03:52.000Z</time>
      </trkpt>
      <trkpt lat="47.25763" lon="-1.55585">
        <ele>9.6000003814697</ele>
        <time>2019-04-02T07:03:53.000Z</time>
      </trkpt>
      <trkpt lat="47.25763" lon="-1.55583">
        <ele>9.6000003814697</ele>
        <time>2019-04-02T07:03:54.000Z</time>
      </trkpt>
      <trkpt lat="47.25763" lon="-1.55581">
        <ele>9.3999996185303</ele>
        <time>2019-04-02T07:03:55.000Z</time>
      </trkpt>
      <trkpt lat="47.25763" lon="-1.55579">
        <ele>9.1999998092651</ele>
        <time>2019-04-02T07:03:56.000Z</time>
      </trkpt>
      <trkpt lat="47.25763" lon="-1.55577">
        <ele>9.1999998092651</ele>
        <time>2019-04-02T07:03:57.000Z</time>
      </trkpt>
      <trkpt lat="47.25762" lon="-1.55575">
        <ele>9</ele>
        <time>2019-04-02T07:03:58.000Z</time>
      </trkpt>
      <trkpt lat="47.25762" lon="-1.55573">
        <ele>8.8000001907349</ele>
        <time>2019-04-02T07:03:59.000Z</time>
      </trkpt>
      <trkpt lat="47.25761" lon="-1.55571">
        <ele>8.8000001907349</ele>
        <time>2019-04-02T07:04:00.000Z</time>
      </trkpt>
      <trkpt lat="47.25761" lon="-1.55569">
        <ele>8.6000003814697</ele>
        <time>2019-04-02T07:04:01.000Z</time>
      </trkpt>
      <trkpt lat="47.2576" lon="-1.55567">
        <ele>8.3999996185303</ele>
        <time>2019-04-02T07:04:02.000Z</time>
      </trkpt>
      <trkpt lat="47.2576" lon="-1.55565">
        <ele>8.3999996185303</ele>
        <time>2019-04-02T07:04:03.000Z</time>
      </trkpt>
      <trkpt lat="47.25759" lon="-1.55564">
        <ele>8.3999996185303</ele>
        <time>2019-04-02T07:04:04.000Z</time>
      </trkpt>
      <trkpt lat="47.25759" lon="-1.55562">
        <ele>8.3999996185303</ele>
        <time>2019-04-02T07:04:05.000Z</time>
      </trkpt>
      <trkpt lat="47.25759" lon="-1.55559">
        <ele>8.1999998092651</ele>
        <time>2019-04-02T07:04:06.000Z</time>
      </trkpt>
      <trkpt lat="47.25758" lon="-1.55557">
        <ele>8.1999998092651</ele>
        <time>2019-04-02T07:04:07.000Z</time>
      </trkpt>
      <trkpt lat="47.25757" lon="-1.55556">
        <ele>8.1999998092651</ele>
        <time>2019-04-02T07:04:08.000Z</time>
      </trkpt>
      <trkpt lat="47.25757" lon="-1.55554">
        <ele>8</ele>
        <time>2019-04-02T07:04:09.000Z</time>
      </trkpt>
      <trkpt lat="47.25756" lon="-1.55552">
        <ele>8</ele>
        <time>2019-04-02T07:04:10.000Z</time>
      </trkpt>
      <trkpt lat="47.25755" lon="-1.5555">
        <ele>8</ele>
        <time>2019-04-02T07:04:11.000Z</time>
      </trkpt>
      <trkpt lat="47.25755" lon="-1.55548">
        <ele>7.8000001907349</ele>
        <time>2019-04-02T07:04:12.000Z</time>
      </trkpt>
      <trkpt lat="47.25754" lon="-1.55547">
        <ele>7.8000001907349</ele>
        <time>2019-04-02T07:04:13.000Z</time>
      </trkpt>
      <trkpt lat="47.25753" lon="-1.55545">
        <ele>7.8000001907349</ele>
        <time>2019-04-02T07:04:14.000Z</time>
      </trkpt>
      <trkpt lat="47.25753" lon="-1.55543">
        <ele>7.5999999046326</ele>
        <time>2019-04-02T07:04:15.000Z</time>
      </trkpt>
      <trkpt lat="47.25752" lon="-1.55541">
        <ele>7.5999999046326</ele>
        <time>2019-04-02T07:04:16.000Z</time>
      </trkpt>
      <trkpt lat="47.25751" lon="-1.55539">
        <ele>7.5999999046326</ele>
        <time>2019-04-02T07:04:17.000Z</time>
      </trkpt>
      <trkpt lat="47.2575" lon="-1.55538">
        <ele>7.4000000953674</ele>
        <time>2019-04-02T07:04:18.000Z</time>
      </trkpt>
      <trkpt lat="47.25749" lon="-1.55536">
        <ele>7.4000000953674</ele>
        <time>2019-04-02T07:04:19.000Z</time>
      </trkpt>
      <trkpt lat="47.25748" lon="-1.55534">
        <ele>7.4000000953674</ele>
        <time>2019-04-02T07:04:20.000Z</time>
      </trkpt>
      <trkpt lat="47.25747" lon="-1.55532">
        <ele>7.1999998092651</ele>
        <time>2019-04-02T07:04:21.000Z</time>
      </trkpt>
      <trkpt lat="47.25746" lon="-1.55531">
        <ele>7.1999998092651</ele>
        <time>2019-04-02T07:04:22.000Z</time>
      </trkpt>
      <trkpt lat="47.25745" lon="-1.55529">
        <ele>7.1999998092651</ele>
        <time>2019-04-02T07:04:23.000Z</time>
      </trkpt>
      <trkpt lat="47.25745" lon="-1.55528">
        <ele>7.1999998092651</ele>
        <time>2019-04-02T07:04:24.000Z</time>
      </trkpt>
      <trkpt lat="47.25744" lon="-1.55526">
        <ele>7.1999998092651</ele>
        <time>2019-04-02T07:04:25.000Z</time>
      </trkpt>
      <trkpt lat="47.25743" lon="-1.55524">
        <ele>7.1999998092651</ele>
        <time>2019-04-02T07:04:26.000Z</time>
      </trkpt>
      <trkpt lat="47.25742" lon="-1.55522">
        <ele>7.1999998092651</ele>
        <time>2019-04-02T07:04:27.000Z</time>
      </trkpt>
      <trkpt lat="47.25742" lon="-1.55521">
        <ele>7.1999998092651</ele>
        <time>2019-04-02T07:04:28.000Z</time>
      </trkpt>
      <trkpt lat="47.25741" lon="-1.55519">
        <ele>7.1999998092651</ele>
        <time>2019-04-02T07:04:29.000Z</time>
      </trkpt>
      <trkpt lat="47.2574" lon="-1.55518">
        <ele>7.1999998092651</ele>
        <time>2019-04-02T07:04:30.000Z</time>
      </trkpt>
      <trkpt lat="47.25739" lon="-1.55516">
        <ele>7.1999998092651</ele>
        <time>2019-04-02T07:04:31.000Z</time>
      </trkpt>
      <trkpt lat="47.25738" lon="-1.55515">
        <ele>7.1999998092651</ele>
        <time>2019-04-02T07:04:32.000Z</time>
      </trkpt>
      <trkpt lat="47.25738" lon="-1.55513">
        <ele>7.1999998092651</ele>
        <time>2019-04-02T07:04:33.000Z</time>
      </trkpt>
      <trkpt lat="47.25737" lon="-1.55512">
        <ele>7.1999998092651</ele>
        <time>2019-04-02T07:04:34.000Z</time>
      </trkpt>
      <trkpt lat="47.25736" lon="-1.5551">
        <ele>7.1999998092651</ele>
        <time>2019-04-02T07:04:35.000Z</time>
      </trkpt>
      <trkpt lat="47.25735" lon="-1.55508">
        <ele>7.1999998092651</ele>
        <time>2019-04-02T07:04:36.000Z</time>
      </trkpt>
      <trkpt lat="47.25734" lon="-1.55506">
        <ele>7.1999998092651</ele>
        <time>2019-04-02T07:04:37.000Z</time>
      </trkpt>
      <trkpt lat="47.25734" lon="-1.55505">
        <ele>7.1999998092651</ele>
        <time>2019-04-02T07:04:38.000Z</time>
      </trkpt>
      <trkpt lat="47.25733" lon="-1.55503">
        <ele>7.1999998092651</ele>
        <time>2019-04-02T07:04:39.000Z</time>
      </trkpt>
      <trkpt lat="47.25732" lon="-1.55501">
        <ele>7.1999998092651</ele>
        <time>2019-04-02T07:04:40.000Z</time>
      </trkpt>
      <trkpt lat="47.25731" lon="-1.555">
        <ele>7.1999998092651</ele>
        <time>2019-04-02T07:04:41.000Z</time>
      </trkpt>
      <trkpt lat="47.2573" lon="-1.55498">
        <ele>7.1999998092651</ele>
        <time>2019-04-02T07:04:42.000Z</time>
      </trkpt>
      <trkpt lat="47.25729" lon="-1.55496">
        <ele>7.1999998092651</ele>
        <time>2019-04-02T07:04:43.000Z</time>
      </trkpt>
      <trkpt lat="47.25728" lon="-1.55494">
        <ele>7.1999998092651</ele>
        <time>2019-04-02T07:04:44.000Z</time>
      </trkpt>
      <trkpt lat="47.25727" lon="-1.55492">
        <ele>7.1999998092651</ele>
        <time>2019-04-02T07:04:45.000Z</time>
      </trkpt>
      <trkpt lat="47.25726" lon="-1.5549">
        <ele>7.1999998092651</ele>
        <time>2019-04-02T07:04:46.000Z</time>
      </trkpt>
      <trkpt lat="47.25726" lon="-1.55488">
        <ele>7.1999998092651</ele>
        <time>2019-04-02T07:04:47.000Z</time>
      </trkpt>
      <trkpt lat="47.25725" lon="-1.55486">
        <ele>7.1999998092651</ele>
        <time>2019-04-02T07:04:48.000Z</time>
      </trkpt>
      <trkpt lat="47.25724" lon="-1.55485">
        <ele>7.1999998092651</ele>
        <time>2019-04-02T07:04:49.000Z</time>
      </trkpt>
      <trkpt lat="47.25723" lon="-1.55483">
        <ele>7.1999998092651</ele>
        <time>2019-04-02T07:04:50.000Z</time>
      </trkpt>
      <trkpt lat="47.25722" lon="-1.55481">
        <ele>7.4000000953674</ele>
        <time>2019-04-02T07:04:51.000Z</time>
      </trkpt>
      <trkpt lat="47.25721" lon="-1.55479">
        <ele>7.4000000953674</ele>
        <time>2019-04-02T07:04:52.000Z</time>
      </trkpt>
      <trkpt lat="47.25721" lon="-1.55477">
        <ele>7.5999999046326</ele>
        <time>2019-04-02T07:04:53.000Z</time>
      </trkpt>
      <trkpt lat="47.25719" lon="-1.55475">
        <ele>7.8000001907349</ele>
        <time>2019-04-02T07:04:54.000Z</time>
      </trkpt>
      <trkpt lat="47.25718" lon="-1.55473">
        <ele>8</ele>
        <time>2019-04-02T07:04:55.000Z</time>
      </trkpt>
      <trkpt lat="47.25717" lon="-1.55471">
        <ele>8</ele>
        <time>2019-04-02T07:04:56.000Z</time>
      </trkpt>
      <trkpt lat="47.25717" lon="-1.55469">
        <ele>8.1999998092651</ele>
        <time>2019-04-02T07:04:57.000Z</time>
      </trkpt>
      <trkpt lat="47.25716" lon="-1.55467">
        <ele>8.1999998092651</ele>
        <time>2019-04-02T07:04:58.000Z</time>
      </trkpt>
      <trkpt lat="47.25715" lon="-1.55465">
        <ele>8.3999996185303</ele>
        <time>2019-04-02T07:04:59.000Z</time>
      </trkpt>
      <trkpt lat="47.25714" lon="-1.55462">
        <ele>8.6000003814697</ele>
        <time>2019-04-02T07:05:00.000Z</time>
      </trkpt>
      <trkpt lat="47.25712" lon="-1.55458">
        <ele>8.8000001907349</ele>
        <time>2019-04-02T07:05:01.000Z</time>
      </trkpt>
      <trkpt lat="47.25712" lon="-1.55458">
        <ele>8.8000001907349</ele>
        <time>2019-04-02T07:05:02.000Z</time>
      </trkpt>
      <trkpt lat="47.25712" lon="-1.55456">
        <ele>9</ele>
        <time>2019-04-02T07:05:03.000Z</time>
      </trkpt>
      <trkpt lat="47.25711" lon="-1.55453">
        <ele>9.1999998092651</ele>
        <time>2019-04-02T07:05:04.000Z</time>
      </trkpt>
      <trkpt lat="47.2571" lon="-1.55451">
        <ele>9.1999998092651</ele>
        <time>2019-04-02T07:05:05.000Z</time>
      </trkpt>
      <trkpt lat="47.25709" lon="-1.55449">
        <ele>9.3999996185303</ele>
        <time>2019-04-02T07:05:06.000Z</time>
      </trkpt>
      <trkpt lat="47.25708" lon="-1.55447">
        <ele>9.6000003814697</ele>
        <time>2019-04-02T07:05:07.000Z</time>
      </trkpt>
      <trkpt lat="47.25707" lon="-1.55445">
        <ele>9.6000003814697</ele>
        <time>2019-04-02T07:05:08.000Z</time>
      </trkpt>
      <trkpt lat="47.25706" lon="-1.55443">
        <ele>9.8000001907349</ele>
        <time>2019-04-02T07:05:09.000Z</time>
      </trkpt>
      <trkpt lat="47.25706" lon="-1.55441">
        <ele>9.8000001907349</ele>
        <time>2019-04-02T07:05:10.000Z</time>
      </trkpt>
      <trkpt lat="47.25705" lon="-1.55439">
        <ele>9.8000001907349</ele>
        <time>2019-04-02T07:05:11.000Z</time>
      </trkpt>
      <trkpt lat="47.25704" lon="-1.55437">
        <ele>9.8000001907349</ele>
        <time>2019-04-02T07:05:12.000Z</time>
      </trkpt>
      <trkpt lat="47.25704" lon="-1.55436">
        <ele>9.8000001907349</ele>
        <time>2019-04-02T07:05:13.000Z</time>
      </trkpt>
      <trkpt lat="47.25703" lon="-1.55434">
        <ele>9.8000001907349</ele>
        <time>2019-04-02T07:05:14.000Z</time>
      </trkpt>
      <trkpt lat="47.25702" lon="-1.55432">
        <ele>9.8000001907349</ele>
        <time>2019-04-02T07:05:15.000Z</time>
      </trkpt>
      <trkpt lat="47.25701" lon="-1.55429">
        <ele>9.8000001907349</ele>
        <time>2019-04-02T07:05:16.000Z</time>
      </trkpt>
      <trkpt lat="47.257" lon="-1.55427">
        <ele>9.8000001907349</ele>
        <time>2019-04-02T07:05:17.000Z</time>
      </trkpt>
      <trkpt lat="47.25699" lon="-1.55425">
        <ele>9.8000001907349</ele>
        <time>2019-04-02T07:05:18.000Z</time>
      </trkpt>
      <trkpt lat="47.25698" lon="-1.55422">
        <ele>9.8000001907349</ele>
        <time>2019-04-02T07:05:19.000Z</time>
      </trkpt>
      <trkpt lat="47.25697" lon="-1.5542">
        <ele>9.8000001907349</ele>
        <time>2019-04-02T07:05:20.000Z</time>
      </trkpt>
      <trkpt lat="47.25696" lon="-1.55417">
        <ele>9.8000001907349</ele>
        <time>2019-04-02T07:05:21.000Z</time>
      </trkpt>
      <trkpt lat="47.25694" lon="-1.55415">
        <ele>9.8000001907349</ele>
        <time>2019-04-02T07:05:22.000Z</time>
      </trkpt>
      <trkpt lat="47.25693" lon="-1.55413">
        <ele>9.8000001907349</ele>
        <time>2019-04-02T07:05:23.000Z</time>
      </trkpt>
      <trkpt lat="47.25693" lon="-1.55411">
        <ele>9.8000001907349</ele>
        <time>2019-04-02T07:05:24.000Z</time>
      </trkpt>
      <trkpt lat="47.25692" lon="-1.55409">
        <ele>9.8000001907349</ele>
        <time>2019-04-02T07:05:25.000Z</time>
      </trkpt>
      <trkpt lat="47.25691" lon="-1.55407">
        <ele>9.8000001907349</ele>
        <time>2019-04-02T07:05:26.000Z</time>
      </trkpt>
      <trkpt lat="47.2569" lon="-1.55405">
        <ele>9.8000001907349</ele>
        <time>2019-04-02T07:05:27.000Z</time>
      </trkpt>
      <trkpt lat="47.25689" lon="-1.55404">
        <ele>9.8000001907349</ele>
        <time>2019-04-02T07:05:28.000Z</time>
      </trkpt>
      <trkpt lat="47.25688" lon="-1.55402">
        <ele>9.8000001907349</ele>
        <time>2019-04-02T07:05:29.000Z</time>
      </trkpt>
      <trkpt lat="47.25687" lon="-1.554">
        <ele>9.8000001907349</ele>
        <time>2019-04-02T07:05:30.000Z</time>
      </trkpt>
      <trkpt lat="47.25686" lon="-1.55399">
        <ele>9.8000001907349</ele>
        <time>2019-04-02T07:05:31.000Z</time>
      </trkpt>
      <trkpt lat="47.25685" lon="-1.55397">
        <ele>10</ele>
        <time>2019-04-02T07:05:32.000Z</time>
      </trkpt>
      <trkpt lat="47.25684" lon="-1.55396">
        <ele>10</ele>
        <time>2019-04-02T07:05:33.000Z</time>
      </trkpt>
      <trkpt lat="47.25683" lon="-1.55394">
        <ele>10</ele>
        <time>2019-04-02T07:05:34.000Z</time>
      </trkpt>
      <trkpt lat="47.25681" lon="-1.55393">
        <ele>10</ele>
        <time>2019-04-02T07:05:35.000Z</time>
      </trkpt>
      <trkpt lat="47.2568" lon="-1.55391">
        <ele>10.199999809265</ele>
        <time>2019-04-02T07:05:36.000Z</time>
      </trkpt>
      <trkpt lat="47.25678" lon="-1.55387">
        <ele>10.199999809265</ele>
        <time>2019-04-02T07:05:37.000Z</time>
      </trkpt>
      <trkpt lat="47.25678" lon="-1.55387">
        <ele>10.199999809265</ele>
        <time>2019-04-02T07:05:38.000Z</time>
      </trkpt>
      <trkpt lat="47.25677" lon="-1.55385">
        <ele>10.39999961853</ele>
        <time>2019-04-02T07:05:39.000Z</time>
      </trkpt>
      <trkpt lat="47.25676" lon="-1.55384">
        <ele>10.39999961853</ele>
        <time>2019-04-02T07:05:40.000Z</time>
      </trkpt>
      <trkpt lat="47.25675" lon="-1.55382">
        <ele>10.39999961853</ele>
        <time>2019-04-02T07:05:41.000Z</time>
      </trkpt>
      <trkpt lat="47.25674" lon="-1.5538">
        <ele>10.60000038147</ele>
        <time>2019-04-02T07:05:42.000Z</time>
      </trkpt>
      <trkpt lat="47.25673" lon="-1.55378">
        <ele>10.60000038147</ele>
        <time>2019-04-02T07:05:43.000Z</time>
      </trkpt>
      <trkpt lat="47.25672" lon="-1.55376">
        <ele>10.800000190735</ele>
        <time>2019-04-02T07:05:44.000Z</time>
      </trkpt>
      <trkpt lat="47.25671" lon="-1.55374">
        <ele>10.800000190735</ele>
        <time>2019-04-02T07:05:45.000Z</time>
      </trkpt>
      <trkpt lat="47.2567" lon="-1.55373">
        <ele>11</ele>
        <time>2019-04-02T07:05:46.000Z</time>
      </trkpt>
      <trkpt lat="47.25669" lon="-1.55371">
        <ele>11</ele>
        <time>2019-04-02T07:05:47.000Z</time>
      </trkpt>
      <trkpt lat="47.25668" lon="-1.5537">
        <ele>11</ele>
        <time>2019-04-02T07:05:48.000Z</time>
      </trkpt>
      <trkpt lat="47.25667" lon="-1.55369">
        <ele>11.199999809265</ele>
        <time>2019-04-02T07:05:49.000Z</time>
      </trkpt>
      <trkpt lat="47.25667" lon="-1.55367">
        <ele>11.199999809265</ele>
        <time>2019-04-02T07:05:50.000Z</time>
      </trkpt>
      <trkpt lat="47.25665" lon="-1.55364">
        <ele>11.39999961853</ele>
        <time>2019-04-02T07:05:51.000Z</time>
      </trkpt>
      <trkpt lat="47.25665" lon="-1.55364">
        <ele>11.39999961853</ele>
        <time>2019-04-02T07:05:52.000Z</time>
      </trkpt>
      <trkpt lat="47.25664" lon="-1.55363">
        <ele>11.39999961853</ele>
        <time>2019-04-02T07:05:53.000Z</time>
      </trkpt>
      <trkpt lat="47.25663" lon="-1.55361">
        <ele>11.39999961853</ele>
        <time>2019-04-02T07:05:54.000Z</time>
      </trkpt>
      <trkpt lat="47.25662" lon="-1.5536">
        <ele>11.60000038147</ele>
        <time>2019-04-02T07:05:55.000Z</time>
      </trkpt>
      <trkpt lat="47.25661" lon="-1.55358">
        <ele>11.60000038147</ele>
        <time>2019-04-02T07:05:56.000Z</time>
      </trkpt>
      <trkpt lat="47.2566" lon="-1.55357">
        <ele>11.800000190735</ele>
        <time>2019-04-02T07:05:57.000Z</time>
      </trkpt>
      <trkpt lat="47.2566" lon="-1.55355">
        <ele>12</ele>
        <time>2019-04-02T07:05:58.000Z</time>
      </trkpt>
      <trkpt lat="47.25659" lon="-1.55354">
        <ele>12</ele>
        <time>2019-04-02T07:05:59.000Z</time>
      </trkpt>
      <trkpt lat="47.25658" lon="-1.55352">
        <ele>12.199999809265</ele>
        <time>2019-04-02T07:06:00.000Z</time>
      </trkpt>
      <trkpt lat="47.25656" lon="-1.55348">
        <ele>12.60000038147</ele>
        <time>2019-04-02T07:06:01.000Z</time>
      </trkpt>
      <trkpt lat="47.25656" lon="-1.55348">
        <ele>12.60000038147</ele>
        <time>2019-04-02T07:06:02.000Z</time>
      </trkpt>
      <trkpt lat="47.25655" lon="-1.55347">
        <ele>12.60000038147</ele>
        <time>2019-04-02T07:06:03.000Z</time>
      </trkpt>
      <trkpt lat="47.25654" lon="-1.55345">
        <ele>12.800000190735</ele>
        <time>2019-04-02T07:06:04.000Z</time>
      </trkpt>
      <trkpt lat="47.25653" lon="-1.55343">
        <ele>13</ele>
        <time>2019-04-02T07:06:05.000Z</time>
      </trkpt>
      <trkpt lat="47.25652" lon="-1.55341">
        <ele>13.199999809265</ele>
        <time>2019-04-02T07:06:06.000Z</time>
      </trkpt>
      <trkpt lat="47.25651" lon="-1.55339">
        <ele>13.199999809265</ele>
        <time>2019-04-02T07:06:07.000Z</time>
      </trkpt>
      <trkpt lat="47.2565" lon="-1.55337">
        <ele>13.39999961853</ele>
        <time>2019-04-02T07:06:08.000Z</time>
      </trkpt>
      <trkpt lat="47.25649" lon="-1.55335">
        <ele>13.60000038147</ele>
        <time>2019-04-02T07:06:09.000Z</time>
      </trkpt>
      <trkpt lat="47.25648" lon="-1.55333">
        <ele>13.60000038147</ele>
        <time>2019-04-02T07:06:10.000Z</time>
      </trkpt>
      <trkpt lat="47.25647" lon="-1.55331">
        <ele>13.800000190735</ele>
        <time>2019-04-02T07:06:11.000Z</time>
      </trkpt>
      <trkpt lat="47.25646" lon="-1.55329">
        <ele>13.800000190735</ele>
        <time>2019-04-02T07:06:12.000Z</time>
      </trkpt>
      <trkpt lat="47.25645" lon="-1.55327">
        <ele>13.800000190735</ele>
        <time>2019-04-02T07:06:13.000Z</time>
      </trkpt>
      <trkpt lat="47.25644" lon="-1.55325">
        <ele>13.800000190735</ele>
        <time>2019-04-02T07:06:14.000Z</time>
      </trkpt>
      <trkpt lat="47.25643" lon="-1.55323">
        <ele>13.800000190735</ele>
        <time>2019-04-02T07:06:15.000Z</time>
      </trkpt>
      <trkpt lat="47.25642" lon="-1.55322">
        <ele>14</ele>
        <time>2019-04-02T07:06:16.000Z</time>
      </trkpt>
      <trkpt lat="47.25641" lon="-1.5532">
        <ele>14</ele>
        <time>2019-04-02T07:06:17.000Z</time>
      </trkpt>
      <trkpt lat="47.2564" lon="-1.55318">
        <ele>14</ele>
        <time>2019-04-02T07:06:18.000Z</time>
      </trkpt>
      <trkpt lat="47.25639" lon="-1.55316">
        <ele>14</ele>
        <time>2019-04-02T07:06:19.000Z</time>
      </trkpt>
      <trkpt lat="47.25638" lon="-1.55314">
        <ele>14</ele>
        <time>2019-04-02T07:06:20.000Z</time>
      </trkpt>
      <trkpt lat="47.25637" lon="-1.55312">
        <ele>13.800000190735</ele>
        <time>2019-04-02T07:06:21.000Z</time>
      </trkpt>
      <trkpt lat="47.25636" lon="-1.5531">
        <ele>13.800000190735</ele>
        <time>2019-04-02T07:06:22.000Z</time>
      </trkpt>
      <trkpt lat="47.25635" lon="-1.55308">
        <ele>13.800000190735</ele>
        <time>2019-04-02T07:06:23.000Z</time>
      </trkpt>
      <trkpt lat="47.25634" lon="-1.55307">
        <ele>13.800000190735</ele>
        <time>2019-04-02T07:06:24.000Z</time>
      </trkpt>
      <trkpt lat="47.25633" lon="-1.55305">
        <ele>13.60000038147</ele>
        <time>2019-04-02T07:06:25.000Z</time>
      </trkpt>
      <trkpt lat="47.25632" lon="-1.55303">
        <ele>13.60000038147</ele>
        <time>2019-04-02T07:06:26.000Z</time>
      </trkpt>
      <trkpt lat="47.25631" lon="-1.55301">
        <ele>13.60000038147</ele>
        <time>2019-04-02T07:06:27.000Z</time>
      </trkpt>
      <trkpt lat="47.2563" lon="-1.55299">
        <ele>13.60000038147</ele>
        <time>2019-04-02T07:06:28.000Z</time>
      </trkpt>
      <trkpt lat="47.25629" lon="-1.55297">
        <ele>13.60000038147</ele>
        <time>2019-04-02T07:06:29.000Z</time>
      </trkpt>
      <trkpt lat="47.25627" lon="-1.55296">
        <ele>13.60000038147</ele>
        <time>2019-04-02T07:06:30.000Z</time>
      </trkpt>
      <trkpt lat="47.25626" lon="-1.55294">
        <ele>13.60000038147</ele>
        <time>2019-04-02T07:06:31.000Z</time>
      </trkpt>
      <trkpt lat="47.25625" lon="-1.55292">
        <ele>13.60000038147</ele>
        <time>2019-04-02T07:06:32.000Z</time>
      </trkpt>
      <trkpt lat="47.25624" lon="-1.5529">
        <ele>13.60000038147</ele>
        <time>2019-04-02T07:06:33.000Z</time>
      </trkpt>
      <trkpt lat="47.25623" lon="-1.55289">
        <ele>13.60000038147</ele>
        <time>2019-04-02T07:06:34.000Z</time>
      </trkpt>
      <trkpt lat="47.25622" lon="-1.55287">
        <ele>13.60000038147</ele>
        <time>2019-04-02T07:06:35.000Z</time>
      </trkpt>
      <trkpt lat="47.25622" lon="-1.55285">
        <ele>13.39999961853</ele>
        <time>2019-04-02T07:06:36.000Z</time>
      </trkpt>
      <trkpt lat="47.25621" lon="-1.55283">
        <ele>13.39999961853</ele>
        <time>2019-04-02T07:06:37.000Z</time>
      </trkpt>
      <trkpt lat="47.2562" lon="-1.55281">
        <ele>13.39999961853</ele>
        <time>2019-04-02T07:06:38.000Z</time>
      </trkpt>
      <trkpt lat="47.2562" lon="-1.55278">
        <ele>13.199999809265</ele>
        <time>2019-04-02T07:06:39.000Z</time>
      </trkpt>
      <trkpt lat="47.25619" lon="-1.55276">
        <ele>13.199999809265</ele>
        <time>2019-04-02T07:06:40.000Z</time>
      </trkpt>
      <trkpt lat="47.25618" lon="-1.55274">
        <ele>13.199999809265</ele>
        <time>2019-04-02T07:06:41.000Z</time>
      </trkpt>
      <trkpt lat="47.25617" lon="-1.55272">
        <ele>13.199999809265</ele>
        <time>2019-04-02T07:06:42.000Z</time>
      </trkpt>
      <trkpt lat="47.25617" lon="-1.5527">
        <ele>13.199999809265</ele>
        <time>2019-04-02T07:06:43.000Z</time>
      </trkpt>
      <trkpt lat="47.25617" lon="-1.55267">
        <ele>13</ele>
        <time>2019-04-02T07:06:44.000Z</time>
      </trkpt>
      <trkpt lat="47.25616" lon="-1.55265">
        <ele>13</ele>
        <time>2019-04-02T07:06:45.000Z</time>
      </trkpt>
      <trkpt lat="47.25615" lon="-1.55263">
        <ele>13</ele>
        <time>2019-04-02T07:06:46.000Z</time>
      </trkpt>
      <trkpt lat="47.25614" lon="-1.55261">
        <ele>13</ele>
        <time>2019-04-02T07:06:47.000Z</time>
      </trkpt>
      <trkpt lat="47.25614" lon="-1.55259">
        <ele>12.800000190735</ele>
        <time>2019-04-02T07:06:48.000Z</time>
      </trkpt>
      <trkpt lat="47.25613" lon="-1.55257">
        <ele>12.800000190735</ele>
        <time>2019-04-02T07:06:49.000Z</time>
      </trkpt>
      <trkpt lat="47.25612" lon="-1.55253">
        <ele>12.800000190735</ele>
        <time>2019-04-02T07:06:50.000Z</time>
      </trkpt>
      <trkpt lat="47.25612" lon="-1.55253">
        <ele>12.800000190735</ele>
        <time>2019-04-02T07:06:51.000Z</time>
      </trkpt>
      <trkpt lat="47.25611" lon="-1.55252">
        <ele>12.800000190735</ele>
        <time>2019-04-02T07:06:52.000Z</time>
      </trkpt>
      <trkpt lat="47.2561" lon="-1.55248">
        <ele>12.800000190735</ele>
        <time>2019-04-02T07:06:53.000Z</time>
      </trkpt>
      <trkpt lat="47.2561" lon="-1.55248">
        <ele>12.800000190735</ele>
        <time>2019-04-02T07:06:54.000Z</time>
      </trkpt>
      <trkpt lat="47.25609" lon="-1.55247">
        <ele>12.800000190735</ele>
        <time>2019-04-02T07:06:55.000Z</time>
      </trkpt>
      <trkpt lat="47.25609" lon="-1.55245">
        <ele>12.800000190735</ele>
        <time>2019-04-02T07:06:56.000Z</time>
      </trkpt>
      <trkpt lat="47.25608" lon="-1.55243">
        <ele>12.60000038147</ele>
        <time>2019-04-02T07:06:57.000Z</time>
      </trkpt>
      <trkpt lat="47.25607" lon="-1.55242">
        <ele>12.800000190735</ele>
        <time>2019-04-02T07:06:58.000Z</time>
      </trkpt>
      <trkpt lat="47.25606" lon="-1.5524">
        <ele>12.800000190735</ele>
        <time>2019-04-02T07:06:59.000Z</time>
      </trkpt>
      <trkpt lat="47.25605" lon="-1.55239">
        <ele>12.800000190735</ele>
        <time>2019-04-02T07:07:00.000Z</time>
      </trkpt>
      <trkpt lat="47.25604" lon="-1.55238">
        <ele>12.800000190735</ele>
        <time>2019-04-02T07:07:01.000Z</time>
      </trkpt>
      <trkpt lat="47.25603" lon="-1.55236">
        <ele>12.800000190735</ele>
        <time>2019-04-02T07:07:02.000Z</time>
      </trkpt>
      <trkpt lat="47.25602" lon="-1.55235">
        <ele>12.800000190735</ele>
        <time>2019-04-02T07:07:03.000Z</time>
      </trkpt>
      <trkpt lat="47.25601" lon="-1.55233">
        <ele>12.800000190735</ele>
        <time>2019-04-02T07:07:04.000Z</time>
      </trkpt>
      <trkpt lat="47.256" lon="-1.55232">
        <ele>13</ele>
        <time>2019-04-02T07:07:05.000Z</time>
      </trkpt>
      <trkpt lat="47.256" lon="-1.5523">
        <ele>13</ele>
        <time>2019-04-02T07:07:06.000Z</time>
      </trkpt>
      <trkpt lat="47.25599" lon="-1.55229">
        <ele>13</ele>
        <time>2019-04-02T07:07:07.000Z</time>
      </trkpt>
      <trkpt lat="47.25598" lon="-1.55227">
        <ele>13</ele>
        <time>2019-04-02T07:07:08.000Z</time>
      </trkpt>
      <trkpt lat="47.25597" lon="-1.55225">
        <ele>13.199999809265</ele>
        <time>2019-04-02T07:07:09.000Z</time>
      </trkpt>
      <trkpt lat="47.25595" lon="-1.55223">
        <ele>13.199999809265</ele>
        <time>2019-04-02T07:07:10.000Z</time>
      </trkpt>
      <trkpt lat="47.25594" lon="-1.55222">
        <ele>13.199999809265</ele>
        <time>2019-04-02T07:07:11.000Z</time>
      </trkpt>
      <trkpt lat="47.25593" lon="-1.5522">
        <ele>13.39999961853</ele>
        <time>2019-04-02T07:07:12.000Z</time>
      </trkpt>
      <trkpt lat="47.25592" lon="-1.55218">
        <ele>13.199999809265</ele>
        <time>2019-04-02T07:07:13.000Z</time>
      </trkpt>
      <trkpt lat="47.25591" lon="-1.55216">
        <ele>13.199999809265</ele>
        <time>2019-04-02T07:07:14.000Z</time>
      </trkpt>
      <trkpt lat="47.2559" lon="-1.55214">
        <ele>13</ele>
        <time>2019-04-02T07:07:15.000Z</time>
      </trkpt>
      <trkpt lat="47.25589" lon="-1.55212">
        <ele>13</ele>
        <time>2019-04-02T07:07:16.000Z</time>
      </trkpt>
      <trkpt lat="47.25588" lon="-1.55211">
        <ele>13</ele>
        <time>2019-04-02T07:07:17.000Z</time>
      </trkpt>
      <trkpt lat="47.25587" lon="-1.55208">
        <ele>12.800000190735</ele>
        <time>2019-04-02T07:07:18.000Z</time>
      </trkpt>
      <trkpt lat="47.25585" lon="-1.55207">
        <ele>12.800000190735</ele>
        <time>2019-04-02T07:07:19.000Z</time>
      </trkpt>
      <trkpt lat="47.25584" lon="-1.55205">
        <ele>12.60000038147</ele>
        <time>2019-04-02T07:07:20.000Z</time>
      </trkpt>
      <trkpt lat="47.25583" lon="-1.55203">
        <ele>12.60000038147</ele>
        <time>2019-04-02T07:07:21.000Z</time>
      </trkpt>
      <trkpt lat="47.25581" lon="-1.55201">
        <ele>12.60000038147</ele>
        <time>2019-04-02T07:07:22.000Z</time>
      </trkpt>
      <trkpt lat="47.2558" lon="-1.55199">
        <ele>12.39999961853</ele>
        <time>2019-04-02T07:07:23.000Z</time>
      </trkpt>
      <trkpt lat="47.25579" lon="-1.55198">
        <ele>12.39999961853</ele>
        <time>2019-04-02T07:07:24.000Z</time>
      </trkpt>
      <trkpt lat="47.25578" lon="-1.55196">
        <ele>12.39999961853</ele>
        <time>2019-04-02T07:07:25.000Z</time>
      </trkpt>
      <trkpt lat="47.25576" lon="-1.55195">
        <ele>12.199999809265</ele>
        <time>2019-04-02T07:07:26.000Z</time>
      </trkpt>
      <trkpt lat="47.25575" lon="-1.55193">
        <ele>12.199999809265</ele>
        <time>2019-04-02T07:07:27.000Z</time>
      </trkpt>
      <trkpt lat="47.25574" lon="-1.55192">
        <ele>12.199999809265</ele>
        <time>2019-04-02T07:07:28.000Z</time>
      </trkpt>
      <trkpt lat="47.25571" lon="-1.5519">
        <ele>12.199999809265</ele>
        <time>2019-04-02T07:07:29.000Z</time>
      </trkpt>
      <trkpt lat="47.25571" lon="-1.5519">
        <ele>12.199999809265</ele>
        <time>2019-04-02T07:07:30.000Z</time>
      </trkpt>
      <trkpt lat="47.2557" lon="-1.55189">
        <ele>12</ele>
        <time>2019-04-02T07:07:31.000Z</time>
      </trkpt>
      <trkpt lat="47.25569" lon="-1.55188">
        <ele>12</ele>
        <time>2019-04-02T07:07:32.000Z</time>
      </trkpt>
      <trkpt lat="47.25568" lon="-1.55186">
        <ele>12</ele>
        <time>2019-04-02T07:07:33.000Z</time>
      </trkpt>
      <trkpt lat="47.25567" lon="-1.55185">
        <ele>11.800000190735</ele>
        <time>2019-04-02T07:07:34.000Z</time>
      </trkpt>
      <trkpt lat="47.25566" lon="-1.55183">
        <ele>11.800000190735</ele>
        <time>2019-04-02T07:07:35.000Z</time>
      </trkpt>
      <trkpt lat="47.25565" lon="-1.55181">
        <ele>11.800000190735</ele>
        <time>2019-04-02T07:07:36.000Z</time>
      </trkpt>
      <trkpt lat="47.25563" lon="-1.55178">
        <ele>11.60000038147</ele>
        <time>2019-04-02T07:07:37.000Z</time>
      </trkpt>
      <trkpt lat="47.25563" lon="-1.55178">
        <ele>11.60000038147</ele>
        <time>2019-04-02T07:07:38.000Z</time>
      </trkpt>
      <trkpt lat="47.25562" lon="-1.55176">
        <ele>11.39999961853</ele>
        <time>2019-04-02T07:07:39.000Z</time>
      </trkpt>
      <trkpt lat="47.25561" lon="-1.55175">
        <ele>11.39999961853</ele>
        <time>2019-04-02T07:07:40.000Z</time>
      </trkpt>
      <trkpt lat="47.2556" lon="-1.55173">
        <ele>11.199999809265</ele>
        <time>2019-04-02T07:07:41.000Z</time>
      </trkpt>
      <trkpt lat="47.2556" lon="-1.55171">
        <ele>11.199999809265</ele>
        <time>2019-04-02T07:07:42.000Z</time>
      </trkpt>
      <trkpt lat="47.25558" lon="-1.5517">
        <ele>11.199999809265</ele>
        <time>2019-04-02T07:07:43.000Z</time>
      </trkpt>
      <trkpt lat="47.25557" lon="-1.55168">
        <ele>11.199999809265</ele>
        <time>2019-04-02T07:07:44.000Z</time>
      </trkpt>
      <trkpt lat="47.25556" lon="-1.55167">
        <ele>11.199999809265</ele>
        <time>2019-04-02T07:07:45.000Z</time>
      </trkpt>
      <trkpt lat="47.25555" lon="-1.55165">
        <ele>11.199999809265</ele>
        <time>2019-04-02T07:07:46.000Z</time>
      </trkpt>
      <trkpt lat="47.25554" lon="-1.55163">
        <ele>11.199999809265</ele>
        <time>2019-04-02T07:07:47.000Z</time>
      </trkpt>
      <trkpt lat="47.25553" lon="-1.55162">
        <ele>11.39999961853</ele>
        <time>2019-04-02T07:07:48.000Z</time>
      </trkpt>
      <trkpt lat="47.25551" lon="-1.5516">
        <ele>11.39999961853</ele>
        <time>2019-04-02T07:07:49.000Z</time>
      </trkpt>
      <trkpt lat="47.2555" lon="-1.55158">
        <ele>11.39999961853</ele>
        <time>2019-04-02T07:07:50.000Z</time>
      </trkpt>
      <trkpt lat="47.25548" lon="-1.55155">
        <ele>11.39999961853</ele>
        <time>2019-04-02T07:07:51.000Z</time>
      </trkpt>
      <trkpt lat="47.25548" lon="-1.55155">
        <ele>11.39999961853</ele>
        <time>2019-04-02T07:07:52.000Z</time>
      </trkpt>
      <trkpt lat="47.25547" lon="-1.55153">
        <ele>11.39999961853</ele>
        <time>2019-04-02T07:07:53.000Z</time>
      </trkpt>
      <trkpt lat="47.25545" lon="-1.55152">
        <ele>11.39999961853</ele>
        <time>2019-04-02T07:07:54.000Z</time>
      </trkpt>
      <trkpt lat="47.25544" lon="-1.5515">
        <ele>11.60000038147</ele>
        <time>2019-04-02T07:07:55.000Z</time>
      </trkpt>
      <trkpt lat="47.25543" lon="-1.55149">
        <ele>11.60000038147</ele>
        <time>2019-04-02T07:07:56.000Z</time>
      </trkpt>
      <trkpt lat="47.25541" lon="-1.55148">
        <ele>11.60000038147</ele>
        <time>2019-04-02T07:07:57.000Z</time>
      </trkpt>
      <trkpt lat="47.2554" lon="-1.55147">
        <ele>11.60000038147</ele>
        <time>2019-04-02T07:07:58.000Z</time>
      </trkpt>
      <trkpt lat="47.25539" lon="-1.55145">
        <ele>11.60000038147</ele>
        <time>2019-04-02T07:07:59.000Z</time>
      </trkpt>
      <trkpt lat="47.25538" lon="-1.55143">
        <ele>11.60000038147</ele>
        <time>2019-04-02T07:08:00.000Z</time>
      </trkpt>
      <trkpt lat="47.25536" lon="-1.55139">
        <ele>11.60000038147</ele>
        <time>2019-04-02T07:08:01.000Z</time>
      </trkpt>
      <trkpt lat="47.25536" lon="-1.55139">
        <ele>11.60000038147</ele>
        <time>2019-04-02T07:08:02.000Z</time>
      </trkpt>
      <trkpt lat="47.25535" lon="-1.55137">
        <ele>11.39999961853</ele>
        <time>2019-04-02T07:08:03.000Z</time>
      </trkpt>
      <trkpt lat="47.25535" lon="-1.55134">
        <ele>11.39999961853</ele>
        <time>2019-04-02T07:08:04.000Z</time>
      </trkpt>
      <trkpt lat="47.25534" lon="-1.55132">
        <ele>11.39999961853</ele>
        <time>2019-04-02T07:08:05.000Z</time>
      </trkpt>
      <trkpt lat="47.25532" lon="-1.5513">
        <ele>11.39999961853</ele>
        <time>2019-04-02T07:08:06.000Z</time>
      </trkpt>
      <trkpt lat="47.25531" lon="-1.55128">
        <ele>11.39999961853</ele>
        <time>2019-04-02T07:08:07.000Z</time>
      </trkpt>
      <trkpt lat="47.2553" lon="-1.55126">
        <ele>11.39999961853</ele>
        <time>2019-04-02T07:08:08.000Z</time>
      </trkpt>
      <trkpt lat="47.2553" lon="-1.55123">
        <ele>11.199999809265</ele>
        <time>2019-04-02T07:08:09.000Z</time>
      </trkpt>
      <trkpt lat="47.25529" lon="-1.55121">
        <ele>11.199999809265</ele>
        <time>2019-04-02T07:08:10.000Z</time>
      </trkpt>
      <trkpt lat="47.25528" lon="-1.55118">
        <ele>11.199999809265</ele>
        <time>2019-04-02T07:08:11.000Z</time>
      </trkpt>
      <trkpt lat="47.25527" lon="-1.55116">
        <ele>11</ele>
        <time>2019-04-02T07:08:12.000Z</time>
      </trkpt>
      <trkpt lat="47.25527" lon="-1.55113">
        <ele>11</ele>
        <time>2019-04-02T07:08:13.000Z</time>
      </trkpt>
      <trkpt lat="47.25527" lon="-1.55111">
        <ele>10.800000190735</ele>
        <time>2019-04-02T07:08:14.000Z</time>
      </trkpt>
      <trkpt lat="47.25527" lon="-1.55109">
        <ele>10.800000190735</ele>
        <time>2019-04-02T07:08:15.000Z</time>
      </trkpt>
      <trkpt lat="47.25526" lon="-1.55108">
        <ele>10.800000190735</ele>
        <time>2019-04-02T07:08:16.000Z</time>
      </trkpt>
      <trkpt lat="47.25526" lon="-1.55106">
        <ele>10.60000038147</ele>
        <time>2019-04-02T07:08:17.000Z</time>
      </trkpt>
      <trkpt lat="47.25525" lon="-1.55104">
        <ele>10.60000038147</ele>
        <time>2019-04-02T07:08:18.000Z</time>
      </trkpt>
      <trkpt lat="47.25525" lon="-1.55102">
        <ele>10.60000038147</ele>
        <time>2019-04-02T07:08:19.000Z</time>
      </trkpt>
      <trkpt lat="47.25524" lon="-1.551">
        <ele>10.60000038147</ele>
        <time>2019-04-02T07:08:20.000Z</time>
      </trkpt>
      <trkpt lat="47.25524" lon="-1.55098">
        <ele>10.39999961853</ele>
        <time>2019-04-02T07:08:21.000Z</time>
      </trkpt>
      <trkpt lat="47.25524" lon="-1.55096">
        <ele>10.39999961853</ele>
        <time>2019-04-02T07:08:22.000Z</time>
      </trkpt>
      <trkpt lat="47.25523" lon="-1.55094">
        <ele>10.39999961853</ele>
        <time>2019-04-02T07:08:23.000Z</time>
      </trkpt>
      <trkpt lat="47.25523" lon="-1.55092">
        <ele>10.199999809265</ele>
        <time>2019-04-02T07:08:24.000Z</time>
      </trkpt>
      <trkpt lat="47.25523" lon="-1.5509">
        <ele>10.199999809265</ele>
        <time>2019-04-02T07:08:25.000Z</time>
      </trkpt>
      <trkpt lat="47.25522" lon="-1.55088">
        <ele>10</ele>
        <time>2019-04-02T07:08:26.000Z</time>
      </trkpt>
      <trkpt lat="47.25522" lon="-1.55086">
        <ele>10</ele>
        <time>2019-04-02T07:08:27.000Z</time>
      </trkpt>
      <trkpt lat="47.25522" lon="-1.55084">
        <ele>10</ele>
        <time>2019-04-02T07:08:28.000Z</time>
      </trkpt>
      <trkpt lat="47.25521" lon="-1.55081">
        <ele>9.8000001907349</ele>
        <time>2019-04-02T07:08:29.000Z</time>
      </trkpt>
      <trkpt lat="47.25521" lon="-1.55079">
        <ele>9.8000001907349</ele>
        <time>2019-04-02T07:08:30.000Z</time>
      </trkpt>
      <trkpt lat="47.25521" lon="-1.55077">
        <ele>9.6000003814697</ele>
        <time>2019-04-02T07:08:31.000Z</time>
      </trkpt>
      <trkpt lat="47.25521" lon="-1.55075">
        <ele>9.6000003814697</ele>
        <time>2019-04-02T07:08:32.000Z</time>
      </trkpt>
      <trkpt lat="47.2552" lon="-1.55072">
        <ele>9.3999996185303</ele>
        <time>2019-04-02T07:08:33.000Z</time>
      </trkpt>
      <trkpt lat="47.2552" lon="-1.5507">
        <ele>9.3999996185303</ele>
        <time>2019-04-02T07:08:34.000Z</time>
      </trkpt>
      <trkpt lat="47.25521" lon="-1.55068">
        <ele>9.1999998092651</ele>
        <time>2019-04-02T07:08:35.000Z</time>
      </trkpt>
      <trkpt lat="47.25521" lon="-1.55065">
        <ele>9.1999998092651</ele>
        <time>2019-04-02T07:08:36.000Z</time>
      </trkpt>
      <trkpt lat="47.2552" lon="-1.55063">
        <ele>9.1999998092651</ele>
        <time>2019-04-02T07:08:37.000Z</time>
      </trkpt>
      <trkpt lat="47.2552" lon="-1.55061">
        <ele>9.3999996185303</ele>
        <time>2019-04-02T07:08:38.000Z</time>
      </trkpt>
      <trkpt lat="47.2552" lon="-1.55059">
        <ele>9.3999996185303</ele>
        <time>2019-04-02T07:08:39.000Z</time>
      </trkpt>
      <trkpt lat="47.25519" lon="-1.55056">
        <ele>9.3999996185303</ele>
        <time>2019-04-02T07:08:40.000Z</time>
      </trkpt>
      <trkpt lat="47.25519" lon="-1.55054">
        <ele>9.6000003814697</ele>
        <time>2019-04-02T07:08:41.000Z</time>
      </trkpt>
      <trkpt lat="47.25518" lon="-1.55052">
        <ele>9.6000003814697</ele>
        <time>2019-04-02T07:08:42.000Z</time>
      </trkpt>
      <trkpt lat="47.25517" lon="-1.5505">
        <ele>9.6000003814697</ele>
        <time>2019-04-02T07:08:43.000Z</time>
      </trkpt>
      <trkpt lat="47.25517" lon="-1.55047">
        <ele>9.8000001907349</ele>
        <time>2019-04-02T07:08:44.000Z</time>
      </trkpt>
      <trkpt lat="47.25516" lon="-1.55045">
        <ele>9.8000001907349</ele>
        <time>2019-04-02T07:08:45.000Z</time>
      </trkpt>
      <trkpt lat="47.25516" lon="-1.55043">
        <ele>9.6000003814697</ele>
        <time>2019-04-02T07:08:46.000Z</time>
      </trkpt>
      <trkpt lat="47.25516" lon="-1.5504">
        <ele>9.6000003814697</ele>
        <time>2019-04-02T07:08:47.000Z</time>
      </trkpt>
      <trkpt lat="47.25515" lon="-1.55038">
        <ele>9.6000003814697</ele>
        <time>2019-04-02T07:08:48.000Z</time>
      </trkpt>
      <trkpt lat="47.25515" lon="-1.55036">
        <ele>9.6000003814697</ele>
        <time>2019-04-02T07:08:49.000Z</time>
      </trkpt>
      <trkpt lat="47.25515" lon="-1.55034">
        <ele>9.6000003814697</ele>
        <time>2019-04-02T07:08:50.000Z</time>
      </trkpt>
      <trkpt lat="47.25514" lon="-1.55032">
        <ele>9.3999996185303</ele>
        <time>2019-04-02T07:08:51.000Z</time>
      </trkpt>
      <trkpt lat="47.25514" lon="-1.5503">
        <ele>9.3999996185303</ele>
        <time>2019-04-02T07:08:52.000Z</time>
      </trkpt>
      <trkpt lat="47.25513" lon="-1.55028">
        <ele>9.3999996185303</ele>
        <time>2019-04-02T07:08:53.000Z</time>
      </trkpt>
      <trkpt lat="47.25512" lon="-1.55026">
        <ele>9.3999996185303</ele>
        <time>2019-04-02T07:08:54.000Z</time>
      </trkpt>
      <trkpt lat="47.25511" lon="-1.55023">
        <ele>9.3999996185303</ele>
        <time>2019-04-02T07:08:55.000Z</time>
      </trkpt>
      <trkpt lat="47.25511" lon="-1.55021">
        <ele>9.3999996185303</ele>
        <time>2019-04-02T07:08:56.000Z</time>
      </trkpt>
      <trkpt lat="47.2551" lon="-1.55018">
        <ele>9.3999996185303</ele>
        <time>2019-04-02T07:08:57.000Z</time>
      </trkpt>
      <trkpt lat="47.25509" lon="-1.55016">
        <ele>9.1999998092651</ele>
        <time>2019-04-02T07:08:58.000Z</time>
      </trkpt>
      <trkpt lat="47.25509" lon="-1.55014">
        <ele>9.1999998092651</ele>
        <time>2019-04-02T07:08:59.000Z</time>
      </trkpt>
      <trkpt lat="47.25509" lon="-1.55012">
        <ele>9.1999998092651</ele>
        <time>2019-04-02T07:09:00.000Z</time>
      </trkpt>
      <trkpt lat="47.25508" lon="-1.5501">
        <ele>9.1999998092651</ele>
        <time>2019-04-02T07:09:01.000Z</time>
      </trkpt>
      <trkpt lat="47.25508" lon="-1.55008">
        <ele>9.1999998092651</ele>
        <time>2019-04-02T07:09:02.000Z</time>
      </trkpt>
      <trkpt lat="47.25507" lon="-1.55006">
        <ele>9.1999998092651</ele>
        <time>2019-04-02T07:09:03.000Z</time>
      </trkpt>
      <trkpt lat="47.25506" lon="-1.55004">
        <ele>9.1999998092651</ele>
        <time>2019-04-02T07:09:04.000Z</time>
      </trkpt>
      <trkpt lat="47.25505" lon="-1.55001">
        <ele>9</ele>
        <time>2019-04-02T07:09:05.000Z</time>
      </trkpt>
      <trkpt lat="47.25504" lon="-1.54999">
        <ele>9</ele>
        <time>2019-04-02T07:09:06.000Z</time>
      </trkpt>
      <trkpt lat="47.25504" lon="-1.54997">
        <ele>9</ele>
        <time>2019-04-02T07:09:07.000Z</time>
      </trkpt>
      <trkpt lat="47.25504" lon="-1.54995">
        <ele>9</ele>
        <time>2019-04-02T07:09:08.000Z</time>
      </trkpt>
      <trkpt lat="47.25503" lon="-1.54993">
        <ele>9</ele>
        <time>2019-04-02T07:09:09.000Z</time>
      </trkpt>
      <trkpt lat="47.25503" lon="-1.54991">
        <ele>9</ele>
        <time>2019-04-02T07:09:10.000Z</time>
      </trkpt>
      <trkpt lat="47.25502" lon="-1.54989">
        <ele>8.8000001907349</ele>
        <time>2019-04-02T07:09:11.000Z</time>
      </trkpt>
      <trkpt lat="47.25502" lon="-1.54986">
        <ele>8.8000001907349</ele>
        <time>2019-04-02T07:09:12.000Z</time>
      </trkpt>
      <trkpt lat="47.25501" lon="-1.54984">
        <ele>8.8000001907349</ele>
        <time>2019-04-02T07:09:13.000Z</time>
      </trkpt>
      <trkpt lat="47.255" lon="-1.54982">
        <ele>8.8000001907349</ele>
        <time>2019-04-02T07:09:14.000Z</time>
      </trkpt>
      <trkpt lat="47.255" lon="-1.5498">
        <ele>8.8000001907349</ele>
        <time>2019-04-02T07:09:15.000Z</time>
      </trkpt>
      <trkpt lat="47.25499" lon="-1.54978">
        <ele>8.8000001907349</ele>
        <time>2019-04-02T07:09:16.000Z</time>
      </trkpt>
      <trkpt lat="47.25499" lon="-1.54975">
        <ele>8.8000001907349</ele>
        <time>2019-04-02T07:09:17.000Z</time>
      </trkpt>
      <trkpt lat="47.25498" lon="-1.54974">
        <ele>8.8000001907349</ele>
        <time>2019-04-02T07:09:18.000Z</time>
      </trkpt>
      <trkpt lat="47.25498" lon="-1.54971">
        <ele>8.8000001907349</ele>
        <time>2019-04-02T07:09:19.000Z</time>
      </trkpt>
      <trkpt lat="47.25498" lon="-1.54969">
        <ele>8.8000001907349</ele>
        <time>2019-04-02T07:09:20.000Z</time>
      </trkpt>
      <trkpt lat="47.25497" lon="-1.54968">
        <ele>8.8000001907349</ele>
        <time>2019-04-02T07:09:21.000Z</time>
      </trkpt>
      <trkpt lat="47.25497" lon="-1.54965">
        <ele>8.8000001907349</ele>
        <time>2019-04-02T07:09:22.000Z</time>
      </trkpt>
      <trkpt lat="47.25496" lon="-1.54963">
        <ele>8.8000001907349</ele>
        <time>2019-04-02T07:09:23.000Z</time>
      </trkpt>
      <trkpt lat="47.25496" lon="-1.54961">
        <ele>8.8000001907349</ele>
        <time>2019-04-02T07:09:24.000Z</time>
      </trkpt>
      <trkpt lat="47.25496" lon="-1.54959">
        <ele>8.8000001907349</ele>
        <time>2019-04-02T07:09:25.000Z</time>
      </trkpt>
      <trkpt lat="47.25495" lon="-1.54956">
        <ele>8.6000003814697</ele>
        <time>2019-04-02T07:09:26.000Z</time>
      </trkpt>
      <trkpt lat="47.25495" lon="-1.54953">
        <ele>8.6000003814697</ele>
        <time>2019-04-02T07:09:27.000Z</time>
      </trkpt>
      <trkpt lat="47.25495" lon="-1.54951">
        <ele>8.6000003814697</ele>
        <time>2019-04-02T07:09:28.000Z</time>
      </trkpt>
      <trkpt lat="47.25494" lon="-1.54948">
        <ele>8.6000003814697</ele>
        <time>2019-04-02T07:09:29.000Z</time>
      </trkpt>
      <trkpt lat="47.25494" lon="-1.54946">
        <ele>8.6000003814697</ele>
        <time>2019-04-02T07:09:30.000Z</time>
      </trkpt>
      <trkpt lat="47.25494" lon="-1.54943">
        <ele>8.6000003814697</ele>
        <time>2019-04-02T07:09:31.000Z</time>
      </trkpt>
      <trkpt lat="47.25494" lon="-1.54941">
        <ele>8.6000003814697</ele>
        <time>2019-04-02T07:09:32.000Z</time>
      </trkpt>
      <trkpt lat="47.25493" lon="-1.54938">
        <ele>8.6000003814697</ele>
        <time>2019-04-02T07:09:33.000Z</time>
      </trkpt>
      <trkpt lat="47.25493" lon="-1.54936">
        <ele>8.6000003814697</ele>
        <time>2019-04-02T07:09:34.000Z</time>
      </trkpt>
      <trkpt lat="47.25492" lon="-1.54933">
        <ele>8.6000003814697</ele>
        <time>2019-04-02T07:09:35.000Z</time>
      </trkpt>
      <trkpt lat="47.25493" lon="-1.54931">
        <ele>8.6000003814697</ele>
        <time>2019-04-02T07:09:36.000Z</time>
      </trkpt>
      <trkpt lat="47.25493" lon="-1.54929">
        <ele>8.3999996185303</ele>
        <time>2019-04-02T07:09:37.000Z</time>
      </trkpt>
      <trkpt lat="47.25493" lon="-1.54927">
        <ele>8.3999996185303</ele>
        <time>2019-04-02T07:09:38.000Z</time>
      </trkpt>
      <trkpt lat="47.25493" lon="-1.54925">
        <ele>8.3999996185303</ele>
        <time>2019-04-02T07:09:39.000Z</time>
      </trkpt>
      <trkpt lat="47.25493" lon="-1.54923">
        <ele>8.3999996185303</ele>
        <time>2019-04-02T07:09:40.000Z</time>
      </trkpt>
      <trkpt lat="47.25493" lon="-1.5492">
        <ele>8.3999996185303</ele>
        <time>2019-04-02T07:09:41.000Z</time>
      </trkpt>
      <trkpt lat="47.25493" lon="-1.54918">
        <ele>8.3999996185303</ele>
        <time>2019-04-02T07:09:42.000Z</time>
      </trkpt>
      <trkpt lat="47.25493" lon="-1.54916">
        <ele>8.3999996185303</ele>
        <time>2019-04-02T07:09:43.000Z</time>
      </trkpt>
      <trkpt lat="47.25493" lon="-1.54914">
        <ele>8.3999996185303</ele>
        <time>2019-04-02T07:09:44.000Z</time>
      </trkpt>
      <trkpt lat="47.25493" lon="-1.54912">
        <ele>8.1999998092651</ele>
        <time>2019-04-02T07:09:45.000Z</time>
      </trkpt>
      <trkpt lat="47.25493" lon="-1.5491">
        <ele>8.1999998092651</ele>
        <time>2019-04-02T07:09:46.000Z</time>
      </trkpt>
      <trkpt lat="47.25493" lon="-1.54908">
        <ele>8.1999998092651</ele>
        <time>2019-04-02T07:09:47.000Z</time>
      </trkpt>
      <trkpt lat="47.25493" lon="-1.54906">
        <ele>8.1999998092651</ele>
        <time>2019-04-02T07:09:48.000Z</time>
      </trkpt>
      <trkpt lat="47.25493" lon="-1.54904">
        <ele>8.1999998092651</ele>
        <time>2019-04-02T07:09:49.000Z</time>
      </trkpt>
      <trkpt lat="47.25493" lon="-1.54901">
        <ele>8.1999998092651</ele>
        <time>2019-04-02T07:09:50.000Z</time>
      </trkpt>
      <trkpt lat="47.25494" lon="-1.54899">
        <ele>8</ele>
        <time>2019-04-02T07:09:51.000Z</time>
      </trkpt>
      <trkpt lat="47.25494" lon="-1.54897">
        <ele>8</ele>
        <time>2019-04-02T07:09:52.000Z</time>
      </trkpt>
      <trkpt lat="47.25494" lon="-1.54894">
        <ele>8</ele>
        <time>2019-04-02T07:09:53.000Z</time>
      </trkpt>
      <trkpt lat="47.25494" lon="-1.54892">
        <ele>7.8000001907349</ele>
        <time>2019-04-02T07:09:54.000Z</time>
      </trkpt>
      <trkpt lat="47.25494" lon="-1.54889">
        <ele>7.8000001907349</ele>
        <time>2019-04-02T07:09:55.000Z</time>
      </trkpt>
      <trkpt lat="47.25494" lon="-1.54887">
        <ele>7.8000001907349</ele>
        <time>2019-04-02T07:09:56.000Z</time>
      </trkpt>
      <trkpt lat="47.25495" lon="-1.54884">
        <ele>7.5999999046326</ele>
        <time>2019-04-02T07:09:57.000Z</time>
      </trkpt>
      <trkpt lat="47.25495" lon="-1.54882">
        <ele>7.5999999046326</ele>
        <time>2019-04-02T07:09:58.000Z</time>
      </trkpt>
      <trkpt lat="47.25495" lon="-1.5488">
        <ele>7.5999999046326</ele>
        <time>2019-04-02T07:09:59.000Z</time>
      </trkpt>
      <trkpt lat="47.25495" lon="-1.54878">
        <ele>7.4000000953674</ele>
        <time>2019-04-02T07:10:00.000Z</time>
      </trkpt>
      <trkpt lat="47.25496" lon="-1.54874">
        <ele>7.4000000953674</ele>
        <time>2019-04-02T07:10:01.000Z</time>
      </trkpt>
      <trkpt lat="47.25496" lon="-1.54874">
        <ele>7.4000000953674</ele>
        <time>2019-04-02T07:10:02.000Z</time>
      </trkpt>
      <trkpt lat="47.25496" lon="-1.54872">
        <ele>7.4000000953674</ele>
        <time>2019-04-02T07:10:03.000Z</time>
      </trkpt>
      <trkpt lat="47.25496" lon="-1.54869">
        <ele>7.1999998092651</ele>
        <time>2019-04-02T07:10:04.000Z</time>
      </trkpt>
      <trkpt lat="47.25496" lon="-1.54867">
        <ele>7.1999998092651</ele>
        <time>2019-04-02T07:10:05.000Z</time>
      </trkpt>
      <trkpt lat="47.25496" lon="-1.54864">
        <ele>7.1999998092651</ele>
        <time>2019-04-02T07:10:06.000Z</time>
      </trkpt>
      <trkpt lat="47.25496" lon="-1.54862">
        <ele>7</ele>
        <time>2019-04-02T07:10:07.000Z</time>
      </trkpt>
      <trkpt lat="47.25496" lon="-1.5486">
        <ele>7</ele>
        <time>2019-04-02T07:10:08.000Z</time>
      </trkpt>
      <trkpt lat="47.25496" lon="-1.54858">
        <ele>7</ele>
        <time>2019-04-02T07:10:09.000Z</time>
      </trkpt>
      <trkpt lat="47.25497" lon="-1.54856">
        <ele>7</ele>
        <time>2019-04-02T07:10:10.000Z</time>
      </trkpt>
      <trkpt lat="47.25497" lon="-1.54854">
        <ele>6.8000001907349</ele>
        <time>2019-04-02T07:10:11.000Z</time>
      </trkpt>
      <trkpt lat="47.25496" lon="-1.54852">
        <ele>6.8000001907349</ele>
        <time>2019-04-02T07:10:12.000Z</time>
      </trkpt>
      <trkpt lat="47.25496" lon="-1.5485">
        <ele>6.8000001907349</ele>
        <time>2019-04-02T07:10:13.000Z</time>
      </trkpt>
      <trkpt lat="47.25496" lon="-1.54848">
        <ele>6.8000001907349</ele>
        <time>2019-04-02T07:10:14.000Z</time>
      </trkpt>
      <trkpt lat="47.25496" lon="-1.54846">
        <ele>6.5999999046326</ele>
        <time>2019-04-02T07:10:15.000Z</time>
      </trkpt>
      <trkpt lat="47.25496" lon="-1.54844">
        <ele>6.5999999046326</ele>
        <time>2019-04-02T07:10:16.000Z</time>
      </trkpt>
      <trkpt lat="47.25496" lon="-1.54842">
        <ele>6.5999999046326</ele>
        <time>2019-04-02T07:10:17.000Z</time>
      </trkpt>
      <trkpt lat="47.25496" lon="-1.5484">
        <ele>6.5999999046326</ele>
        <time>2019-04-02T07:10:18.000Z</time>
      </trkpt>
      <trkpt lat="47.25496" lon="-1.54838">
        <ele>6.4000000953674</ele>
        <time>2019-04-02T07:10:19.000Z</time>
      </trkpt>
      <trkpt lat="47.25496" lon="-1.54836">
        <ele>6.4000000953674</ele>
        <time>2019-04-02T07:10:20.000Z</time>
      </trkpt>
      <trkpt lat="47.25496" lon="-1.54834">
        <ele>6.4000000953674</ele>
        <time>2019-04-02T07:10:21.000Z</time>
      </trkpt>
      <trkpt lat="47.25496" lon="-1.54832">
        <ele>6.4000000953674</ele>
        <time>2019-04-02T07:10:22.000Z</time>
      </trkpt>
      <trkpt lat="47.25496" lon="-1.54829">
        <ele>6.1999998092651</ele>
        <time>2019-04-02T07:10:23.000Z</time>
      </trkpt>
      <trkpt lat="47.25496" lon="-1.54827">
        <ele>6.1999998092651</ele>
        <time>2019-04-02T07:10:24.000Z</time>
      </trkpt>
      <trkpt lat="47.25496" lon="-1.54825">
        <ele>6.1999998092651</ele>
        <time>2019-04-02T07:10:25.000Z</time>
      </trkpt>
      <trkpt lat="47.25496" lon="-1.54822">
        <ele>6.1999998092651</ele>
        <time>2019-04-02T07:10:26.000Z</time>
      </trkpt>
      <trkpt lat="47.25496" lon="-1.5482">
        <ele>6</ele>
        <time>2019-04-02T07:10:27.000Z</time>
      </trkpt>
      <trkpt lat="47.25496" lon="-1.54818">
        <ele>6</ele>
        <time>2019-04-02T07:10:28.000Z</time>
      </trkpt>
      <trkpt lat="47.25497" lon="-1.54816">
        <ele>6</ele>
        <time>2019-04-02T07:10:29.000Z</time>
      </trkpt>
      <trkpt lat="47.25497" lon="-1.54814">
        <ele>6</ele>
        <time>2019-04-02T07:10:30.000Z</time>
      </trkpt>
      <trkpt lat="47.25497" lon="-1.54812">
        <ele>6</ele>
        <time>2019-04-02T07:10:31.000Z</time>
      </trkpt>
      <trkpt lat="47.25497" lon="-1.5481">
        <ele>6</ele>
        <time>2019-04-02T07:10:32.000Z</time>
      </trkpt>
      <trkpt lat="47.25497" lon="-1.54807">
        <ele>6</ele>
        <time>2019-04-02T07:10:33.000Z</time>
      </trkpt>
      <trkpt lat="47.25497" lon="-1.54805">
        <ele>6</ele>
        <time>2019-04-02T07:10:34.000Z</time>
      </trkpt>
      <trkpt lat="47.25497" lon="-1.54803">
        <ele>6</ele>
        <time>2019-04-02T07:10:35.000Z</time>
      </trkpt>
      <trkpt lat="47.25497" lon="-1.54802">
        <ele>6</ele>
        <time>2019-04-02T07:10:36.000Z</time>
      </trkpt>
      <trkpt lat="47.25497" lon="-1.548">
        <ele>6</ele>
        <time>2019-04-02T07:10:37.000Z</time>
      </trkpt>
      <trkpt lat="47.25497" lon="-1.54798">
        <ele>6</ele>
        <time>2019-04-02T07:10:38.000Z</time>
      </trkpt>
      <trkpt lat="47.25497" lon="-1.54796">
        <ele>6</ele>
        <time>2019-04-02T07:10:39.000Z</time>
      </trkpt>
      <trkpt lat="47.25497" lon="-1.54794">
        <ele>6</ele>
        <time>2019-04-02T07:10:40.000Z</time>
      </trkpt>
      <trkpt lat="47.25497" lon="-1.54792">
        <ele>6</ele>
        <time>2019-04-02T07:10:41.000Z</time>
      </trkpt>
      <trkpt lat="47.25497" lon="-1.5479">
        <ele>6</ele>
        <time>2019-04-02T07:10:42.000Z</time>
      </trkpt>
      <trkpt lat="47.25497" lon="-1.54787">
        <ele>6</ele>
        <time>2019-04-02T07:10:43.000Z</time>
      </trkpt>
      <trkpt lat="47.25497" lon="-1.54785">
        <ele>6</ele>
        <time>2019-04-02T07:10:44.000Z</time>
      </trkpt>
      <trkpt lat="47.25497" lon="-1.54783">
        <ele>6</ele>
        <time>2019-04-02T07:10:45.000Z</time>
      </trkpt>
      <trkpt lat="47.25497" lon="-1.54779">
        <ele>6</ele>
        <time>2019-04-02T07:10:46.000Z</time>
      </trkpt>
      <trkpt lat="47.25497" lon="-1.54779">
        <ele>6</ele>
        <time>2019-04-02T07:10:47.000Z</time>
      </trkpt>
      <trkpt lat="47.25498" lon="-1.54777">
        <ele>6</ele>
        <time>2019-04-02T07:10:48.000Z</time>
      </trkpt>
      <trkpt lat="47.25498" lon="-1.54774">
        <ele>6</ele>
        <time>2019-04-02T07:10:49.000Z</time>
      </trkpt>
      <trkpt lat="47.25498" lon="-1.54772">
        <ele>6</ele>
        <time>2019-04-02T07:10:50.000Z</time>
      </trkpt>
      <trkpt lat="47.25498" lon="-1.5477">
        <ele>6</ele>
        <time>2019-04-02T07:10:51.000Z</time>
      </trkpt>
      <trkpt lat="47.25497" lon="-1.54766">
        <ele>6</ele>
        <time>2019-04-02T07:10:52.000Z</time>
      </trkpt>
      <trkpt lat="47.25497" lon="-1.54766">
        <ele>6</ele>
        <time>2019-04-02T07:10:53.000Z</time>
      </trkpt>
      <trkpt lat="47.25497" lon="-1.54764">
        <ele>6</ele>
        <time>2019-04-02T07:10:54.000Z</time>
      </trkpt>
      <trkpt lat="47.25497" lon="-1.54762">
        <ele>6</ele>
        <time>2019-04-02T07:10:55.000Z</time>
      </trkpt>
      <trkpt lat="47.25497" lon="-1.5476">
        <ele>6</ele>
        <time>2019-04-02T07:10:56.000Z</time>
      </trkpt>
      <trkpt lat="47.25496" lon="-1.54758">
        <ele>6</ele>
        <time>2019-04-02T07:10:57.000Z</time>
      </trkpt>
      <trkpt lat="47.25496" lon="-1.54756">
        <ele>6</ele>
        <time>2019-04-02T07:10:58.000Z</time>
      </trkpt>
      <trkpt lat="47.25495" lon="-1.54754">
        <ele>6</ele>
        <time>2019-04-02T07:10:59.000Z</time>
      </trkpt>
      <trkpt lat="47.25494" lon="-1.54753">
        <ele>6</ele>
        <time>2019-04-02T07:11:00.000Z</time>
      </trkpt>
      <trkpt lat="47.25493" lon="-1.54751">
        <ele>6.1999998092651</ele>
        <time>2019-04-02T07:11:01.000Z</time>
      </trkpt>
      <trkpt lat="47.25492" lon="-1.54749">
        <ele>6.1999998092651</ele>
        <time>2019-04-02T07:11:02.000Z</time>
      </trkpt>
      <trkpt lat="47.25492" lon="-1.54747">
        <ele>6.1999998092651</ele>
        <time>2019-04-02T07:11:03.000Z</time>
      </trkpt>
      <trkpt lat="47.25491" lon="-1.54746">
        <ele>6.1999998092651</ele>
        <time>2019-04-02T07:11:04.000Z</time>
      </trkpt>
      <trkpt lat="47.2549" lon="-1.54745">
        <ele>6.4000000953674</ele>
        <time>2019-04-02T07:11:05.000Z</time>
      </trkpt>
      <trkpt lat="47.25488" lon="-1.54743">
        <ele>6.4000000953674</ele>
        <time>2019-04-02T07:11:06.000Z</time>
      </trkpt>
      <trkpt lat="47.25487" lon="-1.54742">
        <ele>6.4000000953674</ele>
        <time>2019-04-02T07:11:07.000Z</time>
      </trkpt>
      <trkpt lat="47.25486" lon="-1.54741">
        <ele>6.4000000953674</ele>
        <time>2019-04-02T07:11:08.000Z</time>
      </trkpt>
      <trkpt lat="47.25485" lon="-1.5474">
        <ele>6.4000000953674</ele>
        <time>2019-04-02T07:11:09.000Z</time>
      </trkpt>
      <trkpt lat="47.25483" lon="-1.54739">
        <ele>6.4000000953674</ele>
        <time>2019-04-02T07:11:10.000Z</time>
      </trkpt>
      <trkpt lat="47.25482" lon="-1.54738">
        <ele>6.4000000953674</ele>
        <time>2019-04-02T07:11:11.000Z</time>
      </trkpt>
      <trkpt lat="47.2548" lon="-1.54737">
        <ele>6.4000000953674</ele>
        <time>2019-04-02T07:11:12.000Z</time>
      </trkpt>
      <trkpt lat="47.25479" lon="-1.54736">
        <ele>6.4000000953674</ele>
        <time>2019-04-02T07:11:13.000Z</time>
      </trkpt>
      <trkpt lat="47.25478" lon="-1.54734">
        <ele>6.4000000953674</ele>
        <time>2019-04-02T07:11:14.000Z</time>
      </trkpt>
      <trkpt lat="47.25476" lon="-1.54732">
        <ele>6.5999999046326</ele>
        <time>2019-04-02T07:11:15.000Z</time>
      </trkpt>
      <trkpt lat="47.25475" lon="-1.5473">
        <ele>6.5999999046326</ele>
        <time>2019-04-02T07:11:16.000Z</time>
      </trkpt>
      <trkpt lat="47.25474" lon="-1.54728">
        <ele>6.5999999046326</ele>
        <time>2019-04-02T07:11:17.000Z</time>
      </trkpt>
      <trkpt lat="47.25474" lon="-1.54726">
        <ele>6.5999999046326</ele>
        <time>2019-04-02T07:11:18.000Z</time>
      </trkpt>
      <trkpt lat="47.25474" lon="-1.54723">
        <ele>6.5999999046326</ele>
        <time>2019-04-02T07:11:19.000Z</time>
      </trkpt>
      <trkpt lat="47.25474" lon="-1.54721">
        <ele>6.5999999046326</ele>
        <time>2019-04-02T07:11:20.000Z</time>
      </trkpt>
      <trkpt lat="47.25474" lon="-1.54719">
        <ele>6.8000001907349</ele>
        <time>2019-04-02T07:11:21.000Z</time>
      </trkpt>
      <trkpt lat="47.25475" lon="-1.54717">
        <ele>6.8000001907349</ele>
        <time>2019-04-02T07:11:22.000Z</time>
      </trkpt>
      <trkpt lat="47.25475" lon="-1.54715">
        <ele>6.8000001907349</ele>
        <time>2019-04-02T07:11:23.000Z</time>
      </trkpt>
      <trkpt lat="47.25475" lon="-1.54714">
        <ele>6.8000001907349</ele>
        <time>2019-04-02T07:11:24.000Z</time>
      </trkpt>
      <trkpt lat="47.25476" lon="-1.5471">
        <ele>6.8000001907349</ele>
        <time>2019-04-02T07:11:25.000Z</time>
      </trkpt>
      <trkpt lat="47.25476" lon="-1.5471">
        <ele>6.8000001907349</ele>
        <time>2019-04-02T07:11:26.000Z</time>
      </trkpt>
      <trkpt lat="47.25476" lon="-1.54708">
        <ele>6.8000001907349</ele>
        <time>2019-04-02T07:11:27.000Z</time>
      </trkpt>
      <trkpt lat="47.25476" lon="-1.54706">
        <ele>6.8000001907349</ele>
        <time>2019-04-02T07:11:28.000Z</time>
      </trkpt>
      <trkpt lat="47.25476" lon="-1.54704">
        <ele>6.8000001907349</ele>
        <time>2019-04-02T07:11:29.000Z</time>
      </trkpt>
      <trkpt lat="47.25476" lon="-1.54702">
        <ele>6.8000001907349</ele>
        <time>2019-04-02T07:11:30.000Z</time>
      </trkpt>
      <trkpt lat="47.25476" lon="-1.547">
        <ele>6.8000001907349</ele>
        <time>2019-04-02T07:11:31.000Z</time>
      </trkpt>
      <trkpt lat="47.25476" lon="-1.54697">
        <ele>7</ele>
        <time>2019-04-02T07:11:32.000Z</time>
      </trkpt>
      <trkpt lat="47.25477" lon="-1.54695">
        <ele>7</ele>
        <time>2019-04-02T07:11:33.000Z</time>
      </trkpt>
      <trkpt lat="47.25477" lon="-1.54692">
        <ele>7</ele>
        <time>2019-04-02T07:11:34.000Z</time>
      </trkpt>
      <trkpt lat="47.25477" lon="-1.5469">
        <ele>7</ele>
        <time>2019-04-02T07:11:35.000Z</time>
      </trkpt>
      <trkpt lat="47.25477" lon="-1.54687">
        <ele>7</ele>
        <time>2019-04-02T07:11:36.000Z</time>
      </trkpt>
      <trkpt lat="47.25477" lon="-1.54685">
        <ele>7</ele>
        <time>2019-04-02T07:11:37.000Z</time>
      </trkpt>
      <trkpt lat="47.25477" lon="-1.54682">
        <ele>7</ele>
        <time>2019-04-02T07:11:38.000Z</time>
      </trkpt>
      <trkpt lat="47.25477" lon="-1.5468">
        <ele>7.1999998092651</ele>
        <time>2019-04-02T07:11:39.000Z</time>
      </trkpt>
      <trkpt lat="47.25477" lon="-1.54678">
        <ele>7.1999998092651</ele>
        <time>2019-04-02T07:11:40.000Z</time>
      </trkpt>
      <trkpt lat="47.25478" lon="-1.54675">
        <ele>7.1999998092651</ele>
        <time>2019-04-02T07:11:41.000Z</time>
      </trkpt>
      <trkpt lat="47.25478" lon="-1.54673">
        <ele>7.1999998092651</ele>
        <time>2019-04-02T07:11:42.000Z</time>
      </trkpt>
      <trkpt lat="47.25478" lon="-1.54671">
        <ele>7.1999998092651</ele>
        <time>2019-04-02T07:11:43.000Z</time>
      </trkpt>
      <trkpt lat="47.25478" lon="-1.54669">
        <ele>7.1999998092651</ele>
        <time>2019-04-02T07:11:44.000Z</time>
      </trkpt>
      <trkpt lat="47.25478" lon="-1.54668">
        <ele>7.1999998092651</ele>
        <time>2019-04-02T07:11:45.000Z</time>
      </trkpt>
      <trkpt lat="47.25479" lon="-1.54666">
        <ele>7.1999998092651</ele>
        <time>2019-04-02T07:11:46.000Z</time>
      </trkpt>
      <trkpt lat="47.25479" lon="-1.54664">
        <ele>7.1999998092651</ele>
        <time>2019-04-02T07:11:47.000Z</time>
      </trkpt>
      <trkpt lat="47.25479" lon="-1.54663">
        <ele>7.1999998092651</ele>
        <time>2019-04-02T07:11:48.000Z</time>
      </trkpt>
      <trkpt lat="47.2548" lon="-1.54661">
        <ele>7.1999998092651</ele>
        <time>2019-04-02T07:11:49.000Z</time>
      </trkpt>
      <trkpt lat="47.2548" lon="-1.5466">
        <ele>7.1999998092651</ele>
        <time>2019-04-02T07:11:50.000Z</time>
      </trkpt>
      <trkpt lat="47.25481" lon="-1.54658">
        <ele>7.1999998092651</ele>
        <time>2019-04-02T07:11:51.000Z</time>
      </trkpt>
      <trkpt lat="47.25482" lon="-1.54656">
        <ele>7.1999998092651</ele>
        <time>2019-04-02T07:11:52.000Z</time>
      </trkpt>
      <trkpt lat="47.25484" lon="-1.54653">
        <ele>7.1999998092651</ele>
        <time>2019-04-02T07:11:53.000Z</time>
      </trkpt>
      <trkpt lat="47.25484" lon="-1.54653">
        <ele>7.1999998092651</ele>
        <time>2019-04-02T07:11:54.000Z</time>
      </trkpt>
      <trkpt lat="47.25485" lon="-1.54652">
        <ele>7.1999998092651</ele>
        <time>2019-04-02T07:11:55.000Z</time>
      </trkpt>
      <trkpt lat="47.25486" lon="-1.54651">
        <ele>7.1999998092651</ele>
        <time>2019-04-02T07:11:56.000Z</time>
      </trkpt>
      <trkpt lat="47.25487" lon="-1.54649">
        <ele>7.1999998092651</ele>
        <time>2019-04-02T07:11:57.000Z</time>
      </trkpt>
      <trkpt lat="47.25488" lon="-1.54648">
        <ele>7.4000000953674</ele>
        <time>2019-04-02T07:11:58.000Z</time>
      </trkpt>
      <trkpt lat="47.25489" lon="-1.54646">
        <ele>7.4000000953674</ele>
        <time>2019-04-02T07:11:59.000Z</time>
      </trkpt>
      <trkpt lat="47.2549" lon="-1.54645">
        <ele>7.4000000953674</ele>
        <time>2019-04-02T07:12:00.000Z</time>
      </trkpt>
      <trkpt lat="47.25491" lon="-1.54643">
        <ele>7.4000000953674</ele>
        <time>2019-04-02T07:12:01.000Z</time>
      </trkpt>
      <trkpt lat="47.25492" lon="-1.54642">
        <ele>7.4000000953674</ele>
        <time>2019-04-02T07:12:02.000Z</time>
      </trkpt>
      <trkpt lat="47.25493" lon="-1.5464">
        <ele>7.4000000953674</ele>
        <time>2019-04-02T07:12:03.000Z</time>
      </trkpt>
      <trkpt lat="47.25494" lon="-1.54639">
        <ele>7.4000000953674</ele>
        <time>2019-04-02T07:12:04.000Z</time>
      </trkpt>
      <trkpt lat="47.25495" lon="-1.54636">
        <ele>7.5999999046326</ele>
        <time>2019-04-02T07:12:05.000Z</time>
      </trkpt>
      <trkpt lat="47.25495" lon="-1.54636">
        <ele>7.5999999046326</ele>
        <time>2019-04-02T07:12:06.000Z</time>
      </trkpt>
      <trkpt lat="47.25496" lon="-1.54634">
        <ele>7.5999999046326</ele>
        <time>2019-04-02T07:12:07.000Z</time>
      </trkpt>
      <trkpt lat="47.25497" lon="-1.54633">
        <ele>7.5999999046326</ele>
        <time>2019-04-02T07:12:08.000Z</time>
      </trkpt>
      <trkpt lat="47.25499" lon="-1.54631">
        <ele>7.5999999046326</ele>
        <time>2019-04-02T07:12:09.000Z</time>
      </trkpt>
      <trkpt lat="47.255" lon="-1.5463">
        <ele>7.5999999046326</ele>
        <time>2019-04-02T07:12:10.000Z</time>
      </trkpt>
      <trkpt lat="47.25501" lon="-1.54628">
        <ele>7.5999999046326</ele>
        <time>2019-04-02T07:12:11.000Z</time>
      </trkpt>
      <trkpt lat="47.25502" lon="-1.54626">
        <ele>7.5999999046326</ele>
        <time>2019-04-02T07:12:12.000Z</time>
      </trkpt>
      <trkpt lat="47.25503" lon="-1.54624">
        <ele>7.5999999046326</ele>
        <time>2019-04-02T07:12:13.000Z</time>
      </trkpt>
      <trkpt lat="47.25504" lon="-1.54623">
        <ele>7.5999999046326</ele>
        <time>2019-04-02T07:12:14.000Z</time>
      </trkpt>
      <trkpt lat="47.25506" lon="-1.54621">
        <ele>7.5999999046326</ele>
        <time>2019-04-02T07:12:15.000Z</time>
      </trkpt>
      <trkpt lat="47.25507" lon="-1.5462">
        <ele>7.5999999046326</ele>
        <time>2019-04-02T07:12:16.000Z</time>
      </trkpt>
      <trkpt lat="47.25508" lon="-1.54619">
        <ele>7.5999999046326</ele>
        <time>2019-04-02T07:12:17.000Z</time>
      </trkpt>
      <trkpt lat="47.25509" lon="-1.54618">
        <ele>7.5999999046326</ele>
        <time>2019-04-02T07:12:18.000Z</time>
      </trkpt>
      <trkpt lat="47.2551" lon="-1.54617">
        <ele>7.5999999046326</ele>
        <time>2019-04-02T07:12:19.000Z</time>
      </trkpt>
      <trkpt lat="47.25511" lon="-1.54615">
        <ele>7.5999999046326</ele>
        <time>2019-04-02T07:12:20.000Z</time>
      </trkpt>
      <trkpt lat="47.25513" lon="-1.54615">
        <ele>7.4000000953674</ele>
        <time>2019-04-02T07:12:21.000Z</time>
      </trkpt>
      <trkpt lat="47.25516" lon="-1.54613">
        <ele>7.4000000953674</ele>
        <time>2019-04-02T07:12:22.000Z</time>
      </trkpt>
      <trkpt lat="47.25516" lon="-1.54613">
        <ele>7.4000000953674</ele>
        <time>2019-04-02T07:12:23.000Z</time>
      </trkpt>
      <trkpt lat="47.25517" lon="-1.54611">
        <ele>7.4000000953674</ele>
        <time>2019-04-02T07:12:24.000Z</time>
      </trkpt>
      <trkpt lat="47.25519" lon="-1.54608">
        <ele>7.4000000953674</ele>
        <time>2019-04-02T07:12:25.000Z</time>
      </trkpt>
      <trkpt lat="47.25519" lon="-1.54608">
        <ele>7.4000000953674</ele>
        <time>2019-04-02T07:12:26.000Z</time>
      </trkpt>
      <trkpt lat="47.2552" lon="-1.54607">
        <ele>7.4000000953674</ele>
        <time>2019-04-02T07:12:27.000Z</time>
      </trkpt>
      <trkpt lat="47.25521" lon="-1.54605">
        <ele>7.4000000953674</ele>
        <time>2019-04-02T07:12:28.000Z</time>
      </trkpt>
      <trkpt lat="47.25522" lon="-1.54603">
        <ele>7.4000000953674</ele>
        <time>2019-04-02T07:12:29.000Z</time>
      </trkpt>
      <trkpt lat="47.25523" lon="-1.54602">
        <ele>7.4000000953674</ele>
        <time>2019-04-02T07:12:30.000Z</time>
      </trkpt>
      <trkpt lat="47.25524" lon="-1.546">
        <ele>7.5999999046326</ele>
        <time>2019-04-02T07:12:31.000Z</time>
      </trkpt>
      <trkpt lat="47.25524" lon="-1.54598">
        <ele>7.5999999046326</ele>
        <time>2019-04-02T07:12:32.000Z</time>
      </trkpt>
      <trkpt lat="47.25525" lon="-1.54596">
        <ele>7.5999999046326</ele>
        <time>2019-04-02T07:12:33.000Z</time>
      </trkpt>
      <trkpt lat="47.25526" lon="-1.54593">
        <ele>7.5999999046326</ele>
        <time>2019-04-02T07:12:34.000Z</time>
      </trkpt>
      <trkpt lat="47.25526" lon="-1.54591">
        <ele>7.8000001907349</ele>
        <time>2019-04-02T07:12:35.000Z</time>
      </trkpt>
      <trkpt lat="47.25527" lon="-1.54589">
        <ele>7.8000001907349</ele>
        <time>2019-04-02T07:12:36.000Z</time>
      </trkpt>
      <trkpt lat="47.25527" lon="-1.54586">
        <ele>7.8000001907349</ele>
        <time>2019-04-02T07:12:37.000Z</time>
      </trkpt>
      <trkpt lat="47.25528" lon="-1.54585">
        <ele>7.8000001907349</ele>
        <time>2019-04-02T07:12:38.000Z</time>
      </trkpt>
      <trkpt lat="47.25529" lon="-1.54583">
        <ele>7.8000001907349</ele>
        <time>2019-04-02T07:12:39.000Z</time>
      </trkpt>
      <trkpt lat="47.25529" lon="-1.5458">
        <ele>8</ele>
        <time>2019-04-02T07:12:40.000Z</time>
      </trkpt>
      <trkpt lat="47.2553" lon="-1.54578">
        <ele>8</ele>
        <time>2019-04-02T07:12:41.000Z</time>
      </trkpt>
      <trkpt lat="47.2553" lon="-1.54576">
        <ele>8</ele>
        <time>2019-04-02T07:12:42.000Z</time>
      </trkpt>
      <trkpt lat="47.2553" lon="-1.54574">
        <ele>8.1999998092651</ele>
        <time>2019-04-02T07:12:43.000Z</time>
      </trkpt>
      <trkpt lat="47.2553" lon="-1.54572">
        <ele>8.1999998092651</ele>
        <time>2019-04-02T07:12:44.000Z</time>
      </trkpt>
      <trkpt lat="47.2553" lon="-1.54571">
        <ele>8.1999998092651</ele>
        <time>2019-04-02T07:12:45.000Z</time>
      </trkpt>
      <trkpt lat="47.25529" lon="-1.54568">
        <ele>8.3999996185303</ele>
        <time>2019-04-02T07:12:46.000Z</time>
      </trkpt>
      <trkpt lat="47.25529" lon="-1.54566">
        <ele>8.3999996185303</ele>
        <time>2019-04-02T07:12:47.000Z</time>
      </trkpt>
      <trkpt lat="47.25529" lon="-1.54564">
        <ele>8.3999996185303</ele>
        <time>2019-04-02T07:12:48.000Z</time>
      </trkpt>
      <trkpt lat="47.25528" lon="-1.54563">
        <ele>8.3999996185303</ele>
        <time>2019-04-02T07:12:49.000Z</time>
      </trkpt>
      <trkpt lat="47.25529" lon="-1.5456">
        <ele>8.3999996185303</ele>
        <time>2019-04-02T07:12:50.000Z</time>
      </trkpt>
      <trkpt lat="47.25529" lon="-1.54558">
        <ele>8.3999996185303</ele>
        <time>2019-04-02T07:12:51.000Z</time>
      </trkpt>
      <trkpt lat="47.25529" lon="-1.54556">
        <ele>8.3999996185303</ele>
        <time>2019-04-02T07:12:52.000Z</time>
      </trkpt>
      <trkpt lat="47.25528" lon="-1.54554">
        <ele>8.3999996185303</ele>
        <time>2019-04-02T07:12:53.000Z</time>
      </trkpt>
      <trkpt lat="47.25528" lon="-1.54552">
        <ele>8.3999996185303</ele>
        <time>2019-04-02T07:12:54.000Z</time>
      </trkpt>
      <trkpt lat="47.25529" lon="-1.5455">
        <ele>8.3999996185303</ele>
        <time>2019-04-02T07:12:55.000Z</time>
      </trkpt>
      <trkpt lat="47.25528" lon="-1.54547">
        <ele>8.3999996185303</ele>
        <time>2019-04-02T07:12:56.000Z</time>
      </trkpt>
      <trkpt lat="47.25528" lon="-1.54545">
        <ele>8.3999996185303</ele>
        <time>2019-04-02T07:12:57.000Z</time>
      </trkpt>
      <trkpt lat="47.25528" lon="-1.54543">
        <ele>8.3999996185303</ele>
        <time>2019-04-02T07:12:58.000Z</time>
      </trkpt>
      <trkpt lat="47.25528" lon="-1.54541">
        <ele>8.3999996185303</ele>
        <time>2019-04-02T07:12:59.000Z</time>
      </trkpt>
      <trkpt lat="47.25528" lon="-1.54538">
        <ele>8.3999996185303</ele>
        <time>2019-04-02T07:13:00.000Z</time>
      </trkpt>
      <trkpt lat="47.25528" lon="-1.54536">
        <ele>8.3999996185303</ele>
        <time>2019-04-02T07:13:01.000Z</time>
      </trkpt>
      <trkpt lat="47.25528" lon="-1.54534">
        <ele>8.3999996185303</ele>
        <time>2019-04-02T07:13:02.000Z</time>
      </trkpt>
      <trkpt lat="47.25528" lon="-1.54532">
        <ele>8.6000003814697</ele>
        <time>2019-04-02T07:13:03.000Z</time>
      </trkpt>
      <trkpt lat="47.25527" lon="-1.54529">
        <ele>8.6000003814697</ele>
        <time>2019-04-02T07:13:04.000Z</time>
      </trkpt>
      <trkpt lat="47.25527" lon="-1.54527">
        <ele>8.8000001907349</ele>
        <time>2019-04-02T07:13:05.000Z</time>
      </trkpt>
      <trkpt lat="47.25527" lon="-1.54525">
        <ele>8.8000001907349</ele>
        <time>2019-04-02T07:13:06.000Z</time>
      </trkpt>
      <trkpt lat="47.25527" lon="-1.54522">
        <ele>8.8000001907349</ele>
        <time>2019-04-02T07:13:07.000Z</time>
      </trkpt>
      <trkpt lat="47.25526" lon="-1.54519">
        <ele>9</ele>
        <time>2019-04-02T07:13:08.000Z</time>
      </trkpt>
      <trkpt lat="47.25526" lon="-1.54517">
        <ele>9</ele>
        <time>2019-04-02T07:13:09.000Z</time>
      </trkpt>
      <trkpt lat="47.25525" lon="-1.54514">
        <ele>9.1999998092651</ele>
        <time>2019-04-02T07:13:10.000Z</time>
      </trkpt>
      <trkpt lat="47.25525" lon="-1.54512">
        <ele>9.1999998092651</ele>
        <time>2019-04-02T07:13:11.000Z</time>
      </trkpt>
      <trkpt lat="47.25524" lon="-1.5451">
        <ele>9.3999996185303</ele>
        <time>2019-04-02T07:13:12.000Z</time>
      </trkpt>
      <trkpt lat="47.25524" lon="-1.54508">
        <ele>9.3999996185303</ele>
        <time>2019-04-02T07:13:13.000Z</time>
      </trkpt>
      <trkpt lat="47.25523" lon="-1.54506">
        <ele>9.3999996185303</ele>
        <time>2019-04-02T07:13:14.000Z</time>
      </trkpt>
      <trkpt lat="47.25523" lon="-1.54504">
        <ele>9.6000003814697</ele>
        <time>2019-04-02T07:13:15.000Z</time>
      </trkpt>
      <trkpt lat="47.25522" lon="-1.54502">
        <ele>9.8000001907349</ele>
        <time>2019-04-02T07:13:16.000Z</time>
      </trkpt>
      <trkpt lat="47.25521" lon="-1.54499">
        <ele>9.8000001907349</ele>
        <time>2019-04-02T07:13:17.000Z</time>
      </trkpt>
      <trkpt lat="47.25521" lon="-1.54497">
        <ele>10</ele>
        <time>2019-04-02T07:13:18.000Z</time>
      </trkpt>
      <trkpt lat="47.2552" lon="-1.54495">
        <ele>10</ele>
        <time>2019-04-02T07:13:19.000Z</time>
      </trkpt>
      <trkpt lat="47.25519" lon="-1.54493">
        <ele>10.199999809265</ele>
        <time>2019-04-02T07:13:20.000Z</time>
      </trkpt>
      <trkpt lat="47.25519" lon="-1.54491">
        <ele>10.199999809265</ele>
        <time>2019-04-02T07:13:21.000Z</time>
      </trkpt>
      <trkpt lat="47.25518" lon="-1.54489">
        <ele>10.199999809265</ele>
        <time>2019-04-02T07:13:22.000Z</time>
      </trkpt>
      <trkpt lat="47.25518" lon="-1.54487">
        <ele>10.39999961853</ele>
        <time>2019-04-02T07:13:23.000Z</time>
      </trkpt>
      <trkpt lat="47.25518" lon="-1.54485">
        <ele>10.39999961853</ele>
        <time>2019-04-02T07:13:24.000Z</time>
      </trkpt>
      <trkpt lat="47.25517" lon="-1.54483">
        <ele>10.39999961853</ele>
        <time>2019-04-02T07:13:25.000Z</time>
      </trkpt>
      <trkpt lat="47.25517" lon="-1.54481">
        <ele>10.60000038147</ele>
        <time>2019-04-02T07:13:26.000Z</time>
      </trkpt>
      <trkpt lat="47.25516" lon="-1.54479">
        <ele>10.60000038147</ele>
        <time>2019-04-02T07:13:27.000Z</time>
      </trkpt>
      <trkpt lat="47.25516" lon="-1.54477">
        <ele>10.60000038147</ele>
        <time>2019-04-02T07:13:28.000Z</time>
      </trkpt>
      <trkpt lat="47.25516" lon="-1.54474">
        <ele>10.60000038147</ele>
        <time>2019-04-02T07:13:29.000Z</time>
      </trkpt>
      <trkpt lat="47.25515" lon="-1.54472">
        <ele>10.800000190735</ele>
        <time>2019-04-02T07:13:30.000Z</time>
      </trkpt>
      <trkpt lat="47.25514" lon="-1.5447">
        <ele>10.800000190735</ele>
        <time>2019-04-02T07:13:31.000Z</time>
      </trkpt>
      <trkpt lat="47.25514" lon="-1.54469">
        <ele>11</ele>
        <time>2019-04-02T07:13:32.000Z</time>
      </trkpt>
      <trkpt lat="47.25513" lon="-1.54467">
        <ele>11</ele>
        <time>2019-04-02T07:13:33.000Z</time>
      </trkpt>
      <trkpt lat="47.25512" lon="-1.54465">
        <ele>11</ele>
        <time>2019-04-02T07:13:34.000Z</time>
      </trkpt>
      <trkpt lat="47.25511" lon="-1.54463">
        <ele>10.800000190735</ele>
        <time>2019-04-02T07:13:35.000Z</time>
      </trkpt>
      <trkpt lat="47.25511" lon="-1.54461">
        <ele>10.800000190735</ele>
        <time>2019-04-02T07:13:36.000Z</time>
      </trkpt>
      <trkpt lat="47.25511" lon="-1.54459">
        <ele>10.800000190735</ele>
        <time>2019-04-02T07:13:37.000Z</time>
      </trkpt>
      <trkpt lat="47.2551" lon="-1.54457">
        <ele>10.60000038147</ele>
        <time>2019-04-02T07:13:38.000Z</time>
      </trkpt>
      <trkpt lat="47.2551" lon="-1.54455">
        <ele>10.60000038147</ele>
        <time>2019-04-02T07:13:39.000Z</time>
      </trkpt>
      <trkpt lat="47.25509" lon="-1.54453">
        <ele>10.60000038147</ele>
        <time>2019-04-02T07:13:40.000Z</time>
      </trkpt>
      <trkpt lat="47.25509" lon="-1.54451">
        <ele>10.60000038147</ele>
        <time>2019-04-02T07:13:41.000Z</time>
      </trkpt>
      <trkpt lat="47.25509" lon="-1.54449">
        <ele>10.39999961853</ele>
        <time>2019-04-02T07:13:42.000Z</time>
      </trkpt>
      <trkpt lat="47.25508" lon="-1.54444">
        <ele>10.199999809265</ele>
        <time>2019-04-02T07:13:43.000Z</time>
      </trkpt>
      <trkpt lat="47.25508" lon="-1.54444">
        <ele>10.199999809265</ele>
        <time>2019-04-02T07:13:44.000Z</time>
      </trkpt>
      <trkpt lat="47.25507" lon="-1.54442">
        <ele>10.199999809265</ele>
        <time>2019-04-02T07:13:45.000Z</time>
      </trkpt>
      <trkpt lat="47.25507" lon="-1.54439">
        <ele>10.199999809265</ele>
        <time>2019-04-02T07:13:46.000Z</time>
      </trkpt>
      <trkpt lat="47.25506" lon="-1.54437">
        <ele>10</ele>
        <time>2019-04-02T07:13:47.000Z</time>
      </trkpt>
      <trkpt lat="47.25506" lon="-1.54435">
        <ele>10</ele>
        <time>2019-04-02T07:13:48.000Z</time>
      </trkpt>
      <trkpt lat="47.25506" lon="-1.54432">
        <ele>9.8000001907349</ele>
        <time>2019-04-02T07:13:49.000Z</time>
      </trkpt>
      <trkpt lat="47.25506" lon="-1.5443">
        <ele>9.8000001907349</ele>
        <time>2019-04-02T07:13:50.000Z</time>
      </trkpt>
      <trkpt lat="47.25506" lon="-1.54428">
        <ele>9.8000001907349</ele>
        <time>2019-04-02T07:13:51.000Z</time>
      </trkpt>
      <trkpt lat="47.25506" lon="-1.54426">
        <ele>9.6000003814697</ele>
        <time>2019-04-02T07:13:52.000Z</time>
      </trkpt>
      <trkpt lat="47.25505" lon="-1.54424">
        <ele>9.6000003814697</ele>
        <time>2019-04-02T07:13:53.000Z</time>
      </trkpt>
      <trkpt lat="47.25505" lon="-1.54422">
        <ele>9.6000003814697</ele>
        <time>2019-04-02T07:13:54.000Z</time>
      </trkpt>
      <trkpt lat="47.25505" lon="-1.54419">
        <ele>9.3999996185303</ele>
        <time>2019-04-02T07:13:55.000Z</time>
      </trkpt>
      <trkpt lat="47.25505" lon="-1.54417">
        <ele>9.3999996185303</ele>
        <time>2019-04-02T07:13:56.000Z</time>
      </trkpt>
      <trkpt lat="47.25505" lon="-1.54414">
        <ele>9.1999998092651</ele>
        <time>2019-04-02T07:13:57.000Z</time>
      </trkpt>
      <trkpt lat="47.25504" lon="-1.54412">
        <ele>9.1999998092651</ele>
        <time>2019-04-02T07:13:58.000Z</time>
      </trkpt>
      <trkpt lat="47.25504" lon="-1.54409">
        <ele>9.1999998092651</ele>
        <time>2019-04-02T07:13:59.000Z</time>
      </trkpt>
      <trkpt lat="47.25504" lon="-1.54407">
        <ele>9</ele>
        <time>2019-04-02T07:14:00.000Z</time>
      </trkpt>
      <trkpt lat="47.25503" lon="-1.54405">
        <ele>9</ele>
        <time>2019-04-02T07:14:01.000Z</time>
      </trkpt>
      <trkpt lat="47.25503" lon="-1.54403">
        <ele>9</ele>
        <time>2019-04-02T07:14:02.000Z</time>
      </trkpt>
      <trkpt lat="47.25503" lon="-1.54399">
        <ele>9</ele>
        <time>2019-04-02T07:14:03.000Z</time>
      </trkpt>
      <trkpt lat="47.25503" lon="-1.54399">
        <ele>9</ele>
        <time>2019-04-02T07:14:04.000Z</time>
      </trkpt>
      <trkpt lat="47.25502" lon="-1.54397">
        <ele>9</ele>
        <time>2019-04-02T07:14:05.000Z</time>
      </trkpt>
      <trkpt lat="47.25502" lon="-1.54395">
        <ele>9.1999998092651</ele>
        <time>2019-04-02T07:14:06.000Z</time>
      </trkpt>
      <trkpt lat="47.25501" lon="-1.54393">
        <ele>9.1999998092651</ele>
        <time>2019-04-02T07:14:07.000Z</time>
      </trkpt>
      <trkpt lat="47.25502" lon="-1.54391">
        <ele>9.1999998092651</ele>
        <time>2019-04-02T07:14:08.000Z</time>
      </trkpt>
      <trkpt lat="47.25501" lon="-1.54389">
        <ele>9.1999998092651</ele>
        <time>2019-04-02T07:14:09.000Z</time>
      </trkpt>
      <trkpt lat="47.25501" lon="-1.54386">
        <ele>9</ele>
        <time>2019-04-02T07:14:10.000Z</time>
      </trkpt>
      <trkpt lat="47.255" lon="-1.54382">
        <ele>9</ele>
        <time>2019-04-02T07:14:11.000Z</time>
      </trkpt>
      <trkpt lat="47.255" lon="-1.54382">
        <ele>9</ele>
        <time>2019-04-02T07:14:12.000Z</time>
      </trkpt>
      <trkpt lat="47.25499" lon="-1.5438">
        <ele>9</ele>
        <time>2019-04-02T07:14:13.000Z</time>
      </trkpt>
      <trkpt lat="47.25499" lon="-1.54378">
        <ele>8.8000001907349</ele>
        <time>2019-04-02T07:14:14.000Z</time>
      </trkpt>
      <trkpt lat="47.25498" lon="-1.54376">
        <ele>8.8000001907349</ele>
        <time>2019-04-02T07:14:15.000Z</time>
      </trkpt>
      <trkpt lat="47.25497" lon="-1.54374">
        <ele>8.8000001907349</ele>
        <time>2019-04-02T07:14:16.000Z</time>
      </trkpt>
      <trkpt lat="47.25496" lon="-1.54372">
        <ele>8.6000003814697</ele>
        <time>2019-04-02T07:14:17.000Z</time>
      </trkpt>
      <trkpt lat="47.25495" lon="-1.5437">
        <ele>8.8000001907349</ele>
        <time>2019-04-02T07:14:18.000Z</time>
      </trkpt>
      <trkpt lat="47.25494" lon="-1.54368">
        <ele>8.8000001907349</ele>
        <time>2019-04-02T07:14:19.000Z</time>
      </trkpt>
      <trkpt lat="47.25493" lon="-1.54366">
        <ele>8.8000001907349</ele>
        <time>2019-04-02T07:14:20.000Z</time>
      </trkpt>
      <trkpt lat="47.25492" lon="-1.54365">
        <ele>8.8000001907349</ele>
        <time>2019-04-02T07:14:21.000Z</time>
      </trkpt>
      <trkpt lat="47.25491" lon="-1.54363">
        <ele>9</ele>
        <time>2019-04-02T07:14:22.000Z</time>
      </trkpt>
      <trkpt lat="47.25489" lon="-1.54358">
        <ele>9</ele>
        <time>2019-04-02T07:14:23.000Z</time>
      </trkpt>
      <trkpt lat="47.25489" lon="-1.54358">
        <ele>9</ele>
        <time>2019-04-02T07:14:24.000Z</time>
      </trkpt>
      <trkpt lat="47.25489" lon="-1.54356">
        <ele>9</ele>
        <time>2019-04-02T07:14:25.000Z</time>
      </trkpt>
      <trkpt lat="47.25488" lon="-1.54354">
        <ele>9</ele>
        <time>2019-04-02T07:14:26.000Z</time>
      </trkpt>
      <trkpt lat="47.25488" lon="-1.54352">
        <ele>9</ele>
        <time>2019-04-02T07:14:27.000Z</time>
      </trkpt>
      <trkpt lat="47.25488" lon="-1.5435">
        <ele>9</ele>
        <time>2019-04-02T07:14:28.000Z</time>
      </trkpt>
      <trkpt lat="47.25488" lon="-1.54347">
        <ele>9</ele>
        <time>2019-04-02T07:14:29.000Z</time>
      </trkpt>
      <trkpt lat="47.25488" lon="-1.54345">
        <ele>8.8000001907349</ele>
        <time>2019-04-02T07:14:30.000Z</time>
      </trkpt>
      <trkpt lat="47.25488" lon="-1.54343">
        <ele>8.8000001907349</ele>
        <time>2019-04-02T07:14:31.000Z</time>
      </trkpt>
      <trkpt lat="47.25488" lon="-1.5434">
        <ele>8.8000001907349</ele>
        <time>2019-04-02T07:14:32.000Z</time>
      </trkpt>
      <trkpt lat="47.25489" lon="-1.54338">
        <ele>8.8000001907349</ele>
        <time>2019-04-02T07:14:33.000Z</time>
      </trkpt>
      <trkpt lat="47.25489" lon="-1.54336">
        <ele>8.8000001907349</ele>
        <time>2019-04-02T07:14:34.000Z</time>
      </trkpt>
      <trkpt lat="47.2549" lon="-1.54334">
        <ele>8.6000003814697</ele>
        <time>2019-04-02T07:14:35.000Z</time>
      </trkpt>
      <trkpt lat="47.2549" lon="-1.54332">
        <ele>8.6000003814697</ele>
        <time>2019-04-02T07:14:36.000Z</time>
      </trkpt>
      <trkpt lat="47.2549" lon="-1.5433">
        <ele>8.6000003814697</ele>
        <time>2019-04-02T07:14:37.000Z</time>
      </trkpt>
      <trkpt lat="47.25491" lon="-1.54328">
        <ele>8.6000003814697</ele>
        <time>2019-04-02T07:14:38.000Z</time>
      </trkpt>
      <trkpt lat="47.25491" lon="-1.54327">
        <ele>8.3999996185303</ele>
        <time>2019-04-02T07:14:39.000Z</time>
      </trkpt>
      <trkpt lat="47.25492" lon="-1.54325">
        <ele>8.3999996185303</ele>
        <time>2019-04-02T07:14:40.000Z</time>
      </trkpt>
      <trkpt lat="47.25492" lon="-1.54324">
        <ele>8.3999996185303</ele>
        <time>2019-04-02T07:14:41.000Z</time>
      </trkpt>
      <trkpt lat="47.25494" lon="-1.5432">
        <ele>8.1999998092651</ele>
        <time>2019-04-02T07:14:42.000Z</time>
      </trkpt>
      <trkpt lat="47.25494" lon="-1.5432">
        <ele>8.1999998092651</ele>
        <time>2019-04-02T07:14:43.000Z</time>
      </trkpt>
      <trkpt lat="47.25494" lon="-1.54318">
        <ele>8.1999998092651</ele>
        <time>2019-04-02T07:14:44.000Z</time>
      </trkpt>
      <trkpt lat="47.25495" lon="-1.54314">
        <ele>8.1999998092651</ele>
        <time>2019-04-02T07:14:45.000Z</time>
      </trkpt>
      <trkpt lat="47.25495" lon="-1.54314">
        <ele>8.1999998092651</ele>
        <time>2019-04-02T07:14:46.000Z</time>
      </trkpt>
      <trkpt lat="47.25495" lon="-1.54312">
        <ele>8.1999998092651</ele>
        <time>2019-04-02T07:14:47.000Z</time>
      </trkpt>
      <trkpt lat="47.25495" lon="-1.5431">
        <ele>8.1999998092651</ele>
        <time>2019-04-02T07:14:48.000Z</time>
      </trkpt>
      <trkpt lat="47.25494" lon="-1.54308">
        <ele>8.3999996185303</ele>
        <time>2019-04-02T07:14:49.000Z</time>
      </trkpt>
      <trkpt lat="47.25494" lon="-1.54306">
        <ele>8.3999996185303</ele>
        <time>2019-04-02T07:14:50.000Z</time>
      </trkpt>
      <trkpt lat="47.25493" lon="-1.54304">
        <ele>8.6000003814697</ele>
        <time>2019-04-02T07:14:51.000Z</time>
      </trkpt>
      <trkpt lat="47.25493" lon="-1.54301">
        <ele>8.6000003814697</ele>
        <time>2019-04-02T07:14:52.000Z</time>
      </trkpt>
      <trkpt lat="47.25493" lon="-1.54299">
        <ele>8.6000003814697</ele>
        <time>2019-04-02T07:14:53.000Z</time>
      </trkpt>
      <trkpt lat="47.25492" lon="-1.54295">
        <ele>8.8000001907349</ele>
        <time>2019-04-02T07:14:54.000Z</time>
      </trkpt>
      <trkpt lat="47.25492" lon="-1.54295">
        <ele>8.8000001907349</ele>
        <time>2019-04-02T07:14:55.000Z</time>
      </trkpt>
      <trkpt lat="47.25491" lon="-1.54292">
        <ele>8.8000001907349</ele>
        <time>2019-04-02T07:14:56.000Z</time>
      </trkpt>
      <trkpt lat="47.25491" lon="-1.5429">
        <ele>9</ele>
        <time>2019-04-02T07:14:57.000Z</time>
      </trkpt>
      <trkpt lat="47.25491" lon="-1.54288">
        <ele>9</ele>
        <time>2019-04-02T07:14:58.000Z</time>
      </trkpt>
      <trkpt lat="47.2549" lon="-1.54286">
        <ele>9.1999998092651</ele>
        <time>2019-04-02T07:14:59.000Z</time>
      </trkpt>
      <trkpt lat="47.25489" lon="-1.54281">
        <ele>9.3999996185303</ele>
        <time>2019-04-02T07:15:00.000Z</time>
      </trkpt>
      <trkpt lat="47.25489" lon="-1.54281">
        <ele>9.3999996185303</ele>
        <time>2019-04-02T07:15:01.000Z</time>
      </trkpt>
      <trkpt lat="47.25489" lon="-1.54279">
        <ele>9.3999996185303</ele>
        <time>2019-04-02T07:15:02.000Z</time>
      </trkpt>
      <trkpt lat="47.25488" lon="-1.54277">
        <ele>9.6000003814697</ele>
        <time>2019-04-02T07:15:03.000Z</time>
      </trkpt>
      <trkpt lat="47.25488" lon="-1.54274">
        <ele>9.6000003814697</ele>
        <time>2019-04-02T07:15:04.000Z</time>
      </trkpt>
      <trkpt lat="47.25487" lon="-1.54272">
        <ele>9.6000003814697</ele>
        <time>2019-04-02T07:15:05.000Z</time>
      </trkpt>
      <trkpt lat="47.25487" lon="-1.5427">
        <ele>9.8000001907349</ele>
        <time>2019-04-02T07:15:06.000Z</time>
      </trkpt>
      <trkpt lat="47.25486" lon="-1.54267">
        <ele>9.8000001907349</ele>
        <time>2019-04-02T07:15:07.000Z</time>
      </trkpt>
      <trkpt lat="47.25486" lon="-1.54265">
        <ele>10</ele>
        <time>2019-04-02T07:15:08.000Z</time>
      </trkpt>
      <trkpt lat="47.25486" lon="-1.54263">
        <ele>10</ele>
        <time>2019-04-02T07:15:09.000Z</time>
      </trkpt>
      <trkpt lat="47.25485" lon="-1.54261">
        <ele>10.199999809265</ele>
        <time>2019-04-02T07:15:10.000Z</time>
      </trkpt>
      <trkpt lat="47.25484" lon="-1.54259">
        <ele>10.199999809265</ele>
        <time>2019-04-02T07:15:11.000Z</time>
      </trkpt>
      <trkpt lat="47.25484" lon="-1.54256">
        <ele>10.39999961853</ele>
        <time>2019-04-02T07:15:12.000Z</time>
      </trkpt>
      <trkpt lat="47.25484" lon="-1.54254">
        <ele>10.39999961853</ele>
        <time>2019-04-02T07:15:13.000Z</time>
      </trkpt>
      <trkpt lat="47.25483" lon="-1.54252">
        <ele>10.39999961853</ele>
        <time>2019-04-02T07:15:14.000Z</time>
      </trkpt>
      <trkpt lat="47.25483" lon="-1.5425">
        <ele>10.60000038147</ele>
        <time>2019-04-02T07:15:15.000Z</time>
      </trkpt>
      <trkpt lat="47.25483" lon="-1.54247">
        <ele>10.60000038147</ele>
        <time>2019-04-02T07:15:16.000Z</time>
      </trkpt>
      <trkpt lat="47.25482" lon="-1.54245">
        <ele>10.60000038147</ele>
        <time>2019-04-02T07:15:17.000Z</time>
      </trkpt>
      <trkpt lat="47.25482" lon="-1.54243">
        <ele>10.60000038147</ele>
        <time>2019-04-02T07:15:18.000Z</time>
      </trkpt>
      <trkpt lat="47.25482" lon="-1.54241">
        <ele>10.60000038147</ele>
        <time>2019-04-02T07:15:19.000Z</time>
      </trkpt>
      <trkpt lat="47.25482" lon="-1.54239">
        <ele>10.60000038147</ele>
        <time>2019-04-02T07:15:20.000Z</time>
      </trkpt>
      <trkpt lat="47.25481" lon="-1.54237">
        <ele>10.60000038147</ele>
        <time>2019-04-02T07:15:21.000Z</time>
      </trkpt>
      <trkpt lat="47.25481" lon="-1.54234">
        <ele>10.60000038147</ele>
        <time>2019-04-02T07:15:22.000Z</time>
      </trkpt>
      <trkpt lat="47.2548" lon="-1.54232">
        <ele>10.800000190735</ele>
        <time>2019-04-02T07:15:23.000Z</time>
      </trkpt>
      <trkpt lat="47.2548" lon="-1.5423">
        <ele>10.800000190735</ele>
        <time>2019-04-02T07:15:24.000Z</time>
      </trkpt>
      <trkpt lat="47.2548" lon="-1.54228">
        <ele>10.800000190735</ele>
        <time>2019-04-02T07:15:25.000Z</time>
      </trkpt>
      <trkpt lat="47.2548" lon="-1.54225">
        <ele>10.800000190735</ele>
        <time>2019-04-02T07:15:26.000Z</time>
      </trkpt>
      <trkpt lat="47.25479" lon="-1.54224">
        <ele>11</ele>
        <time>2019-04-02T07:15:27.000Z</time>
      </trkpt>
      <trkpt lat="47.25479" lon="-1.54222">
        <ele>11</ele>
        <time>2019-04-02T07:15:28.000Z</time>
      </trkpt>
      <trkpt lat="47.25479" lon="-1.54219">
        <ele>11</ele>
        <time>2019-04-02T07:15:29.000Z</time>
      </trkpt>
      <trkpt lat="47.25479" lon="-1.54217">
        <ele>11</ele>
        <time>2019-04-02T07:15:30.000Z</time>
      </trkpt>
      <trkpt lat="47.25478" lon="-1.54214">
        <ele>11.199999809265</ele>
        <time>2019-04-02T07:15:31.000Z</time>
      </trkpt>
      <trkpt lat="47.25478" lon="-1.54212">
        <ele>11.199999809265</ele>
        <time>2019-04-02T07:15:32.000Z</time>
      </trkpt>
      <trkpt lat="47.25478" lon="-1.54209">
        <ele>11.199999809265</ele>
        <time>2019-04-02T07:15:33.000Z</time>
      </trkpt>
      <trkpt lat="47.25478" lon="-1.54207">
        <ele>11.199999809265</ele>
        <time>2019-04-02T07:15:34.000Z</time>
      </trkpt>
      <trkpt lat="47.25477" lon="-1.54205">
        <ele>11.39999961853</ele>
        <time>2019-04-02T07:15:35.000Z</time>
      </trkpt>
      <trkpt lat="47.25477" lon="-1.54203">
        <ele>11.39999961853</ele>
        <time>2019-04-02T07:15:36.000Z</time>
      </trkpt>
      <trkpt lat="47.25476" lon="-1.542">
        <ele>11.60000038147</ele>
        <time>2019-04-02T07:15:37.000Z</time>
      </trkpt>
      <trkpt lat="47.25476" lon="-1.54198">
        <ele>11.60000038147</ele>
        <time>2019-04-02T07:15:38.000Z</time>
      </trkpt>
      <trkpt lat="47.25476" lon="-1.54195">
        <ele>11.60000038147</ele>
        <time>2019-04-02T07:15:39.000Z</time>
      </trkpt>
      <trkpt lat="47.25475" lon="-1.54191">
        <ele>11.800000190735</ele>
        <time>2019-04-02T07:15:40.000Z</time>
      </trkpt>
      <trkpt lat="47.25475" lon="-1.54191">
        <ele>11.800000190735</ele>
        <time>2019-04-02T07:15:41.000Z</time>
      </trkpt>
      <trkpt lat="47.25475" lon="-1.54189">
        <ele>11.800000190735</ele>
        <time>2019-04-02T07:15:42.000Z</time>
      </trkpt>
      <trkpt lat="47.25474" lon="-1.54186">
        <ele>11.800000190735</ele>
        <time>2019-04-02T07:15:43.000Z</time>
      </trkpt>
      <trkpt lat="47.25474" lon="-1.54184">
        <ele>12</ele>
        <time>2019-04-02T07:15:44.000Z</time>
      </trkpt>
      <trkpt lat="47.25474" lon="-1.54182">
        <ele>12</ele>
        <time>2019-04-02T07:15:45.000Z</time>
      </trkpt>
      <trkpt lat="47.25474" lon="-1.54178">
        <ele>12</ele>
        <time>2019-04-02T07:15:46.000Z</time>
      </trkpt>
      <trkpt lat="47.25474" lon="-1.54178">
        <ele>12</ele>
        <time>2019-04-02T07:15:47.000Z</time>
      </trkpt>
      <trkpt lat="47.25474" lon="-1.54175">
        <ele>12</ele>
        <time>2019-04-02T07:15:48.000Z</time>
      </trkpt>
      <trkpt lat="47.25474" lon="-1.54173">
        <ele>12.199999809265</ele>
        <time>2019-04-02T07:15:49.000Z</time>
      </trkpt>
      <trkpt lat="47.25474" lon="-1.54171">
        <ele>12</ele>
        <time>2019-04-02T07:15:50.000Z</time>
      </trkpt>
      <trkpt lat="47.25474" lon="-1.54169">
        <ele>12</ele>
        <time>2019-04-02T07:15:51.000Z</time>
      </trkpt>
      <trkpt lat="47.25474" lon="-1.54167">
        <ele>11.800000190735</ele>
        <time>2019-04-02T07:15:52.000Z</time>
      </trkpt>
      <trkpt lat="47.25474" lon="-1.54165">
        <ele>11.60000038147</ele>
        <time>2019-04-02T07:15:53.000Z</time>
      </trkpt>
      <trkpt lat="47.25474" lon="-1.54162">
        <ele>11.39999961853</ele>
        <time>2019-04-02T07:15:54.000Z</time>
      </trkpt>
      <trkpt lat="47.25474" lon="-1.54158">
        <ele>11.199999809265</ele>
        <time>2019-04-02T07:15:55.000Z</time>
      </trkpt>
      <trkpt lat="47.25474" lon="-1.54158">
        <ele>11.199999809265</ele>
        <time>2019-04-02T07:15:56.000Z</time>
      </trkpt>
      <trkpt lat="47.25475" lon="-1.54156">
        <ele>11.199999809265</ele>
        <time>2019-04-02T07:15:57.000Z</time>
      </trkpt>
      <trkpt lat="47.25475" lon="-1.54154">
        <ele>11</ele>
        <time>2019-04-02T07:15:58.000Z</time>
      </trkpt>
      <trkpt lat="47.25476" lon="-1.54152">
        <ele>10.800000190735</ele>
        <time>2019-04-02T07:15:59.000Z</time>
      </trkpt>
      <trkpt lat="47.25476" lon="-1.5415">
        <ele>10.800000190735</ele>
        <time>2019-04-02T07:16:00.000Z</time>
      </trkpt>
      <trkpt lat="47.25477" lon="-1.54146">
        <ele>10.60000038147</ele>
        <time>2019-04-02T07:16:01.000Z</time>
      </trkpt>
      <trkpt lat="47.25477" lon="-1.54146">
        <ele>10.60000038147</ele>
        <time>2019-04-02T07:16:02.000Z</time>
      </trkpt>
      <trkpt lat="47.25478" lon="-1.54143">
        <ele>10.60000038147</ele>
        <time>2019-04-02T07:16:03.000Z</time>
      </trkpt>
      <trkpt lat="47.25478" lon="-1.54141">
        <ele>10.60000038147</ele>
        <time>2019-04-02T07:16:04.000Z</time>
      </trkpt>
      <trkpt lat="47.25479" lon="-1.54139">
        <ele>10.60000038147</ele>
        <time>2019-04-02T07:16:05.000Z</time>
      </trkpt>
      <trkpt lat="47.25479" lon="-1.54137">
        <ele>10.60000038147</ele>
        <time>2019-04-02T07:16:06.000Z</time>
      </trkpt>
      <trkpt lat="47.25479" lon="-1.54136">
        <ele>10.60000038147</ele>
        <time>2019-04-02T07:16:07.000Z</time>
      </trkpt>
      <trkpt lat="47.2548" lon="-1.54134">
        <ele>10.60000038147</ele>
        <time>2019-04-02T07:16:08.000Z</time>
      </trkpt>
      <trkpt lat="47.2548" lon="-1.54132">
        <ele>10.60000038147</ele>
        <time>2019-04-02T07:16:09.000Z</time>
      </trkpt>
      <trkpt lat="47.25481" lon="-1.5413">
        <ele>10.60000038147</ele>
        <time>2019-04-02T07:16:10.000Z</time>
      </trkpt>
      <trkpt lat="47.25481" lon="-1.54127">
        <ele>10.60000038147</ele>
        <time>2019-04-02T07:16:11.000Z</time>
      </trkpt>
      <trkpt lat="47.25482" lon="-1.54125">
        <ele>10.60000038147</ele>
        <time>2019-04-02T07:16:12.000Z</time>
      </trkpt>
      <trkpt lat="47.25482" lon="-1.54123">
        <ele>10.39999961853</ele>
        <time>2019-04-02T07:16:13.000Z</time>
      </trkpt>
      <trkpt lat="47.25483" lon="-1.54121">
        <ele>10.39999961853</ele>
        <time>2019-04-02T07:16:14.000Z</time>
      </trkpt>
      <trkpt lat="47.25483" lon="-1.54118">
        <ele>10.39999961853</ele>
        <time>2019-04-02T07:16:15.000Z</time>
      </trkpt>
      <trkpt lat="47.25483" lon="-1.54118">
        <ele>10.39999961853</ele>
        <time>2019-04-02T07:16:16.000Z</time>
      </trkpt>
      <trkpt lat="47.25484" lon="-1.54116">
        <ele>10.39999961853</ele>
        <time>2019-04-02T07:16:17.000Z</time>
      </trkpt>
      <trkpt lat="47.25484" lon="-1.54113">
        <ele>10.39999961853</ele>
        <time>2019-04-02T07:16:18.000Z</time>
      </trkpt>
      <trkpt lat="47.25485" lon="-1.54111">
        <ele>10.39999961853</ele>
        <time>2019-04-02T07:16:19.000Z</time>
      </trkpt>
      <trkpt lat="47.25485" lon="-1.54109">
        <ele>10.39999961853</ele>
        <time>2019-04-02T07:16:20.000Z</time>
      </trkpt>
      <trkpt lat="47.25485" lon="-1.54106">
        <ele>10.39999961853</ele>
        <time>2019-04-02T07:16:21.000Z</time>
      </trkpt>
      <trkpt lat="47.25485" lon="-1.54104">
        <ele>10.39999961853</ele>
        <time>2019-04-02T07:16:22.000Z</time>
      </trkpt>
      <trkpt lat="47.25486" lon="-1.54102">
        <ele>10.39999961853</ele>
        <time>2019-04-02T07:16:23.000Z</time>
      </trkpt>
      <trkpt lat="47.25486" lon="-1.541">
        <ele>10.39999961853</ele>
        <time>2019-04-02T07:16:24.000Z</time>
      </trkpt>
      <trkpt lat="47.25486" lon="-1.54098">
        <ele>10.39999961853</ele>
        <time>2019-04-02T07:16:25.000Z</time>
      </trkpt>
      <trkpt lat="47.25486" lon="-1.54096">
        <ele>10.39999961853</ele>
        <time>2019-04-02T07:16:26.000Z</time>
      </trkpt>
      <trkpt lat="47.25486" lon="-1.54093">
        <ele>10.39999961853</ele>
        <time>2019-04-02T07:16:27.000Z</time>
      </trkpt>
      <trkpt lat="47.25486" lon="-1.54091">
        <ele>10.39999961853</ele>
        <time>2019-04-02T07:16:28.000Z</time>
      </trkpt>
      <trkpt lat="47.25486" lon="-1.54088">
        <ele>10.39999961853</ele>
        <time>2019-04-02T07:16:29.000Z</time>
      </trkpt>
      <trkpt lat="47.25487" lon="-1.54083">
        <ele>10.39999961853</ele>
        <time>2019-04-02T07:16:30.000Z</time>
      </trkpt>
      <trkpt lat="47.25487" lon="-1.54083">
        <ele>10.39999961853</ele>
        <time>2019-04-02T07:16:31.000Z</time>
      </trkpt>
      <trkpt lat="47.25487" lon="-1.5408">
        <ele>10.39999961853</ele>
        <time>2019-04-02T07:16:32.000Z</time>
      </trkpt>
      <trkpt lat="47.25487" lon="-1.54078">
        <ele>10.39999961853</ele>
        <time>2019-04-02T07:16:33.000Z</time>
      </trkpt>
      <trkpt lat="47.25487" lon="-1.54076">
        <ele>10.39999961853</ele>
        <time>2019-04-02T07:16:34.000Z</time>
      </trkpt>
      <trkpt lat="47.25487" lon="-1.54074">
        <ele>10.199999809265</ele>
        <time>2019-04-02T07:16:35.000Z</time>
      </trkpt>
      <trkpt lat="47.25486" lon="-1.54073">
        <ele>10.199999809265</ele>
        <time>2019-04-02T07:16:36.000Z</time>
      </trkpt>
      <trkpt lat="47.25486" lon="-1.5407">
        <ele>10</ele>
        <time>2019-04-02T07:16:37.000Z</time>
      </trkpt>
      <trkpt lat="47.25485" lon="-1.54068">
        <ele>9.8000001907349</ele>
        <time>2019-04-02T07:16:38.000Z</time>
      </trkpt>
      <trkpt lat="47.25485" lon="-1.54065">
        <ele>9.8000001907349</ele>
        <time>2019-04-02T07:16:39.000Z</time>
      </trkpt>
      <trkpt lat="47.25484" lon="-1.54064">
        <ele>9.8000001907349</ele>
        <time>2019-04-02T07:16:40.000Z</time>
      </trkpt>
      <trkpt lat="47.25484" lon="-1.54062">
        <ele>9.8000001907349</ele>
        <time>2019-04-02T07:16:41.000Z</time>
      </trkpt>
      <trkpt lat="47.25483" lon="-1.54061">
        <ele>9.8000001907349</ele>
        <time>2019-04-02T07:16:42.000Z</time>
      </trkpt>
      <trkpt lat="47.25483" lon="-1.5406">
        <ele>9.8000001907349</ele>
        <time>2019-04-02T07:16:43.000Z</time>
      </trkpt>
      <trkpt lat="47.25482" lon="-1.5406">
        <ele>9.8000001907349</ele>
        <time>2019-04-02T07:16:44.000Z</time>
      </trkpt>
      <trkpt lat="47.25482" lon="-1.54057">
        <ele>9.8000001907349</ele>
        <time>2019-04-02T07:16:45.000Z</time>
      </trkpt>
      <trkpt lat="47.25482" lon="-1.54057">
        <ele>9.8000001907349</ele>
        <time>2019-04-02T07:16:46.000Z</time>
      </trkpt>
      <trkpt lat="47.25481" lon="-1.54056">
        <ele>9.8000001907349</ele>
        <time>2019-04-02T07:16:47.000Z</time>
      </trkpt>
      <trkpt lat="47.2548" lon="-1.54055">
        <ele>9.8000001907349</ele>
        <time>2019-04-02T07:16:48.000Z</time>
      </trkpt>
      <trkpt lat="47.25479" lon="-1.54053">
        <ele>9.8000001907349</ele>
        <time>2019-04-02T07:16:49.000Z</time>
      </trkpt>
      <trkpt lat="47.25478" lon="-1.54052">
        <ele>9.8000001907349</ele>
        <time>2019-04-02T07:16:50.000Z</time>
      </trkpt>
      <trkpt lat="47.25477" lon="-1.54051">
        <ele>9.8000001907349</ele>
        <time>2019-04-02T07:16:51.000Z</time>
      </trkpt>
      <trkpt lat="47.25476" lon="-1.54049">
        <ele>9.8000001907349</ele>
        <time>2019-04-02T07:16:52.000Z</time>
      </trkpt>
      <trkpt lat="47.25475" lon="-1.54048">
        <ele>9.8000001907349</ele>
        <time>2019-04-02T07:16:53.000Z</time>
      </trkpt>
      <trkpt lat="47.25473" lon="-1.54046">
        <ele>9.8000001907349</ele>
        <time>2019-04-02T07:16:54.000Z</time>
      </trkpt>
      <trkpt lat="47.25473" lon="-1.54046">
        <ele>9.8000001907349</ele>
        <time>2019-04-02T07:16:55.000Z</time>
      </trkpt>
      <trkpt lat="47.25471" lon="-1.54046">
        <ele>9.8000001907349</ele>
        <time>2019-04-02T07:16:56.000Z</time>
      </trkpt>
      <trkpt lat="47.25469" lon="-1.54044">
        <ele>9.6000003814697</ele>
        <time>2019-04-02T07:16:57.000Z</time>
      </trkpt>
      <trkpt lat="47.25469" lon="-1.54044">
        <ele>9.6000003814697</ele>
        <time>2019-04-02T07:16:58.000Z</time>
      </trkpt>
      <trkpt lat="47.25467" lon="-1.54043">
        <ele>9.6000003814697</ele>
        <time>2019-04-02T07:16:59.000Z</time>
      </trkpt>
      <trkpt lat="47.25466" lon="-1.54042">
        <ele>9.6000003814697</ele>
        <time>2019-04-02T07:17:00.000Z</time>
      </trkpt>
      <trkpt lat="47.25463" lon="-1.5404">
        <ele>9.6000003814697</ele>
        <time>2019-04-02T07:17:01.000Z</time>
      </trkpt>
      <trkpt lat="47.25463" lon="-1.5404">
        <ele>9.6000003814697</ele>
        <time>2019-04-02T07:17:02.000Z</time>
      </trkpt>
      <trkpt lat="47.25463" lon="-1.54038">
        <ele>9.6000003814697</ele>
        <time>2019-04-02T07:17:03.000Z</time>
      </trkpt>
      <trkpt lat="47.25461" lon="-1.54037">
        <ele>9.6000003814697</ele>
        <time>2019-04-02T07:17:04.000Z</time>
      </trkpt>
      <trkpt lat="47.2546" lon="-1.54035">
        <ele>9.6000003814697</ele>
        <time>2019-04-02T07:17:05.000Z</time>
      </trkpt>
      <trkpt lat="47.25459" lon="-1.54034">
        <ele>9.6000003814697</ele>
        <time>2019-04-02T07:17:06.000Z</time>
      </trkpt>
      <trkpt lat="47.25457" lon="-1.54033">
        <ele>9.6000003814697</ele>
        <time>2019-04-02T07:17:07.000Z</time>
      </trkpt>
      <trkpt lat="47.25456" lon="-1.54032">
        <ele>9.6000003814697</ele>
        <time>2019-04-02T07:17:08.000Z</time>
      </trkpt>
      <trkpt lat="47.25454" lon="-1.54031">
        <ele>9.6000003814697</ele>
        <time>2019-04-02T07:17:09.000Z</time>
      </trkpt>
      <trkpt lat="47.25453" lon="-1.5403">
        <ele>9.3999996185303</ele>
        <time>2019-04-02T07:17:10.000Z</time>
      </trkpt>
      <trkpt lat="47.25452" lon="-1.5403">
        <ele>9.3999996185303</ele>
        <time>2019-04-02T07:17:11.000Z</time>
      </trkpt>
      <trkpt lat="47.2545" lon="-1.54029">
        <ele>9.3999996185303</ele>
        <time>2019-04-02T07:17:12.000Z</time>
      </trkpt>
      <trkpt lat="47.25449" lon="-1.54029">
        <ele>9.3999996185303</ele>
        <time>2019-04-02T07:17:13.000Z</time>
      </trkpt>
      <trkpt lat="47.25448" lon="-1.54028">
        <ele>9.3999996185303</ele>
        <time>2019-04-02T07:17:14.000Z</time>
      </trkpt>
      <trkpt lat="47.25448" lon="-1.54027">
        <ele>9.1999998092651</ele>
        <time>2019-04-02T07:17:15.000Z</time>
      </trkpt>
      <trkpt lat="47.25447" lon="-1.54027">
        <ele>9.1999998092651</ele>
        <time>2019-04-02T07:17:16.000Z</time>
      </trkpt>
      <trkpt lat="47.25446" lon="-1.54026">
        <ele>9.1999998092651</ele>
        <time>2019-04-02T07:17:17.000Z</time>
      </trkpt>
      <trkpt lat="47.25446" lon="-1.54026">
        <ele>9.1999998092651</ele>
        <time>2019-04-02T07:17:18.000Z</time>
      </trkpt>
      <trkpt lat="47.25446" lon="-1.54026">
        <ele>9</ele>
        <time>2019-04-02T07:17:19.000Z</time>
      </trkpt>
      <trkpt lat="47.25446" lon="-1.54025">
        <ele>9</ele>
        <time>2019-04-02T07:17:20.000Z</time>
      </trkpt>
      <trkpt lat="47.25446" lon="-1.54025">
        <ele>9</ele>
        <time>2019-04-02T07:17:21.000Z</time>
      </trkpt>
      <trkpt lat="47.25386" lon="-1.54026">
        <ele>7.8000001907349</ele>
        <time>2019-04-02T07:18:27.000Z</time>
      </trkpt>
      <trkpt lat="47.25384" lon="-1.54027">
        <ele>7.8000001907349</ele>
        <time>2019-04-02T07:18:28.000Z</time>
      </trkpt>
      <trkpt lat="47.25383" lon="-1.54027">
        <ele>8</ele>
        <time>2019-04-02T07:18:29.000Z</time>
      </trkpt>
      <trkpt lat="47.25381" lon="-1.54027">
        <ele>8</ele>
        <time>2019-04-02T07:18:30.000Z</time>
      </trkpt>
      <trkpt lat="47.25379" lon="-1.54028">
        <ele>8</ele>
        <time>2019-04-02T07:18:31.000Z</time>
      </trkpt>
      <trkpt lat="47.25378" lon="-1.54028">
        <ele>8</ele>
        <time>2019-04-02T07:18:32.000Z</time>
      </trkpt>
      <trkpt lat="47.25377" lon="-1.54028">
        <ele>8</ele>
        <time>2019-04-02T07:18:33.000Z</time>
      </trkpt>
      <trkpt lat="47.25377" lon="-1.54029">
        <ele>8</ele>
        <time>2019-04-02T07:18:34.000Z</time>
      </trkpt>
      <trkpt lat="47.25376" lon="-1.5403">
        <ele>8</ele>
        <time>2019-04-02T07:18:35.000Z</time>
      </trkpt>
      <trkpt lat="47.25375" lon="-1.5403">
        <ele>8.1999998092651</ele>
        <time>2019-04-02T07:18:36.000Z</time>
      </trkpt>
      <trkpt lat="47.25373" lon="-1.54031">
        <ele>8.1999998092651</ele>
        <time>2019-04-02T07:18:37.000Z</time>
      </trkpt>
      <trkpt lat="47.25372" lon="-1.54032">
        <ele>8.1999998092651</ele>
        <time>2019-04-02T07:18:38.000Z</time>
      </trkpt>
      <trkpt lat="47.2537" lon="-1.54032">
        <ele>8.1999998092651</ele>
        <time>2019-04-02T07:18:39.000Z</time>
      </trkpt>
      <trkpt lat="47.25369" lon="-1.54033">
        <ele>8.1999998092651</ele>
        <time>2019-04-02T07:18:40.000Z</time>
      </trkpt>
      <trkpt lat="47.25368" lon="-1.54034">
        <ele>8.3999996185303</ele>
        <time>2019-04-02T07:18:41.000Z</time>
      </trkpt>
      <trkpt lat="47.25367" lon="-1.54034">
        <ele>8.3999996185303</ele>
        <time>2019-04-02T07:18:42.000Z</time>
      </trkpt>
      <trkpt lat="47.25365" lon="-1.54035">
        <ele>8.3999996185303</ele>
        <time>2019-04-02T07:18:43.000Z</time>
      </trkpt>
      <trkpt lat="47.25364" lon="-1.54035">
        <ele>8.3999996185303</ele>
        <time>2019-04-02T07:18:44.000Z</time>
      </trkpt>
      <trkpt lat="47.25363" lon="-1.54035">
        <ele>8.3999996185303</ele>
        <time>2019-04-02T07:18:45.000Z</time>
      </trkpt>
      <trkpt lat="47.25361" lon="-1.54035">
        <ele>8.3999996185303</ele>
        <time>2019-04-02T07:18:46.000Z</time>
      </trkpt>
      <trkpt lat="47.25359" lon="-1.54035">
        <ele>8.3999996185303</ele>
        <time>2019-04-02T07:18:47.000Z</time>
      </trkpt>
      <trkpt lat="47.25358" lon="-1.54035">
        <ele>8.3999996185303</ele>
        <time>2019-04-02T07:18:48.000Z</time>
      </trkpt>
      <trkpt lat="47.25357" lon="-1.54035">
        <ele>8.3999996185303</ele>
        <time>2019-04-02T07:18:49.000Z</time>
      </trkpt>
      <trkpt lat="47.25356" lon="-1.54036">
        <ele>8.3999996185303</ele>
        <time>2019-04-02T07:18:50.000Z</time>
      </trkpt>
      <trkpt lat="47.25354" lon="-1.54037">
        <ele>8.3999996185303</ele>
        <time>2019-04-02T07:18:51.000Z</time>
      </trkpt>
      <trkpt lat="47.25353" lon="-1.54037">
        <ele>8.3999996185303</ele>
        <time>2019-04-02T07:18:52.000Z</time>
      </trkpt>
      <trkpt lat="47.25351" lon="-1.54038">
        <ele>8.3999996185303</ele>
        <time>2019-04-02T07:18:53.000Z</time>
      </trkpt>
      <trkpt lat="47.2535" lon="-1.54038">
        <ele>8.3999996185303</ele>
        <time>2019-04-02T07:18:54.000Z</time>
      </trkpt>
      <trkpt lat="47.25348" lon="-1.54038">
        <ele>8.3999996185303</ele>
        <time>2019-04-02T07:18:55.000Z</time>
      </trkpt>
      <trkpt lat="47.25346" lon="-1.54038">
        <ele>8.3999996185303</ele>
        <time>2019-04-02T07:18:56.000Z</time>
      </trkpt>
      <trkpt lat="47.25342" lon="-1.54039">
        <ele>8.3999996185303</ele>
        <time>2019-04-02T07:18:57.000Z</time>
      </trkpt>
      <trkpt lat="47.25342" lon="-1.54039">
        <ele>8.3999996185303</ele>
        <time>2019-04-02T07:18:58.000Z</time>
      </trkpt>
      <trkpt lat="47.2534" lon="-1.54039">
        <ele>8.3999996185303</ele>
        <time>2019-04-02T07:18:59.000Z</time>
      </trkpt>
      <trkpt lat="47.25338" lon="-1.5404">
        <ele>8.3999996185303</ele>
        <time>2019-04-02T07:19:00.000Z</time>
      </trkpt>
      <trkpt lat="47.25336" lon="-1.5404">
        <ele>8.3999996185303</ele>
        <time>2019-04-02T07:19:01.000Z</time>
      </trkpt>
      <trkpt lat="47.25335" lon="-1.5404">
        <ele>8.3999996185303</ele>
        <time>2019-04-02T07:19:02.000Z</time>
      </trkpt>
      <trkpt lat="47.25333" lon="-1.5404">
        <ele>8.3999996185303</ele>
        <time>2019-04-02T07:19:03.000Z</time>
      </trkpt>
      <trkpt lat="47.25332" lon="-1.54039">
        <ele>8.3999996185303</ele>
        <time>2019-04-02T07:19:04.000Z</time>
      </trkpt>
      <trkpt lat="47.2533" lon="-1.54038">
        <ele>8.1999998092651</ele>
        <time>2019-04-02T07:19:05.000Z</time>
      </trkpt>
      <trkpt lat="47.25329" lon="-1.54037">
        <ele>8.1999998092651</ele>
        <time>2019-04-02T07:19:06.000Z</time>
      </trkpt>
      <trkpt lat="47.25328" lon="-1.54036">
        <ele>8</ele>
        <time>2019-04-02T07:19:07.000Z</time>
      </trkpt>
      <trkpt lat="47.25326" lon="-1.54035">
        <ele>8</ele>
        <time>2019-04-02T07:19:08.000Z</time>
      </trkpt>
      <trkpt lat="47.25324" lon="-1.54035">
        <ele>7.8000001907349</ele>
        <time>2019-04-02T07:19:09.000Z</time>
      </trkpt>
      <trkpt lat="47.25323" lon="-1.54035">
        <ele>7.8000001907349</ele>
        <time>2019-04-02T07:19:10.000Z</time>
      </trkpt>
      <trkpt lat="47.25321" lon="-1.54035">
        <ele>7.8000001907349</ele>
        <time>2019-04-02T07:19:11.000Z</time>
      </trkpt>
      <trkpt lat="47.25319" lon="-1.54036">
        <ele>7.8000001907349</ele>
        <time>2019-04-02T07:19:12.000Z</time>
      </trkpt>
      <trkpt lat="47.25318" lon="-1.54036">
        <ele>7.8000001907349</ele>
        <time>2019-04-02T07:19:13.000Z</time>
      </trkpt>
      <trkpt lat="47.25317" lon="-1.54037">
        <ele>7.8000001907349</ele>
        <time>2019-04-02T07:19:14.000Z</time>
      </trkpt>
      <trkpt lat="47.25315" lon="-1.54037">
        <ele>7.5999999046326</ele>
        <time>2019-04-02T07:19:15.000Z</time>
      </trkpt>
      <trkpt lat="47.25314" lon="-1.54038">
        <ele>7.5999999046326</ele>
        <time>2019-04-02T07:19:16.000Z</time>
      </trkpt>
      <trkpt lat="47.25311" lon="-1.54039">
        <ele>7.5999999046326</ele>
        <time>2019-04-02T07:19:17.000Z</time>
      </trkpt>
      <trkpt lat="47.25311" lon="-1.54039">
        <ele>7.5999999046326</ele>
        <time>2019-04-02T07:19:18.000Z</time>
      </trkpt>
      <trkpt lat="47.25309" lon="-1.5404">
        <ele>7.5999999046326</ele>
        <time>2019-04-02T07:19:19.000Z</time>
      </trkpt>
      <trkpt lat="47.25307" lon="-1.5404">
        <ele>7.5999999046326</ele>
        <time>2019-04-02T07:19:20.000Z</time>
      </trkpt>
      <trkpt lat="47.25306" lon="-1.54041">
        <ele>7.5999999046326</ele>
        <time>2019-04-02T07:19:21.000Z</time>
      </trkpt>
      <trkpt lat="47.25305" lon="-1.54041">
        <ele>7.5999999046326</ele>
        <time>2019-04-02T07:19:22.000Z</time>
      </trkpt>
      <trkpt lat="47.25303" lon="-1.54042">
        <ele>7.5999999046326</ele>
        <time>2019-04-02T07:19:23.000Z</time>
      </trkpt>
      <trkpt lat="47.25302" lon="-1.54042">
        <ele>7.4000000953674</ele>
        <time>2019-04-02T07:19:24.000Z</time>
      </trkpt>
      <trkpt lat="47.253" lon="-1.54042">
        <ele>7.4000000953674</ele>
        <time>2019-04-02T07:19:25.000Z</time>
      </trkpt>
      <trkpt lat="47.25299" lon="-1.54042">
        <ele>7.4000000953674</ele>
        <time>2019-04-02T07:19:26.000Z</time>
      </trkpt>
      <trkpt lat="47.25297" lon="-1.54042">
        <ele>7.4000000953674</ele>
        <time>2019-04-02T07:19:27.000Z</time>
      </trkpt>
      <trkpt lat="47.25296" lon="-1.54042">
        <ele>7.1999998092651</ele>
        <time>2019-04-02T07:19:28.000Z</time>
      </trkpt>
      <trkpt lat="47.25294" lon="-1.54042">
        <ele>7.1999998092651</ele>
        <time>2019-04-02T07:19:29.000Z</time>
      </trkpt>
      <trkpt lat="47.25292" lon="-1.54042">
        <ele>7.1999998092651</ele>
        <time>2019-04-02T07:19:30.000Z</time>
      </trkpt>
      <trkpt lat="47.2529" lon="-1.54042">
        <ele>7</ele>
        <time>2019-04-02T07:19:31.000Z</time>
      </trkpt>
      <trkpt lat="47.2529" lon="-1.54042">
        <ele>7</ele>
        <time>2019-04-02T07:19:32.000Z</time>
      </trkpt>
      <trkpt lat="47.25288" lon="-1.54043">
        <ele>7</ele>
        <time>2019-04-02T07:19:33.000Z</time>
      </trkpt>
      <trkpt lat="47.25287" lon="-1.54043">
        <ele>7</ele>
        <time>2019-04-02T07:19:34.000Z</time>
      </trkpt>
      <trkpt lat="47.25286" lon="-1.54044">
        <ele>7</ele>
        <time>2019-04-02T07:19:35.000Z</time>
      </trkpt>
      <trkpt lat="47.25284" lon="-1.54044">
        <ele>7</ele>
        <time>2019-04-02T07:19:36.000Z</time>
      </trkpt>
      <trkpt lat="47.25282" lon="-1.54044">
        <ele>7</ele>
        <time>2019-04-02T07:19:37.000Z</time>
      </trkpt>
      <trkpt lat="47.25281" lon="-1.54045">
        <ele>6.8000001907349</ele>
        <time>2019-04-02T07:19:38.000Z</time>
      </trkpt>
      <trkpt lat="47.25279" lon="-1.54045">
        <ele>6.8000001907349</ele>
        <time>2019-04-02T07:19:39.000Z</time>
      </trkpt>
      <trkpt lat="47.25277" lon="-1.54045">
        <ele>6.8000001907349</ele>
        <time>2019-04-02T07:19:40.000Z</time>
      </trkpt>
      <trkpt lat="47.25275" lon="-1.54045">
        <ele>6.8000001907349</ele>
        <time>2019-04-02T07:19:41.000Z</time>
      </trkpt>
      <trkpt lat="47.25274" lon="-1.54045">
        <ele>6.5999999046326</ele>
        <time>2019-04-02T07:19:42.000Z</time>
      </trkpt>
      <trkpt lat="47.25272" lon="-1.54046">
        <ele>6.5999999046326</ele>
        <time>2019-04-02T07:19:43.000Z</time>
      </trkpt>
      <trkpt lat="47.25271" lon="-1.54046">
        <ele>6.5999999046326</ele>
        <time>2019-04-02T07:19:44.000Z</time>
      </trkpt>
      <trkpt lat="47.25269" lon="-1.54047">
        <ele>6.5999999046326</ele>
        <time>2019-04-02T07:19:45.000Z</time>
      </trkpt>
      <trkpt lat="47.25268" lon="-1.54047">
        <ele>6.5999999046326</ele>
        <time>2019-04-02T07:19:46.000Z</time>
      </trkpt>
      <trkpt lat="47.25267" lon="-1.54048">
        <ele>6.5999999046326</ele>
        <time>2019-04-02T07:19:47.000Z</time>
      </trkpt>
      <trkpt lat="47.25265" lon="-1.54048">
        <ele>6.5999999046326</ele>
        <time>2019-04-02T07:19:48.000Z</time>
      </trkpt>
      <trkpt lat="47.25264" lon="-1.54048">
        <ele>6.5999999046326</ele>
        <time>2019-04-02T07:19:49.000Z</time>
      </trkpt>
      <trkpt lat="47.25262" lon="-1.54049">
        <ele>6.5999999046326</ele>
        <time>2019-04-02T07:19:50.000Z</time>
      </trkpt>
      <trkpt lat="47.25261" lon="-1.5405">
        <ele>6.5999999046326</ele>
        <time>2019-04-02T07:19:51.000Z</time>
      </trkpt>
      <trkpt lat="47.25259" lon="-1.5405">
        <ele>6.5999999046326</ele>
        <time>2019-04-02T07:19:52.000Z</time>
      </trkpt>
      <trkpt lat="47.25258" lon="-1.54051">
        <ele>6.5999999046326</ele>
        <time>2019-04-02T07:19:53.000Z</time>
      </trkpt>
      <trkpt lat="47.25256" lon="-1.54052">
        <ele>6.5999999046326</ele>
        <time>2019-04-02T07:19:54.000Z</time>
      </trkpt>
      <trkpt lat="47.25255" lon="-1.54052">
        <ele>6.4000000953674</ele>
        <time>2019-04-02T07:19:55.000Z</time>
      </trkpt>
      <trkpt lat="47.25251" lon="-1.54053">
        <ele>6.4000000953674</ele>
        <time>2019-04-02T07:19:56.000Z</time>
      </trkpt>
      <trkpt lat="47.25251" lon="-1.54053">
        <ele>6.4000000953674</ele>
        <time>2019-04-02T07:19:57.000Z</time>
      </trkpt>
      <trkpt lat="47.25249" lon="-1.54054">
        <ele>6.4000000953674</ele>
        <time>2019-04-02T07:19:58.000Z</time>
      </trkpt>
      <trkpt lat="47.25247" lon="-1.54054">
        <ele>6.4000000953674</ele>
        <time>2019-04-02T07:19:59.000Z</time>
      </trkpt>
      <trkpt lat="47.25245" lon="-1.54054">
        <ele>6.4000000953674</ele>
        <time>2019-04-02T07:20:00.000Z</time>
      </trkpt>
      <trkpt lat="47.25244" lon="-1.54054">
        <ele>6.1999998092651</ele>
        <time>2019-04-02T07:20:01.000Z</time>
      </trkpt>
      <trkpt lat="47.25242" lon="-1.54054">
        <ele>6.1999998092651</ele>
        <time>2019-04-02T07:20:02.000Z</time>
      </trkpt>
      <trkpt lat="47.25241" lon="-1.54054">
        <ele>6.1999998092651</ele>
        <time>2019-04-02T07:20:03.000Z</time>
      </trkpt>
      <trkpt lat="47.25239" lon="-1.54055">
        <ele>6</ele>
        <time>2019-04-02T07:20:04.000Z</time>
      </trkpt>
      <trkpt lat="47.25238" lon="-1.54055">
        <ele>6</ele>
        <time>2019-04-02T07:20:05.000Z</time>
      </trkpt>
      <trkpt lat="47.25237" lon="-1.54056">
        <ele>6</ele>
        <time>2019-04-02T07:20:06.000Z</time>
      </trkpt>
      <trkpt lat="47.25235" lon="-1.54056">
        <ele>6</ele>
        <time>2019-04-02T07:20:07.000Z</time>
      </trkpt>
      <trkpt lat="47.25234" lon="-1.54057">
        <ele>6</ele>
        <time>2019-04-02T07:20:08.000Z</time>
      </trkpt>
      <trkpt lat="47.25233" lon="-1.54057">
        <ele>5.8000001907349</ele>
        <time>2019-04-02T07:20:09.000Z</time>
      </trkpt>
      <trkpt lat="47.25231" lon="-1.54058">
        <ele>5.8000001907349</ele>
        <time>2019-04-02T07:20:10.000Z</time>
      </trkpt>
      <trkpt lat="47.2523" lon="-1.54058">
        <ele>5.8000001907349</ele>
        <time>2019-04-02T07:20:11.000Z</time>
      </trkpt>
      <trkpt lat="47.25228" lon="-1.54058">
        <ele>5.8000001907349</ele>
        <time>2019-04-02T07:20:12.000Z</time>
      </trkpt>
      <trkpt lat="47.25227" lon="-1.54059">
        <ele>5.5999999046326</ele>
        <time>2019-04-02T07:20:13.000Z</time>
      </trkpt>
      <trkpt lat="47.25225" lon="-1.54059">
        <ele>5.5999999046326</ele>
        <time>2019-04-02T07:20:14.000Z</time>
      </trkpt>
      <trkpt lat="47.25224" lon="-1.5406">
        <ele>5.5999999046326</ele>
        <time>2019-04-02T07:20:15.000Z</time>
      </trkpt>
      <trkpt lat="47.25221" lon="-1.5406">
        <ele>5.4000000953674</ele>
        <time>2019-04-02T07:20:16.000Z</time>
      </trkpt>
      <trkpt lat="47.25221" lon="-1.5406">
        <ele>5.4000000953674</ele>
        <time>2019-04-02T07:20:17.000Z</time>
      </trkpt>
      <trkpt lat="47.2522" lon="-1.5406">
        <ele>5.4000000953674</ele>
        <time>2019-04-02T07:20:18.000Z</time>
      </trkpt>
      <trkpt lat="47.25219" lon="-1.5406">
        <ele>5.4000000953674</ele>
        <time>2019-04-02T07:20:19.000Z</time>
      </trkpt>
      <trkpt lat="47.25218" lon="-1.54061">
        <ele>5.4000000953674</ele>
        <time>2019-04-02T07:20:20.000Z</time>
      </trkpt>
      <trkpt lat="47.25217" lon="-1.54061">
        <ele>5.4000000953674</ele>
        <time>2019-04-02T07:20:21.000Z</time>
      </trkpt>
      <trkpt lat="47.25216" lon="-1.54062">
        <ele>5.1999998092651</ele>
        <time>2019-04-02T07:20:22.000Z</time>
      </trkpt>
      <trkpt lat="47.25215" lon="-1.54062">
        <ele>5.1999998092651</ele>
        <time>2019-04-02T07:20:23.000Z</time>
      </trkpt>
      <trkpt lat="47.25213" lon="-1.54062">
        <ele>5.1999998092651</ele>
        <time>2019-04-02T07:20:24.000Z</time>
      </trkpt>
      <trkpt lat="47.25212" lon="-1.54062">
        <ele>5.1999998092651</ele>
        <time>2019-04-02T07:20:25.000Z</time>
      </trkpt>
      <trkpt lat="47.25211" lon="-1.54062">
        <ele>5</ele>
        <time>2019-04-02T07:20:26.000Z</time>
      </trkpt>
      <trkpt lat="47.2521" lon="-1.54062">
        <ele>5</ele>
        <time>2019-04-02T07:20:27.000Z</time>
      </trkpt>
      <trkpt lat="47.25209" lon="-1.54063">
        <ele>5</ele>
        <time>2019-04-02T07:20:28.000Z</time>
      </trkpt>
      <trkpt lat="47.25207" lon="-1.54063">
        <ele>5</ele>
        <time>2019-04-02T07:20:29.000Z</time>
      </trkpt>
      <trkpt lat="47.25205" lon="-1.54063">
        <ele>4.8000001907349</ele>
        <time>2019-04-02T07:20:30.000Z</time>
      </trkpt>
      <trkpt lat="47.25204" lon="-1.54064">
        <ele>4.8000001907349</ele>
        <time>2019-04-02T07:20:31.000Z</time>
      </trkpt>
      <trkpt lat="47.252" lon="-1.54064">
        <ele>4.5999999046326</ele>
        <time>2019-04-02T07:20:32.000Z</time>
      </trkpt>
      <trkpt lat="47.252" lon="-1.54064">
        <ele>4.5999999046326</ele>
        <time>2019-04-02T07:20:33.000Z</time>
      </trkpt>
      <trkpt lat="47.25199" lon="-1.54065">
        <ele>4.5999999046326</ele>
        <time>2019-04-02T07:20:34.000Z</time>
      </trkpt>
      <trkpt lat="47.25197" lon="-1.54065">
        <ele>4.5999999046326</ele>
        <time>2019-04-02T07:20:35.000Z</time>
      </trkpt>
      <trkpt lat="47.25196" lon="-1.54065">
        <ele>4.5999999046326</ele>
        <time>2019-04-02T07:20:36.000Z</time>
      </trkpt>
      <trkpt lat="47.25195" lon="-1.54066">
        <ele>4.4000000953674</ele>
        <time>2019-04-02T07:20:37.000Z</time>
      </trkpt>
      <trkpt lat="47.25193" lon="-1.54067">
        <ele>4.4000000953674</ele>
        <time>2019-04-02T07:20:38.000Z</time>
      </trkpt>
      <trkpt lat="47.25192" lon="-1.54067">
        <ele>4.4000000953674</ele>
        <time>2019-04-02T07:20:39.000Z</time>
      </trkpt>
      <trkpt lat="47.25191" lon="-1.54068">
        <ele>4.4000000953674</ele>
        <time>2019-04-02T07:20:40.000Z</time>
      </trkpt>
      <trkpt lat="47.2519" lon="-1.54068">
        <ele>4.4000000953674</ele>
        <time>2019-04-02T07:20:41.000Z</time>
      </trkpt>
      <trkpt lat="47.25189" lon="-1.54069">
        <ele>4.4000000953674</ele>
        <time>2019-04-02T07:20:42.000Z</time>
      </trkpt>
      <trkpt lat="47.25187" lon="-1.54069">
        <ele>4.4000000953674</ele>
        <time>2019-04-02T07:20:43.000Z</time>
      </trkpt>
      <trkpt lat="47.25186" lon="-1.54069">
        <ele>4.4000000953674</ele>
        <time>2019-04-02T07:20:44.000Z</time>
      </trkpt>
      <trkpt lat="47.25184" lon="-1.54069">
        <ele>4.1999998092651</ele>
        <time>2019-04-02T07:20:45.000Z</time>
      </trkpt>
      <trkpt lat="47.25182" lon="-1.5407">
        <ele>4.1999998092651</ele>
        <time>2019-04-02T07:20:46.000Z</time>
      </trkpt>
      <trkpt lat="47.2518" lon="-1.5407">
        <ele>4.1999998092651</ele>
        <time>2019-04-02T07:20:47.000Z</time>
      </trkpt>
      <trkpt lat="47.25179" lon="-1.5407">
        <ele>4</ele>
        <time>2019-04-02T07:20:48.000Z</time>
      </trkpt>
      <trkpt lat="47.25177" lon="-1.5407">
        <ele>4</ele>
        <time>2019-04-02T07:20:49.000Z</time>
      </trkpt>
      <trkpt lat="47.25175" lon="-1.54071">
        <ele>4</ele>
        <time>2019-04-02T07:20:50.000Z</time>
      </trkpt>
      <trkpt lat="47.25174" lon="-1.54071">
        <ele>4</ele>
        <time>2019-04-02T07:20:51.000Z</time>
      </trkpt>
      <trkpt lat="47.25172" lon="-1.54071">
        <ele>3.7999999523163</ele>
        <time>2019-04-02T07:20:52.000Z</time>
      </trkpt>
      <trkpt lat="47.25171" lon="-1.54071">
        <ele>3.7999999523163</ele>
        <time>2019-04-02T07:20:53.000Z</time>
      </trkpt>
      <trkpt lat="47.2517" lon="-1.54071">
        <ele>3.7999999523163</ele>
        <time>2019-04-02T07:20:54.000Z</time>
      </trkpt>
      <trkpt lat="47.25168" lon="-1.54072">
        <ele>3.7999999523163</ele>
        <time>2019-04-02T07:20:55.000Z</time>
      </trkpt>
      <trkpt lat="47.25166" lon="-1.54072">
        <ele>3.7999999523163</ele>
        <time>2019-04-02T07:20:56.000Z</time>
      </trkpt>
      <trkpt lat="47.25165" lon="-1.54073">
        <ele>3.7999999523163</ele>
        <time>2019-04-02T07:20:57.000Z</time>
      </trkpt>
      <trkpt lat="47.25164" lon="-1.54073">
        <ele>3.5999999046326</ele>
        <time>2019-04-02T07:20:58.000Z</time>
      </trkpt>
      <trkpt lat="47.25162" lon="-1.54073">
        <ele>3.5999999046326</ele>
        <time>2019-04-02T07:20:59.000Z</time>
      </trkpt>
      <trkpt lat="47.25161" lon="-1.54074">
        <ele>3.5999999046326</ele>
        <time>2019-04-02T07:21:00.000Z</time>
      </trkpt>
      <trkpt lat="47.25157" lon="-1.54074">
        <ele>3.5999999046326</ele>
        <time>2019-04-02T07:21:01.000Z</time>
      </trkpt>
      <trkpt lat="47.25157" lon="-1.54074">
        <ele>3.5999999046326</ele>
        <time>2019-04-02T07:21:02.000Z</time>
      </trkpt>
      <trkpt lat="47.25156" lon="-1.54074">
        <ele>3.4000000953674</ele>
        <time>2019-04-02T07:21:03.000Z</time>
      </trkpt>
      <trkpt lat="47.25154" lon="-1.54074">
        <ele>3.5999999046326</ele>
        <time>2019-04-02T07:21:04.000Z</time>
      </trkpt>
      <trkpt lat="47.25153" lon="-1.54075">
        <ele>3.5999999046326</ele>
        <time>2019-04-02T07:21:05.000Z</time>
      </trkpt>
      <trkpt lat="47.25152" lon="-1.54076">
        <ele>3.5999999046326</ele>
        <time>2019-04-02T07:21:06.000Z</time>
      </trkpt>
      <trkpt lat="47.25151" lon="-1.54077">
        <ele>3.5999999046326</ele>
        <time>2019-04-02T07:21:07.000Z</time>
      </trkpt>
      <trkpt lat="47.2515" lon="-1.54078">
        <ele>3.7999999523163</ele>
        <time>2019-04-02T07:21:08.000Z</time>
      </trkpt>
      <trkpt lat="47.25149" lon="-1.54079">
        <ele>3.7999999523163</ele>
        <time>2019-04-02T07:21:09.000Z</time>
      </trkpt>
      <trkpt lat="47.25148" lon="-1.5408">
        <ele>3.7999999523163</ele>
        <time>2019-04-02T07:21:10.000Z</time>
      </trkpt>
      <trkpt lat="47.25147" lon="-1.54081">
        <ele>4</ele>
        <time>2019-04-02T07:21:11.000Z</time>
      </trkpt>
      <trkpt lat="47.25144" lon="-1.54083">
        <ele>4.1999998092651</ele>
        <time>2019-04-02T07:21:12.000Z</time>
      </trkpt>
      <trkpt lat="47.25144" lon="-1.54083">
        <ele>4.1999998092651</ele>
        <time>2019-04-02T07:21:13.000Z</time>
      </trkpt>
      <trkpt lat="47.25143" lon="-1.54085">
        <ele>4.1999998092651</ele>
        <time>2019-04-02T07:21:14.000Z</time>
      </trkpt>
      <trkpt lat="47.25142" lon="-1.54086">
        <ele>4.4000000953674</ele>
        <time>2019-04-02T07:21:15.000Z</time>
      </trkpt>
      <trkpt lat="47.2514" lon="-1.54087">
        <ele>4.4000000953674</ele>
        <time>2019-04-02T07:21:16.000Z</time>
      </trkpt>
      <trkpt lat="47.25139" lon="-1.54089">
        <ele>4.5999999046326</ele>
        <time>2019-04-02T07:21:17.000Z</time>
      </trkpt>
      <trkpt lat="47.25138" lon="-1.5409">
        <ele>4.5999999046326</ele>
        <time>2019-04-02T07:21:18.000Z</time>
      </trkpt>
      <trkpt lat="47.25136" lon="-1.54092">
        <ele>4.8000001907349</ele>
        <time>2019-04-02T07:21:19.000Z</time>
      </trkpt>
      <trkpt lat="47.25135" lon="-1.54093">
        <ele>4.8000001907349</ele>
        <time>2019-04-02T07:21:20.000Z</time>
      </trkpt>
      <trkpt lat="47.25134" lon="-1.54095">
        <ele>5</ele>
        <time>2019-04-02T07:21:21.000Z</time>
      </trkpt>
      <trkpt lat="47.25133" lon="-1.54096">
        <ele>5</ele>
        <time>2019-04-02T07:21:22.000Z</time>
      </trkpt>
      <trkpt lat="47.25131" lon="-1.54099">
        <ele>5.1999998092651</ele>
        <time>2019-04-02T07:21:23.000Z</time>
      </trkpt>
      <trkpt lat="47.25131" lon="-1.54099">
        <ele>5.1999998092651</ele>
        <time>2019-04-02T07:21:24.000Z</time>
      </trkpt>
      <trkpt lat="47.2513" lon="-1.54101">
        <ele>5.4000000953674</ele>
        <time>2019-04-02T07:21:25.000Z</time>
      </trkpt>
      <trkpt lat="47.25129" lon="-1.54102">
        <ele>5.5999999046326</ele>
        <time>2019-04-02T07:21:26.000Z</time>
      </trkpt>
      <trkpt lat="47.25127" lon="-1.54106">
        <ele>5.8000001907349</ele>
        <time>2019-04-02T07:21:27.000Z</time>
      </trkpt>
      <trkpt lat="47.25127" lon="-1.54106">
        <ele>5.8000001907349</ele>
        <time>2019-04-02T07:21:28.000Z</time>
      </trkpt>
      <trkpt lat="47.25126" lon="-1.54108">
        <ele>6</ele>
        <time>2019-04-02T07:21:29.000Z</time>
      </trkpt>
      <trkpt lat="47.25124" lon="-1.5411">
        <ele>6.1999998092651</ele>
        <time>2019-04-02T07:21:30.000Z</time>
      </trkpt>
      <trkpt lat="47.25123" lon="-1.54111">
        <ele>6.4000000953674</ele>
        <time>2019-04-02T07:21:31.000Z</time>
      </trkpt>
      <trkpt lat="47.25121" lon="-1.54113">
        <ele>6.4000000953674</ele>
        <time>2019-04-02T07:21:32.000Z</time>
      </trkpt>
      <trkpt lat="47.2512" lon="-1.54114">
        <ele>6.4000000953674</ele>
        <time>2019-04-02T07:21:33.000Z</time>
      </trkpt>
      <trkpt lat="47.25118" lon="-1.54116">
        <ele>6.5999999046326</ele>
        <time>2019-04-02T07:21:34.000Z</time>
      </trkpt>
      <trkpt lat="47.25118" lon="-1.54116">
        <ele>6.5999999046326</ele>
        <time>2019-04-02T07:21:35.000Z</time>
      </trkpt>
      <trkpt lat="47.25116" lon="-1.54117">
        <ele>6.8000001907349</ele>
        <time>2019-04-02T07:21:36.000Z</time>
      </trkpt>
      <trkpt lat="47.25114" lon="-1.54119">
        <ele>6.8000001907349</ele>
        <time>2019-04-02T07:21:37.000Z</time>
      </trkpt>
      <trkpt lat="47.25114" lon="-1.54119">
        <ele>6.8000001907349</ele>
        <time>2019-04-02T07:21:38.000Z</time>
      </trkpt>
      <trkpt lat="47.25113" lon="-1.5412">
        <ele>6.8000001907349</ele>
        <time>2019-04-02T07:21:39.000Z</time>
      </trkpt>
      <trkpt lat="47.25112" lon="-1.54121">
        <ele>7</ele>
        <time>2019-04-02T07:21:40.000Z</time>
      </trkpt>
      <trkpt lat="47.2511" lon="-1.54122">
        <ele>7</ele>
        <time>2019-04-02T07:21:41.000Z</time>
      </trkpt>
      <trkpt lat="47.25109" lon="-1.54123">
        <ele>7.1999998092651</ele>
        <time>2019-04-02T07:21:42.000Z</time>
      </trkpt>
      <trkpt lat="47.25107" lon="-1.54124">
        <ele>7.1999998092651</ele>
        <time>2019-04-02T07:21:43.000Z</time>
      </trkpt>
      <trkpt lat="47.25106" lon="-1.54125">
        <ele>7.1999998092651</ele>
        <time>2019-04-02T07:21:44.000Z</time>
      </trkpt>
      <trkpt lat="47.25104" lon="-1.54126">
        <ele>7.1999998092651</ele>
        <time>2019-04-02T07:21:45.000Z</time>
      </trkpt>
      <trkpt lat="47.25102" lon="-1.54127">
        <ele>7.1999998092651</ele>
        <time>2019-04-02T07:21:46.000Z</time>
      </trkpt>
      <trkpt lat="47.25101" lon="-1.54128">
        <ele>7.4000000953674</ele>
        <time>2019-04-02T07:21:47.000Z</time>
      </trkpt>
      <trkpt lat="47.25099" lon="-1.54129">
        <ele>7.4000000953674</ele>
        <time>2019-04-02T07:21:48.000Z</time>
      </trkpt>
      <trkpt lat="47.25097" lon="-1.5413">
        <ele>7.4000000953674</ele>
        <time>2019-04-02T07:21:49.000Z</time>
      </trkpt>
      <trkpt lat="47.25096" lon="-1.54131">
        <ele>7.5999999046326</ele>
        <time>2019-04-02T07:21:50.000Z</time>
      </trkpt>
      <trkpt lat="47.25095" lon="-1.54131">
        <ele>7.5999999046326</ele>
        <time>2019-04-02T07:21:51.000Z</time>
      </trkpt>
      <trkpt lat="47.25094" lon="-1.54132">
        <ele>7.5999999046326</ele>
        <time>2019-04-02T07:21:52.000Z</time>
      </trkpt>
      <trkpt lat="47.25093" lon="-1.54133">
        <ele>7.8000001907349</ele>
        <time>2019-04-02T07:21:53.000Z</time>
      </trkpt>
      <trkpt lat="47.25092" lon="-1.54133">
        <ele>7.8000001907349</ele>
        <time>2019-04-02T07:21:54.000Z</time>
      </trkpt>
      <trkpt lat="47.2509" lon="-1.54134">
        <ele>7.8000001907349</ele>
        <time>2019-04-02T07:21:55.000Z</time>
      </trkpt>
      <trkpt lat="47.25089" lon="-1.54135">
        <ele>8</ele>
        <time>2019-04-02T07:21:56.000Z</time>
      </trkpt>
      <trkpt lat="47.25088" lon="-1.54136">
        <ele>8</ele>
        <time>2019-04-02T07:21:57.000Z</time>
      </trkpt>
      <trkpt lat="47.25086" lon="-1.54138">
        <ele>8</ele>
        <time>2019-04-02T07:21:58.000Z</time>
      </trkpt>
      <trkpt lat="47.25085" lon="-1.54139">
        <ele>8.1999998092651</ele>
        <time>2019-04-02T07:21:59.000Z</time>
      </trkpt>
      <trkpt lat="47.25083" lon="-1.5414">
        <ele>8.1999998092651</ele>
        <time>2019-04-02T07:22:00.000Z</time>
      </trkpt>
      <trkpt lat="47.25082" lon="-1.54142">
        <ele>8.3999996185303</ele>
        <time>2019-04-02T07:22:01.000Z</time>
      </trkpt>
      <trkpt lat="47.25081" lon="-1.54143">
        <ele>8.3999996185303</ele>
        <time>2019-04-02T07:22:02.000Z</time>
      </trkpt>
      <trkpt lat="47.25079" lon="-1.54144">
        <ele>8.6000003814697</ele>
        <time>2019-04-02T07:22:03.000Z</time>
      </trkpt>
      <trkpt lat="47.25077" lon="-1.54146">
        <ele>8.6000003814697</ele>
        <time>2019-04-02T07:22:04.000Z</time>
      </trkpt>
      <trkpt lat="47.25077" lon="-1.54146">
        <ele>8.6000003814697</ele>
        <time>2019-04-02T07:22:05.000Z</time>
      </trkpt>
      <trkpt lat="47.25076" lon="-1.54148">
        <ele>8.8000001907349</ele>
        <time>2019-04-02T07:22:06.000Z</time>
      </trkpt>
      <trkpt lat="47.25075" lon="-1.54149">
        <ele>8.8000001907349</ele>
        <time>2019-04-02T07:22:07.000Z</time>
      </trkpt>
      <trkpt lat="47.25073" lon="-1.54149">
        <ele>8.8000001907349</ele>
        <time>2019-04-02T07:22:08.000Z</time>
      </trkpt>
      <trkpt lat="47.25072" lon="-1.5415">
        <ele>8.8000001907349</ele>
        <time>2019-04-02T07:22:09.000Z</time>
      </trkpt>
      <trkpt lat="47.2507" lon="-1.54152">
        <ele>9</ele>
        <time>2019-04-02T07:22:10.000Z</time>
      </trkpt>
      <trkpt lat="47.2507" lon="-1.54152">
        <ele>9</ele>
        <time>2019-04-02T07:22:11.000Z</time>
      </trkpt>
      <trkpt lat="47.25069" lon="-1.54153">
        <ele>9</ele>
        <time>2019-04-02T07:22:12.000Z</time>
      </trkpt>
      <trkpt lat="47.25067" lon="-1.54154">
        <ele>8.8000001907349</ele>
        <time>2019-04-02T07:22:13.000Z</time>
      </trkpt>
      <trkpt lat="47.25066" lon="-1.54155">
        <ele>8.8000001907349</ele>
        <time>2019-04-02T07:22:14.000Z</time>
      </trkpt>
      <trkpt lat="47.25065" lon="-1.54157">
        <ele>8.8000001907349</ele>
        <time>2019-04-02T07:22:15.000Z</time>
      </trkpt>
      <trkpt lat="47.25064" lon="-1.54158">
        <ele>9</ele>
        <time>2019-04-02T07:22:16.000Z</time>
      </trkpt>
      <trkpt lat="47.25063" lon="-1.54159">
        <ele>9</ele>
        <time>2019-04-02T07:22:17.000Z</time>
      </trkpt>
      <trkpt lat="47.25061" lon="-1.5416">
        <ele>9</ele>
        <time>2019-04-02T07:22:18.000Z</time>
      </trkpt>
      <trkpt lat="47.2506" lon="-1.54162">
        <ele>9</ele>
        <time>2019-04-02T07:22:19.000Z</time>
      </trkpt>
      <trkpt lat="47.25059" lon="-1.54163">
        <ele>9</ele>
        <time>2019-04-02T07:22:20.000Z</time>
      </trkpt>
      <trkpt lat="47.25058" lon="-1.54164">
        <ele>9</ele>
        <time>2019-04-02T07:22:21.000Z</time>
      </trkpt>
      <trkpt lat="47.25057" lon="-1.54165">
        <ele>9</ele>
        <time>2019-04-02T07:22:22.000Z</time>
      </trkpt>
      <trkpt lat="47.25056" lon="-1.54166">
        <ele>9</ele>
        <time>2019-04-02T07:22:23.000Z</time>
      </trkpt>
      <trkpt lat="47.25054" lon="-1.54169">
        <ele>9</ele>
        <time>2019-04-02T07:22:24.000Z</time>
      </trkpt>
      <trkpt lat="47.25054" lon="-1.54169">
        <ele>9</ele>
        <time>2019-04-02T07:22:25.000Z</time>
      </trkpt>
      <trkpt lat="47.25052" lon="-1.54171">
        <ele>9</ele>
        <time>2019-04-02T07:22:26.000Z</time>
      </trkpt>
      <trkpt lat="47.25051" lon="-1.54172">
        <ele>9</ele>
        <time>2019-04-02T07:22:27.000Z</time>
      </trkpt>
      <trkpt lat="47.25049" lon="-1.54174">
        <ele>9</ele>
        <time>2019-04-02T07:22:28.000Z</time>
      </trkpt>
      <trkpt lat="47.25048" lon="-1.54176">
        <ele>9</ele>
        <time>2019-04-02T07:22:29.000Z</time>
      </trkpt>
      <trkpt lat="47.25047" lon="-1.54178">
        <ele>9</ele>
        <time>2019-04-02T07:22:30.000Z</time>
      </trkpt>
      <trkpt lat="47.25046" lon="-1.54179">
        <ele>9</ele>
        <time>2019-04-02T07:22:31.000Z</time>
      </trkpt>
      <trkpt lat="47.25045" lon="-1.5418">
        <ele>9</ele>
        <time>2019-04-02T07:22:32.000Z</time>
      </trkpt>
      <trkpt lat="47.25044" lon="-1.54181">
        <ele>9</ele>
        <time>2019-04-02T07:22:33.000Z</time>
      </trkpt>
      <trkpt lat="47.25043" lon="-1.54182">
        <ele>9</ele>
        <time>2019-04-02T07:22:34.000Z</time>
      </trkpt>
      <trkpt lat="47.25043" lon="-1.54183">
        <ele>9</ele>
        <time>2019-04-02T07:22:35.000Z</time>
      </trkpt>
      <trkpt lat="47.25042" lon="-1.54185">
        <ele>9</ele>
        <time>2019-04-02T07:22:36.000Z</time>
      </trkpt>
      <trkpt lat="47.25041" lon="-1.54186">
        <ele>9</ele>
        <time>2019-04-02T07:22:37.000Z</time>
      </trkpt>
      <trkpt lat="47.2504" lon="-1.54187">
        <ele>9</ele>
        <time>2019-04-02T07:22:38.000Z</time>
      </trkpt>
      <trkpt lat="47.25039" lon="-1.54188">
        <ele>9</ele>
        <time>2019-04-02T07:22:39.000Z</time>
      </trkpt>
      <trkpt lat="47.25037" lon="-1.54189">
        <ele>9</ele>
        <time>2019-04-02T07:22:40.000Z</time>
      </trkpt>
      <trkpt lat="47.25036" lon="-1.54191">
        <ele>9</ele>
        <time>2019-04-02T07:22:41.000Z</time>
      </trkpt>
      <trkpt lat="47.25035" lon="-1.54192">
        <ele>9</ele>
        <time>2019-04-02T07:22:42.000Z</time>
      </trkpt>
      <trkpt lat="47.25033" lon="-1.54193">
        <ele>9</ele>
        <time>2019-04-02T07:22:43.000Z</time>
      </trkpt>
      <trkpt lat="47.25032" lon="-1.54195">
        <ele>9</ele>
        <time>2019-04-02T07:22:44.000Z</time>
      </trkpt>
      <trkpt lat="47.25031" lon="-1.54196">
        <ele>9</ele>
        <time>2019-04-02T07:22:45.000Z</time>
      </trkpt>
      <trkpt lat="47.25029" lon="-1.54198">
        <ele>9</ele>
        <time>2019-04-02T07:22:46.000Z</time>
      </trkpt>
      <trkpt lat="47.25028" lon="-1.54199">
        <ele>9</ele>
        <time>2019-04-02T07:22:47.000Z</time>
      </trkpt>
      <trkpt lat="47.25027" lon="-1.54201">
        <ele>9</ele>
        <time>2019-04-02T07:22:48.000Z</time>
      </trkpt>
      <trkpt lat="47.25026" lon="-1.54202">
        <ele>9</ele>
        <time>2019-04-02T07:22:49.000Z</time>
      </trkpt>
      <trkpt lat="47.25025" lon="-1.54204">
        <ele>9</ele>
        <time>2019-04-02T07:22:50.000Z</time>
      </trkpt>
      <trkpt lat="47.25024" lon="-1.54205">
        <ele>9</ele>
        <time>2019-04-02T07:22:51.000Z</time>
      </trkpt>
      <trkpt lat="47.25022" lon="-1.54207">
        <ele>9</ele>
        <time>2019-04-02T07:22:52.000Z</time>
      </trkpt>
      <trkpt lat="47.2502" lon="-1.5421">
        <ele>9</ele>
        <time>2019-04-02T07:22:53.000Z</time>
      </trkpt>
      <trkpt lat="47.2502" lon="-1.5421">
        <ele>9</ele>
        <time>2019-04-02T07:22:54.000Z</time>
      </trkpt>
      <trkpt lat="47.25019" lon="-1.54212">
        <ele>9</ele>
        <time>2019-04-02T07:22:55.000Z</time>
      </trkpt>
      <trkpt lat="47.25018" lon="-1.54213">
        <ele>9</ele>
        <time>2019-04-02T07:22:56.000Z</time>
      </trkpt>
      <trkpt lat="47.25016" lon="-1.54216">
        <ele>9.1999998092651</ele>
        <time>2019-04-02T07:22:57.000Z</time>
      </trkpt>
      <trkpt lat="47.25016" lon="-1.54216">
        <ele>9.1999998092651</ele>
        <time>2019-04-02T07:22:58.000Z</time>
      </trkpt>
      <trkpt lat="47.25015" lon="-1.54218">
        <ele>9.1999998092651</ele>
        <time>2019-04-02T07:22:59.000Z</time>
      </trkpt>
      <trkpt lat="47.25014" lon="-1.54219">
        <ele>9.1999998092651</ele>
        <time>2019-04-02T07:23:00.000Z</time>
      </trkpt>
      <trkpt lat="47.25011" lon="-1.54222">
        <ele>9.1999998092651</ele>
        <time>2019-04-02T07:23:01.000Z</time>
      </trkpt>
      <trkpt lat="47.2501" lon="-1.54223">
        <ele>9.1999998092651</ele>
        <time>2019-04-02T07:23:02.000Z</time>
      </trkpt>
      <trkpt lat="47.2501" lon="-1.54223">
        <ele>9.1999998092651</ele>
        <time>2019-04-02T07:23:03.000Z</time>
      </trkpt>
      <trkpt lat="47.25009" lon="-1.54224">
        <ele>9.1999998092651</ele>
        <time>2019-04-02T07:23:04.000Z</time>
      </trkpt>
      <trkpt lat="47.25008" lon="-1.54225">
        <ele>9.1999998092651</ele>
        <time>2019-04-02T07:23:05.000Z</time>
      </trkpt>
      <trkpt lat="47.25007" lon="-1.54226">
        <ele>9.1999998092651</ele>
        <time>2019-04-02T07:23:06.000Z</time>
      </trkpt>
      <trkpt lat="47.25006" lon="-1.54227">
        <ele>9.1999998092651</ele>
        <time>2019-04-02T07:23:07.000Z</time>
      </trkpt>
      <trkpt lat="47.25005" lon="-1.54228">
        <ele>9.1999998092651</ele>
        <time>2019-04-02T07:23:08.000Z</time>
      </trkpt>
      <trkpt lat="47.25003" lon="-1.54229">
        <ele>9.1999998092651</ele>
        <time>2019-04-02T07:23:09.000Z</time>
      </trkpt>
      <trkpt lat="47.25002" lon="-1.5423">
        <ele>9.1999998092651</ele>
        <time>2019-04-02T07:23:10.000Z</time>
      </trkpt>
      <trkpt lat="47.25001" lon="-1.54232">
        <ele>9.1999998092651</ele>
        <time>2019-04-02T07:23:11.000Z</time>
      </trkpt>
      <trkpt lat="47.25" lon="-1.54233">
        <ele>9.1999998092651</ele>
        <time>2019-04-02T07:23:12.000Z</time>
      </trkpt>
      <trkpt lat="47.24997" lon="-1.54236">
        <ele>9.1999998092651</ele>
        <time>2019-04-02T07:23:13.000Z</time>
      </trkpt>
      <trkpt lat="47.24997" lon="-1.54236">
        <ele>9.1999998092651</ele>
        <time>2019-04-02T07:23:14.000Z</time>
      </trkpt>
      <trkpt lat="47.24996" lon="-1.54237">
        <ele>9.1999998092651</ele>
        <time>2019-04-02T07:23:15.000Z</time>
      </trkpt>
      <trkpt lat="47.24996" lon="-1.54239">
        <ele>9.1999998092651</ele>
        <time>2019-04-02T07:23:16.000Z</time>
      </trkpt>
      <trkpt lat="47.24995" lon="-1.5424">
        <ele>9.1999998092651</ele>
        <time>2019-04-02T07:23:17.000Z</time>
      </trkpt>
      <trkpt lat="47.24994" lon="-1.54242">
        <ele>9.3999996185303</ele>
        <time>2019-04-02T07:23:18.000Z</time>
      </trkpt>
      <trkpt lat="47.24993" lon="-1.54243">
        <ele>9.3999996185303</ele>
        <time>2019-04-02T07:23:19.000Z</time>
      </trkpt>
      <trkpt lat="47.24992" lon="-1.54245">
        <ele>9.3999996185303</ele>
        <time>2019-04-02T07:23:20.000Z</time>
      </trkpt>
      <trkpt lat="47.24991" lon="-1.54246">
        <ele>9.3999996185303</ele>
        <time>2019-04-02T07:23:21.000Z</time>
      </trkpt>
      <trkpt lat="47.2499" lon="-1.54247">
        <ele>9.6000003814697</ele>
        <time>2019-04-02T07:23:22.000Z</time>
      </trkpt>
      <trkpt lat="47.24989" lon="-1.54248">
        <ele>9.6000003814697</ele>
        <time>2019-04-02T07:23:23.000Z</time>
      </trkpt>
      <trkpt lat="47.24988" lon="-1.54249">
        <ele>9.6000003814697</ele>
        <time>2019-04-02T07:23:24.000Z</time>
      </trkpt>
      <trkpt lat="47.24987" lon="-1.5425">
        <ele>9.6000003814697</ele>
        <time>2019-04-02T07:23:25.000Z</time>
      </trkpt>
      <trkpt lat="47.24986" lon="-1.54251">
        <ele>9.8000001907349</ele>
        <time>2019-04-02T07:23:26.000Z</time>
      </trkpt>
      <trkpt lat="47.24984" lon="-1.54252">
        <ele>9.8000001907349</ele>
        <time>2019-04-02T07:23:27.000Z</time>
      </trkpt>
      <trkpt lat="47.24983" lon="-1.54254">
        <ele>9.8000001907349</ele>
        <time>2019-04-02T07:23:28.000Z</time>
      </trkpt>
      <trkpt lat="47.24982" lon="-1.54255">
        <ele>10</ele>
        <time>2019-04-02T07:23:29.000Z</time>
      </trkpt>
      <trkpt lat="47.24981" lon="-1.54257">
        <ele>10</ele>
        <time>2019-04-02T07:23:30.000Z</time>
      </trkpt>
      <trkpt lat="47.2498" lon="-1.54258">
        <ele>10</ele>
        <time>2019-04-02T07:23:31.000Z</time>
      </trkpt>
      <trkpt lat="47.24978" lon="-1.54261">
        <ele>10.199999809265</ele>
        <time>2019-04-02T07:23:32.000Z</time>
      </trkpt>
      <trkpt lat="47.24978" lon="-1.54261">
        <ele>10.199999809265</ele>
        <time>2019-04-02T07:23:33.000Z</time>
      </trkpt>
      <trkpt lat="47.24977" lon="-1.54263">
        <ele>10.199999809265</ele>
        <time>2019-04-02T07:23:34.000Z</time>
      </trkpt>
      <trkpt lat="47.24975" lon="-1.54264">
        <ele>10.39999961853</ele>
        <time>2019-04-02T07:23:35.000Z</time>
      </trkpt>
      <trkpt lat="47.24974" lon="-1.54265">
        <ele>10.39999961853</ele>
        <time>2019-04-02T07:23:36.000Z</time>
      </trkpt>
      <trkpt lat="47.24972" lon="-1.54268">
        <ele>10.60000038147</ele>
        <time>2019-04-02T07:23:37.000Z</time>
      </trkpt>
      <trkpt lat="47.24972" lon="-1.54268">
        <ele>10.60000038147</ele>
        <time>2019-04-02T07:23:38.000Z</time>
      </trkpt>
      <trkpt lat="47.2497" lon="-1.54269">
        <ele>10.60000038147</ele>
        <time>2019-04-02T07:23:39.000Z</time>
      </trkpt>
      <trkpt lat="47.24969" lon="-1.5427">
        <ele>10.60000038147</ele>
        <time>2019-04-02T07:23:40.000Z</time>
      </trkpt>
      <trkpt lat="47.24968" lon="-1.54272">
        <ele>10.60000038147</ele>
        <time>2019-04-02T07:23:41.000Z</time>
      </trkpt>
      <trkpt lat="47.24967" lon="-1.54273">
        <ele>10.800000190735</ele>
        <time>2019-04-02T07:23:42.000Z</time>
      </trkpt>
      <trkpt lat="47.24966" lon="-1.54275">
        <ele>10.800000190735</ele>
        <time>2019-04-02T07:23:43.000Z</time>
      </trkpt>
      <trkpt lat="47.24964" lon="-1.54276">
        <ele>10.800000190735</ele>
        <time>2019-04-02T07:23:44.000Z</time>
      </trkpt>
      <trkpt lat="47.24964" lon="-1.54277">
        <ele>11</ele>
        <time>2019-04-02T07:23:45.000Z</time>
      </trkpt>
      <trkpt lat="47.24963" lon="-1.54279">
        <ele>11</ele>
        <time>2019-04-02T07:23:46.000Z</time>
      </trkpt>
      <trkpt lat="47.24961" lon="-1.54283">
        <ele>11.199999809265</ele>
        <time>2019-04-02T07:23:47.000Z</time>
      </trkpt>
      <trkpt lat="47.24961" lon="-1.54283">
        <ele>11.199999809265</ele>
        <time>2019-04-02T07:23:48.000Z</time>
      </trkpt>
      <trkpt lat="47.24961" lon="-1.54284">
        <ele>11.199999809265</ele>
        <time>2019-04-02T07:23:49.000Z</time>
      </trkpt>
      <trkpt lat="47.2496" lon="-1.54286">
        <ele>11.39999961853</ele>
        <time>2019-04-02T07:23:50.000Z</time>
      </trkpt>
      <trkpt lat="47.24959" lon="-1.54288">
        <ele>11.39999961853</ele>
        <time>2019-04-02T07:23:51.000Z</time>
      </trkpt>
      <trkpt lat="47.24958" lon="-1.5429">
        <ele>11.39999961853</ele>
        <time>2019-04-02T07:23:52.000Z</time>
      </trkpt>
      <trkpt lat="47.24957" lon="-1.54292">
        <ele>11.60000038147</ele>
        <time>2019-04-02T07:23:53.000Z</time>
      </trkpt>
      <trkpt lat="47.24956" lon="-1.54293">
        <ele>11.60000038147</ele>
        <time>2019-04-02T07:23:54.000Z</time>
      </trkpt>
      <trkpt lat="47.24954" lon="-1.54295">
        <ele>11.60000038147</ele>
        <time>2019-04-02T07:23:55.000Z</time>
      </trkpt>
      <trkpt lat="47.24953" lon="-1.54296">
        <ele>11.800000190735</ele>
        <time>2019-04-02T07:23:56.000Z</time>
      </trkpt>
      <trkpt lat="47.24952" lon="-1.54297">
        <ele>11.800000190735</ele>
        <time>2019-04-02T07:23:57.000Z</time>
      </trkpt>
      <trkpt lat="47.24951" lon="-1.54299">
        <ele>11.800000190735</ele>
        <time>2019-04-02T07:23:58.000Z</time>
      </trkpt>
      <trkpt lat="47.2495" lon="-1.543">
        <ele>12</ele>
        <time>2019-04-02T07:23:59.000Z</time>
      </trkpt>
      <trkpt lat="47.24949" lon="-1.54302">
        <ele>12</ele>
        <time>2019-04-02T07:24:00.000Z</time>
      </trkpt>
      <trkpt lat="47.24948" lon="-1.54304">
        <ele>12</ele>
        <time>2019-04-02T07:24:01.000Z</time>
      </trkpt>
      <trkpt lat="47.24947" lon="-1.54306">
        <ele>12.199999809265</ele>
        <time>2019-04-02T07:24:02.000Z</time>
      </trkpt>
      <trkpt lat="47.24946" lon="-1.54307">
        <ele>12.199999809265</ele>
        <time>2019-04-02T07:24:03.000Z</time>
      </trkpt>
      <trkpt lat="47.24945" lon="-1.54308">
        <ele>12.199999809265</ele>
        <time>2019-04-02T07:24:04.000Z</time>
      </trkpt>
      <trkpt lat="47.24943" lon="-1.54311">
        <ele>12.39999961853</ele>
        <time>2019-04-02T07:24:05.000Z</time>
      </trkpt>
      <trkpt lat="47.24943" lon="-1.54311">
        <ele>12.39999961853</ele>
        <time>2019-04-02T07:24:06.000Z</time>
      </trkpt>
      <trkpt lat="47.24942" lon="-1.54313">
        <ele>12.39999961853</ele>
        <time>2019-04-02T07:24:07.000Z</time>
      </trkpt>
      <trkpt lat="47.24941" lon="-1.54314">
        <ele>12.60000038147</ele>
        <time>2019-04-02T07:24:08.000Z</time>
      </trkpt>
      <trkpt lat="47.24939" lon="-1.54315">
        <ele>12.60000038147</ele>
        <time>2019-04-02T07:24:09.000Z</time>
      </trkpt>
      <trkpt lat="47.24938" lon="-1.54316">
        <ele>12.60000038147</ele>
        <time>2019-04-02T07:24:10.000Z</time>
      </trkpt>
      <trkpt lat="47.24937" lon="-1.54317">
        <ele>12.800000190735</ele>
        <time>2019-04-02T07:24:11.000Z</time>
      </trkpt>
      <trkpt lat="47.24936" lon="-1.54319">
        <ele>12.800000190735</ele>
        <time>2019-04-02T07:24:12.000Z</time>
      </trkpt>
      <trkpt lat="47.24935" lon="-1.5432">
        <ele>12.800000190735</ele>
        <time>2019-04-02T07:24:13.000Z</time>
      </trkpt>
      <trkpt lat="47.24934" lon="-1.54321">
        <ele>13</ele>
        <time>2019-04-02T07:24:14.000Z</time>
      </trkpt>
      <trkpt lat="47.24932" lon="-1.54322">
        <ele>13</ele>
        <time>2019-04-02T07:24:15.000Z</time>
      </trkpt>
      <trkpt lat="47.24931" lon="-1.54324">
        <ele>13.199999809265</ele>
        <time>2019-04-02T07:24:16.000Z</time>
      </trkpt>
      <trkpt lat="47.2493" lon="-1.54325">
        <ele>13.199999809265</ele>
        <time>2019-04-02T07:24:17.000Z</time>
      </trkpt>
      <trkpt lat="47.24929" lon="-1.54327">
        <ele>13.39999961853</ele>
        <time>2019-04-02T07:24:18.000Z</time>
      </trkpt>
      <trkpt lat="47.24928" lon="-1.54328">
        <ele>13.39999961853</ele>
        <time>2019-04-02T07:24:19.000Z</time>
      </trkpt>
      <trkpt lat="47.24926" lon="-1.54329">
        <ele>13.60000038147</ele>
        <time>2019-04-02T07:24:20.000Z</time>
      </trkpt>
      <trkpt lat="47.24925" lon="-1.54331">
        <ele>13.60000038147</ele>
        <time>2019-04-02T07:24:21.000Z</time>
      </trkpt>
      <trkpt lat="47.24924" lon="-1.54332">
        <ele>13.800000190735</ele>
        <time>2019-04-02T07:24:22.000Z</time>
      </trkpt>
      <trkpt lat="47.24923" lon="-1.54333">
        <ele>13.800000190735</ele>
        <time>2019-04-02T07:24:23.000Z</time>
      </trkpt>
      <trkpt lat="47.24922" lon="-1.54334">
        <ele>13.800000190735</ele>
        <time>2019-04-02T07:24:24.000Z</time>
      </trkpt>
      <trkpt lat="47.24921" lon="-1.54335">
        <ele>14</ele>
        <time>2019-04-02T07:24:25.000Z</time>
      </trkpt>
      <trkpt lat="47.2492" lon="-1.54336">
        <ele>14</ele>
        <time>2019-04-02T07:24:26.000Z</time>
      </trkpt>
      <trkpt lat="47.24919" lon="-1.54337">
        <ele>14.199999809265</ele>
        <time>2019-04-02T07:24:27.000Z</time>
      </trkpt>
      <trkpt lat="47.24917" lon="-1.54338">
        <ele>14.199999809265</ele>
        <time>2019-04-02T07:24:28.000Z</time>
      </trkpt>
      <trkpt lat="47.24916" lon="-1.54339">
        <ele>14.199999809265</ele>
        <time>2019-04-02T07:24:29.000Z</time>
      </trkpt>
      <trkpt lat="47.24915" lon="-1.54341">
        <ele>14.39999961853</ele>
        <time>2019-04-02T07:24:30.000Z</time>
      </trkpt>
      <trkpt lat="47.24913" lon="-1.54345">
        <ele>14.60000038147</ele>
        <time>2019-04-02T07:24:31.000Z</time>
      </trkpt>
      <trkpt lat="47.24913" lon="-1.54345">
        <ele>14.60000038147</ele>
        <time>2019-04-02T07:24:32.000Z</time>
      </trkpt>
      <trkpt lat="47.24913" lon="-1.54346">
        <ele>14.800000190735</ele>
        <time>2019-04-02T07:24:33.000Z</time>
      </trkpt>
      <trkpt lat="47.24912" lon="-1.54347">
        <ele>14.800000190735</ele>
        <time>2019-04-02T07:24:34.000Z</time>
      </trkpt>
      <trkpt lat="47.24911" lon="-1.54349">
        <ele>14.800000190735</ele>
        <time>2019-04-02T07:24:35.000Z</time>
      </trkpt>
      <trkpt lat="47.24911" lon="-1.5435">
        <ele>14.800000190735</ele>
        <time>2019-04-02T07:24:36.000Z</time>
      </trkpt>
      <trkpt lat="47.2491" lon="-1.54352">
        <ele>14.800000190735</ele>
        <time>2019-04-02T07:24:37.000Z</time>
      </trkpt>
      <trkpt lat="47.24909" lon="-1.54353">
        <ele>14.800000190735</ele>
        <time>2019-04-02T07:24:38.000Z</time>
      </trkpt>
      <trkpt lat="47.24908" lon="-1.54355">
        <ele>14.800000190735</ele>
        <time>2019-04-02T07:24:39.000Z</time>
      </trkpt>
      <trkpt lat="47.24906" lon="-1.54356">
        <ele>14.800000190735</ele>
        <time>2019-04-02T07:24:40.000Z</time>
      </trkpt>
      <trkpt lat="47.24905" lon="-1.54357">
        <ele>14.800000190735</ele>
        <time>2019-04-02T07:24:41.000Z</time>
      </trkpt>
      <trkpt lat="47.24904" lon="-1.54358">
        <ele>14.800000190735</ele>
        <time>2019-04-02T07:24:42.000Z</time>
      </trkpt>
      <trkpt lat="47.24903" lon="-1.5436">
        <ele>14.800000190735</ele>
        <time>2019-04-02T07:24:43.000Z</time>
      </trkpt>
      <trkpt lat="47.24901" lon="-1.54361">
        <ele>14.800000190735</ele>
        <time>2019-04-02T07:24:44.000Z</time>
      </trkpt>
      <trkpt lat="47.249" lon="-1.54363">
        <ele>14.800000190735</ele>
        <time>2019-04-02T07:24:45.000Z</time>
      </trkpt>
      <trkpt lat="47.24898" lon="-1.54364">
        <ele>14.800000190735</ele>
        <time>2019-04-02T07:24:46.000Z</time>
      </trkpt>
      <trkpt lat="47.24897" lon="-1.54365">
        <ele>14.800000190735</ele>
        <time>2019-04-02T07:24:47.000Z</time>
      </trkpt>
      <trkpt lat="47.24896" lon="-1.54367">
        <ele>14.800000190735</ele>
        <time>2019-04-02T07:24:48.000Z</time>
      </trkpt>
      <trkpt lat="47.24896" lon="-1.54368">
        <ele>14.800000190735</ele>
        <time>2019-04-02T07:24:49.000Z</time>
      </trkpt>
      <trkpt lat="47.24894" lon="-1.54369">
        <ele>14.800000190735</ele>
        <time>2019-04-02T07:24:50.000Z</time>
      </trkpt>
      <trkpt lat="47.24893" lon="-1.54369">
        <ele>14.800000190735</ele>
        <time>2019-04-02T07:24:51.000Z</time>
      </trkpt>
      <trkpt lat="47.24892" lon="-1.5437">
        <ele>14.800000190735</ele>
        <time>2019-04-02T07:24:52.000Z</time>
      </trkpt>
      <trkpt lat="47.24891" lon="-1.54372">
        <ele>14.800000190735</ele>
        <time>2019-04-02T07:24:53.000Z</time>
      </trkpt>
      <trkpt lat="47.2489" lon="-1.54373">
        <ele>14.60000038147</ele>
        <time>2019-04-02T07:24:54.000Z</time>
      </trkpt>
      <trkpt lat="47.24889" lon="-1.54374">
        <ele>14.60000038147</ele>
        <time>2019-04-02T07:24:55.000Z</time>
      </trkpt>
      <trkpt lat="47.24887" lon="-1.54376">
        <ele>14.800000190735</ele>
        <time>2019-04-02T07:24:56.000Z</time>
      </trkpt>
      <trkpt lat="47.24886" lon="-1.54378">
        <ele>14.800000190735</ele>
        <time>2019-04-02T07:24:57.000Z</time>
      </trkpt>
      <trkpt lat="47.24885" lon="-1.54379">
        <ele>14.800000190735</ele>
        <time>2019-04-02T07:24:58.000Z</time>
      </trkpt>
      <trkpt lat="47.24884" lon="-1.54381">
        <ele>14.800000190735</ele>
        <time>2019-04-02T07:24:59.000Z</time>
      </trkpt>
      <trkpt lat="47.24883" lon="-1.54383">
        <ele>14.800000190735</ele>
        <time>2019-04-02T07:25:00.000Z</time>
      </trkpt>
      <trkpt lat="47.2488" lon="-1.54385">
        <ele>14.800000190735</ele>
        <time>2019-04-02T07:25:01.000Z</time>
      </trkpt>
      <trkpt lat="47.2488" lon="-1.54385">
        <ele>14.800000190735</ele>
        <time>2019-04-02T07:25:02.000Z</time>
      </trkpt>
      <trkpt lat="47.24879" lon="-1.54387">
        <ele>14.800000190735</ele>
        <time>2019-04-02T07:25:03.000Z</time>
      </trkpt>
      <trkpt lat="47.24878" lon="-1.54388">
        <ele>14.800000190735</ele>
        <time>2019-04-02T07:25:04.000Z</time>
      </trkpt>
      <trkpt lat="47.24877" lon="-1.5439">
        <ele>14.800000190735</ele>
        <time>2019-04-02T07:25:05.000Z</time>
      </trkpt>
      <trkpt lat="47.24876" lon="-1.54391">
        <ele>14.800000190735</ele>
        <time>2019-04-02T07:25:06.000Z</time>
      </trkpt>
      <trkpt lat="47.24875" lon="-1.54392">
        <ele>14.800000190735</ele>
        <time>2019-04-02T07:25:07.000Z</time>
      </trkpt>
      <trkpt lat="47.24874" lon="-1.54394">
        <ele>14.800000190735</ele>
        <time>2019-04-02T07:25:08.000Z</time>
      </trkpt>
      <trkpt lat="47.24872" lon="-1.54395">
        <ele>14.800000190735</ele>
        <time>2019-04-02T07:25:09.000Z</time>
      </trkpt>
      <trkpt lat="47.24871" lon="-1.54397">
        <ele>14.800000190735</ele>
        <time>2019-04-02T07:25:10.000Z</time>
      </trkpt>
      <trkpt lat="47.24868" lon="-1.544">
        <ele>14.800000190735</ele>
        <time>2019-04-02T07:25:11.000Z</time>
      </trkpt>
      <trkpt lat="47.24868" lon="-1.544">
        <ele>14.800000190735</ele>
        <time>2019-04-02T07:25:12.000Z</time>
      </trkpt>
      <trkpt lat="47.24866" lon="-1.54401">
        <ele>14.60000038147</ele>
        <time>2019-04-02T07:25:13.000Z</time>
      </trkpt>
      <trkpt lat="47.24865" lon="-1.54402">
        <ele>14.60000038147</ele>
        <time>2019-04-02T07:25:14.000Z</time>
      </trkpt>
      <trkpt lat="47.24863" lon="-1.54403">
        <ele>14.60000038147</ele>
        <time>2019-04-02T07:25:15.000Z</time>
      </trkpt>
      <trkpt lat="47.24862" lon="-1.54405">
        <ele>14.60000038147</ele>
        <time>2019-04-02T07:25:16.000Z</time>
      </trkpt>
      <trkpt lat="47.24861" lon="-1.54407">
        <ele>14.60000038147</ele>
        <time>2019-04-02T07:25:17.000Z</time>
      </trkpt>
      <trkpt lat="47.24859" lon="-1.54408">
        <ele>14.60000038147</ele>
        <time>2019-04-02T07:25:18.000Z</time>
      </trkpt>
      <trkpt lat="47.24857" lon="-1.5441">
        <ele>14.60000038147</ele>
        <time>2019-04-02T07:25:19.000Z</time>
      </trkpt>
      <trkpt lat="47.24856" lon="-1.54411">
        <ele>14.60000038147</ele>
        <time>2019-04-02T07:25:20.000Z</time>
      </trkpt>
      <trkpt lat="47.24855" lon="-1.54412">
        <ele>14.60000038147</ele>
        <time>2019-04-02T07:25:21.000Z</time>
      </trkpt>
      <trkpt lat="47.24854" lon="-1.54414">
        <ele>14.60000038147</ele>
        <time>2019-04-02T07:25:22.000Z</time>
      </trkpt>
      <trkpt lat="47.24852" lon="-1.54415">
        <ele>14.60000038147</ele>
        <time>2019-04-02T07:25:23.000Z</time>
      </trkpt>
      <trkpt lat="47.24851" lon="-1.54416">
        <ele>14.60000038147</ele>
        <time>2019-04-02T07:25:24.000Z</time>
      </trkpt>
      <trkpt lat="47.24849" lon="-1.54419">
        <ele>14.60000038147</ele>
        <time>2019-04-02T07:25:25.000Z</time>
      </trkpt>
      <trkpt lat="47.24849" lon="-1.54419">
        <ele>14.60000038147</ele>
        <time>2019-04-02T07:25:26.000Z</time>
      </trkpt>
      <trkpt lat="47.24848" lon="-1.5442">
        <ele>14.60000038147</ele>
        <time>2019-04-02T07:25:27.000Z</time>
      </trkpt>
      <trkpt lat="47.24847" lon="-1.54421">
        <ele>14.39999961853</ele>
        <time>2019-04-02T07:25:28.000Z</time>
      </trkpt>
      <trkpt lat="47.24845" lon="-1.54422">
        <ele>14.39999961853</ele>
        <time>2019-04-02T07:25:29.000Z</time>
      </trkpt>
      <trkpt lat="47.24842" lon="-1.54424">
        <ele>14.39999961853</ele>
        <time>2019-04-02T07:25:30.000Z</time>
      </trkpt>
      <trkpt lat="47.24842" lon="-1.54424">
        <ele>14.39999961853</ele>
        <time>2019-04-02T07:25:31.000Z</time>
      </trkpt>
      <trkpt lat="47.24841" lon="-1.54425">
        <ele>14.39999961853</ele>
        <time>2019-04-02T07:25:32.000Z</time>
      </trkpt>
      <trkpt lat="47.2484" lon="-1.54426">
        <ele>14.199999809265</ele>
        <time>2019-04-02T07:25:33.000Z</time>
      </trkpt>
      <trkpt lat="47.24838" lon="-1.54428">
        <ele>14.199999809265</ele>
        <time>2019-04-02T07:25:34.000Z</time>
      </trkpt>
      <trkpt lat="47.24837" lon="-1.54429">
        <ele>14.199999809265</ele>
        <time>2019-04-02T07:25:35.000Z</time>
      </trkpt>
      <trkpt lat="47.24836" lon="-1.5443">
        <ele>14.199999809265</ele>
        <time>2019-04-02T07:25:36.000Z</time>
      </trkpt>
      <trkpt lat="47.24833" lon="-1.54433">
        <ele>14.199999809265</ele>
        <time>2019-04-02T07:25:37.000Z</time>
      </trkpt>
      <trkpt lat="47.24833" lon="-1.54433">
        <ele>14.199999809265</ele>
        <time>2019-04-02T07:25:38.000Z</time>
      </trkpt>
      <trkpt lat="47.24832" lon="-1.54434">
        <ele>14.199999809265</ele>
        <time>2019-04-02T07:25:39.000Z</time>
      </trkpt>
      <trkpt lat="47.24831" lon="-1.54435">
        <ele>14.199999809265</ele>
        <time>2019-04-02T07:25:40.000Z</time>
      </trkpt>
      <trkpt lat="47.2483" lon="-1.54436">
        <ele>14.199999809265</ele>
        <time>2019-04-02T07:25:41.000Z</time>
      </trkpt>
      <trkpt lat="47.24829" lon="-1.54438">
        <ele>14.199999809265</ele>
        <time>2019-04-02T07:25:42.000Z</time>
      </trkpt>
      <trkpt lat="47.24827" lon="-1.5444">
        <ele>14.199999809265</ele>
        <time>2019-04-02T07:25:43.000Z</time>
      </trkpt>
      <trkpt lat="47.24826" lon="-1.54441">
        <ele>14</ele>
        <time>2019-04-02T07:25:44.000Z</time>
      </trkpt>
      <trkpt lat="47.24825" lon="-1.54443">
        <ele>14</ele>
        <time>2019-04-02T07:25:45.000Z</time>
      </trkpt>
      <trkpt lat="47.24824" lon="-1.54444">
        <ele>14</ele>
        <time>2019-04-02T07:25:46.000Z</time>
      </trkpt>
      <trkpt lat="47.24823" lon="-1.54446">
        <ele>14</ele>
        <time>2019-04-02T07:25:47.000Z</time>
      </trkpt>
      <trkpt lat="47.24822" lon="-1.54447">
        <ele>14</ele>
        <time>2019-04-02T07:25:48.000Z</time>
      </trkpt>
      <trkpt lat="47.24821" lon="-1.54449">
        <ele>14</ele>
        <time>2019-04-02T07:25:49.000Z</time>
      </trkpt>
      <trkpt lat="47.2482" lon="-1.54451">
        <ele>13.800000190735</ele>
        <time>2019-04-02T07:25:50.000Z</time>
      </trkpt>
      <trkpt lat="47.24819" lon="-1.54452">
        <ele>13.800000190735</ele>
        <time>2019-04-02T07:25:51.000Z</time>
      </trkpt>
      <trkpt lat="47.24817" lon="-1.54453">
        <ele>13.800000190735</ele>
        <time>2019-04-02T07:25:52.000Z</time>
      </trkpt>
      <trkpt lat="47.24816" lon="-1.54455">
        <ele>13.60000038147</ele>
        <time>2019-04-02T07:25:53.000Z</time>
      </trkpt>
      <trkpt lat="47.24815" lon="-1.54456">
        <ele>13.60000038147</ele>
        <time>2019-04-02T07:25:54.000Z</time>
      </trkpt>
      <trkpt lat="47.24814" lon="-1.54458">
        <ele>13.60000038147</ele>
        <time>2019-04-02T07:25:55.000Z</time>
      </trkpt>
      <trkpt lat="47.24813" lon="-1.54459">
        <ele>13.60000038147</ele>
        <time>2019-04-02T07:25:56.000Z</time>
      </trkpt>
      <trkpt lat="47.24812" lon="-1.5446">
        <ele>13.39999961853</ele>
        <time>2019-04-02T07:25:57.000Z</time>
      </trkpt>
      <trkpt lat="47.2481" lon="-1.54461">
        <ele>13.39999961853</ele>
        <time>2019-04-02T07:25:58.000Z</time>
      </trkpt>
      <trkpt lat="47.24809" lon="-1.54463">
        <ele>13.199999809265</ele>
        <time>2019-04-02T07:25:59.000Z</time>
      </trkpt>
      <trkpt lat="47.24808" lon="-1.54465">
        <ele>13.199999809265</ele>
        <time>2019-04-02T07:26:00.000Z</time>
      </trkpt>
      <trkpt lat="47.24807" lon="-1.54467">
        <ele>13.199999809265</ele>
        <time>2019-04-02T07:26:01.000Z</time>
      </trkpt>
      <trkpt lat="47.24806" lon="-1.54468">
        <ele>13.199999809265</ele>
        <time>2019-04-02T07:26:02.000Z</time>
      </trkpt>
      <trkpt lat="47.24805" lon="-1.5447">
        <ele>13.199999809265</ele>
        <time>2019-04-02T07:26:03.000Z</time>
      </trkpt>
      <trkpt lat="47.24804" lon="-1.54471">
        <ele>13.199999809265</ele>
        <time>2019-04-02T07:26:04.000Z</time>
      </trkpt>
      <trkpt lat="47.248" lon="-1.54474">
        <ele>13</ele>
        <time>2019-04-02T07:26:05.000Z</time>
      </trkpt>
      <trkpt lat="47.248" lon="-1.54474">
        <ele>13</ele>
        <time>2019-04-02T07:26:06.000Z</time>
      </trkpt>
      <trkpt lat="47.24799" lon="-1.54476">
        <ele>12.800000190735</ele>
        <time>2019-04-02T07:26:07.000Z</time>
      </trkpt>
      <trkpt lat="47.24796" lon="-1.54479">
        <ele>12.60000038147</ele>
        <time>2019-04-02T07:26:08.000Z</time>
      </trkpt>
      <trkpt lat="47.24796" lon="-1.54479">
        <ele>12.60000038147</ele>
        <time>2019-04-02T07:26:09.000Z</time>
      </trkpt>
      <trkpt lat="47.24795" lon="-1.5448">
        <ele>12.60000038147</ele>
        <time>2019-04-02T07:26:10.000Z</time>
      </trkpt>
      <trkpt lat="47.24794" lon="-1.54481">
        <ele>12.60000038147</ele>
        <time>2019-04-02T07:26:11.000Z</time>
      </trkpt>
      <trkpt lat="47.24793" lon="-1.54482">
        <ele>12.39999961853</ele>
        <time>2019-04-02T07:26:12.000Z</time>
      </trkpt>
      <trkpt lat="47.24792" lon="-1.54482">
        <ele>12.39999961853</ele>
        <time>2019-04-02T07:26:13.000Z</time>
      </trkpt>
      <trkpt lat="47.24791" lon="-1.54483">
        <ele>12.39999961853</ele>
        <time>2019-04-02T07:26:14.000Z</time>
      </trkpt>
      <trkpt lat="47.2479" lon="-1.54483">
        <ele>12.199999809265</ele>
        <time>2019-04-02T07:26:15.000Z</time>
      </trkpt>
      <trkpt lat="47.24789" lon="-1.54484">
        <ele>12.199999809265</ele>
        <time>2019-04-02T07:26:16.000Z</time>
      </trkpt>
      <trkpt lat="47.24788" lon="-1.54485">
        <ele>12.199999809265</ele>
        <time>2019-04-02T07:26:17.000Z</time>
      </trkpt>
      <trkpt lat="47.24787" lon="-1.54485">
        <ele>12</ele>
        <time>2019-04-02T07:26:18.000Z</time>
      </trkpt>
      <trkpt lat="47.24786" lon="-1.54486">
        <ele>12</ele>
        <time>2019-04-02T07:26:19.000Z</time>
      </trkpt>
      <trkpt lat="47.24785" lon="-1.54488">
        <ele>11.800000190735</ele>
        <time>2019-04-02T07:26:20.000Z</time>
      </trkpt>
      <trkpt lat="47.24784" lon="-1.54489">
        <ele>11.800000190735</ele>
        <time>2019-04-02T07:26:21.000Z</time>
      </trkpt>
      <trkpt lat="47.24783" lon="-1.5449">
        <ele>11.800000190735</ele>
        <time>2019-04-02T07:26:22.000Z</time>
      </trkpt>
      <trkpt lat="47.24782" lon="-1.5449">
        <ele>11.800000190735</ele>
        <time>2019-04-02T07:26:23.000Z</time>
      </trkpt>
      <trkpt lat="47.24781" lon="-1.54491">
        <ele>11.60000038147</ele>
        <time>2019-04-02T07:26:24.000Z</time>
      </trkpt>
      <trkpt lat="47.2478" lon="-1.54492">
        <ele>11.60000038147</ele>
        <time>2019-04-02T07:26:25.000Z</time>
      </trkpt>
      <trkpt lat="47.24779" lon="-1.54494">
        <ele>11.60000038147</ele>
        <time>2019-04-02T07:26:26.000Z</time>
      </trkpt>
      <trkpt lat="47.24779" lon="-1.54496">
        <ele>11.60000038147</ele>
        <time>2019-04-02T07:26:27.000Z</time>
      </trkpt>
      <trkpt lat="47.24778" lon="-1.54498">
        <ele>11.60000038147</ele>
        <time>2019-04-02T07:26:28.000Z</time>
      </trkpt>
      <trkpt lat="47.24775" lon="-1.54502">
        <ele>11.60000038147</ele>
        <time>2019-04-02T07:26:29.000Z</time>
      </trkpt>
      <trkpt lat="47.24775" lon="-1.54502">
        <ele>11.60000038147</ele>
        <time>2019-04-02T07:26:30.000Z</time>
      </trkpt>
      <trkpt lat="47.24774" lon="-1.54503">
        <ele>11.60000038147</ele>
        <time>2019-04-02T07:26:31.000Z</time>
      </trkpt>
      <trkpt lat="47.24772" lon="-1.54505">
        <ele>11.39999961853</ele>
        <time>2019-04-02T07:26:32.000Z</time>
      </trkpt>
      <trkpt lat="47.24771" lon="-1.54506">
        <ele>11.39999961853</ele>
        <time>2019-04-02T07:26:33.000Z</time>
      </trkpt>
      <trkpt lat="47.2477" lon="-1.54507">
        <ele>11.199999809265</ele>
        <time>2019-04-02T07:26:34.000Z</time>
      </trkpt>
      <trkpt lat="47.24769" lon="-1.54508">
        <ele>11.199999809265</ele>
        <time>2019-04-02T07:26:35.000Z</time>
      </trkpt>
      <trkpt lat="47.24768" lon="-1.54509">
        <ele>11.199999809265</ele>
        <time>2019-04-02T07:26:36.000Z</time>
      </trkpt>
      <trkpt lat="47.24767" lon="-1.5451">
        <ele>11.199999809265</ele>
        <time>2019-04-02T07:26:37.000Z</time>
      </trkpt>
      <trkpt lat="47.24766" lon="-1.54512">
        <ele>11.199999809265</ele>
        <time>2019-04-02T07:26:38.000Z</time>
      </trkpt>
      <trkpt lat="47.24766" lon="-1.54513">
        <ele>11</ele>
        <time>2019-04-02T07:26:39.000Z</time>
      </trkpt>
      <trkpt lat="47.24764" lon="-1.54514">
        <ele>11</ele>
        <time>2019-04-02T07:26:40.000Z</time>
      </trkpt>
      <trkpt lat="47.24763" lon="-1.54516">
        <ele>11</ele>
        <time>2019-04-02T07:26:41.000Z</time>
      </trkpt>
      <trkpt lat="47.24762" lon="-1.54517">
        <ele>11</ele>
        <time>2019-04-02T07:26:42.000Z</time>
      </trkpt>
      <trkpt lat="47.24761" lon="-1.54518">
        <ele>10.800000190735</ele>
        <time>2019-04-02T07:26:43.000Z</time>
      </trkpt>
      <trkpt lat="47.2476" lon="-1.54519">
        <ele>10.800000190735</ele>
        <time>2019-04-02T07:26:44.000Z</time>
      </trkpt>
      <trkpt lat="47.2476" lon="-1.5452">
        <ele>10.800000190735</ele>
        <time>2019-04-02T07:26:45.000Z</time>
      </trkpt>
      <trkpt lat="47.24759" lon="-1.54521">
        <ele>10.800000190735</ele>
        <time>2019-04-02T07:26:46.000Z</time>
      </trkpt>
      <trkpt lat="47.24758" lon="-1.54522">
        <ele>10.800000190735</ele>
        <time>2019-04-02T07:26:47.000Z</time>
      </trkpt>
      <trkpt lat="47.24757" lon="-1.54523">
        <ele>10.800000190735</ele>
        <time>2019-04-02T07:26:48.000Z</time>
      </trkpt>
      <trkpt lat="47.24756" lon="-1.54525">
        <ele>10.60000038147</ele>
        <time>2019-04-02T07:26:49.000Z</time>
      </trkpt>
      <trkpt lat="47.24755" lon="-1.54526">
        <ele>10.60000038147</ele>
        <time>2019-04-02T07:26:50.000Z</time>
      </trkpt>
      <trkpt lat="47.24754" lon="-1.54526">
        <ele>10.60000038147</ele>
        <time>2019-04-02T07:26:51.000Z</time>
      </trkpt>
      <trkpt lat="47.24752" lon="-1.54528">
        <ele>10.39999961853</ele>
        <time>2019-04-02T07:26:52.000Z</time>
      </trkpt>
      <trkpt lat="47.24751" lon="-1.54529">
        <ele>10.199999809265</ele>
        <time>2019-04-02T07:26:53.000Z</time>
      </trkpt>
      <trkpt lat="47.2475" lon="-1.5453">
        <ele>10.199999809265</ele>
        <time>2019-04-02T07:26:54.000Z</time>
      </trkpt>
      <trkpt lat="47.24749" lon="-1.54531">
        <ele>10.199999809265</ele>
        <time>2019-04-02T07:26:55.000Z</time>
      </trkpt>
      <trkpt lat="47.24748" lon="-1.54533">
        <ele>10.199999809265</ele>
        <time>2019-04-02T07:26:56.000Z</time>
      </trkpt>
      <trkpt lat="47.24746" lon="-1.54534">
        <ele>10</ele>
        <time>2019-04-02T07:26:57.000Z</time>
      </trkpt>
      <trkpt lat="47.24745" lon="-1.54536">
        <ele>10</ele>
        <time>2019-04-02T07:26:58.000Z</time>
      </trkpt>
      <trkpt lat="47.24744" lon="-1.54537">
        <ele>10</ele>
        <time>2019-04-02T07:26:59.000Z</time>
      </trkpt>
      <trkpt lat="47.24741" lon="-1.5454">
        <ele>10.199999809265</ele>
        <time>2019-04-02T07:27:00.000Z</time>
      </trkpt>
      <trkpt lat="47.24741" lon="-1.5454">
        <ele>10.199999809265</ele>
        <time>2019-04-02T07:27:01.000Z</time>
      </trkpt>
      <trkpt lat="47.2474" lon="-1.54541">
        <ele>10.199999809265</ele>
        <time>2019-04-02T07:27:02.000Z</time>
      </trkpt>
      <trkpt lat="47.24738" lon="-1.54542">
        <ele>10.199999809265</ele>
        <time>2019-04-02T07:27:03.000Z</time>
      </trkpt>
      <trkpt lat="47.24737" lon="-1.54542">
        <ele>10.199999809265</ele>
        <time>2019-04-02T07:27:04.000Z</time>
      </trkpt>
      <trkpt lat="47.24736" lon="-1.54543">
        <ele>10.199999809265</ele>
        <time>2019-04-02T07:27:05.000Z</time>
      </trkpt>
      <trkpt lat="47.24734" lon="-1.54543">
        <ele>10.199999809265</ele>
        <time>2019-04-02T07:27:06.000Z</time>
      </trkpt>
      <trkpt lat="47.24732" lon="-1.54543">
        <ele>10</ele>
        <time>2019-04-02T07:27:07.000Z</time>
      </trkpt>
      <trkpt lat="47.2473" lon="-1.54544">
        <ele>10</ele>
        <time>2019-04-02T07:27:08.000Z</time>
      </trkpt>
      <trkpt lat="47.24729" lon="-1.54545">
        <ele>10</ele>
        <time>2019-04-02T07:27:09.000Z</time>
      </trkpt>
      <trkpt lat="47.24727" lon="-1.54547">
        <ele>10.199999809265</ele>
        <time>2019-04-02T07:27:10.000Z</time>
      </trkpt>
      <trkpt lat="47.24726" lon="-1.54548">
        <ele>10.199999809265</ele>
        <time>2019-04-02T07:27:11.000Z</time>
      </trkpt>
      <trkpt lat="47.24725" lon="-1.54549">
        <ele>10.199999809265</ele>
        <time>2019-04-02T07:27:12.000Z</time>
      </trkpt>
      <trkpt lat="47.24724" lon="-1.5455">
        <ele>10.199999809265</ele>
        <time>2019-04-02T07:27:13.000Z</time>
      </trkpt>
      <trkpt lat="47.24723" lon="-1.54551">
        <ele>10.199999809265</ele>
        <time>2019-04-02T07:27:14.000Z</time>
      </trkpt>
      <trkpt lat="47.24722" lon="-1.54553">
        <ele>10.199999809265</ele>
        <time>2019-04-02T07:27:15.000Z</time>
      </trkpt>
      <trkpt lat="47.24721" lon="-1.54554">
        <ele>10.199999809265</ele>
        <time>2019-04-02T07:27:16.000Z</time>
      </trkpt>
      <trkpt lat="47.2472" lon="-1.54555">
        <ele>10.39999961853</ele>
        <time>2019-04-02T07:27:17.000Z</time>
      </trkpt>
      <trkpt lat="47.24718" lon="-1.54556">
        <ele>10.39999961853</ele>
        <time>2019-04-02T07:27:18.000Z</time>
      </trkpt>
      <trkpt lat="47.24717" lon="-1.54557">
        <ele>10.39999961853</ele>
        <time>2019-04-02T07:27:19.000Z</time>
      </trkpt>
      <trkpt lat="47.24715" lon="-1.54558">
        <ele>10.39999961853</ele>
        <time>2019-04-02T07:27:20.000Z</time>
      </trkpt>
      <trkpt lat="47.24713" lon="-1.54559">
        <ele>10.199999809265</ele>
        <time>2019-04-02T07:27:21.000Z</time>
      </trkpt>
      <trkpt lat="47.24711" lon="-1.54559">
        <ele>10.199999809265</ele>
        <time>2019-04-02T07:27:22.000Z</time>
      </trkpt>
      <trkpt lat="47.24708" lon="-1.54561">
        <ele>10.199999809265</ele>
        <time>2019-04-02T07:27:23.000Z</time>
      </trkpt>
      <trkpt lat="47.24708" lon="-1.54561">
        <ele>10.199999809265</ele>
        <time>2019-04-02T07:27:24.000Z</time>
      </trkpt>
      <trkpt lat="47.24707" lon="-1.54562">
        <ele>10.199999809265</ele>
        <time>2019-04-02T07:27:25.000Z</time>
      </trkpt>
      <trkpt lat="47.24705" lon="-1.54562">
        <ele>10.199999809265</ele>
        <time>2019-04-02T07:27:26.000Z</time>
      </trkpt>
      <trkpt lat="47.24702" lon="-1.54564">
        <ele>10.199999809265</ele>
        <time>2019-04-02T07:27:27.000Z</time>
      </trkpt>
      <trkpt lat="47.24702" lon="-1.54564">
        <ele>10.199999809265</ele>
        <time>2019-04-02T07:27:28.000Z</time>
      </trkpt>
      <trkpt lat="47.24701" lon="-1.54565">
        <ele>10.199999809265</ele>
        <time>2019-04-02T07:27:29.000Z</time>
      </trkpt>
      <trkpt lat="47.24699" lon="-1.54565">
        <ele>10.199999809265</ele>
        <time>2019-04-02T07:27:30.000Z</time>
      </trkpt>
      <trkpt lat="47.24698" lon="-1.54566">
        <ele>10.199999809265</ele>
        <time>2019-04-02T07:27:31.000Z</time>
      </trkpt>
      <trkpt lat="47.24697" lon="-1.54566">
        <ele>10.199999809265</ele>
        <time>2019-04-02T07:27:32.000Z</time>
      </trkpt>
      <trkpt lat="47.24695" lon="-1.54567">
        <ele>10.199999809265</ele>
        <time>2019-04-02T07:27:33.000Z</time>
      </trkpt>
      <trkpt lat="47.24693" lon="-1.54567">
        <ele>10.199999809265</ele>
        <time>2019-04-02T07:27:34.000Z</time>
      </trkpt>
      <trkpt lat="47.24692" lon="-1.54568">
        <ele>10</ele>
        <time>2019-04-02T07:27:35.000Z</time>
      </trkpt>
      <trkpt lat="47.2469" lon="-1.54569">
        <ele>10</ele>
        <time>2019-04-02T07:27:36.000Z</time>
      </trkpt>
      <trkpt lat="47.24687" lon="-1.54571">
        <ele>10</ele>
        <time>2019-04-02T07:27:37.000Z</time>
      </trkpt>
      <trkpt lat="47.24687" lon="-1.54571">
        <ele>10</ele>
        <time>2019-04-02T07:27:38.000Z</time>
      </trkpt>
      <trkpt lat="47.24686" lon="-1.54572">
        <ele>10</ele>
        <time>2019-04-02T07:27:39.000Z</time>
      </trkpt>
      <trkpt lat="47.24685" lon="-1.54573">
        <ele>10</ele>
        <time>2019-04-02T07:27:40.000Z</time>
      </trkpt>
      <trkpt lat="47.24683" lon="-1.54574">
        <ele>10</ele>
        <time>2019-04-02T07:27:41.000Z</time>
      </trkpt>
      <trkpt lat="47.2468" lon="-1.54577">
        <ele>10</ele>
        <time>2019-04-02T07:27:42.000Z</time>
      </trkpt>
      <trkpt lat="47.2468" lon="-1.54577">
        <ele>10</ele>
        <time>2019-04-02T07:27:43.000Z</time>
      </trkpt>
      <trkpt lat="47.24679" lon="-1.54578">
        <ele>10</ele>
        <time>2019-04-02T07:27:44.000Z</time>
      </trkpt>
      <trkpt lat="47.24677" lon="-1.54578">
        <ele>10</ele>
        <time>2019-04-02T07:27:45.000Z</time>
      </trkpt>
      <trkpt lat="47.24675" lon="-1.54579">
        <ele>10</ele>
        <time>2019-04-02T07:27:46.000Z</time>
      </trkpt>
      <trkpt lat="47.24674" lon="-1.54579">
        <ele>10</ele>
        <time>2019-04-02T07:27:47.000Z</time>
      </trkpt>
      <trkpt lat="47.24672" lon="-1.5458">
        <ele>10</ele>
        <time>2019-04-02T07:27:48.000Z</time>
      </trkpt>
      <trkpt lat="47.24671" lon="-1.54581">
        <ele>10</ele>
        <time>2019-04-02T07:27:49.000Z</time>
      </trkpt>
      <trkpt lat="47.24669" lon="-1.54582">
        <ele>10</ele>
        <time>2019-04-02T07:27:50.000Z</time>
      </trkpt>
      <trkpt lat="47.24668" lon="-1.54583">
        <ele>10</ele>
        <time>2019-04-02T07:27:51.000Z</time>
      </trkpt>
      <trkpt lat="47.24666" lon="-1.54583">
        <ele>9.8000001907349</ele>
        <time>2019-04-02T07:27:52.000Z</time>
      </trkpt>
      <trkpt lat="47.24665" lon="-1.54583">
        <ele>9.8000001907349</ele>
        <time>2019-04-02T07:27:53.000Z</time>
      </trkpt>
      <trkpt lat="47.24663" lon="-1.54584">
        <ele>9.8000001907349</ele>
        <time>2019-04-02T07:27:54.000Z</time>
      </trkpt>
      <trkpt lat="47.24662" lon="-1.54585">
        <ele>9.8000001907349</ele>
        <time>2019-04-02T07:27:55.000Z</time>
      </trkpt>
      <trkpt lat="47.2466" lon="-1.54586">
        <ele>10</ele>
        <time>2019-04-02T07:27:56.000Z</time>
      </trkpt>
      <trkpt lat="47.24659" lon="-1.54587">
        <ele>10</ele>
        <time>2019-04-02T07:27:57.000Z</time>
      </trkpt>
      <trkpt lat="47.24658" lon="-1.54588">
        <ele>10.199999809265</ele>
        <time>2019-04-02T07:27:58.000Z</time>
      </trkpt>
      <trkpt lat="47.24658" lon="-1.54588">
        <ele>10.199999809265</ele>
        <time>2019-04-02T07:27:59.000Z</time>
      </trkpt>
      <trkpt lat="47.24656" lon="-1.54589">
        <ele>10.39999961853</ele>
        <time>2019-04-02T07:28:00.000Z</time>
      </trkpt>
      <trkpt lat="47.24655" lon="-1.5459">
        <ele>10.39999961853</ele>
        <time>2019-04-02T07:28:01.000Z</time>
      </trkpt>
      <trkpt lat="47.24654" lon="-1.54591">
        <ele>10.60000038147</ele>
        <time>2019-04-02T07:28:02.000Z</time>
      </trkpt>
      <trkpt lat="47.24652" lon="-1.54592">
        <ele>10.60000038147</ele>
        <time>2019-04-02T07:28:03.000Z</time>
      </trkpt>
      <trkpt lat="47.24651" lon="-1.54593">
        <ele>10.800000190735</ele>
        <time>2019-04-02T07:28:04.000Z</time>
      </trkpt>
      <trkpt lat="47.2465" lon="-1.54594">
        <ele>10.800000190735</ele>
        <time>2019-04-02T07:28:05.000Z</time>
      </trkpt>
      <trkpt lat="47.24649" lon="-1.54595">
        <ele>11</ele>
        <time>2019-04-02T07:28:06.000Z</time>
      </trkpt>
      <trkpt lat="47.24648" lon="-1.54596">
        <ele>11</ele>
        <time>2019-04-02T07:28:07.000Z</time>
      </trkpt>
      <trkpt lat="47.24646" lon="-1.54596">
        <ele>11.199999809265</ele>
        <time>2019-04-02T07:28:08.000Z</time>
      </trkpt>
      <trkpt lat="47.24645" lon="-1.54596">
        <ele>11.199999809265</ele>
        <time>2019-04-02T07:28:09.000Z</time>
      </trkpt>
      <trkpt lat="47.24644" lon="-1.54597">
        <ele>11.39999961853</ele>
        <time>2019-04-02T07:28:10.000Z</time>
      </trkpt>
      <trkpt lat="47.24642" lon="-1.54597">
        <ele>11.39999961853</ele>
        <time>2019-04-02T07:28:11.000Z</time>
      </trkpt>
      <trkpt lat="47.24641" lon="-1.54599">
        <ele>11.60000038147</ele>
        <time>2019-04-02T07:28:12.000Z</time>
      </trkpt>
      <trkpt lat="47.2464" lon="-1.546">
        <ele>11.60000038147</ele>
        <time>2019-04-02T07:28:13.000Z</time>
      </trkpt>
      <trkpt lat="47.24639" lon="-1.54601">
        <ele>11.800000190735</ele>
        <time>2019-04-02T07:28:14.000Z</time>
      </trkpt>
      <trkpt lat="47.24637" lon="-1.54603">
        <ele>12</ele>
        <time>2019-04-02T07:28:15.000Z</time>
      </trkpt>
      <trkpt lat="47.24636" lon="-1.54605">
        <ele>12</ele>
        <time>2019-04-02T07:28:16.000Z</time>
      </trkpt>
      <trkpt lat="47.24634" lon="-1.54606">
        <ele>12.199999809265</ele>
        <time>2019-04-02T07:28:17.000Z</time>
      </trkpt>
      <trkpt lat="47.24633" lon="-1.54606">
        <ele>12.199999809265</ele>
        <time>2019-04-02T07:28:18.000Z</time>
      </trkpt>
      <trkpt lat="47.24632" lon="-1.54606">
        <ele>12.39999961853</ele>
        <time>2019-04-02T07:28:19.000Z</time>
      </trkpt>
      <trkpt lat="47.2463" lon="-1.54607">
        <ele>12.39999961853</ele>
        <time>2019-04-02T07:28:20.000Z</time>
      </trkpt>
      <trkpt lat="47.24629" lon="-1.54607">
        <ele>12.60000038147</ele>
        <time>2019-04-02T07:28:21.000Z</time>
      </trkpt>
      <trkpt lat="47.24628" lon="-1.54608">
        <ele>12.60000038147</ele>
        <time>2019-04-02T07:28:22.000Z</time>
      </trkpt>
      <trkpt lat="47.24626" lon="-1.54608">
        <ele>12.60000038147</ele>
        <time>2019-04-02T07:28:23.000Z</time>
      </trkpt>
      <trkpt lat="47.24625" lon="-1.54608">
        <ele>12.800000190735</ele>
        <time>2019-04-02T07:28:24.000Z</time>
      </trkpt>
      <trkpt lat="47.24623" lon="-1.54608">
        <ele>12.800000190735</ele>
        <time>2019-04-02T07:28:25.000Z</time>
      </trkpt>
      <trkpt lat="47.24621" lon="-1.54609">
        <ele>13</ele>
        <time>2019-04-02T07:28:26.000Z</time>
      </trkpt>
      <trkpt lat="47.24619" lon="-1.54609">
        <ele>13</ele>
        <time>2019-04-02T07:28:27.000Z</time>
      </trkpt>
      <trkpt lat="47.24618" lon="-1.54609">
        <ele>13.199999809265</ele>
        <time>2019-04-02T07:28:28.000Z</time>
      </trkpt>
      <trkpt lat="47.24616" lon="-1.54609">
        <ele>13.199999809265</ele>
        <time>2019-04-02T07:28:29.000Z</time>
      </trkpt>
      <trkpt lat="47.24615" lon="-1.54609">
        <ele>13.199999809265</ele>
        <time>2019-04-02T07:28:30.000Z</time>
      </trkpt>
      <trkpt lat="47.24614" lon="-1.54609">
        <ele>13.199999809265</ele>
        <time>2019-04-02T07:28:31.000Z</time>
      </trkpt>
      <trkpt lat="47.24612" lon="-1.54609">
        <ele>13.39999961853</ele>
        <time>2019-04-02T07:28:32.000Z</time>
      </trkpt>
      <trkpt lat="47.24611" lon="-1.5461">
        <ele>13.39999961853</ele>
        <time>2019-04-02T07:28:33.000Z</time>
      </trkpt>
      <trkpt lat="47.2461" lon="-1.5461">
        <ele>13.39999961853</ele>
        <time>2019-04-02T07:28:34.000Z</time>
      </trkpt>
      <trkpt lat="47.24609" lon="-1.5461">
        <ele>13.60000038147</ele>
        <time>2019-04-02T07:28:35.000Z</time>
      </trkpt>
      <trkpt lat="47.24608" lon="-1.54611">
        <ele>13.60000038147</ele>
        <time>2019-04-02T07:28:36.000Z</time>
      </trkpt>
      <trkpt lat="47.24606" lon="-1.5461">
        <ele>13.60000038147</ele>
        <time>2019-04-02T07:28:37.000Z</time>
      </trkpt>
      <trkpt lat="47.24605" lon="-1.5461">
        <ele>13.60000038147</ele>
        <time>2019-04-02T07:28:38.000Z</time>
      </trkpt>
      <trkpt lat="47.24603" lon="-1.54611">
        <ele>13.800000190735</ele>
        <time>2019-04-02T07:28:39.000Z</time>
      </trkpt>
      <trkpt lat="47.24602" lon="-1.5461">
        <ele>13.800000190735</ele>
        <time>2019-04-02T07:28:40.000Z</time>
      </trkpt>
      <trkpt lat="47.246" lon="-1.5461">
        <ele>13.800000190735</ele>
        <time>2019-04-02T07:28:41.000Z</time>
      </trkpt>
      <trkpt lat="47.24597" lon="-1.5461">
        <ele>14</ele>
        <time>2019-04-02T07:28:42.000Z</time>
      </trkpt>
      <trkpt lat="47.24597" lon="-1.5461">
        <ele>14</ele>
        <time>2019-04-02T07:28:43.000Z</time>
      </trkpt>
      <trkpt lat="47.24596" lon="-1.5461">
        <ele>14</ele>
        <time>2019-04-02T07:28:44.000Z</time>
      </trkpt>
      <trkpt lat="47.24594" lon="-1.54611">
        <ele>14</ele>
        <time>2019-04-02T07:28:45.000Z</time>
      </trkpt>
      <trkpt lat="47.24593" lon="-1.5461">
        <ele>14</ele>
        <time>2019-04-02T07:28:46.000Z</time>
      </trkpt>
      <trkpt lat="47.24592" lon="-1.5461">
        <ele>14.199999809265</ele>
        <time>2019-04-02T07:28:47.000Z</time>
      </trkpt>
      <trkpt lat="47.24591" lon="-1.5461">
        <ele>14.199999809265</ele>
        <time>2019-04-02T07:28:48.000Z</time>
      </trkpt>
      <trkpt lat="47.24589" lon="-1.5461">
        <ele>14.199999809265</ele>
        <time>2019-04-02T07:28:49.000Z</time>
      </trkpt>
      <trkpt lat="47.24588" lon="-1.5461">
        <ele>14.199999809265</ele>
        <time>2019-04-02T07:28:50.000Z</time>
      </trkpt>
      <trkpt lat="47.24586" lon="-1.54611">
        <ele>14.39999961853</ele>
        <time>2019-04-02T07:28:51.000Z</time>
      </trkpt>
      <trkpt lat="47.24585" lon="-1.54611">
        <ele>14.39999961853</ele>
        <time>2019-04-02T07:28:52.000Z</time>
      </trkpt>
      <trkpt lat="47.24583" lon="-1.54611">
        <ele>14.39999961853</ele>
        <time>2019-04-02T07:28:53.000Z</time>
      </trkpt>
      <trkpt lat="47.24582" lon="-1.54612">
        <ele>14.60000038147</ele>
        <time>2019-04-02T07:28:54.000Z</time>
      </trkpt>
      <trkpt lat="47.2458" lon="-1.54612">
        <ele>14.60000038147</ele>
        <time>2019-04-02T07:28:55.000Z</time>
      </trkpt>
      <trkpt lat="47.24579" lon="-1.54613">
        <ele>14.800000190735</ele>
        <time>2019-04-02T07:28:56.000Z</time>
      </trkpt>
      <trkpt lat="47.24577" lon="-1.54613">
        <ele>14.60000038147</ele>
        <time>2019-04-02T07:28:57.000Z</time>
      </trkpt>
      <trkpt lat="47.24576" lon="-1.54614">
        <ele>14.800000190735</ele>
        <time>2019-04-02T07:28:58.000Z</time>
      </trkpt>
      <trkpt lat="47.24575" lon="-1.54614">
        <ele>14.800000190735</ele>
        <time>2019-04-02T07:28:59.000Z</time>
      </trkpt>
      <trkpt lat="47.24574" lon="-1.54615">
        <ele>14.800000190735</ele>
        <time>2019-04-02T07:29:00.000Z</time>
      </trkpt>
      <trkpt lat="47.24571" lon="-1.54618">
        <ele>14.800000190735</ele>
        <time>2019-04-02T07:29:01.000Z</time>
      </trkpt>
      <trkpt lat="47.24571" lon="-1.54618">
        <ele>14.800000190735</ele>
        <time>2019-04-02T07:29:02.000Z</time>
      </trkpt>
      <trkpt lat="47.2457" lon="-1.54619">
        <ele>14.800000190735</ele>
        <time>2019-04-02T07:29:03.000Z</time>
      </trkpt>
      <trkpt lat="47.24568" lon="-1.5462">
        <ele>14.800000190735</ele>
        <time>2019-04-02T07:29:04.000Z</time>
      </trkpt>
      <trkpt lat="47.24566" lon="-1.5462">
        <ele>14.800000190735</ele>
        <time>2019-04-02T07:29:05.000Z</time>
      </trkpt>
      <trkpt lat="47.24565" lon="-1.54622">
        <ele>15</ele>
        <time>2019-04-02T07:29:06.000Z</time>
      </trkpt>
      <trkpt lat="47.24563" lon="-1.54623">
        <ele>15</ele>
        <time>2019-04-02T07:29:07.000Z</time>
      </trkpt>
      <trkpt lat="47.24562" lon="-1.54624">
        <ele>15</ele>
        <time>2019-04-02T07:29:08.000Z</time>
      </trkpt>
      <trkpt lat="47.2456" lon="-1.54625">
        <ele>15</ele>
        <time>2019-04-02T07:29:09.000Z</time>
      </trkpt>
      <trkpt lat="47.24559" lon="-1.54627">
        <ele>15</ele>
        <time>2019-04-02T07:29:10.000Z</time>
      </trkpt>
      <trkpt lat="47.24556" lon="-1.54629">
        <ele>15.199999809265</ele>
        <time>2019-04-02T07:29:11.000Z</time>
      </trkpt>
      <trkpt lat="47.24556" lon="-1.54629">
        <ele>15.199999809265</ele>
        <time>2019-04-02T07:29:12.000Z</time>
      </trkpt>
      <trkpt lat="47.24555" lon="-1.5463">
        <ele>15.199999809265</ele>
        <time>2019-04-02T07:29:13.000Z</time>
      </trkpt>
      <trkpt lat="47.24553" lon="-1.54631">
        <ele>15.199999809265</ele>
        <time>2019-04-02T07:29:14.000Z</time>
      </trkpt>
      <trkpt lat="47.24552" lon="-1.54631">
        <ele>15.199999809265</ele>
        <time>2019-04-02T07:29:15.000Z</time>
      </trkpt>
      <trkpt lat="47.24551" lon="-1.54632">
        <ele>15.199999809265</ele>
        <time>2019-04-02T07:29:16.000Z</time>
      </trkpt>
      <trkpt lat="47.2455" lon="-1.54632">
        <ele>15.199999809265</ele>
        <time>2019-04-02T07:29:17.000Z</time>
      </trkpt>
      <trkpt lat="47.24549" lon="-1.54633">
        <ele>15.199999809265</ele>
        <time>2019-04-02T07:29:18.000Z</time>
      </trkpt>
      <trkpt lat="47.24548" lon="-1.54634">
        <ele>15.199999809265</ele>
        <time>2019-04-02T07:29:19.000Z</time>
      </trkpt>
      <trkpt lat="47.24547" lon="-1.54635">
        <ele>15.199999809265</ele>
        <time>2019-04-02T07:29:20.000Z</time>
      </trkpt>
      <trkpt lat="47.24545" lon="-1.54635">
        <ele>15.199999809265</ele>
        <time>2019-04-02T07:29:21.000Z</time>
      </trkpt>
      <trkpt lat="47.24544" lon="-1.54636">
        <ele>15.199999809265</ele>
        <time>2019-04-02T07:29:22.000Z</time>
      </trkpt>
      <trkpt lat="47.24542" lon="-1.54636">
        <ele>15.199999809265</ele>
        <time>2019-04-02T07:29:23.000Z</time>
      </trkpt>
      <trkpt lat="47.24541" lon="-1.54637">
        <ele>15.199999809265</ele>
        <time>2019-04-02T07:29:24.000Z</time>
      </trkpt>
      <trkpt lat="47.24539" lon="-1.54638">
        <ele>15.199999809265</ele>
        <time>2019-04-02T07:29:25.000Z</time>
      </trkpt>
      <trkpt lat="47.24537" lon="-1.54639">
        <ele>15.199999809265</ele>
        <time>2019-04-02T07:29:26.000Z</time>
      </trkpt>
      <trkpt lat="47.24535" lon="-1.5464">
        <ele>15.199999809265</ele>
        <time>2019-04-02T07:29:27.000Z</time>
      </trkpt>
      <trkpt lat="47.24532" lon="-1.54641">
        <ele>15.199999809265</ele>
        <time>2019-04-02T07:29:28.000Z</time>
      </trkpt>
      <trkpt lat="47.24532" lon="-1.54641">
        <ele>15.199999809265</ele>
        <time>2019-04-02T07:29:29.000Z</time>
      </trkpt>
      <trkpt lat="47.2453" lon="-1.54641">
        <ele>15.199999809265</ele>
        <time>2019-04-02T07:29:30.000Z</time>
      </trkpt>
      <trkpt lat="47.24528" lon="-1.54641">
        <ele>15.199999809265</ele>
        <time>2019-04-02T07:29:31.000Z</time>
      </trkpt>
      <trkpt lat="47.24527" lon="-1.54641">
        <ele>15.199999809265</ele>
        <time>2019-04-02T07:29:32.000Z</time>
      </trkpt>
      <trkpt lat="47.24526" lon="-1.54642">
        <ele>15.199999809265</ele>
        <time>2019-04-02T07:29:33.000Z</time>
      </trkpt>
      <trkpt lat="47.24524" lon="-1.54643">
        <ele>15.199999809265</ele>
        <time>2019-04-02T07:29:34.000Z</time>
      </trkpt>
      <trkpt lat="47.24522" lon="-1.54643">
        <ele>15.199999809265</ele>
        <time>2019-04-02T07:29:35.000Z</time>
      </trkpt>
      <trkpt lat="47.24521" lon="-1.54644">
        <ele>15.199999809265</ele>
        <time>2019-04-02T07:29:36.000Z</time>
      </trkpt>
      <trkpt lat="47.24518" lon="-1.54646">
        <ele>15.199999809265</ele>
        <time>2019-04-02T07:29:37.000Z</time>
      </trkpt>
      <trkpt lat="47.24518" lon="-1.54646">
        <ele>15.199999809265</ele>
        <time>2019-04-02T07:29:38.000Z</time>
      </trkpt>
      <trkpt lat="47.24516" lon="-1.54646">
        <ele>15.199999809265</ele>
        <time>2019-04-02T07:29:39.000Z</time>
      </trkpt>
      <trkpt lat="47.24515" lon="-1.54647">
        <ele>15.199999809265</ele>
        <time>2019-04-02T07:29:40.000Z</time>
      </trkpt>
      <trkpt lat="47.24512" lon="-1.54648">
        <ele>15.199999809265</ele>
        <time>2019-04-02T07:29:41.000Z</time>
      </trkpt>
      <trkpt lat="47.24512" lon="-1.54648">
        <ele>15.199999809265</ele>
        <time>2019-04-02T07:29:42.000Z</time>
      </trkpt>
      <trkpt lat="47.24508" lon="-1.54649">
        <ele>15.199999809265</ele>
        <time>2019-04-02T07:29:43.000Z</time>
      </trkpt>
      <trkpt lat="47.24508" lon="-1.54649">
        <ele>15.199999809265</ele>
        <time>2019-04-02T07:29:44.000Z</time>
      </trkpt>
      <trkpt lat="47.24507" lon="-1.54649">
        <ele>15.199999809265</ele>
        <time>2019-04-02T07:29:45.000Z</time>
      </trkpt>
      <trkpt lat="47.24505" lon="-1.5465">
        <ele>15.199999809265</ele>
        <time>2019-04-02T07:29:46.000Z</time>
      </trkpt>
      <trkpt lat="47.24504" lon="-1.54651">
        <ele>15.199999809265</ele>
        <time>2019-04-02T07:29:47.000Z</time>
      </trkpt>
      <trkpt lat="47.24503" lon="-1.54652">
        <ele>15.199999809265</ele>
        <time>2019-04-02T07:29:48.000Z</time>
      </trkpt>
      <trkpt lat="47.24501" lon="-1.54653">
        <ele>15.199999809265</ele>
        <time>2019-04-02T07:29:49.000Z</time>
      </trkpt>
      <trkpt lat="47.24499" lon="-1.54653">
        <ele>15.39999961853</ele>
        <time>2019-04-02T07:29:50.000Z</time>
      </trkpt>
      <trkpt lat="47.24498" lon="-1.54654">
        <ele>15.39999961853</ele>
        <time>2019-04-02T07:29:51.000Z</time>
      </trkpt>
      <trkpt lat="47.24497" lon="-1.54655">
        <ele>15.39999961853</ele>
        <time>2019-04-02T07:29:52.000Z</time>
      </trkpt>
      <trkpt lat="47.24496" lon="-1.54656">
        <ele>15.39999961853</ele>
        <time>2019-04-02T07:29:53.000Z</time>
      </trkpt>
      <trkpt lat="47.24495" lon="-1.54657">
        <ele>15.60000038147</ele>
        <time>2019-04-02T07:29:54.000Z</time>
      </trkpt>
      <trkpt lat="47.24493" lon="-1.54658">
        <ele>15.60000038147</ele>
        <time>2019-04-02T07:29:55.000Z</time>
      </trkpt>
      <trkpt lat="47.24492" lon="-1.54658">
        <ele>15.800000190735</ele>
        <time>2019-04-02T07:29:56.000Z</time>
      </trkpt>
      <trkpt lat="47.2449" lon="-1.54659">
        <ele>15.800000190735</ele>
        <time>2019-04-02T07:29:57.000Z</time>
      </trkpt>
      <trkpt lat="47.24489" lon="-1.5466">
        <ele>16</ele>
        <time>2019-04-02T07:29:58.000Z</time>
      </trkpt>
      <trkpt lat="47.24488" lon="-1.54661">
        <ele>16</ele>
        <time>2019-04-02T07:29:59.000Z</time>
      </trkpt>
      <trkpt lat="47.24486" lon="-1.54662">
        <ele>16.200000762939</ele>
        <time>2019-04-02T07:30:00.000Z</time>
      </trkpt>
      <trkpt lat="47.24485" lon="-1.54663">
        <ele>16.39999961853</ele>
        <time>2019-04-02T07:30:01.000Z</time>
      </trkpt>
      <trkpt lat="47.24484" lon="-1.54664">
        <ele>16.39999961853</ele>
        <time>2019-04-02T07:30:02.000Z</time>
      </trkpt>
      <trkpt lat="47.24484" lon="-1.54665">
        <ele>16.60000038147</ele>
        <time>2019-04-02T07:30:03.000Z</time>
      </trkpt>
      <trkpt lat="47.24483" lon="-1.54666">
        <ele>16.60000038147</ele>
        <time>2019-04-02T07:30:04.000Z</time>
      </trkpt>
      <trkpt lat="47.24482" lon="-1.54667">
        <ele>16.799999237061</ele>
        <time>2019-04-02T07:30:05.000Z</time>
      </trkpt>
      <trkpt lat="47.24481" lon="-1.54668">
        <ele>16.799999237061</ele>
        <time>2019-04-02T07:30:06.000Z</time>
      </trkpt>
      <trkpt lat="47.2448" lon="-1.54669">
        <ele>17</ele>
        <time>2019-04-02T07:30:07.000Z</time>
      </trkpt>
      <trkpt lat="47.24478" lon="-1.5467">
        <ele>17</ele>
        <time>2019-04-02T07:30:08.000Z</time>
      </trkpt>
      <trkpt lat="47.24477" lon="-1.54671">
        <ele>17.200000762939</ele>
        <time>2019-04-02T07:30:09.000Z</time>
      </trkpt>
      <trkpt lat="47.24475" lon="-1.54672">
        <ele>17.200000762939</ele>
        <time>2019-04-02T07:30:10.000Z</time>
      </trkpt>
      <trkpt lat="47.24474" lon="-1.54673">
        <ele>17.39999961853</ele>
        <time>2019-04-02T07:30:11.000Z</time>
      </trkpt>
      <trkpt lat="47.24472" lon="-1.54674">
        <ele>17.60000038147</ele>
        <time>2019-04-02T07:30:12.000Z</time>
      </trkpt>
      <trkpt lat="47.24471" lon="-1.54675">
        <ele>17.60000038147</ele>
        <time>2019-04-02T07:30:13.000Z</time>
      </trkpt>
      <trkpt lat="47.2447" lon="-1.54676">
        <ele>17.799999237061</ele>
        <time>2019-04-02T07:30:14.000Z</time>
      </trkpt>
      <trkpt lat="47.24469" lon="-1.54677">
        <ele>17.799999237061</ele>
        <time>2019-04-02T07:30:15.000Z</time>
      </trkpt>
      <trkpt lat="47.24468" lon="-1.54677">
        <ele>17.799999237061</ele>
        <time>2019-04-02T07:30:16.000Z</time>
      </trkpt>
      <trkpt lat="47.24466" lon="-1.54678">
        <ele>18</ele>
        <time>2019-04-02T07:30:17.000Z</time>
      </trkpt>
      <trkpt lat="47.24465" lon="-1.54679">
        <ele>18</ele>
        <time>2019-04-02T07:30:18.000Z</time>
      </trkpt>
      <trkpt lat="47.24464" lon="-1.5468">
        <ele>18</ele>
        <time>2019-04-02T07:30:19.000Z</time>
      </trkpt>
      <trkpt lat="47.24462" lon="-1.54681">
        <ele>18.200000762939</ele>
        <time>2019-04-02T07:30:20.000Z</time>
      </trkpt>
      <trkpt lat="47.24462" lon="-1.54681">
        <ele>18.200000762939</ele>
        <time>2019-04-02T07:30:21.000Z</time>
      </trkpt>
      <trkpt lat="47.24461" lon="-1.54682">
        <ele>18.200000762939</ele>
        <time>2019-04-02T07:30:22.000Z</time>
      </trkpt>
      <trkpt lat="47.2446" lon="-1.54683">
        <ele>18.39999961853</ele>
        <time>2019-04-02T07:30:23.000Z</time>
      </trkpt>
      <trkpt lat="47.24458" lon="-1.54683">
        <ele>18.39999961853</ele>
        <time>2019-04-02T07:30:24.000Z</time>
      </trkpt>
      <trkpt lat="47.24458" lon="-1.54684">
        <ele>18.39999961853</ele>
        <time>2019-04-02T07:30:25.000Z</time>
      </trkpt>
      <trkpt lat="47.24457" lon="-1.54685">
        <ele>18.60000038147</ele>
        <time>2019-04-02T07:30:26.000Z</time>
      </trkpt>
      <trkpt lat="47.24455" lon="-1.54686">
        <ele>18.799999237061</ele>
        <time>2019-04-02T07:30:27.000Z</time>
      </trkpt>
      <trkpt lat="47.24454" lon="-1.54687">
        <ele>18.799999237061</ele>
        <time>2019-04-02T07:30:28.000Z</time>
      </trkpt>
      <trkpt lat="47.24453" lon="-1.54688">
        <ele>19</ele>
        <time>2019-04-02T07:30:29.000Z</time>
      </trkpt>
      <trkpt lat="47.24452" lon="-1.54689">
        <ele>19.200000762939</ele>
        <time>2019-04-02T07:30:30.000Z</time>
      </trkpt>
      <trkpt lat="47.2445" lon="-1.54691">
        <ele>19.200000762939</ele>
        <time>2019-04-02T07:30:31.000Z</time>
      </trkpt>
      <trkpt lat="47.24449" lon="-1.54691">
        <ele>19.39999961853</ele>
        <time>2019-04-02T07:30:32.000Z</time>
      </trkpt>
      <trkpt lat="47.24447" lon="-1.54693">
        <ele>19.39999961853</ele>
        <time>2019-04-02T07:30:33.000Z</time>
      </trkpt>
      <trkpt lat="47.24446" lon="-1.54694">
        <ele>19.60000038147</ele>
        <time>2019-04-02T07:30:34.000Z</time>
      </trkpt>
      <trkpt lat="47.24444" lon="-1.54695">
        <ele>19.60000038147</ele>
        <time>2019-04-02T07:30:35.000Z</time>
      </trkpt>
      <trkpt lat="47.24443" lon="-1.54696">
        <ele>19.799999237061</ele>
        <time>2019-04-02T07:30:36.000Z</time>
      </trkpt>
      <trkpt lat="47.24442" lon="-1.54696">
        <ele>19.799999237061</ele>
        <time>2019-04-02T07:30:37.000Z</time>
      </trkpt>
      <trkpt lat="47.24441" lon="-1.54697">
        <ele>19.799999237061</ele>
        <time>2019-04-02T07:30:38.000Z</time>
      </trkpt>
      <trkpt lat="47.24438" lon="-1.54699">
        <ele>20</ele>
        <time>2019-04-02T07:30:39.000Z</time>
      </trkpt>
      <trkpt lat="47.24438" lon="-1.54699">
        <ele>20</ele>
        <time>2019-04-02T07:30:40.000Z</time>
      </trkpt>
      <trkpt lat="47.24437" lon="-1.547">
        <ele>20.200000762939</ele>
        <time>2019-04-02T07:30:41.000Z</time>
      </trkpt>
      <trkpt lat="47.24436" lon="-1.54701">
        <ele>20.200000762939</ele>
        <time>2019-04-02T07:30:42.000Z</time>
      </trkpt>
      <trkpt lat="47.24435" lon="-1.54701">
        <ele>20.39999961853</ele>
        <time>2019-04-02T07:30:43.000Z</time>
      </trkpt>
      <trkpt lat="47.24433" lon="-1.54702">
        <ele>20.39999961853</ele>
        <time>2019-04-02T07:30:44.000Z</time>
      </trkpt>
      <trkpt lat="47.24432" lon="-1.54702">
        <ele>20.39999961853</ele>
        <time>2019-04-02T07:30:45.000Z</time>
      </trkpt>
      <trkpt lat="47.2443" lon="-1.54703">
        <ele>20.39999961853</ele>
        <time>2019-04-02T07:30:46.000Z</time>
      </trkpt>
      <trkpt lat="47.24429" lon="-1.54704">
        <ele>20.60000038147</ele>
        <time>2019-04-02T07:30:47.000Z</time>
      </trkpt>
      <trkpt lat="47.24427" lon="-1.54705">
        <ele>20.799999237061</ele>
        <time>2019-04-02T07:30:48.000Z</time>
      </trkpt>
      <trkpt lat="47.24426" lon="-1.54706">
        <ele>20.799999237061</ele>
        <time>2019-04-02T07:30:49.000Z</time>
      </trkpt>
      <trkpt lat="47.24424" lon="-1.54706">
        <ele>20.799999237061</ele>
        <time>2019-04-02T07:30:50.000Z</time>
      </trkpt>
      <trkpt lat="47.24423" lon="-1.54707">
        <ele>20.799999237061</ele>
        <time>2019-04-02T07:30:51.000Z</time>
      </trkpt>
      <trkpt lat="47.24421" lon="-1.54708">
        <ele>21</ele>
        <time>2019-04-02T07:30:52.000Z</time>
      </trkpt>
      <trkpt lat="47.2442" lon="-1.54709">
        <ele>21</ele>
        <time>2019-04-02T07:30:53.000Z</time>
      </trkpt>
      <trkpt lat="47.24418" lon="-1.5471">
        <ele>21.200000762939</ele>
        <time>2019-04-02T07:30:54.000Z</time>
      </trkpt>
      <trkpt lat="47.24417" lon="-1.54711">
        <ele>21.200000762939</ele>
        <time>2019-04-02T07:30:55.000Z</time>
      </trkpt>
      <trkpt lat="47.24416" lon="-1.54712">
        <ele>21.39999961853</ele>
        <time>2019-04-02T07:30:56.000Z</time>
      </trkpt>
      <trkpt lat="47.24415" lon="-1.54713">
        <ele>21.39999961853</ele>
        <time>2019-04-02T07:30:57.000Z</time>
      </trkpt>
      <trkpt lat="47.24414" lon="-1.54714">
        <ele>21.60000038147</ele>
        <time>2019-04-02T07:30:58.000Z</time>
      </trkpt>
      <trkpt lat="47.24413" lon="-1.54715">
        <ele>21.60000038147</ele>
        <time>2019-04-02T07:30:59.000Z</time>
      </trkpt>
      <trkpt lat="47.24411" lon="-1.54715">
        <ele>21.60000038147</ele>
        <time>2019-04-02T07:31:00.000Z</time>
      </trkpt>
      <trkpt lat="47.24409" lon="-1.54717">
        <ele>21.39999961853</ele>
        <time>2019-04-02T07:31:01.000Z</time>
      </trkpt>
      <trkpt lat="47.24409" lon="-1.54717">
        <ele>21.39999961853</ele>
        <time>2019-04-02T07:31:02.000Z</time>
      </trkpt>
      <trkpt lat="47.24407" lon="-1.54718">
        <ele>21.39999961853</ele>
        <time>2019-04-02T07:31:03.000Z</time>
      </trkpt>
      <trkpt lat="47.24405" lon="-1.54719">
        <ele>21.200000762939</ele>
        <time>2019-04-02T07:31:04.000Z</time>
      </trkpt>
      <trkpt lat="47.24404" lon="-1.5472">
        <ele>21.200000762939</ele>
        <time>2019-04-02T07:31:05.000Z</time>
      </trkpt>
      <trkpt lat="47.24402" lon="-1.54721">
        <ele>21</ele>
        <time>2019-04-02T07:31:06.000Z</time>
      </trkpt>
      <trkpt lat="47.244" lon="-1.54721">
        <ele>20.799999237061</ele>
        <time>2019-04-02T07:31:07.000Z</time>
      </trkpt>
      <trkpt lat="47.24399" lon="-1.54721">
        <ele>20.60000038147</ele>
        <time>2019-04-02T07:31:08.000Z</time>
      </trkpt>
      <trkpt lat="47.24397" lon="-1.54721">
        <ele>20.39999961853</ele>
        <time>2019-04-02T07:31:09.000Z</time>
      </trkpt>
      <trkpt lat="47.24395" lon="-1.54722">
        <ele>20.200000762939</ele>
        <time>2019-04-02T07:31:10.000Z</time>
      </trkpt>
      <trkpt lat="47.24394" lon="-1.54722">
        <ele>20.200000762939</ele>
        <time>2019-04-02T07:31:11.000Z</time>
      </trkpt>
      <trkpt lat="47.24393" lon="-1.54723">
        <ele>20.200000762939</ele>
        <time>2019-04-02T07:31:12.000Z</time>
      </trkpt>
      <trkpt lat="47.24391" lon="-1.54724">
        <ele>20</ele>
        <time>2019-04-02T07:31:13.000Z</time>
      </trkpt>
      <trkpt lat="47.2439" lon="-1.54725">
        <ele>20</ele>
        <time>2019-04-02T07:31:14.000Z</time>
      </trkpt>
      <trkpt lat="47.24389" lon="-1.54726">
        <ele>20</ele>
        <time>2019-04-02T07:31:15.000Z</time>
      </trkpt>
      <trkpt lat="47.24388" lon="-1.54727">
        <ele>20</ele>
        <time>2019-04-02T07:31:16.000Z</time>
      </trkpt>
      <trkpt lat="47.24386" lon="-1.54729">
        <ele>20</ele>
        <time>2019-04-02T07:31:17.000Z</time>
      </trkpt>
      <trkpt lat="47.24385" lon="-1.5473">
        <ele>20</ele>
        <time>2019-04-02T07:31:18.000Z</time>
      </trkpt>
      <trkpt lat="47.24384" lon="-1.54732">
        <ele>20</ele>
        <time>2019-04-02T07:31:19.000Z</time>
      </trkpt>
      <trkpt lat="47.24384" lon="-1.54732">
        <ele>20</ele>
        <time>2019-04-02T07:31:20.000Z</time>
      </trkpt>
      <trkpt lat="47.24383" lon="-1.54733">
        <ele>20</ele>
        <time>2019-04-02T07:31:21.000Z</time>
      </trkpt>
      <trkpt lat="47.24381" lon="-1.54734">
        <ele>20</ele>
        <time>2019-04-02T07:31:22.000Z</time>
      </trkpt>
      <trkpt lat="47.2438" lon="-1.54736">
        <ele>19.799999237061</ele>
        <time>2019-04-02T07:31:23.000Z</time>
      </trkpt>
      <trkpt lat="47.24379" lon="-1.54738">
        <ele>19.799999237061</ele>
        <time>2019-04-02T07:31:24.000Z</time>
      </trkpt>
      <trkpt lat="47.24378" lon="-1.5474">
        <ele>19.60000038147</ele>
        <time>2019-04-02T07:31:25.000Z</time>
      </trkpt>
      <trkpt lat="47.24376" lon="-1.54741">
        <ele>19.39999961853</ele>
        <time>2019-04-02T07:31:26.000Z</time>
      </trkpt>
      <trkpt lat="47.24375" lon="-1.54742">
        <ele>19.39999961853</ele>
        <time>2019-04-02T07:31:27.000Z</time>
      </trkpt>
      <trkpt lat="47.24374" lon="-1.54743">
        <ele>19.39999961853</ele>
        <time>2019-04-02T07:31:28.000Z</time>
      </trkpt>
      <trkpt lat="47.24373" lon="-1.54744">
        <ele>19.200000762939</ele>
        <time>2019-04-02T07:31:29.000Z</time>
      </trkpt>
      <trkpt lat="47.24372" lon="-1.54745">
        <ele>19</ele>
        <time>2019-04-02T07:31:30.000Z</time>
      </trkpt>
      <trkpt lat="47.24371" lon="-1.54746">
        <ele>18.799999237061</ele>
        <time>2019-04-02T07:31:31.000Z</time>
      </trkpt>
      <trkpt lat="47.24369" lon="-1.54747">
        <ele>18.799999237061</ele>
        <time>2019-04-02T07:31:32.000Z</time>
      </trkpt>
      <trkpt lat="47.24368" lon="-1.54748">
        <ele>18.60000038147</ele>
        <time>2019-04-02T07:31:33.000Z</time>
      </trkpt>
      <trkpt lat="47.24366" lon="-1.54749">
        <ele>18.39999961853</ele>
        <time>2019-04-02T07:31:34.000Z</time>
      </trkpt>
      <trkpt lat="47.24365" lon="-1.5475">
        <ele>18.200000762939</ele>
        <time>2019-04-02T07:31:35.000Z</time>
      </trkpt>
      <trkpt lat="47.24363" lon="-1.54751">
        <ele>18.200000762939</ele>
        <time>2019-04-02T07:31:36.000Z</time>
      </trkpt>
      <trkpt lat="47.2436" lon="-1.54753">
        <ele>17.799999237061</ele>
        <time>2019-04-02T07:31:37.000Z</time>
      </trkpt>
      <trkpt lat="47.2436" lon="-1.54753">
        <ele>17.799999237061</ele>
        <time>2019-04-02T07:31:38.000Z</time>
      </trkpt>
      <trkpt lat="47.24359" lon="-1.54755">
        <ele>17.60000038147</ele>
        <time>2019-04-02T07:31:39.000Z</time>
      </trkpt>
      <trkpt lat="47.24357" lon="-1.54756">
        <ele>17.39999961853</ele>
        <time>2019-04-02T07:31:40.000Z</time>
      </trkpt>
      <trkpt lat="47.24354" lon="-1.54758">
        <ele>17.200000762939</ele>
        <time>2019-04-02T07:31:41.000Z</time>
      </trkpt>
      <trkpt lat="47.24354" lon="-1.54758">
        <ele>17.200000762939</ele>
        <time>2019-04-02T07:31:42.000Z</time>
      </trkpt>
      <trkpt lat="47.24353" lon="-1.54759">
        <ele>17</ele>
        <time>2019-04-02T07:31:43.000Z</time>
      </trkpt>
      <trkpt lat="47.24351" lon="-1.54759">
        <ele>16.799999237061</ele>
        <time>2019-04-02T07:31:44.000Z</time>
      </trkpt>
      <trkpt lat="47.2435" lon="-1.5476">
        <ele>16.60000038147</ele>
        <time>2019-04-02T07:31:45.000Z</time>
      </trkpt>
      <trkpt lat="47.24348" lon="-1.54761">
        <ele>16.60000038147</ele>
        <time>2019-04-02T07:31:46.000Z</time>
      </trkpt>
      <trkpt lat="47.24347" lon="-1.54761">
        <ele>16.39999961853</ele>
        <time>2019-04-02T07:31:47.000Z</time>
      </trkpt>
      <trkpt lat="47.24346" lon="-1.54762">
        <ele>16.200000762939</ele>
        <time>2019-04-02T07:31:48.000Z</time>
      </trkpt>
      <trkpt lat="47.24345" lon="-1.54764">
        <ele>16.200000762939</ele>
        <time>2019-04-02T07:31:49.000Z</time>
      </trkpt>
      <trkpt lat="47.24343" lon="-1.54765">
        <ele>16</ele>
        <time>2019-04-02T07:31:50.000Z</time>
      </trkpt>
      <trkpt lat="47.24342" lon="-1.54767">
        <ele>15.800000190735</ele>
        <time>2019-04-02T07:31:51.000Z</time>
      </trkpt>
      <trkpt lat="47.2434" lon="-1.54769">
        <ele>15.800000190735</ele>
        <time>2019-04-02T07:31:52.000Z</time>
      </trkpt>
      <trkpt lat="47.24339" lon="-1.54771">
        <ele>15.60000038147</ele>
        <time>2019-04-02T07:31:53.000Z</time>
      </trkpt>
      <trkpt lat="47.24338" lon="-1.54772">
        <ele>15.39999961853</ele>
        <time>2019-04-02T07:31:54.000Z</time>
      </trkpt>
      <trkpt lat="47.24337" lon="-1.54774">
        <ele>15.39999961853</ele>
        <time>2019-04-02T07:31:55.000Z</time>
      </trkpt>
      <trkpt lat="47.24336" lon="-1.54776">
        <ele>15.39999961853</ele>
        <time>2019-04-02T07:31:56.000Z</time>
      </trkpt>
      <trkpt lat="47.24335" lon="-1.54777">
        <ele>15.199999809265</ele>
        <time>2019-04-02T07:31:57.000Z</time>
      </trkpt>
      <trkpt lat="47.24333" lon="-1.5478">
        <ele>15.199999809265</ele>
        <time>2019-04-02T07:31:58.000Z</time>
      </trkpt>
      <trkpt lat="47.24333" lon="-1.5478">
        <ele>15.199999809265</ele>
        <time>2019-04-02T07:31:59.000Z</time>
      </trkpt>
      <trkpt lat="47.24332" lon="-1.54781">
        <ele>15.199999809265</ele>
        <time>2019-04-02T07:32:00.000Z</time>
      </trkpt>
      <trkpt lat="47.24331" lon="-1.54783">
        <ele>15</ele>
        <time>2019-04-02T07:32:01.000Z</time>
      </trkpt>
      <trkpt lat="47.2433" lon="-1.54784">
        <ele>15</ele>
        <time>2019-04-02T07:32:02.000Z</time>
      </trkpt>
      <trkpt lat="47.2433" lon="-1.54786">
        <ele>15</ele>
        <time>2019-04-02T07:32:03.000Z</time>
      </trkpt>
      <trkpt lat="47.24329" lon="-1.54788">
        <ele>15</ele>
        <time>2019-04-02T07:32:04.000Z</time>
      </trkpt>
      <trkpt lat="47.24328" lon="-1.54789">
        <ele>15</ele>
        <time>2019-04-02T07:32:05.000Z</time>
      </trkpt>
      <trkpt lat="47.24326" lon="-1.54791">
        <ele>14.800000190735</ele>
        <time>2019-04-02T07:32:06.000Z</time>
      </trkpt>
      <trkpt lat="47.24325" lon="-1.54792">
        <ele>14.800000190735</ele>
        <time>2019-04-02T07:32:07.000Z</time>
      </trkpt>
      <trkpt lat="47.24324" lon="-1.54793">
        <ele>14.800000190735</ele>
        <time>2019-04-02T07:32:08.000Z</time>
      </trkpt>
      <trkpt lat="47.24322" lon="-1.54794">
        <ele>14.800000190735</ele>
        <time>2019-04-02T07:32:09.000Z</time>
      </trkpt>
      <trkpt lat="47.2432" lon="-1.54794">
        <ele>14.60000038147</ele>
        <time>2019-04-02T07:32:10.000Z</time>
      </trkpt>
      <trkpt lat="47.24319" lon="-1.54795">
        <ele>14.60000038147</ele>
        <time>2019-04-02T07:32:11.000Z</time>
      </trkpt>
      <trkpt lat="47.24317" lon="-1.54796">
        <ele>14.60000038147</ele>
        <time>2019-04-02T07:32:12.000Z</time>
      </trkpt>
      <trkpt lat="47.24316" lon="-1.54797">
        <ele>14.39999961853</ele>
        <time>2019-04-02T07:32:13.000Z</time>
      </trkpt>
      <trkpt lat="47.24315" lon="-1.54798">
        <ele>14.39999961853</ele>
        <time>2019-04-02T07:32:14.000Z</time>
      </trkpt>
      <trkpt lat="47.24313" lon="-1.54798">
        <ele>14.39999961853</ele>
        <time>2019-04-02T07:32:15.000Z</time>
      </trkpt>
      <trkpt lat="47.24312" lon="-1.54799">
        <ele>14.199999809265</ele>
        <time>2019-04-02T07:32:16.000Z</time>
      </trkpt>
      <trkpt lat="47.2431" lon="-1.548">
        <ele>14.199999809265</ele>
        <time>2019-04-02T07:32:17.000Z</time>
      </trkpt>
      <trkpt lat="47.24307" lon="-1.548">
        <ele>14</ele>
        <time>2019-04-02T07:32:18.000Z</time>
      </trkpt>
      <trkpt lat="47.24307" lon="-1.548">
        <ele>14</ele>
        <time>2019-04-02T07:32:19.000Z</time>
      </trkpt>
      <trkpt lat="47.24305" lon="-1.54801">
        <ele>14</ele>
        <time>2019-04-02T07:32:20.000Z</time>
      </trkpt>
      <trkpt lat="47.24304" lon="-1.54802">
        <ele>14</ele>
        <time>2019-04-02T07:32:21.000Z</time>
      </trkpt>
      <trkpt lat="47.24303" lon="-1.54802">
        <ele>13.800000190735</ele>
        <time>2019-04-02T07:32:22.000Z</time>
      </trkpt>
      <trkpt lat="47.24301" lon="-1.54803">
        <ele>13.800000190735</ele>
        <time>2019-04-02T07:32:23.000Z</time>
      </trkpt>
      <trkpt lat="47.243" lon="-1.54804">
        <ele>13.800000190735</ele>
        <time>2019-04-02T07:32:24.000Z</time>
      </trkpt>
      <trkpt lat="47.24299" lon="-1.54805">
        <ele>13.800000190735</ele>
        <time>2019-04-02T07:32:25.000Z</time>
      </trkpt>
      <trkpt lat="47.24297" lon="-1.54806">
        <ele>13.60000038147</ele>
        <time>2019-04-02T07:32:26.000Z</time>
      </trkpt>
      <trkpt lat="47.24296" lon="-1.54807">
        <ele>13.60000038147</ele>
        <time>2019-04-02T07:32:27.000Z</time>
      </trkpt>
      <trkpt lat="47.24295" lon="-1.54807">
        <ele>13.60000038147</ele>
        <time>2019-04-02T07:32:28.000Z</time>
      </trkpt>
      <trkpt lat="47.24295" lon="-1.54808">
        <ele>13.60000038147</ele>
        <time>2019-04-02T07:32:29.000Z</time>
      </trkpt>
      <trkpt lat="47.24294" lon="-1.54809">
        <ele>13.60000038147</ele>
        <time>2019-04-02T07:32:30.000Z</time>
      </trkpt>
      <trkpt lat="47.24293" lon="-1.54809">
        <ele>13.60000038147</ele>
        <time>2019-04-02T07:32:31.000Z</time>
      </trkpt>
      <trkpt lat="47.24291" lon="-1.5481">
        <ele>13.39999961853</ele>
        <time>2019-04-02T07:32:32.000Z</time>
      </trkpt>
      <trkpt lat="47.2429" lon="-1.5481">
        <ele>13.39999961853</ele>
        <time>2019-04-02T07:32:33.000Z</time>
      </trkpt>
      <trkpt lat="47.24289" lon="-1.54811">
        <ele>13.39999961853</ele>
        <time>2019-04-02T07:32:34.000Z</time>
      </trkpt>
      <trkpt lat="47.24287" lon="-1.54812">
        <ele>13.199999809265</ele>
        <time>2019-04-02T07:32:35.000Z</time>
      </trkpt>
      <trkpt lat="47.24286" lon="-1.54813">
        <ele>13.199999809265</ele>
        <time>2019-04-02T07:32:36.000Z</time>
      </trkpt>
      <trkpt lat="47.24284" lon="-1.54814">
        <ele>13.199999809265</ele>
        <time>2019-04-02T07:32:37.000Z</time>
      </trkpt>
      <trkpt lat="47.24282" lon="-1.54815">
        <ele>13.199999809265</ele>
        <time>2019-04-02T07:32:38.000Z</time>
      </trkpt>
      <trkpt lat="47.24281" lon="-1.54816">
        <ele>13</ele>
        <time>2019-04-02T07:32:39.000Z</time>
      </trkpt>
      <trkpt lat="47.24279" lon="-1.54816">
        <ele>13</ele>
        <time>2019-04-02T07:32:40.000Z</time>
      </trkpt>
      <trkpt lat="47.24277" lon="-1.54817">
        <ele>12.800000190735</ele>
        <time>2019-04-02T07:32:41.000Z</time>
      </trkpt>
      <trkpt lat="47.24275" lon="-1.54818">
        <ele>12.800000190735</ele>
        <time>2019-04-02T07:32:42.000Z</time>
      </trkpt>
      <trkpt lat="47.24273" lon="-1.54818">
        <ele>12.60000038147</ele>
        <time>2019-04-02T07:32:43.000Z</time>
      </trkpt>
      <trkpt lat="47.24271" lon="-1.54819">
        <ele>12.60000038147</ele>
        <time>2019-04-02T07:32:44.000Z</time>
      </trkpt>
      <trkpt lat="47.2427" lon="-1.5482">
        <ele>12.60000038147</ele>
        <time>2019-04-02T07:32:45.000Z</time>
      </trkpt>
      <trkpt lat="47.24269" lon="-1.5482">
        <ele>12.39999961853</ele>
        <time>2019-04-02T07:32:46.000Z</time>
      </trkpt>
      <trkpt lat="47.24268" lon="-1.5482">
        <ele>12.39999961853</ele>
        <time>2019-04-02T07:32:47.000Z</time>
      </trkpt>
      <trkpt lat="47.24267" lon="-1.54821">
        <ele>12.39999961853</ele>
        <time>2019-04-02T07:32:48.000Z</time>
      </trkpt>
      <trkpt lat="47.24266" lon="-1.54821">
        <ele>12.39999961853</ele>
        <time>2019-04-02T07:32:49.000Z</time>
      </trkpt>
      <trkpt lat="47.24265" lon="-1.54822">
        <ele>12.39999961853</ele>
        <time>2019-04-02T07:32:50.000Z</time>
      </trkpt>
      <trkpt lat="47.24264" lon="-1.54822">
        <ele>12.199999809265</ele>
        <time>2019-04-02T07:32:51.000Z</time>
      </trkpt>
      <trkpt lat="47.24262" lon="-1.54823">
        <ele>12.199999809265</ele>
        <time>2019-04-02T07:32:52.000Z</time>
      </trkpt>
      <trkpt lat="47.24261" lon="-1.54823">
        <ele>12.199999809265</ele>
        <time>2019-04-02T07:32:53.000Z</time>
      </trkpt>
      <trkpt lat="47.24259" lon="-1.54823">
        <ele>12</ele>
        <time>2019-04-02T07:32:54.000Z</time>
      </trkpt>
      <trkpt lat="47.24258" lon="-1.54824">
        <ele>12</ele>
        <time>2019-04-02T07:32:55.000Z</time>
      </trkpt>
      <trkpt lat="47.24256" lon="-1.54824">
        <ele>11.800000190735</ele>
        <time>2019-04-02T07:32:56.000Z</time>
      </trkpt>
      <trkpt lat="47.24253" lon="-1.54826">
        <ele>11.800000190735</ele>
        <time>2019-04-02T07:32:57.000Z</time>
      </trkpt>
      <trkpt lat="47.24253" lon="-1.54826">
        <ele>11.800000190735</ele>
        <time>2019-04-02T07:32:58.000Z</time>
      </trkpt>
      <trkpt lat="47.24252" lon="-1.54826">
        <ele>11.60000038147</ele>
        <time>2019-04-02T07:32:59.000Z</time>
      </trkpt>
      <trkpt lat="47.24249" lon="-1.54827">
        <ele>11.60000038147</ele>
        <time>2019-04-02T07:33:00.000Z</time>
      </trkpt>
      <trkpt lat="47.24248" lon="-1.54828">
        <ele>11.39999961853</ele>
        <time>2019-04-02T07:33:01.000Z</time>
      </trkpt>
      <trkpt lat="47.24248" lon="-1.54828">
        <ele>11.39999961853</ele>
        <time>2019-04-02T07:33:02.000Z</time>
      </trkpt>
      <trkpt lat="47.24246" lon="-1.54828">
        <ele>11.39999961853</ele>
        <time>2019-04-02T07:33:03.000Z</time>
      </trkpt>
      <trkpt lat="47.24245" lon="-1.54829">
        <ele>11.39999961853</ele>
        <time>2019-04-02T07:33:04.000Z</time>
      </trkpt>
      <trkpt lat="47.24243" lon="-1.54829">
        <ele>11.60000038147</ele>
        <time>2019-04-02T07:33:05.000Z</time>
      </trkpt>
      <trkpt lat="47.24242" lon="-1.54828">
        <ele>11.800000190735</ele>
        <time>2019-04-02T07:33:06.000Z</time>
      </trkpt>
      <trkpt lat="47.24241" lon="-1.54828">
        <ele>11.800000190735</ele>
        <time>2019-04-02T07:33:07.000Z</time>
      </trkpt>
      <trkpt lat="47.2424" lon="-1.54828">
        <ele>12</ele>
        <time>2019-04-02T07:33:08.000Z</time>
      </trkpt>
      <trkpt lat="47.24239" lon="-1.54829">
        <ele>12</ele>
        <time>2019-04-02T07:33:09.000Z</time>
      </trkpt>
      <trkpt lat="47.24238" lon="-1.54829">
        <ele>12.199999809265</ele>
        <time>2019-04-02T07:33:10.000Z</time>
      </trkpt>
      <trkpt lat="47.24236" lon="-1.54829">
        <ele>12.39999961853</ele>
        <time>2019-04-02T07:33:11.000Z</time>
      </trkpt>
      <trkpt lat="47.24235" lon="-1.54829">
        <ele>12.39999961853</ele>
        <time>2019-04-02T07:33:12.000Z</time>
      </trkpt>
      <trkpt lat="47.24233" lon="-1.54828">
        <ele>12.60000038147</ele>
        <time>2019-04-02T07:33:13.000Z</time>
      </trkpt>
      <trkpt lat="47.24232" lon="-1.54828">
        <ele>12.60000038147</ele>
        <time>2019-04-02T07:33:14.000Z</time>
      </trkpt>
      <trkpt lat="47.2423" lon="-1.54827">
        <ele>12.800000190735</ele>
        <time>2019-04-02T07:33:15.000Z</time>
      </trkpt>
      <trkpt lat="47.24229" lon="-1.54826">
        <ele>12.800000190735</ele>
        <time>2019-04-02T07:33:16.000Z</time>
      </trkpt>
      <trkpt lat="47.24226" lon="-1.54825">
        <ele>13</ele>
        <time>2019-04-02T07:33:17.000Z</time>
      </trkpt>
      <trkpt lat="47.24226" lon="-1.54825">
        <ele>13</ele>
        <time>2019-04-02T07:33:18.000Z</time>
      </trkpt>
      <trkpt lat="47.24225" lon="-1.54824">
        <ele>13</ele>
        <time>2019-04-02T07:33:19.000Z</time>
      </trkpt>
      <trkpt lat="47.24224" lon="-1.54824">
        <ele>13.199999809265</ele>
        <time>2019-04-02T07:33:20.000Z</time>
      </trkpt>
      <trkpt lat="47.24222" lon="-1.54823">
        <ele>13.199999809265</ele>
        <time>2019-04-02T07:33:21.000Z</time>
      </trkpt>
      <trkpt lat="47.24221" lon="-1.54823">
        <ele>13.39999961853</ele>
        <time>2019-04-02T07:33:22.000Z</time>
      </trkpt>
      <trkpt lat="47.2422" lon="-1.54822">
        <ele>13.39999961853</ele>
        <time>2019-04-02T07:33:23.000Z</time>
      </trkpt>
      <trkpt lat="47.24219" lon="-1.54822">
        <ele>13.39999961853</ele>
        <time>2019-04-02T07:33:24.000Z</time>
      </trkpt>
      <trkpt lat="47.24218" lon="-1.54821">
        <ele>13.60000038147</ele>
        <time>2019-04-02T07:33:25.000Z</time>
      </trkpt>
      <trkpt lat="47.24216" lon="-1.5482">
        <ele>13.60000038147</ele>
        <time>2019-04-02T07:33:26.000Z</time>
      </trkpt>
      <trkpt lat="47.24215" lon="-1.54819">
        <ele>13.60000038147</ele>
        <time>2019-04-02T07:33:27.000Z</time>
      </trkpt>
      <trkpt lat="47.24214" lon="-1.54818">
        <ele>13.800000190735</ele>
        <time>2019-04-02T07:33:28.000Z</time>
      </trkpt>
      <trkpt lat="47.24211" lon="-1.54817">
        <ele>13.800000190735</ele>
        <time>2019-04-02T07:33:29.000Z</time>
      </trkpt>
      <trkpt lat="47.24211" lon="-1.54817">
        <ele>13.800000190735</ele>
        <time>2019-04-02T07:33:30.000Z</time>
      </trkpt>
      <trkpt lat="47.24209" lon="-1.54816">
        <ele>14</ele>
        <time>2019-04-02T07:33:31.000Z</time>
      </trkpt>
      <trkpt lat="47.24208" lon="-1.54815">
        <ele>14</ele>
        <time>2019-04-02T07:33:32.000Z</time>
      </trkpt>
      <trkpt lat="47.24207" lon="-1.54814">
        <ele>14</ele>
        <time>2019-04-02T07:33:33.000Z</time>
      </trkpt>
      <trkpt lat="47.24206" lon="-1.54813">
        <ele>14.199999809265</ele>
        <time>2019-04-02T07:33:34.000Z</time>
      </trkpt>
      <trkpt lat="47.24205" lon="-1.54812">
        <ele>14.199999809265</ele>
        <time>2019-04-02T07:33:35.000Z</time>
      </trkpt>
      <trkpt lat="47.24203" lon="-1.54811">
        <ele>14.199999809265</ele>
        <time>2019-04-02T07:33:36.000Z</time>
      </trkpt>
      <trkpt lat="47.24201" lon="-1.54808">
        <ele>14.199999809265</ele>
        <time>2019-04-02T07:33:37.000Z</time>
      </trkpt>
      <trkpt lat="47.24201" lon="-1.54808">
        <ele>14.199999809265</ele>
        <time>2019-04-02T07:33:38.000Z</time>
      </trkpt>
      <trkpt lat="47.242" lon="-1.54807">
        <ele>14.199999809265</ele>
        <time>2019-04-02T07:33:39.000Z</time>
      </trkpt>
      <trkpt lat="47.24199" lon="-1.54805">
        <ele>14.199999809265</ele>
        <time>2019-04-02T07:33:40.000Z</time>
      </trkpt>
      <trkpt lat="47.24196" lon="-1.54804">
        <ele>14.39999961853</ele>
        <time>2019-04-02T07:33:41.000Z</time>
      </trkpt>
      <trkpt lat="47.24196" lon="-1.54804">
        <ele>14.39999961853</ele>
        <time>2019-04-02T07:33:42.000Z</time>
      </trkpt>
      <trkpt lat="47.24195" lon="-1.54803">
        <ele>14.39999961853</ele>
        <time>2019-04-02T07:33:43.000Z</time>
      </trkpt>
      <trkpt lat="47.24194" lon="-1.54803">
        <ele>14.39999961853</ele>
        <time>2019-04-02T07:33:44.000Z</time>
      </trkpt>
      <trkpt lat="47.24192" lon="-1.54803">
        <ele>14.60000038147</ele>
        <time>2019-04-02T07:33:45.000Z</time>
      </trkpt>
      <trkpt lat="47.24191" lon="-1.54802">
        <ele>14.60000038147</ele>
        <time>2019-04-02T07:33:46.000Z</time>
      </trkpt>
      <trkpt lat="47.2419" lon="-1.54802">
        <ele>14.800000190735</ele>
        <time>2019-04-02T07:33:47.000Z</time>
      </trkpt>
      <trkpt lat="47.24189" lon="-1.54803">
        <ele>14.800000190735</ele>
        <time>2019-04-02T07:33:48.000Z</time>
      </trkpt>
      <trkpt lat="47.24188" lon="-1.54803">
        <ele>15</ele>
        <time>2019-04-02T07:33:49.000Z</time>
      </trkpt>
      <trkpt lat="47.24187" lon="-1.54802">
        <ele>15</ele>
        <time>2019-04-02T07:33:50.000Z</time>
      </trkpt>
      <trkpt lat="47.24186" lon="-1.54802">
        <ele>15.199999809265</ele>
        <time>2019-04-02T07:33:51.000Z</time>
      </trkpt>
      <trkpt lat="47.24185" lon="-1.54802">
        <ele>15.199999809265</ele>
        <time>2019-04-02T07:33:52.000Z</time>
      </trkpt>
      <trkpt lat="47.24184" lon="-1.54801">
        <ele>15.199999809265</ele>
        <time>2019-04-02T07:33:53.000Z</time>
      </trkpt>
      <trkpt lat="47.24182" lon="-1.54801">
        <ele>15.39999961853</ele>
        <time>2019-04-02T07:33:54.000Z</time>
      </trkpt>
      <trkpt lat="47.24181" lon="-1.54801">
        <ele>15.39999961853</ele>
        <time>2019-04-02T07:33:55.000Z</time>
      </trkpt>
      <trkpt lat="47.24179" lon="-1.548">
        <ele>15.60000038147</ele>
        <time>2019-04-02T07:33:56.000Z</time>
      </trkpt>
      <trkpt lat="47.24179" lon="-1.548">
        <ele>15.60000038147</ele>
        <time>2019-04-02T07:33:57.000Z</time>
      </trkpt>
      <trkpt lat="47.24177" lon="-1.548">
        <ele>15.60000038147</ele>
        <time>2019-04-02T07:33:58.000Z</time>
      </trkpt>
      <trkpt lat="47.24176" lon="-1.548">
        <ele>15.60000038147</ele>
        <time>2019-04-02T07:33:59.000Z</time>
      </trkpt>
      <trkpt lat="47.24174" lon="-1.54799">
        <ele>15.800000190735</ele>
        <time>2019-04-02T07:34:00.000Z</time>
      </trkpt>
      <trkpt lat="47.24171" lon="-1.54799">
        <ele>16</ele>
        <time>2019-04-02T07:34:01.000Z</time>
      </trkpt>
      <trkpt lat="47.24171" lon="-1.54799">
        <ele>16</ele>
        <time>2019-04-02T07:34:02.000Z</time>
      </trkpt>
      <trkpt lat="47.2417" lon="-1.54799">
        <ele>16</ele>
        <time>2019-04-02T07:34:03.000Z</time>
      </trkpt>
      <trkpt lat="47.24169" lon="-1.54799">
        <ele>16.200000762939</ele>
        <time>2019-04-02T07:34:04.000Z</time>
      </trkpt>
      <trkpt lat="47.24167" lon="-1.548">
        <ele>16.200000762939</ele>
        <time>2019-04-02T07:34:05.000Z</time>
      </trkpt>
      <trkpt lat="47.24166" lon="-1.548">
        <ele>16.39999961853</ele>
        <time>2019-04-02T07:34:06.000Z</time>
      </trkpt>
      <trkpt lat="47.24165" lon="-1.548">
        <ele>16.39999961853</ele>
        <time>2019-04-02T07:34:07.000Z</time>
      </trkpt>
      <trkpt lat="47.24164" lon="-1.54801">
        <ele>16.60000038147</ele>
        <time>2019-04-02T07:34:08.000Z</time>
      </trkpt>
      <trkpt lat="47.24162" lon="-1.54801">
        <ele>16.60000038147</ele>
        <time>2019-04-02T07:34:09.000Z</time>
      </trkpt>
      <trkpt lat="47.24161" lon="-1.54801">
        <ele>16.60000038147</ele>
        <time>2019-04-02T07:34:10.000Z</time>
      </trkpt>
      <trkpt lat="47.24159" lon="-1.54801">
        <ele>16.39999961853</ele>
        <time>2019-04-02T07:34:11.000Z</time>
      </trkpt>
      <trkpt lat="47.24158" lon="-1.54801">
        <ele>16.39999961853</ele>
        <time>2019-04-02T07:34:12.000Z</time>
      </trkpt>
      <trkpt lat="47.24156" lon="-1.54802">
        <ele>16.39999961853</ele>
        <time>2019-04-02T07:34:13.000Z</time>
      </trkpt>
      <trkpt lat="47.24154" lon="-1.54802">
        <ele>16.200000762939</ele>
        <time>2019-04-02T07:34:14.000Z</time>
      </trkpt>
      <trkpt lat="47.24152" lon="-1.54802">
        <ele>16.200000762939</ele>
        <time>2019-04-02T07:34:15.000Z</time>
      </trkpt>
      <trkpt lat="47.24151" lon="-1.54802">
        <ele>16.200000762939</ele>
        <time>2019-04-02T07:34:16.000Z</time>
      </trkpt>
      <trkpt lat="47.24149" lon="-1.54802">
        <ele>16</ele>
        <time>2019-04-02T07:34:17.000Z</time>
      </trkpt>
      <trkpt lat="47.24147" lon="-1.54802">
        <ele>16</ele>
        <time>2019-04-02T07:34:18.000Z</time>
      </trkpt>
      <trkpt lat="47.24145" lon="-1.54802">
        <ele>15.800000190735</ele>
        <time>2019-04-02T07:34:19.000Z</time>
      </trkpt>
      <trkpt lat="47.24144" lon="-1.54802">
        <ele>15.800000190735</ele>
        <time>2019-04-02T07:34:20.000Z</time>
      </trkpt>
      <trkpt lat="47.24143" lon="-1.54802">
        <ele>15.800000190735</ele>
        <time>2019-04-02T07:34:21.000Z</time>
      </trkpt>
      <trkpt lat="47.24141" lon="-1.54802">
        <ele>15.60000038147</ele>
        <time>2019-04-02T07:34:22.000Z</time>
      </trkpt>
      <trkpt lat="47.2414" lon="-1.54802">
        <ele>15.60000038147</ele>
        <time>2019-04-02T07:34:23.000Z</time>
      </trkpt>
      <trkpt lat="47.24138" lon="-1.54802">
        <ele>15.60000038147</ele>
        <time>2019-04-02T07:34:24.000Z</time>
      </trkpt>
      <trkpt lat="47.24137" lon="-1.54802">
        <ele>15.60000038147</ele>
        <time>2019-04-02T07:34:25.000Z</time>
      </trkpt>
      <trkpt lat="47.24135" lon="-1.54803">
        <ele>15.39999961853</ele>
        <time>2019-04-02T07:34:26.000Z</time>
      </trkpt>
      <trkpt lat="47.24134" lon="-1.54803">
        <ele>15.39999961853</ele>
        <time>2019-04-02T07:34:27.000Z</time>
      </trkpt>
      <trkpt lat="47.24132" lon="-1.54803">
        <ele>15.39999961853</ele>
        <time>2019-04-02T07:34:28.000Z</time>
      </trkpt>
      <trkpt lat="47.24129" lon="-1.54804">
        <ele>15.199999809265</ele>
        <time>2019-04-02T07:34:29.000Z</time>
      </trkpt>
      <trkpt lat="47.24129" lon="-1.54804">
        <ele>15.199999809265</ele>
        <time>2019-04-02T07:34:30.000Z</time>
      </trkpt>
      <trkpt lat="47.24127" lon="-1.54804">
        <ele>15.199999809265</ele>
        <time>2019-04-02T07:34:31.000Z</time>
      </trkpt>
      <trkpt lat="47.24126" lon="-1.54804">
        <ele>15.199999809265</ele>
        <time>2019-04-02T07:34:32.000Z</time>
      </trkpt>
      <trkpt lat="47.24124" lon="-1.54805">
        <ele>15</ele>
        <time>2019-04-02T07:34:33.000Z</time>
      </trkpt>
      <trkpt lat="47.24123" lon="-1.54805">
        <ele>15</ele>
        <time>2019-04-02T07:34:34.000Z</time>
      </trkpt>
      <trkpt lat="47.24122" lon="-1.54805">
        <ele>15</ele>
        <time>2019-04-02T07:34:35.000Z</time>
      </trkpt>
      <trkpt lat="47.24119" lon="-1.54804">
        <ele>14.800000190735</ele>
        <time>2019-04-02T07:34:36.000Z</time>
      </trkpt>
      <trkpt lat="47.24118" lon="-1.54804">
        <ele>14.800000190735</ele>
        <time>2019-04-02T07:34:37.000Z</time>
      </trkpt>
      <trkpt lat="47.24118" lon="-1.54804">
        <ele>14.800000190735</ele>
        <time>2019-04-02T07:34:38.000Z</time>
      </trkpt>
      <trkpt lat="47.24116" lon="-1.54805">
        <ele>14.800000190735</ele>
        <time>2019-04-02T07:34:39.000Z</time>
      </trkpt>
      <trkpt lat="47.24115" lon="-1.54805">
        <ele>14.60000038147</ele>
        <time>2019-04-02T07:34:40.000Z</time>
      </trkpt>
      <trkpt lat="47.24113" lon="-1.54805">
        <ele>14.60000038147</ele>
        <time>2019-04-02T07:34:41.000Z</time>
      </trkpt>
      <trkpt lat="47.24112" lon="-1.54806">
        <ele>14.60000038147</ele>
        <time>2019-04-02T07:34:42.000Z</time>
      </trkpt>
      <trkpt lat="47.24111" lon="-1.54807">
        <ele>14.800000190735</ele>
        <time>2019-04-02T07:34:43.000Z</time>
      </trkpt>
      <trkpt lat="47.2411" lon="-1.54808">
        <ele>14.800000190735</ele>
        <time>2019-04-02T07:34:44.000Z</time>
      </trkpt>
      <trkpt lat="47.24109" lon="-1.5481">
        <ele>14.800000190735</ele>
        <time>2019-04-02T07:34:45.000Z</time>
      </trkpt>
      <trkpt lat="47.24108" lon="-1.54811">
        <ele>14.800000190735</ele>
        <time>2019-04-02T07:34:46.000Z</time>
      </trkpt>
      <trkpt lat="47.24107" lon="-1.54813">
        <ele>15</ele>
        <time>2019-04-02T07:34:47.000Z</time>
      </trkpt>
      <trkpt lat="47.24105" lon="-1.54814">
        <ele>15</ele>
        <time>2019-04-02T07:34:48.000Z</time>
      </trkpt>
      <trkpt lat="47.24104" lon="-1.54815">
        <ele>15</ele>
        <time>2019-04-02T07:34:49.000Z</time>
      </trkpt>
      <trkpt lat="47.24103" lon="-1.54816">
        <ele>15</ele>
        <time>2019-04-02T07:34:50.000Z</time>
      </trkpt>
      <trkpt lat="47.24102" lon="-1.54817">
        <ele>15</ele>
        <time>2019-04-02T07:34:51.000Z</time>
      </trkpt>
      <trkpt lat="47.24101" lon="-1.54819">
        <ele>15.199999809265</ele>
        <time>2019-04-02T07:34:52.000Z</time>
      </trkpt>
      <trkpt lat="47.24099" lon="-1.5482">
        <ele>15.199999809265</ele>
        <time>2019-04-02T07:34:53.000Z</time>
      </trkpt>
      <trkpt lat="47.24098" lon="-1.54821">
        <ele>15.199999809265</ele>
        <time>2019-04-02T07:34:54.000Z</time>
      </trkpt>
      <trkpt lat="47.24095" lon="-1.54823">
        <ele>15.39999961853</ele>
        <time>2019-04-02T07:34:55.000Z</time>
      </trkpt>
      <trkpt lat="47.24095" lon="-1.54823">
        <ele>15.39999961853</ele>
        <time>2019-04-02T07:34:56.000Z</time>
      </trkpt>
      <trkpt lat="47.24094" lon="-1.54825">
        <ele>15.39999961853</ele>
        <time>2019-04-02T07:34:57.000Z</time>
      </trkpt>
      <trkpt lat="47.24092" lon="-1.54826">
        <ele>15.60000038147</ele>
        <time>2019-04-02T07:34:58.000Z</time>
      </trkpt>
      <trkpt lat="47.24091" lon="-1.54827">
        <ele>15.60000038147</ele>
        <time>2019-04-02T07:34:59.000Z</time>
      </trkpt>
      <trkpt lat="47.2409" lon="-1.54828">
        <ele>15.60000038147</ele>
        <time>2019-04-02T07:35:00.000Z</time>
      </trkpt>
      <trkpt lat="47.24088" lon="-1.5483">
        <ele>15.800000190735</ele>
        <time>2019-04-02T07:35:01.000Z</time>
      </trkpt>
      <trkpt lat="47.24088" lon="-1.5483">
        <ele>15.800000190735</ele>
        <time>2019-04-02T07:35:02.000Z</time>
      </trkpt>
      <trkpt lat="47.24087" lon="-1.54831">
        <ele>15.800000190735</ele>
        <time>2019-04-02T07:35:03.000Z</time>
      </trkpt>
      <trkpt lat="47.24086" lon="-1.54831">
        <ele>15.800000190735</ele>
        <time>2019-04-02T07:35:04.000Z</time>
      </trkpt>
      <trkpt lat="47.24084" lon="-1.54832">
        <ele>15.800000190735</ele>
        <time>2019-04-02T07:35:05.000Z</time>
      </trkpt>
      <trkpt lat="47.24083" lon="-1.54834">
        <ele>16</ele>
        <time>2019-04-02T07:35:06.000Z</time>
      </trkpt>
      <trkpt lat="47.24082" lon="-1.54834">
        <ele>16</ele>
        <time>2019-04-02T07:35:07.000Z</time>
      </trkpt>
      <trkpt lat="47.24081" lon="-1.54835">
        <ele>16</ele>
        <time>2019-04-02T07:35:08.000Z</time>
      </trkpt>
      <trkpt lat="47.2408" lon="-1.54837">
        <ele>16.200000762939</ele>
        <time>2019-04-02T07:35:09.000Z</time>
      </trkpt>
      <trkpt lat="47.24079" lon="-1.54838">
        <ele>16.200000762939</ele>
        <time>2019-04-02T07:35:10.000Z</time>
      </trkpt>
      <trkpt lat="47.24078" lon="-1.5484">
        <ele>16.200000762939</ele>
        <time>2019-04-02T07:35:11.000Z</time>
      </trkpt>
      <trkpt lat="47.24076" lon="-1.54841">
        <ele>16.200000762939</ele>
        <time>2019-04-02T07:35:12.000Z</time>
      </trkpt>
      <trkpt lat="47.24076" lon="-1.54843">
        <ele>16.39999961853</ele>
        <time>2019-04-02T07:35:13.000Z</time>
      </trkpt>
      <trkpt lat="47.24074" lon="-1.54844">
        <ele>16.39999961853</ele>
        <time>2019-04-02T07:35:14.000Z</time>
      </trkpt>
      <trkpt lat="47.24072" lon="-1.54847">
        <ele>16.39999961853</ele>
        <time>2019-04-02T07:35:15.000Z</time>
      </trkpt>
      <trkpt lat="47.24072" lon="-1.54847">
        <ele>16.39999961853</ele>
        <time>2019-04-02T07:35:16.000Z</time>
      </trkpt>
      <trkpt lat="47.2407" lon="-1.54849">
        <ele>16.200000762939</ele>
        <time>2019-04-02T07:35:17.000Z</time>
      </trkpt>
      <trkpt lat="47.24069" lon="-1.5485">
        <ele>16.200000762939</ele>
        <time>2019-04-02T07:35:18.000Z</time>
      </trkpt>
      <trkpt lat="47.24067" lon="-1.54851">
        <ele>16.200000762939</ele>
        <time>2019-04-02T07:35:19.000Z</time>
      </trkpt>
      <trkpt lat="47.24066" lon="-1.54852">
        <ele>16.200000762939</ele>
        <time>2019-04-02T07:35:20.000Z</time>
      </trkpt>
      <trkpt lat="47.24065" lon="-1.54854">
        <ele>16.200000762939</ele>
        <time>2019-04-02T07:35:21.000Z</time>
      </trkpt>
      <trkpt lat="47.24064" lon="-1.54855">
        <ele>16.200000762939</ele>
        <time>2019-04-02T07:35:22.000Z</time>
      </trkpt>
      <trkpt lat="47.24063" lon="-1.54856">
        <ele>16.200000762939</ele>
        <time>2019-04-02T07:35:23.000Z</time>
      </trkpt>
      <trkpt lat="47.24061" lon="-1.54858">
        <ele>16.200000762939</ele>
        <time>2019-04-02T07:35:24.000Z</time>
      </trkpt>
      <trkpt lat="47.2406" lon="-1.54859">
        <ele>16.200000762939</ele>
        <time>2019-04-02T07:35:25.000Z</time>
      </trkpt>
      <trkpt lat="47.24059" lon="-1.5486">
        <ele>16.200000762939</ele>
        <time>2019-04-02T07:35:26.000Z</time>
      </trkpt>
      <trkpt lat="47.24057" lon="-1.54861">
        <ele>16.200000762939</ele>
        <time>2019-04-02T07:35:27.000Z</time>
      </trkpt>
      <trkpt lat="47.24056" lon="-1.54862">
        <ele>16</ele>
        <time>2019-04-02T07:35:28.000Z</time>
      </trkpt>
      <trkpt lat="47.24055" lon="-1.54864">
        <ele>16.200000762939</ele>
        <time>2019-04-02T07:35:29.000Z</time>
      </trkpt>
      <trkpt lat="47.24054" lon="-1.54866">
        <ele>16.200000762939</ele>
        <time>2019-04-02T07:35:30.000Z</time>
      </trkpt>
      <trkpt lat="47.24053" lon="-1.54868">
        <ele>16.200000762939</ele>
        <time>2019-04-02T07:35:31.000Z</time>
      </trkpt>
      <trkpt lat="47.24052" lon="-1.54869">
        <ele>16.39999961853</ele>
        <time>2019-04-02T07:35:32.000Z</time>
      </trkpt>
      <trkpt lat="47.24051" lon="-1.54871">
        <ele>16.39999961853</ele>
        <time>2019-04-02T07:35:33.000Z</time>
      </trkpt>
      <trkpt lat="47.2405" lon="-1.54872">
        <ele>16.39999961853</ele>
        <time>2019-04-02T07:35:34.000Z</time>
      </trkpt>
      <trkpt lat="47.24049" lon="-1.54874">
        <ele>16.60000038147</ele>
        <time>2019-04-02T07:35:35.000Z</time>
      </trkpt>
      <trkpt lat="47.24048" lon="-1.54877">
        <ele>16.799999237061</ele>
        <time>2019-04-02T07:35:36.000Z</time>
      </trkpt>
      <trkpt lat="47.24046" lon="-1.54881">
        <ele>17</ele>
        <time>2019-04-02T07:35:37.000Z</time>
      </trkpt>
      <trkpt lat="47.24046" lon="-1.54881">
        <ele>17</ele>
        <time>2019-04-02T07:35:38.000Z</time>
      </trkpt>
      <trkpt lat="47.24045" lon="-1.54882">
        <ele>17</ele>
        <time>2019-04-02T07:35:39.000Z</time>
      </trkpt>
      <trkpt lat="47.24044" lon="-1.54883">
        <ele>17</ele>
        <time>2019-04-02T07:35:40.000Z</time>
      </trkpt>
      <trkpt lat="47.24043" lon="-1.54885">
        <ele>17</ele>
        <time>2019-04-02T07:35:41.000Z</time>
      </trkpt>
      <trkpt lat="47.24043" lon="-1.54886">
        <ele>17</ele>
        <time>2019-04-02T07:35:42.000Z</time>
      </trkpt>
      <trkpt lat="47.24042" lon="-1.54888">
        <ele>17.200000762939</ele>
        <time>2019-04-02T07:35:43.000Z</time>
      </trkpt>
      <trkpt lat="47.24041" lon="-1.5489">
        <ele>17.200000762939</ele>
        <time>2019-04-02T07:35:44.000Z</time>
      </trkpt>
      <trkpt lat="47.2404" lon="-1.54891">
        <ele>17.200000762939</ele>
        <time>2019-04-02T07:35:45.000Z</time>
      </trkpt>
      <trkpt lat="47.24038" lon="-1.54893">
        <ele>17.200000762939</ele>
        <time>2019-04-02T07:35:46.000Z</time>
      </trkpt>
      <trkpt lat="47.24037" lon="-1.54894">
        <ele>17.200000762939</ele>
        <time>2019-04-02T07:35:47.000Z</time>
      </trkpt>
      <trkpt lat="47.24035" lon="-1.54896">
        <ele>17.200000762939</ele>
        <time>2019-04-02T07:35:48.000Z</time>
      </trkpt>
      <trkpt lat="47.24034" lon="-1.54897">
        <ele>17.200000762939</ele>
        <time>2019-04-02T07:35:49.000Z</time>
      </trkpt>
      <trkpt lat="47.24033" lon="-1.54898">
        <ele>17.200000762939</ele>
        <time>2019-04-02T07:35:50.000Z</time>
      </trkpt>
      <trkpt lat="47.24032" lon="-1.54899">
        <ele>17.200000762939</ele>
        <time>2019-04-02T07:35:51.000Z</time>
      </trkpt>
      <trkpt lat="47.24031" lon="-1.549">
        <ele>17</ele>
        <time>2019-04-02T07:35:52.000Z</time>
      </trkpt>
      <trkpt lat="47.24028" lon="-1.54903">
        <ele>17.200000762939</ele>
        <time>2019-04-02T07:35:53.000Z</time>
      </trkpt>
      <trkpt lat="47.24028" lon="-1.54903">
        <ele>17.200000762939</ele>
        <time>2019-04-02T07:35:54.000Z</time>
      </trkpt>
      <trkpt lat="47.24027" lon="-1.54905">
        <ele>17.39999961853</ele>
        <time>2019-04-02T07:35:55.000Z</time>
      </trkpt>
      <trkpt lat="47.24026" lon="-1.54906">
        <ele>17.39999961853</ele>
        <time>2019-04-02T07:35:56.000Z</time>
      </trkpt>
      <trkpt lat="47.24025" lon="-1.54907">
        <ele>17.39999961853</ele>
        <time>2019-04-02T07:35:57.000Z</time>
      </trkpt>
      <trkpt lat="47.24024" lon="-1.54908">
        <ele>17.39999961853</ele>
        <time>2019-04-02T07:35:58.000Z</time>
      </trkpt>
      <trkpt lat="47.24022" lon="-1.5491">
        <ele>17.60000038147</ele>
        <time>2019-04-02T07:35:59.000Z</time>
      </trkpt>
      <trkpt lat="47.24021" lon="-1.54912">
        <ele>17.60000038147</ele>
        <time>2019-04-02T07:36:00.000Z</time>
      </trkpt>
      <trkpt lat="47.2402" lon="-1.54913">
        <ele>17.60000038147</ele>
        <time>2019-04-02T07:36:01.000Z</time>
      </trkpt>
      <trkpt lat="47.24019" lon="-1.54915">
        <ele>17.799999237061</ele>
        <time>2019-04-02T07:36:02.000Z</time>
      </trkpt>
      <trkpt lat="47.24018" lon="-1.54915">
        <ele>17.799999237061</ele>
        <time>2019-04-02T07:36:03.000Z</time>
      </trkpt>
      <trkpt lat="47.24017" lon="-1.54916">
        <ele>17.60000038147</ele>
        <time>2019-04-02T07:36:04.000Z</time>
      </trkpt>
      <trkpt lat="47.24015" lon="-1.54917">
        <ele>17.60000038147</ele>
        <time>2019-04-02T07:36:05.000Z</time>
      </trkpt>
      <trkpt lat="47.24014" lon="-1.54918">
        <ele>17.799999237061</ele>
        <time>2019-04-02T07:36:06.000Z</time>
      </trkpt>
      <trkpt lat="47.24013" lon="-1.54919">
        <ele>17.799999237061</ele>
        <time>2019-04-02T07:36:07.000Z</time>
      </trkpt>
      <trkpt lat="47.24012" lon="-1.54921">
        <ele>17.799999237061</ele>
        <time>2019-04-02T07:36:08.000Z</time>
      </trkpt>
      <trkpt lat="47.24011" lon="-1.54922">
        <ele>17.799999237061</ele>
        <time>2019-04-02T07:36:09.000Z</time>
      </trkpt>
      <trkpt lat="47.2401" lon="-1.54924">
        <ele>18</ele>
        <time>2019-04-02T07:36:10.000Z</time>
      </trkpt>
      <trkpt lat="47.24009" lon="-1.54925">
        <ele>18</ele>
        <time>2019-04-02T07:36:11.000Z</time>
      </trkpt>
      <trkpt lat="47.24007" lon="-1.54927">
        <ele>18.200000762939</ele>
        <time>2019-04-02T07:36:12.000Z</time>
      </trkpt>
      <trkpt lat="47.24006" lon="-1.54928">
        <ele>18.200000762939</ele>
        <time>2019-04-02T07:36:13.000Z</time>
      </trkpt>
      <trkpt lat="47.24005" lon="-1.54929">
        <ele>18.200000762939</ele>
        <time>2019-04-02T07:36:14.000Z</time>
      </trkpt>
      <trkpt lat="47.24004" lon="-1.54931">
        <ele>18.200000762939</ele>
        <time>2019-04-02T07:36:15.000Z</time>
      </trkpt>
      <trkpt lat="47.24003" lon="-1.54932">
        <ele>18.200000762939</ele>
        <time>2019-04-02T07:36:16.000Z</time>
      </trkpt>
      <trkpt lat="47.24002" lon="-1.54933">
        <ele>18.39999961853</ele>
        <time>2019-04-02T07:36:17.000Z</time>
      </trkpt>
      <trkpt lat="47.24" lon="-1.54934">
        <ele>18.39999961853</ele>
        <time>2019-04-02T07:36:18.000Z</time>
      </trkpt>
      <trkpt lat="47.23999" lon="-1.54935">
        <ele>18.39999961853</ele>
        <time>2019-04-02T07:36:19.000Z</time>
      </trkpt>
      <trkpt lat="47.23998" lon="-1.54937">
        <ele>18.39999961853</ele>
        <time>2019-04-02T07:36:20.000Z</time>
      </trkpt>
      <trkpt lat="47.23997" lon="-1.54938">
        <ele>18.39999961853</ele>
        <time>2019-04-02T07:36:21.000Z</time>
      </trkpt>
      <trkpt lat="47.23996" lon="-1.54939">
        <ele>18.60000038147</ele>
        <time>2019-04-02T07:36:22.000Z</time>
      </trkpt>
      <trkpt lat="47.23995" lon="-1.5494">
        <ele>18.60000038147</ele>
        <time>2019-04-02T07:36:23.000Z</time>
      </trkpt>
      <trkpt lat="47.23994" lon="-1.54941">
        <ele>18.60000038147</ele>
        <time>2019-04-02T07:36:24.000Z</time>
      </trkpt>
      <trkpt lat="47.23993" lon="-1.54943">
        <ele>18.39999961853</ele>
        <time>2019-04-02T07:36:25.000Z</time>
      </trkpt>
      <trkpt lat="47.23992" lon="-1.54944">
        <ele>18.39999961853</ele>
        <time>2019-04-02T07:36:26.000Z</time>
      </trkpt>
      <trkpt lat="47.2399" lon="-1.54945">
        <ele>18.39999961853</ele>
        <time>2019-04-02T07:36:27.000Z</time>
      </trkpt>
      <trkpt lat="47.2399" lon="-1.54946">
        <ele>18.39999961853</ele>
        <time>2019-04-02T07:36:28.000Z</time>
      </trkpt>
      <trkpt lat="47.23989" lon="-1.54947">
        <ele>18.39999961853</ele>
        <time>2019-04-02T07:36:29.000Z</time>
      </trkpt>
      <trkpt lat="47.23986" lon="-1.54949">
        <ele>18.200000762939</ele>
        <time>2019-04-02T07:36:30.000Z</time>
      </trkpt>
      <trkpt lat="47.23986" lon="-1.54949">
        <ele>18.200000762939</ele>
        <time>2019-04-02T07:36:31.000Z</time>
      </trkpt>
      <trkpt lat="47.23985" lon="-1.5495">
        <ele>18.200000762939</ele>
        <time>2019-04-02T07:36:32.000Z</time>
      </trkpt>
      <trkpt lat="47.23984" lon="-1.54951">
        <ele>18</ele>
        <time>2019-04-02T07:36:33.000Z</time>
      </trkpt>
      <trkpt lat="47.23983" lon="-1.54952">
        <ele>18</ele>
        <time>2019-04-02T07:36:34.000Z</time>
      </trkpt>
      <trkpt lat="47.23981" lon="-1.54953">
        <ele>18</ele>
        <time>2019-04-02T07:36:35.000Z</time>
      </trkpt>
      <trkpt lat="47.2398" lon="-1.54954">
        <ele>18</ele>
        <time>2019-04-02T07:36:36.000Z</time>
      </trkpt>
      <trkpt lat="47.23979" lon="-1.54955">
        <ele>17.799999237061</ele>
        <time>2019-04-02T07:36:37.000Z</time>
      </trkpt>
      <trkpt lat="47.23978" lon="-1.54957">
        <ele>17.799999237061</ele>
        <time>2019-04-02T07:36:38.000Z</time>
      </trkpt>
      <trkpt lat="47.23977" lon="-1.54958">
        <ele>17.799999237061</ele>
        <time>2019-04-02T07:36:39.000Z</time>
      </trkpt>
      <trkpt lat="47.23976" lon="-1.5496">
        <ele>17.799999237061</ele>
        <time>2019-04-02T07:36:40.000Z</time>
      </trkpt>
      <trkpt lat="47.23975" lon="-1.54961">
        <ele>17.799999237061</ele>
        <time>2019-04-02T07:36:41.000Z</time>
      </trkpt>
      <trkpt lat="47.23974" lon="-1.54963">
        <ele>18</ele>
        <time>2019-04-02T07:36:42.000Z</time>
      </trkpt>
      <trkpt lat="47.23971" lon="-1.54966">
        <ele>18</ele>
        <time>2019-04-02T07:36:43.000Z</time>
      </trkpt>
      <trkpt lat="47.23971" lon="-1.54966">
        <ele>18</ele>
        <time>2019-04-02T07:36:44.000Z</time>
      </trkpt>
      <trkpt lat="47.2397" lon="-1.54967">
        <ele>18</ele>
        <time>2019-04-02T07:36:45.000Z</time>
      </trkpt>
      <trkpt lat="47.23969" lon="-1.54968">
        <ele>18</ele>
        <time>2019-04-02T07:36:46.000Z</time>
      </trkpt>
      <trkpt lat="47.23968" lon="-1.54969">
        <ele>17.799999237061</ele>
        <time>2019-04-02T07:36:47.000Z</time>
      </trkpt>
      <trkpt lat="47.23967" lon="-1.54971">
        <ele>18</ele>
        <time>2019-04-02T07:36:48.000Z</time>
      </trkpt>
      <trkpt lat="47.23966" lon="-1.54973">
        <ele>18</ele>
        <time>2019-04-02T07:36:49.000Z</time>
      </trkpt>
      <trkpt lat="47.23965" lon="-1.54974">
        <ele>18</ele>
        <time>2019-04-02T07:36:50.000Z</time>
      </trkpt>
      <trkpt lat="47.23964" lon="-1.54976">
        <ele>18.200000762939</ele>
        <time>2019-04-02T07:36:51.000Z</time>
      </trkpt>
      <trkpt lat="47.23964" lon="-1.54977">
        <ele>18.200000762939</ele>
        <time>2019-04-02T07:36:52.000Z</time>
      </trkpt>
      <trkpt lat="47.23963" lon="-1.54978">
        <ele>18.200000762939</ele>
        <time>2019-04-02T07:36:53.000Z</time>
      </trkpt>
      <trkpt lat="47.23962" lon="-1.5498">
        <ele>18.39999961853</ele>
        <time>2019-04-02T07:36:54.000Z</time>
      </trkpt>
      <trkpt lat="47.23961" lon="-1.54981">
        <ele>18.39999961853</ele>
        <time>2019-04-02T07:36:55.000Z</time>
      </trkpt>
      <trkpt lat="47.2396" lon="-1.54982">
        <ele>18.39999961853</ele>
        <time>2019-04-02T07:36:56.000Z</time>
      </trkpt>
      <trkpt lat="47.23959" lon="-1.54984">
        <ele>18.39999961853</ele>
        <time>2019-04-02T07:36:57.000Z</time>
      </trkpt>
      <trkpt lat="47.23958" lon="-1.54985">
        <ele>18.200000762939</ele>
        <time>2019-04-02T07:36:58.000Z</time>
      </trkpt>
      <trkpt lat="47.23957" lon="-1.54986">
        <ele>18</ele>
        <time>2019-04-02T07:36:59.000Z</time>
      </trkpt>
      <trkpt lat="47.23956" lon="-1.54988">
        <ele>18</ele>
        <time>2019-04-02T07:37:00.000Z</time>
      </trkpt>
      <trkpt lat="47.23954" lon="-1.5499">
        <ele>17.799999237061</ele>
        <time>2019-04-02T07:37:01.000Z</time>
      </trkpt>
      <trkpt lat="47.23954" lon="-1.5499">
        <ele>17.799999237061</ele>
        <time>2019-04-02T07:37:02.000Z</time>
      </trkpt>
      <trkpt lat="47.23953" lon="-1.54991">
        <ele>17.60000038147</ele>
        <time>2019-04-02T07:37:03.000Z</time>
      </trkpt>
      <trkpt lat="47.23951" lon="-1.54993">
        <ele>17.39999961853</ele>
        <time>2019-04-02T07:37:04.000Z</time>
      </trkpt>
      <trkpt lat="47.2395" lon="-1.54994">
        <ele>17.200000762939</ele>
        <time>2019-04-02T07:37:05.000Z</time>
      </trkpt>
      <trkpt lat="47.23949" lon="-1.54995">
        <ele>17</ele>
        <time>2019-04-02T07:37:06.000Z</time>
      </trkpt>
      <trkpt lat="47.23947" lon="-1.54996">
        <ele>16.799999237061</ele>
        <time>2019-04-02T07:37:07.000Z</time>
      </trkpt>
      <trkpt lat="47.23946" lon="-1.54998">
        <ele>16.60000038147</ele>
        <time>2019-04-02T07:37:08.000Z</time>
      </trkpt>
      <trkpt lat="47.23945" lon="-1.54998">
        <ele>16.39999961853</ele>
        <time>2019-04-02T07:37:09.000Z</time>
      </trkpt>
      <trkpt lat="47.23943" lon="-1.54999">
        <ele>16.200000762939</ele>
        <time>2019-04-02T07:37:10.000Z</time>
      </trkpt>
      <trkpt lat="47.23942" lon="-1.55001">
        <ele>16</ele>
        <time>2019-04-02T07:37:11.000Z</time>
      </trkpt>
      <trkpt lat="47.2394" lon="-1.55002">
        <ele>15.800000190735</ele>
        <time>2019-04-02T07:37:12.000Z</time>
      </trkpt>
      <trkpt lat="47.23938" lon="-1.55004">
        <ele>15.60000038147</ele>
        <time>2019-04-02T07:37:13.000Z</time>
      </trkpt>
      <trkpt lat="47.23938" lon="-1.55004">
        <ele>15.60000038147</ele>
        <time>2019-04-02T07:37:14.000Z</time>
      </trkpt>
      <trkpt lat="47.23937" lon="-1.55005">
        <ele>15.39999961853</ele>
        <time>2019-04-02T07:37:15.000Z</time>
      </trkpt>
      <trkpt lat="47.23936" lon="-1.55005">
        <ele>15.199999809265</ele>
        <time>2019-04-02T07:37:16.000Z</time>
      </trkpt>
      <trkpt lat="47.23934" lon="-1.55006">
        <ele>15</ele>
        <time>2019-04-02T07:37:17.000Z</time>
      </trkpt>
      <trkpt lat="47.23933" lon="-1.55007">
        <ele>14.800000190735</ele>
        <time>2019-04-02T07:37:18.000Z</time>
      </trkpt>
      <trkpt lat="47.23932" lon="-1.55007">
        <ele>14.60000038147</ele>
        <time>2019-04-02T07:37:19.000Z</time>
      </trkpt>
      <trkpt lat="47.2393" lon="-1.55007">
        <ele>14.39999961853</ele>
        <time>2019-04-02T07:37:20.000Z</time>
      </trkpt>
      <trkpt lat="47.23929" lon="-1.55006">
        <ele>14</ele>
        <time>2019-04-02T07:37:21.000Z</time>
      </trkpt>
      <trkpt lat="47.23927" lon="-1.55006">
        <ele>13.60000038147</ele>
        <time>2019-04-02T07:37:22.000Z</time>
      </trkpt>
      <trkpt lat="47.23925" lon="-1.55006">
        <ele>13.39999961853</ele>
        <time>2019-04-02T07:37:23.000Z</time>
      </trkpt>
      <trkpt lat="47.23923" lon="-1.55006">
        <ele>13</ele>
        <time>2019-04-02T07:37:24.000Z</time>
      </trkpt>
      <trkpt lat="47.23922" lon="-1.55007">
        <ele>12.800000190735</ele>
        <time>2019-04-02T07:37:25.000Z</time>
      </trkpt>
      <trkpt lat="47.23921" lon="-1.55007">
        <ele>12.60000038147</ele>
        <time>2019-04-02T07:37:26.000Z</time>
      </trkpt>
      <trkpt lat="47.23919" lon="-1.55008">
        <ele>12.39999961853</ele>
        <time>2019-04-02T07:37:27.000Z</time>
      </trkpt>
      <trkpt lat="47.23918" lon="-1.55008">
        <ele>12</ele>
        <time>2019-04-02T07:37:28.000Z</time>
      </trkpt>
      <trkpt lat="47.23916" lon="-1.55008">
        <ele>11.800000190735</ele>
        <time>2019-04-02T07:37:29.000Z</time>
      </trkpt>
      <trkpt lat="47.23914" lon="-1.55009">
        <ele>11.60000038147</ele>
        <time>2019-04-02T07:37:30.000Z</time>
      </trkpt>
      <trkpt lat="47.23911" lon="-1.5501">
        <ele>11.199999809265</ele>
        <time>2019-04-02T07:37:31.000Z</time>
      </trkpt>
      <trkpt lat="47.23911" lon="-1.5501">
        <ele>11.199999809265</ele>
        <time>2019-04-02T07:37:32.000Z</time>
      </trkpt>
      <trkpt lat="47.2391" lon="-1.55011">
        <ele>11.199999809265</ele>
        <time>2019-04-02T07:37:33.000Z</time>
      </trkpt>
      <trkpt lat="47.23908" lon="-1.55011">
        <ele>11.199999809265</ele>
        <time>2019-04-02T07:37:34.000Z</time>
      </trkpt>
      <trkpt lat="47.23907" lon="-1.55011">
        <ele>11.199999809265</ele>
        <time>2019-04-02T07:37:35.000Z</time>
      </trkpt>
      <trkpt lat="47.23906" lon="-1.55012">
        <ele>11</ele>
        <time>2019-04-02T07:37:36.000Z</time>
      </trkpt>
      <trkpt lat="47.23903" lon="-1.55012">
        <ele>11</ele>
        <time>2019-04-02T07:37:37.000Z</time>
      </trkpt>
      <trkpt lat="47.23903" lon="-1.55012">
        <ele>11</ele>
        <time>2019-04-02T07:37:38.000Z</time>
      </trkpt>
      <trkpt lat="47.23902" lon="-1.55012">
        <ele>11</ele>
        <time>2019-04-02T07:37:39.000Z</time>
      </trkpt>
      <trkpt lat="47.23901" lon="-1.55012">
        <ele>11</ele>
        <time>2019-04-02T07:37:40.000Z</time>
      </trkpt>
      <trkpt lat="47.23899" lon="-1.55011">
        <ele>10.800000190735</ele>
        <time>2019-04-02T07:37:41.000Z</time>
      </trkpt>
      <trkpt lat="47.23898" lon="-1.55011">
        <ele>10.800000190735</ele>
        <time>2019-04-02T07:37:42.000Z</time>
      </trkpt>
      <trkpt lat="47.23896" lon="-1.5501">
        <ele>10.60000038147</ele>
        <time>2019-04-02T07:37:43.000Z</time>
      </trkpt>
      <trkpt lat="47.23893" lon="-1.5501">
        <ele>10.60000038147</ele>
        <time>2019-04-02T07:37:44.000Z</time>
      </trkpt>
      <trkpt lat="47.23893" lon="-1.5501">
        <ele>10.60000038147</ele>
        <time>2019-04-02T07:37:45.000Z</time>
      </trkpt>
      <trkpt lat="47.23891" lon="-1.5501">
        <ele>10.39999961853</ele>
        <time>2019-04-02T07:37:46.000Z</time>
      </trkpt>
      <trkpt lat="47.2389" lon="-1.55011">
        <ele>10.39999961853</ele>
        <time>2019-04-02T07:37:47.000Z</time>
      </trkpt>
      <trkpt lat="47.23888" lon="-1.55011">
        <ele>10.39999961853</ele>
        <time>2019-04-02T07:37:48.000Z</time>
      </trkpt>
      <trkpt lat="47.23887" lon="-1.55012">
        <ele>10.39999961853</ele>
        <time>2019-04-02T07:37:49.000Z</time>
      </trkpt>
      <trkpt lat="47.23886" lon="-1.55012">
        <ele>10.39999961853</ele>
        <time>2019-04-02T07:37:50.000Z</time>
      </trkpt>
      <trkpt lat="47.23884" lon="-1.55013">
        <ele>10.39999961853</ele>
        <time>2019-04-02T07:37:51.000Z</time>
      </trkpt>
      <trkpt lat="47.23883" lon="-1.55014">
        <ele>10.39999961853</ele>
        <time>2019-04-02T07:37:52.000Z</time>
      </trkpt>
      <trkpt lat="47.23881" lon="-1.55015">
        <ele>10.39999961853</ele>
        <time>2019-04-02T07:37:53.000Z</time>
      </trkpt>
      <trkpt lat="47.2388" lon="-1.55016">
        <ele>10.39999961853</ele>
        <time>2019-04-02T07:37:54.000Z</time>
      </trkpt>
      <trkpt lat="47.23879" lon="-1.55017">
        <ele>10.39999961853</ele>
        <time>2019-04-02T07:37:55.000Z</time>
      </trkpt>
      <trkpt lat="47.23878" lon="-1.55019">
        <ele>10.39999961853</ele>
        <time>2019-04-02T07:37:56.000Z</time>
      </trkpt>
      <trkpt lat="47.23876" lon="-1.5502">
        <ele>10.39999961853</ele>
        <time>2019-04-02T07:37:57.000Z</time>
      </trkpt>
      <trkpt lat="47.23875" lon="-1.55021">
        <ele>10.39999961853</ele>
        <time>2019-04-02T07:37:58.000Z</time>
      </trkpt>
      <trkpt lat="47.23874" lon="-1.55022">
        <ele>10.39999961853</ele>
        <time>2019-04-02T07:37:59.000Z</time>
      </trkpt>
      <trkpt lat="47.23872" lon="-1.55023">
        <ele>10.39999961853</ele>
        <time>2019-04-02T07:38:00.000Z</time>
      </trkpt>
      <trkpt lat="47.23871" lon="-1.55025">
        <ele>10.39999961853</ele>
        <time>2019-04-02T07:38:01.000Z</time>
      </trkpt>
      <trkpt lat="47.2387" lon="-1.55026">
        <ele>10.39999961853</ele>
        <time>2019-04-02T07:38:02.000Z</time>
      </trkpt>
      <trkpt lat="47.23868" lon="-1.55027">
        <ele>10.39999961853</ele>
        <time>2019-04-02T07:38:03.000Z</time>
      </trkpt>
      <trkpt lat="47.23867" lon="-1.55029">
        <ele>10.60000038147</ele>
        <time>2019-04-02T07:38:04.000Z</time>
      </trkpt>
      <trkpt lat="47.23866" lon="-1.55031">
        <ele>10.60000038147</ele>
        <time>2019-04-02T07:38:05.000Z</time>
      </trkpt>
      <trkpt lat="47.23863" lon="-1.55033">
        <ele>10.60000038147</ele>
        <time>2019-04-02T07:38:06.000Z</time>
      </trkpt>
      <trkpt lat="47.23863" lon="-1.55033">
        <ele>10.60000038147</ele>
        <time>2019-04-02T07:38:07.000Z</time>
      </trkpt>
      <trkpt lat="47.23862" lon="-1.55034">
        <ele>10.60000038147</ele>
        <time>2019-04-02T07:38:08.000Z</time>
      </trkpt>
      <trkpt lat="47.23859" lon="-1.55036">
        <ele>10.60000038147</ele>
        <time>2019-04-02T07:38:09.000Z</time>
      </trkpt>
      <trkpt lat="47.23859" lon="-1.55036">
        <ele>10.60000038147</ele>
        <time>2019-04-02T07:38:10.000Z</time>
      </trkpt>
      <trkpt lat="47.23857" lon="-1.55037">
        <ele>10.60000038147</ele>
        <time>2019-04-02T07:38:11.000Z</time>
      </trkpt>
      <trkpt lat="47.23856" lon="-1.55038">
        <ele>10.60000038147</ele>
        <time>2019-04-02T07:38:12.000Z</time>
      </trkpt>
      <trkpt lat="47.23855" lon="-1.5504">
        <ele>10.60000038147</ele>
        <time>2019-04-02T07:38:13.000Z</time>
      </trkpt>
      <trkpt lat="47.23854" lon="-1.55042">
        <ele>10.60000038147</ele>
        <time>2019-04-02T07:38:14.000Z</time>
      </trkpt>
      <trkpt lat="47.23853" lon="-1.55044">
        <ele>10.800000190735</ele>
        <time>2019-04-02T07:38:15.000Z</time>
      </trkpt>
      <trkpt lat="47.23851" lon="-1.55045">
        <ele>10.800000190735</ele>
        <time>2019-04-02T07:38:16.000Z</time>
      </trkpt>
      <trkpt lat="47.2385" lon="-1.55046">
        <ele>10.800000190735</ele>
        <time>2019-04-02T07:38:17.000Z</time>
      </trkpt>
      <trkpt lat="47.23848" lon="-1.55047">
        <ele>10.800000190735</ele>
        <time>2019-04-02T07:38:18.000Z</time>
      </trkpt>
      <trkpt lat="47.23847" lon="-1.55048">
        <ele>10.800000190735</ele>
        <time>2019-04-02T07:38:19.000Z</time>
      </trkpt>
      <trkpt lat="47.23845" lon="-1.55049">
        <ele>10.800000190735</ele>
        <time>2019-04-02T07:38:20.000Z</time>
      </trkpt>
      <trkpt lat="47.23844" lon="-1.55051">
        <ele>10.800000190735</ele>
        <time>2019-04-02T07:38:21.000Z</time>
      </trkpt>
      <trkpt lat="47.23842" lon="-1.55052">
        <ele>10.800000190735</ele>
        <time>2019-04-02T07:38:22.000Z</time>
      </trkpt>
      <trkpt lat="47.23841" lon="-1.55053">
        <ele>10.800000190735</ele>
        <time>2019-04-02T07:38:23.000Z</time>
      </trkpt>
      <trkpt lat="47.2384" lon="-1.55054">
        <ele>10.800000190735</ele>
        <time>2019-04-02T07:38:24.000Z</time>
      </trkpt>
      <trkpt lat="47.23839" lon="-1.55055">
        <ele>10.800000190735</ele>
        <time>2019-04-02T07:38:25.000Z</time>
      </trkpt>
      <trkpt lat="47.23836" lon="-1.55058">
        <ele>10.800000190735</ele>
        <time>2019-04-02T07:38:26.000Z</time>
      </trkpt>
      <trkpt lat="47.23836" lon="-1.55058">
        <ele>10.800000190735</ele>
        <time>2019-04-02T07:38:27.000Z</time>
      </trkpt>
      <trkpt lat="47.23836" lon="-1.55059">
        <ele>10.800000190735</ele>
        <time>2019-04-02T07:38:28.000Z</time>
      </trkpt>
      <trkpt lat="47.23835" lon="-1.5506">
        <ele>10.800000190735</ele>
        <time>2019-04-02T07:38:29.000Z</time>
      </trkpt>
      <trkpt lat="47.23834" lon="-1.55061">
        <ele>10.800000190735</ele>
        <time>2019-04-02T07:38:30.000Z</time>
      </trkpt>
      <trkpt lat="47.23833" lon="-1.55061">
        <ele>10.800000190735</ele>
        <time>2019-04-02T07:38:31.000Z</time>
      </trkpt>
      <trkpt lat="47.23832" lon="-1.55061">
        <ele>10.800000190735</ele>
        <time>2019-04-02T07:38:32.000Z</time>
      </trkpt>
      <trkpt lat="47.23831" lon="-1.5506">
        <ele>10.800000190735</ele>
        <time>2019-04-02T07:38:33.000Z</time>
      </trkpt>
      <trkpt lat="47.2383" lon="-1.5506">
        <ele>10.800000190735</ele>
        <time>2019-04-02T07:38:34.000Z</time>
      </trkpt>
      <trkpt lat="47.23829" lon="-1.55061">
        <ele>10.800000190735</ele>
        <time>2019-04-02T07:38:35.000Z</time>
      </trkpt>
      <trkpt lat="47.23828" lon="-1.55062">
        <ele>10.800000190735</ele>
        <time>2019-04-02T07:38:36.000Z</time>
      </trkpt>
      <trkpt lat="47.23827" lon="-1.55062">
        <ele>10.800000190735</ele>
        <time>2019-04-02T07:38:37.000Z</time>
      </trkpt>
      <trkpt lat="47.23826" lon="-1.55063">
        <ele>10.800000190735</ele>
        <time>2019-04-02T07:38:38.000Z</time>
      </trkpt>
      <trkpt lat="47.23825" lon="-1.55064">
        <ele>10.800000190735</ele>
        <time>2019-04-02T07:38:39.000Z</time>
      </trkpt>
      <trkpt lat="47.23824" lon="-1.55065">
        <ele>10.800000190735</ele>
        <time>2019-04-02T07:38:40.000Z</time>
      </trkpt>
      <trkpt lat="47.23823" lon="-1.55066">
        <ele>10.800000190735</ele>
        <time>2019-04-02T07:38:41.000Z</time>
      </trkpt>
      <trkpt lat="47.23822" lon="-1.55067">
        <ele>10.800000190735</ele>
        <time>2019-04-02T07:38:42.000Z</time>
      </trkpt>
      <trkpt lat="47.2382" lon="-1.55068">
        <ele>10.800000190735</ele>
        <time>2019-04-02T07:38:43.000Z</time>
      </trkpt>
      <trkpt lat="47.23818" lon="-1.55068">
        <ele>10.800000190735</ele>
        <time>2019-04-02T07:38:44.000Z</time>
      </trkpt>
      <trkpt lat="47.23815" lon="-1.55069">
        <ele>10.800000190735</ele>
        <time>2019-04-02T07:38:45.000Z</time>
      </trkpt>
      <trkpt lat="47.23815" lon="-1.55069">
        <ele>10.800000190735</ele>
        <time>2019-04-02T07:38:46.000Z</time>
      </trkpt>
      <trkpt lat="47.23814" lon="-1.55069">
        <ele>10.800000190735</ele>
        <time>2019-04-02T07:38:47.000Z</time>
      </trkpt>
      <trkpt lat="47.23813" lon="-1.5507">
        <ele>10.800000190735</ele>
        <time>2019-04-02T07:38:48.000Z</time>
      </trkpt>
      <trkpt lat="47.23812" lon="-1.5507">
        <ele>10.800000190735</ele>
        <time>2019-04-02T07:38:49.000Z</time>
      </trkpt>
      <trkpt lat="47.2381" lon="-1.55069">
        <ele>10.60000038147</ele>
        <time>2019-04-02T07:38:50.000Z</time>
      </trkpt>
      <trkpt lat="47.23809" lon="-1.55069">
        <ele>10.60000038147</ele>
        <time>2019-04-02T07:38:51.000Z</time>
      </trkpt>
      <trkpt lat="47.23808" lon="-1.55069">
        <ele>10.60000038147</ele>
        <time>2019-04-02T07:38:52.000Z</time>
      </trkpt>
      <trkpt lat="47.23807" lon="-1.55069">
        <ele>10.60000038147</ele>
        <time>2019-04-02T07:38:53.000Z</time>
      </trkpt>
      <trkpt lat="47.23806" lon="-1.55069">
        <ele>10.60000038147</ele>
        <time>2019-04-02T07:38:54.000Z</time>
      </trkpt>
      <trkpt lat="47.23805" lon="-1.55069">
        <ele>10.60000038147</ele>
        <time>2019-04-02T07:38:55.000Z</time>
      </trkpt>
      <trkpt lat="47.23803" lon="-1.55069">
        <ele>10.39999961853</ele>
        <time>2019-04-02T07:38:56.000Z</time>
      </trkpt>
      <trkpt lat="47.23802" lon="-1.5507">
        <ele>10.39999961853</ele>
        <time>2019-04-02T07:38:57.000Z</time>
      </trkpt>
      <trkpt lat="47.238" lon="-1.5507">
        <ele>10.39999961853</ele>
        <time>2019-04-02T07:38:58.000Z</time>
      </trkpt>
      <trkpt lat="47.23798" lon="-1.5507">
        <ele>10.39999961853</ele>
        <time>2019-04-02T07:38:59.000Z</time>
      </trkpt>
      <trkpt lat="47.23797" lon="-1.5507">
        <ele>10.39999961853</ele>
        <time>2019-04-02T07:39:00.000Z</time>
      </trkpt>
      <trkpt lat="47.23795" lon="-1.5507">
        <ele>10.39999961853</ele>
        <time>2019-04-02T07:39:01.000Z</time>
      </trkpt>
      <trkpt lat="47.23793" lon="-1.5507">
        <ele>10.199999809265</ele>
        <time>2019-04-02T07:39:02.000Z</time>
      </trkpt>
      <trkpt lat="47.23791" lon="-1.5507">
        <ele>10.199999809265</ele>
        <time>2019-04-02T07:39:03.000Z</time>
      </trkpt>
      <trkpt lat="47.2379" lon="-1.5507">
        <ele>10.199999809265</ele>
        <time>2019-04-02T07:39:04.000Z</time>
      </trkpt>
      <trkpt lat="47.23788" lon="-1.5507">
        <ele>10.199999809265</ele>
        <time>2019-04-02T07:39:05.000Z</time>
      </trkpt>
      <trkpt lat="47.23787" lon="-1.5507">
        <ele>10.199999809265</ele>
        <time>2019-04-02T07:39:06.000Z</time>
      </trkpt>
      <trkpt lat="47.23786" lon="-1.5507">
        <ele>10.199999809265</ele>
        <time>2019-04-02T07:39:07.000Z</time>
      </trkpt>
      <trkpt lat="47.23785" lon="-1.55071">
        <ele>10.199999809265</ele>
        <time>2019-04-02T07:39:08.000Z</time>
      </trkpt>
      <trkpt lat="47.23784" lon="-1.5507">
        <ele>10</ele>
        <time>2019-04-02T07:39:09.000Z</time>
      </trkpt>
      <trkpt lat="47.23783" lon="-1.5507">
        <ele>10</ele>
        <time>2019-04-02T07:39:10.000Z</time>
      </trkpt>
      <trkpt lat="47.23781" lon="-1.5507">
        <ele>10</ele>
        <time>2019-04-02T07:39:11.000Z</time>
      </trkpt>
      <trkpt lat="47.2378" lon="-1.55069">
        <ele>10</ele>
        <time>2019-04-02T07:39:12.000Z</time>
      </trkpt>
      <trkpt lat="47.23778" lon="-1.55069">
        <ele>9.8000001907349</ele>
        <time>2019-04-02T07:39:13.000Z</time>
      </trkpt>
      <trkpt lat="47.23776" lon="-1.55067">
        <ele>9.8000001907349</ele>
        <time>2019-04-02T07:39:14.000Z</time>
      </trkpt>
      <trkpt lat="47.23775" lon="-1.55066">
        <ele>9.6000003814697</ele>
        <time>2019-04-02T07:39:15.000Z</time>
      </trkpt>
      <trkpt lat="47.23773" lon="-1.55066">
        <ele>9.6000003814697</ele>
        <time>2019-04-02T07:39:16.000Z</time>
      </trkpt>
      <trkpt lat="47.23771" lon="-1.55066">
        <ele>9.6000003814697</ele>
        <time>2019-04-02T07:39:17.000Z</time>
      </trkpt>
      <trkpt lat="47.23769" lon="-1.55065">
        <ele>9.3999996185303</ele>
        <time>2019-04-02T07:39:18.000Z</time>
      </trkpt>
      <trkpt lat="47.23768" lon="-1.55064">
        <ele>9.3999996185303</ele>
        <time>2019-04-02T07:39:19.000Z</time>
      </trkpt>
      <trkpt lat="47.23766" lon="-1.55063">
        <ele>9.3999996185303</ele>
        <time>2019-04-02T07:39:20.000Z</time>
      </trkpt>
      <trkpt lat="47.23764" lon="-1.55062">
        <ele>9.1999998092651</ele>
        <time>2019-04-02T07:39:21.000Z</time>
      </trkpt>
      <trkpt lat="47.23762" lon="-1.55061">
        <ele>9.1999998092651</ele>
        <time>2019-04-02T07:39:22.000Z</time>
      </trkpt>
      <trkpt lat="47.2376" lon="-1.55061">
        <ele>9</ele>
        <time>2019-04-02T07:39:23.000Z</time>
      </trkpt>
      <trkpt lat="47.23756" lon="-1.5506">
        <ele>9</ele>
        <time>2019-04-02T07:39:24.000Z</time>
      </trkpt>
      <trkpt lat="47.23756" lon="-1.5506">
        <ele>9</ele>
        <time>2019-04-02T07:39:25.000Z</time>
      </trkpt>
      <trkpt lat="47.23754" lon="-1.55059">
        <ele>9</ele>
        <time>2019-04-02T07:39:26.000Z</time>
      </trkpt>
      <trkpt lat="47.23753" lon="-1.55059">
        <ele>8.8000001907349</ele>
        <time>2019-04-02T07:39:27.000Z</time>
      </trkpt>
      <trkpt lat="47.23751" lon="-1.55058">
        <ele>8.8000001907349</ele>
        <time>2019-04-02T07:39:28.000Z</time>
      </trkpt>
      <trkpt lat="47.2375" lon="-1.55057">
        <ele>8.8000001907349</ele>
        <time>2019-04-02T07:39:29.000Z</time>
      </trkpt>
      <trkpt lat="47.23749" lon="-1.55057">
        <ele>8.8000001907349</ele>
        <time>2019-04-02T07:39:30.000Z</time>
      </trkpt>
      <trkpt lat="47.23747" lon="-1.55057">
        <ele>8.8000001907349</ele>
        <time>2019-04-02T07:39:31.000Z</time>
      </trkpt>
      <trkpt lat="47.23746" lon="-1.55056">
        <ele>8.8000001907349</ele>
        <time>2019-04-02T07:39:32.000Z</time>
      </trkpt>
      <trkpt lat="47.23744" lon="-1.55055">
        <ele>8.6000003814697</ele>
        <time>2019-04-02T07:39:33.000Z</time>
      </trkpt>
      <trkpt lat="47.23743" lon="-1.55055">
        <ele>8.6000003814697</ele>
        <time>2019-04-02T07:39:34.000Z</time>
      </trkpt>
      <trkpt lat="47.23741" lon="-1.55055">
        <ele>8.6000003814697</ele>
        <time>2019-04-02T07:39:35.000Z</time>
      </trkpt>
      <trkpt lat="47.2374" lon="-1.55054">
        <ele>8.6000003814697</ele>
        <time>2019-04-02T07:39:36.000Z</time>
      </trkpt>
      <trkpt lat="47.23736" lon="-1.55053">
        <ele>8.3999996185303</ele>
        <time>2019-04-02T07:39:37.000Z</time>
      </trkpt>
      <trkpt lat="47.23736" lon="-1.55053">
        <ele>8.3999996185303</ele>
        <time>2019-04-02T07:39:38.000Z</time>
      </trkpt>
      <trkpt lat="47.23734" lon="-1.55053">
        <ele>8.3999996185303</ele>
        <time>2019-04-02T07:39:39.000Z</time>
      </trkpt>
      <trkpt lat="47.23732" lon="-1.55053">
        <ele>8.3999996185303</ele>
        <time>2019-04-02T07:39:40.000Z</time>
      </trkpt>
      <trkpt lat="47.2373" lon="-1.55053">
        <ele>8.1999998092651</ele>
        <time>2019-04-02T07:39:41.000Z</time>
      </trkpt>
      <trkpt lat="47.23728" lon="-1.55053">
        <ele>8.1999998092651</ele>
        <time>2019-04-02T07:39:42.000Z</time>
      </trkpt>
      <trkpt lat="47.23726" lon="-1.55053">
        <ele>8.1999998092651</ele>
        <time>2019-04-02T07:39:43.000Z</time>
      </trkpt>
      <trkpt lat="47.23725" lon="-1.55054">
        <ele>8.1999998092651</ele>
        <time>2019-04-02T07:39:44.000Z</time>
      </trkpt>
      <trkpt lat="47.23722" lon="-1.55055">
        <ele>8.1999998092651</ele>
        <time>2019-04-02T07:39:45.000Z</time>
      </trkpt>
      <trkpt lat="47.23722" lon="-1.55055">
        <ele>8.1999998092651</ele>
        <time>2019-04-02T07:39:46.000Z</time>
      </trkpt>
      <trkpt lat="47.2372" lon="-1.55056">
        <ele>8.1999998092651</ele>
        <time>2019-04-02T07:39:47.000Z</time>
      </trkpt>
      <trkpt lat="47.23719" lon="-1.55057">
        <ele>8</ele>
        <time>2019-04-02T07:39:48.000Z</time>
      </trkpt>
      <trkpt lat="47.23717" lon="-1.55057">
        <ele>8</ele>
        <time>2019-04-02T07:39:49.000Z</time>
      </trkpt>
      <trkpt lat="47.23716" lon="-1.55058">
        <ele>8</ele>
        <time>2019-04-02T07:39:50.000Z</time>
      </trkpt>
      <trkpt lat="47.23714" lon="-1.55059">
        <ele>8</ele>
        <time>2019-04-02T07:39:51.000Z</time>
      </trkpt>
      <trkpt lat="47.23713" lon="-1.5506">
        <ele>8</ele>
        <time>2019-04-02T07:39:52.000Z</time>
      </trkpt>
      <trkpt lat="47.23711" lon="-1.5506">
        <ele>8</ele>
        <time>2019-04-02T07:39:53.000Z</time>
      </trkpt>
      <trkpt lat="47.2371" lon="-1.55061">
        <ele>8</ele>
        <time>2019-04-02T07:39:54.000Z</time>
      </trkpt>
      <trkpt lat="47.23709" lon="-1.55061">
        <ele>8</ele>
        <time>2019-04-02T07:39:55.000Z</time>
      </trkpt>
      <trkpt lat="47.23708" lon="-1.55061">
        <ele>8</ele>
        <time>2019-04-02T07:39:56.000Z</time>
      </trkpt>
      <trkpt lat="47.23706" lon="-1.55061">
        <ele>7.8000001907349</ele>
        <time>2019-04-02T07:39:57.000Z</time>
      </trkpt>
      <trkpt lat="47.23706" lon="-1.55061">
        <ele>7.8000001907349</ele>
        <time>2019-04-02T07:39:58.000Z</time>
      </trkpt>
      <trkpt lat="47.23705" lon="-1.5506">
        <ele>7.8000001907349</ele>
        <time>2019-04-02T07:39:59.000Z</time>
      </trkpt>
      <trkpt lat="47.23704" lon="-1.5506">
        <ele>7.8000001907349</ele>
        <time>2019-04-02T07:40:00.000Z</time>
      </trkpt>
      <trkpt lat="47.23703" lon="-1.5506">
        <ele>7.8000001907349</ele>
        <time>2019-04-02T07:40:01.000Z</time>
      </trkpt>
      <trkpt lat="47.23702" lon="-1.5506">
        <ele>7.8000001907349</ele>
        <time>2019-04-02T07:40:02.000Z</time>
      </trkpt>
      <trkpt lat="47.237" lon="-1.5506">
        <ele>7.8000001907349</ele>
        <time>2019-04-02T07:40:03.000Z</time>
      </trkpt>
      <trkpt lat="47.23699" lon="-1.5506">
        <ele>7.8000001907349</ele>
        <time>2019-04-02T07:40:04.000Z</time>
      </trkpt>
      <trkpt lat="47.23696" lon="-1.55059">
        <ele>7.5999999046326</ele>
        <time>2019-04-02T07:40:05.000Z</time>
      </trkpt>
      <trkpt lat="47.23696" lon="-1.55059">
        <ele>7.5999999046326</ele>
        <time>2019-04-02T07:40:06.000Z</time>
      </trkpt>
      <trkpt lat="47.23695" lon="-1.55059">
        <ele>7.5999999046326</ele>
        <time>2019-04-02T07:40:07.000Z</time>
      </trkpt>
      <trkpt lat="47.23694" lon="-1.55058">
        <ele>7.5999999046326</ele>
        <time>2019-04-02T07:40:08.000Z</time>
      </trkpt>
      <trkpt lat="47.23693" lon="-1.55058">
        <ele>7.5999999046326</ele>
        <time>2019-04-02T07:40:09.000Z</time>
      </trkpt>
      <trkpt lat="47.23691" lon="-1.55058">
        <ele>7.4000000953674</ele>
        <time>2019-04-02T07:40:10.000Z</time>
      </trkpt>
      <trkpt lat="47.23689" lon="-1.55058">
        <ele>7.4000000953674</ele>
        <time>2019-04-02T07:40:11.000Z</time>
      </trkpt>
      <trkpt lat="47.23688" lon="-1.55058">
        <ele>7.4000000953674</ele>
        <time>2019-04-02T07:40:12.000Z</time>
      </trkpt>
      <trkpt lat="47.23684" lon="-1.55059">
        <ele>7.4000000953674</ele>
        <time>2019-04-02T07:40:13.000Z</time>
      </trkpt>
      <trkpt lat="47.23684" lon="-1.55059">
        <ele>7.4000000953674</ele>
        <time>2019-04-02T07:40:14.000Z</time>
      </trkpt>
      <trkpt lat="47.23682" lon="-1.55059">
        <ele>7.1999998092651</ele>
        <time>2019-04-02T07:40:15.000Z</time>
      </trkpt>
      <trkpt lat="47.2368" lon="-1.55059">
        <ele>7.1999998092651</ele>
        <time>2019-04-02T07:40:16.000Z</time>
      </trkpt>
      <trkpt lat="47.23679" lon="-1.55059">
        <ele>7.1999998092651</ele>
        <time>2019-04-02T07:40:17.000Z</time>
      </trkpt>
      <trkpt lat="47.23677" lon="-1.55059">
        <ele>7.1999998092651</ele>
        <time>2019-04-02T07:40:18.000Z</time>
      </trkpt>
      <trkpt lat="47.23676" lon="-1.55059">
        <ele>7.1999998092651</ele>
        <time>2019-04-02T07:40:19.000Z</time>
      </trkpt>
      <trkpt lat="47.23675" lon="-1.55059">
        <ele>7.1999998092651</ele>
        <time>2019-04-02T07:40:20.000Z</time>
      </trkpt>
      <trkpt lat="47.23674" lon="-1.5506">
        <ele>7.1999998092651</ele>
        <time>2019-04-02T07:40:21.000Z</time>
      </trkpt>
      <trkpt lat="47.23673" lon="-1.55061">
        <ele>7.1999998092651</ele>
        <time>2019-04-02T07:40:22.000Z</time>
      </trkpt>
      <trkpt lat="47.23671" lon="-1.55062">
        <ele>7</ele>
        <time>2019-04-02T07:40:23.000Z</time>
      </trkpt>
      <trkpt lat="47.23668" lon="-1.55062">
        <ele>7</ele>
        <time>2019-04-02T07:40:24.000Z</time>
      </trkpt>
      <trkpt lat="47.23668" lon="-1.55062">
        <ele>7</ele>
        <time>2019-04-02T07:40:25.000Z</time>
      </trkpt>
      <trkpt lat="47.23667" lon="-1.55062">
        <ele>7</ele>
        <time>2019-04-02T07:40:26.000Z</time>
      </trkpt>
      <trkpt lat="47.23665" lon="-1.55061">
        <ele>7</ele>
        <time>2019-04-02T07:40:27.000Z</time>
      </trkpt>
      <trkpt lat="47.23664" lon="-1.55061">
        <ele>6.8000001907349</ele>
        <time>2019-04-02T07:40:28.000Z</time>
      </trkpt>
      <trkpt lat="47.23663" lon="-1.5506">
        <ele>6.8000001907349</ele>
        <time>2019-04-02T07:40:29.000Z</time>
      </trkpt>
      <trkpt lat="47.23661" lon="-1.5506">
        <ele>6.8000001907349</ele>
        <time>2019-04-02T07:40:30.000Z</time>
      </trkpt>
      <trkpt lat="47.23659" lon="-1.55058">
        <ele>6.8000001907349</ele>
        <time>2019-04-02T07:40:31.000Z</time>
      </trkpt>
      <trkpt lat="47.23659" lon="-1.55058">
        <ele>6.8000001907349</ele>
        <time>2019-04-02T07:40:32.000Z</time>
      </trkpt>
      <trkpt lat="47.23657" lon="-1.55058">
        <ele>7</ele>
        <time>2019-04-02T07:40:33.000Z</time>
      </trkpt>
      <trkpt lat="47.23655" lon="-1.55058">
        <ele>7</ele>
        <time>2019-04-02T07:40:34.000Z</time>
      </trkpt>
      <trkpt lat="47.23653" lon="-1.55057">
        <ele>7</ele>
        <time>2019-04-02T07:40:35.000Z</time>
      </trkpt>
      <trkpt lat="47.23652" lon="-1.55056">
        <ele>7</ele>
        <time>2019-04-02T07:40:36.000Z</time>
      </trkpt>
      <trkpt lat="47.2365" lon="-1.55056">
        <ele>7</ele>
        <time>2019-04-02T07:40:37.000Z</time>
      </trkpt>
      <trkpt lat="47.23648" lon="-1.55056">
        <ele>7</ele>
        <time>2019-04-02T07:40:38.000Z</time>
      </trkpt>
      <trkpt lat="47.23647" lon="-1.55055">
        <ele>7</ele>
        <time>2019-04-02T07:40:39.000Z</time>
      </trkpt>
      <trkpt lat="47.23645" lon="-1.55055">
        <ele>7.1999998092651</ele>
        <time>2019-04-02T07:40:40.000Z</time>
      </trkpt>
      <trkpt lat="47.23644" lon="-1.55054">
        <ele>7.1999998092651</ele>
        <time>2019-04-02T07:40:41.000Z</time>
      </trkpt>
      <trkpt lat="47.23643" lon="-1.55053">
        <ele>7.1999998092651</ele>
        <time>2019-04-02T07:40:42.000Z</time>
      </trkpt>
      <trkpt lat="47.23642" lon="-1.55053">
        <ele>7.1999998092651</ele>
        <time>2019-04-02T07:40:43.000Z</time>
      </trkpt>
      <trkpt lat="47.2364" lon="-1.55053">
        <ele>7.1999998092651</ele>
        <time>2019-04-02T07:40:44.000Z</time>
      </trkpt>
      <trkpt lat="47.23639" lon="-1.55053">
        <ele>7.1999998092651</ele>
        <time>2019-04-02T07:40:45.000Z</time>
      </trkpt>
      <trkpt lat="47.23638" lon="-1.55053">
        <ele>7.1999998092651</ele>
        <time>2019-04-02T07:40:46.000Z</time>
      </trkpt>
      <trkpt lat="47.23637" lon="-1.55053">
        <ele>7.1999998092651</ele>
        <time>2019-04-02T07:40:47.000Z</time>
      </trkpt>
      <trkpt lat="47.23636" lon="-1.55053">
        <ele>7.1999998092651</ele>
        <time>2019-04-02T07:40:48.000Z</time>
      </trkpt>
      <trkpt lat="47.23635" lon="-1.55052">
        <ele>7.1999998092651</ele>
        <time>2019-04-02T07:40:49.000Z</time>
      </trkpt>
      <trkpt lat="47.23634" lon="-1.55052">
        <ele>7.4000000953674</ele>
        <time>2019-04-02T07:40:50.000Z</time>
      </trkpt>
      <trkpt lat="47.23633" lon="-1.55052">
        <ele>7.4000000953674</ele>
        <time>2019-04-02T07:40:51.000Z</time>
      </trkpt>
      <trkpt lat="47.23632" lon="-1.55052">
        <ele>7.4000000953674</ele>
        <time>2019-04-02T07:40:52.000Z</time>
      </trkpt>
      <trkpt lat="47.23631" lon="-1.55052">
        <ele>7.4000000953674</ele>
        <time>2019-04-02T07:40:53.000Z</time>
      </trkpt>
      <trkpt lat="47.2363" lon="-1.55052">
        <ele>7.4000000953674</ele>
        <time>2019-04-02T07:40:54.000Z</time>
      </trkpt>
      <trkpt lat="47.23629" lon="-1.55051">
        <ele>7.4000000953674</ele>
        <time>2019-04-02T07:40:55.000Z</time>
      </trkpt>
      <trkpt lat="47.23627" lon="-1.5505">
        <ele>7.4000000953674</ele>
        <time>2019-04-02T07:40:56.000Z</time>
      </trkpt>
      <trkpt lat="47.23625" lon="-1.5505">
        <ele>7.4000000953674</ele>
        <time>2019-04-02T07:40:57.000Z</time>
      </trkpt>
      <trkpt lat="47.23623" lon="-1.55049">
        <ele>7.4000000953674</ele>
        <time>2019-04-02T07:40:58.000Z</time>
      </trkpt>
      <trkpt lat="47.23621" lon="-1.55048">
        <ele>7.5999999046326</ele>
        <time>2019-04-02T07:40:59.000Z</time>
      </trkpt>
      <trkpt lat="47.2362" lon="-1.55048">
        <ele>7.5999999046326</ele>
        <time>2019-04-02T07:41:00.000Z</time>
      </trkpt>
      <trkpt lat="47.23616" lon="-1.55045">
        <ele>7.5999999046326</ele>
        <time>2019-04-02T07:41:01.000Z</time>
      </trkpt>
      <trkpt lat="47.23616" lon="-1.55045">
        <ele>7.5999999046326</ele>
        <time>2019-04-02T07:41:02.000Z</time>
      </trkpt>
      <trkpt lat="47.23615" lon="-1.55044">
        <ele>7.5999999046326</ele>
        <time>2019-04-02T07:41:03.000Z</time>
      </trkpt>
      <trkpt lat="47.23613" lon="-1.55042">
        <ele>7.5999999046326</ele>
        <time>2019-04-02T07:41:04.000Z</time>
      </trkpt>
      <trkpt lat="47.23612" lon="-1.55041">
        <ele>7.5999999046326</ele>
        <time>2019-04-02T07:41:05.000Z</time>
      </trkpt>
      <trkpt lat="47.23611" lon="-1.5504">
        <ele>7.5999999046326</ele>
        <time>2019-04-02T07:41:06.000Z</time>
      </trkpt>
      <trkpt lat="47.2361" lon="-1.55038">
        <ele>7.5999999046326</ele>
        <time>2019-04-02T07:41:07.000Z</time>
      </trkpt>
      <trkpt lat="47.23609" lon="-1.55037">
        <ele>7.5999999046326</ele>
        <time>2019-04-02T07:41:08.000Z</time>
      </trkpt>
      <trkpt lat="47.23607" lon="-1.55035">
        <ele>7.5999999046326</ele>
        <time>2019-04-02T07:41:09.000Z</time>
      </trkpt>
      <trkpt lat="47.23606" lon="-1.55034">
        <ele>7.8000001907349</ele>
        <time>2019-04-02T07:41:10.000Z</time>
      </trkpt>
      <trkpt lat="47.23604" lon="-1.55031">
        <ele>8</ele>
        <time>2019-04-02T07:41:11.000Z</time>
      </trkpt>
      <trkpt lat="47.23604" lon="-1.55031">
        <ele>8</ele>
        <time>2019-04-02T07:41:12.000Z</time>
      </trkpt>
      <trkpt lat="47.23603" lon="-1.55029">
        <ele>8</ele>
        <time>2019-04-02T07:41:13.000Z</time>
      </trkpt>
      <trkpt lat="47.23602" lon="-1.55028">
        <ele>8</ele>
        <time>2019-04-02T07:41:14.000Z</time>
      </trkpt>
      <trkpt lat="47.23601" lon="-1.55027">
        <ele>8.1999998092651</ele>
        <time>2019-04-02T07:41:15.000Z</time>
      </trkpt>
      <trkpt lat="47.23599" lon="-1.55025">
        <ele>8.1999998092651</ele>
        <time>2019-04-02T07:41:16.000Z</time>
      </trkpt>
      <trkpt lat="47.23598" lon="-1.55024">
        <ele>8.3999996185303</ele>
        <time>2019-04-02T07:41:17.000Z</time>
      </trkpt>
      <trkpt lat="47.23597" lon="-1.55022">
        <ele>8.3999996185303</ele>
        <time>2019-04-02T07:41:18.000Z</time>
      </trkpt>
      <trkpt lat="47.23596" lon="-1.55021">
        <ele>8.6000003814697</ele>
        <time>2019-04-02T07:41:19.000Z</time>
      </trkpt>
      <trkpt lat="47.23595" lon="-1.5502">
        <ele>8.6000003814697</ele>
        <time>2019-04-02T07:41:20.000Z</time>
      </trkpt>
      <trkpt lat="47.23594" lon="-1.55018">
        <ele>8.8000001907349</ele>
        <time>2019-04-02T07:41:21.000Z</time>
      </trkpt>
      <trkpt lat="47.23592" lon="-1.55017">
        <ele>8.8000001907349</ele>
        <time>2019-04-02T07:41:22.000Z</time>
      </trkpt>
      <trkpt lat="47.23589" lon="-1.55013">
        <ele>9</ele>
        <time>2019-04-02T07:41:23.000Z</time>
      </trkpt>
      <trkpt lat="47.23589" lon="-1.55013">
        <ele>9</ele>
        <time>2019-04-02T07:41:24.000Z</time>
      </trkpt>
      <trkpt lat="47.23588" lon="-1.55012">
        <ele>9.1999998092651</ele>
        <time>2019-04-02T07:41:25.000Z</time>
      </trkpt>
      <trkpt lat="47.23587" lon="-1.5501">
        <ele>9.1999998092651</ele>
        <time>2019-04-02T07:41:26.000Z</time>
      </trkpt>
      <trkpt lat="47.23586" lon="-1.55009">
        <ele>9.1999998092651</ele>
        <time>2019-04-02T07:41:27.000Z</time>
      </trkpt>
      <trkpt lat="47.23585" lon="-1.55007">
        <ele>9.3999996185303</ele>
        <time>2019-04-02T07:41:28.000Z</time>
      </trkpt>
      <trkpt lat="47.23584" lon="-1.55006">
        <ele>9.3999996185303</ele>
        <time>2019-04-02T07:41:29.000Z</time>
      </trkpt>
      <trkpt lat="47.23583" lon="-1.55005">
        <ele>9.6000003814697</ele>
        <time>2019-04-02T07:41:30.000Z</time>
      </trkpt>
      <trkpt lat="47.23582" lon="-1.55004">
        <ele>9.6000003814697</ele>
        <time>2019-04-02T07:41:31.000Z</time>
      </trkpt>
      <trkpt lat="47.23582" lon="-1.55003">
        <ele>9.6000003814697</ele>
        <time>2019-04-02T07:41:32.000Z</time>
      </trkpt>
      <trkpt lat="47.2358" lon="-1.55">
        <ele>9.8000001907349</ele>
        <time>2019-04-02T07:41:33.000Z</time>
      </trkpt>
      <trkpt lat="47.2358" lon="-1.55">
        <ele>9.8000001907349</ele>
        <time>2019-04-02T07:41:34.000Z</time>
      </trkpt>
      <trkpt lat="47.2358" lon="-1.54998">
        <ele>9.8000001907349</ele>
        <time>2019-04-02T07:41:35.000Z</time>
      </trkpt>
      <trkpt lat="47.23579" lon="-1.54997">
        <ele>9.8000001907349</ele>
        <time>2019-04-02T07:41:36.000Z</time>
      </trkpt>
      <trkpt lat="47.23578" lon="-1.54993">
        <ele>10</ele>
        <time>2019-04-02T07:41:37.000Z</time>
      </trkpt>
      <trkpt lat="47.23578" lon="-1.54993">
        <ele>10</ele>
        <time>2019-04-02T07:41:38.000Z</time>
      </trkpt>
      <trkpt lat="47.23578" lon="-1.5499">
        <ele>10</ele>
        <time>2019-04-02T07:41:39.000Z</time>
      </trkpt>
      <trkpt lat="47.23577" lon="-1.54988">
        <ele>10</ele>
        <time>2019-04-02T07:41:40.000Z</time>
      </trkpt>
      <trkpt lat="47.23577" lon="-1.54985">
        <ele>10</ele>
        <time>2019-04-02T07:41:41.000Z</time>
      </trkpt>
      <trkpt lat="47.23576" lon="-1.54983">
        <ele>10.199999809265</ele>
        <time>2019-04-02T07:41:42.000Z</time>
      </trkpt>
      <trkpt lat="47.23575" lon="-1.54981">
        <ele>10.199999809265</ele>
        <time>2019-04-02T07:41:43.000Z</time>
      </trkpt>
      <trkpt lat="47.23574" lon="-1.54979">
        <ele>10.199999809265</ele>
        <time>2019-04-02T07:41:44.000Z</time>
      </trkpt>
      <trkpt lat="47.23573" lon="-1.54977">
        <ele>10</ele>
        <time>2019-04-02T07:41:45.000Z</time>
      </trkpt>
      <trkpt lat="47.23573" lon="-1.54975">
        <ele>10</ele>
        <time>2019-04-02T07:41:46.000Z</time>
      </trkpt>
      <trkpt lat="47.23572" lon="-1.54973">
        <ele>10</ele>
        <time>2019-04-02T07:41:47.000Z</time>
      </trkpt>
      <trkpt lat="47.23571" lon="-1.54972">
        <ele>10</ele>
        <time>2019-04-02T07:41:48.000Z</time>
      </trkpt>
      <trkpt lat="47.2357" lon="-1.5497">
        <ele>10</ele>
        <time>2019-04-02T07:41:49.000Z</time>
      </trkpt>
      <trkpt lat="47.23569" lon="-1.54968">
        <ele>10.199999809265</ele>
        <time>2019-04-02T07:41:50.000Z</time>
      </trkpt>
      <trkpt lat="47.23567" lon="-1.54967">
        <ele>10.199999809265</ele>
        <time>2019-04-02T07:41:51.000Z</time>
      </trkpt>
      <trkpt lat="47.23566" lon="-1.54966">
        <ele>10.199999809265</ele>
        <time>2019-04-02T07:41:52.000Z</time>
      </trkpt>
      <trkpt lat="47.23565" lon="-1.54965">
        <ele>10.199999809265</ele>
        <time>2019-04-02T07:41:53.000Z</time>
      </trkpt>
      <trkpt lat="47.23564" lon="-1.54964">
        <ele>10.199999809265</ele>
        <time>2019-04-02T07:41:54.000Z</time>
      </trkpt>
      <trkpt lat="47.23563" lon="-1.54963">
        <ele>10.199999809265</ele>
        <time>2019-04-02T07:41:55.000Z</time>
      </trkpt>
      <trkpt lat="47.23562" lon="-1.54962">
        <ele>10.199999809265</ele>
        <time>2019-04-02T07:41:56.000Z</time>
      </trkpt>
      <trkpt lat="47.23561" lon="-1.5496">
        <ele>10.39999961853</ele>
        <time>2019-04-02T07:41:57.000Z</time>
      </trkpt>
      <trkpt lat="47.23559" lon="-1.54959">
        <ele>10.39999961853</ele>
        <time>2019-04-02T07:41:58.000Z</time>
      </trkpt>
      <trkpt lat="47.23558" lon="-1.54957">
        <ele>10.39999961853</ele>
        <time>2019-04-02T07:41:59.000Z</time>
      </trkpt>
      <trkpt lat="47.23558" lon="-1.54956">
        <ele>10.39999961853</ele>
        <time>2019-04-02T07:42:00.000Z</time>
      </trkpt>
      <trkpt lat="47.23556" lon="-1.54954">
        <ele>10.39999961853</ele>
        <time>2019-04-02T07:42:01.000Z</time>
      </trkpt>
      <trkpt lat="47.23556" lon="-1.54954">
        <ele>10.39999961853</ele>
        <time>2019-04-02T07:42:02.000Z</time>
      </trkpt>
      <trkpt lat="47.23555" lon="-1.54953">
        <ele>10.39999961853</ele>
        <time>2019-04-02T07:42:03.000Z</time>
      </trkpt>
      <trkpt lat="47.23555" lon="-1.54952">
        <ele>10.39999961853</ele>
        <time>2019-04-02T07:42:04.000Z</time>
      </trkpt>
      <trkpt lat="47.23554" lon="-1.5495">
        <ele>10.39999961853</ele>
        <time>2019-04-02T07:42:05.000Z</time>
      </trkpt>
      <trkpt lat="47.23553" lon="-1.54949">
        <ele>10.39999961853</ele>
        <time>2019-04-02T07:42:06.000Z</time>
      </trkpt>
      <trkpt lat="47.23552" lon="-1.54948">
        <ele>10.39999961853</ele>
        <time>2019-04-02T07:42:07.000Z</time>
      </trkpt>
      <trkpt lat="47.23551" lon="-1.54946">
        <ele>10.39999961853</ele>
        <time>2019-04-02T07:42:08.000Z</time>
      </trkpt>
      <trkpt lat="47.2355" lon="-1.54944">
        <ele>10.39999961853</ele>
        <time>2019-04-02T07:42:09.000Z</time>
      </trkpt>
      <trkpt lat="47.23549" lon="-1.54942">
        <ele>10.39999961853</ele>
        <time>2019-04-02T07:42:10.000Z</time>
      </trkpt>
      <trkpt lat="47.23548" lon="-1.54941">
        <ele>10.39999961853</ele>
        <time>2019-04-02T07:42:11.000Z</time>
      </trkpt>
      <trkpt lat="47.23547" lon="-1.54939">
        <ele>10.39999961853</ele>
        <time>2019-04-02T07:42:12.000Z</time>
      </trkpt>
      <trkpt lat="47.23546" lon="-1.54937">
        <ele>10.39999961853</ele>
        <time>2019-04-02T07:42:13.000Z</time>
      </trkpt>
      <trkpt lat="47.23545" lon="-1.54936">
        <ele>10.39999961853</ele>
        <time>2019-04-02T07:42:14.000Z</time>
      </trkpt>
      <trkpt lat="47.23544" lon="-1.54934">
        <ele>10.39999961853</ele>
        <time>2019-04-02T07:42:15.000Z</time>
      </trkpt>
      <trkpt lat="47.23543" lon="-1.54932">
        <ele>10.39999961853</ele>
        <time>2019-04-02T07:42:16.000Z</time>
      </trkpt>
      <trkpt lat="47.23541" lon="-1.5493">
        <ele>10.60000038147</ele>
        <time>2019-04-02T07:42:17.000Z</time>
      </trkpt>
      <trkpt lat="47.2354" lon="-1.54929">
        <ele>10.60000038147</ele>
        <time>2019-04-02T07:42:18.000Z</time>
      </trkpt>
      <trkpt lat="47.23539" lon="-1.54928">
        <ele>10.60000038147</ele>
        <time>2019-04-02T07:42:19.000Z</time>
      </trkpt>
      <trkpt lat="47.23536" lon="-1.54927">
        <ele>10.60000038147</ele>
        <time>2019-04-02T07:42:20.000Z</time>
      </trkpt>
      <trkpt lat="47.23536" lon="-1.54927">
        <ele>10.60000038147</ele>
        <time>2019-04-02T07:42:21.000Z</time>
      </trkpt>
      <trkpt lat="47.23535" lon="-1.54926">
        <ele>10.800000190735</ele>
        <time>2019-04-02T07:42:22.000Z</time>
      </trkpt>
      <trkpt lat="47.23533" lon="-1.54926">
        <ele>10.800000190735</ele>
        <time>2019-04-02T07:42:23.000Z</time>
      </trkpt>
      <trkpt lat="47.23532" lon="-1.54925">
        <ele>10.800000190735</ele>
        <time>2019-04-02T07:42:24.000Z</time>
      </trkpt>
      <trkpt lat="47.2353" lon="-1.54925">
        <ele>11</ele>
        <time>2019-04-02T07:42:25.000Z</time>
      </trkpt>
      <trkpt lat="47.23529" lon="-1.54925">
        <ele>11</ele>
        <time>2019-04-02T07:42:26.000Z</time>
      </trkpt>
      <trkpt lat="47.23528" lon="-1.54924">
        <ele>11</ele>
        <time>2019-04-02T07:42:27.000Z</time>
      </trkpt>
      <trkpt lat="47.23526" lon="-1.54924">
        <ele>11</ele>
        <time>2019-04-02T07:42:28.000Z</time>
      </trkpt>
      <trkpt lat="47.23525" lon="-1.54923">
        <ele>11.199999809265</ele>
        <time>2019-04-02T07:42:29.000Z</time>
      </trkpt>
      <trkpt lat="47.23524" lon="-1.54923">
        <ele>11.199999809265</ele>
        <time>2019-04-02T07:42:30.000Z</time>
      </trkpt>
      <trkpt lat="47.23523" lon="-1.54923">
        <ele>11.199999809265</ele>
        <time>2019-04-02T07:42:31.000Z</time>
      </trkpt>
      <trkpt lat="47.23522" lon="-1.54922">
        <ele>11.199999809265</ele>
        <time>2019-04-02T07:42:32.000Z</time>
      </trkpt>
      <trkpt lat="47.23521" lon="-1.54921">
        <ele>11.199999809265</ele>
        <time>2019-04-02T07:42:33.000Z</time>
      </trkpt>
      <trkpt lat="47.23521" lon="-1.54921">
        <ele>11.199999809265</ele>
        <time>2019-04-02T07:42:34.000Z</time>
      </trkpt>
      <trkpt lat="47.2352" lon="-1.5492">
        <ele>11.39999961853</ele>
        <time>2019-04-02T07:42:35.000Z</time>
      </trkpt>
      <trkpt lat="47.23519" lon="-1.54921">
        <ele>11.39999961853</ele>
        <time>2019-04-02T07:42:36.000Z</time>
      </trkpt>
      <trkpt lat="47.2352" lon="-1.54918">
        <ele>11.199999809265</ele>
        <time>2019-04-02T07:42:37.000Z</time>
      </trkpt>
      <trkpt lat="47.23518" lon="-1.54917">
        <ele>11.199999809265</ele>
        <time>2019-04-02T07:42:38.000Z</time>
      </trkpt>
      <trkpt lat="47.23518" lon="-1.54917">
        <ele>11.39999961853</ele>
        <time>2019-04-02T07:42:39.000Z</time>
      </trkpt>
      <trkpt lat="47.23514" lon="-1.54917">
        <ele>11.60000038147</ele>
        <time>2019-04-02T07:42:40.000Z</time>
      </trkpt>
      <trkpt lat="47.2351" lon="-1.54917">
        <ele>11.800000190735</ele>
        <time>2019-04-02T07:42:41.000Z</time>
      </trkpt>
      <trkpt lat="47.23506" lon="-1.54916">
        <ele>11.800000190735</ele>
        <time>2019-04-02T07:42:42.000Z</time>
      </trkpt>
      <trkpt lat="47.23506" lon="-1.54916">
        <ele>11.800000190735</ele>
        <time>2019-04-02T07:42:43.000Z</time>
      </trkpt>
      <trkpt lat="47.23505" lon="-1.54915">
        <ele>11.800000190735</ele>
        <time>2019-04-02T07:42:44.000Z</time>
      </trkpt>
      <trkpt lat="47.23504" lon="-1.54914">
        <ele>12</ele>
        <time>2019-04-02T07:42:45.000Z</time>
      </trkpt>
      <trkpt lat="47.23503" lon="-1.54913">
        <ele>12</ele>
        <time>2019-04-02T07:42:46.000Z</time>
      </trkpt>
      <trkpt lat="47.23503" lon="-1.54911">
        <ele>12</ele>
        <time>2019-04-02T07:42:47.000Z</time>
      </trkpt>
      <trkpt lat="47.23502" lon="-1.54911">
        <ele>12</ele>
        <time>2019-04-02T07:42:48.000Z</time>
      </trkpt>
      <trkpt lat="47.23503" lon="-1.5491">
        <ele>11.800000190735</ele>
        <time>2019-04-02T07:42:49.000Z</time>
      </trkpt>
      <trkpt lat="47.23503" lon="-1.54909">
        <ele>11.800000190735</ele>
        <time>2019-04-02T07:42:50.000Z</time>
      </trkpt>
      <trkpt lat="47.23502" lon="-1.54908">
        <ele>11.800000190735</ele>
        <time>2019-04-02T07:42:51.000Z</time>
      </trkpt>
      <trkpt lat="47.23502" lon="-1.54908">
        <ele>11.800000190735</ele>
        <time>2019-04-02T07:42:52.000Z</time>
      </trkpt>
      <trkpt lat="47.23502" lon="-1.54908">
        <ele>11.800000190735</ele>
        <time>2019-04-02T07:42:53.000Z</time>
      </trkpt>
      <trkpt lat="47.23502" lon="-1.54908">
        <ele>11.800000190735</ele>
        <time>2019-04-02T07:42:54.000Z</time>
      </trkpt>
      <trkpt lat="47.23486" lon="-1.549">
        <ele>11.800000190735</ele>
        <time>2019-04-02T07:43:45.000Z</time>
      </trkpt>
      <trkpt lat="47.23485" lon="-1.549">
        <ele>11.800000190735</ele>
        <time>2019-04-02T07:43:46.000Z</time>
      </trkpt>
      <trkpt lat="47.23484" lon="-1.54901">
        <ele>11.800000190735</ele>
        <time>2019-04-02T07:43:47.000Z</time>
      </trkpt>
      <trkpt lat="47.23482" lon="-1.54901">
        <ele>11.800000190735</ele>
        <time>2019-04-02T07:43:48.000Z</time>
      </trkpt>
      <trkpt lat="47.23481" lon="-1.54902">
        <ele>11.800000190735</ele>
        <time>2019-04-02T07:43:49.000Z</time>
      </trkpt>
      <trkpt lat="47.23479" lon="-1.54901">
        <ele>11.800000190735</ele>
        <time>2019-04-02T07:43:50.000Z</time>
      </trkpt>
      <trkpt lat="47.23479" lon="-1.54901">
        <ele>11.800000190735</ele>
        <time>2019-04-02T07:43:51.000Z</time>
      </trkpt>
      <trkpt lat="47.23477" lon="-1.54901">
        <ele>11.800000190735</ele>
        <time>2019-04-02T07:43:52.000Z</time>
      </trkpt>
      <trkpt lat="47.23476" lon="-1.54901">
        <ele>11.800000190735</ele>
        <time>2019-04-02T07:43:53.000Z</time>
      </trkpt>
      <trkpt lat="47.23475" lon="-1.54901">
        <ele>11.800000190735</ele>
        <time>2019-04-02T07:43:54.000Z</time>
      </trkpt>
      <trkpt lat="47.23473" lon="-1.54901">
        <ele>11.800000190735</ele>
        <time>2019-04-02T07:43:55.000Z</time>
      </trkpt>
      <trkpt lat="47.23472" lon="-1.54901">
        <ele>11.800000190735</ele>
        <time>2019-04-02T07:43:56.000Z</time>
      </trkpt>
      <trkpt lat="47.23471" lon="-1.549">
        <ele>11.60000038147</ele>
        <time>2019-04-02T07:43:57.000Z</time>
      </trkpt>
      <trkpt lat="47.2347" lon="-1.549">
        <ele>11.60000038147</ele>
        <time>2019-04-02T07:43:58.000Z</time>
      </trkpt>
      <trkpt lat="47.23468" lon="-1.54899">
        <ele>11.60000038147</ele>
        <time>2019-04-02T07:43:59.000Z</time>
      </trkpt>
      <trkpt lat="47.23467" lon="-1.54898">
        <ele>11.60000038147</ele>
        <time>2019-04-02T07:44:00.000Z</time>
      </trkpt>
      <trkpt lat="47.23464" lon="-1.54897">
        <ele>11.39999961853</ele>
        <time>2019-04-02T07:44:01.000Z</time>
      </trkpt>
      <trkpt lat="47.23464" lon="-1.54897">
        <ele>11.39999961853</ele>
        <time>2019-04-02T07:44:02.000Z</time>
      </trkpt>
      <trkpt lat="47.23462" lon="-1.54897">
        <ele>11.39999961853</ele>
        <time>2019-04-02T07:44:03.000Z</time>
      </trkpt>
      <trkpt lat="47.23461" lon="-1.54897">
        <ele>11.39999961853</ele>
        <time>2019-04-02T07:44:04.000Z</time>
      </trkpt>
      <trkpt lat="47.23459" lon="-1.54896">
        <ele>11.39999961853</ele>
        <time>2019-04-02T07:44:05.000Z</time>
      </trkpt>
      <trkpt lat="47.23458" lon="-1.54896">
        <ele>11.39999961853</ele>
        <time>2019-04-02T07:44:06.000Z</time>
      </trkpt>
      <trkpt lat="47.23457" lon="-1.54896">
        <ele>11.39999961853</ele>
        <time>2019-04-02T07:44:07.000Z</time>
      </trkpt>
      <trkpt lat="47.23455" lon="-1.54897">
        <ele>11.39999961853</ele>
        <time>2019-04-02T07:44:08.000Z</time>
      </trkpt>
      <trkpt lat="47.23454" lon="-1.54897">
        <ele>11.39999961853</ele>
        <time>2019-04-02T07:44:09.000Z</time>
      </trkpt>
      <trkpt lat="47.23452" lon="-1.54898">
        <ele>11.39999961853</ele>
        <time>2019-04-02T07:44:10.000Z</time>
      </trkpt>
      <trkpt lat="47.23452" lon="-1.54898">
        <ele>11.39999961853</ele>
        <time>2019-04-02T07:44:11.000Z</time>
      </trkpt>
      <trkpt lat="47.23451" lon="-1.54897">
        <ele>11.39999961853</ele>
        <time>2019-04-02T07:44:12.000Z</time>
      </trkpt>
      <trkpt lat="47.23449" lon="-1.54896">
        <ele>11.199999809265</ele>
        <time>2019-04-02T07:44:13.000Z</time>
      </trkpt>
      <trkpt lat="47.23448" lon="-1.54895">
        <ele>11.199999809265</ele>
        <time>2019-04-02T07:44:14.000Z</time>
      </trkpt>
      <trkpt lat="47.23446" lon="-1.54895">
        <ele>11.199999809265</ele>
        <time>2019-04-02T07:44:15.000Z</time>
      </trkpt>
      <trkpt lat="47.23444" lon="-1.54895">
        <ele>11.199999809265</ele>
        <time>2019-04-02T07:44:16.000Z</time>
      </trkpt>
      <trkpt lat="47.23442" lon="-1.54894">
        <ele>11.199999809265</ele>
        <time>2019-04-02T07:44:17.000Z</time>
      </trkpt>
      <trkpt lat="47.23441" lon="-1.54894">
        <ele>11.199999809265</ele>
        <time>2019-04-02T07:44:18.000Z</time>
      </trkpt>
      <trkpt lat="47.23439" lon="-1.54894">
        <ele>11</ele>
        <time>2019-04-02T07:44:19.000Z</time>
      </trkpt>
      <trkpt lat="47.23438" lon="-1.54894">
        <ele>11</ele>
        <time>2019-04-02T07:44:20.000Z</time>
      </trkpt>
      <trkpt lat="47.23437" lon="-1.54894">
        <ele>11</ele>
        <time>2019-04-02T07:44:21.000Z</time>
      </trkpt>
      <trkpt lat="47.23436" lon="-1.54894">
        <ele>11</ele>
        <time>2019-04-02T07:44:22.000Z</time>
      </trkpt>
      <trkpt lat="47.23434" lon="-1.54894">
        <ele>11</ele>
        <time>2019-04-02T07:44:23.000Z</time>
      </trkpt>
      <trkpt lat="47.23433" lon="-1.54894">
        <ele>11</ele>
        <time>2019-04-02T07:44:24.000Z</time>
      </trkpt>
      <trkpt lat="47.23432" lon="-1.54893">
        <ele>11</ele>
        <time>2019-04-02T07:44:25.000Z</time>
      </trkpt>
      <trkpt lat="47.23429" lon="-1.54892">
        <ele>10.800000190735</ele>
        <time>2019-04-02T07:44:26.000Z</time>
      </trkpt>
      <trkpt lat="47.23429" lon="-1.54892">
        <ele>10.800000190735</ele>
        <time>2019-04-02T07:44:27.000Z</time>
      </trkpt>
      <trkpt lat="47.23427" lon="-1.54892">
        <ele>10.800000190735</ele>
        <time>2019-04-02T07:44:28.000Z</time>
      </trkpt>
      <trkpt lat="47.23426" lon="-1.54892">
        <ele>10.800000190735</ele>
        <time>2019-04-02T07:44:29.000Z</time>
      </trkpt>
      <trkpt lat="47.23424" lon="-1.54892">
        <ele>10.800000190735</ele>
        <time>2019-04-02T07:44:30.000Z</time>
      </trkpt>
      <trkpt lat="47.23423" lon="-1.54892">
        <ele>10.800000190735</ele>
        <time>2019-04-02T07:44:31.000Z</time>
      </trkpt>
      <trkpt lat="47.23422" lon="-1.54892">
        <ele>10.800000190735</ele>
        <time>2019-04-02T07:44:32.000Z</time>
      </trkpt>
      <trkpt lat="47.2342" lon="-1.54891">
        <ele>10.800000190735</ele>
        <time>2019-04-02T07:44:33.000Z</time>
      </trkpt>
      <trkpt lat="47.23419" lon="-1.54891">
        <ele>10.60000038147</ele>
        <time>2019-04-02T07:44:34.000Z</time>
      </trkpt>
      <trkpt lat="47.23418" lon="-1.54891">
        <ele>10.60000038147</ele>
        <time>2019-04-02T07:44:35.000Z</time>
      </trkpt>
      <trkpt lat="47.23416" lon="-1.54891">
        <ele>10.60000038147</ele>
        <time>2019-04-02T07:44:36.000Z</time>
      </trkpt>
      <trkpt lat="47.23414" lon="-1.5489">
        <ele>10.60000038147</ele>
        <time>2019-04-02T07:44:37.000Z</time>
      </trkpt>
      <trkpt lat="47.23413" lon="-1.5489">
        <ele>10.60000038147</ele>
        <time>2019-04-02T07:44:38.000Z</time>
      </trkpt>
      <trkpt lat="47.23411" lon="-1.5489">
        <ele>10.39999961853</ele>
        <time>2019-04-02T07:44:39.000Z</time>
      </trkpt>
      <trkpt lat="47.23409" lon="-1.5489">
        <ele>10.39999961853</ele>
        <time>2019-04-02T07:44:40.000Z</time>
      </trkpt>
      <trkpt lat="47.23408" lon="-1.54891">
        <ele>10.39999961853</ele>
        <time>2019-04-02T07:44:41.000Z</time>
      </trkpt>
      <trkpt lat="47.23406" lon="-1.54891">
        <ele>10.39999961853</ele>
        <time>2019-04-02T07:44:42.000Z</time>
      </trkpt>
      <trkpt lat="47.23405" lon="-1.54891">
        <ele>10.39999961853</ele>
        <time>2019-04-02T07:44:43.000Z</time>
      </trkpt>
      <trkpt lat="47.23403" lon="-1.54891">
        <ele>10.39999961853</ele>
        <time>2019-04-02T07:44:44.000Z</time>
      </trkpt>
      <trkpt lat="47.23402" lon="-1.54891">
        <ele>10.39999961853</ele>
        <time>2019-04-02T07:44:45.000Z</time>
      </trkpt>
      <trkpt lat="47.234" lon="-1.54891">
        <ele>10.39999961853</ele>
        <time>2019-04-02T07:44:46.000Z</time>
      </trkpt>
      <trkpt lat="47.23399" lon="-1.5489">
        <ele>10.39999961853</ele>
        <time>2019-04-02T07:44:47.000Z</time>
      </trkpt>
      <trkpt lat="47.23395" lon="-1.5489">
        <ele>10.199999809265</ele>
        <time>2019-04-02T07:44:48.000Z</time>
      </trkpt>
      <trkpt lat="47.23395" lon="-1.5489">
        <ele>10.199999809265</ele>
        <time>2019-04-02T07:44:49.000Z</time>
      </trkpt>
      <trkpt lat="47.23394" lon="-1.54889">
        <ele>10.199999809265</ele>
        <time>2019-04-02T07:44:50.000Z</time>
      </trkpt>
      <trkpt lat="47.23392" lon="-1.54889">
        <ele>10.199999809265</ele>
        <time>2019-04-02T07:44:51.000Z</time>
      </trkpt>
      <trkpt lat="47.2339" lon="-1.54889">
        <ele>10.199999809265</ele>
        <time>2019-04-02T07:44:52.000Z</time>
      </trkpt>
      <trkpt lat="47.23389" lon="-1.54889">
        <ele>10.199999809265</ele>
        <time>2019-04-02T07:44:53.000Z</time>
      </trkpt>
      <trkpt lat="47.23388" lon="-1.54889">
        <ele>10.199999809265</ele>
        <time>2019-04-02T07:44:54.000Z</time>
      </trkpt>
      <trkpt lat="47.23386" lon="-1.54889">
        <ele>10.199999809265</ele>
        <time>2019-04-02T07:44:55.000Z</time>
      </trkpt>
      <trkpt lat="47.23385" lon="-1.54889">
        <ele>10.199999809265</ele>
        <time>2019-04-02T07:44:56.000Z</time>
      </trkpt>
      <trkpt lat="47.23384" lon="-1.54889">
        <ele>10</ele>
        <time>2019-04-02T07:44:57.000Z</time>
      </trkpt>
      <trkpt lat="47.23383" lon="-1.54888">
        <ele>10</ele>
        <time>2019-04-02T07:44:58.000Z</time>
      </trkpt>
      <trkpt lat="47.23382" lon="-1.54888">
        <ele>10</ele>
        <time>2019-04-02T07:44:59.000Z</time>
      </trkpt>
      <trkpt lat="47.23381" lon="-1.54888">
        <ele>10</ele>
        <time>2019-04-02T07:45:00.000Z</time>
      </trkpt>
      <trkpt lat="47.23379" lon="-1.54887">
        <ele>10</ele>
        <time>2019-04-02T07:45:01.000Z</time>
      </trkpt>
      <trkpt lat="47.23378" lon="-1.54887">
        <ele>10</ele>
        <time>2019-04-02T07:45:02.000Z</time>
      </trkpt>
      <trkpt lat="47.23376" lon="-1.54886">
        <ele>9.8000001907349</ele>
        <time>2019-04-02T07:45:03.000Z</time>
      </trkpt>
      <trkpt lat="47.23375" lon="-1.54886">
        <ele>9.8000001907349</ele>
        <time>2019-04-02T07:45:04.000Z</time>
      </trkpt>
      <trkpt lat="47.23373" lon="-1.54885">
        <ele>9.8000001907349</ele>
        <time>2019-04-02T07:45:05.000Z</time>
      </trkpt>
      <trkpt lat="47.23371" lon="-1.54885">
        <ele>9.8000001907349</ele>
        <time>2019-04-02T07:45:06.000Z</time>
      </trkpt>
      <trkpt lat="47.2337" lon="-1.54885">
        <ele>9.8000001907349</ele>
        <time>2019-04-02T07:45:07.000Z</time>
      </trkpt>
      <trkpt lat="47.23368" lon="-1.54885">
        <ele>9.6000003814697</ele>
        <time>2019-04-02T07:45:08.000Z</time>
      </trkpt>
      <trkpt lat="47.23365" lon="-1.54885">
        <ele>9.6000003814697</ele>
        <time>2019-04-02T07:45:09.000Z</time>
      </trkpt>
      <trkpt lat="47.23365" lon="-1.54885">
        <ele>9.6000003814697</ele>
        <time>2019-04-02T07:45:10.000Z</time>
      </trkpt>
      <trkpt lat="47.23363" lon="-1.54885">
        <ele>9.6000003814697</ele>
        <time>2019-04-02T07:45:11.000Z</time>
      </trkpt>
      <trkpt lat="47.23362" lon="-1.54885">
        <ele>9.6000003814697</ele>
        <time>2019-04-02T07:45:12.000Z</time>
      </trkpt>
      <trkpt lat="47.2336" lon="-1.54885">
        <ele>9.6000003814697</ele>
        <time>2019-04-02T07:45:13.000Z</time>
      </trkpt>
      <trkpt lat="47.23359" lon="-1.54885">
        <ele>9.6000003814697</ele>
        <time>2019-04-02T07:45:14.000Z</time>
      </trkpt>
      <trkpt lat="47.23357" lon="-1.54884">
        <ele>9.6000003814697</ele>
        <time>2019-04-02T07:45:15.000Z</time>
      </trkpt>
      <trkpt lat="47.23356" lon="-1.54884">
        <ele>9.6000003814697</ele>
        <time>2019-04-02T07:45:16.000Z</time>
      </trkpt>
      <trkpt lat="47.23354" lon="-1.54883">
        <ele>9.3999996185303</ele>
        <time>2019-04-02T07:45:17.000Z</time>
      </trkpt>
      <trkpt lat="47.23353" lon="-1.54883">
        <ele>9.3999996185303</ele>
        <time>2019-04-02T07:45:18.000Z</time>
      </trkpt>
      <trkpt lat="47.23351" lon="-1.54882">
        <ele>9.3999996185303</ele>
        <time>2019-04-02T07:45:19.000Z</time>
      </trkpt>
      <trkpt lat="47.2335" lon="-1.54882">
        <ele>9.3999996185303</ele>
        <time>2019-04-02T07:45:20.000Z</time>
      </trkpt>
      <trkpt lat="47.23349" lon="-1.54882">
        <ele>9.3999996185303</ele>
        <time>2019-04-02T07:45:21.000Z</time>
      </trkpt>
      <trkpt lat="47.23347" lon="-1.54882">
        <ele>9.3999996185303</ele>
        <time>2019-04-02T07:45:22.000Z</time>
      </trkpt>
      <trkpt lat="47.23346" lon="-1.54882">
        <ele>9.1999998092651</ele>
        <time>2019-04-02T07:45:23.000Z</time>
      </trkpt>
      <trkpt lat="47.23345" lon="-1.54882">
        <ele>9.1999998092651</ele>
        <time>2019-04-02T07:45:24.000Z</time>
      </trkpt>
      <trkpt lat="47.23344" lon="-1.54881">
        <ele>9.1999998092651</ele>
        <time>2019-04-02T07:45:25.000Z</time>
      </trkpt>
      <trkpt lat="47.23343" lon="-1.54881">
        <ele>9.1999998092651</ele>
        <time>2019-04-02T07:45:26.000Z</time>
      </trkpt>
      <trkpt lat="47.23342" lon="-1.5488">
        <ele>9</ele>
        <time>2019-04-02T07:45:27.000Z</time>
      </trkpt>
      <trkpt lat="47.23341" lon="-1.5488">
        <ele>9</ele>
        <time>2019-04-02T07:45:28.000Z</time>
      </trkpt>
      <trkpt lat="47.23339" lon="-1.54879">
        <ele>9</ele>
        <time>2019-04-02T07:45:29.000Z</time>
      </trkpt>
      <trkpt lat="47.23338" lon="-1.54878">
        <ele>8.8000001907349</ele>
        <time>2019-04-02T07:45:30.000Z</time>
      </trkpt>
      <trkpt lat="47.23337" lon="-1.54877">
        <ele>8.8000001907349</ele>
        <time>2019-04-02T07:45:31.000Z</time>
      </trkpt>
      <trkpt lat="47.23336" lon="-1.54877">
        <ele>8.8000001907349</ele>
        <time>2019-04-02T07:45:32.000Z</time>
      </trkpt>
      <trkpt lat="47.23334" lon="-1.54877">
        <ele>8.6000003814697</ele>
        <time>2019-04-02T07:45:33.000Z</time>
      </trkpt>
      <trkpt lat="47.23333" lon="-1.54877">
        <ele>8.6000003814697</ele>
        <time>2019-04-02T07:45:34.000Z</time>
      </trkpt>
      <trkpt lat="47.2333" lon="-1.54876">
        <ele>8.6000003814697</ele>
        <time>2019-04-02T07:45:35.000Z</time>
      </trkpt>
      <trkpt lat="47.2333" lon="-1.54876">
        <ele>8.6000003814697</ele>
        <time>2019-04-02T07:45:36.000Z</time>
      </trkpt>
      <trkpt lat="47.23328" lon="-1.54875">
        <ele>8.3999996185303</ele>
        <time>2019-04-02T07:45:37.000Z</time>
      </trkpt>
      <trkpt lat="47.23328" lon="-1.54875">
        <ele>8.3999996185303</ele>
        <time>2019-04-02T07:45:38.000Z</time>
      </trkpt>
      <trkpt lat="47.23326" lon="-1.54875">
        <ele>8.3999996185303</ele>
        <time>2019-04-02T07:45:39.000Z</time>
      </trkpt>
      <trkpt lat="47.23324" lon="-1.54874">
        <ele>8.3999996185303</ele>
        <time>2019-04-02T07:45:40.000Z</time>
      </trkpt>
      <trkpt lat="47.23323" lon="-1.54874">
        <ele>8.3999996185303</ele>
        <time>2019-04-02T07:45:41.000Z</time>
      </trkpt>
      <trkpt lat="47.23321" lon="-1.54874">
        <ele>8.3999996185303</ele>
        <time>2019-04-02T07:45:42.000Z</time>
      </trkpt>
      <trkpt lat="47.2332" lon="-1.54874">
        <ele>8.3999996185303</ele>
        <time>2019-04-02T07:45:43.000Z</time>
      </trkpt>
      <trkpt lat="47.23318" lon="-1.54874">
        <ele>8.6000003814697</ele>
        <time>2019-04-02T07:45:44.000Z</time>
      </trkpt>
      <trkpt lat="47.23315" lon="-1.54874">
        <ele>8.6000003814697</ele>
        <time>2019-04-02T07:45:45.000Z</time>
      </trkpt>
      <trkpt lat="47.23315" lon="-1.54874">
        <ele>8.6000003814697</ele>
        <time>2019-04-02T07:45:46.000Z</time>
      </trkpt>
      <trkpt lat="47.23314" lon="-1.54874">
        <ele>8.6000003814697</ele>
        <time>2019-04-02T07:45:47.000Z</time>
      </trkpt>
      <trkpt lat="47.23312" lon="-1.54874">
        <ele>8.6000003814697</ele>
        <time>2019-04-02T07:45:48.000Z</time>
      </trkpt>
      <trkpt lat="47.23312" lon="-1.54874">
        <ele>8.6000003814697</ele>
        <time>2019-04-02T07:45:49.000Z</time>
      </trkpt>
      <trkpt lat="47.23311" lon="-1.54875">
        <ele>8.6000003814697</ele>
        <time>2019-04-02T07:45:50.000Z</time>
      </trkpt>
      <trkpt lat="47.2331" lon="-1.54875">
        <ele>8.6000003814697</ele>
        <time>2019-04-02T07:45:51.000Z</time>
      </trkpt>
      <trkpt lat="47.23309" lon="-1.54875">
        <ele>8.6000003814697</ele>
        <time>2019-04-02T07:45:52.000Z</time>
      </trkpt>
      <trkpt lat="47.23307" lon="-1.54874">
        <ele>8.6000003814697</ele>
        <time>2019-04-02T07:45:53.000Z</time>
      </trkpt>
      <trkpt lat="47.23306" lon="-1.54874">
        <ele>8.6000003814697</ele>
        <time>2019-04-02T07:45:54.000Z</time>
      </trkpt>
      <trkpt lat="47.23305" lon="-1.54874">
        <ele>8.6000003814697</ele>
        <time>2019-04-02T07:45:55.000Z</time>
      </trkpt>
      <trkpt lat="47.23304" lon="-1.54874">
        <ele>8.6000003814697</ele>
        <time>2019-04-02T07:45:56.000Z</time>
      </trkpt>
      <trkpt lat="47.23302" lon="-1.54873">
        <ele>8.6000003814697</ele>
        <time>2019-04-02T07:45:57.000Z</time>
      </trkpt>
      <trkpt lat="47.23301" lon="-1.54873">
        <ele>8.6000003814697</ele>
        <time>2019-04-02T07:45:58.000Z</time>
      </trkpt>
      <trkpt lat="47.23299" lon="-1.54873">
        <ele>8.8000001907349</ele>
        <time>2019-04-02T07:45:59.000Z</time>
      </trkpt>
      <trkpt lat="47.23298" lon="-1.54873">
        <ele>8.8000001907349</ele>
        <time>2019-04-02T07:46:00.000Z</time>
      </trkpt>
      <trkpt lat="47.23295" lon="-1.54873">
        <ele>8.8000001907349</ele>
        <time>2019-04-02T07:46:01.000Z</time>
      </trkpt>
      <trkpt lat="47.23295" lon="-1.54873">
        <ele>8.8000001907349</ele>
        <time>2019-04-02T07:46:02.000Z</time>
      </trkpt>
      <trkpt lat="47.23294" lon="-1.54873">
        <ele>8.8000001907349</ele>
        <time>2019-04-02T07:46:03.000Z</time>
      </trkpt>
      <trkpt lat="47.23292" lon="-1.54873">
        <ele>8.8000001907349</ele>
        <time>2019-04-02T07:46:04.000Z</time>
      </trkpt>
      <trkpt lat="47.23291" lon="-1.54873">
        <ele>8.8000001907349</ele>
        <time>2019-04-02T07:46:05.000Z</time>
      </trkpt>
      <trkpt lat="47.2329" lon="-1.54873">
        <ele>8.8000001907349</ele>
        <time>2019-04-02T07:46:06.000Z</time>
      </trkpt>
      <trkpt lat="47.23289" lon="-1.54872">
        <ele>8.8000001907349</ele>
        <time>2019-04-02T07:46:07.000Z</time>
      </trkpt>
      <trkpt lat="47.23287" lon="-1.54873">
        <ele>8.8000001907349</ele>
        <time>2019-04-02T07:46:08.000Z</time>
      </trkpt>
      <trkpt lat="47.23286" lon="-1.54873">
        <ele>8.8000001907349</ele>
        <time>2019-04-02T07:46:09.000Z</time>
      </trkpt>
      <trkpt lat="47.23284" lon="-1.54872">
        <ele>8.8000001907349</ele>
        <time>2019-04-02T07:46:10.000Z</time>
      </trkpt>
      <trkpt lat="47.23284" lon="-1.54872">
        <ele>8.8000001907349</ele>
        <time>2019-04-02T07:46:11.000Z</time>
      </trkpt>
      <trkpt lat="47.23282" lon="-1.54872">
        <ele>8.8000001907349</ele>
        <time>2019-04-02T07:46:12.000Z</time>
      </trkpt>
      <trkpt lat="47.23281" lon="-1.54873">
        <ele>8.8000001907349</ele>
        <time>2019-04-02T07:46:13.000Z</time>
      </trkpt>
      <trkpt lat="47.2328" lon="-1.54873">
        <ele>9</ele>
        <time>2019-04-02T07:46:14.000Z</time>
      </trkpt>
      <trkpt lat="47.23279" lon="-1.54875">
        <ele>9</ele>
        <time>2019-04-02T07:46:15.000Z</time>
      </trkpt>
      <trkpt lat="47.23278" lon="-1.54876">
        <ele>9.1999998092651</ele>
        <time>2019-04-02T07:46:16.000Z</time>
      </trkpt>
      <trkpt lat="47.23278" lon="-1.54876">
        <ele>9.1999998092651</ele>
        <time>2019-04-02T07:46:17.000Z</time>
      </trkpt>
      <trkpt lat="47.23276" lon="-1.54877">
        <ele>9.1999998092651</ele>
        <time>2019-04-02T07:46:18.000Z</time>
      </trkpt>
      <trkpt lat="47.23275" lon="-1.54877">
        <ele>9.1999998092651</ele>
        <time>2019-04-02T07:46:19.000Z</time>
      </trkpt>
      <trkpt lat="47.23273" lon="-1.54878">
        <ele>9.1999998092651</ele>
        <time>2019-04-02T07:46:20.000Z</time>
      </trkpt>
      <trkpt lat="47.23272" lon="-1.54878">
        <ele>9.3999996185303</ele>
        <time>2019-04-02T07:46:21.000Z</time>
      </trkpt>
      <trkpt lat="47.23271" lon="-1.54879">
        <ele>9.3999996185303</ele>
        <time>2019-04-02T07:46:22.000Z</time>
      </trkpt>
      <trkpt lat="47.23269" lon="-1.54879">
        <ele>9.3999996185303</ele>
        <time>2019-04-02T07:46:23.000Z</time>
      </trkpt>
      <trkpt lat="47.23267" lon="-1.54879">
        <ele>9.3999996185303</ele>
        <time>2019-04-02T07:46:24.000Z</time>
      </trkpt>
      <trkpt lat="47.23266" lon="-1.54879">
        <ele>9.6000003814697</ele>
        <time>2019-04-02T07:46:25.000Z</time>
      </trkpt>
      <trkpt lat="47.23264" lon="-1.5488">
        <ele>9.6000003814697</ele>
        <time>2019-04-02T07:46:26.000Z</time>
      </trkpt>
      <trkpt lat="47.23263" lon="-1.5488">
        <ele>9.8000001907349</ele>
        <time>2019-04-02T07:46:27.000Z</time>
      </trkpt>
      <trkpt lat="47.23262" lon="-1.54881">
        <ele>9.8000001907349</ele>
        <time>2019-04-02T07:46:28.000Z</time>
      </trkpt>
      <trkpt lat="47.2326" lon="-1.54881">
        <ele>10</ele>
        <time>2019-04-02T07:46:29.000Z</time>
      </trkpt>
      <trkpt lat="47.23259" lon="-1.54881">
        <ele>10</ele>
        <time>2019-04-02T07:46:30.000Z</time>
      </trkpt>
      <trkpt lat="47.23258" lon="-1.54882">
        <ele>10.199999809265</ele>
        <time>2019-04-02T07:46:31.000Z</time>
      </trkpt>
      <trkpt lat="47.23256" lon="-1.54882">
        <ele>10.199999809265</ele>
        <time>2019-04-02T07:46:32.000Z</time>
      </trkpt>
      <trkpt lat="47.23255" lon="-1.54883">
        <ele>10.39999961853</ele>
        <time>2019-04-02T07:46:33.000Z</time>
      </trkpt>
      <trkpt lat="47.23252" lon="-1.54883">
        <ele>10.60000038147</ele>
        <time>2019-04-02T07:46:34.000Z</time>
      </trkpt>
      <trkpt lat="47.23252" lon="-1.54883">
        <ele>10.60000038147</ele>
        <time>2019-04-02T07:46:35.000Z</time>
      </trkpt>
      <trkpt lat="47.23251" lon="-1.54883">
        <ele>10.60000038147</ele>
        <time>2019-04-02T07:46:36.000Z</time>
      </trkpt>
      <trkpt lat="47.2325" lon="-1.54883">
        <ele>10.800000190735</ele>
        <time>2019-04-02T07:46:37.000Z</time>
      </trkpt>
      <trkpt lat="47.23248" lon="-1.54883">
        <ele>10.800000190735</ele>
        <time>2019-04-02T07:46:38.000Z</time>
      </trkpt>
      <trkpt lat="47.23247" lon="-1.54883">
        <ele>11</ele>
        <time>2019-04-02T07:46:39.000Z</time>
      </trkpt>
      <trkpt lat="47.23245" lon="-1.54883">
        <ele>11</ele>
        <time>2019-04-02T07:46:40.000Z</time>
      </trkpt>
      <trkpt lat="47.23244" lon="-1.54883">
        <ele>11</ele>
        <time>2019-04-02T07:46:41.000Z</time>
      </trkpt>
      <trkpt lat="47.23243" lon="-1.54883">
        <ele>11</ele>
        <time>2019-04-02T07:46:42.000Z</time>
      </trkpt>
      <trkpt lat="47.23241" lon="-1.54883">
        <ele>11</ele>
        <time>2019-04-02T07:46:43.000Z</time>
      </trkpt>
      <trkpt lat="47.2324" lon="-1.54883">
        <ele>10.800000190735</ele>
        <time>2019-04-02T07:46:44.000Z</time>
      </trkpt>
      <trkpt lat="47.23239" lon="-1.54884">
        <ele>10.800000190735</ele>
        <time>2019-04-02T07:46:45.000Z</time>
      </trkpt>
      <trkpt lat="47.23238" lon="-1.54884">
        <ele>10.800000190735</ele>
        <time>2019-04-02T07:46:46.000Z</time>
      </trkpt>
      <trkpt lat="47.23236" lon="-1.54886">
        <ele>10.800000190735</ele>
        <time>2019-04-02T07:46:47.000Z</time>
      </trkpt>
      <trkpt lat="47.23236" lon="-1.54886">
        <ele>10.800000190735</ele>
        <time>2019-04-02T07:46:48.000Z</time>
      </trkpt>
      <trkpt lat="47.23235" lon="-1.54887">
        <ele>10.800000190735</ele>
        <time>2019-04-02T07:46:49.000Z</time>
      </trkpt>
      <trkpt lat="47.23234" lon="-1.54888">
        <ele>10.800000190735</ele>
        <time>2019-04-02T07:46:50.000Z</time>
      </trkpt>
      <trkpt lat="47.23233" lon="-1.54889">
        <ele>10.800000190735</ele>
        <time>2019-04-02T07:46:51.000Z</time>
      </trkpt>
      <trkpt lat="47.23232" lon="-1.5489">
        <ele>10.60000038147</ele>
        <time>2019-04-02T07:46:52.000Z</time>
      </trkpt>
      <trkpt lat="47.23231" lon="-1.54891">
        <ele>10.60000038147</ele>
        <time>2019-04-02T07:46:53.000Z</time>
      </trkpt>
      <trkpt lat="47.2323" lon="-1.54892">
        <ele>10.60000038147</ele>
        <time>2019-04-02T07:46:54.000Z</time>
      </trkpt>
      <trkpt lat="47.23229" lon="-1.54893">
        <ele>10.60000038147</ele>
        <time>2019-04-02T07:46:55.000Z</time>
      </trkpt>
      <trkpt lat="47.23228" lon="-1.54894">
        <ele>10.60000038147</ele>
        <time>2019-04-02T07:46:56.000Z</time>
      </trkpt>
      <trkpt lat="47.23227" lon="-1.54895">
        <ele>10.60000038147</ele>
        <time>2019-04-02T07:46:57.000Z</time>
      </trkpt>
      <trkpt lat="47.23226" lon="-1.54896">
        <ele>10.60000038147</ele>
        <time>2019-04-02T07:46:58.000Z</time>
      </trkpt>
      <trkpt lat="47.23225" lon="-1.54897">
        <ele>10.39999961853</ele>
        <time>2019-04-02T07:46:59.000Z</time>
      </trkpt>
      <trkpt lat="47.23224" lon="-1.54898">
        <ele>10.39999961853</ele>
        <time>2019-04-02T07:47:00.000Z</time>
      </trkpt>
      <trkpt lat="47.23223" lon="-1.54899">
        <ele>10.39999961853</ele>
        <time>2019-04-02T07:47:01.000Z</time>
      </trkpt>
      <trkpt lat="47.23221" lon="-1.549">
        <ele>10.39999961853</ele>
        <time>2019-04-02T07:47:02.000Z</time>
      </trkpt>
      <trkpt lat="47.23219" lon="-1.549">
        <ele>10.39999961853</ele>
        <time>2019-04-02T07:47:03.000Z</time>
      </trkpt>
      <trkpt lat="47.23217" lon="-1.54901">
        <ele>10.39999961853</ele>
        <time>2019-04-02T07:47:04.000Z</time>
      </trkpt>
      <trkpt lat="47.23216" lon="-1.54902">
        <ele>10.39999961853</ele>
        <time>2019-04-02T07:47:05.000Z</time>
      </trkpt>
      <trkpt lat="47.23214" lon="-1.54902">
        <ele>10.199999809265</ele>
        <time>2019-04-02T07:47:06.000Z</time>
      </trkpt>
      <trkpt lat="47.23211" lon="-1.54903">
        <ele>10.199999809265</ele>
        <time>2019-04-02T07:47:07.000Z</time>
      </trkpt>
      <trkpt lat="47.23211" lon="-1.54903">
        <ele>10.199999809265</ele>
        <time>2019-04-02T07:47:08.000Z</time>
      </trkpt>
      <trkpt lat="47.23209" lon="-1.54904">
        <ele>10.199999809265</ele>
        <time>2019-04-02T07:47:09.000Z</time>
      </trkpt>
      <trkpt lat="47.23208" lon="-1.54905">
        <ele>10.199999809265</ele>
        <time>2019-04-02T07:47:10.000Z</time>
      </trkpt>
      <trkpt lat="47.23206" lon="-1.54906">
        <ele>10.199999809265</ele>
        <time>2019-04-02T07:47:11.000Z</time>
      </trkpt>
      <trkpt lat="47.23205" lon="-1.54908">
        <ele>10.199999809265</ele>
        <time>2019-04-02T07:47:12.000Z</time>
      </trkpt>
      <trkpt lat="47.23204" lon="-1.54909">
        <ele>10.199999809265</ele>
        <time>2019-04-02T07:47:13.000Z</time>
      </trkpt>
      <trkpt lat="47.23202" lon="-1.5491">
        <ele>10.199999809265</ele>
        <time>2019-04-02T07:47:14.000Z</time>
      </trkpt>
      <trkpt lat="47.23201" lon="-1.54911">
        <ele>10.199999809265</ele>
        <time>2019-04-02T07:47:15.000Z</time>
      </trkpt>
      <trkpt lat="47.232" lon="-1.54911">
        <ele>10.199999809265</ele>
        <time>2019-04-02T07:47:16.000Z</time>
      </trkpt>
      <trkpt lat="47.23198" lon="-1.54912">
        <ele>10.199999809265</ele>
        <time>2019-04-02T07:47:17.000Z</time>
      </trkpt>
      <trkpt lat="47.23197" lon="-1.54912">
        <ele>10.199999809265</ele>
        <time>2019-04-02T07:47:18.000Z</time>
      </trkpt>
      <trkpt lat="47.23195" lon="-1.54913">
        <ele>10</ele>
        <time>2019-04-02T07:47:19.000Z</time>
      </trkpt>
      <trkpt lat="47.23194" lon="-1.54914">
        <ele>10</ele>
        <time>2019-04-02T07:47:20.000Z</time>
      </trkpt>
      <trkpt lat="47.23193" lon="-1.54915">
        <ele>10</ele>
        <time>2019-04-02T07:47:21.000Z</time>
      </trkpt>
      <trkpt lat="47.23191" lon="-1.54915">
        <ele>10</ele>
        <time>2019-04-02T07:47:22.000Z</time>
      </trkpt>
      <trkpt lat="47.2319" lon="-1.54916">
        <ele>10</ele>
        <time>2019-04-02T07:47:23.000Z</time>
      </trkpt>
      <trkpt lat="47.23189" lon="-1.54917">
        <ele>10</ele>
        <time>2019-04-02T07:47:24.000Z</time>
      </trkpt>
      <trkpt lat="47.23188" lon="-1.54918">
        <ele>10</ele>
        <time>2019-04-02T07:47:25.000Z</time>
      </trkpt>
      <trkpt lat="47.23187" lon="-1.54919">
        <ele>10</ele>
        <time>2019-04-02T07:47:26.000Z</time>
      </trkpt>
      <trkpt lat="47.23186" lon="-1.5492">
        <ele>10</ele>
        <time>2019-04-02T07:47:27.000Z</time>
      </trkpt>
      <trkpt lat="47.23185" lon="-1.5492">
        <ele>10</ele>
        <time>2019-04-02T07:47:28.000Z</time>
      </trkpt>
      <trkpt lat="47.23183" lon="-1.54921">
        <ele>10</ele>
        <time>2019-04-02T07:47:29.000Z</time>
      </trkpt>
      <trkpt lat="47.23182" lon="-1.54923">
        <ele>10</ele>
        <time>2019-04-02T07:47:30.000Z</time>
      </trkpt>
      <trkpt lat="47.23181" lon="-1.54924">
        <ele>10</ele>
        <time>2019-04-02T07:47:31.000Z</time>
      </trkpt>
      <trkpt lat="47.23181" lon="-1.54924">
        <ele>10</ele>
        <time>2019-04-02T07:47:32.000Z</time>
      </trkpt>
      <trkpt lat="47.2318" lon="-1.54925">
        <ele>10</ele>
        <time>2019-04-02T07:47:33.000Z</time>
      </trkpt>
      <trkpt lat="47.23177" lon="-1.54928">
        <ele>10</ele>
        <time>2019-04-02T07:47:34.000Z</time>
      </trkpt>
      <trkpt lat="47.23177" lon="-1.54928">
        <ele>10</ele>
        <time>2019-04-02T07:47:35.000Z</time>
      </trkpt>
      <trkpt lat="47.23176" lon="-1.54929">
        <ele>10</ele>
        <time>2019-04-02T07:47:36.000Z</time>
      </trkpt>
      <trkpt lat="47.23173" lon="-1.54931">
        <ele>10</ele>
        <time>2019-04-02T07:47:37.000Z</time>
      </trkpt>
      <trkpt lat="47.23173" lon="-1.54931">
        <ele>10</ele>
        <time>2019-04-02T07:47:38.000Z</time>
      </trkpt>
      <trkpt lat="47.23173" lon="-1.54932">
        <ele>10</ele>
        <time>2019-04-02T07:47:39.000Z</time>
      </trkpt>
      <trkpt lat="47.23171" lon="-1.54933">
        <ele>10</ele>
        <time>2019-04-02T07:47:40.000Z</time>
      </trkpt>
      <trkpt lat="47.2317" lon="-1.54934">
        <ele>10</ele>
        <time>2019-04-02T07:47:41.000Z</time>
      </trkpt>
      <trkpt lat="47.23169" lon="-1.54935">
        <ele>10</ele>
        <time>2019-04-02T07:47:42.000Z</time>
      </trkpt>
      <trkpt lat="47.23168" lon="-1.54936">
        <ele>10</ele>
        <time>2019-04-02T07:47:43.000Z</time>
      </trkpt>
      <trkpt lat="47.23166" lon="-1.54937">
        <ele>10</ele>
        <time>2019-04-02T07:47:44.000Z</time>
      </trkpt>
      <trkpt lat="47.23165" lon="-1.54938">
        <ele>10</ele>
        <time>2019-04-02T07:47:45.000Z</time>
      </trkpt>
      <trkpt lat="47.23163" lon="-1.5494">
        <ele>10</ele>
        <time>2019-04-02T07:47:46.000Z</time>
      </trkpt>
      <trkpt lat="47.23163" lon="-1.5494">
        <ele>10</ele>
        <time>2019-04-02T07:47:47.000Z</time>
      </trkpt>
      <trkpt lat="47.23163" lon="-1.54941">
        <ele>10</ele>
        <time>2019-04-02T07:47:48.000Z</time>
      </trkpt>
      <trkpt lat="47.23162" lon="-1.54942">
        <ele>10</ele>
        <time>2019-04-02T07:47:49.000Z</time>
      </trkpt>
      <trkpt lat="47.2316" lon="-1.54943">
        <ele>10</ele>
        <time>2019-04-02T07:47:50.000Z</time>
      </trkpt>
      <trkpt lat="47.2316" lon="-1.54944">
        <ele>10</ele>
        <time>2019-04-02T07:47:51.000Z</time>
      </trkpt>
      <trkpt lat="47.23158" lon="-1.54945">
        <ele>10</ele>
        <time>2019-04-02T07:47:52.000Z</time>
      </trkpt>
      <trkpt lat="47.23157" lon="-1.54947">
        <ele>10</ele>
        <time>2019-04-02T07:47:53.000Z</time>
      </trkpt>
      <trkpt lat="47.23156" lon="-1.54948">
        <ele>10</ele>
        <time>2019-04-02T07:47:54.000Z</time>
      </trkpt>
      <trkpt lat="47.23155" lon="-1.54949">
        <ele>10</ele>
        <time>2019-04-02T07:47:55.000Z</time>
      </trkpt>
      <trkpt lat="47.23154" lon="-1.54949">
        <ele>10</ele>
        <time>2019-04-02T07:47:56.000Z</time>
      </trkpt>
      <trkpt lat="47.23153" lon="-1.5495">
        <ele>10</ele>
        <time>2019-04-02T07:47:57.000Z</time>
      </trkpt>
      <trkpt lat="47.23151" lon="-1.54951">
        <ele>10</ele>
        <time>2019-04-02T07:47:58.000Z</time>
      </trkpt>
      <trkpt lat="47.2315" lon="-1.54952">
        <ele>10</ele>
        <time>2019-04-02T07:47:59.000Z</time>
      </trkpt>
      <trkpt lat="47.23149" lon="-1.54953">
        <ele>10</ele>
        <time>2019-04-02T07:48:00.000Z</time>
      </trkpt>
      <trkpt lat="47.23147" lon="-1.54955">
        <ele>10.199999809265</ele>
        <time>2019-04-02T07:48:01.000Z</time>
      </trkpt>
      <trkpt lat="47.23146" lon="-1.54957">
        <ele>10.199999809265</ele>
        <time>2019-04-02T07:48:02.000Z</time>
      </trkpt>
      <trkpt lat="47.23146" lon="-1.54957">
        <ele>10.199999809265</ele>
        <time>2019-04-02T07:48:03.000Z</time>
      </trkpt>
      <trkpt lat="47.23145" lon="-1.54958">
        <ele>10.199999809265</ele>
        <time>2019-04-02T07:48:04.000Z</time>
      </trkpt>
      <trkpt lat="47.23144" lon="-1.5496">
        <ele>10.199999809265</ele>
        <time>2019-04-02T07:48:05.000Z</time>
      </trkpt>
      <trkpt lat="47.23143" lon="-1.54961">
        <ele>10.199999809265</ele>
        <time>2019-04-02T07:48:06.000Z</time>
      </trkpt>
      <trkpt lat="47.23141" lon="-1.54961">
        <ele>10.199999809265</ele>
        <time>2019-04-02T07:48:07.000Z</time>
      </trkpt>
      <trkpt lat="47.2314" lon="-1.54961">
        <ele>10.199999809265</ele>
        <time>2019-04-02T07:48:08.000Z</time>
      </trkpt>
      <trkpt lat="47.23139" lon="-1.54962">
        <ele>10.199999809265</ele>
        <time>2019-04-02T07:48:09.000Z</time>
      </trkpt>
      <trkpt lat="47.23138" lon="-1.54963">
        <ele>10.199999809265</ele>
        <time>2019-04-02T07:48:10.000Z</time>
      </trkpt>
      <trkpt lat="47.23137" lon="-1.54964">
        <ele>10.199999809265</ele>
        <time>2019-04-02T07:48:11.000Z</time>
      </trkpt>
      <trkpt lat="47.23135" lon="-1.54966">
        <ele>10.199999809265</ele>
        <time>2019-04-02T07:48:12.000Z</time>
      </trkpt>
      <trkpt lat="47.23135" lon="-1.54966">
        <ele>10.199999809265</ele>
        <time>2019-04-02T07:48:13.000Z</time>
      </trkpt>
      <trkpt lat="47.23134" lon="-1.54966">
        <ele>10.199999809265</ele>
        <time>2019-04-02T07:48:14.000Z</time>
      </trkpt>
      <trkpt lat="47.23133" lon="-1.54967">
        <ele>10.199999809265</ele>
        <time>2019-04-02T07:48:15.000Z</time>
      </trkpt>
      <trkpt lat="47.23132" lon="-1.54968">
        <ele>10.199999809265</ele>
        <time>2019-04-02T07:48:16.000Z</time>
      </trkpt>
      <trkpt lat="47.23131" lon="-1.54968">
        <ele>10.199999809265</ele>
        <time>2019-04-02T07:48:17.000Z</time>
      </trkpt>
      <trkpt lat="47.2313" lon="-1.54969">
        <ele>10.199999809265</ele>
        <time>2019-04-02T07:48:18.000Z</time>
      </trkpt>
      <trkpt lat="47.23128" lon="-1.5497">
        <ele>10.199999809265</ele>
        <time>2019-04-02T07:48:19.000Z</time>
      </trkpt>
      <trkpt lat="47.23127" lon="-1.54971">
        <ele>10.199999809265</ele>
        <time>2019-04-02T07:48:20.000Z</time>
      </trkpt>
      <trkpt lat="47.23126" lon="-1.54972">
        <ele>10.199999809265</ele>
        <time>2019-04-02T07:48:21.000Z</time>
      </trkpt>
      <trkpt lat="47.23124" lon="-1.54974">
        <ele>10.199999809265</ele>
        <time>2019-04-02T07:48:22.000Z</time>
      </trkpt>
      <trkpt lat="47.23123" lon="-1.54976">
        <ele>10.39999961853</ele>
        <time>2019-04-02T07:48:23.000Z</time>
      </trkpt>
      <trkpt lat="47.23122" lon="-1.54977">
        <ele>10.39999961853</ele>
        <time>2019-04-02T07:48:24.000Z</time>
      </trkpt>
      <trkpt lat="47.23121" lon="-1.54978">
        <ele>10.39999961853</ele>
        <time>2019-04-02T07:48:25.000Z</time>
      </trkpt>
      <trkpt lat="47.2312" lon="-1.54979">
        <ele>10.39999961853</ele>
        <time>2019-04-02T07:48:26.000Z</time>
      </trkpt>
      <trkpt lat="47.23119" lon="-1.5498">
        <ele>10.39999961853</ele>
        <time>2019-04-02T07:48:27.000Z</time>
      </trkpt>
      <trkpt lat="47.23118" lon="-1.54981">
        <ele>10.39999961853</ele>
        <time>2019-04-02T07:48:28.000Z</time>
      </trkpt>
      <trkpt lat="47.23117" lon="-1.54983">
        <ele>10.39999961853</ele>
        <time>2019-04-02T07:48:29.000Z</time>
      </trkpt>
      <trkpt lat="47.23116" lon="-1.54984">
        <ele>10.39999961853</ele>
        <time>2019-04-02T07:48:30.000Z</time>
      </trkpt>
      <trkpt lat="47.23115" lon="-1.54985">
        <ele>10.39999961853</ele>
        <time>2019-04-02T07:48:31.000Z</time>
      </trkpt>
      <trkpt lat="47.23114" lon="-1.54986">
        <ele>10.39999961853</ele>
        <time>2019-04-02T07:48:32.000Z</time>
      </trkpt>
      <trkpt lat="47.23114" lon="-1.54988">
        <ele>10.39999961853</ele>
        <time>2019-04-02T07:48:33.000Z</time>
      </trkpt>
      <trkpt lat="47.23113" lon="-1.5499">
        <ele>10.39999961853</ele>
        <time>2019-04-02T07:48:34.000Z</time>
      </trkpt>
      <trkpt lat="47.23112" lon="-1.54991">
        <ele>10.39999961853</ele>
        <time>2019-04-02T07:48:35.000Z</time>
      </trkpt>
      <trkpt lat="47.23111" lon="-1.54994">
        <ele>10.60000038147</ele>
        <time>2019-04-02T07:48:36.000Z</time>
      </trkpt>
      <trkpt lat="47.23111" lon="-1.54994">
        <ele>10.60000038147</ele>
        <time>2019-04-02T07:48:37.000Z</time>
      </trkpt>
      <trkpt lat="47.2311" lon="-1.54996">
        <ele>10.60000038147</ele>
        <time>2019-04-02T07:48:38.000Z</time>
      </trkpt>
      <trkpt lat="47.23108" lon="-1.54998">
        <ele>10.60000038147</ele>
        <time>2019-04-02T07:48:39.000Z</time>
      </trkpt>
      <trkpt lat="47.23108" lon="-1.54998">
        <ele>10.60000038147</ele>
        <time>2019-04-02T07:48:40.000Z</time>
      </trkpt>
      <trkpt lat="47.23107" lon="-1.54999">
        <ele>10.60000038147</ele>
        <time>2019-04-02T07:48:41.000Z</time>
      </trkpt>
      <trkpt lat="47.23106" lon="-1.55001">
        <ele>10.60000038147</ele>
        <time>2019-04-02T07:48:42.000Z</time>
      </trkpt>
      <trkpt lat="47.23104" lon="-1.55002">
        <ele>10.60000038147</ele>
        <time>2019-04-02T07:48:43.000Z</time>
      </trkpt>
      <trkpt lat="47.23103" lon="-1.55003">
        <ele>10.60000038147</ele>
        <time>2019-04-02T07:48:44.000Z</time>
      </trkpt>
      <trkpt lat="47.23102" lon="-1.55004">
        <ele>10.60000038147</ele>
        <time>2019-04-02T07:48:45.000Z</time>
      </trkpt>
      <trkpt lat="47.23101" lon="-1.55005">
        <ele>10.60000038147</ele>
        <time>2019-04-02T07:48:46.000Z</time>
      </trkpt>
      <trkpt lat="47.231" lon="-1.55006">
        <ele>10.60000038147</ele>
        <time>2019-04-02T07:48:47.000Z</time>
      </trkpt>
      <trkpt lat="47.23099" lon="-1.55007">
        <ele>10.60000038147</ele>
        <time>2019-04-02T07:48:48.000Z</time>
      </trkpt>
      <trkpt lat="47.23098" lon="-1.55009">
        <ele>10.60000038147</ele>
        <time>2019-04-02T07:48:49.000Z</time>
      </trkpt>
      <trkpt lat="47.23097" lon="-1.5501">
        <ele>10.60000038147</ele>
        <time>2019-04-02T07:48:50.000Z</time>
      </trkpt>
      <trkpt lat="47.23096" lon="-1.55011">
        <ele>10.60000038147</ele>
        <time>2019-04-02T07:48:51.000Z</time>
      </trkpt>
      <trkpt lat="47.23095" lon="-1.55012">
        <ele>10.60000038147</ele>
        <time>2019-04-02T07:48:52.000Z</time>
      </trkpt>
      <trkpt lat="47.23094" lon="-1.55013">
        <ele>10.60000038147</ele>
        <time>2019-04-02T07:48:53.000Z</time>
      </trkpt>
      <trkpt lat="47.23093" lon="-1.55014">
        <ele>10.60000038147</ele>
        <time>2019-04-02T07:48:54.000Z</time>
      </trkpt>
      <trkpt lat="47.23091" lon="-1.55015">
        <ele>10.60000038147</ele>
        <time>2019-04-02T07:48:55.000Z</time>
      </trkpt>
      <trkpt lat="47.2309" lon="-1.55016">
        <ele>10.60000038147</ele>
        <time>2019-04-02T07:48:56.000Z</time>
      </trkpt>
      <trkpt lat="47.2309" lon="-1.55017">
        <ele>10.60000038147</ele>
        <time>2019-04-02T07:48:57.000Z</time>
      </trkpt>
      <trkpt lat="47.23089" lon="-1.55018">
        <ele>10.60000038147</ele>
        <time>2019-04-02T07:48:58.000Z</time>
      </trkpt>
      <trkpt lat="47.23086" lon="-1.5502">
        <ele>10.60000038147</ele>
        <time>2019-04-02T07:48:59.000Z</time>
      </trkpt>
      <trkpt lat="47.23086" lon="-1.5502">
        <ele>10.60000038147</ele>
        <time>2019-04-02T07:49:00.000Z</time>
      </trkpt>
      <trkpt lat="47.23085" lon="-1.55022">
        <ele>10.60000038147</ele>
        <time>2019-04-02T07:49:01.000Z</time>
      </trkpt>
      <trkpt lat="47.23084" lon="-1.55023">
        <ele>10.60000038147</ele>
        <time>2019-04-02T07:49:02.000Z</time>
      </trkpt>
      <trkpt lat="47.23083" lon="-1.55024">
        <ele>10.60000038147</ele>
        <time>2019-04-02T07:49:03.000Z</time>
      </trkpt>
      <trkpt lat="47.23082" lon="-1.55025">
        <ele>10.60000038147</ele>
        <time>2019-04-02T07:49:04.000Z</time>
      </trkpt>
      <trkpt lat="47.23081" lon="-1.55027">
        <ele>10.60000038147</ele>
        <time>2019-04-02T07:49:05.000Z</time>
      </trkpt>
      <trkpt lat="47.23081" lon="-1.55027">
        <ele>10.60000038147</ele>
        <time>2019-04-02T07:49:06.000Z</time>
      </trkpt>
      <trkpt lat="47.2308" lon="-1.55028">
        <ele>10.60000038147</ele>
        <time>2019-04-02T07:49:07.000Z</time>
      </trkpt>
      <trkpt lat="47.23079" lon="-1.55029">
        <ele>10.60000038147</ele>
        <time>2019-04-02T07:49:08.000Z</time>
      </trkpt>
      <trkpt lat="47.23077" lon="-1.55031">
        <ele>10.39999961853</ele>
        <time>2019-04-02T07:49:09.000Z</time>
      </trkpt>
      <trkpt lat="47.23076" lon="-1.55032">
        <ele>10.39999961853</ele>
        <time>2019-04-02T07:49:10.000Z</time>
      </trkpt>
      <trkpt lat="47.23075" lon="-1.55034">
        <ele>10.39999961853</ele>
        <time>2019-04-02T07:49:11.000Z</time>
      </trkpt>
      <trkpt lat="47.23074" lon="-1.55035">
        <ele>10.39999961853</ele>
        <time>2019-04-02T07:49:12.000Z</time>
      </trkpt>
      <trkpt lat="47.23073" lon="-1.55036">
        <ele>10.39999961853</ele>
        <time>2019-04-02T07:49:13.000Z</time>
      </trkpt>
      <trkpt lat="47.23072" lon="-1.55037">
        <ele>10.199999809265</ele>
        <time>2019-04-02T07:49:14.000Z</time>
      </trkpt>
      <trkpt lat="47.23071" lon="-1.55038">
        <ele>10.199999809265</ele>
        <time>2019-04-02T07:49:15.000Z</time>
      </trkpt>
      <trkpt lat="47.2307" lon="-1.55039">
        <ele>10.199999809265</ele>
        <time>2019-04-02T07:49:16.000Z</time>
      </trkpt>
      <trkpt lat="47.23068" lon="-1.55041">
        <ele>10.199999809265</ele>
        <time>2019-04-02T07:49:17.000Z</time>
      </trkpt>
      <trkpt lat="47.23067" lon="-1.55042">
        <ele>10.199999809265</ele>
        <time>2019-04-02T07:49:18.000Z</time>
      </trkpt>
      <trkpt lat="47.23066" lon="-1.55043">
        <ele>10</ele>
        <time>2019-04-02T07:49:19.000Z</time>
      </trkpt>
      <trkpt lat="47.23064" lon="-1.55044">
        <ele>10</ele>
        <time>2019-04-02T07:49:20.000Z</time>
      </trkpt>
      <trkpt lat="47.23063" lon="-1.55046">
        <ele>10</ele>
        <time>2019-04-02T07:49:21.000Z</time>
      </trkpt>
      <trkpt lat="47.23061" lon="-1.55047">
        <ele>10</ele>
        <time>2019-04-02T07:49:22.000Z</time>
      </trkpt>
      <trkpt lat="47.2306" lon="-1.55048">
        <ele>9.8000001907349</ele>
        <time>2019-04-02T07:49:23.000Z</time>
      </trkpt>
      <trkpt lat="47.23059" lon="-1.5505">
        <ele>9.8000001907349</ele>
        <time>2019-04-02T07:49:24.000Z</time>
      </trkpt>
      <trkpt lat="47.23058" lon="-1.55051">
        <ele>9.8000001907349</ele>
        <time>2019-04-02T07:49:25.000Z</time>
      </trkpt>
      <trkpt lat="47.23057" lon="-1.55052">
        <ele>9.8000001907349</ele>
        <time>2019-04-02T07:49:26.000Z</time>
      </trkpt>
      <trkpt lat="47.23056" lon="-1.55053">
        <ele>9.8000001907349</ele>
        <time>2019-04-02T07:49:27.000Z</time>
      </trkpt>
      <trkpt lat="47.23055" lon="-1.55054">
        <ele>9.6000003814697</ele>
        <time>2019-04-02T07:49:28.000Z</time>
      </trkpt>
      <trkpt lat="47.23054" lon="-1.55055">
        <ele>9.6000003814697</ele>
        <time>2019-04-02T07:49:29.000Z</time>
      </trkpt>
      <trkpt lat="47.23053" lon="-1.55056">
        <ele>9.6000003814697</ele>
        <time>2019-04-02T07:49:30.000Z</time>
      </trkpt>
      <trkpt lat="47.23052" lon="-1.55057">
        <ele>9.6000003814697</ele>
        <time>2019-04-02T07:49:31.000Z</time>
      </trkpt>
      <trkpt lat="47.23051" lon="-1.55058">
        <ele>9.6000003814697</ele>
        <time>2019-04-02T07:49:32.000Z</time>
      </trkpt>
      <trkpt lat="47.2305" lon="-1.5506">
        <ele>9.6000003814697</ele>
        <time>2019-04-02T07:49:33.000Z</time>
      </trkpt>
      <trkpt lat="47.23048" lon="-1.55061">
        <ele>9.3999996185303</ele>
        <time>2019-04-02T07:49:34.000Z</time>
      </trkpt>
      <trkpt lat="47.23047" lon="-1.55063">
        <ele>9.3999996185303</ele>
        <time>2019-04-02T07:49:35.000Z</time>
      </trkpt>
      <trkpt lat="47.23046" lon="-1.55064">
        <ele>9.3999996185303</ele>
        <time>2019-04-02T07:49:36.000Z</time>
      </trkpt>
      <trkpt lat="47.23045" lon="-1.55065">
        <ele>9.3999996185303</ele>
        <time>2019-04-02T07:49:37.000Z</time>
      </trkpt>
      <trkpt lat="47.23044" lon="-1.55066">
        <ele>9.3999996185303</ele>
        <time>2019-04-02T07:49:38.000Z</time>
      </trkpt>
      <trkpt lat="47.23042" lon="-1.55069">
        <ele>9.1999998092651</ele>
        <time>2019-04-02T07:49:39.000Z</time>
      </trkpt>
      <trkpt lat="47.23042" lon="-1.55069">
        <ele>9.1999998092651</ele>
        <time>2019-04-02T07:49:40.000Z</time>
      </trkpt>
      <trkpt lat="47.23041" lon="-1.5507">
        <ele>9.1999998092651</ele>
        <time>2019-04-02T07:49:41.000Z</time>
      </trkpt>
      <trkpt lat="47.2304" lon="-1.55071">
        <ele>9.1999998092651</ele>
        <time>2019-04-02T07:49:42.000Z</time>
      </trkpt>
      <trkpt lat="47.23038" lon="-1.55073">
        <ele>9.1999998092651</ele>
        <time>2019-04-02T07:49:43.000Z</time>
      </trkpt>
      <trkpt lat="47.23037" lon="-1.55075">
        <ele>9.1999998092651</ele>
        <time>2019-04-02T07:49:44.000Z</time>
      </trkpt>
      <trkpt lat="47.23036" lon="-1.55076">
        <ele>9.1999998092651</ele>
        <time>2019-04-02T07:49:45.000Z</time>
      </trkpt>
      <trkpt lat="47.23035" lon="-1.55077">
        <ele>9.1999998092651</ele>
        <time>2019-04-02T07:49:46.000Z</time>
      </trkpt>
      <trkpt lat="47.23034" lon="-1.55079">
        <ele>9.1999998092651</ele>
        <time>2019-04-02T07:49:47.000Z</time>
      </trkpt>
      <trkpt lat="47.23034" lon="-1.5508">
        <ele>9.1999998092651</ele>
        <time>2019-04-02T07:49:48.000Z</time>
      </trkpt>
      <trkpt lat="47.23033" lon="-1.55082">
        <ele>9.3999996185303</ele>
        <time>2019-04-02T07:49:49.000Z</time>
      </trkpt>
      <trkpt lat="47.23032" lon="-1.55084">
        <ele>9.3999996185303</ele>
        <time>2019-04-02T07:49:50.000Z</time>
      </trkpt>
      <trkpt lat="47.23029" lon="-1.55086">
        <ele>9.3999996185303</ele>
        <time>2019-04-02T07:49:51.000Z</time>
      </trkpt>
      <trkpt lat="47.23029" lon="-1.55086">
        <ele>9.3999996185303</ele>
        <time>2019-04-02T07:49:52.000Z</time>
      </trkpt>
      <trkpt lat="47.23028" lon="-1.55088">
        <ele>9.1999998092651</ele>
        <time>2019-04-02T07:49:53.000Z</time>
      </trkpt>
      <trkpt lat="47.23027" lon="-1.55089">
        <ele>9.1999998092651</ele>
        <time>2019-04-02T07:49:54.000Z</time>
      </trkpt>
      <trkpt lat="47.23026" lon="-1.5509">
        <ele>9.1999998092651</ele>
        <time>2019-04-02T07:49:55.000Z</time>
      </trkpt>
      <trkpt lat="47.23024" lon="-1.55092">
        <ele>9.1999998092651</ele>
        <time>2019-04-02T07:49:56.000Z</time>
      </trkpt>
      <trkpt lat="47.23023" lon="-1.55093">
        <ele>9.1999998092651</ele>
        <time>2019-04-02T07:49:57.000Z</time>
      </trkpt>
      <trkpt lat="47.23022" lon="-1.55094">
        <ele>9.1999998092651</ele>
        <time>2019-04-02T07:49:58.000Z</time>
      </trkpt>
      <trkpt lat="47.23022" lon="-1.55095">
        <ele>9.1999998092651</ele>
        <time>2019-04-02T07:49:59.000Z</time>
      </trkpt>
      <trkpt lat="47.23021" lon="-1.55097">
        <ele>9.1999998092651</ele>
        <time>2019-04-02T07:50:00.000Z</time>
      </trkpt>
      <trkpt lat="47.2302" lon="-1.55098">
        <ele>9.1999998092651</ele>
        <time>2019-04-02T07:50:01.000Z</time>
      </trkpt>
      <trkpt lat="47.23019" lon="-1.55099">
        <ele>9.1999998092651</ele>
        <time>2019-04-02T07:50:02.000Z</time>
      </trkpt>
      <trkpt lat="47.23017" lon="-1.55102">
        <ele>9.1999998092651</ele>
        <time>2019-04-02T07:50:03.000Z</time>
      </trkpt>
      <trkpt lat="47.23017" lon="-1.55102">
        <ele>9.1999998092651</ele>
        <time>2019-04-02T07:50:04.000Z</time>
      </trkpt>
      <trkpt lat="47.23015" lon="-1.55103">
        <ele>9.1999998092651</ele>
        <time>2019-04-02T07:50:05.000Z</time>
      </trkpt>
      <trkpt lat="47.23014" lon="-1.55104">
        <ele>9.1999998092651</ele>
        <time>2019-04-02T07:50:06.000Z</time>
      </trkpt>
      <trkpt lat="47.23012" lon="-1.55106">
        <ele>9.1999998092651</ele>
        <time>2019-04-02T07:50:07.000Z</time>
      </trkpt>
      <trkpt lat="47.23011" lon="-1.55107">
        <ele>9.1999998092651</ele>
        <time>2019-04-02T07:50:08.000Z</time>
      </trkpt>
      <trkpt lat="47.2301" lon="-1.55108">
        <ele>9.1999998092651</ele>
        <time>2019-04-02T07:50:09.000Z</time>
      </trkpt>
      <trkpt lat="47.23009" lon="-1.55109">
        <ele>9.1999998092651</ele>
        <time>2019-04-02T07:50:10.000Z</time>
      </trkpt>
      <trkpt lat="47.23009" lon="-1.5511">
        <ele>9.1999998092651</ele>
        <time>2019-04-02T07:50:11.000Z</time>
      </trkpt>
      <trkpt lat="47.23008" lon="-1.55111">
        <ele>9.1999998092651</ele>
        <time>2019-04-02T07:50:12.000Z</time>
      </trkpt>
      <trkpt lat="47.23007" lon="-1.55113">
        <ele>9.1999998092651</ele>
        <time>2019-04-02T07:50:13.000Z</time>
      </trkpt>
      <trkpt lat="47.23005" lon="-1.55114">
        <ele>9.1999998092651</ele>
        <time>2019-04-02T07:50:14.000Z</time>
      </trkpt>
      <trkpt lat="47.23004" lon="-1.55116">
        <ele>9.1999998092651</ele>
        <time>2019-04-02T07:50:15.000Z</time>
      </trkpt>
      <trkpt lat="47.23003" lon="-1.55117">
        <ele>9.1999998092651</ele>
        <time>2019-04-02T07:50:16.000Z</time>
      </trkpt>
      <trkpt lat="47.23002" lon="-1.55119">
        <ele>9.1999998092651</ele>
        <time>2019-04-02T07:50:17.000Z</time>
      </trkpt>
      <trkpt lat="47.23" lon="-1.55123">
        <ele>9.1999998092651</ele>
        <time>2019-04-02T07:50:18.000Z</time>
      </trkpt>
      <trkpt lat="47.23" lon="-1.55123">
        <ele>9.1999998092651</ele>
        <time>2019-04-02T07:50:19.000Z</time>
      </trkpt>
      <trkpt lat="47.22999" lon="-1.55125">
        <ele>9.1999998092651</ele>
        <time>2019-04-02T07:50:20.000Z</time>
      </trkpt>
      <trkpt lat="47.22998" lon="-1.55126">
        <ele>9.1999998092651</ele>
        <time>2019-04-02T07:50:21.000Z</time>
      </trkpt>
      <trkpt lat="47.22997" lon="-1.55127">
        <ele>9.1999998092651</ele>
        <time>2019-04-02T07:50:22.000Z</time>
      </trkpt>
      <trkpt lat="47.22996" lon="-1.55128">
        <ele>9.1999998092651</ele>
        <time>2019-04-02T07:50:23.000Z</time>
      </trkpt>
      <trkpt lat="47.22994" lon="-1.55129">
        <ele>9.1999998092651</ele>
        <time>2019-04-02T07:50:24.000Z</time>
      </trkpt>
      <trkpt lat="47.22993" lon="-1.55131">
        <ele>9.1999998092651</ele>
        <time>2019-04-02T07:50:25.000Z</time>
      </trkpt>
      <trkpt lat="47.22992" lon="-1.55132">
        <ele>9.1999998092651</ele>
        <time>2019-04-02T07:50:26.000Z</time>
      </trkpt>
      <trkpt lat="47.22991" lon="-1.55134">
        <ele>9.3999996185303</ele>
        <time>2019-04-02T07:50:27.000Z</time>
      </trkpt>
      <trkpt lat="47.2299" lon="-1.55136">
        <ele>9.3999996185303</ele>
        <time>2019-04-02T07:50:28.000Z</time>
      </trkpt>
      <trkpt lat="47.22989" lon="-1.55138">
        <ele>9.3999996185303</ele>
        <time>2019-04-02T07:50:29.000Z</time>
      </trkpt>
      <trkpt lat="47.22988" lon="-1.5514">
        <ele>9.6000003814697</ele>
        <time>2019-04-02T07:50:30.000Z</time>
      </trkpt>
      <trkpt lat="47.22987" lon="-1.55142">
        <ele>9.6000003814697</ele>
        <time>2019-04-02T07:50:31.000Z</time>
      </trkpt>
      <trkpt lat="47.22986" lon="-1.55144">
        <ele>9.6000003814697</ele>
        <time>2019-04-02T07:50:32.000Z</time>
      </trkpt>
      <trkpt lat="47.22985" lon="-1.55145">
        <ele>9.6000003814697</ele>
        <time>2019-04-02T07:50:33.000Z</time>
      </trkpt>
      <trkpt lat="47.22984" lon="-1.55146">
        <ele>9.8000001907349</ele>
        <time>2019-04-02T07:50:34.000Z</time>
      </trkpt>
      <trkpt lat="47.22982" lon="-1.55149">
        <ele>9.8000001907349</ele>
        <time>2019-04-02T07:50:35.000Z</time>
      </trkpt>
      <trkpt lat="47.22982" lon="-1.55149">
        <ele>9.8000001907349</ele>
        <time>2019-04-02T07:50:36.000Z</time>
      </trkpt>
      <trkpt lat="47.22981" lon="-1.55151">
        <ele>9.8000001907349</ele>
        <time>2019-04-02T07:50:37.000Z</time>
      </trkpt>
      <trkpt lat="47.22979" lon="-1.55152">
        <ele>9.8000001907349</ele>
        <time>2019-04-02T07:50:38.000Z</time>
      </trkpt>
      <trkpt lat="47.22978" lon="-1.55154">
        <ele>9.8000001907349</ele>
        <time>2019-04-02T07:50:39.000Z</time>
      </trkpt>
      <trkpt lat="47.22977" lon="-1.55155">
        <ele>9.8000001907349</ele>
        <time>2019-04-02T07:50:40.000Z</time>
      </trkpt>
      <trkpt lat="47.22975" lon="-1.55156">
        <ele>9.8000001907349</ele>
        <time>2019-04-02T07:50:41.000Z</time>
      </trkpt>
      <trkpt lat="47.22974" lon="-1.55158">
        <ele>10</ele>
        <time>2019-04-02T07:50:42.000Z</time>
      </trkpt>
      <trkpt lat="47.22973" lon="-1.55159">
        <ele>10</ele>
        <time>2019-04-02T07:50:43.000Z</time>
      </trkpt>
      <trkpt lat="47.22971" lon="-1.5516">
        <ele>10</ele>
        <time>2019-04-02T07:50:44.000Z</time>
      </trkpt>
      <trkpt lat="47.22971" lon="-1.55161">
        <ele>10</ele>
        <time>2019-04-02T07:50:45.000Z</time>
      </trkpt>
      <trkpt lat="47.2297" lon="-1.55163">
        <ele>10</ele>
        <time>2019-04-02T07:50:46.000Z</time>
      </trkpt>
      <trkpt lat="47.22969" lon="-1.55164">
        <ele>10</ele>
        <time>2019-04-02T07:50:47.000Z</time>
      </trkpt>
      <trkpt lat="47.22968" lon="-1.55165">
        <ele>10</ele>
        <time>2019-04-02T07:50:48.000Z</time>
      </trkpt>
      <trkpt lat="47.22967" lon="-1.55166">
        <ele>10</ele>
        <time>2019-04-02T07:50:49.000Z</time>
      </trkpt>
      <trkpt lat="47.22966" lon="-1.55167">
        <ele>10</ele>
        <time>2019-04-02T07:50:50.000Z</time>
      </trkpt>
      <trkpt lat="47.22964" lon="-1.55168">
        <ele>10</ele>
        <time>2019-04-02T07:50:51.000Z</time>
      </trkpt>
      <trkpt lat="47.22963" lon="-1.55169">
        <ele>10</ele>
        <time>2019-04-02T07:50:52.000Z</time>
      </trkpt>
      <trkpt lat="47.22962" lon="-1.5517">
        <ele>10</ele>
        <time>2019-04-02T07:50:53.000Z</time>
      </trkpt>
      <trkpt lat="47.2296" lon="-1.55171">
        <ele>10</ele>
        <time>2019-04-02T07:50:54.000Z</time>
      </trkpt>
      <trkpt lat="47.22959" lon="-1.55172">
        <ele>10</ele>
        <time>2019-04-02T07:50:55.000Z</time>
      </trkpt>
      <trkpt lat="47.22958" lon="-1.55174">
        <ele>10</ele>
        <time>2019-04-02T07:50:56.000Z</time>
      </trkpt>
      <trkpt lat="47.22955" lon="-1.55176">
        <ele>10.199999809265</ele>
        <time>2019-04-02T07:50:57.000Z</time>
      </trkpt>
      <trkpt lat="47.22955" lon="-1.55176">
        <ele>10.199999809265</ele>
        <time>2019-04-02T07:50:58.000Z</time>
      </trkpt>
      <trkpt lat="47.22953" lon="-1.55177">
        <ele>10.199999809265</ele>
        <time>2019-04-02T07:50:59.000Z</time>
      </trkpt>
      <trkpt lat="47.22952" lon="-1.55179">
        <ele>10.199999809265</ele>
        <time>2019-04-02T07:51:00.000Z</time>
      </trkpt>
      <trkpt lat="47.22951" lon="-1.5518">
        <ele>10.199999809265</ele>
        <time>2019-04-02T07:51:01.000Z</time>
      </trkpt>
      <trkpt lat="47.2295" lon="-1.55181">
        <ele>10.199999809265</ele>
        <time>2019-04-02T07:51:02.000Z</time>
      </trkpt>
      <trkpt lat="47.22949" lon="-1.55182">
        <ele>10.199999809265</ele>
        <time>2019-04-02T07:51:03.000Z</time>
      </trkpt>
      <trkpt lat="47.22948" lon="-1.55183">
        <ele>10.199999809265</ele>
        <time>2019-04-02T07:51:04.000Z</time>
      </trkpt>
      <trkpt lat="47.22947" lon="-1.55184">
        <ele>10.199999809265</ele>
        <time>2019-04-02T07:51:05.000Z</time>
      </trkpt>
      <trkpt lat="47.22946" lon="-1.55185">
        <ele>10.199999809265</ele>
        <time>2019-04-02T07:51:06.000Z</time>
      </trkpt>
      <trkpt lat="47.22945" lon="-1.55187">
        <ele>10.199999809265</ele>
        <time>2019-04-02T07:51:07.000Z</time>
      </trkpt>
      <trkpt lat="47.22943" lon="-1.55188">
        <ele>10.199999809265</ele>
        <time>2019-04-02T07:51:08.000Z</time>
      </trkpt>
      <trkpt lat="47.22942" lon="-1.55189">
        <ele>10.199999809265</ele>
        <time>2019-04-02T07:51:09.000Z</time>
      </trkpt>
      <trkpt lat="47.22941" lon="-1.55191">
        <ele>10.39999961853</ele>
        <time>2019-04-02T07:51:10.000Z</time>
      </trkpt>
      <trkpt lat="47.22939" lon="-1.55193">
        <ele>10.39999961853</ele>
        <time>2019-04-02T07:51:11.000Z</time>
      </trkpt>
      <trkpt lat="47.22938" lon="-1.55195">
        <ele>10.39999961853</ele>
        <time>2019-04-02T07:51:12.000Z</time>
      </trkpt>
      <trkpt lat="47.22937" lon="-1.55197">
        <ele>10.39999961853</ele>
        <time>2019-04-02T07:51:13.000Z</time>
      </trkpt>
      <trkpt lat="47.22935" lon="-1.55198">
        <ele>10.39999961853</ele>
        <time>2019-04-02T07:51:14.000Z</time>
      </trkpt>
      <trkpt lat="47.22934" lon="-1.55199">
        <ele>10.39999961853</ele>
        <time>2019-04-02T07:51:15.000Z</time>
      </trkpt>
      <trkpt lat="47.22933" lon="-1.55201">
        <ele>10.39999961853</ele>
        <time>2019-04-02T07:51:16.000Z</time>
      </trkpt>
      <trkpt lat="47.22932" lon="-1.55202">
        <ele>10.39999961853</ele>
        <time>2019-04-02T07:51:17.000Z</time>
      </trkpt>
      <trkpt lat="47.22931" lon="-1.55203">
        <ele>10.39999961853</ele>
        <time>2019-04-02T07:51:18.000Z</time>
      </trkpt>
      <trkpt lat="47.2293" lon="-1.55204">
        <ele>10.39999961853</ele>
        <time>2019-04-02T07:51:19.000Z</time>
      </trkpt>
      <trkpt lat="47.22929" lon="-1.55206">
        <ele>10.60000038147</ele>
        <time>2019-04-02T07:51:20.000Z</time>
      </trkpt>
      <trkpt lat="47.22928" lon="-1.55207">
        <ele>10.60000038147</ele>
        <time>2019-04-02T07:51:21.000Z</time>
      </trkpt>
      <trkpt lat="47.22927" lon="-1.55208">
        <ele>10.60000038147</ele>
        <time>2019-04-02T07:51:22.000Z</time>
      </trkpt>
      <trkpt lat="47.22926" lon="-1.5521">
        <ele>10.60000038147</ele>
        <time>2019-04-02T07:51:23.000Z</time>
      </trkpt>
      <trkpt lat="47.22924" lon="-1.55211">
        <ele>10.60000038147</ele>
        <time>2019-04-02T07:51:24.000Z</time>
      </trkpt>
      <trkpt lat="47.22923" lon="-1.55213">
        <ele>10.60000038147</ele>
        <time>2019-04-02T07:51:25.000Z</time>
      </trkpt>
      <trkpt lat="47.22922" lon="-1.55215">
        <ele>10.60000038147</ele>
        <time>2019-04-02T07:51:26.000Z</time>
      </trkpt>
      <trkpt lat="47.2292" lon="-1.55216">
        <ele>10.60000038147</ele>
        <time>2019-04-02T07:51:27.000Z</time>
      </trkpt>
      <trkpt lat="47.22919" lon="-1.55218">
        <ele>10.60000038147</ele>
        <time>2019-04-02T07:51:28.000Z</time>
      </trkpt>
      <trkpt lat="47.22918" lon="-1.55219">
        <ele>10.60000038147</ele>
        <time>2019-04-02T07:51:29.000Z</time>
      </trkpt>
      <trkpt lat="47.22916" lon="-1.5522">
        <ele>10.800000190735</ele>
        <time>2019-04-02T07:51:30.000Z</time>
      </trkpt>
      <trkpt lat="47.22915" lon="-1.55221">
        <ele>10.800000190735</ele>
        <time>2019-04-02T07:51:31.000Z</time>
      </trkpt>
      <trkpt lat="47.22915" lon="-1.55222">
        <ele>10.800000190735</ele>
        <time>2019-04-02T07:51:32.000Z</time>
      </trkpt>
      <trkpt lat="47.22914" lon="-1.55223">
        <ele>10.800000190735</ele>
        <time>2019-04-02T07:51:33.000Z</time>
      </trkpt>
      <trkpt lat="47.22913" lon="-1.55225">
        <ele>10.800000190735</ele>
        <time>2019-04-02T07:51:34.000Z</time>
      </trkpt>
      <trkpt lat="47.22912" lon="-1.55226">
        <ele>10.800000190735</ele>
        <time>2019-04-02T07:51:35.000Z</time>
      </trkpt>
      <trkpt lat="47.22909" lon="-1.55229">
        <ele>10.60000038147</ele>
        <time>2019-04-02T07:51:36.000Z</time>
      </trkpt>
      <trkpt lat="47.22908" lon="-1.5523">
        <ele>10.60000038147</ele>
        <time>2019-04-02T07:51:37.000Z</time>
      </trkpt>
      <trkpt lat="47.22908" lon="-1.5523">
        <ele>10.60000038147</ele>
        <time>2019-04-02T07:51:38.000Z</time>
      </trkpt>
      <trkpt lat="47.22907" lon="-1.55232">
        <ele>10.60000038147</ele>
        <time>2019-04-02T07:51:39.000Z</time>
      </trkpt>
      <trkpt lat="47.22905" lon="-1.55234">
        <ele>10.60000038147</ele>
        <time>2019-04-02T07:51:40.000Z</time>
      </trkpt>
      <trkpt lat="47.22904" lon="-1.55235">
        <ele>10.60000038147</ele>
        <time>2019-04-02T07:51:41.000Z</time>
      </trkpt>
      <trkpt lat="47.22903" lon="-1.55237">
        <ele>10.60000038147</ele>
        <time>2019-04-02T07:51:42.000Z</time>
      </trkpt>
      <trkpt lat="47.22902" lon="-1.55239">
        <ele>10.60000038147</ele>
        <time>2019-04-02T07:51:43.000Z</time>
      </trkpt>
      <trkpt lat="47.22901" lon="-1.5524">
        <ele>10.60000038147</ele>
        <time>2019-04-02T07:51:44.000Z</time>
      </trkpt>
      <trkpt lat="47.229" lon="-1.55242">
        <ele>10.60000038147</ele>
        <time>2019-04-02T07:51:45.000Z</time>
      </trkpt>
      <trkpt lat="47.22899" lon="-1.55243">
        <ele>10.60000038147</ele>
        <time>2019-04-02T07:51:46.000Z</time>
      </trkpt>
      <trkpt lat="47.22898" lon="-1.55245">
        <ele>10.60000038147</ele>
        <time>2019-04-02T07:51:47.000Z</time>
      </trkpt>
      <trkpt lat="47.22896" lon="-1.55246">
        <ele>10.39999961853</ele>
        <time>2019-04-02T07:51:48.000Z</time>
      </trkpt>
      <trkpt lat="47.22895" lon="-1.55248">
        <ele>10.39999961853</ele>
        <time>2019-04-02T07:51:49.000Z</time>
      </trkpt>
      <trkpt lat="47.22894" lon="-1.55249">
        <ele>10.39999961853</ele>
        <time>2019-04-02T07:51:50.000Z</time>
      </trkpt>
      <trkpt lat="47.22893" lon="-1.5525">
        <ele>10.39999961853</ele>
        <time>2019-04-02T07:51:51.000Z</time>
      </trkpt>
      <trkpt lat="47.22891" lon="-1.55251">
        <ele>10.39999961853</ele>
        <time>2019-04-02T07:51:52.000Z</time>
      </trkpt>
      <trkpt lat="47.2289" lon="-1.55252">
        <ele>10.39999961853</ele>
        <time>2019-04-02T07:51:53.000Z</time>
      </trkpt>
      <trkpt lat="47.22889" lon="-1.55253">
        <ele>10.199999809265</ele>
        <time>2019-04-02T07:51:54.000Z</time>
      </trkpt>
      <trkpt lat="47.22887" lon="-1.55255">
        <ele>10.199999809265</ele>
        <time>2019-04-02T07:51:55.000Z</time>
      </trkpt>
      <trkpt lat="47.22885" lon="-1.55258">
        <ele>10.199999809265</ele>
        <time>2019-04-02T07:51:56.000Z</time>
      </trkpt>
      <trkpt lat="47.22885" lon="-1.55258">
        <ele>10.199999809265</ele>
        <time>2019-04-02T07:51:57.000Z</time>
      </trkpt>
      <trkpt lat="47.22884" lon="-1.55259">
        <ele>10.199999809265</ele>
        <time>2019-04-02T07:51:58.000Z</time>
      </trkpt>
      <trkpt lat="47.22883" lon="-1.55261">
        <ele>10.199999809265</ele>
        <time>2019-04-02T07:51:59.000Z</time>
      </trkpt>
      <trkpt lat="47.22882" lon="-1.55262">
        <ele>10.199999809265</ele>
        <time>2019-04-02T07:52:00.000Z</time>
      </trkpt>
      <trkpt lat="47.2288" lon="-1.55264">
        <ele>10.199999809265</ele>
        <time>2019-04-02T07:52:01.000Z</time>
      </trkpt>
      <trkpt lat="47.2288" lon="-1.55264">
        <ele>10.199999809265</ele>
        <time>2019-04-02T07:52:02.000Z</time>
      </trkpt>
      <trkpt lat="47.22879" lon="-1.55265">
        <ele>10.199999809265</ele>
        <time>2019-04-02T07:52:03.000Z</time>
      </trkpt>
      <trkpt lat="47.22878" lon="-1.55267">
        <ele>10.199999809265</ele>
        <time>2019-04-02T07:52:04.000Z</time>
      </trkpt>
      <trkpt lat="47.22877" lon="-1.55268">
        <ele>10.199999809265</ele>
        <time>2019-04-02T07:52:05.000Z</time>
      </trkpt>
      <trkpt lat="47.22876" lon="-1.55269">
        <ele>10</ele>
        <time>2019-04-02T07:52:06.000Z</time>
      </trkpt>
      <trkpt lat="47.22874" lon="-1.5527">
        <ele>10</ele>
        <time>2019-04-02T07:52:07.000Z</time>
      </trkpt>
      <trkpt lat="47.22873" lon="-1.55271">
        <ele>10</ele>
        <time>2019-04-02T07:52:08.000Z</time>
      </trkpt>
      <trkpt lat="47.22871" lon="-1.55272">
        <ele>10</ele>
        <time>2019-04-02T07:52:09.000Z</time>
      </trkpt>
      <trkpt lat="47.2287" lon="-1.55274">
        <ele>10</ele>
        <time>2019-04-02T07:52:10.000Z</time>
      </trkpt>
      <trkpt lat="47.22869" lon="-1.55276">
        <ele>9.8000001907349</ele>
        <time>2019-04-02T07:52:11.000Z</time>
      </trkpt>
      <trkpt lat="47.22867" lon="-1.55277">
        <ele>9.8000001907349</ele>
        <time>2019-04-02T07:52:12.000Z</time>
      </trkpt>
      <trkpt lat="47.22866" lon="-1.55278">
        <ele>9.8000001907349</ele>
        <time>2019-04-02T07:52:13.000Z</time>
      </trkpt>
      <trkpt lat="47.22865" lon="-1.5528">
        <ele>9.8000001907349</ele>
        <time>2019-04-02T07:52:14.000Z</time>
      </trkpt>
      <trkpt lat="47.22864" lon="-1.55281">
        <ele>9.8000001907349</ele>
        <time>2019-04-02T07:52:15.000Z</time>
      </trkpt>
      <trkpt lat="47.22862" lon="-1.55284">
        <ele>9.8000001907349</ele>
        <time>2019-04-02T07:52:16.000Z</time>
      </trkpt>
      <trkpt lat="47.22862" lon="-1.55284">
        <ele>9.8000001907349</ele>
        <time>2019-04-02T07:52:17.000Z</time>
      </trkpt>
      <trkpt lat="47.22862" lon="-1.55285">
        <ele>9.8000001907349</ele>
        <time>2019-04-02T07:52:18.000Z</time>
      </trkpt>
      <trkpt lat="47.22861" lon="-1.55286">
        <ele>9.8000001907349</ele>
        <time>2019-04-02T07:52:19.000Z</time>
      </trkpt>
      <trkpt lat="47.2286" lon="-1.55287">
        <ele>9.8000001907349</ele>
        <time>2019-04-02T07:52:20.000Z</time>
      </trkpt>
      <trkpt lat="47.22858" lon="-1.55288">
        <ele>9.8000001907349</ele>
        <time>2019-04-02T07:52:21.000Z</time>
      </trkpt>
      <trkpt lat="47.22857" lon="-1.5529">
        <ele>9.8000001907349</ele>
        <time>2019-04-02T07:52:22.000Z</time>
      </trkpt>
      <trkpt lat="47.22856" lon="-1.55291">
        <ele>9.6000003814697</ele>
        <time>2019-04-02T07:52:23.000Z</time>
      </trkpt>
      <trkpt lat="47.22855" lon="-1.55291">
        <ele>9.6000003814697</ele>
        <time>2019-04-02T07:52:24.000Z</time>
      </trkpt>
      <trkpt lat="47.22854" lon="-1.55292">
        <ele>9.6000003814697</ele>
        <time>2019-04-02T07:52:25.000Z</time>
      </trkpt>
      <trkpt lat="47.22853" lon="-1.55293">
        <ele>9.6000003814697</ele>
        <time>2019-04-02T07:52:26.000Z</time>
      </trkpt>
      <trkpt lat="47.22852" lon="-1.55294">
        <ele>9.6000003814697</ele>
        <time>2019-04-02T07:52:27.000Z</time>
      </trkpt>
      <trkpt lat="47.22851" lon="-1.55295">
        <ele>9.6000003814697</ele>
        <time>2019-04-02T07:52:28.000Z</time>
      </trkpt>
      <trkpt lat="47.2285" lon="-1.55297">
        <ele>9.6000003814697</ele>
        <time>2019-04-02T07:52:29.000Z</time>
      </trkpt>
      <trkpt lat="47.22849" lon="-1.55298">
        <ele>9.3999996185303</ele>
        <time>2019-04-02T07:52:30.000Z</time>
      </trkpt>
      <trkpt lat="47.22847" lon="-1.55299">
        <ele>9.3999996185303</ele>
        <time>2019-04-02T07:52:31.000Z</time>
      </trkpt>
      <trkpt lat="47.22846" lon="-1.55301">
        <ele>9.3999996185303</ele>
        <time>2019-04-02T07:52:32.000Z</time>
      </trkpt>
      <trkpt lat="47.22845" lon="-1.55302">
        <ele>9.3999996185303</ele>
        <time>2019-04-02T07:52:33.000Z</time>
      </trkpt>
      <trkpt lat="47.22845" lon="-1.55304">
        <ele>9.3999996185303</ele>
        <time>2019-04-02T07:52:34.000Z</time>
      </trkpt>
      <trkpt lat="47.22843" lon="-1.55304">
        <ele>9.3999996185303</ele>
        <time>2019-04-02T07:52:35.000Z</time>
      </trkpt>
      <trkpt lat="47.2284" lon="-1.55301">
        <ele>9</ele>
        <time>2019-04-02T07:52:36.000Z</time>
      </trkpt>
      <trkpt lat="47.22838" lon="-1.55301">
        <ele>9</ele>
        <time>2019-04-02T07:52:37.000Z</time>
      </trkpt>
      <trkpt lat="47.22838" lon="-1.55302">
        <ele>9</ele>
        <time>2019-04-02T07:52:38.000Z</time>
      </trkpt>
      <trkpt lat="47.22836" lon="-1.55304">
        <ele>9</ele>
        <time>2019-04-02T07:52:39.000Z</time>
      </trkpt>
      <trkpt lat="47.22835" lon="-1.55306">
        <ele>9</ele>
        <time>2019-04-02T07:52:40.000Z</time>
      </trkpt>
      <trkpt lat="47.22835" lon="-1.55309">
        <ele>9</ele>
        <time>2019-04-02T07:52:41.000Z</time>
      </trkpt>
      <trkpt lat="47.22834" lon="-1.55312">
        <ele>9</ele>
        <time>2019-04-02T07:52:42.000Z</time>
      </trkpt>
      <trkpt lat="47.22832" lon="-1.55315">
        <ele>9.1999998092651</ele>
        <time>2019-04-02T07:52:43.000Z</time>
      </trkpt>
      <trkpt lat="47.22831" lon="-1.55317">
        <ele>9.1999998092651</ele>
        <time>2019-04-02T07:52:44.000Z</time>
      </trkpt>
      <trkpt lat="47.2283" lon="-1.55319">
        <ele>9</ele>
        <time>2019-04-02T07:52:45.000Z</time>
      </trkpt>
      <trkpt lat="47.2283" lon="-1.5532">
        <ele>9</ele>
        <time>2019-04-02T07:52:46.000Z</time>
      </trkpt>
      <trkpt lat="47.22829" lon="-1.55322">
        <ele>9</ele>
        <time>2019-04-02T07:52:47.000Z</time>
      </trkpt>
      <trkpt lat="47.22828" lon="-1.55323">
        <ele>9</ele>
        <time>2019-04-02T07:52:48.000Z</time>
      </trkpt>
      <trkpt lat="47.22827" lon="-1.55324">
        <ele>9.1999998092651</ele>
        <time>2019-04-02T07:52:49.000Z</time>
      </trkpt>
      <trkpt lat="47.22825" lon="-1.55325">
        <ele>9.1999998092651</ele>
        <time>2019-04-02T07:52:50.000Z</time>
      </trkpt>
      <trkpt lat="47.22824" lon="-1.55327">
        <ele>9.1999998092651</ele>
        <time>2019-04-02T07:52:51.000Z</time>
      </trkpt>
      <trkpt lat="47.22824" lon="-1.55328">
        <ele>9.1999998092651</ele>
        <time>2019-04-02T07:52:52.000Z</time>
      </trkpt>
      <trkpt lat="47.22823" lon="-1.5533">
        <ele>9.1999998092651</ele>
        <time>2019-04-02T07:52:53.000Z</time>
      </trkpt>
      <trkpt lat="47.22822" lon="-1.55332">
        <ele>9.1999998092651</ele>
        <time>2019-04-02T07:52:54.000Z</time>
      </trkpt>
      <trkpt lat="47.22821" lon="-1.55334">
        <ele>9.1999998092651</ele>
        <time>2019-04-02T07:52:55.000Z</time>
      </trkpt>
      <trkpt lat="47.2282" lon="-1.55336">
        <ele>9.3999996185303</ele>
        <time>2019-04-02T07:52:56.000Z</time>
      </trkpt>
      <trkpt lat="47.22818" lon="-1.55339">
        <ele>9.3999996185303</ele>
        <time>2019-04-02T07:52:57.000Z</time>
      </trkpt>
      <trkpt lat="47.22817" lon="-1.55341">
        <ele>9.3999996185303</ele>
        <time>2019-04-02T07:52:58.000Z</time>
      </trkpt>
      <trkpt lat="47.22816" lon="-1.55343">
        <ele>9.3999996185303</ele>
        <time>2019-04-02T07:52:59.000Z</time>
      </trkpt>
      <trkpt lat="47.22815" lon="-1.55344">
        <ele>9.3999996185303</ele>
        <time>2019-04-02T07:53:00.000Z</time>
      </trkpt>
      <trkpt lat="47.22813" lon="-1.55346">
        <ele>9.6000003814697</ele>
        <time>2019-04-02T07:53:01.000Z</time>
      </trkpt>
      <trkpt lat="47.22812" lon="-1.55347">
        <ele>9.6000003814697</ele>
        <time>2019-04-02T07:53:02.000Z</time>
      </trkpt>
      <trkpt lat="47.22811" lon="-1.55348">
        <ele>9.6000003814697</ele>
        <time>2019-04-02T07:53:03.000Z</time>
      </trkpt>
      <trkpt lat="47.2281" lon="-1.55349">
        <ele>9.6000003814697</ele>
        <time>2019-04-02T07:53:04.000Z</time>
      </trkpt>
      <trkpt lat="47.22808" lon="-1.5535">
        <ele>9.6000003814697</ele>
        <time>2019-04-02T07:53:05.000Z</time>
      </trkpt>
      <trkpt lat="47.22807" lon="-1.55351">
        <ele>9.6000003814697</ele>
        <time>2019-04-02T07:53:06.000Z</time>
      </trkpt>
      <trkpt lat="47.22806" lon="-1.55353">
        <ele>9.6000003814697</ele>
        <time>2019-04-02T07:53:07.000Z</time>
      </trkpt>
      <trkpt lat="47.22805" lon="-1.55354">
        <ele>9.8000001907349</ele>
        <time>2019-04-02T07:53:08.000Z</time>
      </trkpt>
      <trkpt lat="47.22804" lon="-1.55355">
        <ele>9.8000001907349</ele>
        <time>2019-04-02T07:53:09.000Z</time>
      </trkpt>
      <trkpt lat="47.22803" lon="-1.55356">
        <ele>9.8000001907349</ele>
        <time>2019-04-02T07:53:10.000Z</time>
      </trkpt>
      <trkpt lat="47.22802" lon="-1.55358">
        <ele>9.8000001907349</ele>
        <time>2019-04-02T07:53:11.000Z</time>
      </trkpt>
      <trkpt lat="47.22801" lon="-1.55359">
        <ele>9.8000001907349</ele>
        <time>2019-04-02T07:53:12.000Z</time>
      </trkpt>
      <trkpt lat="47.22798" lon="-1.55362">
        <ele>10</ele>
        <time>2019-04-02T07:53:13.000Z</time>
      </trkpt>
      <trkpt lat="47.22798" lon="-1.55362">
        <ele>10</ele>
        <time>2019-04-02T07:53:14.000Z</time>
      </trkpt>
      <trkpt lat="47.22797" lon="-1.55364">
        <ele>10</ele>
        <time>2019-04-02T07:53:15.000Z</time>
      </trkpt>
      <trkpt lat="47.22796" lon="-1.55366">
        <ele>10</ele>
        <time>2019-04-02T07:53:16.000Z</time>
      </trkpt>
      <trkpt lat="47.22794" lon="-1.55367">
        <ele>10</ele>
        <time>2019-04-02T07:53:17.000Z</time>
      </trkpt>
      <trkpt lat="47.22793" lon="-1.55368">
        <ele>10</ele>
        <time>2019-04-02T07:53:18.000Z</time>
      </trkpt>
      <trkpt lat="47.22791" lon="-1.5537">
        <ele>10</ele>
        <time>2019-04-02T07:53:19.000Z</time>
      </trkpt>
      <trkpt lat="47.2279" lon="-1.55372">
        <ele>10.199999809265</ele>
        <time>2019-04-02T07:53:20.000Z</time>
      </trkpt>
      <trkpt lat="47.22789" lon="-1.55373">
        <ele>10.199999809265</ele>
        <time>2019-04-02T07:53:21.000Z</time>
      </trkpt>
      <trkpt lat="47.22788" lon="-1.55375">
        <ele>10.199999809265</ele>
        <time>2019-04-02T07:53:22.000Z</time>
      </trkpt>
      <trkpt lat="47.22787" lon="-1.55375">
        <ele>10.199999809265</ele>
        <time>2019-04-02T07:53:23.000Z</time>
      </trkpt>
      <trkpt lat="47.22786" lon="-1.55376">
        <ele>10.199999809265</ele>
        <time>2019-04-02T07:53:24.000Z</time>
      </trkpt>
      <trkpt lat="47.22784" lon="-1.55376">
        <ele>10.199999809265</ele>
        <time>2019-04-02T07:53:25.000Z</time>
      </trkpt>
      <trkpt lat="47.22784" lon="-1.55377">
        <ele>10.199999809265</ele>
        <time>2019-04-02T07:53:26.000Z</time>
      </trkpt>
      <trkpt lat="47.22783" lon="-1.55379">
        <ele>10.199999809265</ele>
        <time>2019-04-02T07:53:27.000Z</time>
      </trkpt>
      <trkpt lat="47.22782" lon="-1.5538">
        <ele>10.39999961853</ele>
        <time>2019-04-02T07:53:28.000Z</time>
      </trkpt>
      <trkpt lat="47.22781" lon="-1.55382">
        <ele>10.39999961853</ele>
        <time>2019-04-02T07:53:29.000Z</time>
      </trkpt>
      <trkpt lat="47.2278" lon="-1.55384">
        <ele>10.39999961853</ele>
        <time>2019-04-02T07:53:30.000Z</time>
      </trkpt>
      <trkpt lat="47.22779" lon="-1.55386">
        <ele>10.39999961853</ele>
        <time>2019-04-02T07:53:31.000Z</time>
      </trkpt>
      <trkpt lat="47.22777" lon="-1.55388">
        <ele>10.39999961853</ele>
        <time>2019-04-02T07:53:32.000Z</time>
      </trkpt>
      <trkpt lat="47.22776" lon="-1.55391">
        <ele>10.60000038147</ele>
        <time>2019-04-02T07:53:33.000Z</time>
      </trkpt>
      <trkpt lat="47.22774" lon="-1.55396">
        <ele>10.60000038147</ele>
        <time>2019-04-02T07:53:34.000Z</time>
      </trkpt>
      <trkpt lat="47.22774" lon="-1.55396">
        <ele>10.60000038147</ele>
        <time>2019-04-02T07:53:35.000Z</time>
      </trkpt>
      <trkpt lat="47.22773" lon="-1.55398">
        <ele>10.60000038147</ele>
        <time>2019-04-02T07:53:36.000Z</time>
      </trkpt>
      <trkpt lat="47.22771" lon="-1.55402">
        <ele>10.60000038147</ele>
        <time>2019-04-02T07:53:37.000Z</time>
      </trkpt>
      <trkpt lat="47.22771" lon="-1.55402">
        <ele>10.60000038147</ele>
        <time>2019-04-02T07:53:38.000Z</time>
      </trkpt>
      <trkpt lat="47.2277" lon="-1.55403">
        <ele>10.60000038147</ele>
        <time>2019-04-02T07:53:39.000Z</time>
      </trkpt>
      <trkpt lat="47.2277" lon="-1.55404">
        <ele>10.60000038147</ele>
        <time>2019-04-02T07:53:40.000Z</time>
      </trkpt>
      <trkpt lat="47.22769" lon="-1.55405">
        <ele>10.60000038147</ele>
        <time>2019-04-02T07:53:41.000Z</time>
      </trkpt>
      <trkpt lat="47.22768" lon="-1.55407">
        <ele>10.60000038147</ele>
        <time>2019-04-02T07:53:42.000Z</time>
      </trkpt>
      <trkpt lat="47.22767" lon="-1.55409">
        <ele>10.39999961853</ele>
        <time>2019-04-02T07:53:43.000Z</time>
      </trkpt>
      <trkpt lat="47.22766" lon="-1.5541">
        <ele>10.39999961853</ele>
        <time>2019-04-02T07:53:44.000Z</time>
      </trkpt>
      <trkpt lat="47.22765" lon="-1.55411">
        <ele>10.39999961853</ele>
        <time>2019-04-02T07:53:45.000Z</time>
      </trkpt>
      <trkpt lat="47.22764" lon="-1.55413">
        <ele>10.39999961853</ele>
        <time>2019-04-02T07:53:46.000Z</time>
      </trkpt>
      <trkpt lat="47.22764" lon="-1.55415">
        <ele>10.199999809265</ele>
        <time>2019-04-02T07:53:47.000Z</time>
      </trkpt>
      <trkpt lat="47.22763" lon="-1.55417">
        <ele>10.199999809265</ele>
        <time>2019-04-02T07:53:48.000Z</time>
      </trkpt>
      <trkpt lat="47.22762" lon="-1.55418">
        <ele>10.199999809265</ele>
        <time>2019-04-02T07:53:49.000Z</time>
      </trkpt>
      <trkpt lat="47.2276" lon="-1.55421">
        <ele>10.199999809265</ele>
        <time>2019-04-02T07:53:50.000Z</time>
      </trkpt>
      <trkpt lat="47.2276" lon="-1.55421">
        <ele>10.199999809265</ele>
        <time>2019-04-02T07:53:51.000Z</time>
      </trkpt>
      <trkpt lat="47.22759" lon="-1.55422">
        <ele>10</ele>
        <time>2019-04-02T07:53:52.000Z</time>
      </trkpt>
      <trkpt lat="47.22758" lon="-1.55423">
        <ele>10</ele>
        <time>2019-04-02T07:53:53.000Z</time>
      </trkpt>
      <trkpt lat="47.22757" lon="-1.55425">
        <ele>10</ele>
        <time>2019-04-02T07:53:54.000Z</time>
      </trkpt>
      <trkpt lat="47.22757" lon="-1.55425">
        <ele>10</ele>
        <time>2019-04-02T07:53:55.000Z</time>
      </trkpt>
      <trkpt lat="47.22756" lon="-1.55427">
        <ele>10</ele>
        <time>2019-04-02T07:53:56.000Z</time>
      </trkpt>
      <trkpt lat="47.22755" lon="-1.55428">
        <ele>10</ele>
        <time>2019-04-02T07:53:57.000Z</time>
      </trkpt>
      <trkpt lat="47.22754" lon="-1.5543">
        <ele>9.8000001907349</ele>
        <time>2019-04-02T07:53:58.000Z</time>
      </trkpt>
      <trkpt lat="47.22753" lon="-1.55432">
        <ele>9.8000001907349</ele>
        <time>2019-04-02T07:53:59.000Z</time>
      </trkpt>
      <trkpt lat="47.22752" lon="-1.55434">
        <ele>9.8000001907349</ele>
        <time>2019-04-02T07:54:00.000Z</time>
      </trkpt>
      <trkpt lat="47.22751" lon="-1.55435">
        <ele>9.6000003814697</ele>
        <time>2019-04-02T07:54:01.000Z</time>
      </trkpt>
      <trkpt lat="47.2275" lon="-1.55436">
        <ele>9.6000003814697</ele>
        <time>2019-04-02T07:54:02.000Z</time>
      </trkpt>
      <trkpt lat="47.22749" lon="-1.55437">
        <ele>9.6000003814697</ele>
        <time>2019-04-02T07:54:03.000Z</time>
      </trkpt>
      <trkpt lat="47.22748" lon="-1.55438">
        <ele>9.6000003814697</ele>
        <time>2019-04-02T07:54:04.000Z</time>
      </trkpt>
      <trkpt lat="47.22747" lon="-1.55439">
        <ele>9.6000003814697</ele>
        <time>2019-04-02T07:54:05.000Z</time>
      </trkpt>
      <trkpt lat="47.22746" lon="-1.55439">
        <ele>9.6000003814697</ele>
        <time>2019-04-02T07:54:06.000Z</time>
      </trkpt>
      <trkpt lat="47.22745" lon="-1.55441">
        <ele>9.6000003814697</ele>
        <time>2019-04-02T07:54:07.000Z</time>
      </trkpt>
      <trkpt lat="47.22744" lon="-1.55443">
        <ele>9.3999996185303</ele>
        <time>2019-04-02T07:54:08.000Z</time>
      </trkpt>
      <trkpt lat="47.22744" lon="-1.55445">
        <ele>9.3999996185303</ele>
        <time>2019-04-02T07:54:09.000Z</time>
      </trkpt>
      <trkpt lat="47.22743" lon="-1.55447">
        <ele>9.1999998092651</ele>
        <time>2019-04-02T07:54:10.000Z</time>
      </trkpt>
      <trkpt lat="47.22742" lon="-1.55448">
        <ele>9.1999998092651</ele>
        <time>2019-04-02T07:54:11.000Z</time>
      </trkpt>
      <trkpt lat="47.22741" lon="-1.5545">
        <ele>9.1999998092651</ele>
        <time>2019-04-02T07:54:12.000Z</time>
      </trkpt>
      <trkpt lat="47.2274" lon="-1.55451">
        <ele>9</ele>
        <time>2019-04-02T07:54:13.000Z</time>
      </trkpt>
      <trkpt lat="47.22739" lon="-1.55453">
        <ele>9</ele>
        <time>2019-04-02T07:54:14.000Z</time>
      </trkpt>
      <trkpt lat="47.22739" lon="-1.55454">
        <ele>9</ele>
        <time>2019-04-02T07:54:15.000Z</time>
      </trkpt>
      <trkpt lat="47.22738" lon="-1.55456">
        <ele>8.8000001907349</ele>
        <time>2019-04-02T07:54:16.000Z</time>
      </trkpt>
      <trkpt lat="47.22737" lon="-1.55457">
        <ele>8.8000001907349</ele>
        <time>2019-04-02T07:54:17.000Z</time>
      </trkpt>
      <trkpt lat="47.22735" lon="-1.55459">
        <ele>8.6000003814697</ele>
        <time>2019-04-02T07:54:18.000Z</time>
      </trkpt>
      <trkpt lat="47.22734" lon="-1.5546">
        <ele>8.6000003814697</ele>
        <time>2019-04-02T07:54:19.000Z</time>
      </trkpt>
      <trkpt lat="47.22733" lon="-1.55462">
        <ele>8.6000003814697</ele>
        <time>2019-04-02T07:54:20.000Z</time>
      </trkpt>
      <trkpt lat="47.22732" lon="-1.55462">
        <ele>8.3999996185303</ele>
        <time>2019-04-02T07:54:21.000Z</time>
      </trkpt>
      <trkpt lat="47.22731" lon="-1.55464">
        <ele>8.3999996185303</ele>
        <time>2019-04-02T07:54:22.000Z</time>
      </trkpt>
      <trkpt lat="47.2273" lon="-1.55465">
        <ele>8.3999996185303</ele>
        <time>2019-04-02T07:54:23.000Z</time>
      </trkpt>
      <trkpt lat="47.2273" lon="-1.55466">
        <ele>8.1999998092651</ele>
        <time>2019-04-02T07:54:24.000Z</time>
      </trkpt>
      <trkpt lat="47.22729" lon="-1.55468">
        <ele>8.1999998092651</ele>
        <time>2019-04-02T07:54:25.000Z</time>
      </trkpt>
      <trkpt lat="47.22728" lon="-1.55469">
        <ele>8.1999998092651</ele>
        <time>2019-04-02T07:54:26.000Z</time>
      </trkpt>
      <trkpt lat="47.22727" lon="-1.55471">
        <ele>8</ele>
        <time>2019-04-02T07:54:27.000Z</time>
      </trkpt>
      <trkpt lat="47.22726" lon="-1.55473">
        <ele>8</ele>
        <time>2019-04-02T07:54:28.000Z</time>
      </trkpt>
      <trkpt lat="47.22725" lon="-1.55475">
        <ele>7.8000001907349</ele>
        <time>2019-04-02T07:54:29.000Z</time>
      </trkpt>
      <trkpt lat="47.22724" lon="-1.55476">
        <ele>7.8000001907349</ele>
        <time>2019-04-02T07:54:30.000Z</time>
      </trkpt>
      <trkpt lat="47.22724" lon="-1.55478">
        <ele>7.8000001907349</ele>
        <time>2019-04-02T07:54:31.000Z</time>
      </trkpt>
      <trkpt lat="47.22723" lon="-1.55479">
        <ele>7.5999999046326</ele>
        <time>2019-04-02T07:54:32.000Z</time>
      </trkpt>
      <trkpt lat="47.22722" lon="-1.55481">
        <ele>7.5999999046326</ele>
        <time>2019-04-02T07:54:33.000Z</time>
      </trkpt>
      <trkpt lat="47.2272" lon="-1.55484">
        <ele>7.4000000953674</ele>
        <time>2019-04-02T07:54:34.000Z</time>
      </trkpt>
      <trkpt lat="47.2272" lon="-1.55484">
        <ele>7.4000000953674</ele>
        <time>2019-04-02T07:54:35.000Z</time>
      </trkpt>
      <trkpt lat="47.2272" lon="-1.55486">
        <ele>7.4000000953674</ele>
        <time>2019-04-02T07:54:36.000Z</time>
      </trkpt>
      <trkpt lat="47.22719" lon="-1.55488">
        <ele>7.4000000953674</ele>
        <time>2019-04-02T07:54:37.000Z</time>
      </trkpt>
      <trkpt lat="47.22718" lon="-1.55489">
        <ele>7.4000000953674</ele>
        <time>2019-04-02T07:54:38.000Z</time>
      </trkpt>
      <trkpt lat="47.22718" lon="-1.55491">
        <ele>7.4000000953674</ele>
        <time>2019-04-02T07:54:39.000Z</time>
      </trkpt>
      <trkpt lat="47.22717" lon="-1.55493">
        <ele>7.5999999046326</ele>
        <time>2019-04-02T07:54:40.000Z</time>
      </trkpt>
      <trkpt lat="47.22716" lon="-1.55494">
        <ele>7.5999999046326</ele>
        <time>2019-04-02T07:54:41.000Z</time>
      </trkpt>
      <trkpt lat="47.22716" lon="-1.55496">
        <ele>7.5999999046326</ele>
        <time>2019-04-02T07:54:42.000Z</time>
      </trkpt>
      <trkpt lat="47.22715" lon="-1.55497">
        <ele>7.5999999046326</ele>
        <time>2019-04-02T07:54:43.000Z</time>
      </trkpt>
      <trkpt lat="47.22714" lon="-1.55499">
        <ele>7.5999999046326</ele>
        <time>2019-04-02T07:54:44.000Z</time>
      </trkpt>
      <trkpt lat="47.22713" lon="-1.555">
        <ele>7.5999999046326</ele>
        <time>2019-04-02T07:54:45.000Z</time>
      </trkpt>
      <trkpt lat="47.22712" lon="-1.55501">
        <ele>7.5999999046326</ele>
        <time>2019-04-02T07:54:46.000Z</time>
      </trkpt>
      <trkpt lat="47.22711" lon="-1.55502">
        <ele>7.5999999046326</ele>
        <time>2019-04-02T07:54:47.000Z</time>
      </trkpt>
      <trkpt lat="47.2271" lon="-1.55503">
        <ele>7.5999999046326</ele>
        <time>2019-04-02T07:54:48.000Z</time>
      </trkpt>
      <trkpt lat="47.22709" lon="-1.55504">
        <ele>7.5999999046326</ele>
        <time>2019-04-02T07:54:49.000Z</time>
      </trkpt>
      <trkpt lat="47.22708" lon="-1.55505">
        <ele>7.5999999046326</ele>
        <time>2019-04-02T07:54:50.000Z</time>
      </trkpt>
      <trkpt lat="47.22707" lon="-1.55506">
        <ele>7.5999999046326</ele>
        <time>2019-04-02T07:54:51.000Z</time>
      </trkpt>
      <trkpt lat="47.22706" lon="-1.55508">
        <ele>7.5999999046326</ele>
        <time>2019-04-02T07:54:52.000Z</time>
      </trkpt>
      <trkpt lat="47.22704" lon="-1.55511">
        <ele>7.5999999046326</ele>
        <time>2019-04-02T07:54:53.000Z</time>
      </trkpt>
      <trkpt lat="47.22704" lon="-1.55511">
        <ele>7.5999999046326</ele>
        <time>2019-04-02T07:54:54.000Z</time>
      </trkpt>
      <trkpt lat="47.22702" lon="-1.55513">
        <ele>7.5999999046326</ele>
        <time>2019-04-02T07:54:55.000Z</time>
      </trkpt>
      <trkpt lat="47.22701" lon="-1.55514">
        <ele>7.5999999046326</ele>
        <time>2019-04-02T07:54:56.000Z</time>
      </trkpt>
      <trkpt lat="47.227" lon="-1.55515">
        <ele>7.5999999046326</ele>
        <time>2019-04-02T07:54:57.000Z</time>
      </trkpt>
      <trkpt lat="47.22699" lon="-1.55517">
        <ele>7.5999999046326</ele>
        <time>2019-04-02T07:54:58.000Z</time>
      </trkpt>
      <trkpt lat="47.22698" lon="-1.55518">
        <ele>7.5999999046326</ele>
        <time>2019-04-02T07:54:59.000Z</time>
      </trkpt>
      <trkpt lat="47.22697" lon="-1.5552">
        <ele>7.5999999046326</ele>
        <time>2019-04-02T07:55:00.000Z</time>
      </trkpt>
      <trkpt lat="47.22696" lon="-1.55522">
        <ele>7.8000001907349</ele>
        <time>2019-04-02T07:55:01.000Z</time>
      </trkpt>
      <trkpt lat="47.22696" lon="-1.55522">
        <ele>7.8000001907349</ele>
        <time>2019-04-02T07:55:02.000Z</time>
      </trkpt>
      <trkpt lat="47.22695" lon="-1.55523">
        <ele>7.8000001907349</ele>
        <time>2019-04-02T07:55:03.000Z</time>
      </trkpt>
      <trkpt lat="47.22694" lon="-1.55524">
        <ele>7.8000001907349</ele>
        <time>2019-04-02T07:55:04.000Z</time>
      </trkpt>
      <trkpt lat="47.22693" lon="-1.55525">
        <ele>7.8000001907349</ele>
        <time>2019-04-02T07:55:05.000Z</time>
      </trkpt>
      <trkpt lat="47.22692" lon="-1.55526">
        <ele>7.8000001907349</ele>
        <time>2019-04-02T07:55:06.000Z</time>
      </trkpt>
      <trkpt lat="47.22691" lon="-1.55527">
        <ele>7.8000001907349</ele>
        <time>2019-04-02T07:55:07.000Z</time>
      </trkpt>
      <trkpt lat="47.2269" lon="-1.55528">
        <ele>7.8000001907349</ele>
        <time>2019-04-02T07:55:08.000Z</time>
      </trkpt>
      <trkpt lat="47.22689" lon="-1.55528">
        <ele>7.8000001907349</ele>
        <time>2019-04-02T07:55:09.000Z</time>
      </trkpt>
      <trkpt lat="47.22689" lon="-1.55528">
        <ele>7.5999999046326</ele>
        <time>2019-04-02T07:55:10.000Z</time>
      </trkpt>
      <trkpt lat="47.22688" lon="-1.55527">
        <ele>7.5999999046326</ele>
        <time>2019-04-02T07:55:11.000Z</time>
      </trkpt>
      <trkpt lat="47.22687" lon="-1.55526">
        <ele>7.5999999046326</ele>
        <time>2019-04-02T07:55:12.000Z</time>
      </trkpt>
      <trkpt lat="47.22686" lon="-1.55524">
        <ele>7.5999999046326</ele>
        <time>2019-04-02T07:55:13.000Z</time>
      </trkpt>
      <trkpt lat="47.22686" lon="-1.55524">
        <ele>7.5999999046326</ele>
        <time>2019-04-02T07:55:14.000Z</time>
      </trkpt>
      <trkpt lat="47.22685" lon="-1.55523">
        <ele>7.4000000953674</ele>
        <time>2019-04-02T07:55:15.000Z</time>
      </trkpt>
      <trkpt lat="47.22684" lon="-1.55522">
        <ele>7.4000000953674</ele>
        <time>2019-04-02T07:55:16.000Z</time>
      </trkpt>
      <trkpt lat="47.22683" lon="-1.55521">
        <ele>7.4000000953674</ele>
        <time>2019-04-02T07:55:17.000Z</time>
      </trkpt>
      <trkpt lat="47.22683" lon="-1.5552">
        <ele>7.4000000953674</ele>
        <time>2019-04-02T07:55:18.000Z</time>
      </trkpt>
      <trkpt lat="47.22682" lon="-1.55519">
        <ele>7.1999998092651</ele>
        <time>2019-04-02T07:55:19.000Z</time>
      </trkpt>
      <trkpt lat="47.22681" lon="-1.55517">
        <ele>7.1999998092651</ele>
        <time>2019-04-02T07:55:20.000Z</time>
      </trkpt>
      <trkpt lat="47.2268" lon="-1.55516">
        <ele>7.1999998092651</ele>
        <time>2019-04-02T07:55:21.000Z</time>
      </trkpt>
      <trkpt lat="47.2268" lon="-1.55515">
        <ele>7.1999998092651</ele>
        <time>2019-04-02T07:55:22.000Z</time>
      </trkpt>
      <trkpt lat="47.22679" lon="-1.55514">
        <ele>7.1999998092651</ele>
        <time>2019-04-02T07:55:23.000Z</time>
      </trkpt>
      <trkpt lat="47.22679" lon="-1.55513">
        <ele>7</ele>
        <time>2019-04-02T07:55:24.000Z</time>
      </trkpt>
      <trkpt lat="47.22678" lon="-1.55511">
        <ele>7</ele>
        <time>2019-04-02T07:55:25.000Z</time>
      </trkpt>
      <trkpt lat="47.22677" lon="-1.5551">
        <ele>7</ele>
        <time>2019-04-02T07:55:26.000Z</time>
      </trkpt>
      <trkpt lat="47.22676" lon="-1.55507">
        <ele>6.8000001907349</ele>
        <time>2019-04-02T07:55:27.000Z</time>
      </trkpt>
      <trkpt lat="47.22676" lon="-1.55507">
        <ele>6.8000001907349</ele>
        <time>2019-04-02T07:55:28.000Z</time>
      </trkpt>
      <trkpt lat="47.22675" lon="-1.55506">
        <ele>6.8000001907349</ele>
        <time>2019-04-02T07:55:29.000Z</time>
      </trkpt>
      <trkpt lat="47.22675" lon="-1.55505">
        <ele>6.8000001907349</ele>
        <time>2019-04-02T07:55:30.000Z</time>
      </trkpt>
      <trkpt lat="47.22674" lon="-1.55503">
        <ele>6.8000001907349</ele>
        <time>2019-04-02T07:55:31.000Z</time>
      </trkpt>
      <trkpt lat="47.22673" lon="-1.555">
        <ele>6.5999999046326</ele>
        <time>2019-04-02T07:55:32.000Z</time>
      </trkpt>
      <trkpt lat="47.22673" lon="-1.555">
        <ele>6.5999999046326</ele>
        <time>2019-04-02T07:55:33.000Z</time>
      </trkpt>
      <trkpt lat="47.22672" lon="-1.55499">
        <ele>6.5999999046326</ele>
        <time>2019-04-02T07:55:34.000Z</time>
      </trkpt>
      <trkpt lat="47.22672" lon="-1.55498">
        <ele>6.5999999046326</ele>
        <time>2019-04-02T07:55:35.000Z</time>
      </trkpt>
      <trkpt lat="47.22671" lon="-1.55496">
        <ele>6.5999999046326</ele>
        <time>2019-04-02T07:55:36.000Z</time>
      </trkpt>
      <trkpt lat="47.2267" lon="-1.55493">
        <ele>6.4000000953674</ele>
        <time>2019-04-02T07:55:37.000Z</time>
      </trkpt>
      <trkpt lat="47.2267" lon="-1.55493">
        <ele>6.4000000953674</ele>
        <time>2019-04-02T07:55:38.000Z</time>
      </trkpt>
      <trkpt lat="47.22669" lon="-1.55492">
        <ele>6.4000000953674</ele>
        <time>2019-04-02T07:55:39.000Z</time>
      </trkpt>
      <trkpt lat="47.22669" lon="-1.55491">
        <ele>6.4000000953674</ele>
        <time>2019-04-02T07:55:40.000Z</time>
      </trkpt>
      <trkpt lat="47.22668" lon="-1.55489">
        <ele>6.1999998092651</ele>
        <time>2019-04-02T07:55:41.000Z</time>
      </trkpt>
      <trkpt lat="47.22667" lon="-1.55487">
        <ele>6.1999998092651</ele>
        <time>2019-04-02T07:55:42.000Z</time>
      </trkpt>
      <trkpt lat="47.22667" lon="-1.55487">
        <ele>6.1999998092651</ele>
        <time>2019-04-02T07:55:43.000Z</time>
      </trkpt>
      <trkpt lat="47.22666" lon="-1.55486">
        <ele>6.1999998092651</ele>
        <time>2019-04-02T07:55:44.000Z</time>
      </trkpt>
      <trkpt lat="47.22666" lon="-1.55484">
        <ele>6</ele>
        <time>2019-04-02T07:55:45.000Z</time>
      </trkpt>
      <trkpt lat="47.22665" lon="-1.55483">
        <ele>6.1999998092651</ele>
        <time>2019-04-02T07:55:46.000Z</time>
      </trkpt>
      <trkpt lat="47.22664" lon="-1.55481">
        <ele>6.1999998092651</ele>
        <time>2019-04-02T07:55:47.000Z</time>
      </trkpt>
      <trkpt lat="47.22664" lon="-1.5548">
        <ele>6.1999998092651</ele>
        <time>2019-04-02T07:55:48.000Z</time>
      </trkpt>
      <trkpt lat="47.22663" lon="-1.55478">
        <ele>6.1999998092651</ele>
        <time>2019-04-02T07:55:49.000Z</time>
      </trkpt>
      <trkpt lat="47.22662" lon="-1.55478">
        <ele>6.4000000953674</ele>
        <time>2019-04-02T07:55:50.000Z</time>
      </trkpt>
      <trkpt lat="47.22661" lon="-1.55477">
        <ele>6.4000000953674</ele>
        <time>2019-04-02T07:55:51.000Z</time>
      </trkpt>
      <trkpt lat="47.2266" lon="-1.55475">
        <ele>6.5999999046326</ele>
        <time>2019-04-02T07:55:52.000Z</time>
      </trkpt>
      <trkpt lat="47.2266" lon="-1.55475">
        <ele>6.5999999046326</ele>
        <time>2019-04-02T07:55:53.000Z</time>
      </trkpt>
      <trkpt lat="47.22659" lon="-1.55474">
        <ele>6.5999999046326</ele>
        <time>2019-04-02T07:55:54.000Z</time>
      </trkpt>
      <trkpt lat="47.22659" lon="-1.55474">
        <ele>6.5999999046326</ele>
        <time>2019-04-02T07:55:55.000Z</time>
      </trkpt>
      <trkpt lat="47.22658" lon="-1.55473">
        <ele>6.5999999046326</ele>
        <time>2019-04-02T07:55:56.000Z</time>
      </trkpt>
      <trkpt lat="47.22657" lon="-1.55474">
        <ele>6.5999999046326</ele>
        <time>2019-04-02T07:55:57.000Z</time>
      </trkpt>
      <trkpt lat="47.22657" lon="-1.55474">
        <ele>6.5999999046326</ele>
        <time>2019-04-02T07:55:58.000Z</time>
      </trkpt>
      <trkpt lat="47.22656" lon="-1.55474">
        <ele>6.8000001907349</ele>
        <time>2019-04-02T07:55:59.000Z</time>
      </trkpt>
      <trkpt lat="47.22655" lon="-1.55473">
        <ele>6.8000001907349</ele>
        <time>2019-04-02T07:56:00.000Z</time>
      </trkpt>
      <trkpt lat="47.22654" lon="-1.55472">
        <ele>6.8000001907349</ele>
        <time>2019-04-02T07:56:01.000Z</time>
      </trkpt>
      <trkpt lat="47.22654" lon="-1.55472">
        <ele>6.8000001907349</ele>
        <time>2019-04-02T07:56:02.000Z</time>
      </trkpt>
      <trkpt lat="47.22653" lon="-1.55472">
        <ele>7</ele>
        <time>2019-04-02T07:56:03.000Z</time>
      </trkpt>
      <trkpt lat="47.22652" lon="-1.55472">
        <ele>7</ele>
        <time>2019-04-02T07:56:04.000Z</time>
      </trkpt>
      <trkpt lat="47.22651" lon="-1.55471">
        <ele>7</ele>
        <time>2019-04-02T07:56:05.000Z</time>
      </trkpt>
      <trkpt lat="47.2265" lon="-1.55472">
        <ele>7</ele>
        <time>2019-04-02T07:56:06.000Z</time>
      </trkpt>
      <trkpt lat="47.2265" lon="-1.55474">
        <ele>7</ele>
        <time>2019-04-02T07:56:07.000Z</time>
      </trkpt>
      <trkpt lat="47.22649" lon="-1.55475">
        <ele>7</ele>
        <time>2019-04-02T07:56:08.000Z</time>
      </trkpt>
      <trkpt lat="47.22648" lon="-1.55477">
        <ele>6.8000001907349</ele>
        <time>2019-04-02T07:56:09.000Z</time>
      </trkpt>
      <trkpt lat="47.22647" lon="-1.55477">
        <ele>6.8000001907349</ele>
        <time>2019-04-02T07:56:10.000Z</time>
      </trkpt>
      <trkpt lat="47.22647" lon="-1.55479">
        <ele>6.8000001907349</ele>
        <time>2019-04-02T07:56:11.000Z</time>
      </trkpt>
      <trkpt lat="47.22646" lon="-1.55482">
        <ele>6.5999999046326</ele>
        <time>2019-04-02T07:56:12.000Z</time>
      </trkpt>
      <trkpt lat="47.22646" lon="-1.55482">
        <ele>6.5999999046326</ele>
        <time>2019-04-02T07:56:13.000Z</time>
      </trkpt>
      <trkpt lat="47.22646" lon="-1.55484">
        <ele>6.5999999046326</ele>
        <time>2019-04-02T07:56:14.000Z</time>
      </trkpt>
      <trkpt lat="47.22646" lon="-1.55485">
        <ele>6.5999999046326</ele>
        <time>2019-04-02T07:56:15.000Z</time>
      </trkpt>
      <trkpt lat="47.22645" lon="-1.55487">
        <ele>6.5999999046326</ele>
        <time>2019-04-02T07:56:16.000Z</time>
      </trkpt>
      <trkpt lat="47.22645" lon="-1.55488">
        <ele>6.5999999046326</ele>
        <time>2019-04-02T07:56:17.000Z</time>
      </trkpt>
      <trkpt lat="47.22644" lon="-1.5549">
        <ele>6.8000001907349</ele>
        <time>2019-04-02T07:56:18.000Z</time>
      </trkpt>
      <trkpt lat="47.22643" lon="-1.55491">
        <ele>6.8000001907349</ele>
        <time>2019-04-02T07:56:19.000Z</time>
      </trkpt>
      <trkpt lat="47.22642" lon="-1.55492">
        <ele>6.8000001907349</ele>
        <time>2019-04-02T07:56:20.000Z</time>
      </trkpt>
      <trkpt lat="47.22641" lon="-1.55494">
        <ele>6.8000001907349</ele>
        <time>2019-04-02T07:56:21.000Z</time>
      </trkpt>
      <trkpt lat="47.22641" lon="-1.55496">
        <ele>7</ele>
        <time>2019-04-02T07:56:22.000Z</time>
      </trkpt>
      <trkpt lat="47.2264" lon="-1.55497">
        <ele>7</ele>
        <time>2019-04-02T07:56:23.000Z</time>
      </trkpt>
      <trkpt lat="47.22639" lon="-1.55499">
        <ele>7</ele>
        <time>2019-04-02T07:56:24.000Z</time>
      </trkpt>
      <trkpt lat="47.22639" lon="-1.555">
        <ele>7</ele>
        <time>2019-04-02T07:56:25.000Z</time>
      </trkpt>
      <trkpt lat="47.22638" lon="-1.55502">
        <ele>7</ele>
        <time>2019-04-02T07:56:26.000Z</time>
      </trkpt>
      <trkpt lat="47.22637" lon="-1.55503">
        <ele>7.1999998092651</ele>
        <time>2019-04-02T07:56:27.000Z</time>
      </trkpt>
      <trkpt lat="47.22635" lon="-1.55505">
        <ele>7.1999998092651</ele>
        <time>2019-04-02T07:56:28.000Z</time>
      </trkpt>
      <trkpt lat="47.22635" lon="-1.55505">
        <ele>7.1999998092651</ele>
        <time>2019-04-02T07:56:29.000Z</time>
      </trkpt>
      <trkpt lat="47.22634" lon="-1.55505">
        <ele>7.1999998092651</ele>
        <time>2019-04-02T07:56:30.000Z</time>
      </trkpt>
      <trkpt lat="47.22632" lon="-1.55506">
        <ele>7.4000000953674</ele>
        <time>2019-04-02T07:56:31.000Z</time>
      </trkpt>
      <trkpt lat="47.22631" lon="-1.55507">
        <ele>7.4000000953674</ele>
        <time>2019-04-02T07:56:32.000Z</time>
      </trkpt>
      <trkpt lat="47.2263" lon="-1.55507">
        <ele>7.4000000953674</ele>
        <time>2019-04-02T07:56:33.000Z</time>
      </trkpt>
      <trkpt lat="47.22628" lon="-1.55508">
        <ele>7.4000000953674</ele>
        <time>2019-04-02T07:56:34.000Z</time>
      </trkpt>
      <trkpt lat="47.22627" lon="-1.55508">
        <ele>7.5999999046326</ele>
        <time>2019-04-02T07:56:35.000Z</time>
      </trkpt>
      <trkpt lat="47.22626" lon="-1.55509">
        <ele>7.5999999046326</ele>
        <time>2019-04-02T07:56:36.000Z</time>
      </trkpt>
      <trkpt lat="47.22624" lon="-1.5551">
        <ele>7.5999999046326</ele>
        <time>2019-04-02T07:56:37.000Z</time>
      </trkpt>
      <trkpt lat="47.22621" lon="-1.55511">
        <ele>7.8000001907349</ele>
        <time>2019-04-02T07:56:38.000Z</time>
      </trkpt>
      <trkpt lat="47.22621" lon="-1.55511">
        <ele>7.8000001907349</ele>
        <time>2019-04-02T07:56:39.000Z</time>
      </trkpt>
      <trkpt lat="47.2262" lon="-1.55511">
        <ele>7.8000001907349</ele>
        <time>2019-04-02T07:56:40.000Z</time>
      </trkpt>
      <trkpt lat="47.22618" lon="-1.55511">
        <ele>8</ele>
        <time>2019-04-02T07:56:41.000Z</time>
      </trkpt>
      <trkpt lat="47.22617" lon="-1.55512">
        <ele>8</ele>
        <time>2019-04-02T07:56:42.000Z</time>
      </trkpt>
      <trkpt lat="47.22615" lon="-1.55512">
        <ele>8</ele>
        <time>2019-04-02T07:56:43.000Z</time>
      </trkpt>
      <trkpt lat="47.22614" lon="-1.55512">
        <ele>8</ele>
        <time>2019-04-02T07:56:44.000Z</time>
      </trkpt>
      <trkpt lat="47.22612" lon="-1.55512">
        <ele>8.1999998092651</ele>
        <time>2019-04-02T07:56:45.000Z</time>
      </trkpt>
      <trkpt lat="47.22611" lon="-1.55512">
        <ele>8.1999998092651</ele>
        <time>2019-04-02T07:56:46.000Z</time>
      </trkpt>
      <trkpt lat="47.22609" lon="-1.55512">
        <ele>8.1999998092651</ele>
        <time>2019-04-02T07:56:47.000Z</time>
      </trkpt>
      <trkpt lat="47.22608" lon="-1.55512">
        <ele>8.1999998092651</ele>
        <time>2019-04-02T07:56:48.000Z</time>
      </trkpt>
      <trkpt lat="47.22607" lon="-1.55512">
        <ele>8.3999996185303</ele>
        <time>2019-04-02T07:56:49.000Z</time>
      </trkpt>
      <trkpt lat="47.22606" lon="-1.55512">
        <ele>8.3999996185303</ele>
        <time>2019-04-02T07:56:50.000Z</time>
      </trkpt>
      <trkpt lat="47.22604" lon="-1.55512">
        <ele>8.3999996185303</ele>
        <time>2019-04-02T07:56:51.000Z</time>
      </trkpt>
      <trkpt lat="47.22603" lon="-1.55511">
        <ele>8.3999996185303</ele>
        <time>2019-04-02T07:56:52.000Z</time>
      </trkpt>
      <trkpt lat="47.22602" lon="-1.55511">
        <ele>8.3999996185303</ele>
        <time>2019-04-02T07:56:53.000Z</time>
      </trkpt>
      <trkpt lat="47.22601" lon="-1.5551">
        <ele>8.6000003814697</ele>
        <time>2019-04-02T07:56:54.000Z</time>
      </trkpt>
      <trkpt lat="47.226" lon="-1.5551">
        <ele>8.6000003814697</ele>
        <time>2019-04-02T07:56:55.000Z</time>
      </trkpt>
      <trkpt lat="47.22599" lon="-1.5551">
        <ele>8.6000003814697</ele>
        <time>2019-04-02T07:56:56.000Z</time>
      </trkpt>
      <trkpt lat="47.22597" lon="-1.5551">
        <ele>8.6000003814697</ele>
        <time>2019-04-02T07:56:57.000Z</time>
      </trkpt>
      <trkpt lat="47.22596" lon="-1.55509">
        <ele>8.6000003814697</ele>
        <time>2019-04-02T07:56:58.000Z</time>
      </trkpt>
      <trkpt lat="47.22595" lon="-1.55509">
        <ele>8.8000001907349</ele>
        <time>2019-04-02T07:56:59.000Z</time>
      </trkpt>
      <trkpt lat="47.22594" lon="-1.55508">
        <ele>8.8000001907349</ele>
        <time>2019-04-02T07:57:00.000Z</time>
      </trkpt>
      <trkpt lat="47.22591" lon="-1.55507">
        <ele>8.8000001907349</ele>
        <time>2019-04-02T07:57:01.000Z</time>
      </trkpt>
      <trkpt lat="47.22591" lon="-1.55507">
        <ele>8.8000001907349</ele>
        <time>2019-04-02T07:57:02.000Z</time>
      </trkpt>
      <trkpt lat="47.2259" lon="-1.55507">
        <ele>8.8000001907349</ele>
        <time>2019-04-02T07:57:03.000Z</time>
      </trkpt>
      <trkpt lat="47.22589" lon="-1.55506">
        <ele>8.8000001907349</ele>
        <time>2019-04-02T07:57:04.000Z</time>
      </trkpt>
      <trkpt lat="47.22588" lon="-1.55506">
        <ele>9</ele>
        <time>2019-04-02T07:57:05.000Z</time>
      </trkpt>
      <trkpt lat="47.22587" lon="-1.55505">
        <ele>9</ele>
        <time>2019-04-02T07:57:06.000Z</time>
      </trkpt>
      <trkpt lat="47.22586" lon="-1.55505">
        <ele>9</ele>
        <time>2019-04-02T07:57:07.000Z</time>
      </trkpt>
      <trkpt lat="47.22585" lon="-1.55504">
        <ele>9</ele>
        <time>2019-04-02T07:57:08.000Z</time>
      </trkpt>
      <trkpt lat="47.22584" lon="-1.55504">
        <ele>9</ele>
        <time>2019-04-02T07:57:09.000Z</time>
      </trkpt>
      <trkpt lat="47.22583" lon="-1.55504">
        <ele>9</ele>
        <time>2019-04-02T07:57:10.000Z</time>
      </trkpt>
      <trkpt lat="47.22581" lon="-1.55502">
        <ele>9.1999998092651</ele>
        <time>2019-04-02T07:57:11.000Z</time>
      </trkpt>
      <trkpt lat="47.22581" lon="-1.55502">
        <ele>9.1999998092651</ele>
        <time>2019-04-02T07:57:12.000Z</time>
      </trkpt>
      <trkpt lat="47.2258" lon="-1.55502">
        <ele>9.1999998092651</ele>
        <time>2019-04-02T07:57:13.000Z</time>
      </trkpt>
      <trkpt lat="47.22579" lon="-1.55502">
        <ele>9.1999998092651</ele>
        <time>2019-04-02T07:57:14.000Z</time>
      </trkpt>
      <trkpt lat="47.22578" lon="-1.55502">
        <ele>9.3999996185303</ele>
        <time>2019-04-02T07:57:15.000Z</time>
      </trkpt>
      <trkpt lat="47.22576" lon="-1.55501">
        <ele>9.3999996185303</ele>
        <time>2019-04-02T07:57:16.000Z</time>
      </trkpt>
      <trkpt lat="47.22575" lon="-1.55501">
        <ele>9.3999996185303</ele>
        <time>2019-04-02T07:57:17.000Z</time>
      </trkpt>
      <trkpt lat="47.22574" lon="-1.55501">
        <ele>9.6000003814697</ele>
        <time>2019-04-02T07:57:18.000Z</time>
      </trkpt>
      <trkpt lat="47.22573" lon="-1.55501">
        <ele>9.6000003814697</ele>
        <time>2019-04-02T07:57:19.000Z</time>
      </trkpt>
      <trkpt lat="47.22571" lon="-1.555">
        <ele>9.8000001907349</ele>
        <time>2019-04-02T07:57:20.000Z</time>
      </trkpt>
      <trkpt lat="47.2257" lon="-1.555">
        <ele>9.8000001907349</ele>
        <time>2019-04-02T07:57:21.000Z</time>
      </trkpt>
      <trkpt lat="47.22569" lon="-1.555">
        <ele>9.8000001907349</ele>
        <time>2019-04-02T07:57:22.000Z</time>
      </trkpt>
      <trkpt lat="47.22568" lon="-1.55499">
        <ele>10</ele>
        <time>2019-04-02T07:57:23.000Z</time>
      </trkpt>
      <trkpt lat="47.22567" lon="-1.55498">
        <ele>10</ele>
        <time>2019-04-02T07:57:24.000Z</time>
      </trkpt>
      <trkpt lat="47.22566" lon="-1.55497">
        <ele>10</ele>
        <time>2019-04-02T07:57:25.000Z</time>
      </trkpt>
      <trkpt lat="47.22566" lon="-1.55496">
        <ele>10</ele>
        <time>2019-04-02T07:57:26.000Z</time>
      </trkpt>
      <trkpt lat="47.22567" lon="-1.55495">
        <ele>10</ele>
        <time>2019-04-02T07:57:27.000Z</time>
      </trkpt>
      <trkpt lat="47.22568" lon="-1.55494">
        <ele>9.8000001907349</ele>
        <time>2019-04-02T07:57:28.000Z</time>
      </trkpt>
      <trkpt lat="47.22569" lon="-1.55494">
        <ele>9.8000001907349</ele>
        <time>2019-04-02T07:57:29.000Z</time>
      </trkpt>
      <trkpt lat="47.2257" lon="-1.55494">
        <ele>9.8000001907349</ele>
        <time>2019-04-02T07:57:30.000Z</time>
      </trkpt>
      <trkpt lat="47.2257" lon="-1.55494">
        <ele>9.8000001907349</ele>
        <time>2019-04-02T07:57:31.000Z</time>
      </trkpt>
      <trkpt lat="47.2257" lon="-1.55494">
        <ele>9.8000001907349</ele>
        <time>2019-04-02T07:57:32.000Z</time>
      </trkpt>
      <trkpt lat="47.2257" lon="-1.55493">
        <ele>9.8000001907349</ele>
        <time>2019-04-02T07:57:33.000Z</time>
      </trkpt>
      <trkpt lat="47.2257" lon="-1.55493">
        <ele>9.6000003814697</ele>
        <time>2019-04-02T07:57:34.000Z</time>
      </trkpt>
      <trkpt lat="47.22571" lon="-1.55492">
        <ele>9.6000003814697</ele>
        <time>2019-04-02T07:57:35.000Z</time>
      </trkpt>
      <trkpt lat="47.22571" lon="-1.5549">
        <ele>9.3999996185303</ele>
        <time>2019-04-02T07:57:36.000Z</time>
      </trkpt>
      <trkpt lat="47.2257" lon="-1.55488">
        <ele>9.1999998092651</ele>
        <time>2019-04-02T07:57:37.000Z</time>
      </trkpt>
      <trkpt lat="47.2257" lon="-1.55488">
        <ele>9.1999998092651</ele>
        <time>2019-04-02T07:57:38.000Z</time>
      </trkpt>
      <trkpt lat="47.2257" lon="-1.55485">
        <ele>9</ele>
        <time>2019-04-02T07:57:39.000Z</time>
      </trkpt>
      <trkpt lat="47.2257" lon="-1.55485">
        <ele>9</ele>
        <time>2019-04-02T07:57:40.000Z</time>
      </trkpt>
      <trkpt lat="47.22569" lon="-1.55484">
        <ele>8.8000001907349</ele>
        <time>2019-04-02T07:57:41.000Z</time>
      </trkpt>
      <trkpt lat="47.22569" lon="-1.55482">
        <ele>8.8000001907349</ele>
        <time>2019-04-02T07:57:42.000Z</time>
      </trkpt>
      <trkpt lat="47.22569" lon="-1.55482">
        <ele>8.8000001907349</ele>
        <time>2019-04-02T07:57:43.000Z</time>
      </trkpt>
      <trkpt lat="47.22569" lon="-1.5548">
        <ele>8.8000001907349</ele>
        <time>2019-04-02T07:57:44.000Z</time>
      </trkpt>
      <trkpt lat="47.22568" lon="-1.55479">
        <ele>8.8000001907349</ele>
        <time>2019-04-02T07:57:45.000Z</time>
      </trkpt>
      <trkpt lat="47.22568" lon="-1.55478">
        <ele>8.8000001907349</ele>
        <time>2019-04-02T07:57:46.000Z</time>
      </trkpt>
      <trkpt lat="47.22568" lon="-1.55477">
        <ele>8.8000001907349</ele>
        <time>2019-04-02T07:57:47.000Z</time>
      </trkpt>
      <trkpt lat="47.22568" lon="-1.55476">
        <ele>8.8000001907349</ele>
        <time>2019-04-02T07:57:48.000Z</time>
      </trkpt>
      <trkpt lat="47.22567" lon="-1.55475">
        <ele>8.8000001907349</ele>
        <time>2019-04-02T07:57:49.000Z</time>
      </trkpt>
      <trkpt lat="47.22567" lon="-1.55474">
        <ele>8.8000001907349</ele>
        <time>2019-04-02T07:57:50.000Z</time>
      </trkpt>
      <trkpt lat="47.22567" lon="-1.55473">
        <ele>8.8000001907349</ele>
        <time>2019-04-02T07:57:51.000Z</time>
      </trkpt>
      <trkpt lat="47.22567" lon="-1.55471">
        <ele>8.6000003814697</ele>
        <time>2019-04-02T07:57:52.000Z</time>
      </trkpt>
      <trkpt lat="47.22566" lon="-1.55469">
        <ele>8.6000003814697</ele>
        <time>2019-04-02T07:57:53.000Z</time>
      </trkpt>
      <trkpt lat="47.22566" lon="-1.55468">
        <ele>8.6000003814697</ele>
        <time>2019-04-02T07:57:54.000Z</time>
      </trkpt>
      <trkpt lat="47.22566" lon="-1.55466">
        <ele>8.6000003814697</ele>
        <time>2019-04-02T07:57:55.000Z</time>
      </trkpt>
      <trkpt lat="47.22565" lon="-1.55465">
        <ele>8.6000003814697</ele>
        <time>2019-04-02T07:57:56.000Z</time>
      </trkpt>
      <trkpt lat="47.22564" lon="-1.55462">
        <ele>8.6000003814697</ele>
        <time>2019-04-02T07:57:57.000Z</time>
      </trkpt>
      <trkpt lat="47.22564" lon="-1.55461">
        <ele>8.6000003814697</ele>
        <time>2019-04-02T07:57:58.000Z</time>
      </trkpt>
      <trkpt lat="47.22564" lon="-1.55459">
        <ele>8.6000003814697</ele>
        <time>2019-04-02T07:57:59.000Z</time>
      </trkpt>
      <trkpt lat="47.22564" lon="-1.55458">
        <ele>8.6000003814697</ele>
        <time>2019-04-02T07:58:00.000Z</time>
      </trkpt>
      <trkpt lat="47.22564" lon="-1.55456">
        <ele>8.3999996185303</ele>
        <time>2019-04-02T07:58:01.000Z</time>
      </trkpt>
      <trkpt lat="47.22565" lon="-1.55455">
        <ele>8.3999996185303</ele>
        <time>2019-04-02T07:58:02.000Z</time>
      </trkpt>
      <trkpt lat="47.22567" lon="-1.55453">
        <ele>8.3999996185303</ele>
        <time>2019-04-02T07:58:03.000Z</time>
      </trkpt>
      <trkpt lat="47.22567" lon="-1.55453">
        <ele>8.3999996185303</ele>
        <time>2019-04-02T07:58:04.000Z</time>
      </trkpt>
      <trkpt lat="47.22567" lon="-1.55452">
        <ele>8.3999996185303</ele>
        <time>2019-04-02T07:58:05.000Z</time>
      </trkpt>
      <trkpt lat="47.22568" lon="-1.55451">
        <ele>8.3999996185303</ele>
        <time>2019-04-02T07:58:06.000Z</time>
      </trkpt>
      <trkpt lat="47.22568" lon="-1.55449">
        <ele>8.3999996185303</ele>
        <time>2019-04-02T07:58:07.000Z</time>
      </trkpt>
      <trkpt lat="47.22569" lon="-1.55449">
        <ele>8.3999996185303</ele>
        <time>2019-04-02T07:58:08.000Z</time>
      </trkpt>
      <trkpt lat="47.22569" lon="-1.55447">
        <ele>8.3999996185303</ele>
        <time>2019-04-02T07:58:09.000Z</time>
      </trkpt>
      <trkpt lat="47.22569" lon="-1.55445">
        <ele>8.3999996185303</ele>
        <time>2019-04-02T07:58:10.000Z</time>
      </trkpt>
      <trkpt lat="47.22569" lon="-1.55443">
        <ele>8.3999996185303</ele>
        <time>2019-04-02T07:58:11.000Z</time>
      </trkpt>
      <trkpt lat="47.22568" lon="-1.55441">
        <ele>8.3999996185303</ele>
        <time>2019-04-02T07:58:12.000Z</time>
      </trkpt>
      <trkpt lat="47.22568" lon="-1.5544">
        <ele>8.3999996185303</ele>
        <time>2019-04-02T07:58:13.000Z</time>
      </trkpt>
      <trkpt lat="47.22567" lon="-1.55438">
        <ele>8.3999996185303</ele>
        <time>2019-04-02T07:58:14.000Z</time>
      </trkpt>
      <trkpt lat="47.22566" lon="-1.55437">
        <ele>8.1999998092651</ele>
        <time>2019-04-02T07:58:15.000Z</time>
      </trkpt>
      <trkpt lat="47.22565" lon="-1.55435">
        <ele>8.1999998092651</ele>
        <time>2019-04-02T07:58:16.000Z</time>
      </trkpt>
      <trkpt lat="47.22565" lon="-1.55434">
        <ele>8.1999998092651</ele>
        <time>2019-04-02T07:58:17.000Z</time>
      </trkpt>
      <trkpt lat="47.22564" lon="-1.55433">
        <ele>8.1999998092651</ele>
        <time>2019-04-02T07:58:18.000Z</time>
      </trkpt>
      <trkpt lat="47.22563" lon="-1.55432">
        <ele>8.1999998092651</ele>
        <time>2019-04-02T07:58:19.000Z</time>
      </trkpt>
      <trkpt lat="47.22562" lon="-1.55431">
        <ele>8.1999998092651</ele>
        <time>2019-04-02T07:58:20.000Z</time>
      </trkpt>
      <trkpt lat="47.22561" lon="-1.5543">
        <ele>8.1999998092651</ele>
        <time>2019-04-02T07:58:21.000Z</time>
      </trkpt>
      <trkpt lat="47.22561" lon="-1.55429">
        <ele>8.1999998092651</ele>
        <time>2019-04-02T07:58:22.000Z</time>
      </trkpt>
      <trkpt lat="47.2256" lon="-1.55428">
        <ele>8</ele>
        <time>2019-04-02T07:58:23.000Z</time>
      </trkpt>
      <trkpt lat="47.22559" lon="-1.55427">
        <ele>8</ele>
        <time>2019-04-02T07:58:24.000Z</time>
      </trkpt>
      <trkpt lat="47.22558" lon="-1.55426">
        <ele>8</ele>
        <time>2019-04-02T07:58:25.000Z</time>
      </trkpt>
      <trkpt lat="47.22557" lon="-1.55425">
        <ele>8</ele>
        <time>2019-04-02T07:58:26.000Z</time>
      </trkpt>
      <trkpt lat="47.22557" lon="-1.55425">
        <ele>8</ele>
        <time>2019-04-02T07:58:27.000Z</time>
      </trkpt>
      <trkpt lat="47.22556" lon="-1.55424">
        <ele>8</ele>
        <time>2019-04-02T07:58:28.000Z</time>
      </trkpt>
      <trkpt lat="47.22555" lon="-1.55423">
        <ele>8</ele>
        <time>2019-04-02T07:58:29.000Z</time>
      </trkpt>
      <trkpt lat="47.22555" lon="-1.55423">
        <ele>8</ele>
        <time>2019-04-02T07:58:30.000Z</time>
      </trkpt>
      <trkpt lat="47.22554" lon="-1.55423">
        <ele>8</ele>
        <time>2019-04-02T07:58:31.000Z</time>
      </trkpt>
      <trkpt lat="47.22554" lon="-1.55422">
        <ele>8</ele>
        <time>2019-04-02T07:58:32.000Z</time>
      </trkpt>
      <trkpt lat="47.22552" lon="-1.55422">
        <ele>8</ele>
        <time>2019-04-02T07:58:33.000Z</time>
      </trkpt>
      <trkpt lat="47.22551" lon="-1.55422">
        <ele>8</ele>
        <time>2019-04-02T07:58:34.000Z</time>
      </trkpt>
      <trkpt lat="47.2255" lon="-1.55422">
        <ele>8</ele>
        <time>2019-04-02T07:58:35.000Z</time>
      </trkpt>
      <trkpt lat="47.22549" lon="-1.55422">
        <ele>7.8000001907349</ele>
        <time>2019-04-02T07:58:36.000Z</time>
      </trkpt>
      <trkpt lat="47.22547" lon="-1.55423">
        <ele>7.8000001907349</ele>
        <time>2019-04-02T07:58:37.000Z</time>
      </trkpt>
      <trkpt lat="47.22546" lon="-1.55423">
        <ele>7.8000001907349</ele>
        <time>2019-04-02T07:58:38.000Z</time>
      </trkpt>
      <trkpt lat="47.22545" lon="-1.55423">
        <ele>7.8000001907349</ele>
        <time>2019-04-02T07:58:39.000Z</time>
      </trkpt>
      <trkpt lat="47.22544" lon="-1.55422">
        <ele>7.8000001907349</ele>
        <time>2019-04-02T07:58:40.000Z</time>
      </trkpt>
      <trkpt lat="47.22542" lon="-1.55422">
        <ele>7.8000001907349</ele>
        <time>2019-04-02T07:58:41.000Z</time>
      </trkpt>
      <trkpt lat="47.22541" lon="-1.5542">
        <ele>7.8000001907349</ele>
        <time>2019-04-02T07:58:42.000Z</time>
      </trkpt>
      <trkpt lat="47.2254" lon="-1.55419">
        <ele>7.8000001907349</ele>
        <time>2019-04-02T07:58:43.000Z</time>
      </trkpt>
      <trkpt lat="47.22539" lon="-1.55417">
        <ele>7.8000001907349</ele>
        <time>2019-04-02T07:58:44.000Z</time>
      </trkpt>
      <trkpt lat="47.22539" lon="-1.55416">
        <ele>7.8000001907349</ele>
        <time>2019-04-02T07:58:45.000Z</time>
      </trkpt>
      <trkpt lat="47.22538" lon="-1.55415">
        <ele>7.5999999046326</ele>
        <time>2019-04-02T07:58:46.000Z</time>
      </trkpt>
      <trkpt lat="47.22539" lon="-1.55413">
        <ele>7.5999999046326</ele>
        <time>2019-04-02T07:58:47.000Z</time>
      </trkpt>
      <trkpt lat="47.2254" lon="-1.55412">
        <ele>7.5999999046326</ele>
        <time>2019-04-02T07:58:48.000Z</time>
      </trkpt>
      <trkpt lat="47.22541" lon="-1.55409">
        <ele>7.5999999046326</ele>
        <time>2019-04-02T07:58:49.000Z</time>
      </trkpt>
      <trkpt lat="47.22541" lon="-1.55409">
        <ele>7.5999999046326</ele>
        <time>2019-04-02T07:58:50.000Z</time>
      </trkpt>
      <trkpt lat="47.22541" lon="-1.55408">
        <ele>7.5999999046326</ele>
        <time>2019-04-02T07:58:51.000Z</time>
      </trkpt>
      <trkpt lat="47.22542" lon="-1.55406">
        <ele>7.5999999046326</ele>
        <time>2019-04-02T07:58:52.000Z</time>
      </trkpt>
      <trkpt lat="47.22542" lon="-1.55405">
        <ele>7.5999999046326</ele>
        <time>2019-04-02T07:58:53.000Z</time>
      </trkpt>
      <trkpt lat="47.22542" lon="-1.55403">
        <ele>7.5999999046326</ele>
        <time>2019-04-02T07:58:54.000Z</time>
      </trkpt>
      <trkpt lat="47.22542" lon="-1.55402">
        <ele>7.5999999046326</ele>
        <time>2019-04-02T07:58:55.000Z</time>
      </trkpt>
      <trkpt lat="47.22542" lon="-1.55401">
        <ele>7.5999999046326</ele>
        <time>2019-04-02T07:58:56.000Z</time>
      </trkpt>
      <trkpt lat="47.22543" lon="-1.55399">
        <ele>7.5999999046326</ele>
        <time>2019-04-02T07:58:57.000Z</time>
      </trkpt>
      <trkpt lat="47.22543" lon="-1.55398">
        <ele>7.5999999046326</ele>
        <time>2019-04-02T07:58:58.000Z</time>
      </trkpt>
      <trkpt lat="47.22543" lon="-1.55397">
        <ele>7.8000001907349</ele>
        <time>2019-04-02T07:58:59.000Z</time>
      </trkpt>
      <trkpt lat="47.22543" lon="-1.55395">
        <ele>7.8000001907349</ele>
        <time>2019-04-02T07:59:00.000Z</time>
      </trkpt>
      <trkpt lat="47.22544" lon="-1.55393">
        <ele>7.8000001907349</ele>
        <time>2019-04-02T07:59:01.000Z</time>
      </trkpt>
      <trkpt lat="47.22544" lon="-1.55393">
        <ele>7.8000001907349</ele>
        <time>2019-04-02T07:59:02.000Z</time>
      </trkpt>
      <trkpt lat="47.22544" lon="-1.55392">
        <ele>7.8000001907349</ele>
        <time>2019-04-02T07:59:03.000Z</time>
      </trkpt>
      <trkpt lat="47.22544" lon="-1.55392">
        <ele>8</ele>
        <time>2019-04-02T07:59:04.000Z</time>
      </trkpt>
      <trkpt lat="47.22544" lon="-1.55391">
        <ele>8</ele>
        <time>2019-04-02T07:59:05.000Z</time>
      </trkpt>
      <trkpt lat="47.22544" lon="-1.55391">
        <ele>8</ele>
        <time>2019-04-02T07:59:06.000Z</time>
      </trkpt>
      <trkpt lat="47.22547" lon="-1.55321">
        <ele>9.8000001907349</ele>
        <time>2019-04-02T08:08:51.000Z</time>
      </trkpt>
      <trkpt lat="47.22548" lon="-1.55321">
        <ele>9.8000001907349</ele>
        <time>2019-04-02T08:08:52.000Z</time>
      </trkpt>
      <trkpt lat="47.22549" lon="-1.55321">
        <ele>9.8000001907349</ele>
        <time>2019-04-02T08:08:53.000Z</time>
      </trkpt>
      <trkpt lat="47.2255" lon="-1.55322">
        <ele>10</ele>
        <time>2019-04-02T08:08:54.000Z</time>
      </trkpt>
      <trkpt lat="47.22551" lon="-1.55323">
        <ele>10</ele>
        <time>2019-04-02T08:08:55.000Z</time>
      </trkpt>
      <trkpt lat="47.22552" lon="-1.55324">
        <ele>10</ele>
        <time>2019-04-02T08:08:56.000Z</time>
      </trkpt>
      <trkpt lat="47.22553" lon="-1.55324">
        <ele>10</ele>
        <time>2019-04-02T08:08:57.000Z</time>
      </trkpt>
      <trkpt lat="47.22555" lon="-1.55324">
        <ele>10</ele>
        <time>2019-04-02T08:08:58.000Z</time>
      </trkpt>
      <trkpt lat="47.22556" lon="-1.55324">
        <ele>10</ele>
        <time>2019-04-02T08:08:59.000Z</time>
      </trkpt>
      <trkpt lat="47.22557" lon="-1.55325">
        <ele>10.199999809265</ele>
        <time>2019-04-02T08:09:00.000Z</time>
      </trkpt>
      <trkpt lat="47.22558" lon="-1.55325">
        <ele>10.199999809265</ele>
        <time>2019-04-02T08:09:01.000Z</time>
      </trkpt>
      <trkpt lat="47.22559" lon="-1.55326">
        <ele>10.199999809265</ele>
        <time>2019-04-02T08:09:02.000Z</time>
      </trkpt>
      <trkpt lat="47.2256" lon="-1.55326">
        <ele>10.199999809265</ele>
        <time>2019-04-02T08:09:03.000Z</time>
      </trkpt>
      <trkpt lat="47.22562" lon="-1.55327">
        <ele>10.39999961853</ele>
        <time>2019-04-02T08:09:04.000Z</time>
      </trkpt>
      <trkpt lat="47.22562" lon="-1.55327">
        <ele>10.39999961853</ele>
        <time>2019-04-02T08:09:05.000Z</time>
      </trkpt>
      <trkpt lat="47.22563" lon="-1.55327">
        <ele>10.39999961853</ele>
        <time>2019-04-02T08:09:06.000Z</time>
      </trkpt>
      <trkpt lat="47.22564" lon="-1.55327">
        <ele>10.39999961853</ele>
        <time>2019-04-02T08:09:07.000Z</time>
      </trkpt>
      <trkpt lat="47.22566" lon="-1.55328">
        <ele>10.39999961853</ele>
        <time>2019-04-02T08:09:08.000Z</time>
      </trkpt>
      <trkpt lat="47.22567" lon="-1.55328">
        <ele>10.39999961853</ele>
        <time>2019-04-02T08:09:09.000Z</time>
      </trkpt>
      <trkpt lat="47.22569" lon="-1.55328">
        <ele>10.39999961853</ele>
        <time>2019-04-02T08:09:10.000Z</time>
      </trkpt>
      <trkpt lat="47.22569" lon="-1.55328">
        <ele>10.39999961853</ele>
        <time>2019-04-02T08:09:11.000Z</time>
      </trkpt>
      <trkpt lat="47.22571" lon="-1.55329">
        <ele>10.39999961853</ele>
        <time>2019-04-02T08:09:12.000Z</time>
      </trkpt>
      <trkpt lat="47.22572" lon="-1.55329">
        <ele>10.39999961853</ele>
        <time>2019-04-02T08:09:13.000Z</time>
      </trkpt>
      <trkpt lat="47.22573" lon="-1.5533">
        <ele>10.39999961853</ele>
        <time>2019-04-02T08:09:14.000Z</time>
      </trkpt>
      <trkpt lat="47.22575" lon="-1.5533">
        <ele>10.60000038147</ele>
        <time>2019-04-02T08:09:15.000Z</time>
      </trkpt>
      <trkpt lat="47.22576" lon="-1.5533">
        <ele>10.60000038147</ele>
        <time>2019-04-02T08:09:16.000Z</time>
      </trkpt>
      <trkpt lat="47.22577" lon="-1.5533">
        <ele>10.60000038147</ele>
        <time>2019-04-02T08:09:17.000Z</time>
      </trkpt>
      <trkpt lat="47.22578" lon="-1.5533">
        <ele>10.60000038147</ele>
        <time>2019-04-02T08:09:18.000Z</time>
      </trkpt>
      <trkpt lat="47.2258" lon="-1.5533">
        <ele>10.60000038147</ele>
        <time>2019-04-02T08:09:19.000Z</time>
      </trkpt>
      <trkpt lat="47.22581" lon="-1.5533">
        <ele>10.60000038147</ele>
        <time>2019-04-02T08:09:20.000Z</time>
      </trkpt>
      <trkpt lat="47.22582" lon="-1.5533">
        <ele>10.60000038147</ele>
        <time>2019-04-02T08:09:21.000Z</time>
      </trkpt>
      <trkpt lat="47.22583" lon="-1.5533">
        <ele>10.60000038147</ele>
        <time>2019-04-02T08:09:22.000Z</time>
      </trkpt>
      <trkpt lat="47.22584" lon="-1.55331">
        <ele>10.60000038147</ele>
        <time>2019-04-02T08:09:23.000Z</time>
      </trkpt>
      <trkpt lat="47.22586" lon="-1.55331">
        <ele>10.60000038147</ele>
        <time>2019-04-02T08:09:24.000Z</time>
      </trkpt>
      <trkpt lat="47.22588" lon="-1.55332">
        <ele>10.60000038147</ele>
        <time>2019-04-02T08:09:25.000Z</time>
      </trkpt>
      <trkpt lat="47.22588" lon="-1.55332">
        <ele>10.60000038147</ele>
        <time>2019-04-02T08:09:26.000Z</time>
      </trkpt>
      <trkpt lat="47.22589" lon="-1.55332">
        <ele>10.60000038147</ele>
        <time>2019-04-02T08:09:27.000Z</time>
      </trkpt>
      <trkpt lat="47.2259" lon="-1.55333">
        <ele>10.60000038147</ele>
        <time>2019-04-02T08:09:28.000Z</time>
      </trkpt>
      <trkpt lat="47.22592" lon="-1.55333">
        <ele>10.60000038147</ele>
        <time>2019-04-02T08:09:29.000Z</time>
      </trkpt>
      <trkpt lat="47.22593" lon="-1.55333">
        <ele>10.60000038147</ele>
        <time>2019-04-02T08:09:30.000Z</time>
      </trkpt>
      <trkpt lat="47.22594" lon="-1.55334">
        <ele>10.60000038147</ele>
        <time>2019-04-02T08:09:31.000Z</time>
      </trkpt>
      <trkpt lat="47.22595" lon="-1.55334">
        <ele>10.60000038147</ele>
        <time>2019-04-02T08:09:32.000Z</time>
      </trkpt>
      <trkpt lat="47.22596" lon="-1.55334">
        <ele>10.60000038147</ele>
        <time>2019-04-02T08:09:33.000Z</time>
      </trkpt>
      <trkpt lat="47.22597" lon="-1.55334">
        <ele>10.60000038147</ele>
        <time>2019-04-02T08:09:34.000Z</time>
      </trkpt>
      <trkpt lat="47.22599" lon="-1.55334">
        <ele>10.60000038147</ele>
        <time>2019-04-02T08:09:35.000Z</time>
      </trkpt>
      <trkpt lat="47.226" lon="-1.55335">
        <ele>10.60000038147</ele>
        <time>2019-04-02T08:09:36.000Z</time>
      </trkpt>
      <trkpt lat="47.22601" lon="-1.55335">
        <ele>10.60000038147</ele>
        <time>2019-04-02T08:09:37.000Z</time>
      </trkpt>
      <trkpt lat="47.22602" lon="-1.55336">
        <ele>10.60000038147</ele>
        <time>2019-04-02T08:09:38.000Z</time>
      </trkpt>
      <trkpt lat="47.22604" lon="-1.55336">
        <ele>10.60000038147</ele>
        <time>2019-04-02T08:09:39.000Z</time>
      </trkpt>
      <trkpt lat="47.22605" lon="-1.55336">
        <ele>10.60000038147</ele>
        <time>2019-04-02T08:09:40.000Z</time>
      </trkpt>
      <trkpt lat="47.22606" lon="-1.55337">
        <ele>10.60000038147</ele>
        <time>2019-04-02T08:09:41.000Z</time>
      </trkpt>
      <trkpt lat="47.22607" lon="-1.55337">
        <ele>10.60000038147</ele>
        <time>2019-04-02T08:09:42.000Z</time>
      </trkpt>
      <trkpt lat="47.22608" lon="-1.55337">
        <ele>10.60000038147</ele>
        <time>2019-04-02T08:09:43.000Z</time>
      </trkpt>
      <trkpt lat="47.22609" lon="-1.55337">
        <ele>10.60000038147</ele>
        <time>2019-04-02T08:09:44.000Z</time>
      </trkpt>
      <trkpt lat="47.2261" lon="-1.55337">
        <ele>10.60000038147</ele>
        <time>2019-04-02T08:09:45.000Z</time>
      </trkpt>
      <trkpt lat="47.22611" lon="-1.55336">
        <ele>10.800000190735</ele>
        <time>2019-04-02T08:09:46.000Z</time>
      </trkpt>
      <trkpt lat="47.22613" lon="-1.55336">
        <ele>10.800000190735</ele>
        <time>2019-04-02T08:09:47.000Z</time>
      </trkpt>
      <trkpt lat="47.22614" lon="-1.55336">
        <ele>10.800000190735</ele>
        <time>2019-04-02T08:09:48.000Z</time>
      </trkpt>
      <trkpt lat="47.22615" lon="-1.55336">
        <ele>10.800000190735</ele>
        <time>2019-04-02T08:09:49.000Z</time>
      </trkpt>
      <trkpt lat="47.22616" lon="-1.55336">
        <ele>10.800000190735</ele>
        <time>2019-04-02T08:09:50.000Z</time>
      </trkpt>
      <trkpt lat="47.22617" lon="-1.55336">
        <ele>10.800000190735</ele>
        <time>2019-04-02T08:09:51.000Z</time>
      </trkpt>
      <trkpt lat="47.22619" lon="-1.55336">
        <ele>10.800000190735</ele>
        <time>2019-04-02T08:09:52.000Z</time>
      </trkpt>
      <trkpt lat="47.2262" lon="-1.55337">
        <ele>10.800000190735</ele>
        <time>2019-04-02T08:09:53.000Z</time>
      </trkpt>
      <trkpt lat="47.22621" lon="-1.55337">
        <ele>10.800000190735</ele>
        <time>2019-04-02T08:09:54.000Z</time>
      </trkpt>
      <trkpt lat="47.22622" lon="-1.55337">
        <ele>10.800000190735</ele>
        <time>2019-04-02T08:09:55.000Z</time>
      </trkpt>
      <trkpt lat="47.22624" lon="-1.55338">
        <ele>10.800000190735</ele>
        <time>2019-04-02T08:09:56.000Z</time>
      </trkpt>
      <trkpt lat="47.22624" lon="-1.55338">
        <ele>10.800000190735</ele>
        <time>2019-04-02T08:09:57.000Z</time>
      </trkpt>
      <trkpt lat="47.22625" lon="-1.55338">
        <ele>10.800000190735</ele>
        <time>2019-04-02T08:09:58.000Z</time>
      </trkpt>
      <trkpt lat="47.22626" lon="-1.55338">
        <ele>10.800000190735</ele>
        <time>2019-04-02T08:09:59.000Z</time>
      </trkpt>
      <trkpt lat="47.22627" lon="-1.55338">
        <ele>10.800000190735</ele>
        <time>2019-04-02T08:10:00.000Z</time>
      </trkpt>
      <trkpt lat="47.22629" lon="-1.55339">
        <ele>10.800000190735</ele>
        <time>2019-04-02T08:10:01.000Z</time>
      </trkpt>
      <trkpt lat="47.2263" lon="-1.55339">
        <ele>10.800000190735</ele>
        <time>2019-04-02T08:10:02.000Z</time>
      </trkpt>
      <trkpt lat="47.22632" lon="-1.55339">
        <ele>10.800000190735</ele>
        <time>2019-04-02T08:10:03.000Z</time>
      </trkpt>
      <trkpt lat="47.22634" lon="-1.55339">
        <ele>10.800000190735</ele>
        <time>2019-04-02T08:10:04.000Z</time>
      </trkpt>
      <trkpt lat="47.22634" lon="-1.55339">
        <ele>10.800000190735</ele>
        <time>2019-04-02T08:10:05.000Z</time>
      </trkpt>
      <trkpt lat="47.22635" lon="-1.55339">
        <ele>10.800000190735</ele>
        <time>2019-04-02T08:10:06.000Z</time>
      </trkpt>
      <trkpt lat="47.22637" lon="-1.55339">
        <ele>11</ele>
        <time>2019-04-02T08:10:07.000Z</time>
      </trkpt>
      <trkpt lat="47.22638" lon="-1.5534">
        <ele>11</ele>
        <time>2019-04-02T08:10:08.000Z</time>
      </trkpt>
      <trkpt lat="47.22639" lon="-1.5534">
        <ele>11</ele>
        <time>2019-04-02T08:10:09.000Z</time>
      </trkpt>
      <trkpt lat="47.22641" lon="-1.55341">
        <ele>11</ele>
        <time>2019-04-02T08:10:10.000Z</time>
      </trkpt>
      <trkpt lat="47.22642" lon="-1.55341">
        <ele>11</ele>
        <time>2019-04-02T08:10:11.000Z</time>
      </trkpt>
      <trkpt lat="47.22643" lon="-1.55342">
        <ele>11</ele>
        <time>2019-04-02T08:10:12.000Z</time>
      </trkpt>
      <trkpt lat="47.22645" lon="-1.55342">
        <ele>11</ele>
        <time>2019-04-02T08:10:13.000Z</time>
      </trkpt>
      <trkpt lat="47.22646" lon="-1.55342">
        <ele>11</ele>
        <time>2019-04-02T08:10:14.000Z</time>
      </trkpt>
      <trkpt lat="47.22647" lon="-1.55342">
        <ele>11</ele>
        <time>2019-04-02T08:10:15.000Z</time>
      </trkpt>
      <trkpt lat="47.22649" lon="-1.55342">
        <ele>11</ele>
        <time>2019-04-02T08:10:16.000Z</time>
      </trkpt>
      <trkpt lat="47.2265" lon="-1.55342">
        <ele>11.199999809265</ele>
        <time>2019-04-02T08:10:17.000Z</time>
      </trkpt>
      <trkpt lat="47.22651" lon="-1.55343">
        <ele>11.199999809265</ele>
        <time>2019-04-02T08:10:18.000Z</time>
      </trkpt>
      <trkpt lat="47.22652" lon="-1.55343">
        <ele>11.199999809265</ele>
        <time>2019-04-02T08:10:19.000Z</time>
      </trkpt>
      <trkpt lat="47.22653" lon="-1.55343">
        <ele>11.199999809265</ele>
        <time>2019-04-02T08:10:20.000Z</time>
      </trkpt>
      <trkpt lat="47.22654" lon="-1.55343">
        <ele>11.199999809265</ele>
        <time>2019-04-02T08:10:21.000Z</time>
      </trkpt>
      <trkpt lat="47.22656" lon="-1.55343">
        <ele>11.199999809265</ele>
        <time>2019-04-02T08:10:22.000Z</time>
      </trkpt>
      <trkpt lat="47.22657" lon="-1.55343">
        <ele>11.199999809265</ele>
        <time>2019-04-02T08:10:23.000Z</time>
      </trkpt>
      <trkpt lat="47.22658" lon="-1.55344">
        <ele>11.199999809265</ele>
        <time>2019-04-02T08:10:24.000Z</time>
      </trkpt>
      <trkpt lat="47.22659" lon="-1.55344">
        <ele>11.199999809265</ele>
        <time>2019-04-02T08:10:25.000Z</time>
      </trkpt>
      <trkpt lat="47.2266" lon="-1.55345">
        <ele>11.199999809265</ele>
        <time>2019-04-02T08:10:26.000Z</time>
      </trkpt>
      <trkpt lat="47.22661" lon="-1.55345">
        <ele>11.39999961853</ele>
        <time>2019-04-02T08:10:27.000Z</time>
      </trkpt>
      <trkpt lat="47.22663" lon="-1.55345">
        <ele>11.39999961853</ele>
        <time>2019-04-02T08:10:28.000Z</time>
      </trkpt>
      <trkpt lat="47.22664" lon="-1.55345">
        <ele>11.199999809265</ele>
        <time>2019-04-02T08:10:29.000Z</time>
      </trkpt>
      <trkpt lat="47.22665" lon="-1.55345">
        <ele>11.199999809265</ele>
        <time>2019-04-02T08:10:30.000Z</time>
      </trkpt>
      <trkpt lat="47.22665" lon="-1.55344">
        <ele>11</ele>
        <time>2019-04-02T08:10:31.000Z</time>
      </trkpt>
      <trkpt lat="47.22666" lon="-1.55344">
        <ele>11</ele>
        <time>2019-04-02T08:10:32.000Z</time>
      </trkpt>
      <trkpt lat="47.22666" lon="-1.55343">
        <ele>11</ele>
        <time>2019-04-02T08:10:33.000Z</time>
      </trkpt>
      <trkpt lat="47.22666" lon="-1.55342">
        <ele>11.199999809265</ele>
        <time>2019-04-02T08:10:34.000Z</time>
      </trkpt>
      <trkpt lat="47.22666" lon="-1.55341">
        <ele>11.199999809265</ele>
        <time>2019-04-02T08:10:35.000Z</time>
      </trkpt>
      <trkpt lat="47.22666" lon="-1.55339">
        <ele>11.199999809265</ele>
        <time>2019-04-02T08:10:36.000Z</time>
      </trkpt>
      <trkpt lat="47.22668" lon="-1.55338">
        <ele>11</ele>
        <time>2019-04-02T08:10:38.000Z</time>
      </trkpt>
      <trkpt lat="47.22668" lon="-1.55338">
        <ele>11</ele>
        <time>2019-04-02T08:10:39.000Z</time>
      </trkpt>
      <trkpt lat="47.2267" lon="-1.55337">
        <ele>10.800000190735</ele>
        <time>2019-04-02T08:10:40.000Z</time>
      </trkpt>
      <trkpt lat="47.22671" lon="-1.55337">
        <ele>10.800000190735</ele>
        <time>2019-04-02T08:10:41.000Z</time>
      </trkpt>
      <trkpt lat="47.22673" lon="-1.55337">
        <ele>10.60000038147</ele>
        <time>2019-04-02T08:10:42.000Z</time>
      </trkpt>
      <trkpt lat="47.22674" lon="-1.55337">
        <ele>10.60000038147</ele>
        <time>2019-04-02T08:10:43.000Z</time>
      </trkpt>
      <trkpt lat="47.22675" lon="-1.55338">
        <ele>10.39999961853</ele>
        <time>2019-04-02T08:10:44.000Z</time>
      </trkpt>
      <trkpt lat="47.22677" lon="-1.55338">
        <ele>10.39999961853</ele>
        <time>2019-04-02T08:10:45.000Z</time>
      </trkpt>
      <trkpt lat="47.22678" lon="-1.55338">
        <ele>10.199999809265</ele>
        <time>2019-04-02T08:10:46.000Z</time>
      </trkpt>
      <trkpt lat="47.22679" lon="-1.55338">
        <ele>10</ele>
        <time>2019-04-02T08:10:47.000Z</time>
      </trkpt>
      <trkpt lat="47.22681" lon="-1.55338">
        <ele>10</ele>
        <time>2019-04-02T08:10:48.000Z</time>
      </trkpt>
      <trkpt lat="47.22682" lon="-1.55338">
        <ele>9.8000001907349</ele>
        <time>2019-04-02T08:10:49.000Z</time>
      </trkpt>
      <trkpt lat="47.22683" lon="-1.55337">
        <ele>9.8000001907349</ele>
        <time>2019-04-02T08:10:50.000Z</time>
      </trkpt>
      <trkpt lat="47.22685" lon="-1.55337">
        <ele>9.6000003814697</ele>
        <time>2019-04-02T08:10:51.000Z</time>
      </trkpt>
      <trkpt lat="47.22686" lon="-1.55337">
        <ele>9.6000003814697</ele>
        <time>2019-04-02T08:10:52.000Z</time>
      </trkpt>
      <trkpt lat="47.22687" lon="-1.55336">
        <ele>9.3999996185303</ele>
        <time>2019-04-02T08:10:53.000Z</time>
      </trkpt>
      <trkpt lat="47.22689" lon="-1.55335">
        <ele>9.3999996185303</ele>
        <time>2019-04-02T08:10:54.000Z</time>
      </trkpt>
      <trkpt lat="47.2269" lon="-1.55334">
        <ele>9.1999998092651</ele>
        <time>2019-04-02T08:10:55.000Z</time>
      </trkpt>
      <trkpt lat="47.22691" lon="-1.55334">
        <ele>9.1999998092651</ele>
        <time>2019-04-02T08:10:56.000Z</time>
      </trkpt>
      <trkpt lat="47.22692" lon="-1.55333">
        <ele>9</ele>
        <time>2019-04-02T08:10:57.000Z</time>
      </trkpt>
      <trkpt lat="47.22694" lon="-1.55332">
        <ele>9</ele>
        <time>2019-04-02T08:10:58.000Z</time>
      </trkpt>
      <trkpt lat="47.22695" lon="-1.55332">
        <ele>9</ele>
        <time>2019-04-02T08:10:59.000Z</time>
      </trkpt>
      <trkpt lat="47.22696" lon="-1.55332">
        <ele>8.8000001907349</ele>
        <time>2019-04-02T08:11:00.000Z</time>
      </trkpt>
      <trkpt lat="47.22697" lon="-1.55332">
        <ele>8.8000001907349</ele>
        <time>2019-04-02T08:11:01.000Z</time>
      </trkpt>
      <trkpt lat="47.22699" lon="-1.55331">
        <ele>8.6000003814697</ele>
        <time>2019-04-02T08:11:02.000Z</time>
      </trkpt>
      <trkpt lat="47.227" lon="-1.5533">
        <ele>8.3999996185303</ele>
        <time>2019-04-02T08:11:03.000Z</time>
      </trkpt>
      <trkpt lat="47.22704" lon="-1.55329">
        <ele>8.1999998092651</ele>
        <time>2019-04-02T08:11:04.000Z</time>
      </trkpt>
      <trkpt lat="47.22704" lon="-1.55329">
        <ele>8.1999998092651</ele>
        <time>2019-04-02T08:11:05.000Z</time>
      </trkpt>
      <trkpt lat="47.22705" lon="-1.55328">
        <ele>8.1999998092651</ele>
        <time>2019-04-02T08:11:06.000Z</time>
      </trkpt>
      <trkpt lat="47.22706" lon="-1.55328">
        <ele>8</ele>
        <time>2019-04-02T08:11:07.000Z</time>
      </trkpt>
      <trkpt lat="47.22707" lon="-1.55328">
        <ele>8</ele>
        <time>2019-04-02T08:11:08.000Z</time>
      </trkpt>
      <trkpt lat="47.22708" lon="-1.55327">
        <ele>8</ele>
        <time>2019-04-02T08:11:09.000Z</time>
      </trkpt>
      <trkpt lat="47.2271" lon="-1.55326">
        <ele>7.8000001907349</ele>
        <time>2019-04-02T08:11:10.000Z</time>
      </trkpt>
      <trkpt lat="47.2271" lon="-1.55326">
        <ele>7.8000001907349</ele>
        <time>2019-04-02T08:11:11.000Z</time>
      </trkpt>
      <trkpt lat="47.22712" lon="-1.55325">
        <ele>7.5999999046326</ele>
        <time>2019-04-02T08:11:12.000Z</time>
      </trkpt>
      <trkpt lat="47.22714" lon="-1.55324">
        <ele>7.4000000953674</ele>
        <time>2019-04-02T08:11:13.000Z</time>
      </trkpt>
      <trkpt lat="47.22714" lon="-1.55324">
        <ele>7.4000000953674</ele>
        <time>2019-04-02T08:11:14.000Z</time>
      </trkpt>
      <trkpt lat="47.22715" lon="-1.55323">
        <ele>7.4000000953674</ele>
        <time>2019-04-02T08:11:15.000Z</time>
      </trkpt>
      <trkpt lat="47.22716" lon="-1.55322">
        <ele>7.4000000953674</ele>
        <time>2019-04-02T08:11:16.000Z</time>
      </trkpt>
      <trkpt lat="47.22717" lon="-1.55321">
        <ele>7.1999998092651</ele>
        <time>2019-04-02T08:11:17.000Z</time>
      </trkpt>
      <trkpt lat="47.22718" lon="-1.5532">
        <ele>7.1999998092651</ele>
        <time>2019-04-02T08:11:18.000Z</time>
      </trkpt>
      <trkpt lat="47.22719" lon="-1.55319">
        <ele>7.1999998092651</ele>
        <time>2019-04-02T08:11:19.000Z</time>
      </trkpt>
      <trkpt lat="47.22719" lon="-1.55318">
        <ele>7.1999998092651</ele>
        <time>2019-04-02T08:11:20.000Z</time>
      </trkpt>
      <trkpt lat="47.22721" lon="-1.55317">
        <ele>7.1999998092651</ele>
        <time>2019-04-02T08:11:21.000Z</time>
      </trkpt>
      <trkpt lat="47.22722" lon="-1.55316">
        <ele>7</ele>
        <time>2019-04-02T08:11:22.000Z</time>
      </trkpt>
      <trkpt lat="47.22723" lon="-1.55314">
        <ele>7</ele>
        <time>2019-04-02T08:11:23.000Z</time>
      </trkpt>
      <trkpt lat="47.22723" lon="-1.55314">
        <ele>7</ele>
        <time>2019-04-02T08:11:24.000Z</time>
      </trkpt>
      <trkpt lat="47.22724" lon="-1.55313">
        <ele>7</ele>
        <time>2019-04-02T08:11:25.000Z</time>
      </trkpt>
      <trkpt lat="47.22725" lon="-1.55313">
        <ele>7</ele>
        <time>2019-04-02T08:11:26.000Z</time>
      </trkpt>
      <trkpt lat="47.22726" lon="-1.55312">
        <ele>7</ele>
        <time>2019-04-02T08:11:27.000Z</time>
      </trkpt>
      <trkpt lat="47.22727" lon="-1.55311">
        <ele>6.8000001907349</ele>
        <time>2019-04-02T08:11:28.000Z</time>
      </trkpt>
      <trkpt lat="47.22728" lon="-1.5531">
        <ele>6.8000001907349</ele>
        <time>2019-04-02T08:11:29.000Z</time>
      </trkpt>
      <trkpt lat="47.22729" lon="-1.55309">
        <ele>6.8000001907349</ele>
        <time>2019-04-02T08:11:30.000Z</time>
      </trkpt>
      <trkpt lat="47.2273" lon="-1.55307">
        <ele>6.8000001907349</ele>
        <time>2019-04-02T08:11:31.000Z</time>
      </trkpt>
      <trkpt lat="47.22731" lon="-1.55306">
        <ele>6.8000001907349</ele>
        <time>2019-04-02T08:11:32.000Z</time>
      </trkpt>
      <trkpt lat="47.22732" lon="-1.55304">
        <ele>6.8000001907349</ele>
        <time>2019-04-02T08:11:33.000Z</time>
      </trkpt>
      <trkpt lat="47.22733" lon="-1.55303">
        <ele>6.8000001907349</ele>
        <time>2019-04-02T08:11:34.000Z</time>
      </trkpt>
      <trkpt lat="47.22733" lon="-1.55301">
        <ele>6.8000001907349</ele>
        <time>2019-04-02T08:11:35.000Z</time>
      </trkpt>
      <trkpt lat="47.22734" lon="-1.553">
        <ele>6.8000001907349</ele>
        <time>2019-04-02T08:11:36.000Z</time>
      </trkpt>
      <trkpt lat="47.22735" lon="-1.55298">
        <ele>6.8000001907349</ele>
        <time>2019-04-02T08:11:37.000Z</time>
      </trkpt>
      <trkpt lat="47.22736" lon="-1.55297">
        <ele>6.8000001907349</ele>
        <time>2019-04-02T08:11:38.000Z</time>
      </trkpt>
      <trkpt lat="47.22737" lon="-1.55295">
        <ele>6.8000001907349</ele>
        <time>2019-04-02T08:11:39.000Z</time>
      </trkpt>
      <trkpt lat="47.22738" lon="-1.55294">
        <ele>6.8000001907349</ele>
        <time>2019-04-02T08:11:40.000Z</time>
      </trkpt>
      <trkpt lat="47.22738" lon="-1.55292">
        <ele>6.8000001907349</ele>
        <time>2019-04-02T08:11:41.000Z</time>
      </trkpt>
      <trkpt lat="47.22739" lon="-1.55291">
        <ele>6.8000001907349</ele>
        <time>2019-04-02T08:11:42.000Z</time>
      </trkpt>
      <trkpt lat="47.2274" lon="-1.5529">
        <ele>6.8000001907349</ele>
        <time>2019-04-02T08:11:43.000Z</time>
      </trkpt>
      <trkpt lat="47.22741" lon="-1.55288">
        <ele>6.8000001907349</ele>
        <time>2019-04-02T08:11:44.000Z</time>
      </trkpt>
      <trkpt lat="47.22742" lon="-1.55287">
        <ele>6.8000001907349</ele>
        <time>2019-04-02T08:11:45.000Z</time>
      </trkpt>
      <trkpt lat="47.22742" lon="-1.55285">
        <ele>6.8000001907349</ele>
        <time>2019-04-02T08:11:46.000Z</time>
      </trkpt>
      <trkpt lat="47.22743" lon="-1.55283">
        <ele>6.8000001907349</ele>
        <time>2019-04-02T08:11:47.000Z</time>
      </trkpt>
      <trkpt lat="47.22744" lon="-1.55281">
        <ele>7</ele>
        <time>2019-04-02T08:11:48.000Z</time>
      </trkpt>
      <trkpt lat="47.22744" lon="-1.55279">
        <ele>7</ele>
        <time>2019-04-02T08:11:49.000Z</time>
      </trkpt>
      <trkpt lat="47.22745" lon="-1.55277">
        <ele>7</ele>
        <time>2019-04-02T08:11:50.000Z</time>
      </trkpt>
      <trkpt lat="47.22747" lon="-1.55273">
        <ele>7</ele>
        <time>2019-04-02T08:11:51.000Z</time>
      </trkpt>
      <trkpt lat="47.22747" lon="-1.55273">
        <ele>7</ele>
        <time>2019-04-02T08:11:52.000Z</time>
      </trkpt>
      <trkpt lat="47.22748" lon="-1.55272">
        <ele>7</ele>
        <time>2019-04-02T08:11:53.000Z</time>
      </trkpt>
      <trkpt lat="47.2275" lon="-1.5527">
        <ele>7.1999998092651</ele>
        <time>2019-04-02T08:11:54.000Z</time>
      </trkpt>
      <trkpt lat="47.22751" lon="-1.55268">
        <ele>7.1999998092651</ele>
        <time>2019-04-02T08:11:55.000Z</time>
      </trkpt>
      <trkpt lat="47.22751" lon="-1.55266">
        <ele>7.1999998092651</ele>
        <time>2019-04-02T08:11:56.000Z</time>
      </trkpt>
      <trkpt lat="47.22752" lon="-1.55265">
        <ele>7.1999998092651</ele>
        <time>2019-04-02T08:11:57.000Z</time>
      </trkpt>
      <trkpt lat="47.22753" lon="-1.55263">
        <ele>7.4000000953674</ele>
        <time>2019-04-02T08:11:58.000Z</time>
      </trkpt>
      <trkpt lat="47.22754" lon="-1.55262">
        <ele>7.4000000953674</ele>
        <time>2019-04-02T08:11:59.000Z</time>
      </trkpt>
      <trkpt lat="47.22755" lon="-1.5526">
        <ele>7.4000000953674</ele>
        <time>2019-04-02T08:12:00.000Z</time>
      </trkpt>
      <trkpt lat="47.22756" lon="-1.55258">
        <ele>7.4000000953674</ele>
        <time>2019-04-02T08:12:01.000Z</time>
      </trkpt>
      <trkpt lat="47.22757" lon="-1.55256">
        <ele>7.5999999046326</ele>
        <time>2019-04-02T08:12:02.000Z</time>
      </trkpt>
      <trkpt lat="47.22759" lon="-1.55254">
        <ele>7.5999999046326</ele>
        <time>2019-04-02T08:12:03.000Z</time>
      </trkpt>
      <trkpt lat="47.22759" lon="-1.55254">
        <ele>7.5999999046326</ele>
        <time>2019-04-02T08:12:04.000Z</time>
      </trkpt>
      <trkpt lat="47.2276" lon="-1.55252">
        <ele>7.5999999046326</ele>
        <time>2019-04-02T08:12:05.000Z</time>
      </trkpt>
      <trkpt lat="47.22761" lon="-1.55251">
        <ele>7.5999999046326</ele>
        <time>2019-04-02T08:12:06.000Z</time>
      </trkpt>
      <trkpt lat="47.22762" lon="-1.5525">
        <ele>7.5999999046326</ele>
        <time>2019-04-02T08:12:07.000Z</time>
      </trkpt>
      <trkpt lat="47.22763" lon="-1.55249">
        <ele>7.5999999046326</ele>
        <time>2019-04-02T08:12:08.000Z</time>
      </trkpt>
      <trkpt lat="47.22765" lon="-1.55249">
        <ele>7.5999999046326</ele>
        <time>2019-04-02T08:12:09.000Z</time>
      </trkpt>
      <trkpt lat="47.22766" lon="-1.55249">
        <ele>7.5999999046326</ele>
        <time>2019-04-02T08:12:10.000Z</time>
      </trkpt>
      <trkpt lat="47.22768" lon="-1.55248">
        <ele>7.5999999046326</ele>
        <time>2019-04-02T08:12:11.000Z</time>
      </trkpt>
      <trkpt lat="47.2277" lon="-1.55248">
        <ele>7.4000000953674</ele>
        <time>2019-04-02T08:12:12.000Z</time>
      </trkpt>
      <trkpt lat="47.22771" lon="-1.55248">
        <ele>7.4000000953674</ele>
        <time>2019-04-02T08:12:13.000Z</time>
      </trkpt>
      <trkpt lat="47.22772" lon="-1.55248">
        <ele>7.4000000953674</ele>
        <time>2019-04-02T08:12:14.000Z</time>
      </trkpt>
      <trkpt lat="47.22773" lon="-1.55247">
        <ele>7.4000000953674</ele>
        <time>2019-04-02T08:12:15.000Z</time>
      </trkpt>
      <trkpt lat="47.22774" lon="-1.55247">
        <ele>7.4000000953674</ele>
        <time>2019-04-02T08:12:16.000Z</time>
      </trkpt>
      <trkpt lat="47.22775" lon="-1.55246">
        <ele>7.4000000953674</ele>
        <time>2019-04-02T08:12:17.000Z</time>
      </trkpt>
      <trkpt lat="47.22776" lon="-1.55244">
        <ele>7.4000000953674</ele>
        <time>2019-04-02T08:12:18.000Z</time>
      </trkpt>
      <trkpt lat="47.22776" lon="-1.55242">
        <ele>7.4000000953674</ele>
        <time>2019-04-02T08:12:19.000Z</time>
      </trkpt>
      <trkpt lat="47.22777" lon="-1.5524">
        <ele>7.5999999046326</ele>
        <time>2019-04-02T08:12:20.000Z</time>
      </trkpt>
      <trkpt lat="47.22778" lon="-1.55238">
        <ele>7.5999999046326</ele>
        <time>2019-04-02T08:12:21.000Z</time>
      </trkpt>
      <trkpt lat="47.2278" lon="-1.55236">
        <ele>7.5999999046326</ele>
        <time>2019-04-02T08:12:22.000Z</time>
      </trkpt>
      <trkpt lat="47.2278" lon="-1.55236">
        <ele>7.5999999046326</ele>
        <time>2019-04-02T08:12:23.000Z</time>
      </trkpt>
      <trkpt lat="47.22781" lon="-1.55234">
        <ele>7.8000001907349</ele>
        <time>2019-04-02T08:12:24.000Z</time>
      </trkpt>
      <trkpt lat="47.22782" lon="-1.55233">
        <ele>7.5999999046326</ele>
        <time>2019-04-02T08:12:25.000Z</time>
      </trkpt>
      <trkpt lat="47.22783" lon="-1.55232">
        <ele>7.5999999046326</ele>
        <time>2019-04-02T08:12:26.000Z</time>
      </trkpt>
      <trkpt lat="47.22784" lon="-1.55231">
        <ele>7.5999999046326</ele>
        <time>2019-04-02T08:12:27.000Z</time>
      </trkpt>
      <trkpt lat="47.22785" lon="-1.5523">
        <ele>7.5999999046326</ele>
        <time>2019-04-02T08:12:28.000Z</time>
      </trkpt>
      <trkpt lat="47.22786" lon="-1.55229">
        <ele>7.5999999046326</ele>
        <time>2019-04-02T08:12:29.000Z</time>
      </trkpt>
      <trkpt lat="47.22788" lon="-1.55228">
        <ele>7.5999999046326</ele>
        <time>2019-04-02T08:12:30.000Z</time>
      </trkpt>
      <trkpt lat="47.22789" lon="-1.55227">
        <ele>7.5999999046326</ele>
        <time>2019-04-02T08:12:31.000Z</time>
      </trkpt>
      <trkpt lat="47.2279" lon="-1.55226">
        <ele>7.5999999046326</ele>
        <time>2019-04-02T08:12:32.000Z</time>
      </trkpt>
      <trkpt lat="47.22791" lon="-1.55225">
        <ele>7.5999999046326</ele>
        <time>2019-04-02T08:12:33.000Z</time>
      </trkpt>
      <trkpt lat="47.22792" lon="-1.55224">
        <ele>7.5999999046326</ele>
        <time>2019-04-02T08:12:34.000Z</time>
      </trkpt>
      <trkpt lat="47.22794" lon="-1.55222">
        <ele>7.5999999046326</ele>
        <time>2019-04-02T08:12:35.000Z</time>
      </trkpt>
      <trkpt lat="47.22794" lon="-1.55221">
        <ele>7.5999999046326</ele>
        <time>2019-04-02T08:12:36.000Z</time>
      </trkpt>
      <trkpt lat="47.22795" lon="-1.55219">
        <ele>7.5999999046326</ele>
        <time>2019-04-02T08:12:37.000Z</time>
      </trkpt>
      <trkpt lat="47.22796" lon="-1.55217">
        <ele>7.5999999046326</ele>
        <time>2019-04-02T08:12:38.000Z</time>
      </trkpt>
      <trkpt lat="47.22796" lon="-1.55215">
        <ele>7.5999999046326</ele>
        <time>2019-04-02T08:12:39.000Z</time>
      </trkpt>
      <trkpt lat="47.22797" lon="-1.55213">
        <ele>7.5999999046326</ele>
        <time>2019-04-02T08:12:40.000Z</time>
      </trkpt>
      <trkpt lat="47.22798" lon="-1.55211">
        <ele>7.5999999046326</ele>
        <time>2019-04-02T08:12:41.000Z</time>
      </trkpt>
      <trkpt lat="47.228" lon="-1.55207">
        <ele>7.5999999046326</ele>
        <time>2019-04-02T08:12:42.000Z</time>
      </trkpt>
      <trkpt lat="47.228" lon="-1.55207">
        <ele>7.5999999046326</ele>
        <time>2019-04-02T08:12:43.000Z</time>
      </trkpt>
      <trkpt lat="47.22801" lon="-1.55205">
        <ele>7.5999999046326</ele>
        <time>2019-04-02T08:12:44.000Z</time>
      </trkpt>
      <trkpt lat="47.22802" lon="-1.55203">
        <ele>7.5999999046326</ele>
        <time>2019-04-02T08:12:45.000Z</time>
      </trkpt>
      <trkpt lat="47.22804" lon="-1.55202">
        <ele>7.5999999046326</ele>
        <time>2019-04-02T08:12:46.000Z</time>
      </trkpt>
      <trkpt lat="47.22805" lon="-1.552">
        <ele>7.5999999046326</ele>
        <time>2019-04-02T08:12:47.000Z</time>
      </trkpt>
      <trkpt lat="47.22806" lon="-1.55199">
        <ele>7.5999999046326</ele>
        <time>2019-04-02T08:12:48.000Z</time>
      </trkpt>
      <trkpt lat="47.22808" lon="-1.55197">
        <ele>7.5999999046326</ele>
        <time>2019-04-02T08:12:49.000Z</time>
      </trkpt>
      <trkpt lat="47.22809" lon="-1.55196">
        <ele>7.5999999046326</ele>
        <time>2019-04-02T08:12:50.000Z</time>
      </trkpt>
      <trkpt lat="47.22811" lon="-1.55195">
        <ele>7.5999999046326</ele>
        <time>2019-04-02T08:12:51.000Z</time>
      </trkpt>
      <trkpt lat="47.22812" lon="-1.55193">
        <ele>7.5999999046326</ele>
        <time>2019-04-02T08:12:52.000Z</time>
      </trkpt>
      <trkpt lat="47.22813" lon="-1.55192">
        <ele>7.5999999046326</ele>
        <time>2019-04-02T08:12:53.000Z</time>
      </trkpt>
      <trkpt lat="47.22814" lon="-1.5519">
        <ele>7.5999999046326</ele>
        <time>2019-04-02T08:12:54.000Z</time>
      </trkpt>
      <trkpt lat="47.22815" lon="-1.55189">
        <ele>7.5999999046326</ele>
        <time>2019-04-02T08:12:55.000Z</time>
      </trkpt>
      <trkpt lat="47.22816" lon="-1.55187">
        <ele>7.5999999046326</ele>
        <time>2019-04-02T08:12:56.000Z</time>
      </trkpt>
      <trkpt lat="47.22818" lon="-1.55186">
        <ele>7.5999999046326</ele>
        <time>2019-04-02T08:12:57.000Z</time>
      </trkpt>
      <trkpt lat="47.22819" lon="-1.55184">
        <ele>7.5999999046326</ele>
        <time>2019-04-02T08:12:58.000Z</time>
      </trkpt>
      <trkpt lat="47.2282" lon="-1.55182">
        <ele>7.5999999046326</ele>
        <time>2019-04-02T08:12:59.000Z</time>
      </trkpt>
      <trkpt lat="47.22821" lon="-1.55181">
        <ele>7.5999999046326</ele>
        <time>2019-04-02T08:13:00.000Z</time>
      </trkpt>
      <trkpt lat="47.22821" lon="-1.5518">
        <ele>7.5999999046326</ele>
        <time>2019-04-02T08:13:01.000Z</time>
      </trkpt>
      <trkpt lat="47.22823" lon="-1.55177">
        <ele>7.5999999046326</ele>
        <time>2019-04-02T08:13:02.000Z</time>
      </trkpt>
      <trkpt lat="47.22823" lon="-1.55177">
        <ele>7.5999999046326</ele>
        <time>2019-04-02T08:13:03.000Z</time>
      </trkpt>
      <trkpt lat="47.22824" lon="-1.55175">
        <ele>7.5999999046326</ele>
        <time>2019-04-02T08:13:04.000Z</time>
      </trkpt>
      <trkpt lat="47.22825" lon="-1.55173">
        <ele>7.5999999046326</ele>
        <time>2019-04-02T08:13:05.000Z</time>
      </trkpt>
      <trkpt lat="47.22827" lon="-1.55172">
        <ele>7.5999999046326</ele>
        <time>2019-04-02T08:13:06.000Z</time>
      </trkpt>
      <trkpt lat="47.22828" lon="-1.55171">
        <ele>7.5999999046326</ele>
        <time>2019-04-02T08:13:07.000Z</time>
      </trkpt>
      <trkpt lat="47.22829" lon="-1.55169">
        <ele>7.5999999046326</ele>
        <time>2019-04-02T08:13:08.000Z</time>
      </trkpt>
      <trkpt lat="47.2283" lon="-1.55169">
        <ele>7.5999999046326</ele>
        <time>2019-04-02T08:13:09.000Z</time>
      </trkpt>
      <trkpt lat="47.22831" lon="-1.55168">
        <ele>7.5999999046326</ele>
        <time>2019-04-02T08:13:10.000Z</time>
      </trkpt>
      <trkpt lat="47.22831" lon="-1.55167">
        <ele>7.5999999046326</ele>
        <time>2019-04-02T08:13:11.000Z</time>
      </trkpt>
      <trkpt lat="47.22833" lon="-1.55165">
        <ele>7.8000001907349</ele>
        <time>2019-04-02T08:13:12.000Z</time>
      </trkpt>
      <trkpt lat="47.22833" lon="-1.55165">
        <ele>7.8000001907349</ele>
        <time>2019-04-02T08:13:13.000Z</time>
      </trkpt>
      <trkpt lat="47.22834" lon="-1.55164">
        <ele>7.8000001907349</ele>
        <time>2019-04-02T08:13:14.000Z</time>
      </trkpt>
      <trkpt lat="47.22836" lon="-1.55162">
        <ele>7.8000001907349</ele>
        <time>2019-04-02T08:13:15.000Z</time>
      </trkpt>
      <trkpt lat="47.22837" lon="-1.55161">
        <ele>7.8000001907349</ele>
        <time>2019-04-02T08:13:16.000Z</time>
      </trkpt>
      <trkpt lat="47.22838" lon="-1.55159">
        <ele>8</ele>
        <time>2019-04-02T08:13:17.000Z</time>
      </trkpt>
      <trkpt lat="47.22838" lon="-1.55157">
        <ele>8</ele>
        <time>2019-04-02T08:13:18.000Z</time>
      </trkpt>
      <trkpt lat="47.22839" lon="-1.55156">
        <ele>8</ele>
        <time>2019-04-02T08:13:19.000Z</time>
      </trkpt>
      <trkpt lat="47.22839" lon="-1.55155">
        <ele>8</ele>
        <time>2019-04-02T08:13:20.000Z</time>
      </trkpt>
      <trkpt lat="47.22841" lon="-1.55154">
        <ele>8</ele>
        <time>2019-04-02T08:13:21.000Z</time>
      </trkpt>
      <trkpt lat="47.22842" lon="-1.55153">
        <ele>8.1999998092651</ele>
        <time>2019-04-02T08:13:22.000Z</time>
      </trkpt>
      <trkpt lat="47.22843" lon="-1.55151">
        <ele>8.1999998092651</ele>
        <time>2019-04-02T08:13:23.000Z</time>
      </trkpt>
      <trkpt lat="47.22845" lon="-1.5515">
        <ele>8.1999998092651</ele>
        <time>2019-04-02T08:13:24.000Z</time>
      </trkpt>
      <trkpt lat="47.22846" lon="-1.55148">
        <ele>8.1999998092651</ele>
        <time>2019-04-02T08:13:25.000Z</time>
      </trkpt>
      <trkpt lat="47.22848" lon="-1.55147">
        <ele>8.1999998092651</ele>
        <time>2019-04-02T08:13:26.000Z</time>
      </trkpt>
      <trkpt lat="47.22849" lon="-1.55146">
        <ele>8.1999998092651</ele>
        <time>2019-04-02T08:13:27.000Z</time>
      </trkpt>
      <trkpt lat="47.22849" lon="-1.55144">
        <ele>8.3999996185303</ele>
        <time>2019-04-02T08:13:28.000Z</time>
      </trkpt>
      <trkpt lat="47.2285" lon="-1.55143">
        <ele>8.3999996185303</ele>
        <time>2019-04-02T08:13:29.000Z</time>
      </trkpt>
      <trkpt lat="47.22851" lon="-1.55141">
        <ele>8.3999996185303</ele>
        <time>2019-04-02T08:13:30.000Z</time>
      </trkpt>
      <trkpt lat="47.22852" lon="-1.5514">
        <ele>8.3999996185303</ele>
        <time>2019-04-02T08:13:31.000Z</time>
      </trkpt>
      <trkpt lat="47.22853" lon="-1.55138">
        <ele>8.3999996185303</ele>
        <time>2019-04-02T08:13:32.000Z</time>
      </trkpt>
      <trkpt lat="47.22853" lon="-1.55136">
        <ele>8.3999996185303</ele>
        <time>2019-04-02T08:13:33.000Z</time>
      </trkpt>
      <trkpt lat="47.22854" lon="-1.55135">
        <ele>8.3999996185303</ele>
        <time>2019-04-02T08:13:34.000Z</time>
      </trkpt>
      <trkpt lat="47.22855" lon="-1.55133">
        <ele>8.6000003814697</ele>
        <time>2019-04-02T08:13:35.000Z</time>
      </trkpt>
      <trkpt lat="47.22856" lon="-1.55132">
        <ele>8.6000003814697</ele>
        <time>2019-04-02T08:13:36.000Z</time>
      </trkpt>
      <trkpt lat="47.22857" lon="-1.55131">
        <ele>8.6000003814697</ele>
        <time>2019-04-02T08:13:37.000Z</time>
      </trkpt>
      <trkpt lat="47.22858" lon="-1.55129">
        <ele>8.6000003814697</ele>
        <time>2019-04-02T08:13:38.000Z</time>
      </trkpt>
      <trkpt lat="47.22861" lon="-1.55126">
        <ele>8.6000003814697</ele>
        <time>2019-04-02T08:13:39.000Z</time>
      </trkpt>
      <trkpt lat="47.22861" lon="-1.55126">
        <ele>8.6000003814697</ele>
        <time>2019-04-02T08:13:40.000Z</time>
      </trkpt>
      <trkpt lat="47.22862" lon="-1.55125">
        <ele>8.8000001907349</ele>
        <time>2019-04-02T08:13:41.000Z</time>
      </trkpt>
      <trkpt lat="47.22863" lon="-1.55124">
        <ele>8.8000001907349</ele>
        <time>2019-04-02T08:13:42.000Z</time>
      </trkpt>
      <trkpt lat="47.22864" lon="-1.55122">
        <ele>8.8000001907349</ele>
        <time>2019-04-02T08:13:43.000Z</time>
      </trkpt>
      <trkpt lat="47.22866" lon="-1.55121">
        <ele>8.8000001907349</ele>
        <time>2019-04-02T08:13:44.000Z</time>
      </trkpt>
      <trkpt lat="47.22867" lon="-1.5512">
        <ele>8.8000001907349</ele>
        <time>2019-04-02T08:13:45.000Z</time>
      </trkpt>
      <trkpt lat="47.22868" lon="-1.55119">
        <ele>8.8000001907349</ele>
        <time>2019-04-02T08:13:46.000Z</time>
      </trkpt>
      <trkpt lat="47.22869" lon="-1.55117">
        <ele>8.8000001907349</ele>
        <time>2019-04-02T08:13:47.000Z</time>
      </trkpt>
      <trkpt lat="47.2287" lon="-1.55116">
        <ele>9</ele>
        <time>2019-04-02T08:13:48.000Z</time>
      </trkpt>
      <trkpt lat="47.22871" lon="-1.55115">
        <ele>9</ele>
        <time>2019-04-02T08:13:49.000Z</time>
      </trkpt>
      <trkpt lat="47.22872" lon="-1.55113">
        <ele>9</ele>
        <time>2019-04-02T08:13:50.000Z</time>
      </trkpt>
      <trkpt lat="47.22873" lon="-1.55112">
        <ele>9</ele>
        <time>2019-04-02T08:13:51.000Z</time>
      </trkpt>
      <trkpt lat="47.22875" lon="-1.55108">
        <ele>9</ele>
        <time>2019-04-02T08:13:52.000Z</time>
      </trkpt>
      <trkpt lat="47.22875" lon="-1.55108">
        <ele>9</ele>
        <time>2019-04-02T08:13:53.000Z</time>
      </trkpt>
      <trkpt lat="47.22876" lon="-1.55107">
        <ele>9</ele>
        <time>2019-04-02T08:13:54.000Z</time>
      </trkpt>
      <trkpt lat="47.22877" lon="-1.55106">
        <ele>9.1999998092651</ele>
        <time>2019-04-02T08:13:55.000Z</time>
      </trkpt>
      <trkpt lat="47.22878" lon="-1.55105">
        <ele>9.1999998092651</ele>
        <time>2019-04-02T08:13:56.000Z</time>
      </trkpt>
      <trkpt lat="47.22878" lon="-1.55103">
        <ele>9.1999998092651</ele>
        <time>2019-04-02T08:13:57.000Z</time>
      </trkpt>
      <trkpt lat="47.22879" lon="-1.55102">
        <ele>9.1999998092651</ele>
        <time>2019-04-02T08:13:58.000Z</time>
      </trkpt>
      <trkpt lat="47.2288" lon="-1.55101">
        <ele>9.1999998092651</ele>
        <time>2019-04-02T08:13:59.000Z</time>
      </trkpt>
      <trkpt lat="47.22882" lon="-1.551">
        <ele>9.1999998092651</ele>
        <time>2019-04-02T08:14:00.000Z</time>
      </trkpt>
      <trkpt lat="47.22882" lon="-1.55098">
        <ele>9.1999998092651</ele>
        <time>2019-04-02T08:14:01.000Z</time>
      </trkpt>
      <trkpt lat="47.22883" lon="-1.55097">
        <ele>9.1999998092651</ele>
        <time>2019-04-02T08:14:02.000Z</time>
      </trkpt>
      <trkpt lat="47.22884" lon="-1.55095">
        <ele>9.3999996185303</ele>
        <time>2019-04-02T08:14:03.000Z</time>
      </trkpt>
      <trkpt lat="47.22885" lon="-1.55094">
        <ele>9.3999996185303</ele>
        <time>2019-04-02T08:14:04.000Z</time>
      </trkpt>
      <trkpt lat="47.22886" lon="-1.55092">
        <ele>9.3999996185303</ele>
        <time>2019-04-02T08:14:05.000Z</time>
      </trkpt>
      <trkpt lat="47.22887" lon="-1.5509">
        <ele>9.6000003814697</ele>
        <time>2019-04-02T08:14:06.000Z</time>
      </trkpt>
      <trkpt lat="47.22888" lon="-1.55089">
        <ele>9.6000003814697</ele>
        <time>2019-04-02T08:14:07.000Z</time>
      </trkpt>
      <trkpt lat="47.2289" lon="-1.55086">
        <ele>9.6000003814697</ele>
        <time>2019-04-02T08:14:08.000Z</time>
      </trkpt>
      <trkpt lat="47.2289" lon="-1.55086">
        <ele>9.6000003814697</ele>
        <time>2019-04-02T08:14:09.000Z</time>
      </trkpt>
      <trkpt lat="47.22891" lon="-1.55085">
        <ele>9.6000003814697</ele>
        <time>2019-04-02T08:14:10.000Z</time>
      </trkpt>
      <trkpt lat="47.22893" lon="-1.55084">
        <ele>9.8000001907349</ele>
        <time>2019-04-02T08:14:11.000Z</time>
      </trkpt>
      <trkpt lat="47.22894" lon="-1.55082">
        <ele>9.8000001907349</ele>
        <time>2019-04-02T08:14:12.000Z</time>
      </trkpt>
      <trkpt lat="47.22895" lon="-1.55081">
        <ele>9.8000001907349</ele>
        <time>2019-04-02T08:14:13.000Z</time>
      </trkpt>
      <trkpt lat="47.22896" lon="-1.5508">
        <ele>9.8000001907349</ele>
        <time>2019-04-02T08:14:14.000Z</time>
      </trkpt>
      <trkpt lat="47.22896" lon="-1.55078">
        <ele>9.8000001907349</ele>
        <time>2019-04-02T08:14:15.000Z</time>
      </trkpt>
      <trkpt lat="47.22897" lon="-1.55077">
        <ele>10</ele>
        <time>2019-04-02T08:14:16.000Z</time>
      </trkpt>
      <trkpt lat="47.22898" lon="-1.55075">
        <ele>10</ele>
        <time>2019-04-02T08:14:17.000Z</time>
      </trkpt>
      <trkpt lat="47.22899" lon="-1.55074">
        <ele>10</ele>
        <time>2019-04-02T08:14:18.000Z</time>
      </trkpt>
      <trkpt lat="47.229" lon="-1.55073">
        <ele>10</ele>
        <time>2019-04-02T08:14:19.000Z</time>
      </trkpt>
      <trkpt lat="47.22901" lon="-1.55071">
        <ele>10</ele>
        <time>2019-04-02T08:14:20.000Z</time>
      </trkpt>
      <trkpt lat="47.22903" lon="-1.5507">
        <ele>10</ele>
        <time>2019-04-02T08:14:21.000Z</time>
      </trkpt>
      <trkpt lat="47.22904" lon="-1.55069">
        <ele>10.199999809265</ele>
        <time>2019-04-02T08:14:22.000Z</time>
      </trkpt>
      <trkpt lat="47.22905" lon="-1.55068">
        <ele>10.199999809265</ele>
        <time>2019-04-02T08:14:23.000Z</time>
      </trkpt>
      <trkpt lat="47.22906" lon="-1.55067">
        <ele>10.199999809265</ele>
        <time>2019-04-02T08:14:24.000Z</time>
      </trkpt>
      <trkpt lat="47.22908" lon="-1.55066">
        <ele>10.199999809265</ele>
        <time>2019-04-02T08:14:25.000Z</time>
      </trkpt>
      <trkpt lat="47.22909" lon="-1.55065">
        <ele>10.199999809265</ele>
        <time>2019-04-02T08:14:26.000Z</time>
      </trkpt>
      <trkpt lat="47.2291" lon="-1.55064">
        <ele>10.199999809265</ele>
        <time>2019-04-02T08:14:27.000Z</time>
      </trkpt>
      <trkpt lat="47.22912" lon="-1.55063">
        <ele>10.199999809265</ele>
        <time>2019-04-02T08:14:28.000Z</time>
      </trkpt>
      <trkpt lat="47.22913" lon="-1.55062">
        <ele>10.199999809265</ele>
        <time>2019-04-02T08:14:29.000Z</time>
      </trkpt>
      <trkpt lat="47.22914" lon="-1.5506">
        <ele>10.39999961853</ele>
        <time>2019-04-02T08:14:30.000Z</time>
      </trkpt>
      <trkpt lat="47.22915" lon="-1.55059">
        <ele>10.39999961853</ele>
        <time>2019-04-02T08:14:31.000Z</time>
      </trkpt>
      <trkpt lat="47.22916" lon="-1.55058">
        <ele>10.39999961853</ele>
        <time>2019-04-02T08:14:32.000Z</time>
      </trkpt>
      <trkpt lat="47.22918" lon="-1.55057">
        <ele>10.39999961853</ele>
        <time>2019-04-02T08:14:33.000Z</time>
      </trkpt>
      <trkpt lat="47.22919" lon="-1.55056">
        <ele>10.39999961853</ele>
        <time>2019-04-02T08:14:34.000Z</time>
      </trkpt>
      <trkpt lat="47.2292" lon="-1.55055">
        <ele>10.39999961853</ele>
        <time>2019-04-02T08:14:35.000Z</time>
      </trkpt>
      <trkpt lat="47.22921" lon="-1.55053">
        <ele>10.39999961853</ele>
        <time>2019-04-02T08:14:36.000Z</time>
      </trkpt>
      <trkpt lat="47.22922" lon="-1.55052">
        <ele>10.60000038147</ele>
        <time>2019-04-02T08:14:37.000Z</time>
      </trkpt>
      <trkpt lat="47.22925" lon="-1.55049">
        <ele>10.60000038147</ele>
        <time>2019-04-02T08:14:38.000Z</time>
      </trkpt>
      <trkpt lat="47.22925" lon="-1.55049">
        <ele>10.60000038147</ele>
        <time>2019-04-02T08:14:39.000Z</time>
      </trkpt>
      <trkpt lat="47.22925" lon="-1.55047">
        <ele>10.60000038147</ele>
        <time>2019-04-02T08:14:40.000Z</time>
      </trkpt>
      <trkpt lat="47.22926" lon="-1.55046">
        <ele>10.60000038147</ele>
        <time>2019-04-02T08:14:41.000Z</time>
      </trkpt>
      <trkpt lat="47.22927" lon="-1.55045">
        <ele>10.800000190735</ele>
        <time>2019-04-02T08:14:42.000Z</time>
      </trkpt>
      <trkpt lat="47.22928" lon="-1.55044">
        <ele>10.800000190735</ele>
        <time>2019-04-02T08:14:43.000Z</time>
      </trkpt>
      <trkpt lat="47.2293" lon="-1.55042">
        <ele>10.800000190735</ele>
        <time>2019-04-02T08:14:44.000Z</time>
      </trkpt>
      <trkpt lat="47.22932" lon="-1.55041">
        <ele>10.800000190735</ele>
        <time>2019-04-02T08:14:45.000Z</time>
      </trkpt>
      <trkpt lat="47.22933" lon="-1.55039">
        <ele>10.800000190735</ele>
        <time>2019-04-02T08:14:46.000Z</time>
      </trkpt>
      <trkpt lat="47.22935" lon="-1.55038">
        <ele>11</ele>
        <time>2019-04-02T08:14:47.000Z</time>
      </trkpt>
      <trkpt lat="47.22936" lon="-1.55036">
        <ele>11</ele>
        <time>2019-04-02T08:14:48.000Z</time>
      </trkpt>
      <trkpt lat="47.22937" lon="-1.55035">
        <ele>11</ele>
        <time>2019-04-02T08:14:49.000Z</time>
      </trkpt>
      <trkpt lat="47.22938" lon="-1.55034">
        <ele>11</ele>
        <time>2019-04-02T08:14:50.000Z</time>
      </trkpt>
      <trkpt lat="47.22939" lon="-1.55033">
        <ele>11</ele>
        <time>2019-04-02T08:14:51.000Z</time>
      </trkpt>
      <trkpt lat="47.2294" lon="-1.55032">
        <ele>11</ele>
        <time>2019-04-02T08:14:52.000Z</time>
      </trkpt>
      <trkpt lat="47.22941" lon="-1.55031">
        <ele>11</ele>
        <time>2019-04-02T08:14:53.000Z</time>
      </trkpt>
      <trkpt lat="47.22943" lon="-1.5503">
        <ele>11</ele>
        <time>2019-04-02T08:14:54.000Z</time>
      </trkpt>
      <trkpt lat="47.22944" lon="-1.55029">
        <ele>11</ele>
        <time>2019-04-02T08:14:55.000Z</time>
      </trkpt>
      <trkpt lat="47.22945" lon="-1.55028">
        <ele>11</ele>
        <time>2019-04-02T08:14:56.000Z</time>
      </trkpt>
      <trkpt lat="47.22947" lon="-1.55027">
        <ele>11.199999809265</ele>
        <time>2019-04-02T08:14:57.000Z</time>
      </trkpt>
      <trkpt lat="47.22948" lon="-1.55026">
        <ele>11.199999809265</ele>
        <time>2019-04-02T08:14:58.000Z</time>
      </trkpt>
      <trkpt lat="47.22949" lon="-1.55025">
        <ele>11.199999809265</ele>
        <time>2019-04-02T08:14:59.000Z</time>
      </trkpt>
      <trkpt lat="47.22952" lon="-1.55023">
        <ele>11.199999809265</ele>
        <time>2019-04-02T08:15:00.000Z</time>
      </trkpt>
      <trkpt lat="47.22952" lon="-1.55023">
        <ele>11.199999809265</ele>
        <time>2019-04-02T08:15:01.000Z</time>
      </trkpt>
      <trkpt lat="47.22953" lon="-1.55022">
        <ele>11.199999809265</ele>
        <time>2019-04-02T08:15:02.000Z</time>
      </trkpt>
      <trkpt lat="47.22953" lon="-1.55021">
        <ele>11.199999809265</ele>
        <time>2019-04-02T08:15:03.000Z</time>
      </trkpt>
      <trkpt lat="47.22954" lon="-1.5502">
        <ele>11.199999809265</ele>
        <time>2019-04-02T08:15:04.000Z</time>
      </trkpt>
      <trkpt lat="47.22956" lon="-1.55018">
        <ele>11.39999961853</ele>
        <time>2019-04-02T08:15:05.000Z</time>
      </trkpt>
      <trkpt lat="47.22957" lon="-1.55017">
        <ele>11.39999961853</ele>
        <time>2019-04-02T08:15:06.000Z</time>
      </trkpt>
      <trkpt lat="47.22959" lon="-1.55016">
        <ele>11.39999961853</ele>
        <time>2019-04-02T08:15:07.000Z</time>
      </trkpt>
      <trkpt lat="47.2296" lon="-1.55015">
        <ele>11.39999961853</ele>
        <time>2019-04-02T08:15:08.000Z</time>
      </trkpt>
      <trkpt lat="47.22962" lon="-1.55013">
        <ele>11.39999961853</ele>
        <time>2019-04-02T08:15:09.000Z</time>
      </trkpt>
      <trkpt lat="47.22963" lon="-1.55012">
        <ele>11.39999961853</ele>
        <time>2019-04-02T08:15:10.000Z</time>
      </trkpt>
      <trkpt lat="47.22965" lon="-1.55011">
        <ele>11.39999961853</ele>
        <time>2019-04-02T08:15:11.000Z</time>
      </trkpt>
      <trkpt lat="47.22966" lon="-1.5501">
        <ele>11.39999961853</ele>
        <time>2019-04-02T08:15:12.000Z</time>
      </trkpt>
      <trkpt lat="47.22968" lon="-1.55008">
        <ele>11.60000038147</ele>
        <time>2019-04-02T08:15:13.000Z</time>
      </trkpt>
      <trkpt lat="47.22968" lon="-1.55007">
        <ele>11.60000038147</ele>
        <time>2019-04-02T08:15:14.000Z</time>
      </trkpt>
      <trkpt lat="47.22969" lon="-1.55006">
        <ele>11.60000038147</ele>
        <time>2019-04-02T08:15:15.000Z</time>
      </trkpt>
      <trkpt lat="47.2297" lon="-1.55005">
        <ele>11.60000038147</ele>
        <time>2019-04-02T08:15:16.000Z</time>
      </trkpt>
      <trkpt lat="47.22972" lon="-1.55003">
        <ele>11.60000038147</ele>
        <time>2019-04-02T08:15:17.000Z</time>
      </trkpt>
      <trkpt lat="47.22973" lon="-1.55002">
        <ele>11.60000038147</ele>
        <time>2019-04-02T08:15:18.000Z</time>
      </trkpt>
      <trkpt lat="47.22974" lon="-1.55001">
        <ele>11.800000190735</ele>
        <time>2019-04-02T08:15:19.000Z</time>
      </trkpt>
      <trkpt lat="47.22975" lon="-1.54999">
        <ele>11.800000190735</ele>
        <time>2019-04-02T08:15:20.000Z</time>
      </trkpt>
      <trkpt lat="47.22977" lon="-1.54998">
        <ele>11.800000190735</ele>
        <time>2019-04-02T08:15:21.000Z</time>
      </trkpt>
      <trkpt lat="47.22978" lon="-1.54997">
        <ele>11.800000190735</ele>
        <time>2019-04-02T08:15:22.000Z</time>
      </trkpt>
      <trkpt lat="47.22979" lon="-1.54995">
        <ele>11.800000190735</ele>
        <time>2019-04-02T08:15:23.000Z</time>
      </trkpt>
      <trkpt lat="47.2298" lon="-1.54993">
        <ele>12</ele>
        <time>2019-04-02T08:15:24.000Z</time>
      </trkpt>
      <trkpt lat="47.22981" lon="-1.54992">
        <ele>12</ele>
        <time>2019-04-02T08:15:25.000Z</time>
      </trkpt>
      <trkpt lat="47.22982" lon="-1.5499">
        <ele>12</ele>
        <time>2019-04-02T08:15:26.000Z</time>
      </trkpt>
      <trkpt lat="47.22982" lon="-1.54988">
        <ele>12.199999809265</ele>
        <time>2019-04-02T08:15:27.000Z</time>
      </trkpt>
      <trkpt lat="47.22983" lon="-1.54987">
        <ele>12.199999809265</ele>
        <time>2019-04-02T08:15:28.000Z</time>
      </trkpt>
      <trkpt lat="47.22984" lon="-1.54985">
        <ele>12.199999809265</ele>
        <time>2019-04-02T08:15:29.000Z</time>
      </trkpt>
      <trkpt lat="47.22985" lon="-1.54984">
        <ele>12.199999809265</ele>
        <time>2019-04-02T08:15:30.000Z</time>
      </trkpt>
      <trkpt lat="47.22986" lon="-1.54982">
        <ele>12.199999809265</ele>
        <time>2019-04-02T08:15:31.000Z</time>
      </trkpt>
      <trkpt lat="47.22988" lon="-1.5498">
        <ele>12.199999809265</ele>
        <time>2019-04-02T08:15:32.000Z</time>
      </trkpt>
      <trkpt lat="47.22989" lon="-1.54979">
        <ele>12.199999809265</ele>
        <time>2019-04-02T08:15:33.000Z</time>
      </trkpt>
      <trkpt lat="47.2299" lon="-1.54977">
        <ele>12.39999961853</ele>
        <time>2019-04-02T08:15:34.000Z</time>
      </trkpt>
      <trkpt lat="47.22991" lon="-1.54975">
        <ele>12.39999961853</ele>
        <time>2019-04-02T08:15:35.000Z</time>
      </trkpt>
      <trkpt lat="47.22992" lon="-1.54972">
        <ele>12.39999961853</ele>
        <time>2019-04-02T08:15:36.000Z</time>
      </trkpt>
      <trkpt lat="47.22992" lon="-1.54972">
        <ele>12.39999961853</ele>
        <time>2019-04-02T08:15:37.000Z</time>
      </trkpt>
      <trkpt lat="47.22994" lon="-1.54971">
        <ele>12.39999961853</ele>
        <time>2019-04-02T08:15:38.000Z</time>
      </trkpt>
      <trkpt lat="47.22995" lon="-1.5497">
        <ele>12.39999961853</ele>
        <time>2019-04-02T08:15:39.000Z</time>
      </trkpt>
      <trkpt lat="47.22995" lon="-1.54968">
        <ele>12.39999961853</ele>
        <time>2019-04-02T08:15:40.000Z</time>
      </trkpt>
      <trkpt lat="47.22996" lon="-1.54967">
        <ele>12.39999961853</ele>
        <time>2019-04-02T08:15:41.000Z</time>
      </trkpt>
      <trkpt lat="47.22998" lon="-1.54964">
        <ele>12.199999809265</ele>
        <time>2019-04-02T08:15:42.000Z</time>
      </trkpt>
      <trkpt lat="47.22998" lon="-1.54964">
        <ele>12.199999809265</ele>
        <time>2019-04-02T08:15:43.000Z</time>
      </trkpt>
      <trkpt lat="47.23" lon="-1.54962">
        <ele>12.199999809265</ele>
        <time>2019-04-02T08:15:44.000Z</time>
      </trkpt>
      <trkpt lat="47.23002" lon="-1.54959">
        <ele>12</ele>
        <time>2019-04-02T08:15:45.000Z</time>
      </trkpt>
      <trkpt lat="47.23002" lon="-1.54959">
        <ele>12</ele>
        <time>2019-04-02T08:15:46.000Z</time>
      </trkpt>
      <trkpt lat="47.23003" lon="-1.54957">
        <ele>12</ele>
        <time>2019-04-02T08:15:47.000Z</time>
      </trkpt>
      <trkpt lat="47.23003" lon="-1.54956">
        <ele>12</ele>
        <time>2019-04-02T08:15:48.000Z</time>
      </trkpt>
      <trkpt lat="47.23004" lon="-1.54954">
        <ele>12</ele>
        <time>2019-04-02T08:15:49.000Z</time>
      </trkpt>
      <trkpt lat="47.23005" lon="-1.54952">
        <ele>12</ele>
        <time>2019-04-02T08:15:50.000Z</time>
      </trkpt>
      <trkpt lat="47.23006" lon="-1.54951">
        <ele>12</ele>
        <time>2019-04-02T08:15:51.000Z</time>
      </trkpt>
      <trkpt lat="47.23007" lon="-1.54948">
        <ele>11.800000190735</ele>
        <time>2019-04-02T08:15:52.000Z</time>
      </trkpt>
      <trkpt lat="47.23007" lon="-1.54948">
        <ele>11.800000190735</ele>
        <time>2019-04-02T08:15:53.000Z</time>
      </trkpt>
      <trkpt lat="47.23008" lon="-1.54947">
        <ele>11.800000190735</ele>
        <time>2019-04-02T08:15:54.000Z</time>
      </trkpt>
      <trkpt lat="47.23008" lon="-1.54946">
        <ele>11.800000190735</ele>
        <time>2019-04-02T08:15:55.000Z</time>
      </trkpt>
      <trkpt lat="47.23009" lon="-1.54945">
        <ele>11.800000190735</ele>
        <time>2019-04-02T08:15:56.000Z</time>
      </trkpt>
      <trkpt lat="47.2301" lon="-1.54944">
        <ele>11.800000190735</ele>
        <time>2019-04-02T08:15:57.000Z</time>
      </trkpt>
      <trkpt lat="47.23011" lon="-1.54943">
        <ele>11.800000190735</ele>
        <time>2019-04-02T08:15:58.000Z</time>
      </trkpt>
      <trkpt lat="47.23011" lon="-1.54942">
        <ele>11.60000038147</ele>
        <time>2019-04-02T08:15:59.000Z</time>
      </trkpt>
      <trkpt lat="47.23012" lon="-1.54941">
        <ele>11.60000038147</ele>
        <time>2019-04-02T08:16:00.000Z</time>
      </trkpt>
      <trkpt lat="47.23013" lon="-1.5494">
        <ele>11.60000038147</ele>
        <time>2019-04-02T08:16:01.000Z</time>
      </trkpt>
      <trkpt lat="47.23014" lon="-1.54939">
        <ele>11.60000038147</ele>
        <time>2019-04-02T08:16:02.000Z</time>
      </trkpt>
      <trkpt lat="47.23014" lon="-1.54937">
        <ele>11.60000038147</ele>
        <time>2019-04-02T08:16:03.000Z</time>
      </trkpt>
      <trkpt lat="47.23014" lon="-1.54936">
        <ele>11.60000038147</ele>
        <time>2019-04-02T08:16:04.000Z</time>
      </trkpt>
      <trkpt lat="47.23015" lon="-1.54935">
        <ele>11.60000038147</ele>
        <time>2019-04-02T08:16:05.000Z</time>
      </trkpt>
      <trkpt lat="47.23015" lon="-1.54934">
        <ele>11.60000038147</ele>
        <time>2019-04-02T08:16:06.000Z</time>
      </trkpt>
      <trkpt lat="47.23015" lon="-1.54933">
        <ele>11.60000038147</ele>
        <time>2019-04-02T08:16:07.000Z</time>
      </trkpt>
      <trkpt lat="47.23015" lon="-1.54932">
        <ele>11.60000038147</ele>
        <time>2019-04-02T08:16:08.000Z</time>
      </trkpt>
      <trkpt lat="47.23016" lon="-1.5493">
        <ele>11.60000038147</ele>
        <time>2019-04-02T08:16:09.000Z</time>
      </trkpt>
      <trkpt lat="47.23016" lon="-1.54928">
        <ele>11.60000038147</ele>
        <time>2019-04-02T08:16:10.000Z</time>
      </trkpt>
      <trkpt lat="47.23017" lon="-1.54926">
        <ele>11.60000038147</ele>
        <time>2019-04-02T08:16:11.000Z</time>
      </trkpt>
      <trkpt lat="47.23017" lon="-1.54924">
        <ele>11.60000038147</ele>
        <time>2019-04-02T08:16:12.000Z</time>
      </trkpt>
      <trkpt lat="47.23018" lon="-1.54923">
        <ele>11.60000038147</ele>
        <time>2019-04-02T08:16:13.000Z</time>
      </trkpt>
      <trkpt lat="47.23019" lon="-1.54921">
        <ele>11.60000038147</ele>
        <time>2019-04-02T08:16:14.000Z</time>
      </trkpt>
      <trkpt lat="47.2302" lon="-1.54919">
        <ele>11.60000038147</ele>
        <time>2019-04-02T08:16:15.000Z</time>
      </trkpt>
      <trkpt lat="47.23022" lon="-1.54917">
        <ele>11.39999961853</ele>
        <time>2019-04-02T08:16:16.000Z</time>
      </trkpt>
      <trkpt lat="47.23023" lon="-1.54915">
        <ele>11.39999961853</ele>
        <time>2019-04-02T08:16:17.000Z</time>
      </trkpt>
      <trkpt lat="47.23025" lon="-1.54911">
        <ele>11.199999809265</ele>
        <time>2019-04-02T08:16:18.000Z</time>
      </trkpt>
      <trkpt lat="47.23025" lon="-1.54911">
        <ele>11.199999809265</ele>
        <time>2019-04-02T08:16:19.000Z</time>
      </trkpt>
      <trkpt lat="47.23027" lon="-1.54909">
        <ele>11.199999809265</ele>
        <time>2019-04-02T08:16:20.000Z</time>
      </trkpt>
      <trkpt lat="47.23029" lon="-1.54906">
        <ele>11</ele>
        <time>2019-04-02T08:16:21.000Z</time>
      </trkpt>
      <trkpt lat="47.2303" lon="-1.54904">
        <ele>11</ele>
        <time>2019-04-02T08:16:22.000Z</time>
      </trkpt>
      <trkpt lat="47.23031" lon="-1.54902">
        <ele>11</ele>
        <time>2019-04-02T08:16:23.000Z</time>
      </trkpt>
      <trkpt lat="47.23032" lon="-1.549">
        <ele>11</ele>
        <time>2019-04-02T08:16:24.000Z</time>
      </trkpt>
      <trkpt lat="47.23033" lon="-1.54899">
        <ele>10.800000190735</ele>
        <time>2019-04-02T08:16:25.000Z</time>
      </trkpt>
      <trkpt lat="47.23035" lon="-1.54897">
        <ele>10.800000190735</ele>
        <time>2019-04-02T08:16:26.000Z</time>
      </trkpt>
      <trkpt lat="47.23036" lon="-1.54895">
        <ele>10.800000190735</ele>
        <time>2019-04-02T08:16:27.000Z</time>
      </trkpt>
      <trkpt lat="47.23037" lon="-1.54893">
        <ele>10.60000038147</ele>
        <time>2019-04-02T08:16:28.000Z</time>
      </trkpt>
      <trkpt lat="47.23038" lon="-1.54892">
        <ele>10.60000038147</ele>
        <time>2019-04-02T08:16:29.000Z</time>
      </trkpt>
      <trkpt lat="47.23038" lon="-1.54891">
        <ele>10.60000038147</ele>
        <time>2019-04-02T08:16:30.000Z</time>
      </trkpt>
      <trkpt lat="47.23039" lon="-1.5489">
        <ele>10.60000038147</ele>
        <time>2019-04-02T08:16:31.000Z</time>
      </trkpt>
      <trkpt lat="47.23041" lon="-1.54888">
        <ele>10.39999961853</ele>
        <time>2019-04-02T08:16:32.000Z</time>
      </trkpt>
      <trkpt lat="47.23042" lon="-1.54887">
        <ele>10.39999961853</ele>
        <time>2019-04-02T08:16:33.000Z</time>
      </trkpt>
      <trkpt lat="47.23043" lon="-1.54885">
        <ele>10.39999961853</ele>
        <time>2019-04-02T08:16:34.000Z</time>
      </trkpt>
      <trkpt lat="47.23044" lon="-1.54884">
        <ele>10.39999961853</ele>
        <time>2019-04-02T08:16:35.000Z</time>
      </trkpt>
      <trkpt lat="47.23045" lon="-1.54882">
        <ele>10.199999809265</ele>
        <time>2019-04-02T08:16:36.000Z</time>
      </trkpt>
      <trkpt lat="47.23046" lon="-1.54881">
        <ele>10.199999809265</ele>
        <time>2019-04-02T08:16:37.000Z</time>
      </trkpt>
      <trkpt lat="47.23048" lon="-1.54877">
        <ele>10.199999809265</ele>
        <time>2019-04-02T08:16:38.000Z</time>
      </trkpt>
      <trkpt lat="47.23048" lon="-1.54877">
        <ele>10.199999809265</ele>
        <time>2019-04-02T08:16:39.000Z</time>
      </trkpt>
      <trkpt lat="47.2305" lon="-1.54876">
        <ele>10</ele>
        <time>2019-04-02T08:16:40.000Z</time>
      </trkpt>
      <trkpt lat="47.23051" lon="-1.54874">
        <ele>10</ele>
        <time>2019-04-02T08:16:41.000Z</time>
      </trkpt>
      <trkpt lat="47.23052" lon="-1.54873">
        <ele>10</ele>
        <time>2019-04-02T08:16:42.000Z</time>
      </trkpt>
      <trkpt lat="47.23053" lon="-1.54872">
        <ele>9.8000001907349</ele>
        <time>2019-04-02T08:16:43.000Z</time>
      </trkpt>
      <trkpt lat="47.23054" lon="-1.5487">
        <ele>9.8000001907349</ele>
        <time>2019-04-02T08:16:44.000Z</time>
      </trkpt>
      <trkpt lat="47.23055" lon="-1.54869">
        <ele>9.8000001907349</ele>
        <time>2019-04-02T08:16:45.000Z</time>
      </trkpt>
      <trkpt lat="47.23056" lon="-1.54869">
        <ele>9.6000003814697</ele>
        <time>2019-04-02T08:16:46.000Z</time>
      </trkpt>
      <trkpt lat="47.23057" lon="-1.54868">
        <ele>9.6000003814697</ele>
        <time>2019-04-02T08:16:47.000Z</time>
      </trkpt>
      <trkpt lat="47.23058" lon="-1.54867">
        <ele>9.6000003814697</ele>
        <time>2019-04-02T08:16:48.000Z</time>
      </trkpt>
      <trkpt lat="47.23059" lon="-1.54866">
        <ele>9.3999996185303</ele>
        <time>2019-04-02T08:16:49.000Z</time>
      </trkpt>
      <trkpt lat="47.2306" lon="-1.54864">
        <ele>9.3999996185303</ele>
        <time>2019-04-02T08:16:50.000Z</time>
      </trkpt>
      <trkpt lat="47.23061" lon="-1.54863">
        <ele>9.3999996185303</ele>
        <time>2019-04-02T08:16:51.000Z</time>
      </trkpt>
      <trkpt lat="47.23063" lon="-1.54859">
        <ele>9.3999996185303</ele>
        <time>2019-04-02T08:16:52.000Z</time>
      </trkpt>
      <trkpt lat="47.23063" lon="-1.54859">
        <ele>9.3999996185303</ele>
        <time>2019-04-02T08:16:53.000Z</time>
      </trkpt>
      <trkpt lat="47.23064" lon="-1.54857">
        <ele>9.3999996185303</ele>
        <time>2019-04-02T08:16:54.000Z</time>
      </trkpt>
      <trkpt lat="47.23065" lon="-1.54855">
        <ele>9.1999998092651</ele>
        <time>2019-04-02T08:16:55.000Z</time>
      </trkpt>
      <trkpt lat="47.23066" lon="-1.54854">
        <ele>9.1999998092651</ele>
        <time>2019-04-02T08:16:56.000Z</time>
      </trkpt>
      <trkpt lat="47.23067" lon="-1.54852">
        <ele>9.1999998092651</ele>
        <time>2019-04-02T08:16:57.000Z</time>
      </trkpt>
      <trkpt lat="47.23068" lon="-1.5485">
        <ele>9.1999998092651</ele>
        <time>2019-04-02T08:16:58.000Z</time>
      </trkpt>
      <trkpt lat="47.23069" lon="-1.54848">
        <ele>9</ele>
        <time>2019-04-02T08:16:59.000Z</time>
      </trkpt>
      <trkpt lat="47.2307" lon="-1.54846">
        <ele>9</ele>
        <time>2019-04-02T08:17:00.000Z</time>
      </trkpt>
      <trkpt lat="47.23072" lon="-1.54844">
        <ele>9</ele>
        <time>2019-04-02T08:17:01.000Z</time>
      </trkpt>
      <trkpt lat="47.23074" lon="-1.54841">
        <ele>8.8000001907349</ele>
        <time>2019-04-02T08:17:02.000Z</time>
      </trkpt>
      <trkpt lat="47.23075" lon="-1.54839">
        <ele>8.8000001907349</ele>
        <time>2019-04-02T08:17:03.000Z</time>
      </trkpt>
      <trkpt lat="47.23075" lon="-1.54839">
        <ele>8.8000001907349</ele>
        <time>2019-04-02T08:17:04.000Z</time>
      </trkpt>
      <trkpt lat="47.23076" lon="-1.54837">
        <ele>8.8000001907349</ele>
        <time>2019-04-02T08:17:05.000Z</time>
      </trkpt>
      <trkpt lat="47.23077" lon="-1.54835">
        <ele>8.8000001907349</ele>
        <time>2019-04-02T08:17:06.000Z</time>
      </trkpt>
      <trkpt lat="47.23077" lon="-1.54833">
        <ele>8.8000001907349</ele>
        <time>2019-04-02T08:17:07.000Z</time>
      </trkpt>
      <trkpt lat="47.23078" lon="-1.54832">
        <ele>8.8000001907349</ele>
        <time>2019-04-02T08:17:08.000Z</time>
      </trkpt>
      <trkpt lat="47.23079" lon="-1.5483">
        <ele>8.8000001907349</ele>
        <time>2019-04-02T08:17:09.000Z</time>
      </trkpt>
      <trkpt lat="47.23081" lon="-1.54826">
        <ele>8.8000001907349</ele>
        <time>2019-04-02T08:17:10.000Z</time>
      </trkpt>
      <trkpt lat="47.23081" lon="-1.54826">
        <ele>8.8000001907349</ele>
        <time>2019-04-02T08:17:11.000Z</time>
      </trkpt>
      <trkpt lat="47.23082" lon="-1.54825">
        <ele>9</ele>
        <time>2019-04-02T08:17:12.000Z</time>
      </trkpt>
      <trkpt lat="47.23084" lon="-1.54824">
        <ele>9</ele>
        <time>2019-04-02T08:17:13.000Z</time>
      </trkpt>
      <trkpt lat="47.23085" lon="-1.54823">
        <ele>9</ele>
        <time>2019-04-02T08:17:14.000Z</time>
      </trkpt>
      <trkpt lat="47.23086" lon="-1.54821">
        <ele>9.1999998092651</ele>
        <time>2019-04-02T08:17:15.000Z</time>
      </trkpt>
      <trkpt lat="47.23088" lon="-1.5482">
        <ele>9.1999998092651</ele>
        <time>2019-04-02T08:17:16.000Z</time>
      </trkpt>
      <trkpt lat="47.2309" lon="-1.54817">
        <ele>9.3999996185303</ele>
        <time>2019-04-02T08:17:17.000Z</time>
      </trkpt>
      <trkpt lat="47.2309" lon="-1.54817">
        <ele>9.3999996185303</ele>
        <time>2019-04-02T08:17:18.000Z</time>
      </trkpt>
      <trkpt lat="47.23091" lon="-1.54815">
        <ele>9.3999996185303</ele>
        <time>2019-04-02T08:17:19.000Z</time>
      </trkpt>
      <trkpt lat="47.23092" lon="-1.54814">
        <ele>9.6000003814697</ele>
        <time>2019-04-02T08:17:20.000Z</time>
      </trkpt>
      <trkpt lat="47.23093" lon="-1.54812">
        <ele>9.6000003814697</ele>
        <time>2019-04-02T08:17:21.000Z</time>
      </trkpt>
      <trkpt lat="47.23094" lon="-1.5481">
        <ele>9.8000001907349</ele>
        <time>2019-04-02T08:17:22.000Z</time>
      </trkpt>
      <trkpt lat="47.23095" lon="-1.54807">
        <ele>9.8000001907349</ele>
        <time>2019-04-02T08:17:23.000Z</time>
      </trkpt>
      <trkpt lat="47.23095" lon="-1.54807">
        <ele>9.8000001907349</ele>
        <time>2019-04-02T08:17:24.000Z</time>
      </trkpt>
      <trkpt lat="47.23096" lon="-1.54805">
        <ele>10</ele>
        <time>2019-04-02T08:17:25.000Z</time>
      </trkpt>
      <trkpt lat="47.23096" lon="-1.54804">
        <ele>10</ele>
        <time>2019-04-02T08:17:26.000Z</time>
      </trkpt>
      <trkpt lat="47.23097" lon="-1.54802">
        <ele>10</ele>
        <time>2019-04-02T08:17:27.000Z</time>
      </trkpt>
      <trkpt lat="47.23098" lon="-1.54801">
        <ele>10</ele>
        <time>2019-04-02T08:17:28.000Z</time>
      </trkpt>
      <trkpt lat="47.231" lon="-1.548">
        <ele>10.199999809265</ele>
        <time>2019-04-02T08:17:29.000Z</time>
      </trkpt>
      <trkpt lat="47.23101" lon="-1.54799">
        <ele>10.199999809265</ele>
        <time>2019-04-02T08:17:30.000Z</time>
      </trkpt>
      <trkpt lat="47.23103" lon="-1.54798">
        <ele>10.39999961853</ele>
        <time>2019-04-02T08:17:31.000Z</time>
      </trkpt>
      <trkpt lat="47.23104" lon="-1.54797">
        <ele>10.39999961853</ele>
        <time>2019-04-02T08:17:32.000Z</time>
      </trkpt>
      <trkpt lat="47.23105" lon="-1.54797">
        <ele>10.39999961853</ele>
        <time>2019-04-02T08:17:33.000Z</time>
      </trkpt>
      <trkpt lat="47.23106" lon="-1.54796">
        <ele>10.39999961853</ele>
        <time>2019-04-02T08:17:34.000Z</time>
      </trkpt>
      <trkpt lat="47.23106" lon="-1.54795">
        <ele>10.60000038147</ele>
        <time>2019-04-02T08:17:35.000Z</time>
      </trkpt>
      <trkpt lat="47.23107" lon="-1.54794">
        <ele>10.60000038147</ele>
        <time>2019-04-02T08:17:36.000Z</time>
      </trkpt>
      <trkpt lat="47.23108" lon="-1.54793">
        <ele>10.60000038147</ele>
        <time>2019-04-02T08:17:37.000Z</time>
      </trkpt>
      <trkpt lat="47.2311" lon="-1.54792">
        <ele>10.800000190735</ele>
        <time>2019-04-02T08:17:38.000Z</time>
      </trkpt>
      <trkpt lat="47.23111" lon="-1.54791">
        <ele>10.800000190735</ele>
        <time>2019-04-02T08:17:39.000Z</time>
      </trkpt>
      <trkpt lat="47.23112" lon="-1.5479">
        <ele>10.800000190735</ele>
        <time>2019-04-02T08:17:40.000Z</time>
      </trkpt>
      <trkpt lat="47.23113" lon="-1.54789">
        <ele>11</ele>
        <time>2019-04-02T08:17:41.000Z</time>
      </trkpt>
      <trkpt lat="47.23115" lon="-1.54788">
        <ele>11</ele>
        <time>2019-04-02T08:17:42.000Z</time>
      </trkpt>
      <trkpt lat="47.23117" lon="-1.54786">
        <ele>11.199999809265</ele>
        <time>2019-04-02T08:17:43.000Z</time>
      </trkpt>
      <trkpt lat="47.23117" lon="-1.54786">
        <ele>11.199999809265</ele>
        <time>2019-04-02T08:17:44.000Z</time>
      </trkpt>
      <trkpt lat="47.23118" lon="-1.54785">
        <ele>11.199999809265</ele>
        <time>2019-04-02T08:17:45.000Z</time>
      </trkpt>
      <trkpt lat="47.2312" lon="-1.54785">
        <ele>11.199999809265</ele>
        <time>2019-04-02T08:17:46.000Z</time>
      </trkpt>
      <trkpt lat="47.23121" lon="-1.54784">
        <ele>11.39999961853</ele>
        <time>2019-04-02T08:17:47.000Z</time>
      </trkpt>
      <trkpt lat="47.23122" lon="-1.54783">
        <ele>11.39999961853</ele>
        <time>2019-04-02T08:17:48.000Z</time>
      </trkpt>
      <trkpt lat="47.23123" lon="-1.54782">
        <ele>11.39999961853</ele>
        <time>2019-04-02T08:17:49.000Z</time>
      </trkpt>
      <trkpt lat="47.23124" lon="-1.54781">
        <ele>11.39999961853</ele>
        <time>2019-04-02T08:17:50.000Z</time>
      </trkpt>
      <trkpt lat="47.23126" lon="-1.54781">
        <ele>11.60000038147</ele>
        <time>2019-04-02T08:17:51.000Z</time>
      </trkpt>
      <trkpt lat="47.23128" lon="-1.54781">
        <ele>11.60000038147</ele>
        <time>2019-04-02T08:17:52.000Z</time>
      </trkpt>
      <trkpt lat="47.23129" lon="-1.54781">
        <ele>11.60000038147</ele>
        <time>2019-04-02T08:17:53.000Z</time>
      </trkpt>
      <trkpt lat="47.2313" lon="-1.5478">
        <ele>11.800000190735</ele>
        <time>2019-04-02T08:17:54.000Z</time>
      </trkpt>
      <trkpt lat="47.23132" lon="-1.5478">
        <ele>11.800000190735</ele>
        <time>2019-04-02T08:17:55.000Z</time>
      </trkpt>
      <trkpt lat="47.23133" lon="-1.54779">
        <ele>11.800000190735</ele>
        <time>2019-04-02T08:17:56.000Z</time>
      </trkpt>
      <trkpt lat="47.23134" lon="-1.54778">
        <ele>12</ele>
        <time>2019-04-02T08:17:57.000Z</time>
      </trkpt>
      <trkpt lat="47.23135" lon="-1.54777">
        <ele>12</ele>
        <time>2019-04-02T08:17:58.000Z</time>
      </trkpt>
      <trkpt lat="47.23137" lon="-1.54777">
        <ele>12</ele>
        <time>2019-04-02T08:17:59.000Z</time>
      </trkpt>
      <trkpt lat="47.23138" lon="-1.54776">
        <ele>12.199999809265</ele>
        <time>2019-04-02T08:18:00.000Z</time>
      </trkpt>
      <trkpt lat="47.23139" lon="-1.54775">
        <ele>12.199999809265</ele>
        <time>2019-04-02T08:18:01.000Z</time>
      </trkpt>
      <trkpt lat="47.23141" lon="-1.54774">
        <ele>12.199999809265</ele>
        <time>2019-04-02T08:18:02.000Z</time>
      </trkpt>
      <trkpt lat="47.23142" lon="-1.54773">
        <ele>12.39999961853</ele>
        <time>2019-04-02T08:18:03.000Z</time>
      </trkpt>
      <trkpt lat="47.23144" lon="-1.54772">
        <ele>12.39999961853</ele>
        <time>2019-04-02T08:18:04.000Z</time>
      </trkpt>
      <trkpt lat="47.23147" lon="-1.5477">
        <ele>12.60000038147</ele>
        <time>2019-04-02T08:18:05.000Z</time>
      </trkpt>
      <trkpt lat="47.23147" lon="-1.5477">
        <ele>12.60000038147</ele>
        <time>2019-04-02T08:18:06.000Z</time>
      </trkpt>
      <trkpt lat="47.23148" lon="-1.5477">
        <ele>12.60000038147</ele>
        <time>2019-04-02T08:18:07.000Z</time>
      </trkpt>
      <trkpt lat="47.23149" lon="-1.54769">
        <ele>12.60000038147</ele>
        <time>2019-04-02T08:18:08.000Z</time>
      </trkpt>
      <trkpt lat="47.2315" lon="-1.54768">
        <ele>12.800000190735</ele>
        <time>2019-04-02T08:18:09.000Z</time>
      </trkpt>
      <trkpt lat="47.23151" lon="-1.54767">
        <ele>12.800000190735</ele>
        <time>2019-04-02T08:18:10.000Z</time>
      </trkpt>
      <trkpt lat="47.23152" lon="-1.54766">
        <ele>12.800000190735</ele>
        <time>2019-04-02T08:18:11.000Z</time>
      </trkpt>
      <trkpt lat="47.23153" lon="-1.54765">
        <ele>13</ele>
        <time>2019-04-02T08:18:12.000Z</time>
      </trkpt>
      <trkpt lat="47.23154" lon="-1.54764">
        <ele>13</ele>
        <time>2019-04-02T08:18:13.000Z</time>
      </trkpt>
      <trkpt lat="47.23155" lon="-1.54763">
        <ele>13</ele>
        <time>2019-04-02T08:18:14.000Z</time>
      </trkpt>
      <trkpt lat="47.23156" lon="-1.54762">
        <ele>13.199999809265</ele>
        <time>2019-04-02T08:18:15.000Z</time>
      </trkpt>
      <trkpt lat="47.23157" lon="-1.54762">
        <ele>13.199999809265</ele>
        <time>2019-04-02T08:18:16.000Z</time>
      </trkpt>
      <trkpt lat="47.23159" lon="-1.54761">
        <ele>13.199999809265</ele>
        <time>2019-04-02T08:18:17.000Z</time>
      </trkpt>
      <trkpt lat="47.2316" lon="-1.5476">
        <ele>13.39999961853</ele>
        <time>2019-04-02T08:18:18.000Z</time>
      </trkpt>
      <trkpt lat="47.23162" lon="-1.5476">
        <ele>13.39999961853</ele>
        <time>2019-04-02T08:18:19.000Z</time>
      </trkpt>
      <trkpt lat="47.23164" lon="-1.54759">
        <ele>13.39999961853</ele>
        <time>2019-04-02T08:18:20.000Z</time>
      </trkpt>
      <trkpt lat="47.23165" lon="-1.54758">
        <ele>13.39999961853</ele>
        <time>2019-04-02T08:18:21.000Z</time>
      </trkpt>
      <trkpt lat="47.23167" lon="-1.54757">
        <ele>13.39999961853</ele>
        <time>2019-04-02T08:18:22.000Z</time>
      </trkpt>
      <trkpt lat="47.23168" lon="-1.54756">
        <ele>13.39999961853</ele>
        <time>2019-04-02T08:18:23.000Z</time>
      </trkpt>
      <trkpt lat="47.2317" lon="-1.54755">
        <ele>13.39999961853</ele>
        <time>2019-04-02T08:18:24.000Z</time>
      </trkpt>
      <trkpt lat="47.23171" lon="-1.54755">
        <ele>13.199999809265</ele>
        <time>2019-04-02T08:18:25.000Z</time>
      </trkpt>
      <trkpt lat="47.23172" lon="-1.54754">
        <ele>13.199999809265</ele>
        <time>2019-04-02T08:18:26.000Z</time>
      </trkpt>
      <trkpt lat="47.23173" lon="-1.54753">
        <ele>13.199999809265</ele>
        <time>2019-04-02T08:18:27.000Z</time>
      </trkpt>
      <trkpt lat="47.23175" lon="-1.54752">
        <ele>13.199999809265</ele>
        <time>2019-04-02T08:18:28.000Z</time>
      </trkpt>
      <trkpt lat="47.23176" lon="-1.54752">
        <ele>13.199999809265</ele>
        <time>2019-04-02T08:18:29.000Z</time>
      </trkpt>
      <trkpt lat="47.2318" lon="-1.54751">
        <ele>13.199999809265</ele>
        <time>2019-04-02T08:18:30.000Z</time>
      </trkpt>
      <trkpt lat="47.2318" lon="-1.54751">
        <ele>13.199999809265</ele>
        <time>2019-04-02T08:18:31.000Z</time>
      </trkpt>
      <trkpt lat="47.23182" lon="-1.5475">
        <ele>13.199999809265</ele>
        <time>2019-04-02T08:18:32.000Z</time>
      </trkpt>
      <trkpt lat="47.23184" lon="-1.5475">
        <ele>13</ele>
        <time>2019-04-02T08:18:33.000Z</time>
      </trkpt>
      <trkpt lat="47.23187" lon="-1.5475">
        <ele>13</ele>
        <time>2019-04-02T08:18:34.000Z</time>
      </trkpt>
      <trkpt lat="47.23188" lon="-1.5475">
        <ele>13</ele>
        <time>2019-04-02T08:18:35.000Z</time>
      </trkpt>
      <trkpt lat="47.2319" lon="-1.5475">
        <ele>13</ele>
        <time>2019-04-02T08:18:36.000Z</time>
      </trkpt>
      <trkpt lat="47.23192" lon="-1.54749">
        <ele>13</ele>
        <time>2019-04-02T08:18:37.000Z</time>
      </trkpt>
      <trkpt lat="47.23195" lon="-1.54749">
        <ele>12.800000190735</ele>
        <time>2019-04-02T08:18:38.000Z</time>
      </trkpt>
      <trkpt lat="47.23195" lon="-1.54749">
        <ele>12.800000190735</ele>
        <time>2019-04-02T08:18:39.000Z</time>
      </trkpt>
      <trkpt lat="47.23196" lon="-1.5475">
        <ele>12.800000190735</ele>
        <time>2019-04-02T08:18:40.000Z</time>
      </trkpt>
      <trkpt lat="47.23198" lon="-1.5475">
        <ele>12.800000190735</ele>
        <time>2019-04-02T08:18:41.000Z</time>
      </trkpt>
      <trkpt lat="47.23199" lon="-1.5475">
        <ele>12.800000190735</ele>
        <time>2019-04-02T08:18:42.000Z</time>
      </trkpt>
      <trkpt lat="47.23201" lon="-1.54749">
        <ele>12.800000190735</ele>
        <time>2019-04-02T08:18:43.000Z</time>
      </trkpt>
      <trkpt lat="47.23203" lon="-1.54749">
        <ele>12.60000038147</ele>
        <time>2019-04-02T08:18:44.000Z</time>
      </trkpt>
      <trkpt lat="47.23204" lon="-1.54749">
        <ele>12.60000038147</ele>
        <time>2019-04-02T08:18:45.000Z</time>
      </trkpt>
      <trkpt lat="47.23206" lon="-1.54749">
        <ele>12.60000038147</ele>
        <time>2019-04-02T08:18:46.000Z</time>
      </trkpt>
      <trkpt lat="47.23208" lon="-1.54748">
        <ele>12.60000038147</ele>
        <time>2019-04-02T08:18:47.000Z</time>
      </trkpt>
      <trkpt lat="47.23209" lon="-1.54748">
        <ele>12.60000038147</ele>
        <time>2019-04-02T08:18:48.000Z</time>
      </trkpt>
      <trkpt lat="47.23211" lon="-1.54748">
        <ele>12.60000038147</ele>
        <time>2019-04-02T08:18:49.000Z</time>
      </trkpt>
      <trkpt lat="47.23212" lon="-1.54747">
        <ele>12.39999961853</ele>
        <time>2019-04-02T08:18:50.000Z</time>
      </trkpt>
      <trkpt lat="47.23213" lon="-1.54746">
        <ele>12.39999961853</ele>
        <time>2019-04-02T08:18:51.000Z</time>
      </trkpt>
      <trkpt lat="47.23215" lon="-1.54746">
        <ele>12.39999961853</ele>
        <time>2019-04-02T08:18:52.000Z</time>
      </trkpt>
      <trkpt lat="47.23217" lon="-1.54744">
        <ele>12.39999961853</ele>
        <time>2019-04-02T08:18:53.000Z</time>
      </trkpt>
      <trkpt lat="47.23217" lon="-1.54744">
        <ele>12.39999961853</ele>
        <time>2019-04-02T08:18:54.000Z</time>
      </trkpt>
      <trkpt lat="47.23219" lon="-1.54743">
        <ele>12.39999961853</ele>
        <time>2019-04-02T08:18:55.000Z</time>
      </trkpt>
      <trkpt lat="47.23221" lon="-1.54743">
        <ele>12.39999961853</ele>
        <time>2019-04-02T08:18:56.000Z</time>
      </trkpt>
      <trkpt lat="47.23222" lon="-1.54742">
        <ele>12.39999961853</ele>
        <time>2019-04-02T08:18:57.000Z</time>
      </trkpt>
      <trkpt lat="47.23224" lon="-1.54742">
        <ele>12.39999961853</ele>
        <time>2019-04-02T08:18:58.000Z</time>
      </trkpt>
      <trkpt lat="47.23226" lon="-1.54741">
        <ele>12.39999961853</ele>
        <time>2019-04-02T08:18:59.000Z</time>
      </trkpt>
      <trkpt lat="47.23227" lon="-1.54741">
        <ele>12.199999809265</ele>
        <time>2019-04-02T08:19:00.000Z</time>
      </trkpt>
      <trkpt lat="47.23228" lon="-1.5474">
        <ele>12.199999809265</ele>
        <time>2019-04-02T08:19:01.000Z</time>
      </trkpt>
      <trkpt lat="47.23229" lon="-1.54739">
        <ele>12.199999809265</ele>
        <time>2019-04-02T08:19:02.000Z</time>
      </trkpt>
      <trkpt lat="47.23231" lon="-1.54738">
        <ele>12.199999809265</ele>
        <time>2019-04-02T08:19:03.000Z</time>
      </trkpt>
      <trkpt lat="47.23231" lon="-1.54738">
        <ele>12.199999809265</ele>
        <time>2019-04-02T08:19:04.000Z</time>
      </trkpt>
      <trkpt lat="47.23233" lon="-1.54737">
        <ele>12.199999809265</ele>
        <time>2019-04-02T08:19:05.000Z</time>
      </trkpt>
      <trkpt lat="47.23234" lon="-1.54736">
        <ele>12.199999809265</ele>
        <time>2019-04-02T08:19:06.000Z</time>
      </trkpt>
      <trkpt lat="47.23235" lon="-1.54735">
        <ele>12.199999809265</ele>
        <time>2019-04-02T08:19:07.000Z</time>
      </trkpt>
      <trkpt lat="47.23236" lon="-1.54733">
        <ele>12.199999809265</ele>
        <time>2019-04-02T08:19:08.000Z</time>
      </trkpt>
      <trkpt lat="47.23238" lon="-1.54732">
        <ele>12.199999809265</ele>
        <time>2019-04-02T08:19:09.000Z</time>
      </trkpt>
      <trkpt lat="47.23239" lon="-1.54731">
        <ele>12.199999809265</ele>
        <time>2019-04-02T08:19:10.000Z</time>
      </trkpt>
      <trkpt lat="47.2324" lon="-1.54729">
        <ele>12.39999961853</ele>
        <time>2019-04-02T08:19:11.000Z</time>
      </trkpt>
      <trkpt lat="47.23241" lon="-1.54728">
        <ele>12.39999961853</ele>
        <time>2019-04-02T08:19:12.000Z</time>
      </trkpt>
      <trkpt lat="47.23242" lon="-1.54727">
        <ele>12.39999961853</ele>
        <time>2019-04-02T08:19:13.000Z</time>
      </trkpt>
      <trkpt lat="47.23243" lon="-1.54725">
        <ele>12.39999961853</ele>
        <time>2019-04-02T08:19:14.000Z</time>
      </trkpt>
      <trkpt lat="47.23244" lon="-1.54724">
        <ele>12.39999961853</ele>
        <time>2019-04-02T08:19:15.000Z</time>
      </trkpt>
      <trkpt lat="47.23245" lon="-1.54723">
        <ele>12.39999961853</ele>
        <time>2019-04-02T08:19:16.000Z</time>
      </trkpt>
      <trkpt lat="47.23246" lon="-1.54722">
        <ele>12.39999961853</ele>
        <time>2019-04-02T08:19:17.000Z</time>
      </trkpt>
      <trkpt lat="47.23247" lon="-1.54722">
        <ele>12.39999961853</ele>
        <time>2019-04-02T08:19:18.000Z</time>
      </trkpt>
      <trkpt lat="47.23248" lon="-1.54722">
        <ele>12.199999809265</ele>
        <time>2019-04-02T08:19:19.000Z</time>
      </trkpt>
      <trkpt lat="47.23249" lon="-1.54721">
        <ele>12.199999809265</ele>
        <time>2019-04-02T08:19:20.000Z</time>
      </trkpt>
      <trkpt lat="47.23251" lon="-1.54721">
        <ele>12.199999809265</ele>
        <time>2019-04-02T08:19:21.000Z</time>
      </trkpt>
      <trkpt lat="47.23253" lon="-1.5472">
        <ele>12</ele>
        <time>2019-04-02T08:19:22.000Z</time>
      </trkpt>
      <trkpt lat="47.23254" lon="-1.5472">
        <ele>12</ele>
        <time>2019-04-02T08:19:23.000Z</time>
      </trkpt>
      <trkpt lat="47.23256" lon="-1.5472">
        <ele>11.800000190735</ele>
        <time>2019-04-02T08:19:24.000Z</time>
      </trkpt>
      <trkpt lat="47.23257" lon="-1.5472">
        <ele>11.800000190735</ele>
        <time>2019-04-02T08:19:25.000Z</time>
      </trkpt>
      <trkpt lat="47.23259" lon="-1.5472">
        <ele>11.800000190735</ele>
        <time>2019-04-02T08:19:26.000Z</time>
      </trkpt>
      <trkpt lat="47.2326" lon="-1.5472">
        <ele>11.60000038147</ele>
        <time>2019-04-02T08:19:27.000Z</time>
      </trkpt>
      <trkpt lat="47.23262" lon="-1.5472">
        <ele>11.60000038147</ele>
        <time>2019-04-02T08:19:28.000Z</time>
      </trkpt>
      <trkpt lat="47.23263" lon="-1.5472">
        <ele>11.39999961853</ele>
        <time>2019-04-02T08:19:29.000Z</time>
      </trkpt>
      <trkpt lat="47.23265" lon="-1.54721">
        <ele>11.39999961853</ele>
        <time>2019-04-02T08:19:30.000Z</time>
      </trkpt>
      <trkpt lat="47.23266" lon="-1.54721">
        <ele>11.199999809265</ele>
        <time>2019-04-02T08:19:31.000Z</time>
      </trkpt>
      <trkpt lat="47.23268" lon="-1.54721">
        <ele>11.199999809265</ele>
        <time>2019-04-02T08:19:32.000Z</time>
      </trkpt>
      <trkpt lat="47.23269" lon="-1.54721">
        <ele>11</ele>
        <time>2019-04-02T08:19:33.000Z</time>
      </trkpt>
      <trkpt lat="47.23271" lon="-1.54722">
        <ele>11</ele>
        <time>2019-04-02T08:19:34.000Z</time>
      </trkpt>
      <trkpt lat="47.23274" lon="-1.54722">
        <ele>10.800000190735</ele>
        <time>2019-04-02T08:19:35.000Z</time>
      </trkpt>
      <trkpt lat="47.23274" lon="-1.54722">
        <ele>10.800000190735</ele>
        <time>2019-04-02T08:19:36.000Z</time>
      </trkpt>
      <trkpt lat="47.23275" lon="-1.54722">
        <ele>10.60000038147</ele>
        <time>2019-04-02T08:19:37.000Z</time>
      </trkpt>
      <trkpt lat="47.23277" lon="-1.54723">
        <ele>10.60000038147</ele>
        <time>2019-04-02T08:19:38.000Z</time>
      </trkpt>
      <trkpt lat="47.23278" lon="-1.54723">
        <ele>10.39999961853</ele>
        <time>2019-04-02T08:19:39.000Z</time>
      </trkpt>
      <trkpt lat="47.2328" lon="-1.54724">
        <ele>10.39999961853</ele>
        <time>2019-04-02T08:19:40.000Z</time>
      </trkpt>
      <trkpt lat="47.23281" lon="-1.54724">
        <ele>10.199999809265</ele>
        <time>2019-04-02T08:19:41.000Z</time>
      </trkpt>
      <trkpt lat="47.23284" lon="-1.54724">
        <ele>10</ele>
        <time>2019-04-02T08:19:42.000Z</time>
      </trkpt>
      <trkpt lat="47.23284" lon="-1.54724">
        <ele>10</ele>
        <time>2019-04-02T08:19:43.000Z</time>
      </trkpt>
      <trkpt lat="47.23286" lon="-1.54725">
        <ele>10</ele>
        <time>2019-04-02T08:19:44.000Z</time>
      </trkpt>
      <trkpt lat="47.23287" lon="-1.54725">
        <ele>9.8000001907349</ele>
        <time>2019-04-02T08:19:45.000Z</time>
      </trkpt>
      <trkpt lat="47.23289" lon="-1.54726">
        <ele>9.8000001907349</ele>
        <time>2019-04-02T08:19:46.000Z</time>
      </trkpt>
      <trkpt lat="47.2329" lon="-1.54726">
        <ele>9.6000003814697</ele>
        <time>2019-04-02T08:19:47.000Z</time>
      </trkpt>
      <trkpt lat="47.23292" lon="-1.54727">
        <ele>9.6000003814697</ele>
        <time>2019-04-02T08:19:48.000Z</time>
      </trkpt>
      <trkpt lat="47.23293" lon="-1.54727">
        <ele>9.3999996185303</ele>
        <time>2019-04-02T08:19:49.000Z</time>
      </trkpt>
      <trkpt lat="47.23294" lon="-1.54728">
        <ele>9.3999996185303</ele>
        <time>2019-04-02T08:19:50.000Z</time>
      </trkpt>
      <trkpt lat="47.23295" lon="-1.54728">
        <ele>9.1999998092651</ele>
        <time>2019-04-02T08:19:51.000Z</time>
      </trkpt>
      <trkpt lat="47.23296" lon="-1.54728">
        <ele>9.1999998092651</ele>
        <time>2019-04-02T08:19:52.000Z</time>
      </trkpt>
      <trkpt lat="47.23298" lon="-1.54729">
        <ele>9</ele>
        <time>2019-04-02T08:19:53.000Z</time>
      </trkpt>
      <trkpt lat="47.23301" lon="-1.54728">
        <ele>8.8000001907349</ele>
        <time>2019-04-02T08:19:54.000Z</time>
      </trkpt>
      <trkpt lat="47.23301" lon="-1.54728">
        <ele>8.8000001907349</ele>
        <time>2019-04-02T08:19:55.000Z</time>
      </trkpt>
      <trkpt lat="47.23303" lon="-1.54728">
        <ele>8.8000001907349</ele>
        <time>2019-04-02T08:19:56.000Z</time>
      </trkpt>
      <trkpt lat="47.23304" lon="-1.54729">
        <ele>8.6000003814697</ele>
        <time>2019-04-02T08:19:57.000Z</time>
      </trkpt>
      <trkpt lat="47.23306" lon="-1.54729">
        <ele>8.6000003814697</ele>
        <time>2019-04-02T08:19:58.000Z</time>
      </trkpt>
      <trkpt lat="47.23307" lon="-1.54729">
        <ele>8.3999996185303</ele>
        <time>2019-04-02T08:19:59.000Z</time>
      </trkpt>
      <trkpt lat="47.23309" lon="-1.54729">
        <ele>8.3999996185303</ele>
        <time>2019-04-02T08:20:00.000Z</time>
      </trkpt>
      <trkpt lat="47.2331" lon="-1.54729">
        <ele>8.1999998092651</ele>
        <time>2019-04-02T08:20:01.000Z</time>
      </trkpt>
      <trkpt lat="47.23313" lon="-1.5473">
        <ele>8</ele>
        <time>2019-04-02T08:20:02.000Z</time>
      </trkpt>
      <trkpt lat="47.23314" lon="-1.54731">
        <ele>8</ele>
        <time>2019-04-02T08:20:03.000Z</time>
      </trkpt>
      <trkpt lat="47.23314" lon="-1.54731">
        <ele>8</ele>
        <time>2019-04-02T08:20:04.000Z</time>
      </trkpt>
      <trkpt lat="47.23316" lon="-1.54731">
        <ele>7.8000001907349</ele>
        <time>2019-04-02T08:20:05.000Z</time>
      </trkpt>
      <trkpt lat="47.23317" lon="-1.54731">
        <ele>7.8000001907349</ele>
        <time>2019-04-02T08:20:06.000Z</time>
      </trkpt>
      <trkpt lat="47.23318" lon="-1.54732">
        <ele>7.8000001907349</ele>
        <time>2019-04-02T08:20:07.000Z</time>
      </trkpt>
      <trkpt lat="47.2332" lon="-1.54732">
        <ele>7.5999999046326</ele>
        <time>2019-04-02T08:20:08.000Z</time>
      </trkpt>
      <trkpt lat="47.23321" lon="-1.54733">
        <ele>7.5999999046326</ele>
        <time>2019-04-02T08:20:09.000Z</time>
      </trkpt>
      <trkpt lat="47.23322" lon="-1.54733">
        <ele>7.4000000953674</ele>
        <time>2019-04-02T08:20:10.000Z</time>
      </trkpt>
      <trkpt lat="47.23324" lon="-1.54733">
        <ele>7.4000000953674</ele>
        <time>2019-04-02T08:20:11.000Z</time>
      </trkpt>
      <trkpt lat="47.23326" lon="-1.54734">
        <ele>7.1999998092651</ele>
        <time>2019-04-02T08:20:12.000Z</time>
      </trkpt>
      <trkpt lat="47.23327" lon="-1.54734">
        <ele>7.1999998092651</ele>
        <time>2019-04-02T08:20:13.000Z</time>
      </trkpt>
      <trkpt lat="47.23329" lon="-1.54734">
        <ele>7</ele>
        <time>2019-04-02T08:20:14.000Z</time>
      </trkpt>
      <trkpt lat="47.23331" lon="-1.54736">
        <ele>7.1999998092651</ele>
        <time>2019-04-02T08:20:15.000Z</time>
      </trkpt>
      <trkpt lat="47.23331" lon="-1.54736">
        <ele>7.1999998092651</ele>
        <time>2019-04-02T08:20:16.000Z</time>
      </trkpt>
      <trkpt lat="47.23333" lon="-1.54737">
        <ele>7.1999998092651</ele>
        <time>2019-04-02T08:20:17.000Z</time>
      </trkpt>
      <trkpt lat="47.23334" lon="-1.54737">
        <ele>7.1999998092651</ele>
        <time>2019-04-02T08:20:18.000Z</time>
      </trkpt>
      <trkpt lat="47.23335" lon="-1.54738">
        <ele>7.1999998092651</ele>
        <time>2019-04-02T08:20:19.000Z</time>
      </trkpt>
      <trkpt lat="47.23336" lon="-1.54739">
        <ele>7.4000000953674</ele>
        <time>2019-04-02T08:20:20.000Z</time>
      </trkpt>
      <trkpt lat="47.23337" lon="-1.5474">
        <ele>7.4000000953674</ele>
        <time>2019-04-02T08:20:21.000Z</time>
      </trkpt>
      <trkpt lat="47.2334" lon="-1.54741">
        <ele>7.4000000953674</ele>
        <time>2019-04-02T08:20:22.000Z</time>
      </trkpt>
      <trkpt lat="47.2334" lon="-1.54741">
        <ele>7.4000000953674</ele>
        <time>2019-04-02T08:20:23.000Z</time>
      </trkpt>
      <trkpt lat="47.23341" lon="-1.54742">
        <ele>7.5999999046326</ele>
        <time>2019-04-02T08:20:24.000Z</time>
      </trkpt>
      <trkpt lat="47.23343" lon="-1.54743">
        <ele>7.5999999046326</ele>
        <time>2019-04-02T08:20:25.000Z</time>
      </trkpt>
      <trkpt lat="47.23344" lon="-1.54743">
        <ele>7.5999999046326</ele>
        <time>2019-04-02T08:20:26.000Z</time>
      </trkpt>
      <trkpt lat="47.23346" lon="-1.54745">
        <ele>7.8000001907349</ele>
        <time>2019-04-02T08:20:27.000Z</time>
      </trkpt>
      <trkpt lat="47.23347" lon="-1.54745">
        <ele>7.8000001907349</ele>
        <time>2019-04-02T08:20:28.000Z</time>
      </trkpt>
      <trkpt lat="47.23348" lon="-1.54746">
        <ele>7.8000001907349</ele>
        <time>2019-04-02T08:20:29.000Z</time>
      </trkpt>
      <trkpt lat="47.2335" lon="-1.54747">
        <ele>8</ele>
        <time>2019-04-02T08:20:30.000Z</time>
      </trkpt>
      <trkpt lat="47.23351" lon="-1.54747">
        <ele>8</ele>
        <time>2019-04-02T08:20:31.000Z</time>
      </trkpt>
      <trkpt lat="47.23352" lon="-1.54748">
        <ele>8</ele>
        <time>2019-04-02T08:20:32.000Z</time>
      </trkpt>
      <trkpt lat="47.23353" lon="-1.5475">
        <ele>8</ele>
        <time>2019-04-02T08:20:33.000Z</time>
      </trkpt>
      <trkpt lat="47.23354" lon="-1.5475">
        <ele>8.1999998092651</ele>
        <time>2019-04-02T08:20:34.000Z</time>
      </trkpt>
      <trkpt lat="47.23356" lon="-1.54751">
        <ele>8.1999998092651</ele>
        <time>2019-04-02T08:20:35.000Z</time>
      </trkpt>
      <trkpt lat="47.23357" lon="-1.54752">
        <ele>8.1999998092651</ele>
        <time>2019-04-02T08:20:36.000Z</time>
      </trkpt>
      <trkpt lat="47.23359" lon="-1.54753">
        <ele>8.3999996185303</ele>
        <time>2019-04-02T08:20:37.000Z</time>
      </trkpt>
      <trkpt lat="47.23362" lon="-1.54755">
        <ele>8.6000003814697</ele>
        <time>2019-04-02T08:20:38.000Z</time>
      </trkpt>
      <trkpt lat="47.23362" lon="-1.54755">
        <ele>8.6000003814697</ele>
        <time>2019-04-02T08:20:39.000Z</time>
      </trkpt>
      <trkpt lat="47.23364" lon="-1.54755">
        <ele>8.6000003814697</ele>
        <time>2019-04-02T08:20:40.000Z</time>
      </trkpt>
      <trkpt lat="47.23365" lon="-1.54756">
        <ele>8.6000003814697</ele>
        <time>2019-04-02T08:20:41.000Z</time>
      </trkpt>
      <trkpt lat="47.23368" lon="-1.54758">
        <ele>8.8000001907349</ele>
        <time>2019-04-02T08:20:42.000Z</time>
      </trkpt>
      <trkpt lat="47.23368" lon="-1.54758">
        <ele>8.8000001907349</ele>
        <time>2019-04-02T08:20:43.000Z</time>
      </trkpt>
      <trkpt lat="47.23369" lon="-1.54759">
        <ele>8.8000001907349</ele>
        <time>2019-04-02T08:20:44.000Z</time>
      </trkpt>
      <trkpt lat="47.2337" lon="-1.5476">
        <ele>8.8000001907349</ele>
        <time>2019-04-02T08:20:45.000Z</time>
      </trkpt>
      <trkpt lat="47.23372" lon="-1.54761">
        <ele>9</ele>
        <time>2019-04-02T08:20:46.000Z</time>
      </trkpt>
      <trkpt lat="47.23373" lon="-1.54762">
        <ele>9</ele>
        <time>2019-04-02T08:20:47.000Z</time>
      </trkpt>
      <trkpt lat="47.23374" lon="-1.54763">
        <ele>9</ele>
        <time>2019-04-02T08:20:48.000Z</time>
      </trkpt>
      <trkpt lat="47.23376" lon="-1.54764">
        <ele>9.1999998092651</ele>
        <time>2019-04-02T08:20:49.000Z</time>
      </trkpt>
      <trkpt lat="47.23378" lon="-1.54764">
        <ele>9.1999998092651</ele>
        <time>2019-04-02T08:20:50.000Z</time>
      </trkpt>
      <trkpt lat="47.2338" lon="-1.54765">
        <ele>9.1999998092651</ele>
        <time>2019-04-02T08:20:51.000Z</time>
      </trkpt>
      <trkpt lat="47.23381" lon="-1.54766">
        <ele>9.3999996185303</ele>
        <time>2019-04-02T08:20:52.000Z</time>
      </trkpt>
      <trkpt lat="47.23383" lon="-1.54766">
        <ele>9.3999996185303</ele>
        <time>2019-04-02T08:20:53.000Z</time>
      </trkpt>
      <trkpt lat="47.23384" lon="-1.54767">
        <ele>9.3999996185303</ele>
        <time>2019-04-02T08:20:54.000Z</time>
      </trkpt>
      <trkpt lat="47.23385" lon="-1.54768">
        <ele>9.3999996185303</ele>
        <time>2019-04-02T08:20:55.000Z</time>
      </trkpt>
      <trkpt lat="47.23388" lon="-1.54769">
        <ele>9.3999996185303</ele>
        <time>2019-04-02T08:20:56.000Z</time>
      </trkpt>
      <trkpt lat="47.23388" lon="-1.54769">
        <ele>9.3999996185303</ele>
        <time>2019-04-02T08:20:57.000Z</time>
      </trkpt>
      <trkpt lat="47.23389" lon="-1.5477">
        <ele>9.3999996185303</ele>
        <time>2019-04-02T08:20:58.000Z</time>
      </trkpt>
      <trkpt lat="47.23391" lon="-1.54771">
        <ele>9.1999998092651</ele>
        <time>2019-04-02T08:20:59.000Z</time>
      </trkpt>
      <trkpt lat="47.23392" lon="-1.54772">
        <ele>9.1999998092651</ele>
        <time>2019-04-02T08:21:00.000Z</time>
      </trkpt>
      <trkpt lat="47.23393" lon="-1.54773">
        <ele>9.1999998092651</ele>
        <time>2019-04-02T08:21:01.000Z</time>
      </trkpt>
      <trkpt lat="47.23395" lon="-1.54773">
        <ele>9.1999998092651</ele>
        <time>2019-04-02T08:21:02.000Z</time>
      </trkpt>
      <trkpt lat="47.23396" lon="-1.54774">
        <ele>9.1999998092651</ele>
        <time>2019-04-02T08:21:03.000Z</time>
      </trkpt>
      <trkpt lat="47.23398" lon="-1.54775">
        <ele>9.1999998092651</ele>
        <time>2019-04-02T08:21:04.000Z</time>
      </trkpt>
      <trkpt lat="47.23399" lon="-1.54776">
        <ele>9.1999998092651</ele>
        <time>2019-04-02T08:21:05.000Z</time>
      </trkpt>
      <trkpt lat="47.234" lon="-1.54776">
        <ele>9.1999998092651</ele>
        <time>2019-04-02T08:21:06.000Z</time>
      </trkpt>
      <trkpt lat="47.23401" lon="-1.54776">
        <ele>9.1999998092651</ele>
        <time>2019-04-02T08:21:07.000Z</time>
      </trkpt>
      <trkpt lat="47.23404" lon="-1.54776">
        <ele>9.1999998092651</ele>
        <time>2019-04-02T08:21:08.000Z</time>
      </trkpt>
      <trkpt lat="47.23404" lon="-1.54776">
        <ele>9.1999998092651</ele>
        <time>2019-04-02T08:21:09.000Z</time>
      </trkpt>
      <trkpt lat="47.23405" lon="-1.54776">
        <ele>9.3999996185303</ele>
        <time>2019-04-02T08:21:10.000Z</time>
      </trkpt>
      <trkpt lat="47.23407" lon="-1.54776">
        <ele>9.3999996185303</ele>
        <time>2019-04-02T08:21:11.000Z</time>
      </trkpt>
      <trkpt lat="47.23408" lon="-1.54776">
        <ele>9.3999996185303</ele>
        <time>2019-04-02T08:21:12.000Z</time>
      </trkpt>
      <trkpt lat="47.23409" lon="-1.54776">
        <ele>9.3999996185303</ele>
        <time>2019-04-02T08:21:13.000Z</time>
      </trkpt>
      <trkpt lat="47.2341" lon="-1.54776">
        <ele>9.3999996185303</ele>
        <time>2019-04-02T08:21:14.000Z</time>
      </trkpt>
      <trkpt lat="47.23411" lon="-1.54776">
        <ele>9.3999996185303</ele>
        <time>2019-04-02T08:21:15.000Z</time>
      </trkpt>
      <trkpt lat="47.23412" lon="-1.54776">
        <ele>9.3999996185303</ele>
        <time>2019-04-02T08:21:16.000Z</time>
      </trkpt>
      <trkpt lat="47.23413" lon="-1.54776">
        <ele>9.3999996185303</ele>
        <time>2019-04-02T08:21:17.000Z</time>
      </trkpt>
      <trkpt lat="47.23414" lon="-1.54776">
        <ele>9.3999996185303</ele>
        <time>2019-04-02T08:21:18.000Z</time>
      </trkpt>
      <trkpt lat="47.23415" lon="-1.54775">
        <ele>9.3999996185303</ele>
        <time>2019-04-02T08:21:19.000Z</time>
      </trkpt>
      <trkpt lat="47.23417" lon="-1.54775">
        <ele>9.3999996185303</ele>
        <time>2019-04-02T08:21:20.000Z</time>
      </trkpt>
      <trkpt lat="47.23418" lon="-1.54775">
        <ele>9.3999996185303</ele>
        <time>2019-04-02T08:21:21.000Z</time>
      </trkpt>
      <trkpt lat="47.23419" lon="-1.54775">
        <ele>9.3999996185303</ele>
        <time>2019-04-02T08:21:22.000Z</time>
      </trkpt>
      <trkpt lat="47.2342" lon="-1.54775">
        <ele>9.3999996185303</ele>
        <time>2019-04-02T08:21:23.000Z</time>
      </trkpt>
      <trkpt lat="47.23421" lon="-1.54774">
        <ele>9.3999996185303</ele>
        <time>2019-04-02T08:21:24.000Z</time>
      </trkpt>
      <trkpt lat="47.23423" lon="-1.54774">
        <ele>9.6000003814697</ele>
        <time>2019-04-02T08:21:25.000Z</time>
      </trkpt>
      <trkpt lat="47.23424" lon="-1.54773">
        <ele>9.6000003814697</ele>
        <time>2019-04-02T08:21:26.000Z</time>
      </trkpt>
      <trkpt lat="47.23427" lon="-1.54772">
        <ele>9.6000003814697</ele>
        <time>2019-04-02T08:21:27.000Z</time>
      </trkpt>
      <trkpt lat="47.23427" lon="-1.54772">
        <ele>9.6000003814697</ele>
        <time>2019-04-02T08:21:28.000Z</time>
      </trkpt>
      <trkpt lat="47.23428" lon="-1.54772">
        <ele>9.6000003814697</ele>
        <time>2019-04-02T08:21:29.000Z</time>
      </trkpt>
      <trkpt lat="47.2343" lon="-1.54772">
        <ele>9.6000003814697</ele>
        <time>2019-04-02T08:21:30.000Z</time>
      </trkpt>
      <trkpt lat="47.23432" lon="-1.54772">
        <ele>9.6000003814697</ele>
        <time>2019-04-02T08:21:31.000Z</time>
      </trkpt>
      <trkpt lat="47.23434" lon="-1.54772">
        <ele>9.3999996185303</ele>
        <time>2019-04-02T08:21:32.000Z</time>
      </trkpt>
      <trkpt lat="47.23435" lon="-1.54772">
        <ele>9.3999996185303</ele>
        <time>2019-04-02T08:21:33.000Z</time>
      </trkpt>
      <trkpt lat="47.23436" lon="-1.54772">
        <ele>9.3999996185303</ele>
        <time>2019-04-02T08:21:34.000Z</time>
      </trkpt>
      <trkpt lat="47.23437" lon="-1.54772">
        <ele>9.3999996185303</ele>
        <time>2019-04-02T08:21:35.000Z</time>
      </trkpt>
      <trkpt lat="47.23438" lon="-1.54772">
        <ele>9.3999996185303</ele>
        <time>2019-04-02T08:21:36.000Z</time>
      </trkpt>
      <trkpt lat="47.2344" lon="-1.54772">
        <ele>9.3999996185303</ele>
        <time>2019-04-02T08:21:37.000Z</time>
      </trkpt>
      <trkpt lat="47.23441" lon="-1.54771">
        <ele>9.3999996185303</ele>
        <time>2019-04-02T08:21:38.000Z</time>
      </trkpt>
      <trkpt lat="47.23442" lon="-1.54771">
        <ele>9.3999996185303</ele>
        <time>2019-04-02T08:21:39.000Z</time>
      </trkpt>
      <trkpt lat="47.23444" lon="-1.54771">
        <ele>9.3999996185303</ele>
        <time>2019-04-02T08:21:40.000Z</time>
      </trkpt>
      <trkpt lat="47.23445" lon="-1.54771">
        <ele>9.3999996185303</ele>
        <time>2019-04-02T08:21:41.000Z</time>
      </trkpt>
      <trkpt lat="47.23446" lon="-1.54772">
        <ele>9.3999996185303</ele>
        <time>2019-04-02T08:21:42.000Z</time>
      </trkpt>
      <trkpt lat="47.23448" lon="-1.54772">
        <ele>9.3999996185303</ele>
        <time>2019-04-02T08:21:43.000Z</time>
      </trkpt>
      <trkpt lat="47.23449" lon="-1.54772">
        <ele>9.1999998092651</ele>
        <time>2019-04-02T08:21:44.000Z</time>
      </trkpt>
      <trkpt lat="47.23451" lon="-1.54772">
        <ele>9.1999998092651</ele>
        <time>2019-04-02T08:21:45.000Z</time>
      </trkpt>
      <trkpt lat="47.23452" lon="-1.54773">
        <ele>9.1999998092651</ele>
        <time>2019-04-02T08:21:46.000Z</time>
      </trkpt>
      <trkpt lat="47.23454" lon="-1.54776">
        <ele>9</ele>
        <time>2019-04-02T08:21:47.000Z</time>
      </trkpt>
      <trkpt lat="47.23454" lon="-1.54776">
        <ele>9</ele>
        <time>2019-04-02T08:21:48.000Z</time>
      </trkpt>
      <trkpt lat="47.23455" lon="-1.54777">
        <ele>9</ele>
        <time>2019-04-02T08:21:49.000Z</time>
      </trkpt>
      <trkpt lat="47.23456" lon="-1.54777">
        <ele>9</ele>
        <time>2019-04-02T08:21:50.000Z</time>
      </trkpt>
      <trkpt lat="47.23457" lon="-1.54778">
        <ele>9</ele>
        <time>2019-04-02T08:21:51.000Z</time>
      </trkpt>
      <trkpt lat="47.23458" lon="-1.54778">
        <ele>9</ele>
        <time>2019-04-02T08:21:52.000Z</time>
      </trkpt>
      <trkpt lat="47.2346" lon="-1.54778">
        <ele>9</ele>
        <time>2019-04-02T08:21:53.000Z</time>
      </trkpt>
      <trkpt lat="47.23461" lon="-1.54778">
        <ele>9.1999998092651</ele>
        <time>2019-04-02T08:21:54.000Z</time>
      </trkpt>
      <trkpt lat="47.23463" lon="-1.54778">
        <ele>9.1999998092651</ele>
        <time>2019-04-02T08:21:55.000Z</time>
      </trkpt>
      <trkpt lat="47.23465" lon="-1.54778">
        <ele>9.1999998092651</ele>
        <time>2019-04-02T08:21:56.000Z</time>
      </trkpt>
      <trkpt lat="47.23467" lon="-1.54778">
        <ele>9.1999998092651</ele>
        <time>2019-04-02T08:21:57.000Z</time>
      </trkpt>
      <trkpt lat="47.23468" lon="-1.54778">
        <ele>9.1999998092651</ele>
        <time>2019-04-02T08:21:58.000Z</time>
      </trkpt>
      <trkpt lat="47.2347" lon="-1.54778">
        <ele>9.3999996185303</ele>
        <time>2019-04-02T08:21:59.000Z</time>
      </trkpt>
      <trkpt lat="47.23471" lon="-1.54778">
        <ele>9.3999996185303</ele>
        <time>2019-04-02T08:22:00.000Z</time>
      </trkpt>
      <trkpt lat="47.23472" lon="-1.54778">
        <ele>9.3999996185303</ele>
        <time>2019-04-02T08:22:01.000Z</time>
      </trkpt>
      <trkpt lat="47.23474" lon="-1.54779">
        <ele>9.3999996185303</ele>
        <time>2019-04-02T08:22:02.000Z</time>
      </trkpt>
      <trkpt lat="47.23474" lon="-1.54779">
        <ele>9.3999996185303</ele>
        <time>2019-04-02T08:22:03.000Z</time>
      </trkpt>
      <trkpt lat="47.23476" lon="-1.54779">
        <ele>9.3999996185303</ele>
        <time>2019-04-02T08:22:04.000Z</time>
      </trkpt>
      <trkpt lat="47.23477" lon="-1.5478">
        <ele>9.3999996185303</ele>
        <time>2019-04-02T08:22:05.000Z</time>
      </trkpt>
      <trkpt lat="47.23479" lon="-1.5478">
        <ele>9.3999996185303</ele>
        <time>2019-04-02T08:22:06.000Z</time>
      </trkpt>
      <trkpt lat="47.2348" lon="-1.5478">
        <ele>9.6000003814697</ele>
        <time>2019-04-02T08:22:07.000Z</time>
      </trkpt>
      <trkpt lat="47.23481" lon="-1.5478">
        <ele>9.6000003814697</ele>
        <time>2019-04-02T08:22:08.000Z</time>
      </trkpt>
      <trkpt lat="47.23483" lon="-1.54781">
        <ele>9.6000003814697</ele>
        <time>2019-04-02T08:22:09.000Z</time>
      </trkpt>
      <trkpt lat="47.23484" lon="-1.54781">
        <ele>9.6000003814697</ele>
        <time>2019-04-02T08:22:10.000Z</time>
      </trkpt>
      <trkpt lat="47.23485" lon="-1.54781">
        <ele>9.6000003814697</ele>
        <time>2019-04-02T08:22:11.000Z</time>
      </trkpt>
      <trkpt lat="47.23486" lon="-1.54782">
        <ele>9.6000003814697</ele>
        <time>2019-04-02T08:22:12.000Z</time>
      </trkpt>
      <trkpt lat="47.23487" lon="-1.54782">
        <ele>9.6000003814697</ele>
        <time>2019-04-02T08:22:13.000Z</time>
      </trkpt>
      <trkpt lat="47.23489" lon="-1.54783">
        <ele>9.6000003814697</ele>
        <time>2019-04-02T08:22:14.000Z</time>
      </trkpt>
      <trkpt lat="47.2349" lon="-1.54784">
        <ele>9.6000003814697</ele>
        <time>2019-04-02T08:22:15.000Z</time>
      </trkpt>
      <trkpt lat="47.23491" lon="-1.54785">
        <ele>9.6000003814697</ele>
        <time>2019-04-02T08:22:16.000Z</time>
      </trkpt>
      <trkpt lat="47.23492" lon="-1.54786">
        <ele>9.6000003814697</ele>
        <time>2019-04-02T08:22:17.000Z</time>
      </trkpt>
      <trkpt lat="47.23493" lon="-1.54787">
        <ele>9.6000003814697</ele>
        <time>2019-04-02T08:22:18.000Z</time>
      </trkpt>
      <trkpt lat="47.23495" lon="-1.54789">
        <ele>9.6000003814697</ele>
        <time>2019-04-02T08:22:19.000Z</time>
      </trkpt>
      <trkpt lat="47.23496" lon="-1.5479">
        <ele>9.6000003814697</ele>
        <time>2019-04-02T08:22:20.000Z</time>
      </trkpt>
      <trkpt lat="47.23497" lon="-1.54791">
        <ele>9.6000003814697</ele>
        <time>2019-04-02T08:22:21.000Z</time>
      </trkpt>
      <trkpt lat="47.23498" lon="-1.54793">
        <ele>9.6000003814697</ele>
        <time>2019-04-02T08:22:22.000Z</time>
      </trkpt>
      <trkpt lat="47.23499" lon="-1.54794">
        <ele>9.3999996185303</ele>
        <time>2019-04-02T08:22:23.000Z</time>
      </trkpt>
      <trkpt lat="47.235" lon="-1.54795">
        <ele>9.3999996185303</ele>
        <time>2019-04-02T08:22:24.000Z</time>
      </trkpt>
      <trkpt lat="47.23501" lon="-1.54796">
        <ele>9.3999996185303</ele>
        <time>2019-04-02T08:22:25.000Z</time>
      </trkpt>
      <trkpt lat="47.23502" lon="-1.54797">
        <ele>9.3999996185303</ele>
        <time>2019-04-02T08:22:26.000Z</time>
      </trkpt>
      <trkpt lat="47.23503" lon="-1.54798">
        <ele>9.1999998092651</ele>
        <time>2019-04-02T08:22:27.000Z</time>
      </trkpt>
      <trkpt lat="47.23504" lon="-1.54799">
        <ele>9.1999998092651</ele>
        <time>2019-04-02T08:22:28.000Z</time>
      </trkpt>
      <trkpt lat="47.23505" lon="-1.548">
        <ele>9.1999998092651</ele>
        <time>2019-04-02T08:22:29.000Z</time>
      </trkpt>
      <trkpt lat="47.23507" lon="-1.548">
        <ele>9.1999998092651</ele>
        <time>2019-04-02T08:22:30.000Z</time>
      </trkpt>
      <trkpt lat="47.23508" lon="-1.54801">
        <ele>9.1999998092651</ele>
        <time>2019-04-02T08:22:31.000Z</time>
      </trkpt>
      <trkpt lat="47.2351" lon="-1.54801">
        <ele>9</ele>
        <time>2019-04-02T08:22:32.000Z</time>
      </trkpt>
      <trkpt lat="47.23511" lon="-1.54802">
        <ele>9</ele>
        <time>2019-04-02T08:22:33.000Z</time>
      </trkpt>
      <trkpt lat="47.23513" lon="-1.54803">
        <ele>9</ele>
        <time>2019-04-02T08:22:34.000Z</time>
      </trkpt>
      <trkpt lat="47.23514" lon="-1.54804">
        <ele>8.8000001907349</ele>
        <time>2019-04-02T08:22:35.000Z</time>
      </trkpt>
      <trkpt lat="47.23515" lon="-1.54805">
        <ele>8.8000001907349</ele>
        <time>2019-04-02T08:22:36.000Z</time>
      </trkpt>
      <trkpt lat="47.23516" lon="-1.54805">
        <ele>8.8000001907349</ele>
        <time>2019-04-02T08:22:37.000Z</time>
      </trkpt>
      <trkpt lat="47.23519" lon="-1.54807">
        <ele>8.6000003814697</ele>
        <time>2019-04-02T08:22:38.000Z</time>
      </trkpt>
      <trkpt lat="47.23519" lon="-1.54807">
        <ele>8.6000003814697</ele>
        <time>2019-04-02T08:22:39.000Z</time>
      </trkpt>
      <trkpt lat="47.23521" lon="-1.54807">
        <ele>8.6000003814697</ele>
        <time>2019-04-02T08:22:40.000Z</time>
      </trkpt>
      <trkpt lat="47.23522" lon="-1.54808">
        <ele>8.6000003814697</ele>
        <time>2019-04-02T08:22:41.000Z</time>
      </trkpt>
      <trkpt lat="47.23524" lon="-1.54808">
        <ele>8.6000003814697</ele>
        <time>2019-04-02T08:22:42.000Z</time>
      </trkpt>
      <trkpt lat="47.23526" lon="-1.54809">
        <ele>8.3999996185303</ele>
        <time>2019-04-02T08:22:43.000Z</time>
      </trkpt>
      <trkpt lat="47.23526" lon="-1.54809">
        <ele>8.3999996185303</ele>
        <time>2019-04-02T08:22:44.000Z</time>
      </trkpt>
      <trkpt lat="47.23527" lon="-1.54809">
        <ele>8.3999996185303</ele>
        <time>2019-04-02T08:22:45.000Z</time>
      </trkpt>
      <trkpt lat="47.23529" lon="-1.5481">
        <ele>8.3999996185303</ele>
        <time>2019-04-02T08:22:46.000Z</time>
      </trkpt>
      <trkpt lat="47.2353" lon="-1.5481">
        <ele>8.3999996185303</ele>
        <time>2019-04-02T08:22:47.000Z</time>
      </trkpt>
      <trkpt lat="47.23531" lon="-1.54811">
        <ele>8.3999996185303</ele>
        <time>2019-04-02T08:22:48.000Z</time>
      </trkpt>
      <trkpt lat="47.23532" lon="-1.54812">
        <ele>8.1999998092651</ele>
        <time>2019-04-02T08:22:49.000Z</time>
      </trkpt>
      <trkpt lat="47.23533" lon="-1.54812">
        <ele>8.1999998092651</ele>
        <time>2019-04-02T08:22:50.000Z</time>
      </trkpt>
      <trkpt lat="47.23533" lon="-1.54815">
        <ele>8.1999998092651</ele>
        <time>2019-04-02T08:22:51.000Z</time>
      </trkpt>
      <trkpt lat="47.23534" lon="-1.54815">
        <ele>8.1999998092651</ele>
        <time>2019-04-02T08:22:52.000Z</time>
      </trkpt>
      <trkpt lat="47.23535" lon="-1.54817">
        <ele>8</ele>
        <time>2019-04-02T08:22:53.000Z</time>
      </trkpt>
      <trkpt lat="47.23536" lon="-1.54818">
        <ele>8</ele>
        <time>2019-04-02T08:22:54.000Z</time>
      </trkpt>
      <trkpt lat="47.23536" lon="-1.54818">
        <ele>8</ele>
        <time>2019-04-02T08:22:55.000Z</time>
      </trkpt>
      <trkpt lat="47.23537" lon="-1.54818">
        <ele>8</ele>
        <time>2019-04-02T08:22:56.000Z</time>
      </trkpt>
      <trkpt lat="47.23539" lon="-1.54818">
        <ele>8</ele>
        <time>2019-04-02T08:22:57.000Z</time>
      </trkpt>
      <trkpt lat="47.2354" lon="-1.54818">
        <ele>8</ele>
        <time>2019-04-02T08:22:58.000Z</time>
      </trkpt>
      <trkpt lat="47.23542" lon="-1.54818">
        <ele>8</ele>
        <time>2019-04-02T08:22:59.000Z</time>
      </trkpt>
      <trkpt lat="47.23544" lon="-1.54818">
        <ele>7.8000001907349</ele>
        <time>2019-04-02T08:23:00.000Z</time>
      </trkpt>
      <trkpt lat="47.23545" lon="-1.54819">
        <ele>7.8000001907349</ele>
        <time>2019-04-02T08:23:01.000Z</time>
      </trkpt>
      <trkpt lat="47.23551" lon="-1.54823">
        <ele>7.8000001907349</ele>
        <time>2019-04-02T08:23:02.000Z</time>
      </trkpt>
      <trkpt lat="47.23551" lon="-1.54823">
        <ele>7.8000001907349</ele>
        <time>2019-04-02T08:23:03.000Z</time>
      </trkpt>
      <trkpt lat="47.23553" lon="-1.54824">
        <ele>7.8000001907349</ele>
        <time>2019-04-02T08:23:04.000Z</time>
      </trkpt>
      <trkpt lat="47.23555" lon="-1.54825">
        <ele>7.8000001907349</ele>
        <time>2019-04-02T08:23:05.000Z</time>
      </trkpt>
      <trkpt lat="47.23556" lon="-1.54827">
        <ele>7.8000001907349</ele>
        <time>2019-04-02T08:23:06.000Z</time>
      </trkpt>
      <trkpt lat="47.23558" lon="-1.54828">
        <ele>8</ele>
        <time>2019-04-02T08:23:07.000Z</time>
      </trkpt>
      <trkpt lat="47.23559" lon="-1.54829">
        <ele>7.8000001907349</ele>
        <time>2019-04-02T08:23:08.000Z</time>
      </trkpt>
      <trkpt lat="47.2356" lon="-1.5483">
        <ele>7.8000001907349</ele>
        <time>2019-04-02T08:23:09.000Z</time>
      </trkpt>
      <trkpt lat="47.23562" lon="-1.5483">
        <ele>7.8000001907349</ele>
        <time>2019-04-02T08:23:10.000Z</time>
      </trkpt>
      <trkpt lat="47.23564" lon="-1.54831">
        <ele>7.8000001907349</ele>
        <time>2019-04-02T08:23:11.000Z</time>
      </trkpt>
      <trkpt lat="47.23565" lon="-1.54832">
        <ele>7.8000001907349</ele>
        <time>2019-04-02T08:23:12.000Z</time>
      </trkpt>
      <trkpt lat="47.23569" lon="-1.54832">
        <ele>7.5999999046326</ele>
        <time>2019-04-02T08:23:13.000Z</time>
      </trkpt>
      <trkpt lat="47.23569" lon="-1.54832">
        <ele>7.5999999046326</ele>
        <time>2019-04-02T08:23:14.000Z</time>
      </trkpt>
      <trkpt lat="47.2357" lon="-1.54833">
        <ele>7.5999999046326</ele>
        <time>2019-04-02T08:23:15.000Z</time>
      </trkpt>
      <trkpt lat="47.23572" lon="-1.54833">
        <ele>7.5999999046326</ele>
        <time>2019-04-02T08:23:16.000Z</time>
      </trkpt>
      <trkpt lat="47.23573" lon="-1.54833">
        <ele>7.4000000953674</ele>
        <time>2019-04-02T08:23:17.000Z</time>
      </trkpt>
      <trkpt lat="47.23575" lon="-1.54833">
        <ele>7.4000000953674</ele>
        <time>2019-04-02T08:23:18.000Z</time>
      </trkpt>
      <trkpt lat="47.23577" lon="-1.54834">
        <ele>7.1999998092651</ele>
        <time>2019-04-02T08:23:19.000Z</time>
      </trkpt>
      <trkpt lat="47.23579" lon="-1.54833">
        <ele>7.1999998092651</ele>
        <time>2019-04-02T08:23:20.000Z</time>
      </trkpt>
      <trkpt lat="47.2358" lon="-1.54833">
        <ele>7.1999998092651</ele>
        <time>2019-04-02T08:23:21.000Z</time>
      </trkpt>
      <trkpt lat="47.23582" lon="-1.54833">
        <ele>7.1999998092651</ele>
        <time>2019-04-02T08:23:22.000Z</time>
      </trkpt>
      <trkpt lat="47.23583" lon="-1.54833">
        <ele>7.1999998092651</ele>
        <time>2019-04-02T08:23:23.000Z</time>
      </trkpt>
      <trkpt lat="47.23584" lon="-1.54832">
        <ele>7.4000000953674</ele>
        <time>2019-04-02T08:23:24.000Z</time>
      </trkpt>
      <trkpt lat="47.23586" lon="-1.54832">
        <ele>7.4000000953674</ele>
        <time>2019-04-02T08:23:25.000Z</time>
      </trkpt>
      <trkpt lat="47.23588" lon="-1.54831">
        <ele>7.4000000953674</ele>
        <time>2019-04-02T08:23:26.000Z</time>
      </trkpt>
      <trkpt lat="47.23588" lon="-1.54831">
        <ele>7.4000000953674</ele>
        <time>2019-04-02T08:23:27.000Z</time>
      </trkpt>
      <trkpt lat="47.23589" lon="-1.54831">
        <ele>7.4000000953674</ele>
        <time>2019-04-02T08:23:28.000Z</time>
      </trkpt>
      <trkpt lat="47.23591" lon="-1.54831">
        <ele>7.4000000953674</ele>
        <time>2019-04-02T08:23:29.000Z</time>
      </trkpt>
      <trkpt lat="47.23592" lon="-1.54831">
        <ele>7.4000000953674</ele>
        <time>2019-04-02T08:23:30.000Z</time>
      </trkpt>
      <trkpt lat="47.23593" lon="-1.54831">
        <ele>7.5999999046326</ele>
        <time>2019-04-02T08:23:31.000Z</time>
      </trkpt>
      <trkpt lat="47.23595" lon="-1.54831">
        <ele>7.5999999046326</ele>
        <time>2019-04-02T08:23:32.000Z</time>
      </trkpt>
      <trkpt lat="47.23597" lon="-1.54831">
        <ele>7.5999999046326</ele>
        <time>2019-04-02T08:23:33.000Z</time>
      </trkpt>
      <trkpt lat="47.23599" lon="-1.54831">
        <ele>7.5999999046326</ele>
        <time>2019-04-02T08:23:34.000Z</time>
      </trkpt>
      <trkpt lat="47.23601" lon="-1.54831">
        <ele>7.5999999046326</ele>
        <time>2019-04-02T08:23:35.000Z</time>
      </trkpt>
      <trkpt lat="47.23602" lon="-1.54831">
        <ele>7.8000001907349</ele>
        <time>2019-04-02T08:23:36.000Z</time>
      </trkpt>
      <trkpt lat="47.23603" lon="-1.54831">
        <ele>7.8000001907349</ele>
        <time>2019-04-02T08:23:37.000Z</time>
      </trkpt>
      <trkpt lat="47.23604" lon="-1.54832">
        <ele>7.8000001907349</ele>
        <time>2019-04-02T08:23:38.000Z</time>
      </trkpt>
      <trkpt lat="47.23605" lon="-1.54832">
        <ele>7.8000001907349</ele>
        <time>2019-04-02T08:23:39.000Z</time>
      </trkpt>
      <trkpt lat="47.23607" lon="-1.54833">
        <ele>7.8000001907349</ele>
        <time>2019-04-02T08:23:40.000Z</time>
      </trkpt>
      <trkpt lat="47.23608" lon="-1.54833">
        <ele>7.8000001907349</ele>
        <time>2019-04-02T08:23:41.000Z</time>
      </trkpt>
      <trkpt lat="47.2361" lon="-1.54834">
        <ele>8</ele>
        <time>2019-04-02T08:23:42.000Z</time>
      </trkpt>
      <trkpt lat="47.23611" lon="-1.54835">
        <ele>8</ele>
        <time>2019-04-02T08:23:43.000Z</time>
      </trkpt>
      <trkpt lat="47.23612" lon="-1.54836">
        <ele>8</ele>
        <time>2019-04-02T08:23:44.000Z</time>
      </trkpt>
      <trkpt lat="47.23614" lon="-1.54838">
        <ele>8</ele>
        <time>2019-04-02T08:23:45.000Z</time>
      </trkpt>
      <trkpt lat="47.23614" lon="-1.54838">
        <ele>8</ele>
        <time>2019-04-02T08:23:46.000Z</time>
      </trkpt>
      <trkpt lat="47.23615" lon="-1.54838">
        <ele>8.1999998092651</ele>
        <time>2019-04-02T08:23:47.000Z</time>
      </trkpt>
      <trkpt lat="47.23616" lon="-1.54839">
        <ele>8.1999998092651</ele>
        <time>2019-04-02T08:23:48.000Z</time>
      </trkpt>
      <trkpt lat="47.23618" lon="-1.5484">
        <ele>8.1999998092651</ele>
        <time>2019-04-02T08:23:49.000Z</time>
      </trkpt>
      <trkpt lat="47.2362" lon="-1.54841">
        <ele>8.1999998092651</ele>
        <time>2019-04-02T08:23:50.000Z</time>
      </trkpt>
      <trkpt lat="47.23621" lon="-1.54842">
        <ele>8.3999996185303</ele>
        <time>2019-04-02T08:23:51.000Z</time>
      </trkpt>
      <trkpt lat="47.23623" lon="-1.54843">
        <ele>8.3999996185303</ele>
        <time>2019-04-02T08:23:52.000Z</time>
      </trkpt>
      <trkpt lat="47.23625" lon="-1.54844">
        <ele>8.3999996185303</ele>
        <time>2019-04-02T08:23:53.000Z</time>
      </trkpt>
      <trkpt lat="47.23626" lon="-1.54845">
        <ele>8.3999996185303</ele>
        <time>2019-04-02T08:23:54.000Z</time>
      </trkpt>
      <trkpt lat="47.23627" lon="-1.54847">
        <ele>8.3999996185303</ele>
        <time>2019-04-02T08:23:55.000Z</time>
      </trkpt>
      <trkpt lat="47.23629" lon="-1.54849">
        <ele>8.6000003814697</ele>
        <time>2019-04-02T08:23:56.000Z</time>
      </trkpt>
      <trkpt lat="47.23629" lon="-1.54849">
        <ele>8.6000003814697</ele>
        <time>2019-04-02T08:23:57.000Z</time>
      </trkpt>
      <trkpt lat="47.2363" lon="-1.5485">
        <ele>8.6000003814697</ele>
        <time>2019-04-02T08:23:58.000Z</time>
      </trkpt>
      <trkpt lat="47.23631" lon="-1.54852">
        <ele>8.6000003814697</ele>
        <time>2019-04-02T08:23:59.000Z</time>
      </trkpt>
      <trkpt lat="47.23632" lon="-1.54853">
        <ele>8.3999996185303</ele>
        <time>2019-04-02T08:24:00.000Z</time>
      </trkpt>
      <trkpt lat="47.23633" lon="-1.54854">
        <ele>8.3999996185303</ele>
        <time>2019-04-02T08:24:01.000Z</time>
      </trkpt>
      <trkpt lat="47.23634" lon="-1.54855">
        <ele>8.3999996185303</ele>
        <time>2019-04-02T08:24:02.000Z</time>
      </trkpt>
      <trkpt lat="47.23635" lon="-1.54856">
        <ele>8.1999998092651</ele>
        <time>2019-04-02T08:24:03.000Z</time>
      </trkpt>
      <trkpt lat="47.23636" lon="-1.54857">
        <ele>8.1999998092651</ele>
        <time>2019-04-02T08:24:04.000Z</time>
      </trkpt>
      <trkpt lat="47.23638" lon="-1.54858">
        <ele>8.1999998092651</ele>
        <time>2019-04-02T08:24:05.000Z</time>
      </trkpt>
      <trkpt lat="47.23638" lon="-1.54858">
        <ele>8.1999998092651</ele>
        <time>2019-04-02T08:24:06.000Z</time>
      </trkpt>
      <trkpt lat="47.23639" lon="-1.54859">
        <ele>8</ele>
        <time>2019-04-02T08:24:07.000Z</time>
      </trkpt>
      <trkpt lat="47.2364" lon="-1.5486">
        <ele>8</ele>
        <time>2019-04-02T08:24:08.000Z</time>
      </trkpt>
      <trkpt lat="47.23641" lon="-1.54861">
        <ele>8</ele>
        <time>2019-04-02T08:24:09.000Z</time>
      </trkpt>
      <trkpt lat="47.23642" lon="-1.54862">
        <ele>7.8000001907349</ele>
        <time>2019-04-02T08:24:10.000Z</time>
      </trkpt>
      <trkpt lat="47.23643" lon="-1.54863">
        <ele>7.8000001907349</ele>
        <time>2019-04-02T08:24:11.000Z</time>
      </trkpt>
      <trkpt lat="47.23644" lon="-1.54864">
        <ele>7.8000001907349</ele>
        <time>2019-04-02T08:24:12.000Z</time>
      </trkpt>
      <trkpt lat="47.23646" lon="-1.54866">
        <ele>7.5999999046326</ele>
        <time>2019-04-02T08:24:13.000Z</time>
      </trkpt>
      <trkpt lat="47.23647" lon="-1.54867">
        <ele>7.5999999046326</ele>
        <time>2019-04-02T08:24:14.000Z</time>
      </trkpt>
      <trkpt lat="47.23649" lon="-1.54868">
        <ele>7.5999999046326</ele>
        <time>2019-04-02T08:24:15.000Z</time>
      </trkpt>
      <trkpt lat="47.23651" lon="-1.5487">
        <ele>7.4000000953674</ele>
        <time>2019-04-02T08:24:16.000Z</time>
      </trkpt>
      <trkpt lat="47.23651" lon="-1.5487">
        <ele>7.4000000953674</ele>
        <time>2019-04-02T08:24:17.000Z</time>
      </trkpt>
      <trkpt lat="47.23652" lon="-1.54872">
        <ele>7.1999998092651</ele>
        <time>2019-04-02T08:24:18.000Z</time>
      </trkpt>
      <trkpt lat="47.23653" lon="-1.54873">
        <ele>7.1999998092651</ele>
        <time>2019-04-02T08:24:19.000Z</time>
      </trkpt>
      <trkpt lat="47.23654" lon="-1.54875">
        <ele>7.1999998092651</ele>
        <time>2019-04-02T08:24:20.000Z</time>
      </trkpt>
      <trkpt lat="47.23655" lon="-1.54876">
        <ele>7</ele>
        <time>2019-04-02T08:24:21.000Z</time>
      </trkpt>
      <trkpt lat="47.23657" lon="-1.54878">
        <ele>7</ele>
        <time>2019-04-02T08:24:22.000Z</time>
      </trkpt>
      <trkpt lat="47.23658" lon="-1.5488">
        <ele>6.8000001907349</ele>
        <time>2019-04-02T08:24:23.000Z</time>
      </trkpt>
      <trkpt lat="47.23659" lon="-1.54881">
        <ele>6.8000001907349</ele>
        <time>2019-04-02T08:24:24.000Z</time>
      </trkpt>
      <trkpt lat="47.2366" lon="-1.54883">
        <ele>6.5999999046326</ele>
        <time>2019-04-02T08:24:25.000Z</time>
      </trkpt>
      <trkpt lat="47.23662" lon="-1.54884">
        <ele>6.5999999046326</ele>
        <time>2019-04-02T08:24:26.000Z</time>
      </trkpt>
      <trkpt lat="47.23663" lon="-1.54886">
        <ele>6.5999999046326</ele>
        <time>2019-04-02T08:24:27.000Z</time>
      </trkpt>
      <trkpt lat="47.23664" lon="-1.54887">
        <ele>6.5999999046326</ele>
        <time>2019-04-02T08:24:28.000Z</time>
      </trkpt>
      <trkpt lat="47.23665" lon="-1.54888">
        <ele>6.5999999046326</ele>
        <time>2019-04-02T08:24:29.000Z</time>
      </trkpt>
      <trkpt lat="47.23666" lon="-1.5489">
        <ele>6.5999999046326</ele>
        <time>2019-04-02T08:24:30.000Z</time>
      </trkpt>
      <trkpt lat="47.23667" lon="-1.54891">
        <ele>6.5999999046326</ele>
        <time>2019-04-02T08:24:31.000Z</time>
      </trkpt>
      <trkpt lat="47.23668" lon="-1.54893">
        <ele>6.5999999046326</ele>
        <time>2019-04-02T08:24:32.000Z</time>
      </trkpt>
      <trkpt lat="47.23669" lon="-1.54894">
        <ele>6.5999999046326</ele>
        <time>2019-04-02T08:24:33.000Z</time>
      </trkpt>
      <trkpt lat="47.2367" lon="-1.54896">
        <ele>6.5999999046326</ele>
        <time>2019-04-02T08:24:34.000Z</time>
      </trkpt>
      <trkpt lat="47.2367" lon="-1.54898">
        <ele>6.4000000953674</ele>
        <time>2019-04-02T08:24:35.000Z</time>
      </trkpt>
      <trkpt lat="47.23672" lon="-1.54899">
        <ele>6.4000000953674</ele>
        <time>2019-04-02T08:24:36.000Z</time>
      </trkpt>
      <trkpt lat="47.23673" lon="-1.54901">
        <ele>6.1999998092651</ele>
        <time>2019-04-02T08:24:37.000Z</time>
      </trkpt>
      <trkpt lat="47.23674" lon="-1.54902">
        <ele>6.1999998092651</ele>
        <time>2019-04-02T08:24:38.000Z</time>
      </trkpt>
      <trkpt lat="47.23675" lon="-1.54904">
        <ele>6.1999998092651</ele>
        <time>2019-04-02T08:24:39.000Z</time>
      </trkpt>
      <trkpt lat="47.23675" lon="-1.54905">
        <ele>6.1999998092651</ele>
        <time>2019-04-02T08:24:40.000Z</time>
      </trkpt>
      <trkpt lat="47.23676" lon="-1.54907">
        <ele>6.1999998092651</ele>
        <time>2019-04-02T08:24:41.000Z</time>
      </trkpt>
      <trkpt lat="47.23677" lon="-1.54908">
        <ele>6.1999998092651</ele>
        <time>2019-04-02T08:24:42.000Z</time>
      </trkpt>
      <trkpt lat="47.23678" lon="-1.5491">
        <ele>6.1999998092651</ele>
        <time>2019-04-02T08:24:43.000Z</time>
      </trkpt>
      <trkpt lat="47.2368" lon="-1.54912">
        <ele>6.1999998092651</ele>
        <time>2019-04-02T08:24:44.000Z</time>
      </trkpt>
      <trkpt lat="47.2368" lon="-1.54912">
        <ele>6.1999998092651</ele>
        <time>2019-04-02T08:24:45.000Z</time>
      </trkpt>
      <trkpt lat="47.23681" lon="-1.54913">
        <ele>6.1999998092651</ele>
        <time>2019-04-02T08:24:46.000Z</time>
      </trkpt>
      <trkpt lat="47.23681" lon="-1.54914">
        <ele>6.1999998092651</ele>
        <time>2019-04-02T08:24:47.000Z</time>
      </trkpt>
      <trkpt lat="47.23682" lon="-1.54915">
        <ele>6.4000000953674</ele>
        <time>2019-04-02T08:24:48.000Z</time>
      </trkpt>
      <trkpt lat="47.23684" lon="-1.54915">
        <ele>6.4000000953674</ele>
        <time>2019-04-02T08:24:49.000Z</time>
      </trkpt>
      <trkpt lat="47.23685" lon="-1.54916">
        <ele>6.4000000953674</ele>
        <time>2019-04-02T08:24:50.000Z</time>
      </trkpt>
      <trkpt lat="47.23686" lon="-1.54917">
        <ele>6.4000000953674</ele>
        <time>2019-04-02T08:24:51.000Z</time>
      </trkpt>
      <trkpt lat="47.23687" lon="-1.54917">
        <ele>6.4000000953674</ele>
        <time>2019-04-02T08:24:52.000Z</time>
      </trkpt>
      <trkpt lat="47.23688" lon="-1.54918">
        <ele>6.4000000953674</ele>
        <time>2019-04-02T08:24:53.000Z</time>
      </trkpt>
      <trkpt lat="47.23689" lon="-1.54918">
        <ele>6.4000000953674</ele>
        <time>2019-04-02T08:24:54.000Z</time>
      </trkpt>
      <trkpt lat="47.2369" lon="-1.54919">
        <ele>6.4000000953674</ele>
        <time>2019-04-02T08:24:55.000Z</time>
      </trkpt>
      <trkpt lat="47.23692" lon="-1.54919">
        <ele>6.4000000953674</ele>
        <time>2019-04-02T08:24:56.000Z</time>
      </trkpt>
      <trkpt lat="47.23692" lon="-1.54919">
        <ele>6.4000000953674</ele>
        <time>2019-04-02T08:24:57.000Z</time>
      </trkpt>
      <trkpt lat="47.23693" lon="-1.54919">
        <ele>6.5999999046326</ele>
        <time>2019-04-02T08:24:58.000Z</time>
      </trkpt>
      <trkpt lat="47.23694" lon="-1.5492">
        <ele>6.5999999046326</ele>
        <time>2019-04-02T08:24:59.000Z</time>
      </trkpt>
      <trkpt lat="47.23695" lon="-1.5492">
        <ele>6.5999999046326</ele>
        <time>2019-04-02T08:25:00.000Z</time>
      </trkpt>
      <trkpt lat="47.23697" lon="-1.5492">
        <ele>6.5999999046326</ele>
        <time>2019-04-02T08:25:01.000Z</time>
      </trkpt>
      <trkpt lat="47.23698" lon="-1.54921">
        <ele>6.5999999046326</ele>
        <time>2019-04-02T08:25:02.000Z</time>
      </trkpt>
      <trkpt lat="47.23699" lon="-1.54922">
        <ele>6.5999999046326</ele>
        <time>2019-04-02T08:25:03.000Z</time>
      </trkpt>
      <trkpt lat="47.23702" lon="-1.54923">
        <ele>6.5999999046326</ele>
        <time>2019-04-02T08:25:04.000Z</time>
      </trkpt>
      <trkpt lat="47.23702" lon="-1.54923">
        <ele>6.5999999046326</ele>
        <time>2019-04-02T08:25:05.000Z</time>
      </trkpt>
      <trkpt lat="47.23703" lon="-1.54924">
        <ele>6.5999999046326</ele>
        <time>2019-04-02T08:25:06.000Z</time>
      </trkpt>
      <trkpt lat="47.23704" lon="-1.54924">
        <ele>6.8000001907349</ele>
        <time>2019-04-02T08:25:07.000Z</time>
      </trkpt>
      <trkpt lat="47.23705" lon="-1.54925">
        <ele>6.8000001907349</ele>
        <time>2019-04-02T08:25:08.000Z</time>
      </trkpt>
      <trkpt lat="47.23707" lon="-1.54927">
        <ele>6.8000001907349</ele>
        <time>2019-04-02T08:25:09.000Z</time>
      </trkpt>
      <trkpt lat="47.23708" lon="-1.54928">
        <ele>6.8000001907349</ele>
        <time>2019-04-02T08:25:10.000Z</time>
      </trkpt>
      <trkpt lat="47.23709" lon="-1.54929">
        <ele>6.8000001907349</ele>
        <time>2019-04-02T08:25:11.000Z</time>
      </trkpt>
      <trkpt lat="47.23711" lon="-1.5493">
        <ele>6.8000001907349</ele>
        <time>2019-04-02T08:25:12.000Z</time>
      </trkpt>
      <trkpt lat="47.23712" lon="-1.54932">
        <ele>6.8000001907349</ele>
        <time>2019-04-02T08:25:13.000Z</time>
      </trkpt>
      <trkpt lat="47.23714" lon="-1.54933">
        <ele>6.8000001907349</ele>
        <time>2019-04-02T08:25:14.000Z</time>
      </trkpt>
      <trkpt lat="47.23715" lon="-1.54935">
        <ele>6.8000001907349</ele>
        <time>2019-04-02T08:25:15.000Z</time>
      </trkpt>
      <trkpt lat="47.23717" lon="-1.54936">
        <ele>6.8000001907349</ele>
        <time>2019-04-02T08:25:16.000Z</time>
      </trkpt>
      <trkpt lat="47.23719" lon="-1.54936">
        <ele>7</ele>
        <time>2019-04-02T08:25:17.000Z</time>
      </trkpt>
      <trkpt lat="47.23723" lon="-1.54937">
        <ele>7</ele>
        <time>2019-04-02T08:25:18.000Z</time>
      </trkpt>
      <trkpt lat="47.23723" lon="-1.54937">
        <ele>7</ele>
        <time>2019-04-02T08:25:19.000Z</time>
      </trkpt>
      <trkpt lat="47.23725" lon="-1.54938">
        <ele>7</ele>
        <time>2019-04-02T08:25:20.000Z</time>
      </trkpt>
      <trkpt lat="47.23726" lon="-1.54938">
        <ele>7</ele>
        <time>2019-04-02T08:25:21.000Z</time>
      </trkpt>
      <trkpt lat="47.23728" lon="-1.54937">
        <ele>7.1999998092651</ele>
        <time>2019-04-02T08:25:22.000Z</time>
      </trkpt>
      <trkpt lat="47.23729" lon="-1.54937">
        <ele>7.1999998092651</ele>
        <time>2019-04-02T08:25:23.000Z</time>
      </trkpt>
      <trkpt lat="47.2373" lon="-1.54936">
        <ele>7.1999998092651</ele>
        <time>2019-04-02T08:25:24.000Z</time>
      </trkpt>
      <trkpt lat="47.23731" lon="-1.54936">
        <ele>7.1999998092651</ele>
        <time>2019-04-02T08:25:25.000Z</time>
      </trkpt>
      <trkpt lat="47.23732" lon="-1.54935">
        <ele>7.1999998092651</ele>
        <time>2019-04-02T08:25:26.000Z</time>
      </trkpt>
      <trkpt lat="47.23733" lon="-1.54935">
        <ele>7.4000000953674</ele>
        <time>2019-04-02T08:25:27.000Z</time>
      </trkpt>
      <trkpt lat="47.23735" lon="-1.54934">
        <ele>7.4000000953674</ele>
        <time>2019-04-02T08:25:28.000Z</time>
      </trkpt>
      <trkpt lat="47.23736" lon="-1.54934">
        <ele>7.4000000953674</ele>
        <time>2019-04-02T08:25:29.000Z</time>
      </trkpt>
      <trkpt lat="47.23737" lon="-1.54934">
        <ele>7.4000000953674</ele>
        <time>2019-04-02T08:25:30.000Z</time>
      </trkpt>
      <trkpt lat="47.23738" lon="-1.54933">
        <ele>7.4000000953674</ele>
        <time>2019-04-02T08:25:31.000Z</time>
      </trkpt>
      <trkpt lat="47.2374" lon="-1.54932">
        <ele>7.4000000953674</ele>
        <time>2019-04-02T08:25:32.000Z</time>
      </trkpt>
      <trkpt lat="47.23741" lon="-1.54931">
        <ele>7.5999999046326</ele>
        <time>2019-04-02T08:25:33.000Z</time>
      </trkpt>
      <trkpt lat="47.23742" lon="-1.5493">
        <ele>7.5999999046326</ele>
        <time>2019-04-02T08:25:34.000Z</time>
      </trkpt>
      <trkpt lat="47.23743" lon="-1.54929">
        <ele>7.5999999046326</ele>
        <time>2019-04-02T08:25:35.000Z</time>
      </trkpt>
      <trkpt lat="47.23744" lon="-1.54928">
        <ele>7.5999999046326</ele>
        <time>2019-04-02T08:25:36.000Z</time>
      </trkpt>
      <trkpt lat="47.23745" lon="-1.54927">
        <ele>7.5999999046326</ele>
        <time>2019-04-02T08:25:37.000Z</time>
      </trkpt>
      <trkpt lat="47.23746" lon="-1.54926">
        <ele>7.8000001907349</ele>
        <time>2019-04-02T08:25:38.000Z</time>
      </trkpt>
      <trkpt lat="47.23748" lon="-1.54925">
        <ele>7.8000001907349</ele>
        <time>2019-04-02T08:25:39.000Z</time>
      </trkpt>
      <trkpt lat="47.23749" lon="-1.54924">
        <ele>7.8000001907349</ele>
        <time>2019-04-02T08:25:40.000Z</time>
      </trkpt>
      <trkpt lat="47.2375" lon="-1.54923">
        <ele>7.8000001907349</ele>
        <time>2019-04-02T08:25:41.000Z</time>
      </trkpt>
      <trkpt lat="47.23751" lon="-1.54922">
        <ele>7.8000001907349</ele>
        <time>2019-04-02T08:25:42.000Z</time>
      </trkpt>
      <trkpt lat="47.23753" lon="-1.54921">
        <ele>8</ele>
        <time>2019-04-02T08:25:43.000Z</time>
      </trkpt>
      <trkpt lat="47.23753" lon="-1.54921">
        <ele>8</ele>
        <time>2019-04-02T08:25:44.000Z</time>
      </trkpt>
      <trkpt lat="47.23754" lon="-1.54919">
        <ele>8</ele>
        <time>2019-04-02T08:25:45.000Z</time>
      </trkpt>
      <trkpt lat="47.23756" lon="-1.54917">
        <ele>8</ele>
        <time>2019-04-02T08:25:46.000Z</time>
      </trkpt>
      <trkpt lat="47.23756" lon="-1.54917">
        <ele>8</ele>
        <time>2019-04-02T08:25:47.000Z</time>
      </trkpt>
      <trkpt lat="47.23757" lon="-1.54916">
        <ele>8</ele>
        <time>2019-04-02T08:25:48.000Z</time>
      </trkpt>
      <trkpt lat="47.23758" lon="-1.54914">
        <ele>8.1999998092651</ele>
        <time>2019-04-02T08:25:49.000Z</time>
      </trkpt>
      <trkpt lat="47.23759" lon="-1.54913">
        <ele>8.1999998092651</ele>
        <time>2019-04-02T08:25:50.000Z</time>
      </trkpt>
      <trkpt lat="47.2376" lon="-1.54912">
        <ele>8.1999998092651</ele>
        <time>2019-04-02T08:25:51.000Z</time>
      </trkpt>
      <trkpt lat="47.23761" lon="-1.54912">
        <ele>8.1999998092651</ele>
        <time>2019-04-02T08:25:52.000Z</time>
      </trkpt>
      <trkpt lat="47.23762" lon="-1.54911">
        <ele>8.1999998092651</ele>
        <time>2019-04-02T08:25:53.000Z</time>
      </trkpt>
      <trkpt lat="47.23763" lon="-1.5491">
        <ele>8.3999996185303</ele>
        <time>2019-04-02T08:25:54.000Z</time>
      </trkpt>
      <trkpt lat="47.23764" lon="-1.54909">
        <ele>8.3999996185303</ele>
        <time>2019-04-02T08:25:55.000Z</time>
      </trkpt>
      <trkpt lat="47.23765" lon="-1.54908">
        <ele>8.3999996185303</ele>
        <time>2019-04-02T08:25:56.000Z</time>
      </trkpt>
      <trkpt lat="47.23766" lon="-1.54907">
        <ele>8.3999996185303</ele>
        <time>2019-04-02T08:25:57.000Z</time>
      </trkpt>
      <trkpt lat="47.23766" lon="-1.54907">
        <ele>8.3999996185303</ele>
        <time>2019-04-02T08:25:58.000Z</time>
      </trkpt>
      <trkpt lat="47.23767" lon="-1.54905">
        <ele>8.3999996185303</ele>
        <time>2019-04-02T08:25:59.000Z</time>
      </trkpt>
      <trkpt lat="47.23767" lon="-1.54904">
        <ele>8.3999996185303</ele>
        <time>2019-04-02T08:26:00.000Z</time>
      </trkpt>
      <trkpt lat="47.23768" lon="-1.54903">
        <ele>8.6000003814697</ele>
        <time>2019-04-02T08:26:01.000Z</time>
      </trkpt>
      <trkpt lat="47.23769" lon="-1.54901">
        <ele>8.6000003814697</ele>
        <time>2019-04-02T08:26:02.000Z</time>
      </trkpt>
      <trkpt lat="47.2377" lon="-1.54898">
        <ele>8.6000003814697</ele>
        <time>2019-04-02T08:26:03.000Z</time>
      </trkpt>
      <trkpt lat="47.2377" lon="-1.54898">
        <ele>8.6000003814697</ele>
        <time>2019-04-02T08:26:04.000Z</time>
      </trkpt>
      <trkpt lat="47.23771" lon="-1.54897">
        <ele>8.6000003814697</ele>
        <time>2019-04-02T08:26:05.000Z</time>
      </trkpt>
      <trkpt lat="47.23772" lon="-1.54896">
        <ele>8.6000003814697</ele>
        <time>2019-04-02T08:26:06.000Z</time>
      </trkpt>
      <trkpt lat="47.23773" lon="-1.54895">
        <ele>8.8000001907349</ele>
        <time>2019-04-02T08:26:07.000Z</time>
      </trkpt>
      <trkpt lat="47.23774" lon="-1.54894">
        <ele>8.8000001907349</ele>
        <time>2019-04-02T08:26:08.000Z</time>
      </trkpt>
      <trkpt lat="47.23776" lon="-1.54893">
        <ele>8.8000001907349</ele>
        <time>2019-04-02T08:26:09.000Z</time>
      </trkpt>
      <trkpt lat="47.23777" lon="-1.54893">
        <ele>8.8000001907349</ele>
        <time>2019-04-02T08:26:10.000Z</time>
      </trkpt>
      <trkpt lat="47.23779" lon="-1.54893">
        <ele>8.8000001907349</ele>
        <time>2019-04-02T08:26:11.000Z</time>
      </trkpt>
      <trkpt lat="47.2378" lon="-1.54893">
        <ele>9</ele>
        <time>2019-04-02T08:26:12.000Z</time>
      </trkpt>
      <trkpt lat="47.23782" lon="-1.54894">
        <ele>9</ele>
        <time>2019-04-02T08:26:13.000Z</time>
      </trkpt>
      <trkpt lat="47.23783" lon="-1.54894">
        <ele>9</ele>
        <time>2019-04-02T08:26:14.000Z</time>
      </trkpt>
      <trkpt lat="47.23784" lon="-1.54894">
        <ele>9</ele>
        <time>2019-04-02T08:26:15.000Z</time>
      </trkpt>
      <trkpt lat="47.23786" lon="-1.54894">
        <ele>9</ele>
        <time>2019-04-02T08:26:16.000Z</time>
      </trkpt>
      <trkpt lat="47.23787" lon="-1.54895">
        <ele>9</ele>
        <time>2019-04-02T08:26:17.000Z</time>
      </trkpt>
      <trkpt lat="47.23789" lon="-1.54895">
        <ele>9.1999998092651</ele>
        <time>2019-04-02T08:26:18.000Z</time>
      </trkpt>
      <trkpt lat="47.23791" lon="-1.54896">
        <ele>9.1999998092651</ele>
        <time>2019-04-02T08:26:19.000Z</time>
      </trkpt>
      <trkpt lat="47.23792" lon="-1.54896">
        <ele>9.1999998092651</ele>
        <time>2019-04-02T08:26:20.000Z</time>
      </trkpt>
      <trkpt lat="47.23794" lon="-1.54896">
        <ele>9.1999998092651</ele>
        <time>2019-04-02T08:26:21.000Z</time>
      </trkpt>
      <trkpt lat="47.23797" lon="-1.54894">
        <ele>9.3999996185303</ele>
        <time>2019-04-02T08:26:22.000Z</time>
      </trkpt>
      <trkpt lat="47.23797" lon="-1.54894">
        <ele>9.3999996185303</ele>
        <time>2019-04-02T08:26:23.000Z</time>
      </trkpt>
      <trkpt lat="47.23798" lon="-1.54893">
        <ele>9.3999996185303</ele>
        <time>2019-04-02T08:26:24.000Z</time>
      </trkpt>
      <trkpt lat="47.238" lon="-1.54892">
        <ele>9.3999996185303</ele>
        <time>2019-04-02T08:26:25.000Z</time>
      </trkpt>
      <trkpt lat="47.23801" lon="-1.54891">
        <ele>9.3999996185303</ele>
        <time>2019-04-02T08:26:26.000Z</time>
      </trkpt>
      <trkpt lat="47.23803" lon="-1.5489">
        <ele>9.3999996185303</ele>
        <time>2019-04-02T08:26:27.000Z</time>
      </trkpt>
      <trkpt lat="47.23804" lon="-1.54889">
        <ele>9.6000003814697</ele>
        <time>2019-04-02T08:26:28.000Z</time>
      </trkpt>
      <trkpt lat="47.23807" lon="-1.54887">
        <ele>9.6000003814697</ele>
        <time>2019-04-02T08:26:29.000Z</time>
      </trkpt>
      <trkpt lat="47.23807" lon="-1.54887">
        <ele>9.6000003814697</ele>
        <time>2019-04-02T08:26:30.000Z</time>
      </trkpt>
      <trkpt lat="47.23808" lon="-1.54886">
        <ele>9.6000003814697</ele>
        <time>2019-04-02T08:26:31.000Z</time>
      </trkpt>
      <trkpt lat="47.23809" lon="-1.54885">
        <ele>9.8000001907349</ele>
        <time>2019-04-02T08:26:32.000Z</time>
      </trkpt>
      <trkpt lat="47.2381" lon="-1.54883">
        <ele>9.8000001907349</ele>
        <time>2019-04-02T08:26:33.000Z</time>
      </trkpt>
      <trkpt lat="47.23811" lon="-1.54882">
        <ele>9.8000001907349</ele>
        <time>2019-04-02T08:26:34.000Z</time>
      </trkpt>
      <trkpt lat="47.23812" lon="-1.54881">
        <ele>9.8000001907349</ele>
        <time>2019-04-02T08:26:35.000Z</time>
      </trkpt>
      <trkpt lat="47.23813" lon="-1.54881">
        <ele>9.8000001907349</ele>
        <time>2019-04-02T08:26:36.000Z</time>
      </trkpt>
      <trkpt lat="47.23814" lon="-1.5488">
        <ele>10</ele>
        <time>2019-04-02T08:26:37.000Z</time>
      </trkpt>
      <trkpt lat="47.23817" lon="-1.54878">
        <ele>10</ele>
        <time>2019-04-02T08:26:38.000Z</time>
      </trkpt>
      <trkpt lat="47.23817" lon="-1.54878">
        <ele>10</ele>
        <time>2019-04-02T08:26:39.000Z</time>
      </trkpt>
      <trkpt lat="47.23819" lon="-1.54877">
        <ele>10</ele>
        <time>2019-04-02T08:26:40.000Z</time>
      </trkpt>
      <trkpt lat="47.2382" lon="-1.54876">
        <ele>10</ele>
        <time>2019-04-02T08:26:41.000Z</time>
      </trkpt>
      <trkpt lat="47.23822" lon="-1.54875">
        <ele>10.199999809265</ele>
        <time>2019-04-02T08:26:42.000Z</time>
      </trkpt>
      <trkpt lat="47.23823" lon="-1.54875">
        <ele>10.199999809265</ele>
        <time>2019-04-02T08:26:43.000Z</time>
      </trkpt>
      <trkpt lat="47.23824" lon="-1.54874">
        <ele>10.199999809265</ele>
        <time>2019-04-02T08:26:44.000Z</time>
      </trkpt>
      <trkpt lat="47.23825" lon="-1.54873">
        <ele>10.199999809265</ele>
        <time>2019-04-02T08:26:45.000Z</time>
      </trkpt>
      <trkpt lat="47.23826" lon="-1.54872">
        <ele>10.199999809265</ele>
        <time>2019-04-02T08:26:46.000Z</time>
      </trkpt>
      <trkpt lat="47.23827" lon="-1.54871">
        <ele>10.39999961853</ele>
        <time>2019-04-02T08:26:47.000Z</time>
      </trkpt>
      <trkpt lat="47.23828" lon="-1.5487">
        <ele>10.39999961853</ele>
        <time>2019-04-02T08:26:48.000Z</time>
      </trkpt>
      <trkpt lat="47.2383" lon="-1.54869">
        <ele>10.39999961853</ele>
        <time>2019-04-02T08:26:49.000Z</time>
      </trkpt>
      <trkpt lat="47.23831" lon="-1.54867">
        <ele>10.39999961853</ele>
        <time>2019-04-02T08:26:50.000Z</time>
      </trkpt>
      <trkpt lat="47.23833" lon="-1.54866">
        <ele>10.199999809265</ele>
        <time>2019-04-02T08:26:51.000Z</time>
      </trkpt>
      <trkpt lat="47.23834" lon="-1.54865">
        <ele>10.199999809265</ele>
        <time>2019-04-02T08:26:52.000Z</time>
      </trkpt>
      <trkpt lat="47.23836" lon="-1.54864">
        <ele>10.199999809265</ele>
        <time>2019-04-02T08:26:53.000Z</time>
      </trkpt>
      <trkpt lat="47.23837" lon="-1.54863">
        <ele>10.199999809265</ele>
        <time>2019-04-02T08:26:54.000Z</time>
      </trkpt>
      <trkpt lat="47.23838" lon="-1.54862">
        <ele>10.199999809265</ele>
        <time>2019-04-02T08:26:55.000Z</time>
      </trkpt>
      <trkpt lat="47.23839" lon="-1.54861">
        <ele>10.199999809265</ele>
        <time>2019-04-02T08:26:56.000Z</time>
      </trkpt>
      <trkpt lat="47.2384" lon="-1.5486">
        <ele>10</ele>
        <time>2019-04-02T08:26:57.000Z</time>
      </trkpt>
      <trkpt lat="47.23841" lon="-1.54858">
        <ele>10</ele>
        <time>2019-04-02T08:26:58.000Z</time>
      </trkpt>
      <trkpt lat="47.23841" lon="-1.54858">
        <ele>10</ele>
        <time>2019-04-02T08:26:59.000Z</time>
      </trkpt>
      <trkpt lat="47.23842" lon="-1.54857">
        <ele>10</ele>
        <time>2019-04-02T08:27:00.000Z</time>
      </trkpt>
      <trkpt lat="47.23843" lon="-1.54857">
        <ele>10</ele>
        <time>2019-04-02T08:27:01.000Z</time>
      </trkpt>
      <trkpt lat="47.23844" lon="-1.54856">
        <ele>10</ele>
        <time>2019-04-02T08:27:02.000Z</time>
      </trkpt>
      <trkpt lat="47.23845" lon="-1.54854">
        <ele>10</ele>
        <time>2019-04-02T08:27:03.000Z</time>
      </trkpt>
      <trkpt lat="47.23846" lon="-1.54853">
        <ele>10</ele>
        <time>2019-04-02T08:27:04.000Z</time>
      </trkpt>
      <trkpt lat="47.23847" lon="-1.54852">
        <ele>10</ele>
        <time>2019-04-02T08:27:05.000Z</time>
      </trkpt>
      <trkpt lat="47.23848" lon="-1.54851">
        <ele>10</ele>
        <time>2019-04-02T08:27:06.000Z</time>
      </trkpt>
      <trkpt lat="47.23849" lon="-1.5485">
        <ele>9.8000001907349</ele>
        <time>2019-04-02T08:27:07.000Z</time>
      </trkpt>
      <trkpt lat="47.2385" lon="-1.54849">
        <ele>9.8000001907349</ele>
        <time>2019-04-02T08:27:08.000Z</time>
      </trkpt>
      <trkpt lat="47.23851" lon="-1.54847">
        <ele>9.8000001907349</ele>
        <time>2019-04-02T08:27:09.000Z</time>
      </trkpt>
      <trkpt lat="47.23853" lon="-1.54846">
        <ele>9.8000001907349</ele>
        <time>2019-04-02T08:27:10.000Z</time>
      </trkpt>
      <trkpt lat="47.23854" lon="-1.54846">
        <ele>9.8000001907349</ele>
        <time>2019-04-02T08:27:11.000Z</time>
      </trkpt>
      <trkpt lat="47.23855" lon="-1.54845">
        <ele>9.8000001907349</ele>
        <time>2019-04-02T08:27:12.000Z</time>
      </trkpt>
      <trkpt lat="47.23856" lon="-1.54844">
        <ele>9.8000001907349</ele>
        <time>2019-04-02T08:27:13.000Z</time>
      </trkpt>
      <trkpt lat="47.23857" lon="-1.54843">
        <ele>9.6000003814697</ele>
        <time>2019-04-02T08:27:14.000Z</time>
      </trkpt>
      <trkpt lat="47.23858" lon="-1.54841">
        <ele>9.6000003814697</ele>
        <time>2019-04-02T08:27:15.000Z</time>
      </trkpt>
      <trkpt lat="47.23859" lon="-1.5484">
        <ele>9.6000003814697</ele>
        <time>2019-04-02T08:27:16.000Z</time>
      </trkpt>
      <trkpt lat="47.23861" lon="-1.54839">
        <ele>9.6000003814697</ele>
        <time>2019-04-02T08:27:17.000Z</time>
      </trkpt>
      <trkpt lat="47.23863" lon="-1.54837">
        <ele>9.6000003814697</ele>
        <time>2019-04-02T08:27:18.000Z</time>
      </trkpt>
      <trkpt lat="47.23863" lon="-1.54837">
        <ele>9.6000003814697</ele>
        <time>2019-04-02T08:27:19.000Z</time>
      </trkpt>
      <trkpt lat="47.23865" lon="-1.54836">
        <ele>9.3999996185303</ele>
        <time>2019-04-02T08:27:20.000Z</time>
      </trkpt>
      <trkpt lat="47.23866" lon="-1.54835">
        <ele>9.3999996185303</ele>
        <time>2019-04-02T08:27:21.000Z</time>
      </trkpt>
      <trkpt lat="47.23868" lon="-1.54834">
        <ele>9.3999996185303</ele>
        <time>2019-04-02T08:27:22.000Z</time>
      </trkpt>
      <trkpt lat="47.23869" lon="-1.54833">
        <ele>9.3999996185303</ele>
        <time>2019-04-02T08:27:23.000Z</time>
      </trkpt>
      <trkpt lat="47.23871" lon="-1.54832">
        <ele>9.3999996185303</ele>
        <time>2019-04-02T08:27:24.000Z</time>
      </trkpt>
      <trkpt lat="47.23872" lon="-1.54831">
        <ele>9.1999998092651</ele>
        <time>2019-04-02T08:27:25.000Z</time>
      </trkpt>
      <trkpt lat="47.23873" lon="-1.5483">
        <ele>9.1999998092651</ele>
        <time>2019-04-02T08:27:26.000Z</time>
      </trkpt>
      <trkpt lat="47.23874" lon="-1.54829">
        <ele>9.1999998092651</ele>
        <time>2019-04-02T08:27:27.000Z</time>
      </trkpt>
      <trkpt lat="47.23876" lon="-1.54828">
        <ele>9.1999998092651</ele>
        <time>2019-04-02T08:27:28.000Z</time>
      </trkpt>
      <trkpt lat="47.23877" lon="-1.54827">
        <ele>9.1999998092651</ele>
        <time>2019-04-02T08:27:29.000Z</time>
      </trkpt>
      <trkpt lat="47.23878" lon="-1.54826">
        <ele>9.1999998092651</ele>
        <time>2019-04-02T08:27:30.000Z</time>
      </trkpt>
      <trkpt lat="47.2388" lon="-1.54824">
        <ele>9</ele>
        <time>2019-04-02T08:27:31.000Z</time>
      </trkpt>
      <trkpt lat="47.23881" lon="-1.54823">
        <ele>9</ele>
        <time>2019-04-02T08:27:32.000Z</time>
      </trkpt>
      <trkpt lat="47.23882" lon="-1.54821">
        <ele>9</ele>
        <time>2019-04-02T08:27:33.000Z</time>
      </trkpt>
      <trkpt lat="47.23884" lon="-1.5482">
        <ele>9</ele>
        <time>2019-04-02T08:27:34.000Z</time>
      </trkpt>
      <trkpt lat="47.23885" lon="-1.54819">
        <ele>9</ele>
        <time>2019-04-02T08:27:35.000Z</time>
      </trkpt>
      <trkpt lat="47.23886" lon="-1.54817">
        <ele>9</ele>
        <time>2019-04-02T08:27:36.000Z</time>
      </trkpt>
      <trkpt lat="47.23887" lon="-1.54816">
        <ele>9</ele>
        <time>2019-04-02T08:27:37.000Z</time>
      </trkpt>
      <trkpt lat="47.23889" lon="-1.54816">
        <ele>8.8000001907349</ele>
        <time>2019-04-02T08:27:38.000Z</time>
      </trkpt>
      <trkpt lat="47.2389" lon="-1.54816">
        <ele>8.8000001907349</ele>
        <time>2019-04-02T08:27:39.000Z</time>
      </trkpt>
      <trkpt lat="47.23892" lon="-1.54816">
        <ele>8.8000001907349</ele>
        <time>2019-04-02T08:27:40.000Z</time>
      </trkpt>
      <trkpt lat="47.23893" lon="-1.54817">
        <ele>8.8000001907349</ele>
        <time>2019-04-02T08:27:41.000Z</time>
      </trkpt>
      <trkpt lat="47.23895" lon="-1.54817">
        <ele>8.6000003814697</ele>
        <time>2019-04-02T08:27:42.000Z</time>
      </trkpt>
      <trkpt lat="47.23896" lon="-1.54818">
        <ele>8.6000003814697</ele>
        <time>2019-04-02T08:27:43.000Z</time>
      </trkpt>
      <trkpt lat="47.23897" lon="-1.54818">
        <ele>8.6000003814697</ele>
        <time>2019-04-02T08:27:44.000Z</time>
      </trkpt>
      <trkpt lat="47.23898" lon="-1.54819">
        <ele>8.3999996185303</ele>
        <time>2019-04-02T08:27:45.000Z</time>
      </trkpt>
      <trkpt lat="47.23899" lon="-1.54819">
        <ele>8.3999996185303</ele>
        <time>2019-04-02T08:27:46.000Z</time>
      </trkpt>
      <trkpt lat="47.23902" lon="-1.54818">
        <ele>8.3999996185303</ele>
        <time>2019-04-02T08:27:47.000Z</time>
      </trkpt>
      <trkpt lat="47.23902" lon="-1.54818">
        <ele>8.3999996185303</ele>
        <time>2019-04-02T08:27:48.000Z</time>
      </trkpt>
      <trkpt lat="47.23903" lon="-1.54816">
        <ele>8.3999996185303</ele>
        <time>2019-04-02T08:27:49.000Z</time>
      </trkpt>
      <trkpt lat="47.23904" lon="-1.54815">
        <ele>8.3999996185303</ele>
        <time>2019-04-02T08:27:50.000Z</time>
      </trkpt>
      <trkpt lat="47.23905" lon="-1.54814">
        <ele>8.3999996185303</ele>
        <time>2019-04-02T08:27:51.000Z</time>
      </trkpt>
      <trkpt lat="47.23906" lon="-1.54813">
        <ele>8.3999996185303</ele>
        <time>2019-04-02T08:27:52.000Z</time>
      </trkpt>
      <trkpt lat="47.23908" lon="-1.54812">
        <ele>8.3999996185303</ele>
        <time>2019-04-02T08:27:53.000Z</time>
      </trkpt>
      <trkpt lat="47.23909" lon="-1.54811">
        <ele>8.3999996185303</ele>
        <time>2019-04-02T08:27:54.000Z</time>
      </trkpt>
      <trkpt lat="47.2391" lon="-1.5481">
        <ele>8.3999996185303</ele>
        <time>2019-04-02T08:27:55.000Z</time>
      </trkpt>
      <trkpt lat="47.23911" lon="-1.54809">
        <ele>8.3999996185303</ele>
        <time>2019-04-02T08:27:56.000Z</time>
      </trkpt>
      <trkpt lat="47.23912" lon="-1.54809">
        <ele>8.3999996185303</ele>
        <time>2019-04-02T08:27:57.000Z</time>
      </trkpt>
      <trkpt lat="47.23913" lon="-1.54808">
        <ele>8.3999996185303</ele>
        <time>2019-04-02T08:27:58.000Z</time>
      </trkpt>
      <trkpt lat="47.23915" lon="-1.54806">
        <ele>8.1999998092651</ele>
        <time>2019-04-02T08:27:59.000Z</time>
      </trkpt>
      <trkpt lat="47.23915" lon="-1.54806">
        <ele>8.1999998092651</ele>
        <time>2019-04-02T08:28:00.000Z</time>
      </trkpt>
      <trkpt lat="47.23916" lon="-1.54805">
        <ele>8.1999998092651</ele>
        <time>2019-04-02T08:28:01.000Z</time>
      </trkpt>
      <trkpt lat="47.23917" lon="-1.54804">
        <ele>8</ele>
        <time>2019-04-02T08:28:02.000Z</time>
      </trkpt>
      <trkpt lat="47.23918" lon="-1.54803">
        <ele>8</ele>
        <time>2019-04-02T08:28:03.000Z</time>
      </trkpt>
      <trkpt lat="47.2392" lon="-1.54803">
        <ele>8</ele>
        <time>2019-04-02T08:28:04.000Z</time>
      </trkpt>
      <trkpt lat="47.23921" lon="-1.54802">
        <ele>7.8000001907349</ele>
        <time>2019-04-02T08:28:05.000Z</time>
      </trkpt>
      <trkpt lat="47.23922" lon="-1.54801">
        <ele>7.8000001907349</ele>
        <time>2019-04-02T08:28:06.000Z</time>
      </trkpt>
      <trkpt lat="47.23923" lon="-1.548">
        <ele>7.8000001907349</ele>
        <time>2019-04-02T08:28:07.000Z</time>
      </trkpt>
      <trkpt lat="47.23924" lon="-1.54799">
        <ele>7.8000001907349</ele>
        <time>2019-04-02T08:28:08.000Z</time>
      </trkpt>
      <trkpt lat="47.23925" lon="-1.54798">
        <ele>7.5999999046326</ele>
        <time>2019-04-02T08:28:09.000Z</time>
      </trkpt>
      <trkpt lat="47.23926" lon="-1.54797">
        <ele>7.5999999046326</ele>
        <time>2019-04-02T08:28:10.000Z</time>
      </trkpt>
      <trkpt lat="47.23927" lon="-1.54797">
        <ele>7.5999999046326</ele>
        <time>2019-04-02T08:28:11.000Z</time>
      </trkpt>
      <trkpt lat="47.23928" lon="-1.54796">
        <ele>7.4000000953674</ele>
        <time>2019-04-02T08:28:12.000Z</time>
      </trkpt>
      <trkpt lat="47.23929" lon="-1.54795">
        <ele>7.4000000953674</ele>
        <time>2019-04-02T08:28:13.000Z</time>
      </trkpt>
      <trkpt lat="47.2393" lon="-1.54794">
        <ele>7.4000000953674</ele>
        <time>2019-04-02T08:28:14.000Z</time>
      </trkpt>
      <trkpt lat="47.23931" lon="-1.54793">
        <ele>7.4000000953674</ele>
        <time>2019-04-02T08:28:15.000Z</time>
      </trkpt>
      <trkpt lat="47.23932" lon="-1.54792">
        <ele>7.1999998092651</ele>
        <time>2019-04-02T08:28:16.000Z</time>
      </trkpt>
      <trkpt lat="47.23934" lon="-1.54791">
        <ele>7.1999998092651</ele>
        <time>2019-04-02T08:28:17.000Z</time>
      </trkpt>
      <trkpt lat="47.23935" lon="-1.5479">
        <ele>7</ele>
        <time>2019-04-02T08:28:18.000Z</time>
      </trkpt>
      <trkpt lat="47.23937" lon="-1.54789">
        <ele>7</ele>
        <time>2019-04-02T08:28:19.000Z</time>
      </trkpt>
      <trkpt lat="47.23938" lon="-1.54788">
        <ele>7</ele>
        <time>2019-04-02T08:28:20.000Z</time>
      </trkpt>
      <trkpt lat="47.23939" lon="-1.54787">
        <ele>6.8000001907349</ele>
        <time>2019-04-02T08:28:21.000Z</time>
      </trkpt>
      <trkpt lat="47.2394" lon="-1.54786">
        <ele>6.8000001907349</ele>
        <time>2019-04-02T08:28:22.000Z</time>
      </trkpt>
      <trkpt lat="47.23941" lon="-1.54786">
        <ele>6.8000001907349</ele>
        <time>2019-04-02T08:28:23.000Z</time>
      </trkpt>
      <trkpt lat="47.23942" lon="-1.54785">
        <ele>6.5999999046326</ele>
        <time>2019-04-02T08:28:24.000Z</time>
      </trkpt>
      <trkpt lat="47.23943" lon="-1.54785">
        <ele>6.5999999046326</ele>
        <time>2019-04-02T08:28:25.000Z</time>
      </trkpt>
      <trkpt lat="47.23944" lon="-1.54784">
        <ele>6.5999999046326</ele>
        <time>2019-04-02T08:28:26.000Z</time>
      </trkpt>
      <trkpt lat="47.23945" lon="-1.54783">
        <ele>6.5999999046326</ele>
        <time>2019-04-02T08:28:27.000Z</time>
      </trkpt>
      <trkpt lat="47.23946" lon="-1.54782">
        <ele>6.4000000953674</ele>
        <time>2019-04-02T08:28:28.000Z</time>
      </trkpt>
      <trkpt lat="47.23947" lon="-1.54781">
        <ele>6.4000000953674</ele>
        <time>2019-04-02T08:28:29.000Z</time>
      </trkpt>
      <trkpt lat="47.23948" lon="-1.54781">
        <ele>6.4000000953674</ele>
        <time>2019-04-02T08:28:30.000Z</time>
      </trkpt>
      <trkpt lat="47.23948" lon="-1.5478">
        <ele>6.4000000953674</ele>
        <time>2019-04-02T08:28:31.000Z</time>
      </trkpt>
      <trkpt lat="47.23949" lon="-1.54779">
        <ele>6.1999998092651</ele>
        <time>2019-04-02T08:28:32.000Z</time>
      </trkpt>
      <trkpt lat="47.2395" lon="-1.54778">
        <ele>6.1999998092651</ele>
        <time>2019-04-02T08:28:33.000Z</time>
      </trkpt>
      <trkpt lat="47.23952" lon="-1.54777">
        <ele>6.1999998092651</ele>
        <time>2019-04-02T08:28:34.000Z</time>
      </trkpt>
      <trkpt lat="47.23953" lon="-1.54776">
        <ele>6.1999998092651</ele>
        <time>2019-04-02T08:28:35.000Z</time>
      </trkpt>
      <trkpt lat="47.23954" lon="-1.54774">
        <ele>6</ele>
        <time>2019-04-02T08:28:36.000Z</time>
      </trkpt>
      <trkpt lat="47.23955" lon="-1.54773">
        <ele>6</ele>
        <time>2019-04-02T08:28:37.000Z</time>
      </trkpt>
      <trkpt lat="47.23958" lon="-1.54771">
        <ele>5.8000001907349</ele>
        <time>2019-04-02T08:28:38.000Z</time>
      </trkpt>
      <trkpt lat="47.23958" lon="-1.54771">
        <ele>5.8000001907349</ele>
        <time>2019-04-02T08:28:39.000Z</time>
      </trkpt>
      <trkpt lat="47.23959" lon="-1.54769">
        <ele>5.8000001907349</ele>
        <time>2019-04-02T08:28:40.000Z</time>
      </trkpt>
      <trkpt lat="47.2396" lon="-1.54768">
        <ele>5.8000001907349</ele>
        <time>2019-04-02T08:28:41.000Z</time>
      </trkpt>
      <trkpt lat="47.23961" lon="-1.54767">
        <ele>5.8000001907349</ele>
        <time>2019-04-02T08:28:42.000Z</time>
      </trkpt>
      <trkpt lat="47.23962" lon="-1.54766">
        <ele>5.5999999046326</ele>
        <time>2019-04-02T08:28:43.000Z</time>
      </trkpt>
      <trkpt lat="47.23963" lon="-1.54765">
        <ele>5.5999999046326</ele>
        <time>2019-04-02T08:28:44.000Z</time>
      </trkpt>
      <trkpt lat="47.23964" lon="-1.54764">
        <ele>5.5999999046326</ele>
        <time>2019-04-02T08:28:45.000Z</time>
      </trkpt>
      <trkpt lat="47.23966" lon="-1.54763">
        <ele>5.4000000953674</ele>
        <time>2019-04-02T08:28:46.000Z</time>
      </trkpt>
      <trkpt lat="47.23967" lon="-1.54761">
        <ele>5.4000000953674</ele>
        <time>2019-04-02T08:28:47.000Z</time>
      </trkpt>
      <trkpt lat="47.23968" lon="-1.5476">
        <ele>5.4000000953674</ele>
        <time>2019-04-02T08:28:48.000Z</time>
      </trkpt>
      <trkpt lat="47.23969" lon="-1.54759">
        <ele>5.4000000953674</ele>
        <time>2019-04-02T08:28:49.000Z</time>
      </trkpt>
      <trkpt lat="47.23969" lon="-1.54757">
        <ele>5.4000000953674</ele>
        <time>2019-04-02T08:28:50.000Z</time>
      </trkpt>
      <trkpt lat="47.23969" lon="-1.54755">
        <ele>5.4000000953674</ele>
        <time>2019-04-02T08:28:51.000Z</time>
      </trkpt>
      <trkpt lat="47.23969" lon="-1.54753">
        <ele>5.5999999046326</ele>
        <time>2019-04-02T08:28:52.000Z</time>
      </trkpt>
      <trkpt lat="47.23969" lon="-1.54752">
        <ele>5.5999999046326</ele>
        <time>2019-04-02T08:28:53.000Z</time>
      </trkpt>
      <trkpt lat="47.23969" lon="-1.5475">
        <ele>5.5999999046326</ele>
        <time>2019-04-02T08:28:54.000Z</time>
      </trkpt>
      <trkpt lat="47.2397" lon="-1.54749">
        <ele>5.5999999046326</ele>
        <time>2019-04-02T08:28:55.000Z</time>
      </trkpt>
      <trkpt lat="47.23971" lon="-1.54748">
        <ele>5.5999999046326</ele>
        <time>2019-04-02T08:28:56.000Z</time>
      </trkpt>
      <trkpt lat="47.23973" lon="-1.54746">
        <ele>5.4000000953674</ele>
        <time>2019-04-02T08:28:57.000Z</time>
      </trkpt>
      <trkpt lat="47.23974" lon="-1.54745">
        <ele>5.4000000953674</ele>
        <time>2019-04-02T08:28:58.000Z</time>
      </trkpt>
      <trkpt lat="47.23976" lon="-1.54744">
        <ele>5.4000000953674</ele>
        <time>2019-04-02T08:28:59.000Z</time>
      </trkpt>
      <trkpt lat="47.23979" lon="-1.54742">
        <ele>5.1999998092651</ele>
        <time>2019-04-02T08:29:00.000Z</time>
      </trkpt>
      <trkpt lat="47.23979" lon="-1.54742">
        <ele>5.1999998092651</ele>
        <time>2019-04-02T08:29:01.000Z</time>
      </trkpt>
      <trkpt lat="47.2398" lon="-1.54741">
        <ele>5</ele>
        <time>2019-04-02T08:29:02.000Z</time>
      </trkpt>
      <trkpt lat="47.23981" lon="-1.5474">
        <ele>5</ele>
        <time>2019-04-02T08:29:03.000Z</time>
      </trkpt>
      <trkpt lat="47.23982" lon="-1.54739">
        <ele>5</ele>
        <time>2019-04-02T08:29:04.000Z</time>
      </trkpt>
      <trkpt lat="47.23983" lon="-1.54738">
        <ele>4.8000001907349</ele>
        <time>2019-04-02T08:29:05.000Z</time>
      </trkpt>
      <trkpt lat="47.23984" lon="-1.54737">
        <ele>4.8000001907349</ele>
        <time>2019-04-02T08:29:06.000Z</time>
      </trkpt>
      <trkpt lat="47.23985" lon="-1.54736">
        <ele>4.8000001907349</ele>
        <time>2019-04-02T08:29:07.000Z</time>
      </trkpt>
      <trkpt lat="47.23986" lon="-1.54735">
        <ele>4.8000001907349</ele>
        <time>2019-04-02T08:29:08.000Z</time>
      </trkpt>
      <trkpt lat="47.23987" lon="-1.54734">
        <ele>4.5999999046326</ele>
        <time>2019-04-02T08:29:09.000Z</time>
      </trkpt>
      <trkpt lat="47.23989" lon="-1.54733">
        <ele>4.8000001907349</ele>
        <time>2019-04-02T08:29:10.000Z</time>
      </trkpt>
      <trkpt lat="47.2399" lon="-1.54732">
        <ele>4.8000001907349</ele>
        <time>2019-04-02T08:29:11.000Z</time>
      </trkpt>
      <trkpt lat="47.23992" lon="-1.54731">
        <ele>4.8000001907349</ele>
        <time>2019-04-02T08:29:12.000Z</time>
      </trkpt>
      <trkpt lat="47.23993" lon="-1.5473">
        <ele>4.8000001907349</ele>
        <time>2019-04-02T08:29:13.000Z</time>
      </trkpt>
      <trkpt lat="47.23994" lon="-1.5473">
        <ele>4.8000001907349</ele>
        <time>2019-04-02T08:29:14.000Z</time>
      </trkpt>
      <trkpt lat="47.23995" lon="-1.54729">
        <ele>4.8000001907349</ele>
        <time>2019-04-02T08:29:15.000Z</time>
      </trkpt>
      <trkpt lat="47.23995" lon="-1.54728">
        <ele>4.8000001907349</ele>
        <time>2019-04-02T08:29:16.000Z</time>
      </trkpt>
      <trkpt lat="47.23996" lon="-1.54727">
        <ele>4.8000001907349</ele>
        <time>2019-04-02T08:29:17.000Z</time>
      </trkpt>
      <trkpt lat="47.23997" lon="-1.54727">
        <ele>4.8000001907349</ele>
        <time>2019-04-02T08:29:18.000Z</time>
      </trkpt>
      <trkpt lat="47.23999" lon="-1.54725">
        <ele>5</ele>
        <time>2019-04-02T08:29:19.000Z</time>
      </trkpt>
      <trkpt lat="47.24001" lon="-1.54722">
        <ele>5.1999998092651</ele>
        <time>2019-04-02T08:29:20.000Z</time>
      </trkpt>
      <trkpt lat="47.24001" lon="-1.54722">
        <ele>5.1999998092651</ele>
        <time>2019-04-02T08:29:21.000Z</time>
      </trkpt>
      <trkpt lat="47.24003" lon="-1.5472">
        <ele>5.1999998092651</ele>
        <time>2019-04-02T08:29:22.000Z</time>
      </trkpt>
      <trkpt lat="47.24005" lon="-1.54719">
        <ele>5.4000000953674</ele>
        <time>2019-04-02T08:29:23.000Z</time>
      </trkpt>
      <trkpt lat="47.24006" lon="-1.54717">
        <ele>5.4000000953674</ele>
        <time>2019-04-02T08:29:24.000Z</time>
      </trkpt>
      <trkpt lat="47.24008" lon="-1.54716">
        <ele>5.4000000953674</ele>
        <time>2019-04-02T08:29:25.000Z</time>
      </trkpt>
      <trkpt lat="47.24009" lon="-1.54715">
        <ele>5.5999999046326</ele>
        <time>2019-04-02T08:29:26.000Z</time>
      </trkpt>
      <trkpt lat="47.2401" lon="-1.54714">
        <ele>5.5999999046326</ele>
        <time>2019-04-02T08:29:27.000Z</time>
      </trkpt>
      <trkpt lat="47.24011" lon="-1.54714">
        <ele>5.5999999046326</ele>
        <time>2019-04-02T08:29:28.000Z</time>
      </trkpt>
      <trkpt lat="47.24012" lon="-1.54712">
        <ele>5.5999999046326</ele>
        <time>2019-04-02T08:29:29.000Z</time>
      </trkpt>
      <trkpt lat="47.24013" lon="-1.54711">
        <ele>5.8000001907349</ele>
        <time>2019-04-02T08:29:30.000Z</time>
      </trkpt>
      <trkpt lat="47.24014" lon="-1.5471">
        <ele>5.8000001907349</ele>
        <time>2019-04-02T08:29:31.000Z</time>
      </trkpt>
      <trkpt lat="47.24016" lon="-1.54709">
        <ele>5.8000001907349</ele>
        <time>2019-04-02T08:29:32.000Z</time>
      </trkpt>
      <trkpt lat="47.24017" lon="-1.54708">
        <ele>6</ele>
        <time>2019-04-02T08:29:33.000Z</time>
      </trkpt>
      <trkpt lat="47.24018" lon="-1.54707">
        <ele>6</ele>
        <time>2019-04-02T08:29:34.000Z</time>
      </trkpt>
      <trkpt lat="47.2402" lon="-1.54705">
        <ele>6</ele>
        <time>2019-04-02T08:29:35.000Z</time>
      </trkpt>
      <trkpt lat="47.24021" lon="-1.54704">
        <ele>6.1999998092651</ele>
        <time>2019-04-02T08:29:36.000Z</time>
      </trkpt>
      <trkpt lat="47.24022" lon="-1.54703">
        <ele>6.1999998092651</ele>
        <time>2019-04-02T08:29:37.000Z</time>
      </trkpt>
      <trkpt lat="47.24023" lon="-1.54701">
        <ele>6.4000000953674</ele>
        <time>2019-04-02T08:29:38.000Z</time>
      </trkpt>
      <trkpt lat="47.24024" lon="-1.54698">
        <ele>6.8000001907349</ele>
        <time>2019-04-02T08:29:39.000Z</time>
      </trkpt>
      <trkpt lat="47.24024" lon="-1.54698">
        <ele>6.8000001907349</ele>
        <time>2019-04-02T08:29:40.000Z</time>
      </trkpt>
      <trkpt lat="47.24024" lon="-1.54696">
        <ele>7</ele>
        <time>2019-04-02T08:29:41.000Z</time>
      </trkpt>
      <trkpt lat="47.24024" lon="-1.54694">
        <ele>7.1999998092651</ele>
        <time>2019-04-02T08:29:42.000Z</time>
      </trkpt>
      <trkpt lat="47.24024" lon="-1.54692">
        <ele>7.4000000953674</ele>
        <time>2019-04-02T08:29:43.000Z</time>
      </trkpt>
      <trkpt lat="47.24024" lon="-1.54691">
        <ele>7.5999999046326</ele>
        <time>2019-04-02T08:29:44.000Z</time>
      </trkpt>
      <trkpt lat="47.24024" lon="-1.54688">
        <ele>8</ele>
        <time>2019-04-02T08:29:45.000Z</time>
      </trkpt>
      <trkpt lat="47.24024" lon="-1.54688">
        <ele>8</ele>
        <time>2019-04-02T08:29:46.000Z</time>
      </trkpt>
      <trkpt lat="47.24024" lon="-1.54686">
        <ele>8.3999996185303</ele>
        <time>2019-04-02T08:29:47.000Z</time>
      </trkpt>
      <trkpt lat="47.24024" lon="-1.54684">
        <ele>8.6000003814697</ele>
        <time>2019-04-02T08:29:48.000Z</time>
      </trkpt>
      <trkpt lat="47.24024" lon="-1.54683">
        <ele>8.8000001907349</ele>
        <time>2019-04-02T08:29:49.000Z</time>
      </trkpt>
      <trkpt lat="47.24025" lon="-1.5468">
        <ele>9</ele>
        <time>2019-04-02T08:29:50.000Z</time>
      </trkpt>
      <trkpt lat="47.24025" lon="-1.5468">
        <ele>9</ele>
        <time>2019-04-02T08:29:51.000Z</time>
      </trkpt>
      <trkpt lat="47.24025" lon="-1.54678">
        <ele>9.1999998092651</ele>
        <time>2019-04-02T08:29:52.000Z</time>
      </trkpt>
      <trkpt lat="47.24026" lon="-1.54677">
        <ele>9.3999996185303</ele>
        <time>2019-04-02T08:29:53.000Z</time>
      </trkpt>
      <trkpt lat="47.24027" lon="-1.54676">
        <ele>9.3999996185303</ele>
        <time>2019-04-02T08:29:54.000Z</time>
      </trkpt>
      <trkpt lat="47.24028" lon="-1.54675">
        <ele>9.3999996185303</ele>
        <time>2019-04-02T08:29:55.000Z</time>
      </trkpt>
      <trkpt lat="47.24029" lon="-1.54674">
        <ele>9.6000003814697</ele>
        <time>2019-04-02T08:29:56.000Z</time>
      </trkpt>
      <trkpt lat="47.2403" lon="-1.54673">
        <ele>9.6000003814697</ele>
        <time>2019-04-02T08:29:57.000Z</time>
      </trkpt>
      <trkpt lat="47.24031" lon="-1.54672">
        <ele>9.6000003814697</ele>
        <time>2019-04-02T08:29:58.000Z</time>
      </trkpt>
      <trkpt lat="47.24032" lon="-1.54671">
        <ele>9.6000003814697</ele>
        <time>2019-04-02T08:29:59.000Z</time>
      </trkpt>
      <trkpt lat="47.24033" lon="-1.5467">
        <ele>9.8000001907349</ele>
        <time>2019-04-02T08:30:00.000Z</time>
      </trkpt>
      <trkpt lat="47.24034" lon="-1.54669">
        <ele>9.8000001907349</ele>
        <time>2019-04-02T08:30:01.000Z</time>
      </trkpt>
      <trkpt lat="47.24036" lon="-1.54667">
        <ele>10</ele>
        <time>2019-04-02T08:30:02.000Z</time>
      </trkpt>
      <trkpt lat="47.24036" lon="-1.54667">
        <ele>10</ele>
        <time>2019-04-02T08:30:03.000Z</time>
      </trkpt>
      <trkpt lat="47.24037" lon="-1.54666">
        <ele>10</ele>
        <time>2019-04-02T08:30:04.000Z</time>
      </trkpt>
      <trkpt lat="47.24038" lon="-1.54666">
        <ele>10</ele>
        <time>2019-04-02T08:30:05.000Z</time>
      </trkpt>
      <trkpt lat="47.24039" lon="-1.54665">
        <ele>10</ele>
        <time>2019-04-02T08:30:06.000Z</time>
      </trkpt>
      <trkpt lat="47.24041" lon="-1.54664">
        <ele>10</ele>
        <time>2019-04-02T08:30:07.000Z</time>
      </trkpt>
      <trkpt lat="47.24042" lon="-1.54662">
        <ele>10.199999809265</ele>
        <time>2019-04-02T08:30:08.000Z</time>
      </trkpt>
      <trkpt lat="47.24043" lon="-1.54661">
        <ele>10.39999961853</ele>
        <time>2019-04-02T08:30:09.000Z</time>
      </trkpt>
      <trkpt lat="47.24044" lon="-1.54659">
        <ele>10.39999961853</ele>
        <time>2019-04-02T08:30:10.000Z</time>
      </trkpt>
      <trkpt lat="47.24045" lon="-1.54658">
        <ele>10.39999961853</ele>
        <time>2019-04-02T08:30:11.000Z</time>
      </trkpt>
      <trkpt lat="47.24046" lon="-1.54657">
        <ele>10.39999961853</ele>
        <time>2019-04-02T08:30:12.000Z</time>
      </trkpt>
      <trkpt lat="47.24047" lon="-1.54656">
        <ele>10.60000038147</ele>
        <time>2019-04-02T08:30:13.000Z</time>
      </trkpt>
      <trkpt lat="47.24049" lon="-1.54656">
        <ele>10.39999961853</ele>
        <time>2019-04-02T08:30:14.000Z</time>
      </trkpt>
      <trkpt lat="47.2405" lon="-1.54656">
        <ele>10.39999961853</ele>
        <time>2019-04-02T08:30:15.000Z</time>
      </trkpt>
      <trkpt lat="47.24052" lon="-1.54655">
        <ele>10.39999961853</ele>
        <time>2019-04-02T08:30:16.000Z</time>
      </trkpt>
      <trkpt lat="47.24053" lon="-1.54655">
        <ele>10.199999809265</ele>
        <time>2019-04-02T08:30:17.000Z</time>
      </trkpt>
      <trkpt lat="47.24054" lon="-1.54655">
        <ele>10.199999809265</ele>
        <time>2019-04-02T08:30:18.000Z</time>
      </trkpt>
      <trkpt lat="47.24056" lon="-1.54655">
        <ele>10.199999809265</ele>
        <time>2019-04-02T08:30:19.000Z</time>
      </trkpt>
      <trkpt lat="47.24057" lon="-1.54654">
        <ele>10.199999809265</ele>
        <time>2019-04-02T08:30:20.000Z</time>
      </trkpt>
      <trkpt lat="47.24058" lon="-1.54653">
        <ele>10.199999809265</ele>
        <time>2019-04-02T08:30:21.000Z</time>
      </trkpt>
      <trkpt lat="47.2406" lon="-1.54652">
        <ele>10.199999809265</ele>
        <time>2019-04-02T08:30:22.000Z</time>
      </trkpt>
      <trkpt lat="47.24061" lon="-1.54652">
        <ele>10.199999809265</ele>
        <time>2019-04-02T08:30:23.000Z</time>
      </trkpt>
      <trkpt lat="47.24061" lon="-1.54651">
        <ele>10.199999809265</ele>
        <time>2019-04-02T08:30:24.000Z</time>
      </trkpt>
      <trkpt lat="47.24062" lon="-1.5465">
        <ele>10.199999809265</ele>
        <time>2019-04-02T08:30:25.000Z</time>
      </trkpt>
      <trkpt lat="47.24063" lon="-1.54649">
        <ele>10.199999809265</ele>
        <time>2019-04-02T08:30:26.000Z</time>
      </trkpt>
      <trkpt lat="47.24064" lon="-1.54648">
        <ele>10</ele>
        <time>2019-04-02T08:30:27.000Z</time>
      </trkpt>
      <trkpt lat="47.24066" lon="-1.54648">
        <ele>10</ele>
        <time>2019-04-02T08:30:28.000Z</time>
      </trkpt>
      <trkpt lat="47.24067" lon="-1.54648">
        <ele>10</ele>
        <time>2019-04-02T08:30:29.000Z</time>
      </trkpt>
      <trkpt lat="47.24068" lon="-1.54647">
        <ele>9.8000001907349</ele>
        <time>2019-04-02T08:30:30.000Z</time>
      </trkpt>
      <trkpt lat="47.24069" lon="-1.54647">
        <ele>9.8000001907349</ele>
        <time>2019-04-02T08:30:31.000Z</time>
      </trkpt>
      <trkpt lat="47.2407" lon="-1.54646">
        <ele>9.6000003814697</ele>
        <time>2019-04-02T08:30:32.000Z</time>
      </trkpt>
      <trkpt lat="47.24072" lon="-1.54646">
        <ele>9.6000003814697</ele>
        <time>2019-04-02T08:30:33.000Z</time>
      </trkpt>
      <trkpt lat="47.24073" lon="-1.54645">
        <ele>9.6000003814697</ele>
        <time>2019-04-02T08:30:34.000Z</time>
      </trkpt>
      <trkpt lat="47.24074" lon="-1.54645">
        <ele>9.3999996185303</ele>
        <time>2019-04-02T08:30:35.000Z</time>
      </trkpt>
      <trkpt lat="47.24075" lon="-1.54644">
        <ele>9.3999996185303</ele>
        <time>2019-04-02T08:30:36.000Z</time>
      </trkpt>
      <trkpt lat="47.24076" lon="-1.54644">
        <ele>9.1999998092651</ele>
        <time>2019-04-02T08:30:37.000Z</time>
      </trkpt>
      <trkpt lat="47.24078" lon="-1.54644">
        <ele>9.1999998092651</ele>
        <time>2019-04-02T08:30:38.000Z</time>
      </trkpt>
      <trkpt lat="47.24078" lon="-1.54644">
        <ele>9.1999998092651</ele>
        <time>2019-04-02T08:30:39.000Z</time>
      </trkpt>
      <trkpt lat="47.24079" lon="-1.54644">
        <ele>9</ele>
        <time>2019-04-02T08:30:40.000Z</time>
      </trkpt>
      <trkpt lat="47.24081" lon="-1.54643">
        <ele>9</ele>
        <time>2019-04-02T08:30:41.000Z</time>
      </trkpt>
      <trkpt lat="47.24083" lon="-1.54643">
        <ele>8.8000001907349</ele>
        <time>2019-04-02T08:30:42.000Z</time>
      </trkpt>
      <trkpt lat="47.24084" lon="-1.54643">
        <ele>8.8000001907349</ele>
        <time>2019-04-02T08:30:43.000Z</time>
      </trkpt>
      <trkpt lat="47.24086" lon="-1.54642">
        <ele>8.6000003814697</ele>
        <time>2019-04-02T08:30:44.000Z</time>
      </trkpt>
      <trkpt lat="47.24088" lon="-1.54641">
        <ele>8.6000003814697</ele>
        <time>2019-04-02T08:30:45.000Z</time>
      </trkpt>
      <trkpt lat="47.2409" lon="-1.5464">
        <ele>8.3999996185303</ele>
        <time>2019-04-02T08:30:46.000Z</time>
      </trkpt>
      <trkpt lat="47.24092" lon="-1.5464">
        <ele>8.3999996185303</ele>
        <time>2019-04-02T08:30:47.000Z</time>
      </trkpt>
      <trkpt lat="47.24096" lon="-1.54639">
        <ele>8</ele>
        <time>2019-04-02T08:30:48.000Z</time>
      </trkpt>
      <trkpt lat="47.24096" lon="-1.54639">
        <ele>8</ele>
        <time>2019-04-02T08:30:49.000Z</time>
      </trkpt>
      <trkpt lat="47.24097" lon="-1.54638">
        <ele>8</ele>
        <time>2019-04-02T08:30:50.000Z</time>
      </trkpt>
      <trkpt lat="47.24099" lon="-1.54638">
        <ele>8</ele>
        <time>2019-04-02T08:30:51.000Z</time>
      </trkpt>
      <trkpt lat="47.241" lon="-1.54637">
        <ele>7.8000001907349</ele>
        <time>2019-04-02T08:30:52.000Z</time>
      </trkpt>
      <trkpt lat="47.24101" lon="-1.54637">
        <ele>7.8000001907349</ele>
        <time>2019-04-02T08:30:53.000Z</time>
      </trkpt>
      <trkpt lat="47.24102" lon="-1.54636">
        <ele>7.5999999046326</ele>
        <time>2019-04-02T08:30:54.000Z</time>
      </trkpt>
      <trkpt lat="47.24103" lon="-1.54635">
        <ele>7.5999999046326</ele>
        <time>2019-04-02T08:30:55.000Z</time>
      </trkpt>
      <trkpt lat="47.24105" lon="-1.54635">
        <ele>7.5999999046326</ele>
        <time>2019-04-02T08:30:56.000Z</time>
      </trkpt>
      <trkpt lat="47.24106" lon="-1.54634">
        <ele>7.4000000953674</ele>
        <time>2019-04-02T08:30:57.000Z</time>
      </trkpt>
      <trkpt lat="47.24108" lon="-1.54634">
        <ele>7.4000000953674</ele>
        <time>2019-04-02T08:30:58.000Z</time>
      </trkpt>
      <trkpt lat="47.2411" lon="-1.54633">
        <ele>7.1999998092651</ele>
        <time>2019-04-02T08:30:59.000Z</time>
      </trkpt>
      <trkpt lat="47.24112" lon="-1.54632">
        <ele>7</ele>
        <time>2019-04-02T08:31:00.000Z</time>
      </trkpt>
      <trkpt lat="47.24114" lon="-1.54632">
        <ele>7</ele>
        <time>2019-04-02T08:31:01.000Z</time>
      </trkpt>
      <trkpt lat="47.24115" lon="-1.54632">
        <ele>6.8000001907349</ele>
        <time>2019-04-02T08:31:02.000Z</time>
      </trkpt>
      <trkpt lat="47.24116" lon="-1.54631">
        <ele>6.8000001907349</ele>
        <time>2019-04-02T08:31:03.000Z</time>
      </trkpt>
      <trkpt lat="47.24118" lon="-1.5463">
        <ele>6.5999999046326</ele>
        <time>2019-04-02T08:31:04.000Z</time>
      </trkpt>
      <trkpt lat="47.24119" lon="-1.5463">
        <ele>6.5999999046326</ele>
        <time>2019-04-02T08:31:05.000Z</time>
      </trkpt>
      <trkpt lat="47.24121" lon="-1.54629">
        <ele>6.5999999046326</ele>
        <time>2019-04-02T08:31:06.000Z</time>
      </trkpt>
      <trkpt lat="47.24122" lon="-1.54628">
        <ele>6.4000000953674</ele>
        <time>2019-04-02T08:31:07.000Z</time>
      </trkpt>
      <trkpt lat="47.24123" lon="-1.54628">
        <ele>6.4000000953674</ele>
        <time>2019-04-02T08:31:08.000Z</time>
      </trkpt>
      <trkpt lat="47.24125" lon="-1.54627">
        <ele>6.1999998092651</ele>
        <time>2019-04-02T08:31:09.000Z</time>
      </trkpt>
      <trkpt lat="47.24126" lon="-1.54625">
        <ele>6.1999998092651</ele>
        <time>2019-04-02T08:31:10.000Z</time>
      </trkpt>
      <trkpt lat="47.24128" lon="-1.54624">
        <ele>6.1999998092651</ele>
        <time>2019-04-02T08:31:11.000Z</time>
      </trkpt>
      <trkpt lat="47.24129" lon="-1.54623">
        <ele>6</ele>
        <time>2019-04-02T08:31:12.000Z</time>
      </trkpt>
      <trkpt lat="47.2413" lon="-1.54623">
        <ele>6</ele>
        <time>2019-04-02T08:31:13.000Z</time>
      </trkpt>
      <trkpt lat="47.24132" lon="-1.54622">
        <ele>5.8000001907349</ele>
        <time>2019-04-02T08:31:14.000Z</time>
      </trkpt>
      <trkpt lat="47.24133" lon="-1.54621">
        <ele>5.8000001907349</ele>
        <time>2019-04-02T08:31:15.000Z</time>
      </trkpt>
      <trkpt lat="47.24135" lon="-1.54621">
        <ele>5.8000001907349</ele>
        <time>2019-04-02T08:31:16.000Z</time>
      </trkpt>
      <trkpt lat="47.24136" lon="-1.5462">
        <ele>5.5999999046326</ele>
        <time>2019-04-02T08:31:17.000Z</time>
      </trkpt>
      <trkpt lat="47.24137" lon="-1.5462">
        <ele>5.5999999046326</ele>
        <time>2019-04-02T08:31:18.000Z</time>
      </trkpt>
      <trkpt lat="47.24139" lon="-1.54619">
        <ele>5.4000000953674</ele>
        <time>2019-04-02T08:31:19.000Z</time>
      </trkpt>
      <trkpt lat="47.2414" lon="-1.54619">
        <ele>5.4000000953674</ele>
        <time>2019-04-02T08:31:20.000Z</time>
      </trkpt>
      <trkpt lat="47.24141" lon="-1.54618">
        <ele>5.4000000953674</ele>
        <time>2019-04-02T08:31:21.000Z</time>
      </trkpt>
      <trkpt lat="47.24143" lon="-1.54618">
        <ele>5.1999998092651</ele>
        <time>2019-04-02T08:31:22.000Z</time>
      </trkpt>
      <trkpt lat="47.24144" lon="-1.54617">
        <ele>5.1999998092651</ele>
        <time>2019-04-02T08:31:23.000Z</time>
      </trkpt>
      <trkpt lat="47.24145" lon="-1.54616">
        <ele>5</ele>
        <time>2019-04-02T08:31:24.000Z</time>
      </trkpt>
      <trkpt lat="47.24146" lon="-1.54616">
        <ele>5</ele>
        <time>2019-04-02T08:31:25.000Z</time>
      </trkpt>
      <trkpt lat="47.24148" lon="-1.54615">
        <ele>5</ele>
        <time>2019-04-02T08:31:26.000Z</time>
      </trkpt>
      <trkpt lat="47.24149" lon="-1.54614">
        <ele>4.8000001907349</ele>
        <time>2019-04-02T08:31:27.000Z</time>
      </trkpt>
      <trkpt lat="47.2415" lon="-1.54614">
        <ele>4.8000001907349</ele>
        <time>2019-04-02T08:31:28.000Z</time>
      </trkpt>
      <trkpt lat="47.24152" lon="-1.54613">
        <ele>4.5999999046326</ele>
        <time>2019-04-02T08:31:29.000Z</time>
      </trkpt>
      <trkpt lat="47.24153" lon="-1.54612">
        <ele>4.5999999046326</ele>
        <time>2019-04-02T08:31:30.000Z</time>
      </trkpt>
      <trkpt lat="47.24154" lon="-1.54611">
        <ele>4.5999999046326</ele>
        <time>2019-04-02T08:31:31.000Z</time>
      </trkpt>
      <trkpt lat="47.24156" lon="-1.5461">
        <ele>4.4000000953674</ele>
        <time>2019-04-02T08:31:32.000Z</time>
      </trkpt>
      <trkpt lat="47.24156" lon="-1.5461">
        <ele>4.4000000953674</ele>
        <time>2019-04-02T08:31:33.000Z</time>
      </trkpt>
      <trkpt lat="47.24157" lon="-1.54609">
        <ele>4.4000000953674</ele>
        <time>2019-04-02T08:31:34.000Z</time>
      </trkpt>
      <trkpt lat="47.24159" lon="-1.54609">
        <ele>4.1999998092651</ele>
        <time>2019-04-02T08:31:35.000Z</time>
      </trkpt>
      <trkpt lat="47.2416" lon="-1.54608">
        <ele>4.1999998092651</ele>
        <time>2019-04-02T08:31:36.000Z</time>
      </trkpt>
      <trkpt lat="47.24161" lon="-1.54607">
        <ele>4.1999998092651</ele>
        <time>2019-04-02T08:31:37.000Z</time>
      </trkpt>
      <trkpt lat="47.24163" lon="-1.54606">
        <ele>4</ele>
        <time>2019-04-02T08:31:38.000Z</time>
      </trkpt>
      <trkpt lat="47.24164" lon="-1.54605">
        <ele>4</ele>
        <time>2019-04-02T08:31:39.000Z</time>
      </trkpt>
      <trkpt lat="47.24166" lon="-1.54605">
        <ele>4</ele>
        <time>2019-04-02T08:31:40.000Z</time>
      </trkpt>
      <trkpt lat="47.24167" lon="-1.54604">
        <ele>4</ele>
        <time>2019-04-02T08:31:41.000Z</time>
      </trkpt>
      <trkpt lat="47.24168" lon="-1.54603">
        <ele>4</ele>
        <time>2019-04-02T08:31:42.000Z</time>
      </trkpt>
      <trkpt lat="47.24169" lon="-1.54603">
        <ele>4</ele>
        <time>2019-04-02T08:31:43.000Z</time>
      </trkpt>
      <trkpt lat="47.2417" lon="-1.54602">
        <ele>4</ele>
        <time>2019-04-02T08:31:44.000Z</time>
      </trkpt>
      <trkpt lat="47.2417" lon="-1.54602">
        <ele>4</ele>
        <time>2019-04-02T08:31:45.000Z</time>
      </trkpt>
      <trkpt lat="47.24171" lon="-1.54601">
        <ele>4</ele>
        <time>2019-04-02T08:31:46.000Z</time>
      </trkpt>
      <trkpt lat="47.24172" lon="-1.546">
        <ele>4</ele>
        <time>2019-04-02T08:31:47.000Z</time>
      </trkpt>
      <trkpt lat="47.24173" lon="-1.546">
        <ele>4</ele>
        <time>2019-04-02T08:31:48.000Z</time>
      </trkpt>
      <trkpt lat="47.24173" lon="-1.54599">
        <ele>4</ele>
        <time>2019-04-02T08:31:49.000Z</time>
      </trkpt>
      <trkpt lat="47.24174" lon="-1.54598">
        <ele>4</ele>
        <time>2019-04-02T08:31:50.000Z</time>
      </trkpt>
      <trkpt lat="47.24176" lon="-1.54597">
        <ele>4</ele>
        <time>2019-04-02T08:31:51.000Z</time>
      </trkpt>
      <trkpt lat="47.24177" lon="-1.54596">
        <ele>4</ele>
        <time>2019-04-02T08:31:52.000Z</time>
      </trkpt>
      <trkpt lat="47.24178" lon="-1.54595">
        <ele>4</ele>
        <time>2019-04-02T08:31:53.000Z</time>
      </trkpt>
      <trkpt lat="47.24179" lon="-1.54594">
        <ele>4</ele>
        <time>2019-04-02T08:31:54.000Z</time>
      </trkpt>
      <trkpt lat="47.24181" lon="-1.54593">
        <ele>4</ele>
        <time>2019-04-02T08:31:55.000Z</time>
      </trkpt>
      <trkpt lat="47.24183" lon="-1.54593">
        <ele>4</ele>
        <time>2019-04-02T08:31:56.000Z</time>
      </trkpt>
      <trkpt lat="47.24184" lon="-1.54592">
        <ele>3.7999999523163</ele>
        <time>2019-04-02T08:31:57.000Z</time>
      </trkpt>
      <trkpt lat="47.24185" lon="-1.54591">
        <ele>3.7999999523163</ele>
        <time>2019-04-02T08:31:58.000Z</time>
      </trkpt>
      <trkpt lat="47.24188" lon="-1.54589">
        <ele>3.7999999523163</ele>
        <time>2019-04-02T08:31:59.000Z</time>
      </trkpt>
      <trkpt lat="47.24188" lon="-1.54589">
        <ele>3.7999999523163</ele>
        <time>2019-04-02T08:32:00.000Z</time>
      </trkpt>
      <trkpt lat="47.24189" lon="-1.54589">
        <ele>3.7999999523163</ele>
        <time>2019-04-02T08:32:01.000Z</time>
      </trkpt>
      <trkpt lat="47.2419" lon="-1.54588">
        <ele>3.7999999523163</ele>
        <time>2019-04-02T08:32:02.000Z</time>
      </trkpt>
      <trkpt lat="47.24191" lon="-1.54587">
        <ele>3.7999999523163</ele>
        <time>2019-04-02T08:32:03.000Z</time>
      </trkpt>
      <trkpt lat="47.24193" lon="-1.54585">
        <ele>3.7999999523163</ele>
        <time>2019-04-02T08:32:04.000Z</time>
      </trkpt>
      <trkpt lat="47.24194" lon="-1.54583">
        <ele>3.7999999523163</ele>
        <time>2019-04-02T08:32:05.000Z</time>
      </trkpt>
      <trkpt lat="47.24195" lon="-1.54581">
        <ele>3.7999999523163</ele>
        <time>2019-04-02T08:32:06.000Z</time>
      </trkpt>
      <trkpt lat="47.24197" lon="-1.54579">
        <ele>4</ele>
        <time>2019-04-02T08:32:07.000Z</time>
      </trkpt>
      <trkpt lat="47.24198" lon="-1.54576">
        <ele>4</ele>
        <time>2019-04-02T08:32:08.000Z</time>
      </trkpt>
      <trkpt lat="47.24199" lon="-1.54575">
        <ele>4</ele>
        <time>2019-04-02T08:32:09.000Z</time>
      </trkpt>
      <trkpt lat="47.24199" lon="-1.54572">
        <ele>4</ele>
        <time>2019-04-02T08:32:10.000Z</time>
      </trkpt>
      <trkpt lat="47.242" lon="-1.54568">
        <ele>4</ele>
        <time>2019-04-02T08:32:11.000Z</time>
      </trkpt>
      <trkpt lat="47.242" lon="-1.54568">
        <ele>4</ele>
        <time>2019-04-02T08:32:12.000Z</time>
      </trkpt>
      <trkpt lat="47.242" lon="-1.54566">
        <ele>4.1999998092651</ele>
        <time>2019-04-02T08:32:13.000Z</time>
      </trkpt>
      <trkpt lat="47.24201" lon="-1.54564">
        <ele>4.1999998092651</ele>
        <time>2019-04-02T08:32:14.000Z</time>
      </trkpt>
      <trkpt lat="47.24201" lon="-1.54563">
        <ele>4.1999998092651</ele>
        <time>2019-04-02T08:32:15.000Z</time>
      </trkpt>
      <trkpt lat="47.24201" lon="-1.54561">
        <ele>4.4000000953674</ele>
        <time>2019-04-02T08:32:16.000Z</time>
      </trkpt>
      <trkpt lat="47.242" lon="-1.54559">
        <ele>4.4000000953674</ele>
        <time>2019-04-02T08:32:17.000Z</time>
      </trkpt>
      <trkpt lat="47.242" lon="-1.54557">
        <ele>4.4000000953674</ele>
        <time>2019-04-02T08:32:18.000Z</time>
      </trkpt>
      <trkpt lat="47.24201" lon="-1.54556">
        <ele>4.4000000953674</ele>
        <time>2019-04-02T08:32:19.000Z</time>
      </trkpt>
      <trkpt lat="47.242" lon="-1.54554">
        <ele>4.5999999046326</ele>
        <time>2019-04-02T08:32:20.000Z</time>
      </trkpt>
      <trkpt lat="47.242" lon="-1.54553">
        <ele>4.5999999046326</ele>
        <time>2019-04-02T08:32:21.000Z</time>
      </trkpt>
      <trkpt lat="47.24199" lon="-1.54551">
        <ele>4.5999999046326</ele>
        <time>2019-04-02T08:32:22.000Z</time>
      </trkpt>
      <trkpt lat="47.24199" lon="-1.5455">
        <ele>4.8000001907349</ele>
        <time>2019-04-02T08:32:23.000Z</time>
      </trkpt>
      <trkpt lat="47.24198" lon="-1.54548">
        <ele>4.8000001907349</ele>
        <time>2019-04-02T08:32:24.000Z</time>
      </trkpt>
      <trkpt lat="47.24198" lon="-1.54547">
        <ele>4.8000001907349</ele>
        <time>2019-04-02T08:32:25.000Z</time>
      </trkpt>
      <trkpt lat="47.24198" lon="-1.54545">
        <ele>5</ele>
        <time>2019-04-02T08:32:26.000Z</time>
      </trkpt>
      <trkpt lat="47.24197" lon="-1.54543">
        <ele>5</ele>
        <time>2019-04-02T08:32:27.000Z</time>
      </trkpt>
      <trkpt lat="47.24197" lon="-1.54542">
        <ele>5</ele>
        <time>2019-04-02T08:32:28.000Z</time>
      </trkpt>
      <trkpt lat="47.24196" lon="-1.5454">
        <ele>5.1999998092651</ele>
        <time>2019-04-02T08:32:29.000Z</time>
      </trkpt>
      <trkpt lat="47.24196" lon="-1.54539">
        <ele>5.1999998092651</ele>
        <time>2019-04-02T08:32:30.000Z</time>
      </trkpt>
      <trkpt lat="47.24196" lon="-1.54537">
        <ele>5.4000000953674</ele>
        <time>2019-04-02T08:32:31.000Z</time>
      </trkpt>
      <trkpt lat="47.24195" lon="-1.54534">
        <ele>5.4000000953674</ele>
        <time>2019-04-02T08:32:32.000Z</time>
      </trkpt>
      <trkpt lat="47.24195" lon="-1.54532">
        <ele>5.5999999046326</ele>
        <time>2019-04-02T08:32:33.000Z</time>
      </trkpt>
      <trkpt lat="47.24195" lon="-1.54531">
        <ele>5.5999999046326</ele>
        <time>2019-04-02T08:32:34.000Z</time>
      </trkpt>
      <trkpt lat="47.24195" lon="-1.54529">
        <ele>5.5999999046326</ele>
        <time>2019-04-02T08:32:35.000Z</time>
      </trkpt>
      <trkpt lat="47.24195" lon="-1.54527">
        <ele>5.8000001907349</ele>
        <time>2019-04-02T08:32:36.000Z</time>
      </trkpt>
      <trkpt lat="47.24195" lon="-1.54525">
        <ele>5.8000001907349</ele>
        <time>2019-04-02T08:32:37.000Z</time>
      </trkpt>
      <trkpt lat="47.24194" lon="-1.54521">
        <ele>6</ele>
        <time>2019-04-02T08:32:38.000Z</time>
      </trkpt>
      <trkpt lat="47.24194" lon="-1.54521">
        <ele>6</ele>
        <time>2019-04-02T08:32:39.000Z</time>
      </trkpt>
      <trkpt lat="47.24194" lon="-1.54519">
        <ele>6.1999998092651</ele>
        <time>2019-04-02T08:32:40.000Z</time>
      </trkpt>
      <trkpt lat="47.24193" lon="-1.54516">
        <ele>6.4000000953674</ele>
        <time>2019-04-02T08:32:41.000Z</time>
      </trkpt>
      <trkpt lat="47.24192" lon="-1.54514">
        <ele>6.4000000953674</ele>
        <time>2019-04-02T08:32:42.000Z</time>
      </trkpt>
      <trkpt lat="47.24192" lon="-1.54512">
        <ele>6.5999999046326</ele>
        <time>2019-04-02T08:32:43.000Z</time>
      </trkpt>
      <trkpt lat="47.24191" lon="-1.54509">
        <ele>6.8000001907349</ele>
        <time>2019-04-02T08:32:44.000Z</time>
      </trkpt>
      <trkpt lat="47.24191" lon="-1.54507">
        <ele>6.8000001907349</ele>
        <time>2019-04-02T08:32:45.000Z</time>
      </trkpt>
      <trkpt lat="47.24191" lon="-1.54505">
        <ele>7</ele>
        <time>2019-04-02T08:32:46.000Z</time>
      </trkpt>
      <trkpt lat="47.24191" lon="-1.54503">
        <ele>7</ele>
        <time>2019-04-02T08:32:47.000Z</time>
      </trkpt>
      <trkpt lat="47.24191" lon="-1.54501">
        <ele>7.1999998092651</ele>
        <time>2019-04-02T08:32:48.000Z</time>
      </trkpt>
      <trkpt lat="47.24191" lon="-1.54499">
        <ele>7.1999998092651</ele>
        <time>2019-04-02T08:32:49.000Z</time>
      </trkpt>
      <trkpt lat="47.24192" lon="-1.54498">
        <ele>7.1999998092651</ele>
        <time>2019-04-02T08:32:50.000Z</time>
      </trkpt>
      <trkpt lat="47.24192" lon="-1.54496">
        <ele>7.4000000953674</ele>
        <time>2019-04-02T08:32:51.000Z</time>
      </trkpt>
      <trkpt lat="47.24193" lon="-1.54494">
        <ele>7.4000000953674</ele>
        <time>2019-04-02T08:32:52.000Z</time>
      </trkpt>
      <trkpt lat="47.24193" lon="-1.54492">
        <ele>7.5999999046326</ele>
        <time>2019-04-02T08:32:53.000Z</time>
      </trkpt>
      <trkpt lat="47.24194" lon="-1.5449">
        <ele>7.5999999046326</ele>
        <time>2019-04-02T08:32:54.000Z</time>
      </trkpt>
      <trkpt lat="47.24195" lon="-1.54488">
        <ele>7.5999999046326</ele>
        <time>2019-04-02T08:32:55.000Z</time>
      </trkpt>
      <trkpt lat="47.24196" lon="-1.54486">
        <ele>7.8000001907349</ele>
        <time>2019-04-02T08:32:56.000Z</time>
      </trkpt>
      <trkpt lat="47.24196" lon="-1.54484">
        <ele>7.8000001907349</ele>
        <time>2019-04-02T08:32:57.000Z</time>
      </trkpt>
      <trkpt lat="47.24197" lon="-1.54482">
        <ele>7.8000001907349</ele>
        <time>2019-04-02T08:32:58.000Z</time>
      </trkpt>
      <trkpt lat="47.24198" lon="-1.54481">
        <ele>7.8000001907349</ele>
        <time>2019-04-02T08:32:59.000Z</time>
      </trkpt>
      <trkpt lat="47.24199" lon="-1.54479">
        <ele>7.8000001907349</ele>
        <time>2019-04-02T08:33:00.000Z</time>
      </trkpt>
      <trkpt lat="47.242" lon="-1.54477">
        <ele>7.8000001907349</ele>
        <time>2019-04-02T08:33:01.000Z</time>
      </trkpt>
      <trkpt lat="47.24201" lon="-1.54476">
        <ele>7.8000001907349</ele>
        <time>2019-04-02T08:33:02.000Z</time>
      </trkpt>
      <trkpt lat="47.24201" lon="-1.54474">
        <ele>7.8000001907349</ele>
        <time>2019-04-02T08:33:03.000Z</time>
      </trkpt>
      <trkpt lat="47.24202" lon="-1.54472">
        <ele>7.8000001907349</ele>
        <time>2019-04-02T08:33:04.000Z</time>
      </trkpt>
      <trkpt lat="47.24203" lon="-1.5447">
        <ele>7.8000001907349</ele>
        <time>2019-04-02T08:33:05.000Z</time>
      </trkpt>
      <trkpt lat="47.24203" lon="-1.54468">
        <ele>7.8000001907349</ele>
        <time>2019-04-02T08:33:06.000Z</time>
      </trkpt>
      <trkpt lat="47.24204" lon="-1.54467">
        <ele>7.8000001907349</ele>
        <time>2019-04-02T08:33:07.000Z</time>
      </trkpt>
      <trkpt lat="47.24205" lon="-1.54465">
        <ele>7.5999999046326</ele>
        <time>2019-04-02T08:33:08.000Z</time>
      </trkpt>
      <trkpt lat="47.24206" lon="-1.54463">
        <ele>7.5999999046326</ele>
        <time>2019-04-02T08:33:09.000Z</time>
      </trkpt>
      <trkpt lat="47.24207" lon="-1.54461">
        <ele>7.5999999046326</ele>
        <time>2019-04-02T08:33:10.000Z</time>
      </trkpt>
      <trkpt lat="47.24208" lon="-1.5446">
        <ele>7.5999999046326</ele>
        <time>2019-04-02T08:33:11.000Z</time>
      </trkpt>
      <trkpt lat="47.2421" lon="-1.54458">
        <ele>7.5999999046326</ele>
        <time>2019-04-02T08:33:12.000Z</time>
      </trkpt>
      <trkpt lat="47.24211" lon="-1.54457">
        <ele>7.5999999046326</ele>
        <time>2019-04-02T08:33:13.000Z</time>
      </trkpt>
      <trkpt lat="47.24212" lon="-1.54455">
        <ele>7.5999999046326</ele>
        <time>2019-04-02T08:33:14.000Z</time>
      </trkpt>
      <trkpt lat="47.24213" lon="-1.54453">
        <ele>7.5999999046326</ele>
        <time>2019-04-02T08:33:15.000Z</time>
      </trkpt>
      <trkpt lat="47.24214" lon="-1.54451">
        <ele>7.5999999046326</ele>
        <time>2019-04-02T08:33:16.000Z</time>
      </trkpt>
      <trkpt lat="47.24215" lon="-1.5445">
        <ele>7.5999999046326</ele>
        <time>2019-04-02T08:33:17.000Z</time>
      </trkpt>
      <trkpt lat="47.24216" lon="-1.54446">
        <ele>7.5999999046326</ele>
        <time>2019-04-02T08:33:18.000Z</time>
      </trkpt>
      <trkpt lat="47.24216" lon="-1.54446">
        <ele>7.5999999046326</ele>
        <time>2019-04-02T08:33:19.000Z</time>
      </trkpt>
      <trkpt lat="47.24217" lon="-1.54445">
        <ele>7.5999999046326</ele>
        <time>2019-04-02T08:33:20.000Z</time>
      </trkpt>
      <trkpt lat="47.24218" lon="-1.54443">
        <ele>7.4000000953674</ele>
        <time>2019-04-02T08:33:21.000Z</time>
      </trkpt>
      <trkpt lat="47.24219" lon="-1.54441">
        <ele>7.4000000953674</ele>
        <time>2019-04-02T08:33:22.000Z</time>
      </trkpt>
      <trkpt lat="47.24219" lon="-1.54439">
        <ele>7.4000000953674</ele>
        <time>2019-04-02T08:33:23.000Z</time>
      </trkpt>
      <trkpt lat="47.2422" lon="-1.54437">
        <ele>7.4000000953674</ele>
        <time>2019-04-02T08:33:24.000Z</time>
      </trkpt>
      <trkpt lat="47.24221" lon="-1.54435">
        <ele>7.4000000953674</ele>
        <time>2019-04-02T08:33:25.000Z</time>
      </trkpt>
      <trkpt lat="47.24221" lon="-1.54433">
        <ele>7.4000000953674</ele>
        <time>2019-04-02T08:33:26.000Z</time>
      </trkpt>
      <trkpt lat="47.24222" lon="-1.54431">
        <ele>7.5999999046326</ele>
        <time>2019-04-02T08:33:27.000Z</time>
      </trkpt>
      <trkpt lat="47.24222" lon="-1.54429">
        <ele>7.5999999046326</ele>
        <time>2019-04-02T08:33:28.000Z</time>
      </trkpt>
      <trkpt lat="47.24222" lon="-1.54427">
        <ele>7.5999999046326</ele>
        <time>2019-04-02T08:33:29.000Z</time>
      </trkpt>
      <trkpt lat="47.24222" lon="-1.54424">
        <ele>7.5999999046326</ele>
        <time>2019-04-02T08:33:30.000Z</time>
      </trkpt>
      <trkpt lat="47.24223" lon="-1.54422">
        <ele>7.5999999046326</ele>
        <time>2019-04-02T08:33:31.000Z</time>
      </trkpt>
      <trkpt lat="47.24223" lon="-1.5442">
        <ele>7.5999999046326</ele>
        <time>2019-04-02T08:33:32.000Z</time>
      </trkpt>
      <trkpt lat="47.24224" lon="-1.54419">
        <ele>7.5999999046326</ele>
        <time>2019-04-02T08:33:33.000Z</time>
      </trkpt>
      <trkpt lat="47.24224" lon="-1.54417">
        <ele>7.5999999046326</ele>
        <time>2019-04-02T08:33:34.000Z</time>
      </trkpt>
      <trkpt lat="47.24224" lon="-1.54415">
        <ele>7.5999999046326</ele>
        <time>2019-04-02T08:33:35.000Z</time>
      </trkpt>
      <trkpt lat="47.24225" lon="-1.54413">
        <ele>7.8000001907349</ele>
        <time>2019-04-02T08:33:36.000Z</time>
      </trkpt>
      <trkpt lat="47.24225" lon="-1.54411">
        <ele>7.8000001907349</ele>
        <time>2019-04-02T08:33:37.000Z</time>
      </trkpt>
      <trkpt lat="47.24226" lon="-1.54408">
        <ele>7.8000001907349</ele>
        <time>2019-04-02T08:33:38.000Z</time>
      </trkpt>
      <trkpt lat="47.24226" lon="-1.54406">
        <ele>7.8000001907349</ele>
        <time>2019-04-02T08:33:39.000Z</time>
      </trkpt>
      <trkpt lat="47.24226" lon="-1.54404">
        <ele>7.8000001907349</ele>
        <time>2019-04-02T08:33:40.000Z</time>
      </trkpt>
      <trkpt lat="47.24227" lon="-1.54402">
        <ele>7.8000001907349</ele>
        <time>2019-04-02T08:33:41.000Z</time>
      </trkpt>
      <trkpt lat="47.24229" lon="-1.54399">
        <ele>7.8000001907349</ele>
        <time>2019-04-02T08:33:42.000Z</time>
      </trkpt>
      <trkpt lat="47.24229" lon="-1.54399">
        <ele>7.8000001907349</ele>
        <time>2019-04-02T08:33:43.000Z</time>
      </trkpt>
      <trkpt lat="47.24229" lon="-1.54397">
        <ele>8</ele>
        <time>2019-04-02T08:33:44.000Z</time>
      </trkpt>
      <trkpt lat="47.24229" lon="-1.54395">
        <ele>8</ele>
        <time>2019-04-02T08:33:45.000Z</time>
      </trkpt>
      <trkpt lat="47.2423" lon="-1.54393">
        <ele>8</ele>
        <time>2019-04-02T08:33:46.000Z</time>
      </trkpt>
      <trkpt lat="47.24231" lon="-1.54391">
        <ele>8</ele>
        <time>2019-04-02T08:33:47.000Z</time>
      </trkpt>
      <trkpt lat="47.24232" lon="-1.54387">
        <ele>8.1999998092651</ele>
        <time>2019-04-02T08:33:48.000Z</time>
      </trkpt>
      <trkpt lat="47.24232" lon="-1.54387">
        <ele>8.1999998092651</ele>
        <time>2019-04-02T08:33:49.000Z</time>
      </trkpt>
      <trkpt lat="47.24233" lon="-1.54385">
        <ele>8.1999998092651</ele>
        <time>2019-04-02T08:33:50.000Z</time>
      </trkpt>
      <trkpt lat="47.24233" lon="-1.54383">
        <ele>8.1999998092651</ele>
        <time>2019-04-02T08:33:51.000Z</time>
      </trkpt>
      <trkpt lat="47.24234" lon="-1.54381">
        <ele>8.1999998092651</ele>
        <time>2019-04-02T08:33:52.000Z</time>
      </trkpt>
      <trkpt lat="47.24234" lon="-1.54379">
        <ele>8.3999996185303</ele>
        <time>2019-04-02T08:33:53.000Z</time>
      </trkpt>
      <trkpt lat="47.24234" lon="-1.54376">
        <ele>8.3999996185303</ele>
        <time>2019-04-02T08:33:54.000Z</time>
      </trkpt>
      <trkpt lat="47.24235" lon="-1.54372">
        <ele>8.6000003814697</ele>
        <time>2019-04-02T08:33:55.000Z</time>
      </trkpt>
      <trkpt lat="47.24235" lon="-1.54372">
        <ele>8.6000003814697</ele>
        <time>2019-04-02T08:33:56.000Z</time>
      </trkpt>
      <trkpt lat="47.24235" lon="-1.5437">
        <ele>8.6000003814697</ele>
        <time>2019-04-02T08:33:57.000Z</time>
      </trkpt>
      <trkpt lat="47.24236" lon="-1.54368">
        <ele>8.6000003814697</ele>
        <time>2019-04-02T08:33:58.000Z</time>
      </trkpt>
      <trkpt lat="47.24237" lon="-1.54367">
        <ele>8.6000003814697</ele>
        <time>2019-04-02T08:33:59.000Z</time>
      </trkpt>
      <trkpt lat="47.24237" lon="-1.54365">
        <ele>8.6000003814697</ele>
        <time>2019-04-02T08:34:00.000Z</time>
      </trkpt>
      <trkpt lat="47.24238" lon="-1.54363">
        <ele>8.8000001907349</ele>
        <time>2019-04-02T08:34:01.000Z</time>
      </trkpt>
      <trkpt lat="47.24239" lon="-1.54361">
        <ele>8.8000001907349</ele>
        <time>2019-04-02T08:34:02.000Z</time>
      </trkpt>
      <trkpt lat="47.24239" lon="-1.54359">
        <ele>8.8000001907349</ele>
        <time>2019-04-02T08:34:03.000Z</time>
      </trkpt>
      <trkpt lat="47.2424" lon="-1.54356">
        <ele>8.8000001907349</ele>
        <time>2019-04-02T08:34:04.000Z</time>
      </trkpt>
      <trkpt lat="47.24241" lon="-1.54354">
        <ele>9</ele>
        <time>2019-04-02T08:34:05.000Z</time>
      </trkpt>
      <trkpt lat="47.24241" lon="-1.54352">
        <ele>9</ele>
        <time>2019-04-02T08:34:06.000Z</time>
      </trkpt>
      <trkpt lat="47.24242" lon="-1.5435">
        <ele>9</ele>
        <time>2019-04-02T08:34:07.000Z</time>
      </trkpt>
      <trkpt lat="47.24243" lon="-1.54349">
        <ele>9</ele>
        <time>2019-04-02T08:34:08.000Z</time>
      </trkpt>
      <trkpt lat="47.24244" lon="-1.54345">
        <ele>9</ele>
        <time>2019-04-02T08:34:09.000Z</time>
      </trkpt>
      <trkpt lat="47.24244" lon="-1.54345">
        <ele>9</ele>
        <time>2019-04-02T08:34:10.000Z</time>
      </trkpt>
      <trkpt lat="47.24245" lon="-1.54344">
        <ele>9</ele>
        <time>2019-04-02T08:34:11.000Z</time>
      </trkpt>
      <trkpt lat="47.24246" lon="-1.54342">
        <ele>9.1999998092651</ele>
        <time>2019-04-02T08:34:12.000Z</time>
      </trkpt>
      <trkpt lat="47.24246" lon="-1.54341">
        <ele>9.1999998092651</ele>
        <time>2019-04-02T08:34:13.000Z</time>
      </trkpt>
      <trkpt lat="47.24247" lon="-1.5434">
        <ele>9.1999998092651</ele>
        <time>2019-04-02T08:34:14.000Z</time>
      </trkpt>
      <trkpt lat="47.24247" lon="-1.54338">
        <ele>9.1999998092651</ele>
        <time>2019-04-02T08:34:15.000Z</time>
      </trkpt>
      <trkpt lat="47.24248" lon="-1.54337">
        <ele>9.3999996185303</ele>
        <time>2019-04-02T08:34:16.000Z</time>
      </trkpt>
      <trkpt lat="47.24249" lon="-1.54336">
        <ele>9.3999996185303</ele>
        <time>2019-04-02T08:34:17.000Z</time>
      </trkpt>
      <trkpt lat="47.24251" lon="-1.54334">
        <ele>9.6000003814697</ele>
        <time>2019-04-02T08:34:18.000Z</time>
      </trkpt>
      <trkpt lat="47.24251" lon="-1.54334">
        <ele>9.6000003814697</ele>
        <time>2019-04-02T08:34:19.000Z</time>
      </trkpt>
      <trkpt lat="47.24252" lon="-1.54333">
        <ele>9.6000003814697</ele>
        <time>2019-04-02T08:34:20.000Z</time>
      </trkpt>
      <trkpt lat="47.24254" lon="-1.54332">
        <ele>9.6000003814697</ele>
        <time>2019-04-02T08:34:21.000Z</time>
      </trkpt>
      <trkpt lat="47.24255" lon="-1.54331">
        <ele>9.8000001907349</ele>
        <time>2019-04-02T08:34:22.000Z</time>
      </trkpt>
      <trkpt lat="47.24256" lon="-1.54331">
        <ele>9.8000001907349</ele>
        <time>2019-04-02T08:34:23.000Z</time>
      </trkpt>
      <trkpt lat="47.24257" lon="-1.5433">
        <ele>9.8000001907349</ele>
        <time>2019-04-02T08:34:24.000Z</time>
      </trkpt>
      <trkpt lat="47.24257" lon="-1.5433">
        <ele>9.8000001907349</ele>
        <time>2019-04-02T08:34:25.000Z</time>
      </trkpt>
      <trkpt lat="47.24258" lon="-1.54329">
        <ele>9.8000001907349</ele>
        <time>2019-04-02T08:34:26.000Z</time>
      </trkpt>
      <trkpt lat="47.2426" lon="-1.54328">
        <ele>10</ele>
        <time>2019-04-02T08:34:27.000Z</time>
      </trkpt>
      <trkpt lat="47.24261" lon="-1.54327">
        <ele>10</ele>
        <time>2019-04-02T08:34:28.000Z</time>
      </trkpt>
      <trkpt lat="47.24262" lon="-1.54326">
        <ele>10</ele>
        <time>2019-04-02T08:34:29.000Z</time>
      </trkpt>
      <trkpt lat="47.24263" lon="-1.54325">
        <ele>10.199999809265</ele>
        <time>2019-04-02T08:34:30.000Z</time>
      </trkpt>
      <trkpt lat="47.24265" lon="-1.54325">
        <ele>10.199999809265</ele>
        <time>2019-04-02T08:34:31.000Z</time>
      </trkpt>
      <trkpt lat="47.24266" lon="-1.54324">
        <ele>10.199999809265</ele>
        <time>2019-04-02T08:34:32.000Z</time>
      </trkpt>
      <trkpt lat="47.24268" lon="-1.54324">
        <ele>10.39999961853</ele>
        <time>2019-04-02T08:34:33.000Z</time>
      </trkpt>
      <trkpt lat="47.24269" lon="-1.54323">
        <ele>10.39999961853</ele>
        <time>2019-04-02T08:34:34.000Z</time>
      </trkpt>
      <trkpt lat="47.2427" lon="-1.54322">
        <ele>10.39999961853</ele>
        <time>2019-04-02T08:34:35.000Z</time>
      </trkpt>
      <trkpt lat="47.24271" lon="-1.54321">
        <ele>10.39999961853</ele>
        <time>2019-04-02T08:34:36.000Z</time>
      </trkpt>
      <trkpt lat="47.24272" lon="-1.54321">
        <ele>10.60000038147</ele>
        <time>2019-04-02T08:34:37.000Z</time>
      </trkpt>
      <trkpt lat="47.24274" lon="-1.5432">
        <ele>10.60000038147</ele>
        <time>2019-04-02T08:34:38.000Z</time>
      </trkpt>
      <trkpt lat="47.24274" lon="-1.5432">
        <ele>10.60000038147</ele>
        <time>2019-04-02T08:34:39.000Z</time>
      </trkpt>
      <trkpt lat="47.24275" lon="-1.5432">
        <ele>10.60000038147</ele>
        <time>2019-04-02T08:34:40.000Z</time>
      </trkpt>
      <trkpt lat="47.24277" lon="-1.54319">
        <ele>10.60000038147</ele>
        <time>2019-04-02T08:34:41.000Z</time>
      </trkpt>
      <trkpt lat="47.24277" lon="-1.54319">
        <ele>10.60000038147</ele>
        <time>2019-04-02T08:34:42.000Z</time>
      </trkpt>
      <trkpt lat="47.24278" lon="-1.54318">
        <ele>10.800000190735</ele>
        <time>2019-04-02T08:34:43.000Z</time>
      </trkpt>
      <trkpt lat="47.24278" lon="-1.54318">
        <ele>10.800000190735</ele>
        <time>2019-04-02T08:34:44.000Z</time>
      </trkpt>
      <trkpt lat="47.24279" lon="-1.54317">
        <ele>10.800000190735</ele>
        <time>2019-04-02T08:34:45.000Z</time>
      </trkpt>
      <trkpt lat="47.2428" lon="-1.54317">
        <ele>10.800000190735</ele>
        <time>2019-04-02T08:34:46.000Z</time>
      </trkpt>
      <trkpt lat="47.24282" lon="-1.54317">
        <ele>10.800000190735</ele>
        <time>2019-04-02T08:34:47.000Z</time>
      </trkpt>
      <trkpt lat="47.24283" lon="-1.54318">
        <ele>10.800000190735</ele>
        <time>2019-04-02T08:34:48.000Z</time>
      </trkpt>
      <trkpt lat="47.24285" lon="-1.54319">
        <ele>10.800000190735</ele>
        <time>2019-04-02T08:34:49.000Z</time>
      </trkpt>
      <trkpt lat="47.24285" lon="-1.54319">
        <ele>10.800000190735</ele>
        <time>2019-04-02T08:34:50.000Z</time>
      </trkpt>
      <trkpt lat="47.24286" lon="-1.54319">
        <ele>11</ele>
        <time>2019-04-02T08:34:51.000Z</time>
      </trkpt>
      <trkpt lat="47.24287" lon="-1.5432">
        <ele>11</ele>
        <time>2019-04-02T08:34:52.000Z</time>
      </trkpt>
      <trkpt lat="47.24288" lon="-1.5432">
        <ele>11</ele>
        <time>2019-04-02T08:34:53.000Z</time>
      </trkpt>
      <trkpt lat="47.2429" lon="-1.54321">
        <ele>11</ele>
        <time>2019-04-02T08:34:54.000Z</time>
      </trkpt>
      <trkpt lat="47.24291" lon="-1.54321">
        <ele>11</ele>
        <time>2019-04-02T08:34:55.000Z</time>
      </trkpt>
      <trkpt lat="47.24292" lon="-1.54322">
        <ele>11</ele>
        <time>2019-04-02T08:34:56.000Z</time>
      </trkpt>
      <trkpt lat="47.24293" lon="-1.54322">
        <ele>11</ele>
        <time>2019-04-02T08:34:57.000Z</time>
      </trkpt>
      <trkpt lat="47.24294" lon="-1.54322">
        <ele>11</ele>
        <time>2019-04-02T08:34:58.000Z</time>
      </trkpt>
      <trkpt lat="47.24295" lon="-1.54323">
        <ele>11</ele>
        <time>2019-04-02T08:34:59.000Z</time>
      </trkpt>
      <trkpt lat="47.24296" lon="-1.54323">
        <ele>11</ele>
        <time>2019-04-02T08:35:00.000Z</time>
      </trkpt>
      <trkpt lat="47.24296" lon="-1.54324">
        <ele>11</ele>
        <time>2019-04-02T08:35:01.000Z</time>
      </trkpt>
      <trkpt lat="47.24298" lon="-1.54325">
        <ele>11</ele>
        <time>2019-04-02T08:35:02.000Z</time>
      </trkpt>
      <trkpt lat="47.24298" lon="-1.54325">
        <ele>11</ele>
        <time>2019-04-02T08:35:03.000Z</time>
      </trkpt>
      <trkpt lat="47.24298" lon="-1.54325">
        <ele>11</ele>
        <time>2019-04-02T08:35:04.000Z</time>
      </trkpt>
      <trkpt lat="47.24299" lon="-1.54326">
        <ele>11</ele>
        <time>2019-04-02T08:35:05.000Z</time>
      </trkpt>
      <trkpt lat="47.243" lon="-1.54326">
        <ele>11</ele>
        <time>2019-04-02T08:35:06.000Z</time>
      </trkpt>
      <trkpt lat="47.243" lon="-1.54327">
        <ele>11</ele>
        <time>2019-04-02T08:35:07.000Z</time>
      </trkpt>
      <trkpt lat="47.24301" lon="-1.54328">
        <ele>11</ele>
        <time>2019-04-02T08:35:08.000Z</time>
      </trkpt>
      <trkpt lat="47.24301" lon="-1.54329">
        <ele>11</ele>
        <time>2019-04-02T08:35:09.000Z</time>
      </trkpt>
      <trkpt lat="47.24302" lon="-1.54329">
        <ele>11</ele>
        <time>2019-04-02T08:35:10.000Z</time>
      </trkpt>
      <trkpt lat="47.24302" lon="-1.5433">
        <ele>11</ele>
        <time>2019-04-02T08:35:11.000Z</time>
      </trkpt>
      <trkpt lat="47.24303" lon="-1.5433">
        <ele>11</ele>
        <time>2019-04-02T08:35:12.000Z</time>
      </trkpt>
      <trkpt lat="47.24303" lon="-1.54329">
        <ele>11</ele>
        <time>2019-04-02T08:35:13.000Z</time>
      </trkpt>
      <trkpt lat="47.24304" lon="-1.54329">
        <ele>11</ele>
        <time>2019-04-02T08:35:14.000Z</time>
      </trkpt>
      <trkpt lat="47.24304" lon="-1.54329">
        <ele>11</ele>
        <time>2019-04-02T08:35:15.000Z</time>
      </trkpt>
      <trkpt lat="47.24304" lon="-1.54329">
        <ele>11</ele>
        <time>2019-04-02T08:35:16.000Z</time>
      </trkpt>
      <trkpt lat="47.24319" lon="-1.54343">
        <ele>11</ele>
        <time>2019-04-02T08:35:42.000Z</time>
      </trkpt>
      <trkpt lat="47.2432" lon="-1.54344">
        <ele>11</ele>
        <time>2019-04-02T08:35:43.000Z</time>
      </trkpt>
      <trkpt lat="47.24321" lon="-1.54344">
        <ele>11</ele>
        <time>2019-04-02T08:35:44.000Z</time>
      </trkpt>
      <trkpt lat="47.24323" lon="-1.54345">
        <ele>11</ele>
        <time>2019-04-02T08:35:45.000Z</time>
      </trkpt>
      <trkpt lat="47.24324" lon="-1.54346">
        <ele>11.199999809265</ele>
        <time>2019-04-02T08:35:46.000Z</time>
      </trkpt>
      <trkpt lat="47.24325" lon="-1.54348">
        <ele>11.199999809265</ele>
        <time>2019-04-02T08:35:47.000Z</time>
      </trkpt>
      <trkpt lat="47.24325" lon="-1.54349">
        <ele>11.199999809265</ele>
        <time>2019-04-02T08:35:48.000Z</time>
      </trkpt>
      <trkpt lat="47.24327" lon="-1.5435">
        <ele>11.199999809265</ele>
        <time>2019-04-02T08:35:49.000Z</time>
      </trkpt>
      <trkpt lat="47.24327" lon="-1.54351">
        <ele>11.199999809265</ele>
        <time>2019-04-02T08:35:50.000Z</time>
      </trkpt>
      <trkpt lat="47.24329" lon="-1.54354">
        <ele>11.199999809265</ele>
        <time>2019-04-02T08:35:51.000Z</time>
      </trkpt>
      <trkpt lat="47.24329" lon="-1.54354">
        <ele>11.199999809265</ele>
        <time>2019-04-02T08:35:52.000Z</time>
      </trkpt>
      <trkpt lat="47.2433" lon="-1.54355">
        <ele>11.199999809265</ele>
        <time>2019-04-02T08:35:53.000Z</time>
      </trkpt>
      <trkpt lat="47.24331" lon="-1.54357">
        <ele>11</ele>
        <time>2019-04-02T08:35:54.000Z</time>
      </trkpt>
      <trkpt lat="47.24333" lon="-1.54358">
        <ele>11</ele>
        <time>2019-04-02T08:35:55.000Z</time>
      </trkpt>
      <trkpt lat="47.24333" lon="-1.54359">
        <ele>11</ele>
        <time>2019-04-02T08:35:56.000Z</time>
      </trkpt>
      <trkpt lat="47.24335" lon="-1.54361">
        <ele>11</ele>
        <time>2019-04-02T08:35:57.000Z</time>
      </trkpt>
      <trkpt lat="47.24336" lon="-1.54362">
        <ele>11</ele>
        <time>2019-04-02T08:35:58.000Z</time>
      </trkpt>
      <trkpt lat="47.24337" lon="-1.54363">
        <ele>11</ele>
        <time>2019-04-02T08:35:59.000Z</time>
      </trkpt>
      <trkpt lat="47.24337" lon="-1.54364">
        <ele>11</ele>
        <time>2019-04-02T08:36:00.000Z</time>
      </trkpt>
      <trkpt lat="47.24338" lon="-1.54366">
        <ele>11</ele>
        <time>2019-04-02T08:36:01.000Z</time>
      </trkpt>
      <trkpt lat="47.2434" lon="-1.54368">
        <ele>11</ele>
        <time>2019-04-02T08:36:02.000Z</time>
      </trkpt>
      <trkpt lat="47.2434" lon="-1.54368">
        <ele>11</ele>
        <time>2019-04-02T08:36:03.000Z</time>
      </trkpt>
      <trkpt lat="47.24341" lon="-1.5437">
        <ele>10.800000190735</ele>
        <time>2019-04-02T08:36:04.000Z</time>
      </trkpt>
      <trkpt lat="47.24341" lon="-1.54371">
        <ele>10.800000190735</ele>
        <time>2019-04-02T08:36:05.000Z</time>
      </trkpt>
      <trkpt lat="47.24342" lon="-1.54372">
        <ele>10.800000190735</ele>
        <time>2019-04-02T08:36:06.000Z</time>
      </trkpt>
      <trkpt lat="47.24343" lon="-1.54372">
        <ele>10.800000190735</ele>
        <time>2019-04-02T08:36:07.000Z</time>
      </trkpt>
      <trkpt lat="47.24344" lon="-1.54371">
        <ele>10.800000190735</ele>
        <time>2019-04-02T08:36:08.000Z</time>
      </trkpt>
      <trkpt lat="47.24345" lon="-1.54371">
        <ele>10.800000190735</ele>
        <time>2019-04-02T08:36:09.000Z</time>
      </trkpt>
      <trkpt lat="47.24345" lon="-1.54371">
        <ele>11</ele>
        <time>2019-04-02T08:36:10.000Z</time>
      </trkpt>
      <trkpt lat="47.24347" lon="-1.5437">
        <ele>11</ele>
        <time>2019-04-02T08:36:11.000Z</time>
      </trkpt>
      <trkpt lat="47.24347" lon="-1.5437">
        <ele>11</ele>
        <time>2019-04-02T08:36:12.000Z</time>
      </trkpt>
      <trkpt lat="47.24348" lon="-1.5437">
        <ele>11</ele>
        <time>2019-04-02T08:36:13.000Z</time>
      </trkpt>
      <trkpt lat="47.24348" lon="-1.5437">
        <ele>11</ele>
        <time>2019-04-02T08:36:14.000Z</time>
      </trkpt>
      <trkpt lat="47.24349" lon="-1.5437">
        <ele>11</ele>
        <time>2019-04-02T08:36:15.000Z</time>
      </trkpt>
      <trkpt lat="47.24349" lon="-1.5437">
        <ele>11</ele>
        <time>2019-04-02T08:36:16.000Z</time>
      </trkpt>
      <trkpt lat="47.2435" lon="-1.5437">
        <ele>11</ele>
        <time>2019-04-02T08:36:17.000Z</time>
      </trkpt>
      <trkpt lat="47.2435" lon="-1.5437">
        <ele>11</ele>
        <time>2019-04-02T08:36:18.000Z</time>
      </trkpt>
      <trkpt lat="47.24351" lon="-1.54369">
        <ele>11</ele>
        <time>2019-04-02T08:36:19.000Z</time>
      </trkpt>
      <trkpt lat="47.24351" lon="-1.54369">
        <ele>11</ele>
        <time>2019-04-02T08:36:20.000Z</time>
      </trkpt>
      <trkpt lat="47.24352" lon="-1.54369">
        <ele>11</ele>
        <time>2019-04-02T08:36:21.000Z</time>
      </trkpt>
      <trkpt lat="47.24353" lon="-1.54368">
        <ele>11</ele>
        <time>2019-04-02T08:36:22.000Z</time>
      </trkpt>
      <trkpt lat="47.24356" lon="-1.54368">
        <ele>11.199999809265</ele>
        <time>2019-04-02T08:36:23.000Z</time>
      </trkpt>
      <trkpt lat="47.24356" lon="-1.54368">
        <ele>11.199999809265</ele>
        <time>2019-04-02T08:36:24.000Z</time>
      </trkpt>
      <trkpt lat="47.24357" lon="-1.54367">
        <ele>11.199999809265</ele>
        <time>2019-04-02T08:36:25.000Z</time>
      </trkpt>
      <trkpt lat="47.24358" lon="-1.54367">
        <ele>11.199999809265</ele>
        <time>2019-04-02T08:36:26.000Z</time>
      </trkpt>
      <trkpt lat="47.2436" lon="-1.54366">
        <ele>11.199999809265</ele>
        <time>2019-04-02T08:36:27.000Z</time>
      </trkpt>
      <trkpt lat="47.24361" lon="-1.54366">
        <ele>11.199999809265</ele>
        <time>2019-04-02T08:36:28.000Z</time>
      </trkpt>
      <trkpt lat="47.24362" lon="-1.54366">
        <ele>11.199999809265</ele>
        <time>2019-04-02T08:36:29.000Z</time>
      </trkpt>
      <trkpt lat="47.24364" lon="-1.54366">
        <ele>11.199999809265</ele>
        <time>2019-04-02T08:36:30.000Z</time>
      </trkpt>
      <trkpt lat="47.24365" lon="-1.54366">
        <ele>11.199999809265</ele>
        <time>2019-04-02T08:36:31.000Z</time>
      </trkpt>
      <trkpt lat="47.24366" lon="-1.54366">
        <ele>11.199999809265</ele>
        <time>2019-04-02T08:36:32.000Z</time>
      </trkpt>
      <trkpt lat="47.24368" lon="-1.54366">
        <ele>11</ele>
        <time>2019-04-02T08:36:33.000Z</time>
      </trkpt>
      <trkpt lat="47.24369" lon="-1.54366">
        <ele>11</ele>
        <time>2019-04-02T08:36:34.000Z</time>
      </trkpt>
      <trkpt lat="47.24371" lon="-1.54366">
        <ele>11</ele>
        <time>2019-04-02T08:36:35.000Z</time>
      </trkpt>
      <trkpt lat="47.24372" lon="-1.54366">
        <ele>11</ele>
        <time>2019-04-02T08:36:36.000Z</time>
      </trkpt>
      <trkpt lat="47.24373" lon="-1.54367">
        <ele>10.800000190735</ele>
        <time>2019-04-02T08:36:37.000Z</time>
      </trkpt>
      <trkpt lat="47.24376" lon="-1.54367">
        <ele>10.800000190735</ele>
        <time>2019-04-02T08:36:38.000Z</time>
      </trkpt>
      <trkpt lat="47.24376" lon="-1.54367">
        <ele>10.800000190735</ele>
        <time>2019-04-02T08:36:39.000Z</time>
      </trkpt>
      <trkpt lat="47.24377" lon="-1.54367">
        <ele>10.60000038147</ele>
        <time>2019-04-02T08:36:40.000Z</time>
      </trkpt>
      <trkpt lat="47.24378" lon="-1.54367">
        <ele>10.60000038147</ele>
        <time>2019-04-02T08:36:41.000Z</time>
      </trkpt>
      <trkpt lat="47.24379" lon="-1.54367">
        <ele>10.60000038147</ele>
        <time>2019-04-02T08:36:42.000Z</time>
      </trkpt>
      <trkpt lat="47.2438" lon="-1.54367">
        <ele>10.60000038147</ele>
        <time>2019-04-02T08:36:43.000Z</time>
      </trkpt>
      <trkpt lat="47.24381" lon="-1.54367">
        <ele>10.60000038147</ele>
        <time>2019-04-02T08:36:44.000Z</time>
      </trkpt>
      <trkpt lat="47.24383" lon="-1.54367">
        <ele>10.39999961853</ele>
        <time>2019-04-02T08:36:45.000Z</time>
      </trkpt>
      <trkpt lat="47.24383" lon="-1.54367">
        <ele>10.39999961853</ele>
        <time>2019-04-02T08:36:46.000Z</time>
      </trkpt>
      <trkpt lat="47.24385" lon="-1.54367">
        <ele>10.39999961853</ele>
        <time>2019-04-02T08:36:47.000Z</time>
      </trkpt>
      <trkpt lat="47.24386" lon="-1.54368">
        <ele>10.39999961853</ele>
        <time>2019-04-02T08:36:48.000Z</time>
      </trkpt>
      <trkpt lat="47.24387" lon="-1.54368">
        <ele>10.199999809265</ele>
        <time>2019-04-02T08:36:49.000Z</time>
      </trkpt>
      <trkpt lat="47.2439" lon="-1.54368">
        <ele>10.199999809265</ele>
        <time>2019-04-02T08:36:50.000Z</time>
      </trkpt>
      <trkpt lat="47.2439" lon="-1.54368">
        <ele>10.199999809265</ele>
        <time>2019-04-02T08:36:51.000Z</time>
      </trkpt>
      <trkpt lat="47.24392" lon="-1.54367">
        <ele>10.199999809265</ele>
        <time>2019-04-02T08:36:52.000Z</time>
      </trkpt>
      <trkpt lat="47.24393" lon="-1.54367">
        <ele>10.199999809265</ele>
        <time>2019-04-02T08:36:53.000Z</time>
      </trkpt>
      <trkpt lat="47.24394" lon="-1.54367">
        <ele>10.199999809265</ele>
        <time>2019-04-02T08:36:54.000Z</time>
      </trkpt>
      <trkpt lat="47.24395" lon="-1.54366">
        <ele>10.199999809265</ele>
        <time>2019-04-02T08:36:55.000Z</time>
      </trkpt>
      <trkpt lat="47.24396" lon="-1.54365">
        <ele>10.199999809265</ele>
        <time>2019-04-02T08:36:56.000Z</time>
      </trkpt>
      <trkpt lat="47.24397" lon="-1.54365">
        <ele>10.199999809265</ele>
        <time>2019-04-02T08:36:57.000Z</time>
      </trkpt>
      <trkpt lat="47.24398" lon="-1.54364">
        <ele>10.199999809265</ele>
        <time>2019-04-02T08:36:58.000Z</time>
      </trkpt>
      <trkpt lat="47.24399" lon="-1.54364">
        <ele>10.199999809265</ele>
        <time>2019-04-02T08:36:59.000Z</time>
      </trkpt>
      <trkpt lat="47.244" lon="-1.54364">
        <ele>10.199999809265</ele>
        <time>2019-04-02T08:37:00.000Z</time>
      </trkpt>
      <trkpt lat="47.24401" lon="-1.54363">
        <ele>10.199999809265</ele>
        <time>2019-04-02T08:37:01.000Z</time>
      </trkpt>
      <trkpt lat="47.24402" lon="-1.54362">
        <ele>10.199999809265</ele>
        <time>2019-04-02T08:37:02.000Z</time>
      </trkpt>
      <trkpt lat="47.24404" lon="-1.54362">
        <ele>10.199999809265</ele>
        <time>2019-04-02T08:37:03.000Z</time>
      </trkpt>
      <trkpt lat="47.24405" lon="-1.54361">
        <ele>10.199999809265</ele>
        <time>2019-04-02T08:37:04.000Z</time>
      </trkpt>
      <trkpt lat="47.24406" lon="-1.5436">
        <ele>10.199999809265</ele>
        <time>2019-04-02T08:37:05.000Z</time>
      </trkpt>
      <trkpt lat="47.24407" lon="-1.54359">
        <ele>10.199999809265</ele>
        <time>2019-04-02T08:37:06.000Z</time>
      </trkpt>
      <trkpt lat="47.24409" lon="-1.54358">
        <ele>10.199999809265</ele>
        <time>2019-04-02T08:37:07.000Z</time>
      </trkpt>
      <trkpt lat="47.2441" lon="-1.54357">
        <ele>10.199999809265</ele>
        <time>2019-04-02T08:37:08.000Z</time>
      </trkpt>
      <trkpt lat="47.24411" lon="-1.54356">
        <ele>10.199999809265</ele>
        <time>2019-04-02T08:37:09.000Z</time>
      </trkpt>
      <trkpt lat="47.24413" lon="-1.54354">
        <ele>10.39999961853</ele>
        <time>2019-04-02T08:37:10.000Z</time>
      </trkpt>
      <trkpt lat="47.24413" lon="-1.54354">
        <ele>10.39999961853</ele>
        <time>2019-04-02T08:37:11.000Z</time>
      </trkpt>
      <trkpt lat="47.24414" lon="-1.54353">
        <ele>10.39999961853</ele>
        <time>2019-04-02T08:37:12.000Z</time>
      </trkpt>
      <trkpt lat="47.24416" lon="-1.54352">
        <ele>10.39999961853</ele>
        <time>2019-04-02T08:37:13.000Z</time>
      </trkpt>
      <trkpt lat="47.24417" lon="-1.54351">
        <ele>10.39999961853</ele>
        <time>2019-04-02T08:37:14.000Z</time>
      </trkpt>
      <trkpt lat="47.24419" lon="-1.5435">
        <ele>10.60000038147</ele>
        <time>2019-04-02T08:37:15.000Z</time>
      </trkpt>
      <trkpt lat="47.2442" lon="-1.54349">
        <ele>10.60000038147</ele>
        <time>2019-04-02T08:37:16.000Z</time>
      </trkpt>
      <trkpt lat="47.24421" lon="-1.54348">
        <ele>10.60000038147</ele>
        <time>2019-04-02T08:37:17.000Z</time>
      </trkpt>
      <trkpt lat="47.24423" lon="-1.54347">
        <ele>10.60000038147</ele>
        <time>2019-04-02T08:37:18.000Z</time>
      </trkpt>
      <trkpt lat="47.24423" lon="-1.54347">
        <ele>10.60000038147</ele>
        <time>2019-04-02T08:37:19.000Z</time>
      </trkpt>
      <trkpt lat="47.24425" lon="-1.54347">
        <ele>10.60000038147</ele>
        <time>2019-04-02T08:37:20.000Z</time>
      </trkpt>
      <trkpt lat="47.24426" lon="-1.54347">
        <ele>10.60000038147</ele>
        <time>2019-04-02T08:37:21.000Z</time>
      </trkpt>
      <trkpt lat="47.24427" lon="-1.54346">
        <ele>10.60000038147</ele>
        <time>2019-04-02T08:37:22.000Z</time>
      </trkpt>
      <trkpt lat="47.24428" lon="-1.54346">
        <ele>10.60000038147</ele>
        <time>2019-04-02T08:37:23.000Z</time>
      </trkpt>
      <trkpt lat="47.24429" lon="-1.54346">
        <ele>10.60000038147</ele>
        <time>2019-04-02T08:37:24.000Z</time>
      </trkpt>
      <trkpt lat="47.2443" lon="-1.54345">
        <ele>10.60000038147</ele>
        <time>2019-04-02T08:37:25.000Z</time>
      </trkpt>
      <trkpt lat="47.24432" lon="-1.54345">
        <ele>10.60000038147</ele>
        <time>2019-04-02T08:37:26.000Z</time>
      </trkpt>
      <trkpt lat="47.24433" lon="-1.54344">
        <ele>10.60000038147</ele>
        <time>2019-04-02T08:37:27.000Z</time>
      </trkpt>
      <trkpt lat="47.24435" lon="-1.54344">
        <ele>10.60000038147</ele>
        <time>2019-04-02T08:37:28.000Z</time>
      </trkpt>
      <trkpt lat="47.24436" lon="-1.54343">
        <ele>10.60000038147</ele>
        <time>2019-04-02T08:37:29.000Z</time>
      </trkpt>
      <trkpt lat="47.24439" lon="-1.54342">
        <ele>10.60000038147</ele>
        <time>2019-04-02T08:37:30.000Z</time>
      </trkpt>
      <trkpt lat="47.24439" lon="-1.54342">
        <ele>10.60000038147</ele>
        <time>2019-04-02T08:37:31.000Z</time>
      </trkpt>
      <trkpt lat="47.2444" lon="-1.54342">
        <ele>10.60000038147</ele>
        <time>2019-04-02T08:37:32.000Z</time>
      </trkpt>
      <trkpt lat="47.24441" lon="-1.54342">
        <ele>10.60000038147</ele>
        <time>2019-04-02T08:37:33.000Z</time>
      </trkpt>
      <trkpt lat="47.24443" lon="-1.54341">
        <ele>10.60000038147</ele>
        <time>2019-04-02T08:37:34.000Z</time>
      </trkpt>
      <trkpt lat="47.24444" lon="-1.5434">
        <ele>10.60000038147</ele>
        <time>2019-04-02T08:37:35.000Z</time>
      </trkpt>
      <trkpt lat="47.24445" lon="-1.54339">
        <ele>10.60000038147</ele>
        <time>2019-04-02T08:37:36.000Z</time>
      </trkpt>
      <trkpt lat="47.24446" lon="-1.54338">
        <ele>10.60000038147</ele>
        <time>2019-04-02T08:37:37.000Z</time>
      </trkpt>
      <trkpt lat="47.24447" lon="-1.54337">
        <ele>10.800000190735</ele>
        <time>2019-04-02T08:37:38.000Z</time>
      </trkpt>
      <trkpt lat="47.24449" lon="-1.54336">
        <ele>10.800000190735</ele>
        <time>2019-04-02T08:37:39.000Z</time>
      </trkpt>
      <trkpt lat="47.2445" lon="-1.54336">
        <ele>10.800000190735</ele>
        <time>2019-04-02T08:37:40.000Z</time>
      </trkpt>
      <trkpt lat="47.24452" lon="-1.54335">
        <ele>10.800000190735</ele>
        <time>2019-04-02T08:37:41.000Z</time>
      </trkpt>
      <trkpt lat="47.24453" lon="-1.54333">
        <ele>10.800000190735</ele>
        <time>2019-04-02T08:37:42.000Z</time>
      </trkpt>
      <trkpt lat="47.24454" lon="-1.54332">
        <ele>11</ele>
        <time>2019-04-02T08:37:43.000Z</time>
      </trkpt>
      <trkpt lat="47.24455" lon="-1.54331">
        <ele>11</ele>
        <time>2019-04-02T08:37:44.000Z</time>
      </trkpt>
      <trkpt lat="47.24456" lon="-1.54329">
        <ele>11</ele>
        <time>2019-04-02T08:37:45.000Z</time>
      </trkpt>
      <trkpt lat="47.24457" lon="-1.54328">
        <ele>11.199999809265</ele>
        <time>2019-04-02T08:37:46.000Z</time>
      </trkpt>
      <trkpt lat="47.24458" lon="-1.54325">
        <ele>11.39999961853</ele>
        <time>2019-04-02T08:37:47.000Z</time>
      </trkpt>
      <trkpt lat="47.24458" lon="-1.54325">
        <ele>11.39999961853</ele>
        <time>2019-04-02T08:37:48.000Z</time>
      </trkpt>
      <trkpt lat="47.24459" lon="-1.54324">
        <ele>11.39999961853</ele>
        <time>2019-04-02T08:37:49.000Z</time>
      </trkpt>
      <trkpt lat="47.2446" lon="-1.54323">
        <ele>11.39999961853</ele>
        <time>2019-04-02T08:37:50.000Z</time>
      </trkpt>
      <trkpt lat="47.24461" lon="-1.54321">
        <ele>11.60000038147</ele>
        <time>2019-04-02T08:37:51.000Z</time>
      </trkpt>
      <trkpt lat="47.24462" lon="-1.54318">
        <ele>11.800000190735</ele>
        <time>2019-04-02T08:37:52.000Z</time>
      </trkpt>
      <trkpt lat="47.24462" lon="-1.54318">
        <ele>11.800000190735</ele>
        <time>2019-04-02T08:37:53.000Z</time>
      </trkpt>
      <trkpt lat="47.24463" lon="-1.54317">
        <ele>11.800000190735</ele>
        <time>2019-04-02T08:37:54.000Z</time>
      </trkpt>
      <trkpt lat="47.24463" lon="-1.54315">
        <ele>12</ele>
        <time>2019-04-02T08:37:55.000Z</time>
      </trkpt>
      <trkpt lat="47.24464" lon="-1.54314">
        <ele>12</ele>
        <time>2019-04-02T08:37:56.000Z</time>
      </trkpt>
      <trkpt lat="47.24464" lon="-1.54313">
        <ele>12</ele>
        <time>2019-04-02T08:37:57.000Z</time>
      </trkpt>
      <trkpt lat="47.24464" lon="-1.54311">
        <ele>12.199999809265</ele>
        <time>2019-04-02T08:37:58.000Z</time>
      </trkpt>
      <trkpt lat="47.24465" lon="-1.5431">
        <ele>12.199999809265</ele>
        <time>2019-04-02T08:37:59.000Z</time>
      </trkpt>
      <trkpt lat="47.24466" lon="-1.54309">
        <ele>12.199999809265</ele>
        <time>2019-04-02T08:38:00.000Z</time>
      </trkpt>
      <trkpt lat="47.24466" lon="-1.54308">
        <ele>12.199999809265</ele>
        <time>2019-04-02T08:38:01.000Z</time>
      </trkpt>
      <trkpt lat="47.24466" lon="-1.54306">
        <ele>12.39999961853</ele>
        <time>2019-04-02T08:38:02.000Z</time>
      </trkpt>
      <trkpt lat="47.24467" lon="-1.54305">
        <ele>12.39999961853</ele>
        <time>2019-04-02T08:38:03.000Z</time>
      </trkpt>
      <trkpt lat="47.24467" lon="-1.54304">
        <ele>12.39999961853</ele>
        <time>2019-04-02T08:38:04.000Z</time>
      </trkpt>
      <trkpt lat="47.24468" lon="-1.54303">
        <ele>12.60000038147</ele>
        <time>2019-04-02T08:38:05.000Z</time>
      </trkpt>
      <trkpt lat="47.24469" lon="-1.54301">
        <ele>12.60000038147</ele>
        <time>2019-04-02T08:38:06.000Z</time>
      </trkpt>
      <trkpt lat="47.24469" lon="-1.54299">
        <ele>12.800000190735</ele>
        <time>2019-04-02T08:38:07.000Z</time>
      </trkpt>
      <trkpt lat="47.2447" lon="-1.54298">
        <ele>12.800000190735</ele>
        <time>2019-04-02T08:38:08.000Z</time>
      </trkpt>
      <trkpt lat="47.24472" lon="-1.54294">
        <ele>13</ele>
        <time>2019-04-02T08:38:09.000Z</time>
      </trkpt>
      <trkpt lat="47.24472" lon="-1.54294">
        <ele>13</ele>
        <time>2019-04-02T08:38:10.000Z</time>
      </trkpt>
      <trkpt lat="47.24473" lon="-1.54293">
        <ele>13</ele>
        <time>2019-04-02T08:38:11.000Z</time>
      </trkpt>
      <trkpt lat="47.24474" lon="-1.54292">
        <ele>13</ele>
        <time>2019-04-02T08:38:12.000Z</time>
      </trkpt>
      <trkpt lat="47.24475" lon="-1.5429">
        <ele>13.199999809265</ele>
        <time>2019-04-02T08:38:13.000Z</time>
      </trkpt>
      <trkpt lat="47.24476" lon="-1.54289">
        <ele>13.199999809265</ele>
        <time>2019-04-02T08:38:14.000Z</time>
      </trkpt>
      <trkpt lat="47.24477" lon="-1.54288">
        <ele>13.199999809265</ele>
        <time>2019-04-02T08:38:15.000Z</time>
      </trkpt>
      <trkpt lat="47.24478" lon="-1.54287">
        <ele>13.199999809265</ele>
        <time>2019-04-02T08:38:16.000Z</time>
      </trkpt>
      <trkpt lat="47.24479" lon="-1.54286">
        <ele>13.199999809265</ele>
        <time>2019-04-02T08:38:17.000Z</time>
      </trkpt>
      <trkpt lat="47.2448" lon="-1.54285">
        <ele>13.199999809265</ele>
        <time>2019-04-02T08:38:18.000Z</time>
      </trkpt>
      <trkpt lat="47.24482" lon="-1.54284">
        <ele>13.39999961853</ele>
        <time>2019-04-02T08:38:19.000Z</time>
      </trkpt>
      <trkpt lat="47.24483" lon="-1.54283">
        <ele>13.39999961853</ele>
        <time>2019-04-02T08:38:20.000Z</time>
      </trkpt>
      <trkpt lat="47.24484" lon="-1.54282">
        <ele>13.39999961853</ele>
        <time>2019-04-02T08:38:21.000Z</time>
      </trkpt>
      <trkpt lat="47.24485" lon="-1.54281">
        <ele>13.39999961853</ele>
        <time>2019-04-02T08:38:22.000Z</time>
      </trkpt>
      <trkpt lat="47.24486" lon="-1.5428">
        <ele>13.39999961853</ele>
        <time>2019-04-02T08:38:23.000Z</time>
      </trkpt>
      <trkpt lat="47.24487" lon="-1.5428">
        <ele>13.39999961853</ele>
        <time>2019-04-02T08:38:24.000Z</time>
      </trkpt>
      <trkpt lat="47.2449" lon="-1.54278">
        <ele>13.39999961853</ele>
        <time>2019-04-02T08:38:25.000Z</time>
      </trkpt>
      <trkpt lat="47.2449" lon="-1.54278">
        <ele>13.39999961853</ele>
        <time>2019-04-02T08:38:26.000Z</time>
      </trkpt>
      <trkpt lat="47.24492" lon="-1.54277">
        <ele>13.60000038147</ele>
        <time>2019-04-02T08:38:27.000Z</time>
      </trkpt>
      <trkpt lat="47.24493" lon="-1.54276">
        <ele>13.60000038147</ele>
        <time>2019-04-02T08:38:28.000Z</time>
      </trkpt>
      <trkpt lat="47.24495" lon="-1.54276">
        <ele>13.60000038147</ele>
        <time>2019-04-02T08:38:29.000Z</time>
      </trkpt>
      <trkpt lat="47.24496" lon="-1.54275">
        <ele>13.60000038147</ele>
        <time>2019-04-02T08:38:30.000Z</time>
      </trkpt>
      <trkpt lat="47.24497" lon="-1.54274">
        <ele>13.39999961853</ele>
        <time>2019-04-02T08:38:31.000Z</time>
      </trkpt>
      <trkpt lat="47.24498" lon="-1.54274">
        <ele>13.39999961853</ele>
        <time>2019-04-02T08:38:32.000Z</time>
      </trkpt>
      <trkpt lat="47.24499" lon="-1.54273">
        <ele>13.39999961853</ele>
        <time>2019-04-02T08:38:33.000Z</time>
      </trkpt>
      <trkpt lat="47.24501" lon="-1.54272">
        <ele>13.39999961853</ele>
        <time>2019-04-02T08:38:34.000Z</time>
      </trkpt>
      <trkpt lat="47.24502" lon="-1.54271">
        <ele>13.39999961853</ele>
        <time>2019-04-02T08:38:35.000Z</time>
      </trkpt>
      <trkpt lat="47.24504" lon="-1.54271">
        <ele>13.39999961853</ele>
        <time>2019-04-02T08:38:36.000Z</time>
      </trkpt>
      <trkpt lat="47.24505" lon="-1.5427">
        <ele>13.199999809265</ele>
        <time>2019-04-02T08:38:37.000Z</time>
      </trkpt>
      <trkpt lat="47.24507" lon="-1.54269">
        <ele>13.199999809265</ele>
        <time>2019-04-02T08:38:38.000Z</time>
      </trkpt>
      <trkpt lat="47.24507" lon="-1.54269">
        <ele>13.199999809265</ele>
        <time>2019-04-02T08:38:39.000Z</time>
      </trkpt>
      <trkpt lat="47.24509" lon="-1.54268">
        <ele>13.199999809265</ele>
        <time>2019-04-02T08:38:40.000Z</time>
      </trkpt>
      <trkpt lat="47.2451" lon="-1.54268">
        <ele>13.199999809265</ele>
        <time>2019-04-02T08:38:41.000Z</time>
      </trkpt>
      <trkpt lat="47.24511" lon="-1.54267">
        <ele>13.199999809265</ele>
        <time>2019-04-02T08:38:42.000Z</time>
      </trkpt>
      <trkpt lat="47.24512" lon="-1.54266">
        <ele>13.199999809265</ele>
        <time>2019-04-02T08:38:43.000Z</time>
      </trkpt>
      <trkpt lat="47.24512" lon="-1.54264">
        <ele>13.199999809265</ele>
        <time>2019-04-02T08:38:44.000Z</time>
      </trkpt>
      <trkpt lat="47.24513" lon="-1.54263">
        <ele>13.199999809265</ele>
        <time>2019-04-02T08:38:45.000Z</time>
      </trkpt>
      <trkpt lat="47.24514" lon="-1.54262">
        <ele>13.199999809265</ele>
        <time>2019-04-02T08:38:46.000Z</time>
      </trkpt>
      <trkpt lat="47.24514" lon="-1.5426">
        <ele>13.39999961853</ele>
        <time>2019-04-02T08:38:47.000Z</time>
      </trkpt>
      <trkpt lat="47.24514" lon="-1.54256">
        <ele>13.60000038147</ele>
        <time>2019-04-02T08:38:48.000Z</time>
      </trkpt>
      <trkpt lat="47.24514" lon="-1.54256">
        <ele>13.60000038147</ele>
        <time>2019-04-02T08:38:49.000Z</time>
      </trkpt>
      <trkpt lat="47.24513" lon="-1.54254">
        <ele>13.800000190735</ele>
        <time>2019-04-02T08:38:50.000Z</time>
      </trkpt>
      <trkpt lat="47.24513" lon="-1.54252">
        <ele>14</ele>
        <time>2019-04-02T08:38:51.000Z</time>
      </trkpt>
      <trkpt lat="47.24512" lon="-1.5425">
        <ele>14</ele>
        <time>2019-04-02T08:38:52.000Z</time>
      </trkpt>
      <trkpt lat="47.24512" lon="-1.54248">
        <ele>14.199999809265</ele>
        <time>2019-04-02T08:38:53.000Z</time>
      </trkpt>
      <trkpt lat="47.24511" lon="-1.54246">
        <ele>14.39999961853</ele>
        <time>2019-04-02T08:38:54.000Z</time>
      </trkpt>
      <trkpt lat="47.24511" lon="-1.54243">
        <ele>14.60000038147</ele>
        <time>2019-04-02T08:38:55.000Z</time>
      </trkpt>
      <trkpt lat="47.24512" lon="-1.54241">
        <ele>14.60000038147</ele>
        <time>2019-04-02T08:38:56.000Z</time>
      </trkpt>
      <trkpt lat="47.24514" lon="-1.54239">
        <ele>14.60000038147</ele>
        <time>2019-04-02T08:38:57.000Z</time>
      </trkpt>
      <trkpt lat="47.24513" lon="-1.54237">
        <ele>14.800000190735</ele>
        <time>2019-04-02T08:38:58.000Z</time>
      </trkpt>
      <trkpt lat="47.24513" lon="-1.54235">
        <ele>15</ele>
        <time>2019-04-02T08:38:59.000Z</time>
      </trkpt>
      <trkpt lat="47.24513" lon="-1.54234">
        <ele>15</ele>
        <time>2019-04-02T08:39:00.000Z</time>
      </trkpt>
      <trkpt lat="47.24513" lon="-1.54232">
        <ele>15.199999809265</ele>
        <time>2019-04-02T08:39:01.000Z</time>
      </trkpt>
      <trkpt lat="47.24513" lon="-1.54228">
        <ele>15.39999961853</ele>
        <time>2019-04-02T08:39:02.000Z</time>
      </trkpt>
      <trkpt lat="47.24513" lon="-1.54228">
        <ele>15.39999961853</ele>
        <time>2019-04-02T08:39:03.000Z</time>
      </trkpt>
      <trkpt lat="47.24512" lon="-1.54227">
        <ele>15.60000038147</ele>
        <time>2019-04-02T08:39:04.000Z</time>
      </trkpt>
      <trkpt lat="47.24512" lon="-1.54226">
        <ele>15.60000038147</ele>
        <time>2019-04-02T08:39:05.000Z</time>
      </trkpt>
      <trkpt lat="47.24512" lon="-1.54224">
        <ele>15.800000190735</ele>
        <time>2019-04-02T08:39:06.000Z</time>
      </trkpt>
      <trkpt lat="47.24512" lon="-1.54223">
        <ele>15.800000190735</ele>
        <time>2019-04-02T08:39:07.000Z</time>
      </trkpt>
      <trkpt lat="47.24512" lon="-1.54222">
        <ele>15.800000190735</ele>
        <time>2019-04-02T08:39:08.000Z</time>
      </trkpt>
      <trkpt lat="47.24511" lon="-1.54221">
        <ele>16</ele>
        <time>2019-04-02T08:39:09.000Z</time>
      </trkpt>
      <trkpt lat="47.24511" lon="-1.5422">
        <ele>16.200000762939</ele>
        <time>2019-04-02T08:39:10.000Z</time>
      </trkpt>
      <trkpt lat="47.24512" lon="-1.54218">
        <ele>16.200000762939</ele>
        <time>2019-04-02T08:39:11.000Z</time>
      </trkpt>
      <trkpt lat="47.24512" lon="-1.54216">
        <ele>16.200000762939</ele>
        <time>2019-04-02T08:39:12.000Z</time>
      </trkpt>
      <trkpt lat="47.24511" lon="-1.54215">
        <ele>16.200000762939</ele>
        <time>2019-04-02T08:39:13.000Z</time>
      </trkpt>
      <trkpt lat="47.24511" lon="-1.54213">
        <ele>16.39999961853</ele>
        <time>2019-04-02T08:39:14.000Z</time>
      </trkpt>
      <trkpt lat="47.24511" lon="-1.54211">
        <ele>16.39999961853</ele>
        <time>2019-04-02T08:39:15.000Z</time>
      </trkpt>
      <trkpt lat="47.2451" lon="-1.54209">
        <ele>16.39999961853</ele>
        <time>2019-04-02T08:39:16.000Z</time>
      </trkpt>
      <trkpt lat="47.2451" lon="-1.54207">
        <ele>16.39999961853</ele>
        <time>2019-04-02T08:39:17.000Z</time>
      </trkpt>
      <trkpt lat="47.2451" lon="-1.54205">
        <ele>16.60000038147</ele>
        <time>2019-04-02T08:39:18.000Z</time>
      </trkpt>
      <trkpt lat="47.24509" lon="-1.54202">
        <ele>16.60000038147</ele>
        <time>2019-04-02T08:39:19.000Z</time>
      </trkpt>
      <trkpt lat="47.24509" lon="-1.54201">
        <ele>16.60000038147</ele>
        <time>2019-04-02T08:39:20.000Z</time>
      </trkpt>
      <trkpt lat="47.24508" lon="-1.54199">
        <ele>16.60000038147</ele>
        <time>2019-04-02T08:39:21.000Z</time>
      </trkpt>
      <trkpt lat="47.24508" lon="-1.54198">
        <ele>16.799999237061</ele>
        <time>2019-04-02T08:39:22.000Z</time>
      </trkpt>
      <trkpt lat="47.24508" lon="-1.54197">
        <ele>16.799999237061</ele>
        <time>2019-04-02T08:39:23.000Z</time>
      </trkpt>
      <trkpt lat="47.24507" lon="-1.54196">
        <ele>16.799999237061</ele>
        <time>2019-04-02T08:39:24.000Z</time>
      </trkpt>
      <trkpt lat="47.24507" lon="-1.54195">
        <ele>16.799999237061</ele>
        <time>2019-04-02T08:39:25.000Z</time>
      </trkpt>
      <trkpt lat="47.24507" lon="-1.54194">
        <ele>16.799999237061</ele>
        <time>2019-04-02T08:39:26.000Z</time>
      </trkpt>
      <trkpt lat="47.24506" lon="-1.54193">
        <ele>16.799999237061</ele>
        <time>2019-04-02T08:39:27.000Z</time>
      </trkpt>
      <trkpt lat="47.24506" lon="-1.54192">
        <ele>16.799999237061</ele>
        <time>2019-04-02T08:39:28.000Z</time>
      </trkpt>
      <trkpt lat="47.24506" lon="-1.54192">
        <ele>16.799999237061</ele>
        <time>2019-04-02T08:39:29.000Z</time>
      </trkpt>
      <trkpt lat="47.24506" lon="-1.54192">
        <ele>16.799999237061</ele>
        <time>2019-04-02T08:39:30.000Z</time>
      </trkpt>
      <trkpt lat="47.24505" lon="-1.54192">
        <ele>16.799999237061</ele>
        <time>2019-04-02T08:39:31.000Z</time>
      </trkpt>
      <trkpt lat="47.24514" lon="-1.54157">
        <ele>17.60000038147</ele>
        <time>2019-04-02T08:42:33.000Z</time>
      </trkpt>
      <trkpt lat="47.24515" lon="-1.54156">
        <ele>17.60000038147</ele>
        <time>2019-04-02T08:42:34.000Z</time>
      </trkpt>
      <trkpt lat="47.24516" lon="-1.54156">
        <ele>17.60000038147</ele>
        <time>2019-04-02T08:42:35.000Z</time>
      </trkpt>
      <trkpt lat="47.24517" lon="-1.54155">
        <ele>17.60000038147</ele>
        <time>2019-04-02T08:42:36.000Z</time>
      </trkpt>
      <trkpt lat="47.24518" lon="-1.54155">
        <ele>17.60000038147</ele>
        <time>2019-04-02T08:42:37.000Z</time>
      </trkpt>
      <trkpt lat="47.24519" lon="-1.54155">
        <ele>17.60000038147</ele>
        <time>2019-04-02T08:42:38.000Z</time>
      </trkpt>
      <trkpt lat="47.24521" lon="-1.54155">
        <ele>17.60000038147</ele>
        <time>2019-04-02T08:42:39.000Z</time>
      </trkpt>
      <trkpt lat="47.24522" lon="-1.54155">
        <ele>17.60000038147</ele>
        <time>2019-04-02T08:42:40.000Z</time>
      </trkpt>
      <trkpt lat="47.24523" lon="-1.54156">
        <ele>17.60000038147</ele>
        <time>2019-04-02T08:42:41.000Z</time>
      </trkpt>
      <trkpt lat="47.24524" lon="-1.54156">
        <ele>17.60000038147</ele>
        <time>2019-04-02T08:42:42.000Z</time>
      </trkpt>
      <trkpt lat="47.24525" lon="-1.54157">
        <ele>17.60000038147</ele>
        <time>2019-04-02T08:42:43.000Z</time>
      </trkpt>
      <trkpt lat="47.24526" lon="-1.54158">
        <ele>17.39999961853</ele>
        <time>2019-04-02T08:42:44.000Z</time>
      </trkpt>
      <trkpt lat="47.24527" lon="-1.54159">
        <ele>17.39999961853</ele>
        <time>2019-04-02T08:42:45.000Z</time>
      </trkpt>
      <trkpt lat="47.24527" lon="-1.54161">
        <ele>17.39999961853</ele>
        <time>2019-04-02T08:42:46.000Z</time>
      </trkpt>
      <trkpt lat="47.24528" lon="-1.54163">
        <ele>17.39999961853</ele>
        <time>2019-04-02T08:42:47.000Z</time>
      </trkpt>
      <trkpt lat="47.24529" lon="-1.54164">
        <ele>17.200000762939</ele>
        <time>2019-04-02T08:42:48.000Z</time>
      </trkpt>
      <trkpt lat="47.24529" lon="-1.54165">
        <ele>17.200000762939</ele>
        <time>2019-04-02T08:42:49.000Z</time>
      </trkpt>
      <trkpt lat="47.2453" lon="-1.54166">
        <ele>17.200000762939</ele>
        <time>2019-04-02T08:42:50.000Z</time>
      </trkpt>
      <trkpt lat="47.24531" lon="-1.54168">
        <ele>17.200000762939</ele>
        <time>2019-04-02T08:42:51.000Z</time>
      </trkpt>
      <trkpt lat="47.24532" lon="-1.54169">
        <ele>17.200000762939</ele>
        <time>2019-04-02T08:42:52.000Z</time>
      </trkpt>
      <trkpt lat="47.24533" lon="-1.5417">
        <ele>17</ele>
        <time>2019-04-02T08:42:53.000Z</time>
      </trkpt>
      <trkpt lat="47.24534" lon="-1.54172">
        <ele>17</ele>
        <time>2019-04-02T08:42:54.000Z</time>
      </trkpt>
      <trkpt lat="47.24534" lon="-1.54173">
        <ele>17</ele>
        <time>2019-04-02T08:42:55.000Z</time>
      </trkpt>
      <trkpt lat="47.24535" lon="-1.54175">
        <ele>17</ele>
        <time>2019-04-02T08:42:56.000Z</time>
      </trkpt>
      <trkpt lat="47.24536" lon="-1.54176">
        <ele>17</ele>
        <time>2019-04-02T08:42:57.000Z</time>
      </trkpt>
      <trkpt lat="47.24536" lon="-1.54177">
        <ele>16.799999237061</ele>
        <time>2019-04-02T08:42:58.000Z</time>
      </trkpt>
      <trkpt lat="47.24537" lon="-1.54179">
        <ele>16.799999237061</ele>
        <time>2019-04-02T08:42:59.000Z</time>
      </trkpt>
      <trkpt lat="47.24537" lon="-1.54181">
        <ele>16.799999237061</ele>
        <time>2019-04-02T08:43:00.000Z</time>
      </trkpt>
      <trkpt lat="47.24537" lon="-1.54183">
        <ele>16.799999237061</ele>
        <time>2019-04-02T08:43:01.000Z</time>
      </trkpt>
      <trkpt lat="47.24537" lon="-1.54185">
        <ele>16.60000038147</ele>
        <time>2019-04-02T08:43:02.000Z</time>
      </trkpt>
      <trkpt lat="47.24538" lon="-1.54187">
        <ele>16.60000038147</ele>
        <time>2019-04-02T08:43:03.000Z</time>
      </trkpt>
      <trkpt lat="47.24538" lon="-1.54189">
        <ele>16.60000038147</ele>
        <time>2019-04-02T08:43:04.000Z</time>
      </trkpt>
      <trkpt lat="47.24538" lon="-1.5419">
        <ele>16.60000038147</ele>
        <time>2019-04-02T08:43:05.000Z</time>
      </trkpt>
      <trkpt lat="47.24539" lon="-1.54194">
        <ele>16.200000762939</ele>
        <time>2019-04-02T08:43:06.000Z</time>
      </trkpt>
      <trkpt lat="47.24539" lon="-1.54194">
        <ele>16.200000762939</ele>
        <time>2019-04-02T08:43:07.000Z</time>
      </trkpt>
      <trkpt lat="47.2454" lon="-1.54196">
        <ele>16</ele>
        <time>2019-04-02T08:43:08.000Z</time>
      </trkpt>
      <trkpt lat="47.2454" lon="-1.54198">
        <ele>15.800000190735</ele>
        <time>2019-04-02T08:43:09.000Z</time>
      </trkpt>
      <trkpt lat="47.24541" lon="-1.54201">
        <ele>15.800000190735</ele>
        <time>2019-04-02T08:43:10.000Z</time>
      </trkpt>
      <trkpt lat="47.24541" lon="-1.54203">
        <ele>15.60000038147</ele>
        <time>2019-04-02T08:43:11.000Z</time>
      </trkpt>
      <trkpt lat="47.24541" lon="-1.54205">
        <ele>15.39999961853</ele>
        <time>2019-04-02T08:43:12.000Z</time>
      </trkpt>
      <trkpt lat="47.24542" lon="-1.54207">
        <ele>15.199999809265</ele>
        <time>2019-04-02T08:43:13.000Z</time>
      </trkpt>
      <trkpt lat="47.24542" lon="-1.54209">
        <ele>15</ele>
        <time>2019-04-02T08:43:14.000Z</time>
      </trkpt>
      <trkpt lat="47.24543" lon="-1.54211">
        <ele>14.800000190735</ele>
        <time>2019-04-02T08:43:15.000Z</time>
      </trkpt>
      <trkpt lat="47.24544" lon="-1.54213">
        <ele>14.60000038147</ele>
        <time>2019-04-02T08:43:16.000Z</time>
      </trkpt>
      <trkpt lat="47.24545" lon="-1.54214">
        <ele>14.39999961853</ele>
        <time>2019-04-02T08:43:17.000Z</time>
      </trkpt>
      <trkpt lat="47.24545" lon="-1.54216">
        <ele>14.39999961853</ele>
        <time>2019-04-02T08:43:18.000Z</time>
      </trkpt>
      <trkpt lat="47.24546" lon="-1.54218">
        <ele>14.199999809265</ele>
        <time>2019-04-02T08:43:19.000Z</time>
      </trkpt>
      <trkpt lat="47.24547" lon="-1.54219">
        <ele>14</ele>
        <time>2019-04-02T08:43:20.000Z</time>
      </trkpt>
      <trkpt lat="47.24548" lon="-1.54221">
        <ele>13.800000190735</ele>
        <time>2019-04-02T08:43:21.000Z</time>
      </trkpt>
      <trkpt lat="47.24548" lon="-1.54223">
        <ele>13.60000038147</ele>
        <time>2019-04-02T08:43:22.000Z</time>
      </trkpt>
      <trkpt lat="47.24549" lon="-1.54224">
        <ele>13.60000038147</ele>
        <time>2019-04-02T08:43:23.000Z</time>
      </trkpt>
      <trkpt lat="47.2455" lon="-1.54225">
        <ele>13.39999961853</ele>
        <time>2019-04-02T08:43:24.000Z</time>
      </trkpt>
      <trkpt lat="47.2455" lon="-1.54226">
        <ele>13.199999809265</ele>
        <time>2019-04-02T08:43:25.000Z</time>
      </trkpt>
      <trkpt lat="47.2455" lon="-1.54227">
        <ele>13.199999809265</ele>
        <time>2019-04-02T08:43:26.000Z</time>
      </trkpt>
      <trkpt lat="47.24551" lon="-1.54229">
        <ele>13</ele>
        <time>2019-04-02T08:43:27.000Z</time>
      </trkpt>
      <trkpt lat="47.24552" lon="-1.5423">
        <ele>13</ele>
        <time>2019-04-02T08:43:28.000Z</time>
      </trkpt>
      <trkpt lat="47.24553" lon="-1.54232">
        <ele>12.800000190735</ele>
        <time>2019-04-02T08:43:29.000Z</time>
      </trkpt>
      <trkpt lat="47.24553" lon="-1.54234">
        <ele>12.60000038147</ele>
        <time>2019-04-02T08:43:30.000Z</time>
      </trkpt>
      <trkpt lat="47.24554" lon="-1.54236">
        <ele>12.39999961853</ele>
        <time>2019-04-02T08:43:31.000Z</time>
      </trkpt>
      <trkpt lat="47.24555" lon="-1.54239">
        <ele>12.199999809265</ele>
        <time>2019-04-02T08:43:32.000Z</time>
      </trkpt>
      <trkpt lat="47.24556" lon="-1.54241">
        <ele>12</ele>
        <time>2019-04-02T08:43:33.000Z</time>
      </trkpt>
      <trkpt lat="47.24556" lon="-1.54244">
        <ele>11.800000190735</ele>
        <time>2019-04-02T08:43:34.000Z</time>
      </trkpt>
      <trkpt lat="47.24556" lon="-1.54247">
        <ele>11.60000038147</ele>
        <time>2019-04-02T08:43:35.000Z</time>
      </trkpt>
      <trkpt lat="47.24557" lon="-1.5425">
        <ele>11.39999961853</ele>
        <time>2019-04-02T08:43:36.000Z</time>
      </trkpt>
      <trkpt lat="47.24557" lon="-1.54252">
        <ele>11.199999809265</ele>
        <time>2019-04-02T08:43:37.000Z</time>
      </trkpt>
      <trkpt lat="47.24558" lon="-1.54256">
        <ele>11</ele>
        <time>2019-04-02T08:43:38.000Z</time>
      </trkpt>
      <trkpt lat="47.24558" lon="-1.54256">
        <ele>11</ele>
        <time>2019-04-02T08:43:39.000Z</time>
      </trkpt>
      <trkpt lat="47.24558" lon="-1.54259">
        <ele>10.800000190735</ele>
        <time>2019-04-02T08:43:40.000Z</time>
      </trkpt>
      <trkpt lat="47.24558" lon="-1.54261">
        <ele>10.800000190735</ele>
        <time>2019-04-02T08:43:41.000Z</time>
      </trkpt>
      <trkpt lat="47.24559" lon="-1.54263">
        <ele>10.60000038147</ele>
        <time>2019-04-02T08:43:42.000Z</time>
      </trkpt>
      <trkpt lat="47.24559" lon="-1.54264">
        <ele>10.60000038147</ele>
        <time>2019-04-02T08:43:43.000Z</time>
      </trkpt>
      <trkpt lat="47.2456" lon="-1.54266">
        <ele>10.39999961853</ele>
        <time>2019-04-02T08:43:44.000Z</time>
      </trkpt>
      <trkpt lat="47.24561" lon="-1.54268">
        <ele>10.199999809265</ele>
        <time>2019-04-02T08:43:45.000Z</time>
      </trkpt>
      <trkpt lat="47.24562" lon="-1.54271">
        <ele>10</ele>
        <time>2019-04-02T08:43:46.000Z</time>
      </trkpt>
      <trkpt lat="47.24562" lon="-1.54271">
        <ele>10</ele>
        <time>2019-04-02T08:43:47.000Z</time>
      </trkpt>
      <trkpt lat="47.24563" lon="-1.54273">
        <ele>10</ele>
        <time>2019-04-02T08:43:48.000Z</time>
      </trkpt>
      <trkpt lat="47.24563" lon="-1.54275">
        <ele>9.8000001907349</ele>
        <time>2019-04-02T08:43:49.000Z</time>
      </trkpt>
      <trkpt lat="47.24564" lon="-1.54278">
        <ele>9.6000003814697</ele>
        <time>2019-04-02T08:43:50.000Z</time>
      </trkpt>
      <trkpt lat="47.24564" lon="-1.54278">
        <ele>9.6000003814697</ele>
        <time>2019-04-02T08:43:51.000Z</time>
      </trkpt>
      <trkpt lat="47.24565" lon="-1.5428">
        <ele>9.3999996185303</ele>
        <time>2019-04-02T08:43:52.000Z</time>
      </trkpt>
      <trkpt lat="47.24565" lon="-1.54282">
        <ele>9.3999996185303</ele>
        <time>2019-04-02T08:43:53.000Z</time>
      </trkpt>
      <trkpt lat="47.24566" lon="-1.54284">
        <ele>9.1999998092651</ele>
        <time>2019-04-02T08:43:54.000Z</time>
      </trkpt>
      <trkpt lat="47.24567" lon="-1.54286">
        <ele>9.1999998092651</ele>
        <time>2019-04-02T08:43:55.000Z</time>
      </trkpt>
      <trkpt lat="47.24567" lon="-1.54287">
        <ele>9</ele>
        <time>2019-04-02T08:43:56.000Z</time>
      </trkpt>
      <trkpt lat="47.24568" lon="-1.54288">
        <ele>9</ele>
        <time>2019-04-02T08:43:57.000Z</time>
      </trkpt>
      <trkpt lat="47.24568" lon="-1.5429">
        <ele>8.8000001907349</ele>
        <time>2019-04-02T08:43:58.000Z</time>
      </trkpt>
      <trkpt lat="47.24569" lon="-1.54292">
        <ele>8.8000001907349</ele>
        <time>2019-04-02T08:43:59.000Z</time>
      </trkpt>
      <trkpt lat="47.2457" lon="-1.54293">
        <ele>8.6000003814697</ele>
        <time>2019-04-02T08:44:00.000Z</time>
      </trkpt>
      <trkpt lat="47.2457" lon="-1.54295">
        <ele>8.3999996185303</ele>
        <time>2019-04-02T08:44:01.000Z</time>
      </trkpt>
      <trkpt lat="47.24572" lon="-1.54298">
        <ele>8.1999998092651</ele>
        <time>2019-04-02T08:44:02.000Z</time>
      </trkpt>
      <trkpt lat="47.24572" lon="-1.54298">
        <ele>8.1999998092651</ele>
        <time>2019-04-02T08:44:03.000Z</time>
      </trkpt>
      <trkpt lat="47.24573" lon="-1.543">
        <ele>8.1999998092651</ele>
        <time>2019-04-02T08:44:04.000Z</time>
      </trkpt>
      <trkpt lat="47.24575" lon="-1.54303">
        <ele>7.8000001907349</ele>
        <time>2019-04-02T08:44:05.000Z</time>
      </trkpt>
      <trkpt lat="47.24575" lon="-1.54303">
        <ele>7.8000001907349</ele>
        <time>2019-04-02T08:44:06.000Z</time>
      </trkpt>
      <trkpt lat="47.24576" lon="-1.54305">
        <ele>7.8000001907349</ele>
        <time>2019-04-02T08:44:07.000Z</time>
      </trkpt>
      <trkpt lat="47.24577" lon="-1.54307">
        <ele>7.5999999046326</ele>
        <time>2019-04-02T08:44:08.000Z</time>
      </trkpt>
      <trkpt lat="47.24578" lon="-1.54308">
        <ele>7.4000000953674</ele>
        <time>2019-04-02T08:44:09.000Z</time>
      </trkpt>
      <trkpt lat="47.24579" lon="-1.54309">
        <ele>7.4000000953674</ele>
        <time>2019-04-02T08:44:10.000Z</time>
      </trkpt>
      <trkpt lat="47.2458" lon="-1.5431">
        <ele>7.4000000953674</ele>
        <time>2019-04-02T08:44:11.000Z</time>
      </trkpt>
      <trkpt lat="47.24582" lon="-1.54311">
        <ele>7.1999998092651</ele>
        <time>2019-04-02T08:44:12.000Z</time>
      </trkpt>
      <trkpt lat="47.24582" lon="-1.54311">
        <ele>7.1999998092651</ele>
        <time>2019-04-02T08:44:13.000Z</time>
      </trkpt>
      <trkpt lat="47.24584" lon="-1.54311">
        <ele>7.1999998092651</ele>
        <time>2019-04-02T08:44:14.000Z</time>
      </trkpt>
      <trkpt lat="47.24585" lon="-1.5431">
        <ele>7.1999998092651</ele>
        <time>2019-04-02T08:44:15.000Z</time>
      </trkpt>
      <trkpt lat="47.24587" lon="-1.5431">
        <ele>7.1999998092651</ele>
        <time>2019-04-02T08:44:16.000Z</time>
      </trkpt>
      <trkpt lat="47.24587" lon="-1.54309">
        <ele>7.1999998092651</ele>
        <time>2019-04-02T08:44:17.000Z</time>
      </trkpt>
      <trkpt lat="47.24588" lon="-1.54309">
        <ele>7.1999998092651</ele>
        <time>2019-04-02T08:44:18.000Z</time>
      </trkpt>
      <trkpt lat="47.24589" lon="-1.54308">
        <ele>7.1999998092651</ele>
        <time>2019-04-02T08:44:19.000Z</time>
      </trkpt>
      <trkpt lat="47.2459" lon="-1.54307">
        <ele>7.1999998092651</ele>
        <time>2019-04-02T08:44:20.000Z</time>
      </trkpt>
      <trkpt lat="47.24591" lon="-1.54306">
        <ele>7.1999998092651</ele>
        <time>2019-04-02T08:44:21.000Z</time>
      </trkpt>
      <trkpt lat="47.24593" lon="-1.54305">
        <ele>7.4000000953674</ele>
        <time>2019-04-02T08:44:22.000Z</time>
      </trkpt>
      <trkpt lat="47.24594" lon="-1.54304">
        <ele>7.4000000953674</ele>
        <time>2019-04-02T08:44:23.000Z</time>
      </trkpt>
      <trkpt lat="47.24595" lon="-1.54303">
        <ele>7.4000000953674</ele>
        <time>2019-04-02T08:44:24.000Z</time>
      </trkpt>
      <trkpt lat="47.24596" lon="-1.54303">
        <ele>7.4000000953674</ele>
        <time>2019-04-02T08:44:25.000Z</time>
      </trkpt>
      <trkpt lat="47.24597" lon="-1.54301">
        <ele>7.4000000953674</ele>
        <time>2019-04-02T08:44:26.000Z</time>
      </trkpt>
      <trkpt lat="47.24598" lon="-1.543">
        <ele>7.4000000953674</ele>
        <time>2019-04-02T08:44:27.000Z</time>
      </trkpt>
      <trkpt lat="47.24599" lon="-1.54298">
        <ele>7.4000000953674</ele>
        <time>2019-04-02T08:44:28.000Z</time>
      </trkpt>
      <trkpt lat="47.246" lon="-1.54297">
        <ele>7.4000000953674</ele>
        <time>2019-04-02T08:44:29.000Z</time>
      </trkpt>
      <trkpt lat="47.24601" lon="-1.54296">
        <ele>7.5999999046326</ele>
        <time>2019-04-02T08:44:30.000Z</time>
      </trkpt>
      <trkpt lat="47.24602" lon="-1.54294">
        <ele>7.5999999046326</ele>
        <time>2019-04-02T08:44:31.000Z</time>
      </trkpt>
      <trkpt lat="47.24603" lon="-1.54293">
        <ele>7.5999999046326</ele>
        <time>2019-04-02T08:44:32.000Z</time>
      </trkpt>
      <trkpt lat="47.24605" lon="-1.54292">
        <ele>7.5999999046326</ele>
        <time>2019-04-02T08:44:33.000Z</time>
      </trkpt>
      <trkpt lat="47.24606" lon="-1.54291">
        <ele>7.5999999046326</ele>
        <time>2019-04-02T08:44:34.000Z</time>
      </trkpt>
      <trkpt lat="47.24607" lon="-1.54289">
        <ele>7.5999999046326</ele>
        <time>2019-04-02T08:44:35.000Z</time>
      </trkpt>
      <trkpt lat="47.24608" lon="-1.54288">
        <ele>7.8000001907349</ele>
        <time>2019-04-02T08:44:36.000Z</time>
      </trkpt>
      <trkpt lat="47.24609" lon="-1.54287">
        <ele>7.8000001907349</ele>
        <time>2019-04-02T08:44:37.000Z</time>
      </trkpt>
      <trkpt lat="47.2461" lon="-1.54285">
        <ele>7.8000001907349</ele>
        <time>2019-04-02T08:44:38.000Z</time>
      </trkpt>
      <trkpt lat="47.2461" lon="-1.54284">
        <ele>7.8000001907349</ele>
        <time>2019-04-02T08:44:39.000Z</time>
      </trkpt>
      <trkpt lat="47.24613" lon="-1.54281">
        <ele>8</ele>
        <time>2019-04-02T08:44:40.000Z</time>
      </trkpt>
      <trkpt lat="47.24613" lon="-1.54281">
        <ele>8</ele>
        <time>2019-04-02T08:44:41.000Z</time>
      </trkpt>
      <trkpt lat="47.24614" lon="-1.5428">
        <ele>8</ele>
        <time>2019-04-02T08:44:42.000Z</time>
      </trkpt>
      <trkpt lat="47.24616" lon="-1.54279">
        <ele>8</ele>
        <time>2019-04-02T08:44:43.000Z</time>
      </trkpt>
      <trkpt lat="47.24617" lon="-1.54277">
        <ele>8</ele>
        <time>2019-04-02T08:44:44.000Z</time>
      </trkpt>
      <trkpt lat="47.24618" lon="-1.54276">
        <ele>8</ele>
        <time>2019-04-02T08:44:45.000Z</time>
      </trkpt>
      <trkpt lat="47.24619" lon="-1.54274">
        <ele>8.1999998092651</ele>
        <time>2019-04-02T08:44:46.000Z</time>
      </trkpt>
      <trkpt lat="47.2462" lon="-1.54272">
        <ele>8.1999998092651</ele>
        <time>2019-04-02T08:44:47.000Z</time>
      </trkpt>
      <trkpt lat="47.24621" lon="-1.54271">
        <ele>8.1999998092651</ele>
        <time>2019-04-02T08:44:48.000Z</time>
      </trkpt>
      <trkpt lat="47.24622" lon="-1.54269">
        <ele>8.1999998092651</ele>
        <time>2019-04-02T08:44:49.000Z</time>
      </trkpt>
      <trkpt lat="47.24623" lon="-1.54268">
        <ele>8.3999996185303</ele>
        <time>2019-04-02T08:44:50.000Z</time>
      </trkpt>
      <trkpt lat="47.24624" lon="-1.54267">
        <ele>8.3999996185303</ele>
        <time>2019-04-02T08:44:51.000Z</time>
      </trkpt>
      <trkpt lat="47.24626" lon="-1.54265">
        <ele>8.3999996185303</ele>
        <time>2019-04-02T08:44:52.000Z</time>
      </trkpt>
      <trkpt lat="47.24627" lon="-1.54264">
        <ele>8.3999996185303</ele>
        <time>2019-04-02T08:44:53.000Z</time>
      </trkpt>
      <trkpt lat="47.24628" lon="-1.54262">
        <ele>8.3999996185303</ele>
        <time>2019-04-02T08:44:54.000Z</time>
      </trkpt>
      <trkpt lat="47.24629" lon="-1.54261">
        <ele>8.6000003814697</ele>
        <time>2019-04-02T08:44:55.000Z</time>
      </trkpt>
      <trkpt lat="47.24629" lon="-1.5426">
        <ele>8.6000003814697</ele>
        <time>2019-04-02T08:44:56.000Z</time>
      </trkpt>
      <trkpt lat="47.2463" lon="-1.54258">
        <ele>8.6000003814697</ele>
        <time>2019-04-02T08:44:57.000Z</time>
      </trkpt>
      <trkpt lat="47.24631" lon="-1.54257">
        <ele>8.6000003814697</ele>
        <time>2019-04-02T08:44:58.000Z</time>
      </trkpt>
      <trkpt lat="47.24632" lon="-1.54255">
        <ele>8.8000001907349</ele>
        <time>2019-04-02T08:44:59.000Z</time>
      </trkpt>
      <trkpt lat="47.24633" lon="-1.54254">
        <ele>8.8000001907349</ele>
        <time>2019-04-02T08:45:00.000Z</time>
      </trkpt>
      <trkpt lat="47.24634" lon="-1.54252">
        <ele>8.8000001907349</ele>
        <time>2019-04-02T08:45:01.000Z</time>
      </trkpt>
      <trkpt lat="47.24637" lon="-1.5425">
        <ele>8.8000001907349</ele>
        <time>2019-04-02T08:45:02.000Z</time>
      </trkpt>
      <trkpt lat="47.24637" lon="-1.5425">
        <ele>8.8000001907349</ele>
        <time>2019-04-02T08:45:03.000Z</time>
      </trkpt>
      <trkpt lat="47.24638" lon="-1.54248">
        <ele>9</ele>
        <time>2019-04-02T08:45:04.000Z</time>
      </trkpt>
      <trkpt lat="47.24639" lon="-1.54247">
        <ele>9</ele>
        <time>2019-04-02T08:45:05.000Z</time>
      </trkpt>
      <trkpt lat="47.24641" lon="-1.54246">
        <ele>9</ele>
        <time>2019-04-02T08:45:06.000Z</time>
      </trkpt>
      <trkpt lat="47.24642" lon="-1.54245">
        <ele>9</ele>
        <time>2019-04-02T08:45:07.000Z</time>
      </trkpt>
      <trkpt lat="47.24643" lon="-1.54244">
        <ele>9</ele>
        <time>2019-04-02T08:45:08.000Z</time>
      </trkpt>
      <trkpt lat="47.24645" lon="-1.54243">
        <ele>9</ele>
        <time>2019-04-02T08:45:09.000Z</time>
      </trkpt>
      <trkpt lat="47.24646" lon="-1.54243">
        <ele>9</ele>
        <time>2019-04-02T08:45:10.000Z</time>
      </trkpt>
      <trkpt lat="47.24647" lon="-1.54242">
        <ele>9</ele>
        <time>2019-04-02T08:45:11.000Z</time>
      </trkpt>
      <trkpt lat="47.24649" lon="-1.54241">
        <ele>9</ele>
        <time>2019-04-02T08:45:12.000Z</time>
      </trkpt>
      <trkpt lat="47.2465" lon="-1.54241">
        <ele>9</ele>
        <time>2019-04-02T08:45:13.000Z</time>
      </trkpt>
      <trkpt lat="47.24652" lon="-1.5424">
        <ele>9</ele>
        <time>2019-04-02T08:45:14.000Z</time>
      </trkpt>
      <trkpt lat="47.24653" lon="-1.5424">
        <ele>9</ele>
        <time>2019-04-02T08:45:15.000Z</time>
      </trkpt>
      <trkpt lat="47.24654" lon="-1.54239">
        <ele>9</ele>
        <time>2019-04-02T08:45:16.000Z</time>
      </trkpt>
      <trkpt lat="47.24656" lon="-1.54239">
        <ele>9</ele>
        <time>2019-04-02T08:45:17.000Z</time>
      </trkpt>
      <trkpt lat="47.24657" lon="-1.54239">
        <ele>8.8000001907349</ele>
        <time>2019-04-02T08:45:18.000Z</time>
      </trkpt>
      <trkpt lat="47.2466" lon="-1.54238">
        <ele>9</ele>
        <time>2019-04-02T08:45:19.000Z</time>
      </trkpt>
      <trkpt lat="47.2466" lon="-1.54238">
        <ele>9</ele>
        <time>2019-04-02T08:45:20.000Z</time>
      </trkpt>
      <trkpt lat="47.24661" lon="-1.54237">
        <ele>9</ele>
        <time>2019-04-02T08:45:21.000Z</time>
      </trkpt>
      <trkpt lat="47.24662" lon="-1.54237">
        <ele>9</ele>
        <time>2019-04-02T08:45:22.000Z</time>
      </trkpt>
      <trkpt lat="47.24663" lon="-1.54236">
        <ele>9</ele>
        <time>2019-04-02T08:45:23.000Z</time>
      </trkpt>
      <trkpt lat="47.24666" lon="-1.54235">
        <ele>9.1999998092651</ele>
        <time>2019-04-02T08:45:24.000Z</time>
      </trkpt>
      <trkpt lat="47.24666" lon="-1.54235">
        <ele>9.1999998092651</ele>
        <time>2019-04-02T08:45:25.000Z</time>
      </trkpt>
      <trkpt lat="47.24668" lon="-1.54235">
        <ele>9.1999998092651</ele>
        <time>2019-04-02T08:45:26.000Z</time>
      </trkpt>
      <trkpt lat="47.24669" lon="-1.54234">
        <ele>9.1999998092651</ele>
        <time>2019-04-02T08:45:27.000Z</time>
      </trkpt>
      <trkpt lat="47.24671" lon="-1.54234">
        <ele>9.3999996185303</ele>
        <time>2019-04-02T08:45:28.000Z</time>
      </trkpt>
      <trkpt lat="47.24673" lon="-1.54233">
        <ele>9.3999996185303</ele>
        <time>2019-04-02T08:45:29.000Z</time>
      </trkpt>
      <trkpt lat="47.24674" lon="-1.54233">
        <ele>9.3999996185303</ele>
        <time>2019-04-02T08:45:30.000Z</time>
      </trkpt>
      <trkpt lat="47.24675" lon="-1.54233">
        <ele>9.3999996185303</ele>
        <time>2019-04-02T08:45:31.000Z</time>
      </trkpt>
      <trkpt lat="47.24676" lon="-1.54232">
        <ele>9.3999996185303</ele>
        <time>2019-04-02T08:45:32.000Z</time>
      </trkpt>
      <trkpt lat="47.24677" lon="-1.54232">
        <ele>9.3999996185303</ele>
        <time>2019-04-02T08:45:33.000Z</time>
      </trkpt>
      <trkpt lat="47.24679" lon="-1.54231">
        <ele>9.6000003814697</ele>
        <time>2019-04-02T08:45:34.000Z</time>
      </trkpt>
      <trkpt lat="47.24681" lon="-1.5423">
        <ele>9.6000003814697</ele>
        <time>2019-04-02T08:45:35.000Z</time>
      </trkpt>
      <trkpt lat="47.24681" lon="-1.5423">
        <ele>9.6000003814697</ele>
        <time>2019-04-02T08:45:36.000Z</time>
      </trkpt>
      <trkpt lat="47.24682" lon="-1.54229">
        <ele>9.6000003814697</ele>
        <time>2019-04-02T08:45:37.000Z</time>
      </trkpt>
      <trkpt lat="47.24685" lon="-1.54227">
        <ele>9.6000003814697</ele>
        <time>2019-04-02T08:45:38.000Z</time>
      </trkpt>
      <trkpt lat="47.24685" lon="-1.54227">
        <ele>9.6000003814697</ele>
        <time>2019-04-02T08:45:39.000Z</time>
      </trkpt>
      <trkpt lat="47.24686" lon="-1.54226">
        <ele>9.6000003814697</ele>
        <time>2019-04-02T08:45:40.000Z</time>
      </trkpt>
      <trkpt lat="47.24688" lon="-1.54225">
        <ele>9.8000001907349</ele>
        <time>2019-04-02T08:45:41.000Z</time>
      </trkpt>
      <trkpt lat="47.24689" lon="-1.54225">
        <ele>9.8000001907349</ele>
        <time>2019-04-02T08:45:42.000Z</time>
      </trkpt>
      <trkpt lat="47.2469" lon="-1.54224">
        <ele>9.8000001907349</ele>
        <time>2019-04-02T08:45:43.000Z</time>
      </trkpt>
      <trkpt lat="47.24692" lon="-1.54223">
        <ele>9.8000001907349</ele>
        <time>2019-04-02T08:45:44.000Z</time>
      </trkpt>
      <trkpt lat="47.24693" lon="-1.54223">
        <ele>9.8000001907349</ele>
        <time>2019-04-02T08:45:45.000Z</time>
      </trkpt>
      <trkpt lat="47.24695" lon="-1.54222">
        <ele>9.8000001907349</ele>
        <time>2019-04-02T08:45:46.000Z</time>
      </trkpt>
      <trkpt lat="47.24696" lon="-1.54221">
        <ele>9.8000001907349</ele>
        <time>2019-04-02T08:45:47.000Z</time>
      </trkpt>
      <trkpt lat="47.24697" lon="-1.5422">
        <ele>10</ele>
        <time>2019-04-02T08:45:48.000Z</time>
      </trkpt>
      <trkpt lat="47.24698" lon="-1.54219">
        <ele>10</ele>
        <time>2019-04-02T08:45:49.000Z</time>
      </trkpt>
      <trkpt lat="47.247" lon="-1.54218">
        <ele>10</ele>
        <time>2019-04-02T08:45:50.000Z</time>
      </trkpt>
      <trkpt lat="47.24701" lon="-1.54217">
        <ele>10</ele>
        <time>2019-04-02T08:45:51.000Z</time>
      </trkpt>
      <trkpt lat="47.24702" lon="-1.54216">
        <ele>10</ele>
        <time>2019-04-02T08:45:52.000Z</time>
      </trkpt>
      <trkpt lat="47.24704" lon="-1.54215">
        <ele>10</ele>
        <time>2019-04-02T08:45:53.000Z</time>
      </trkpt>
      <trkpt lat="47.24706" lon="-1.54214">
        <ele>10</ele>
        <time>2019-04-02T08:45:54.000Z</time>
      </trkpt>
      <trkpt lat="47.24707" lon="-1.54213">
        <ele>10.199999809265</ele>
        <time>2019-04-02T08:45:55.000Z</time>
      </trkpt>
      <trkpt lat="47.24709" lon="-1.54212">
        <ele>10.199999809265</ele>
        <time>2019-04-02T08:45:56.000Z</time>
      </trkpt>
      <trkpt lat="47.2471" lon="-1.54211">
        <ele>10.199999809265</ele>
        <time>2019-04-02T08:45:57.000Z</time>
      </trkpt>
      <trkpt lat="47.24711" lon="-1.5421">
        <ele>10.199999809265</ele>
        <time>2019-04-02T08:45:58.000Z</time>
      </trkpt>
      <trkpt lat="47.24712" lon="-1.54209">
        <ele>10.199999809265</ele>
        <time>2019-04-02T08:45:59.000Z</time>
      </trkpt>
      <trkpt lat="47.24713" lon="-1.54209">
        <ele>10.199999809265</ele>
        <time>2019-04-02T08:46:00.000Z</time>
      </trkpt>
      <trkpt lat="47.24714" lon="-1.54208">
        <ele>10.199999809265</ele>
        <time>2019-04-02T08:46:01.000Z</time>
      </trkpt>
      <trkpt lat="47.24716" lon="-1.54207">
        <ele>10.199999809265</ele>
        <time>2019-04-02T08:46:02.000Z</time>
      </trkpt>
      <trkpt lat="47.24716" lon="-1.54207">
        <ele>10.199999809265</ele>
        <time>2019-04-02T08:46:03.000Z</time>
      </trkpt>
      <trkpt lat="47.24718" lon="-1.54206">
        <ele>10.39999961853</ele>
        <time>2019-04-02T08:46:04.000Z</time>
      </trkpt>
      <trkpt lat="47.24719" lon="-1.54205">
        <ele>10.39999961853</ele>
        <time>2019-04-02T08:46:05.000Z</time>
      </trkpt>
      <trkpt lat="47.24721" lon="-1.54204">
        <ele>10.39999961853</ele>
        <time>2019-04-02T08:46:06.000Z</time>
      </trkpt>
      <trkpt lat="47.24722" lon="-1.54203">
        <ele>10.39999961853</ele>
        <time>2019-04-02T08:46:07.000Z</time>
      </trkpt>
      <trkpt lat="47.24724" lon="-1.54202">
        <ele>10.39999961853</ele>
        <time>2019-04-02T08:46:08.000Z</time>
      </trkpt>
      <trkpt lat="47.24725" lon="-1.54202">
        <ele>10.39999961853</ele>
        <time>2019-04-02T08:46:09.000Z</time>
      </trkpt>
      <trkpt lat="47.24727" lon="-1.54201">
        <ele>10.60000038147</ele>
        <time>2019-04-02T08:46:10.000Z</time>
      </trkpt>
      <trkpt lat="47.24728" lon="-1.542">
        <ele>10.60000038147</ele>
        <time>2019-04-02T08:46:11.000Z</time>
      </trkpt>
      <trkpt lat="47.24729" lon="-1.54199">
        <ele>10.60000038147</ele>
        <time>2019-04-02T08:46:12.000Z</time>
      </trkpt>
      <trkpt lat="47.24732" lon="-1.54197">
        <ele>10.60000038147</ele>
        <time>2019-04-02T08:46:13.000Z</time>
      </trkpt>
      <trkpt lat="47.24732" lon="-1.54197">
        <ele>10.60000038147</ele>
        <time>2019-04-02T08:46:14.000Z</time>
      </trkpt>
      <trkpt lat="47.24733" lon="-1.54197">
        <ele>10.60000038147</ele>
        <time>2019-04-02T08:46:15.000Z</time>
      </trkpt>
      <trkpt lat="47.24734" lon="-1.54196">
        <ele>10.60000038147</ele>
        <time>2019-04-02T08:46:16.000Z</time>
      </trkpt>
      <trkpt lat="47.24735" lon="-1.54195">
        <ele>10.60000038147</ele>
        <time>2019-04-02T08:46:17.000Z</time>
      </trkpt>
      <trkpt lat="47.24737" lon="-1.54194">
        <ele>10.800000190735</ele>
        <time>2019-04-02T08:46:18.000Z</time>
      </trkpt>
      <trkpt lat="47.24738" lon="-1.54193">
        <ele>10.800000190735</ele>
        <time>2019-04-02T08:46:19.000Z</time>
      </trkpt>
      <trkpt lat="47.2474" lon="-1.54193">
        <ele>10.800000190735</ele>
        <time>2019-04-02T08:46:20.000Z</time>
      </trkpt>
      <trkpt lat="47.24741" lon="-1.54192">
        <ele>10.800000190735</ele>
        <time>2019-04-02T08:46:21.000Z</time>
      </trkpt>
      <trkpt lat="47.24743" lon="-1.5419">
        <ele>10.800000190735</ele>
        <time>2019-04-02T08:46:22.000Z</time>
      </trkpt>
      <trkpt lat="47.24744" lon="-1.54189">
        <ele>10.800000190735</ele>
        <time>2019-04-02T08:46:23.000Z</time>
      </trkpt>
      <trkpt lat="47.24745" lon="-1.54188">
        <ele>10.800000190735</ele>
        <time>2019-04-02T08:46:24.000Z</time>
      </trkpt>
      <trkpt lat="47.24746" lon="-1.54187">
        <ele>10.800000190735</ele>
        <time>2019-04-02T08:46:25.000Z</time>
      </trkpt>
      <trkpt lat="47.24747" lon="-1.54185">
        <ele>10.800000190735</ele>
        <time>2019-04-02T08:46:26.000Z</time>
      </trkpt>
      <trkpt lat="47.24747" lon="-1.54184">
        <ele>10.60000038147</ele>
        <time>2019-04-02T08:46:27.000Z</time>
      </trkpt>
      <trkpt lat="47.24748" lon="-1.54183">
        <ele>10.60000038147</ele>
        <time>2019-04-02T08:46:28.000Z</time>
      </trkpt>
      <trkpt lat="47.24749" lon="-1.54181">
        <ele>10.39999961853</ele>
        <time>2019-04-02T08:46:29.000Z</time>
      </trkpt>
      <trkpt lat="47.2475" lon="-1.5418">
        <ele>10.39999961853</ele>
        <time>2019-04-02T08:46:30.000Z</time>
      </trkpt>
      <trkpt lat="47.24751" lon="-1.54179">
        <ele>10.199999809265</ele>
        <time>2019-04-02T08:46:31.000Z</time>
      </trkpt>
      <trkpt lat="47.24751" lon="-1.54177">
        <ele>10.199999809265</ele>
        <time>2019-04-02T08:46:32.000Z</time>
      </trkpt>
      <trkpt lat="47.24752" lon="-1.54176">
        <ele>10</ele>
        <time>2019-04-02T08:46:33.000Z</time>
      </trkpt>
      <trkpt lat="47.24753" lon="-1.54175">
        <ele>10</ele>
        <time>2019-04-02T08:46:34.000Z</time>
      </trkpt>
      <trkpt lat="47.24754" lon="-1.54174">
        <ele>9.8000001907349</ele>
        <time>2019-04-02T08:46:35.000Z</time>
      </trkpt>
      <trkpt lat="47.24755" lon="-1.54172">
        <ele>9.8000001907349</ele>
        <time>2019-04-02T08:46:36.000Z</time>
      </trkpt>
      <trkpt lat="47.24756" lon="-1.54171">
        <ele>9.6000003814697</ele>
        <time>2019-04-02T08:46:37.000Z</time>
      </trkpt>
      <trkpt lat="47.24756" lon="-1.54169">
        <ele>9.6000003814697</ele>
        <time>2019-04-02T08:46:38.000Z</time>
      </trkpt>
      <trkpt lat="47.24757" lon="-1.54168">
        <ele>9.3999996185303</ele>
        <time>2019-04-02T08:46:39.000Z</time>
      </trkpt>
      <trkpt lat="47.24758" lon="-1.54166">
        <ele>9.3999996185303</ele>
        <time>2019-04-02T08:46:40.000Z</time>
      </trkpt>
      <trkpt lat="47.24758" lon="-1.54165">
        <ele>9.1999998092651</ele>
        <time>2019-04-02T08:46:41.000Z</time>
      </trkpt>
      <trkpt lat="47.24759" lon="-1.54163">
        <ele>9.1999998092651</ele>
        <time>2019-04-02T08:46:42.000Z</time>
      </trkpt>
      <trkpt lat="47.2476" lon="-1.54161">
        <ele>9</ele>
        <time>2019-04-02T08:46:43.000Z</time>
      </trkpt>
      <trkpt lat="47.24761" lon="-1.5416">
        <ele>9</ele>
        <time>2019-04-02T08:46:44.000Z</time>
      </trkpt>
      <trkpt lat="47.24762" lon="-1.54159">
        <ele>8.8000001907349</ele>
        <time>2019-04-02T08:46:45.000Z</time>
      </trkpt>
      <trkpt lat="47.24762" lon="-1.54158">
        <ele>8.8000001907349</ele>
        <time>2019-04-02T08:46:46.000Z</time>
      </trkpt>
      <trkpt lat="47.24763" lon="-1.54156">
        <ele>8.6000003814697</ele>
        <time>2019-04-02T08:46:47.000Z</time>
      </trkpt>
      <trkpt lat="47.24765" lon="-1.54154">
        <ele>8.6000003814697</ele>
        <time>2019-04-02T08:46:48.000Z</time>
      </trkpt>
      <trkpt lat="47.24765" lon="-1.54153">
        <ele>8.3999996185303</ele>
        <time>2019-04-02T08:46:49.000Z</time>
      </trkpt>
      <trkpt lat="47.24766" lon="-1.54151">
        <ele>8.1999998092651</ele>
        <time>2019-04-02T08:46:50.000Z</time>
      </trkpt>
      <trkpt lat="47.24767" lon="-1.54148">
        <ele>8.1999998092651</ele>
        <time>2019-04-02T08:46:51.000Z</time>
      </trkpt>
      <trkpt lat="47.24768" lon="-1.54146">
        <ele>8</ele>
        <time>2019-04-02T08:46:52.000Z</time>
      </trkpt>
      <trkpt lat="47.24769" lon="-1.54144">
        <ele>8</ele>
        <time>2019-04-02T08:46:53.000Z</time>
      </trkpt>
      <trkpt lat="47.2477" lon="-1.54142">
        <ele>7.8000001907349</ele>
        <time>2019-04-02T08:46:54.000Z</time>
      </trkpt>
      <trkpt lat="47.24771" lon="-1.5414">
        <ele>7.5999999046326</ele>
        <time>2019-04-02T08:46:55.000Z</time>
      </trkpt>
      <trkpt lat="47.24773" lon="-1.54138">
        <ele>7.4000000953674</ele>
        <time>2019-04-02T08:46:56.000Z</time>
      </trkpt>
      <trkpt lat="47.24774" lon="-1.54136">
        <ele>7.1999998092651</ele>
        <time>2019-04-02T08:46:57.000Z</time>
      </trkpt>
      <trkpt lat="47.24775" lon="-1.54134">
        <ele>7.1999998092651</ele>
        <time>2019-04-02T08:46:58.000Z</time>
      </trkpt>
      <trkpt lat="47.24777" lon="-1.54132">
        <ele>7</ele>
        <time>2019-04-02T08:46:59.000Z</time>
      </trkpt>
      <trkpt lat="47.24778" lon="-1.5413">
        <ele>6.8000001907349</ele>
        <time>2019-04-02T08:47:00.000Z</time>
      </trkpt>
      <trkpt lat="47.24779" lon="-1.54129">
        <ele>6.8000001907349</ele>
        <time>2019-04-02T08:47:01.000Z</time>
      </trkpt>
      <trkpt lat="47.24781" lon="-1.54125">
        <ele>6.4000000953674</ele>
        <time>2019-04-02T08:47:02.000Z</time>
      </trkpt>
      <trkpt lat="47.24781" lon="-1.54125">
        <ele>6.4000000953674</ele>
        <time>2019-04-02T08:47:03.000Z</time>
      </trkpt>
      <trkpt lat="47.24782" lon="-1.54123">
        <ele>6.4000000953674</ele>
        <time>2019-04-02T08:47:04.000Z</time>
      </trkpt>
      <trkpt lat="47.24783" lon="-1.54121">
        <ele>6.1999998092651</ele>
        <time>2019-04-02T08:47:05.000Z</time>
      </trkpt>
      <trkpt lat="47.24784" lon="-1.5412">
        <ele>6</ele>
        <time>2019-04-02T08:47:06.000Z</time>
      </trkpt>
      <trkpt lat="47.24784" lon="-1.54118">
        <ele>6</ele>
        <time>2019-04-02T08:47:07.000Z</time>
      </trkpt>
      <trkpt lat="47.24785" lon="-1.54116">
        <ele>5.8000001907349</ele>
        <time>2019-04-02T08:47:08.000Z</time>
      </trkpt>
      <trkpt lat="47.24786" lon="-1.54114">
        <ele>5.8000001907349</ele>
        <time>2019-04-02T08:47:09.000Z</time>
      </trkpt>
      <trkpt lat="47.24787" lon="-1.54113">
        <ele>5.5999999046326</ele>
        <time>2019-04-02T08:47:10.000Z</time>
      </trkpt>
      <trkpt lat="47.24787" lon="-1.54111">
        <ele>5.5999999046326</ele>
        <time>2019-04-02T08:47:11.000Z</time>
      </trkpt>
      <trkpt lat="47.24788" lon="-1.54109">
        <ele>5.4000000953674</ele>
        <time>2019-04-02T08:47:12.000Z</time>
      </trkpt>
      <trkpt lat="47.24789" lon="-1.54107">
        <ele>5.4000000953674</ele>
        <time>2019-04-02T08:47:13.000Z</time>
      </trkpt>
      <trkpt lat="47.2479" lon="-1.54106">
        <ele>5.1999998092651</ele>
        <time>2019-04-02T08:47:14.000Z</time>
      </trkpt>
      <trkpt lat="47.24792" lon="-1.54104">
        <ele>5</ele>
        <time>2019-04-02T08:47:15.000Z</time>
      </trkpt>
      <trkpt lat="47.24794" lon="-1.54102">
        <ele>4.8000001907349</ele>
        <time>2019-04-02T08:47:16.000Z</time>
      </trkpt>
      <trkpt lat="47.24795" lon="-1.541">
        <ele>4.8000001907349</ele>
        <time>2019-04-02T08:47:17.000Z</time>
      </trkpt>
      <trkpt lat="47.24796" lon="-1.54099">
        <ele>4.5999999046326</ele>
        <time>2019-04-02T08:47:18.000Z</time>
      </trkpt>
      <trkpt lat="47.24798" lon="-1.54098">
        <ele>4.4000000953674</ele>
        <time>2019-04-02T08:47:19.000Z</time>
      </trkpt>
      <trkpt lat="47.24799" lon="-1.54096">
        <ele>4.4000000953674</ele>
        <time>2019-04-02T08:47:20.000Z</time>
      </trkpt>
      <trkpt lat="47.248" lon="-1.54095">
        <ele>4.1999998092651</ele>
        <time>2019-04-02T08:47:21.000Z</time>
      </trkpt>
      <trkpt lat="47.24802" lon="-1.54093">
        <ele>4</ele>
        <time>2019-04-02T08:47:22.000Z</time>
      </trkpt>
      <trkpt lat="47.24802" lon="-1.54093">
        <ele>4</ele>
        <time>2019-04-02T08:47:23.000Z</time>
      </trkpt>
      <trkpt lat="47.24803" lon="-1.54092">
        <ele>3.7999999523163</ele>
        <time>2019-04-02T08:47:24.000Z</time>
      </trkpt>
      <trkpt lat="47.24804" lon="-1.54091">
        <ele>3.7999999523163</ele>
        <time>2019-04-02T08:47:25.000Z</time>
      </trkpt>
      <trkpt lat="47.24806" lon="-1.5409">
        <ele>3.5999999046326</ele>
        <time>2019-04-02T08:47:26.000Z</time>
      </trkpt>
      <trkpt lat="47.24807" lon="-1.54089">
        <ele>3.4000000953674</ele>
        <time>2019-04-02T08:47:27.000Z</time>
      </trkpt>
      <trkpt lat="47.24808" lon="-1.54088">
        <ele>3.4000000953674</ele>
        <time>2019-04-02T08:47:28.000Z</time>
      </trkpt>
      <trkpt lat="47.24809" lon="-1.54087">
        <ele>3.2000000476837</ele>
        <time>2019-04-02T08:47:29.000Z</time>
      </trkpt>
      <trkpt lat="47.2481" lon="-1.54085">
        <ele>3.2000000476837</ele>
        <time>2019-04-02T08:47:30.000Z</time>
      </trkpt>
      <trkpt lat="47.24811" lon="-1.54084">
        <ele>3</ele>
        <time>2019-04-02T08:47:31.000Z</time>
      </trkpt>
      <trkpt lat="47.24812" lon="-1.54083">
        <ele>2.7999999523163</ele>
        <time>2019-04-02T08:47:32.000Z</time>
      </trkpt>
      <trkpt lat="47.24813" lon="-1.54082">
        <ele>2.7999999523163</ele>
        <time>2019-04-02T08:47:33.000Z</time>
      </trkpt>
      <trkpt lat="47.24815" lon="-1.5408">
        <ele>2.5999999046326</ele>
        <time>2019-04-02T08:47:34.000Z</time>
      </trkpt>
      <trkpt lat="47.24816" lon="-1.54079">
        <ele>2.5999999046326</ele>
        <time>2019-04-02T08:47:35.000Z</time>
      </trkpt>
      <trkpt lat="47.24817" lon="-1.54077">
        <ele>2.4000000953674</ele>
        <time>2019-04-02T08:47:36.000Z</time>
      </trkpt>
      <trkpt lat="47.24817" lon="-1.54076">
        <ele>2.4000000953674</ele>
        <time>2019-04-02T08:47:37.000Z</time>
      </trkpt>
      <trkpt lat="47.24817" lon="-1.54074">
        <ele>2.5999999046326</ele>
        <time>2019-04-02T08:47:38.000Z</time>
      </trkpt>
      <trkpt lat="47.24817" lon="-1.54074">
        <ele>2.5999999046326</ele>
        <time>2019-04-02T08:47:39.000Z</time>
      </trkpt>
      <trkpt lat="47.24817" lon="-1.54072">
        <ele>2.5999999046326</ele>
        <time>2019-04-02T08:47:40.000Z</time>
      </trkpt>
      <trkpt lat="47.24817" lon="-1.5407">
        <ele>2.5999999046326</ele>
        <time>2019-04-02T08:47:41.000Z</time>
      </trkpt>
      <trkpt lat="47.24817" lon="-1.54067">
        <ele>2.5999999046326</ele>
        <time>2019-04-02T08:47:42.000Z</time>
      </trkpt>
      <trkpt lat="47.24818" lon="-1.54066">
        <ele>2.7999999523163</ele>
        <time>2019-04-02T08:47:43.000Z</time>
      </trkpt>
      <trkpt lat="47.24818" lon="-1.54064">
        <ele>3</ele>
        <time>2019-04-02T08:47:44.000Z</time>
      </trkpt>
      <trkpt lat="47.24818" lon="-1.54062">
        <ele>3</ele>
        <time>2019-04-02T08:47:45.000Z</time>
      </trkpt>
      <trkpt lat="47.24819" lon="-1.54059">
        <ele>3.2000000476837</ele>
        <time>2019-04-02T08:47:46.000Z</time>
      </trkpt>
      <trkpt lat="47.24819" lon="-1.54057">
        <ele>3.4000000953674</ele>
        <time>2019-04-02T08:47:47.000Z</time>
      </trkpt>
      <trkpt lat="47.2482" lon="-1.54056">
        <ele>3.4000000953674</ele>
        <time>2019-04-02T08:47:48.000Z</time>
      </trkpt>
      <trkpt lat="47.24819" lon="-1.54054">
        <ele>3.5999999046326</ele>
        <time>2019-04-02T08:47:49.000Z</time>
      </trkpt>
      <trkpt lat="47.24819" lon="-1.54052">
        <ele>4</ele>
        <time>2019-04-02T08:47:50.000Z</time>
      </trkpt>
      <trkpt lat="47.24819" lon="-1.5405">
        <ele>4.1999998092651</ele>
        <time>2019-04-02T08:47:51.000Z</time>
      </trkpt>
      <trkpt lat="47.24819" lon="-1.54049">
        <ele>4.1999998092651</ele>
        <time>2019-04-02T08:47:52.000Z</time>
      </trkpt>
      <trkpt lat="47.24819" lon="-1.54047">
        <ele>4.4000000953674</ele>
        <time>2019-04-02T08:47:53.000Z</time>
      </trkpt>
      <trkpt lat="47.2482" lon="-1.54045">
        <ele>4.4000000953674</ele>
        <time>2019-04-02T08:47:54.000Z</time>
      </trkpt>
      <trkpt lat="47.2482" lon="-1.54044">
        <ele>4.5999999046326</ele>
        <time>2019-04-02T08:47:55.000Z</time>
      </trkpt>
      <trkpt lat="47.24821" lon="-1.54042">
        <ele>4.5999999046326</ele>
        <time>2019-04-02T08:47:56.000Z</time>
      </trkpt>
      <trkpt lat="47.24821" lon="-1.5404">
        <ele>4.8000001907349</ele>
        <time>2019-04-02T08:47:57.000Z</time>
      </trkpt>
      <trkpt lat="47.24821" lon="-1.54038">
        <ele>5</ele>
        <time>2019-04-02T08:47:58.000Z</time>
      </trkpt>
      <trkpt lat="47.24821" lon="-1.54036">
        <ele>5.1999998092651</ele>
        <time>2019-04-02T08:47:59.000Z</time>
      </trkpt>
      <trkpt lat="47.24821" lon="-1.54034">
        <ele>5.4000000953674</ele>
        <time>2019-04-02T08:48:00.000Z</time>
      </trkpt>
      <trkpt lat="47.24822" lon="-1.54032">
        <ele>5.4000000953674</ele>
        <time>2019-04-02T08:48:01.000Z</time>
      </trkpt>
      <trkpt lat="47.24822" lon="-1.5403">
        <ele>5.5999999046326</ele>
        <time>2019-04-02T08:48:02.000Z</time>
      </trkpt>
      <trkpt lat="47.24823" lon="-1.54028">
        <ele>5.5999999046326</ele>
        <time>2019-04-02T08:48:03.000Z</time>
      </trkpt>
      <trkpt lat="47.24824" lon="-1.54026">
        <ele>5.5999999046326</ele>
        <time>2019-04-02T08:48:04.000Z</time>
      </trkpt>
      <trkpt lat="47.24825" lon="-1.54024">
        <ele>5.8000001907349</ele>
        <time>2019-04-02T08:48:05.000Z</time>
      </trkpt>
      <trkpt lat="47.24826" lon="-1.54023">
        <ele>5.5999999046326</ele>
        <time>2019-04-02T08:48:06.000Z</time>
      </trkpt>
      <trkpt lat="47.24826" lon="-1.54021">
        <ele>5.8000001907349</ele>
        <time>2019-04-02T08:48:07.000Z</time>
      </trkpt>
      <trkpt lat="47.24828" lon="-1.5402">
        <ele>5.8000001907349</ele>
        <time>2019-04-02T08:48:08.000Z</time>
      </trkpt>
      <trkpt lat="47.24829" lon="-1.54019">
        <ele>5.8000001907349</ele>
        <time>2019-04-02T08:48:09.000Z</time>
      </trkpt>
      <trkpt lat="47.24829" lon="-1.54018">
        <ele>5.8000001907349</ele>
        <time>2019-04-02T08:48:10.000Z</time>
      </trkpt>
      <trkpt lat="47.2483" lon="-1.54017">
        <ele>5.8000001907349</ele>
        <time>2019-04-02T08:48:11.000Z</time>
      </trkpt>
      <trkpt lat="47.24831" lon="-1.54016">
        <ele>5.8000001907349</ele>
        <time>2019-04-02T08:48:12.000Z</time>
      </trkpt>
      <trkpt lat="47.24832" lon="-1.54015">
        <ele>6</ele>
        <time>2019-04-02T08:48:13.000Z</time>
      </trkpt>
      <trkpt lat="47.24833" lon="-1.54015">
        <ele>6</ele>
        <time>2019-04-02T08:48:14.000Z</time>
      </trkpt>
      <trkpt lat="47.24834" lon="-1.54014">
        <ele>6</ele>
        <time>2019-04-02T08:48:15.000Z</time>
      </trkpt>
      <trkpt lat="47.24837" lon="-1.54013">
        <ele>6.1999998092651</ele>
        <time>2019-04-02T08:48:16.000Z</time>
      </trkpt>
      <trkpt lat="47.24837" lon="-1.54013">
        <ele>6.1999998092651</ele>
        <time>2019-04-02T08:48:17.000Z</time>
      </trkpt>
      <trkpt lat="47.24838" lon="-1.54013">
        <ele>6.1999998092651</ele>
        <time>2019-04-02T08:48:18.000Z</time>
      </trkpt>
      <trkpt lat="47.2484" lon="-1.54012">
        <ele>6.1999998092651</ele>
        <time>2019-04-02T08:48:19.000Z</time>
      </trkpt>
      <trkpt lat="47.24841" lon="-1.54011">
        <ele>6.1999998092651</ele>
        <time>2019-04-02T08:48:20.000Z</time>
      </trkpt>
      <trkpt lat="47.24843" lon="-1.54011">
        <ele>6.1999998092651</ele>
        <time>2019-04-02T08:48:21.000Z</time>
      </trkpt>
      <trkpt lat="47.24844" lon="-1.5401">
        <ele>6.4000000953674</ele>
        <time>2019-04-02T08:48:22.000Z</time>
      </trkpt>
      <trkpt lat="47.24845" lon="-1.54009">
        <ele>6.4000000953674</ele>
        <time>2019-04-02T08:48:23.000Z</time>
      </trkpt>
      <trkpt lat="47.24846" lon="-1.54008">
        <ele>6.5999999046326</ele>
        <time>2019-04-02T08:48:24.000Z</time>
      </trkpt>
      <trkpt lat="47.24847" lon="-1.54007">
        <ele>6.5999999046326</ele>
        <time>2019-04-02T08:48:25.000Z</time>
      </trkpt>
      <trkpt lat="47.24849" lon="-1.54006">
        <ele>6.5999999046326</ele>
        <time>2019-04-02T08:48:26.000Z</time>
      </trkpt>
      <trkpt lat="47.2485" lon="-1.54005">
        <ele>6.5999999046326</ele>
        <time>2019-04-02T08:48:27.000Z</time>
      </trkpt>
      <trkpt lat="47.24851" lon="-1.54005">
        <ele>6.8000001907349</ele>
        <time>2019-04-02T08:48:28.000Z</time>
      </trkpt>
      <trkpt lat="47.24852" lon="-1.54004">
        <ele>6.8000001907349</ele>
        <time>2019-04-02T08:48:29.000Z</time>
      </trkpt>
      <trkpt lat="47.24853" lon="-1.54004">
        <ele>6.8000001907349</ele>
        <time>2019-04-02T08:48:30.000Z</time>
      </trkpt>
      <trkpt lat="47.24854" lon="-1.54004">
        <ele>6.8000001907349</ele>
        <time>2019-04-02T08:48:31.000Z</time>
      </trkpt>
      <trkpt lat="47.24855" lon="-1.54004">
        <ele>6.8000001907349</ele>
        <time>2019-04-02T08:48:32.000Z</time>
      </trkpt>
      <trkpt lat="47.24856" lon="-1.54003">
        <ele>6.8000001907349</ele>
        <time>2019-04-02T08:48:33.000Z</time>
      </trkpt>
      <trkpt lat="47.24856" lon="-1.54002">
        <ele>7</ele>
        <time>2019-04-02T08:48:34.000Z</time>
      </trkpt>
      <trkpt lat="47.24857" lon="-1.54001">
        <ele>7</ele>
        <time>2019-04-02T08:48:35.000Z</time>
      </trkpt>
      <trkpt lat="47.24858" lon="-1.54">
        <ele>7.1999998092651</ele>
        <time>2019-04-02T08:48:36.000Z</time>
      </trkpt>
      <trkpt lat="47.24859" lon="-1.53999">
        <ele>7.1999998092651</ele>
        <time>2019-04-02T08:48:37.000Z</time>
      </trkpt>
      <trkpt lat="47.2486" lon="-1.53997">
        <ele>7.4000000953674</ele>
        <time>2019-04-02T08:48:38.000Z</time>
      </trkpt>
      <trkpt lat="47.24861" lon="-1.53994">
        <ele>7.5999999046326</ele>
        <time>2019-04-02T08:48:39.000Z</time>
      </trkpt>
      <trkpt lat="47.24862" lon="-1.53991">
        <ele>7.8000001907349</ele>
        <time>2019-04-02T08:48:40.000Z</time>
      </trkpt>
      <trkpt lat="47.24863" lon="-1.53989">
        <ele>8</ele>
        <time>2019-04-02T08:48:41.000Z</time>
      </trkpt>
      <trkpt lat="47.24863" lon="-1.53988">
        <ele>8.1999998092651</ele>
        <time>2019-04-02T08:48:42.000Z</time>
      </trkpt>
      <trkpt lat="47.24864" lon="-1.53986">
        <ele>8.3999996185303</ele>
        <time>2019-04-02T08:48:43.000Z</time>
      </trkpt>
      <trkpt lat="47.24864" lon="-1.53982">
        <ele>8.6000003814697</ele>
        <time>2019-04-02T08:48:44.000Z</time>
      </trkpt>
      <trkpt lat="47.24864" lon="-1.53982">
        <ele>8.6000003814697</ele>
        <time>2019-04-02T08:48:45.000Z</time>
      </trkpt>
      <trkpt lat="47.24865" lon="-1.5398">
        <ele>8.6000003814697</ele>
        <time>2019-04-02T08:48:46.000Z</time>
      </trkpt>
      <trkpt lat="47.24865" lon="-1.53978">
        <ele>8.8000001907349</ele>
        <time>2019-04-02T08:48:47.000Z</time>
      </trkpt>
      <trkpt lat="47.24865" lon="-1.53975">
        <ele>8.8000001907349</ele>
        <time>2019-04-02T08:48:48.000Z</time>
      </trkpt>
      <trkpt lat="47.24866" lon="-1.53973">
        <ele>8.8000001907349</ele>
        <time>2019-04-02T08:48:49.000Z</time>
      </trkpt>
      <trkpt lat="47.24866" lon="-1.53971">
        <ele>8.8000001907349</ele>
        <time>2019-04-02T08:48:50.000Z</time>
      </trkpt>
      <trkpt lat="47.24867" lon="-1.53969">
        <ele>9</ele>
        <time>2019-04-02T08:48:51.000Z</time>
      </trkpt>
      <trkpt lat="47.24867" lon="-1.53967">
        <ele>9</ele>
        <time>2019-04-02T08:48:52.000Z</time>
      </trkpt>
      <trkpt lat="47.24868" lon="-1.53965">
        <ele>9</ele>
        <time>2019-04-02T08:48:53.000Z</time>
      </trkpt>
      <trkpt lat="47.24868" lon="-1.53963">
        <ele>9</ele>
        <time>2019-04-02T08:48:54.000Z</time>
      </trkpt>
      <trkpt lat="47.24868" lon="-1.5396">
        <ele>9.1999998092651</ele>
        <time>2019-04-02T08:48:55.000Z</time>
      </trkpt>
      <trkpt lat="47.24869" lon="-1.53958">
        <ele>9.1999998092651</ele>
        <time>2019-04-02T08:48:56.000Z</time>
      </trkpt>
      <trkpt lat="47.24869" lon="-1.53956">
        <ele>9.1999998092651</ele>
        <time>2019-04-02T08:48:57.000Z</time>
      </trkpt>
      <trkpt lat="47.2487" lon="-1.53954">
        <ele>9.1999998092651</ele>
        <time>2019-04-02T08:48:58.000Z</time>
      </trkpt>
      <trkpt lat="47.2487" lon="-1.53952">
        <ele>9.1999998092651</ele>
        <time>2019-04-02T08:48:59.000Z</time>
      </trkpt>
      <trkpt lat="47.24871" lon="-1.5395">
        <ele>9.3999996185303</ele>
        <time>2019-04-02T08:49:00.000Z</time>
      </trkpt>
      <trkpt lat="47.24871" lon="-1.53948">
        <ele>9.3999996185303</ele>
        <time>2019-04-02T08:49:01.000Z</time>
      </trkpt>
      <trkpt lat="47.24871" lon="-1.53944">
        <ele>9.3999996185303</ele>
        <time>2019-04-02T08:49:02.000Z</time>
      </trkpt>
      <trkpt lat="47.24871" lon="-1.53944">
        <ele>9.3999996185303</ele>
        <time>2019-04-02T08:49:03.000Z</time>
      </trkpt>
      <trkpt lat="47.24872" lon="-1.53941">
        <ele>9.6000003814697</ele>
        <time>2019-04-02T08:49:04.000Z</time>
      </trkpt>
      <trkpt lat="47.24872" lon="-1.53939">
        <ele>9.6000003814697</ele>
        <time>2019-04-02T08:49:05.000Z</time>
      </trkpt>
      <trkpt lat="47.24873" lon="-1.53937">
        <ele>9.6000003814697</ele>
        <time>2019-04-02T08:49:06.000Z</time>
      </trkpt>
      <trkpt lat="47.24873" lon="-1.53935">
        <ele>9.8000001907349</ele>
        <time>2019-04-02T08:49:07.000Z</time>
      </trkpt>
      <trkpt lat="47.24874" lon="-1.53934">
        <ele>9.8000001907349</ele>
        <time>2019-04-02T08:49:08.000Z</time>
      </trkpt>
      <trkpt lat="47.24875" lon="-1.53932">
        <ele>9.8000001907349</ele>
        <time>2019-04-02T08:49:09.000Z</time>
      </trkpt>
      <trkpt lat="47.24876" lon="-1.5393">
        <ele>10</ele>
        <time>2019-04-02T08:49:10.000Z</time>
      </trkpt>
      <trkpt lat="47.24877" lon="-1.53928">
        <ele>10</ele>
        <time>2019-04-02T08:49:11.000Z</time>
      </trkpt>
      <trkpt lat="47.24878" lon="-1.53927">
        <ele>10</ele>
        <time>2019-04-02T08:49:12.000Z</time>
      </trkpt>
      <trkpt lat="47.24879" lon="-1.53926">
        <ele>10</ele>
        <time>2019-04-02T08:49:13.000Z</time>
      </trkpt>
      <trkpt lat="47.24881" lon="-1.53924">
        <ele>10</ele>
        <time>2019-04-02T08:49:14.000Z</time>
      </trkpt>
      <trkpt lat="47.24882" lon="-1.53924">
        <ele>10</ele>
        <time>2019-04-02T08:49:15.000Z</time>
      </trkpt>
      <trkpt lat="47.24884" lon="-1.53923">
        <ele>10</ele>
        <time>2019-04-02T08:49:16.000Z</time>
      </trkpt>
      <trkpt lat="47.24886" lon="-1.53923">
        <ele>9.8000001907349</ele>
        <time>2019-04-02T08:49:17.000Z</time>
      </trkpt>
      <trkpt lat="47.24888" lon="-1.53923">
        <ele>9.8000001907349</ele>
        <time>2019-04-02T08:49:18.000Z</time>
      </trkpt>
      <trkpt lat="47.24889" lon="-1.53923">
        <ele>9.8000001907349</ele>
        <time>2019-04-02T08:49:19.000Z</time>
      </trkpt>
      <trkpt lat="47.24891" lon="-1.53923">
        <ele>9.8000001907349</ele>
        <time>2019-04-02T08:49:20.000Z</time>
      </trkpt>
      <trkpt lat="47.24892" lon="-1.53923">
        <ele>9.8000001907349</ele>
        <time>2019-04-02T08:49:21.000Z</time>
      </trkpt>
      <trkpt lat="47.24893" lon="-1.53923">
        <ele>9.6000003814697</ele>
        <time>2019-04-02T08:49:22.000Z</time>
      </trkpt>
      <trkpt lat="47.24894" lon="-1.53924">
        <ele>9.6000003814697</ele>
        <time>2019-04-02T08:49:23.000Z</time>
      </trkpt>
      <trkpt lat="47.24895" lon="-1.53924">
        <ele>9.6000003814697</ele>
        <time>2019-04-02T08:49:24.000Z</time>
      </trkpt>
      <trkpt lat="47.24897" lon="-1.53924">
        <ele>9.6000003814697</ele>
        <time>2019-04-02T08:49:25.000Z</time>
      </trkpt>
      <trkpt lat="47.24898" lon="-1.53925">
        <ele>9.6000003814697</ele>
        <time>2019-04-02T08:49:26.000Z</time>
      </trkpt>
      <trkpt lat="47.24899" lon="-1.53926">
        <ele>9.6000003814697</ele>
        <time>2019-04-02T08:49:27.000Z</time>
      </trkpt>
      <trkpt lat="47.24901" lon="-1.53926">
        <ele>9.6000003814697</ele>
        <time>2019-04-02T08:49:28.000Z</time>
      </trkpt>
      <trkpt lat="47.24902" lon="-1.53927">
        <ele>9.3999996185303</ele>
        <time>2019-04-02T08:49:29.000Z</time>
      </trkpt>
      <trkpt lat="47.24903" lon="-1.53927">
        <ele>9.3999996185303</ele>
        <time>2019-04-02T08:49:30.000Z</time>
      </trkpt>
      <trkpt lat="47.24904" lon="-1.53928">
        <ele>9.3999996185303</ele>
        <time>2019-04-02T08:49:31.000Z</time>
      </trkpt>
      <trkpt lat="47.24905" lon="-1.53928">
        <ele>9.3999996185303</ele>
        <time>2019-04-02T08:49:32.000Z</time>
      </trkpt>
      <trkpt lat="47.24907" lon="-1.53929">
        <ele>9.3999996185303</ele>
        <time>2019-04-02T08:49:33.000Z</time>
      </trkpt>
      <trkpt lat="47.24909" lon="-1.5393">
        <ele>9.3999996185303</ele>
        <time>2019-04-02T08:49:34.000Z</time>
      </trkpt>
      <trkpt lat="47.24909" lon="-1.5393">
        <ele>9.3999996185303</ele>
        <time>2019-04-02T08:49:35.000Z</time>
      </trkpt>
      <trkpt lat="47.24909" lon="-1.53931">
        <ele>9.3999996185303</ele>
        <time>2019-04-02T08:49:36.000Z</time>
      </trkpt>
      <trkpt lat="47.2491" lon="-1.53932">
        <ele>9.1999998092651</ele>
        <time>2019-04-02T08:49:37.000Z</time>
      </trkpt>
      <trkpt lat="47.24912" lon="-1.53934">
        <ele>9.1999998092651</ele>
        <time>2019-04-02T08:49:38.000Z</time>
      </trkpt>
      <trkpt lat="47.24912" lon="-1.53934">
        <ele>9.1999998092651</ele>
        <time>2019-04-02T08:49:39.000Z</time>
      </trkpt>
      <trkpt lat="47.24913" lon="-1.53935">
        <ele>9.1999998092651</ele>
        <time>2019-04-02T08:49:40.000Z</time>
      </trkpt>
      <trkpt lat="47.24915" lon="-1.53936">
        <ele>9</ele>
        <time>2019-04-02T08:49:41.000Z</time>
      </trkpt>
      <trkpt lat="47.24916" lon="-1.53938">
        <ele>9</ele>
        <time>2019-04-02T08:49:42.000Z</time>
      </trkpt>
      <trkpt lat="47.24917" lon="-1.53939">
        <ele>9</ele>
        <time>2019-04-02T08:49:43.000Z</time>
      </trkpt>
      <trkpt lat="47.24918" lon="-1.53941">
        <ele>9</ele>
        <time>2019-04-02T08:49:44.000Z</time>
      </trkpt>
      <trkpt lat="47.24919" lon="-1.53942">
        <ele>8.8000001907349</ele>
        <time>2019-04-02T08:49:45.000Z</time>
      </trkpt>
      <trkpt lat="47.2492" lon="-1.53943">
        <ele>8.8000001907349</ele>
        <time>2019-04-02T08:49:46.000Z</time>
      </trkpt>
      <trkpt lat="47.24921" lon="-1.53943">
        <ele>8.8000001907349</ele>
        <time>2019-04-02T08:49:47.000Z</time>
      </trkpt>
      <trkpt lat="47.24922" lon="-1.53944">
        <ele>8.8000001907349</ele>
        <time>2019-04-02T08:49:48.000Z</time>
      </trkpt>
      <trkpt lat="47.24923" lon="-1.53945">
        <ele>8.6000003814697</ele>
        <time>2019-04-02T08:49:49.000Z</time>
      </trkpt>
      <trkpt lat="47.24925" lon="-1.53947">
        <ele>8.6000003814697</ele>
        <time>2019-04-02T08:49:50.000Z</time>
      </trkpt>
      <trkpt lat="47.24925" lon="-1.53948">
        <ele>8.6000003814697</ele>
        <time>2019-04-02T08:49:51.000Z</time>
      </trkpt>
      <trkpt lat="47.24927" lon="-1.53951">
        <ele>8.3999996185303</ele>
        <time>2019-04-02T08:49:52.000Z</time>
      </trkpt>
      <trkpt lat="47.24927" lon="-1.53951">
        <ele>8.3999996185303</ele>
        <time>2019-04-02T08:49:53.000Z</time>
      </trkpt>
      <trkpt lat="47.24928" lon="-1.53952">
        <ele>8.3999996185303</ele>
        <time>2019-04-02T08:49:54.000Z</time>
      </trkpt>
      <trkpt lat="47.24929" lon="-1.53953">
        <ele>8.3999996185303</ele>
        <time>2019-04-02T08:49:55.000Z</time>
      </trkpt>
      <trkpt lat="47.2493" lon="-1.53955">
        <ele>8.1999998092651</ele>
        <time>2019-04-02T08:49:56.000Z</time>
      </trkpt>
      <trkpt lat="47.24931" lon="-1.53957">
        <ele>8.1999998092651</ele>
        <time>2019-04-02T08:49:57.000Z</time>
      </trkpt>
      <trkpt lat="47.24932" lon="-1.53958">
        <ele>8.1999998092651</ele>
        <time>2019-04-02T08:49:58.000Z</time>
      </trkpt>
      <trkpt lat="47.24933" lon="-1.5396">
        <ele>8</ele>
        <time>2019-04-02T08:49:59.000Z</time>
      </trkpt>
      <trkpt lat="47.24933" lon="-1.53961">
        <ele>8</ele>
        <time>2019-04-02T08:50:00.000Z</time>
      </trkpt>
      <trkpt lat="47.24935" lon="-1.53964">
        <ele>7.8000001907349</ele>
        <time>2019-04-02T08:50:01.000Z</time>
      </trkpt>
      <trkpt lat="47.24935" lon="-1.53964">
        <ele>7.8000001907349</ele>
        <time>2019-04-02T08:50:02.000Z</time>
      </trkpt>
      <trkpt lat="47.24936" lon="-1.53966">
        <ele>7.5999999046326</ele>
        <time>2019-04-02T08:50:03.000Z</time>
      </trkpt>
      <trkpt lat="47.24937" lon="-1.53967">
        <ele>7.5999999046326</ele>
        <time>2019-04-02T08:50:04.000Z</time>
      </trkpt>
      <trkpt lat="47.24938" lon="-1.53968">
        <ele>7.4000000953674</ele>
        <time>2019-04-02T08:50:05.000Z</time>
      </trkpt>
      <trkpt lat="47.24939" lon="-1.53969">
        <ele>7.1999998092651</ele>
        <time>2019-04-02T08:50:06.000Z</time>
      </trkpt>
      <trkpt lat="47.2494" lon="-1.53971">
        <ele>7.1999998092651</ele>
        <time>2019-04-02T08:50:07.000Z</time>
      </trkpt>
      <trkpt lat="47.24941" lon="-1.53972">
        <ele>7</ele>
        <time>2019-04-02T08:50:08.000Z</time>
      </trkpt>
      <trkpt lat="47.24942" lon="-1.53973">
        <ele>6.8000001907349</ele>
        <time>2019-04-02T08:50:09.000Z</time>
      </trkpt>
      <trkpt lat="47.24944" lon="-1.53974">
        <ele>6.8000001907349</ele>
        <time>2019-04-02T08:50:10.000Z</time>
      </trkpt>
      <trkpt lat="47.24945" lon="-1.53974">
        <ele>6.5999999046326</ele>
        <time>2019-04-02T08:50:11.000Z</time>
      </trkpt>
      <trkpt lat="47.24946" lon="-1.53975">
        <ele>6.5999999046326</ele>
        <time>2019-04-02T08:50:12.000Z</time>
      </trkpt>
      <trkpt lat="47.24947" lon="-1.53976">
        <ele>6.4000000953674</ele>
        <time>2019-04-02T08:50:13.000Z</time>
      </trkpt>
      <trkpt lat="47.24949" lon="-1.53977">
        <ele>6.1999998092651</ele>
        <time>2019-04-02T08:50:14.000Z</time>
      </trkpt>
      <trkpt lat="47.24951" lon="-1.53978">
        <ele>6</ele>
        <time>2019-04-02T08:50:15.000Z</time>
      </trkpt>
      <trkpt lat="47.24953" lon="-1.5398">
        <ele>5.8000001907349</ele>
        <time>2019-04-02T08:50:16.000Z</time>
      </trkpt>
      <trkpt lat="47.24953" lon="-1.5398">
        <ele>5.8000001907349</ele>
        <time>2019-04-02T08:50:17.000Z</time>
      </trkpt>
      <trkpt lat="47.24955" lon="-1.5398">
        <ele>5.5999999046326</ele>
        <time>2019-04-02T08:50:18.000Z</time>
      </trkpt>
      <trkpt lat="47.24956" lon="-1.53981">
        <ele>5.5999999046326</ele>
        <time>2019-04-02T08:50:19.000Z</time>
      </trkpt>
      <trkpt lat="47.24957" lon="-1.53981">
        <ele>5.4000000953674</ele>
        <time>2019-04-02T08:50:20.000Z</time>
      </trkpt>
      <trkpt lat="47.24959" lon="-1.53982">
        <ele>5.4000000953674</ele>
        <time>2019-04-02T08:50:21.000Z</time>
      </trkpt>
      <trkpt lat="47.24961" lon="-1.53983">
        <ele>5.1999998092651</ele>
        <time>2019-04-02T08:50:22.000Z</time>
      </trkpt>
      <trkpt lat="47.24961" lon="-1.53983">
        <ele>5.1999998092651</ele>
        <time>2019-04-02T08:50:23.000Z</time>
      </trkpt>
      <trkpt lat="47.24962" lon="-1.53983">
        <ele>5</ele>
        <time>2019-04-02T08:50:24.000Z</time>
      </trkpt>
      <trkpt lat="47.24963" lon="-1.53983">
        <ele>5</ele>
        <time>2019-04-02T08:50:25.000Z</time>
      </trkpt>
      <trkpt lat="47.24965" lon="-1.53983">
        <ele>5</ele>
        <time>2019-04-02T08:50:26.000Z</time>
      </trkpt>
      <trkpt lat="47.24966" lon="-1.53982">
        <ele>4.8000001907349</ele>
        <time>2019-04-02T08:50:27.000Z</time>
      </trkpt>
      <trkpt lat="47.24968" lon="-1.53982">
        <ele>4.8000001907349</ele>
        <time>2019-04-02T08:50:28.000Z</time>
      </trkpt>
      <trkpt lat="47.2497" lon="-1.53981">
        <ele>4.8000001907349</ele>
        <time>2019-04-02T08:50:29.000Z</time>
      </trkpt>
      <trkpt lat="47.24971" lon="-1.53979">
        <ele>4.8000001907349</ele>
        <time>2019-04-02T08:50:30.000Z</time>
      </trkpt>
      <trkpt lat="47.24973" lon="-1.53978">
        <ele>4.8000001907349</ele>
        <time>2019-04-02T08:50:31.000Z</time>
      </trkpt>
      <trkpt lat="47.24974" lon="-1.53976">
        <ele>4.8000001907349</ele>
        <time>2019-04-02T08:50:32.000Z</time>
      </trkpt>
      <trkpt lat="47.24974" lon="-1.53975">
        <ele>4.8000001907349</ele>
        <time>2019-04-02T08:50:33.000Z</time>
      </trkpt>
      <trkpt lat="47.24975" lon="-1.53973">
        <ele>5</ele>
        <time>2019-04-02T08:50:34.000Z</time>
      </trkpt>
      <trkpt lat="47.24976" lon="-1.53971">
        <ele>5</ele>
        <time>2019-04-02T08:50:35.000Z</time>
      </trkpt>
      <trkpt lat="47.24976" lon="-1.53969">
        <ele>5</ele>
        <time>2019-04-02T08:50:36.000Z</time>
      </trkpt>
      <trkpt lat="47.24977" lon="-1.53967">
        <ele>5.1999998092651</ele>
        <time>2019-04-02T08:50:37.000Z</time>
      </trkpt>
      <trkpt lat="47.24978" lon="-1.53965">
        <ele>5.1999998092651</ele>
        <time>2019-04-02T08:50:38.000Z</time>
      </trkpt>
      <trkpt lat="47.24978" lon="-1.53963">
        <ele>5.4000000953674</ele>
        <time>2019-04-02T08:50:39.000Z</time>
      </trkpt>
      <trkpt lat="47.24979" lon="-1.53961">
        <ele>5.4000000953674</ele>
        <time>2019-04-02T08:50:40.000Z</time>
      </trkpt>
      <trkpt lat="47.2498" lon="-1.53959">
        <ele>5.4000000953674</ele>
        <time>2019-04-02T08:50:41.000Z</time>
      </trkpt>
      <trkpt lat="47.2498" lon="-1.53957">
        <ele>5.5999999046326</ele>
        <time>2019-04-02T08:50:42.000Z</time>
      </trkpt>
      <trkpt lat="47.24981" lon="-1.53956">
        <ele>5.5999999046326</ele>
        <time>2019-04-02T08:50:43.000Z</time>
      </trkpt>
      <trkpt lat="47.24982" lon="-1.53955">
        <ele>5.5999999046326</ele>
        <time>2019-04-02T08:50:44.000Z</time>
      </trkpt>
      <trkpt lat="47.24983" lon="-1.53954">
        <ele>5.5999999046326</ele>
        <time>2019-04-02T08:50:45.000Z</time>
      </trkpt>
      <trkpt lat="47.24983" lon="-1.53953">
        <ele>5.5999999046326</ele>
        <time>2019-04-02T08:50:46.000Z</time>
      </trkpt>
      <trkpt lat="47.24984" lon="-1.53951">
        <ele>5.5999999046326</ele>
        <time>2019-04-02T08:50:47.000Z</time>
      </trkpt>
      <trkpt lat="47.24985" lon="-1.53949">
        <ele>5.8000001907349</ele>
        <time>2019-04-02T08:50:48.000Z</time>
      </trkpt>
      <trkpt lat="47.24986" lon="-1.53948">
        <ele>5.8000001907349</ele>
        <time>2019-04-02T08:50:49.000Z</time>
      </trkpt>
      <trkpt lat="47.24987" lon="-1.53946">
        <ele>5.8000001907349</ele>
        <time>2019-04-02T08:50:50.000Z</time>
      </trkpt>
      <trkpt lat="47.24988" lon="-1.53944">
        <ele>5.8000001907349</ele>
        <time>2019-04-02T08:50:51.000Z</time>
      </trkpt>
      <trkpt lat="47.24989" lon="-1.53943">
        <ele>5.8000001907349</ele>
        <time>2019-04-02T08:50:52.000Z</time>
      </trkpt>
      <trkpt lat="47.24991" lon="-1.53942">
        <ele>5.8000001907349</ele>
        <time>2019-04-02T08:50:53.000Z</time>
      </trkpt>
      <trkpt lat="47.24992" lon="-1.5394">
        <ele>5.8000001907349</ele>
        <time>2019-04-02T08:50:54.000Z</time>
      </trkpt>
      <trkpt lat="47.24993" lon="-1.53939">
        <ele>5.8000001907349</ele>
        <time>2019-04-02T08:50:55.000Z</time>
      </trkpt>
      <trkpt lat="47.24994" lon="-1.53936">
        <ele>6</ele>
        <time>2019-04-02T08:50:56.000Z</time>
      </trkpt>
      <trkpt lat="47.24995" lon="-1.53935">
        <ele>6</ele>
        <time>2019-04-02T08:50:57.000Z</time>
      </trkpt>
      <trkpt lat="47.24998" lon="-1.53931">
        <ele>6</ele>
        <time>2019-04-02T08:50:58.000Z</time>
      </trkpt>
      <trkpt lat="47.24998" lon="-1.53931">
        <ele>6</ele>
        <time>2019-04-02T08:50:59.000Z</time>
      </trkpt>
      <trkpt lat="47.24999" lon="-1.53929">
        <ele>6</ele>
        <time>2019-04-02T08:51:00.000Z</time>
      </trkpt>
      <trkpt lat="47.25" lon="-1.53927">
        <ele>6</ele>
        <time>2019-04-02T08:51:01.000Z</time>
      </trkpt>
      <trkpt lat="47.25001" lon="-1.53926">
        <ele>6.1999998092651</ele>
        <time>2019-04-02T08:51:02.000Z</time>
      </trkpt>
      <trkpt lat="47.25002" lon="-1.53924">
        <ele>6.1999998092651</ele>
        <time>2019-04-02T08:51:03.000Z</time>
      </trkpt>
      <trkpt lat="47.25003" lon="-1.53922">
        <ele>6.1999998092651</ele>
        <time>2019-04-02T08:51:04.000Z</time>
      </trkpt>
      <trkpt lat="47.25004" lon="-1.53921">
        <ele>6.1999998092651</ele>
        <time>2019-04-02T08:51:05.000Z</time>
      </trkpt>
      <trkpt lat="47.25005" lon="-1.53919">
        <ele>6.1999998092651</ele>
        <time>2019-04-02T08:51:06.000Z</time>
      </trkpt>
      <trkpt lat="47.25007" lon="-1.53917">
        <ele>6.1999998092651</ele>
        <time>2019-04-02T08:51:07.000Z</time>
      </trkpt>
      <trkpt lat="47.25008" lon="-1.53915">
        <ele>6.1999998092651</ele>
        <time>2019-04-02T08:51:08.000Z</time>
      </trkpt>
      <trkpt lat="47.2501" lon="-1.53913">
        <ele>6.1999998092651</ele>
        <time>2019-04-02T08:51:09.000Z</time>
      </trkpt>
      <trkpt lat="47.25011" lon="-1.53912">
        <ele>6.1999998092651</ele>
        <time>2019-04-02T08:51:10.000Z</time>
      </trkpt>
      <trkpt lat="47.25012" lon="-1.5391">
        <ele>6.1999998092651</ele>
        <time>2019-04-02T08:51:11.000Z</time>
      </trkpt>
      <trkpt lat="47.25013" lon="-1.53909">
        <ele>6.1999998092651</ele>
        <time>2019-04-02T08:51:12.000Z</time>
      </trkpt>
      <trkpt lat="47.25015" lon="-1.53908">
        <ele>6.1999998092651</ele>
        <time>2019-04-02T08:51:13.000Z</time>
      </trkpt>
      <trkpt lat="47.25016" lon="-1.53906">
        <ele>6.1999998092651</ele>
        <time>2019-04-02T08:51:14.000Z</time>
      </trkpt>
      <trkpt lat="47.25017" lon="-1.53905">
        <ele>6.1999998092651</ele>
        <time>2019-04-02T08:51:15.000Z</time>
      </trkpt>
      <trkpt lat="47.25021" lon="-1.53903">
        <ele>6</ele>
        <time>2019-04-02T08:51:16.000Z</time>
      </trkpt>
      <trkpt lat="47.25021" lon="-1.53903">
        <ele>6</ele>
        <time>2019-04-02T08:51:17.000Z</time>
      </trkpt>
      <trkpt lat="47.25022" lon="-1.53902">
        <ele>6</ele>
        <time>2019-04-02T08:51:18.000Z</time>
      </trkpt>
      <trkpt lat="47.25024" lon="-1.53901">
        <ele>6</ele>
        <time>2019-04-02T08:51:19.000Z</time>
      </trkpt>
      <trkpt lat="47.25025" lon="-1.539">
        <ele>6</ele>
        <time>2019-04-02T08:51:20.000Z</time>
      </trkpt>
      <trkpt lat="47.25027" lon="-1.53899">
        <ele>6</ele>
        <time>2019-04-02T08:51:21.000Z</time>
      </trkpt>
      <trkpt lat="47.25028" lon="-1.53898">
        <ele>6</ele>
        <time>2019-04-02T08:51:22.000Z</time>
      </trkpt>
      <trkpt lat="47.25029" lon="-1.53897">
        <ele>6.1999998092651</ele>
        <time>2019-04-02T08:51:23.000Z</time>
      </trkpt>
      <trkpt lat="47.2503" lon="-1.53896">
        <ele>6.1999998092651</ele>
        <time>2019-04-02T08:51:24.000Z</time>
      </trkpt>
      <trkpt lat="47.2503" lon="-1.53894">
        <ele>6.4000000953674</ele>
        <time>2019-04-02T08:51:25.000Z</time>
      </trkpt>
      <trkpt lat="47.2503" lon="-1.53892">
        <ele>6.5999999046326</ele>
        <time>2019-04-02T08:51:26.000Z</time>
      </trkpt>
      <trkpt lat="47.25031" lon="-1.5389">
        <ele>7</ele>
        <time>2019-04-02T08:51:27.000Z</time>
      </trkpt>
      <trkpt lat="47.25031" lon="-1.53888">
        <ele>7.1999998092651</ele>
        <time>2019-04-02T08:51:28.000Z</time>
      </trkpt>
      <trkpt lat="47.25031" lon="-1.53886">
        <ele>7.4000000953674</ele>
        <time>2019-04-02T08:51:29.000Z</time>
      </trkpt>
      <trkpt lat="47.25031" lon="-1.53884">
        <ele>7.5999999046326</ele>
        <time>2019-04-02T08:51:30.000Z</time>
      </trkpt>
      <trkpt lat="47.25031" lon="-1.53882">
        <ele>8</ele>
        <time>2019-04-02T08:51:31.000Z</time>
      </trkpt>
      <trkpt lat="47.2503" lon="-1.5388">
        <ele>8.1999998092651</ele>
        <time>2019-04-02T08:51:32.000Z</time>
      </trkpt>
      <trkpt lat="47.25029" lon="-1.53879">
        <ele>8.3999996185303</ele>
        <time>2019-04-02T08:51:33.000Z</time>
      </trkpt>
      <trkpt lat="47.25029" lon="-1.53878">
        <ele>8.6000003814697</ele>
        <time>2019-04-02T08:51:34.000Z</time>
      </trkpt>
      <trkpt lat="47.25028" lon="-1.53876">
        <ele>9</ele>
        <time>2019-04-02T08:51:35.000Z</time>
      </trkpt>
      <trkpt lat="47.25027" lon="-1.53875">
        <ele>9.1999998092651</ele>
        <time>2019-04-02T08:51:36.000Z</time>
      </trkpt>
      <trkpt lat="47.25026" lon="-1.53874">
        <ele>9.3999996185303</ele>
        <time>2019-04-02T08:51:37.000Z</time>
      </trkpt>
      <trkpt lat="47.25024" lon="-1.53872">
        <ele>9.8000001907349</ele>
        <time>2019-04-02T08:51:38.000Z</time>
      </trkpt>
      <trkpt lat="47.25024" lon="-1.53872">
        <ele>9.8000001907349</ele>
        <time>2019-04-02T08:51:39.000Z</time>
      </trkpt>
      <trkpt lat="47.25023" lon="-1.5387">
        <ele>9.8000001907349</ele>
        <time>2019-04-02T08:51:40.000Z</time>
      </trkpt>
      <trkpt lat="47.25023" lon="-1.53869">
        <ele>10</ele>
        <time>2019-04-02T08:51:41.000Z</time>
      </trkpt>
      <trkpt lat="47.25023" lon="-1.53867">
        <ele>10</ele>
        <time>2019-04-02T08:51:42.000Z</time>
      </trkpt>
      <trkpt lat="47.25022" lon="-1.53865">
        <ele>10.199999809265</ele>
        <time>2019-04-02T08:51:43.000Z</time>
      </trkpt>
      <trkpt lat="47.25022" lon="-1.53863">
        <ele>10.199999809265</ele>
        <time>2019-04-02T08:51:44.000Z</time>
      </trkpt>
      <trkpt lat="47.25021" lon="-1.53861">
        <ele>10.39999961853</ele>
        <time>2019-04-02T08:51:45.000Z</time>
      </trkpt>
      <trkpt lat="47.2502" lon="-1.53859">
        <ele>10.39999961853</ele>
        <time>2019-04-02T08:51:46.000Z</time>
      </trkpt>
      <trkpt lat="47.2502" lon="-1.53857">
        <ele>10.60000038147</ele>
        <time>2019-04-02T08:51:47.000Z</time>
      </trkpt>
      <trkpt lat="47.25019" lon="-1.53855">
        <ele>10.800000190735</ele>
        <time>2019-04-02T08:51:48.000Z</time>
      </trkpt>
      <trkpt lat="47.25018" lon="-1.53854">
        <ele>10.800000190735</ele>
        <time>2019-04-02T08:51:49.000Z</time>
      </trkpt>
      <trkpt lat="47.25017" lon="-1.53852">
        <ele>11</ele>
        <time>2019-04-02T08:51:50.000Z</time>
      </trkpt>
      <trkpt lat="47.25017" lon="-1.5385">
        <ele>11</ele>
        <time>2019-04-02T08:51:51.000Z</time>
      </trkpt>
      <trkpt lat="47.25016" lon="-1.53847">
        <ele>11.199999809265</ele>
        <time>2019-04-02T08:51:52.000Z</time>
      </trkpt>
      <trkpt lat="47.25016" lon="-1.53847">
        <ele>11.199999809265</ele>
        <time>2019-04-02T08:51:53.000Z</time>
      </trkpt>
      <trkpt lat="47.25016" lon="-1.53845">
        <ele>11.39999961853</ele>
        <time>2019-04-02T08:51:54.000Z</time>
      </trkpt>
      <trkpt lat="47.25016" lon="-1.53843">
        <ele>11.39999961853</ele>
        <time>2019-04-02T08:51:55.000Z</time>
      </trkpt>
      <trkpt lat="47.25016" lon="-1.53841">
        <ele>11.60000038147</ele>
        <time>2019-04-02T08:51:56.000Z</time>
      </trkpt>
      <trkpt lat="47.25017" lon="-1.53838">
        <ele>11.800000190735</ele>
        <time>2019-04-02T08:51:57.000Z</time>
      </trkpt>
      <trkpt lat="47.25018" lon="-1.53836">
        <ele>11.800000190735</ele>
        <time>2019-04-02T08:51:58.000Z</time>
      </trkpt>
      <trkpt lat="47.25019" lon="-1.53834">
        <ele>12</ele>
        <time>2019-04-02T08:51:59.000Z</time>
      </trkpt>
      <trkpt lat="47.25019" lon="-1.53832">
        <ele>12</ele>
        <time>2019-04-02T08:52:00.000Z</time>
      </trkpt>
      <trkpt lat="47.25021" lon="-1.53831">
        <ele>12.199999809265</ele>
        <time>2019-04-02T08:52:01.000Z</time>
      </trkpt>
      <trkpt lat="47.25024" lon="-1.53828">
        <ele>12.39999961853</ele>
        <time>2019-04-02T08:52:02.000Z</time>
      </trkpt>
      <trkpt lat="47.25024" lon="-1.53828">
        <ele>12.39999961853</ele>
        <time>2019-04-02T08:52:03.000Z</time>
      </trkpt>
      <trkpt lat="47.25026" lon="-1.53827">
        <ele>12.39999961853</ele>
        <time>2019-04-02T08:52:04.000Z</time>
      </trkpt>
      <trkpt lat="47.25027" lon="-1.53826">
        <ele>12.39999961853</ele>
        <time>2019-04-02T08:52:05.000Z</time>
      </trkpt>
      <trkpt lat="47.25029" lon="-1.53826">
        <ele>12.39999961853</ele>
        <time>2019-04-02T08:52:06.000Z</time>
      </trkpt>
      <trkpt lat="47.2503" lon="-1.53826">
        <ele>12.39999961853</ele>
        <time>2019-04-02T08:52:07.000Z</time>
      </trkpt>
      <trkpt lat="47.25032" lon="-1.53826">
        <ele>12.39999961853</ele>
        <time>2019-04-02T08:52:08.000Z</time>
      </trkpt>
      <trkpt lat="47.25033" lon="-1.53827">
        <ele>12.39999961853</ele>
        <time>2019-04-02T08:52:09.000Z</time>
      </trkpt>
      <trkpt lat="47.25034" lon="-1.53827">
        <ele>12.39999961853</ele>
        <time>2019-04-02T08:52:10.000Z</time>
      </trkpt>
      <trkpt lat="47.25037" lon="-1.53826">
        <ele>12.39999961853</ele>
        <time>2019-04-02T08:52:11.000Z</time>
      </trkpt>
      <trkpt lat="47.25037" lon="-1.53826">
        <ele>12.39999961853</ele>
        <time>2019-04-02T08:52:12.000Z</time>
      </trkpt>
      <trkpt lat="47.25039" lon="-1.53827">
        <ele>12.39999961853</ele>
        <time>2019-04-02T08:52:13.000Z</time>
      </trkpt>
      <trkpt lat="47.2504" lon="-1.53827">
        <ele>12.39999961853</ele>
        <time>2019-04-02T08:52:14.000Z</time>
      </trkpt>
      <trkpt lat="47.25041" lon="-1.53828">
        <ele>12.39999961853</ele>
        <time>2019-04-02T08:52:15.000Z</time>
      </trkpt>
      <trkpt lat="47.25044" lon="-1.53829">
        <ele>12.199999809265</ele>
        <time>2019-04-02T08:52:16.000Z</time>
      </trkpt>
      <trkpt lat="47.25044" lon="-1.53829">
        <ele>12.199999809265</ele>
        <time>2019-04-02T08:52:17.000Z</time>
      </trkpt>
      <trkpt lat="47.25045" lon="-1.5383">
        <ele>12.199999809265</ele>
        <time>2019-04-02T08:52:18.000Z</time>
      </trkpt>
      <trkpt lat="47.25046" lon="-1.53831">
        <ele>12.199999809265</ele>
        <time>2019-04-02T08:52:19.000Z</time>
      </trkpt>
      <trkpt lat="47.25048" lon="-1.53832">
        <ele>12.199999809265</ele>
        <time>2019-04-02T08:52:20.000Z</time>
      </trkpt>
      <trkpt lat="47.25049" lon="-1.53833">
        <ele>12</ele>
        <time>2019-04-02T08:52:21.000Z</time>
      </trkpt>
      <trkpt lat="47.2505" lon="-1.53834">
        <ele>12</ele>
        <time>2019-04-02T08:52:22.000Z</time>
      </trkpt>
      <trkpt lat="47.25051" lon="-1.53836">
        <ele>11.800000190735</ele>
        <time>2019-04-02T08:52:23.000Z</time>
      </trkpt>
      <trkpt lat="47.25052" lon="-1.53837">
        <ele>11.800000190735</ele>
        <time>2019-04-02T08:52:24.000Z</time>
      </trkpt>
      <trkpt lat="47.25053" lon="-1.53838">
        <ele>11.800000190735</ele>
        <time>2019-04-02T08:52:25.000Z</time>
      </trkpt>
      <trkpt lat="47.25054" lon="-1.5384">
        <ele>11.60000038147</ele>
        <time>2019-04-02T08:52:26.000Z</time>
      </trkpt>
      <trkpt lat="47.25055" lon="-1.53842">
        <ele>11.39999961853</ele>
        <time>2019-04-02T08:52:27.000Z</time>
      </trkpt>
      <trkpt lat="47.25056" lon="-1.53844">
        <ele>11</ele>
        <time>2019-04-02T08:52:28.000Z</time>
      </trkpt>
      <trkpt lat="47.25057" lon="-1.53847">
        <ele>10.800000190735</ele>
        <time>2019-04-02T08:52:29.000Z</time>
      </trkpt>
      <trkpt lat="47.25058" lon="-1.53849">
        <ele>10.39999961853</ele>
        <time>2019-04-02T08:52:30.000Z</time>
      </trkpt>
      <trkpt lat="47.25059" lon="-1.53852">
        <ele>9.8000001907349</ele>
        <time>2019-04-02T08:52:31.000Z</time>
      </trkpt>
      <trkpt lat="47.25059" lon="-1.53852">
        <ele>9.8000001907349</ele>
        <time>2019-04-02T08:52:32.000Z</time>
      </trkpt>
      <trkpt lat="47.2506" lon="-1.53854">
        <ele>9.6000003814697</ele>
        <time>2019-04-02T08:52:33.000Z</time>
      </trkpt>
      <trkpt lat="47.25061" lon="-1.53855">
        <ele>9.1999998092651</ele>
        <time>2019-04-02T08:52:34.000Z</time>
      </trkpt>
      <trkpt lat="47.25062" lon="-1.53857">
        <ele>9</ele>
        <time>2019-04-02T08:52:35.000Z</time>
      </trkpt>
      <trkpt lat="47.25063" lon="-1.53858">
        <ele>8.8000001907349</ele>
        <time>2019-04-02T08:52:36.000Z</time>
      </trkpt>
      <trkpt lat="47.25064" lon="-1.5386">
        <ele>8.3999996185303</ele>
        <time>2019-04-02T08:52:37.000Z</time>
      </trkpt>
      <trkpt lat="47.25064" lon="-1.53861">
        <ele>8.1999998092651</ele>
        <time>2019-04-02T08:52:38.000Z</time>
      </trkpt>
      <trkpt lat="47.25065" lon="-1.53863">
        <ele>8</ele>
        <time>2019-04-02T08:52:39.000Z</time>
      </trkpt>
      <trkpt lat="47.25066" lon="-1.53864">
        <ele>7.8000001907349</ele>
        <time>2019-04-02T08:52:40.000Z</time>
      </trkpt>
      <trkpt lat="47.25068" lon="-1.53865">
        <ele>7.4000000953674</ele>
        <time>2019-04-02T08:52:41.000Z</time>
      </trkpt>
      <trkpt lat="47.25069" lon="-1.53867">
        <ele>7.1999998092651</ele>
        <time>2019-04-02T08:52:42.000Z</time>
      </trkpt>
      <trkpt lat="47.25071" lon="-1.53868">
        <ele>7</ele>
        <time>2019-04-02T08:52:43.000Z</time>
      </trkpt>
      <trkpt lat="47.25072" lon="-1.53868">
        <ele>6.8000001907349</ele>
        <time>2019-04-02T08:52:44.000Z</time>
      </trkpt>
      <trkpt lat="47.25073" lon="-1.53869">
        <ele>6.5999999046326</ele>
        <time>2019-04-02T08:52:45.000Z</time>
      </trkpt>
      <trkpt lat="47.25075" lon="-1.5387">
        <ele>6.4000000953674</ele>
        <time>2019-04-02T08:52:46.000Z</time>
      </trkpt>
      <trkpt lat="47.25076" lon="-1.5387">
        <ele>6.1999998092651</ele>
        <time>2019-04-02T08:52:47.000Z</time>
      </trkpt>
      <trkpt lat="47.25078" lon="-1.53871">
        <ele>6</ele>
        <time>2019-04-02T08:52:48.000Z</time>
      </trkpt>
      <trkpt lat="47.25079" lon="-1.53871">
        <ele>5.8000001907349</ele>
        <time>2019-04-02T08:52:49.000Z</time>
      </trkpt>
      <trkpt lat="47.25081" lon="-1.53872">
        <ele>5.8000001907349</ele>
        <time>2019-04-02T08:52:50.000Z</time>
      </trkpt>
      <trkpt lat="47.25082" lon="-1.53872">
        <ele>5.8000001907349</ele>
        <time>2019-04-02T08:52:51.000Z</time>
      </trkpt>
      <trkpt lat="47.25084" lon="-1.53872">
        <ele>5.5999999046326</ele>
        <time>2019-04-02T08:52:52.000Z</time>
      </trkpt>
      <trkpt lat="47.25085" lon="-1.53873">
        <ele>5.4000000953674</ele>
        <time>2019-04-02T08:52:53.000Z</time>
      </trkpt>
      <trkpt lat="47.25087" lon="-1.53874">
        <ele>5.4000000953674</ele>
        <time>2019-04-02T08:52:54.000Z</time>
      </trkpt>
      <trkpt lat="47.25088" lon="-1.53875">
        <ele>5.1999998092651</ele>
        <time>2019-04-02T08:52:55.000Z</time>
      </trkpt>
      <trkpt lat="47.2509" lon="-1.53875">
        <ele>5</ele>
        <time>2019-04-02T08:52:56.000Z</time>
      </trkpt>
      <trkpt lat="47.25091" lon="-1.53876">
        <ele>5</ele>
        <time>2019-04-02T08:52:57.000Z</time>
      </trkpt>
      <trkpt lat="47.25092" lon="-1.53877">
        <ele>4.8000001907349</ele>
        <time>2019-04-02T08:52:58.000Z</time>
      </trkpt>
      <trkpt lat="47.25093" lon="-1.53878">
        <ele>4.5999999046326</ele>
        <time>2019-04-02T08:52:59.000Z</time>
      </trkpt>
      <trkpt lat="47.25095" lon="-1.53879">
        <ele>4.4000000953674</ele>
        <time>2019-04-02T08:53:00.000Z</time>
      </trkpt>
      <trkpt lat="47.25096" lon="-1.53879">
        <ele>4.4000000953674</ele>
        <time>2019-04-02T08:53:01.000Z</time>
      </trkpt>
      <trkpt lat="47.25098" lon="-1.5388">
        <ele>4.4000000953674</ele>
        <time>2019-04-02T08:53:02.000Z</time>
      </trkpt>
      <trkpt lat="47.25099" lon="-1.5388">
        <ele>4.1999998092651</ele>
        <time>2019-04-02T08:53:03.000Z</time>
      </trkpt>
      <trkpt lat="47.25101" lon="-1.5388">
        <ele>4.1999998092651</ele>
        <time>2019-04-02T08:53:04.000Z</time>
      </trkpt>
      <trkpt lat="47.25103" lon="-1.53881">
        <ele>4.1999998092651</ele>
        <time>2019-04-02T08:53:05.000Z</time>
      </trkpt>
      <trkpt lat="47.25104" lon="-1.53881">
        <ele>4.1999998092651</ele>
        <time>2019-04-02T08:53:06.000Z</time>
      </trkpt>
      <trkpt lat="47.25106" lon="-1.53882">
        <ele>4.1999998092651</ele>
        <time>2019-04-02T08:53:07.000Z</time>
      </trkpt>
      <trkpt lat="47.25108" lon="-1.53883">
        <ele>4</ele>
        <time>2019-04-02T08:53:08.000Z</time>
      </trkpt>
      <trkpt lat="47.25109" lon="-1.53883">
        <ele>4</ele>
        <time>2019-04-02T08:53:09.000Z</time>
      </trkpt>
      <trkpt lat="47.25112" lon="-1.53884">
        <ele>4</ele>
        <time>2019-04-02T08:53:10.000Z</time>
      </trkpt>
      <trkpt lat="47.25112" lon="-1.53884">
        <ele>4</ele>
        <time>2019-04-02T08:53:11.000Z</time>
      </trkpt>
      <trkpt lat="47.25113" lon="-1.53884">
        <ele>4</ele>
        <time>2019-04-02T08:53:12.000Z</time>
      </trkpt>
      <trkpt lat="47.25114" lon="-1.53884">
        <ele>4</ele>
        <time>2019-04-02T08:53:13.000Z</time>
      </trkpt>
      <trkpt lat="47.25116" lon="-1.53884">
        <ele>4</ele>
        <time>2019-04-02T08:53:14.000Z</time>
      </trkpt>
      <trkpt lat="47.25117" lon="-1.53884">
        <ele>4</ele>
        <time>2019-04-02T08:53:15.000Z</time>
      </trkpt>
      <trkpt lat="47.25118" lon="-1.53884">
        <ele>4</ele>
        <time>2019-04-02T08:53:16.000Z</time>
      </trkpt>
      <trkpt lat="47.2512" lon="-1.53884">
        <ele>4.1999998092651</ele>
        <time>2019-04-02T08:53:17.000Z</time>
      </trkpt>
      <trkpt lat="47.25121" lon="-1.53883">
        <ele>4.1999998092651</ele>
        <time>2019-04-02T08:53:18.000Z</time>
      </trkpt>
      <trkpt lat="47.25123" lon="-1.53883">
        <ele>4.1999998092651</ele>
        <time>2019-04-02T08:53:19.000Z</time>
      </trkpt>
      <trkpt lat="47.25124" lon="-1.53883">
        <ele>4.1999998092651</ele>
        <time>2019-04-02T08:53:20.000Z</time>
      </trkpt>
      <trkpt lat="47.25125" lon="-1.53882">
        <ele>4.4000000953674</ele>
        <time>2019-04-02T08:53:21.000Z</time>
      </trkpt>
      <trkpt lat="47.25126" lon="-1.53881">
        <ele>4.4000000953674</ele>
        <time>2019-04-02T08:53:22.000Z</time>
      </trkpt>
      <trkpt lat="47.25127" lon="-1.53881">
        <ele>4.4000000953674</ele>
        <time>2019-04-02T08:53:23.000Z</time>
      </trkpt>
      <trkpt lat="47.25128" lon="-1.53881">
        <ele>4.5999999046326</ele>
        <time>2019-04-02T08:53:24.000Z</time>
      </trkpt>
      <trkpt lat="47.2513" lon="-1.5388">
        <ele>4.5999999046326</ele>
        <time>2019-04-02T08:53:25.000Z</time>
      </trkpt>
      <trkpt lat="47.25131" lon="-1.5388">
        <ele>4.5999999046326</ele>
        <time>2019-04-02T08:53:26.000Z</time>
      </trkpt>
      <trkpt lat="47.25132" lon="-1.53879">
        <ele>4.8000001907349</ele>
        <time>2019-04-02T08:53:27.000Z</time>
      </trkpt>
      <trkpt lat="47.25134" lon="-1.53878">
        <ele>4.8000001907349</ele>
        <time>2019-04-02T08:53:28.000Z</time>
      </trkpt>
      <trkpt lat="47.25135" lon="-1.53878">
        <ele>4.8000001907349</ele>
        <time>2019-04-02T08:53:29.000Z</time>
      </trkpt>
      <trkpt lat="47.25137" lon="-1.53877">
        <ele>5</ele>
        <time>2019-04-02T08:53:30.000Z</time>
      </trkpt>
      <trkpt lat="47.2514" lon="-1.53878">
        <ele>5</ele>
        <time>2019-04-02T08:53:31.000Z</time>
      </trkpt>
      <trkpt lat="47.2514" lon="-1.53878">
        <ele>5</ele>
        <time>2019-04-02T08:53:32.000Z</time>
      </trkpt>
      <trkpt lat="47.25142" lon="-1.53878">
        <ele>5</ele>
        <time>2019-04-02T08:53:33.000Z</time>
      </trkpt>
      <trkpt lat="47.25143" lon="-1.53878">
        <ele>5</ele>
        <time>2019-04-02T08:53:34.000Z</time>
      </trkpt>
      <trkpt lat="47.25144" lon="-1.53878">
        <ele>5</ele>
        <time>2019-04-02T08:53:35.000Z</time>
      </trkpt>
      <trkpt lat="47.25146" lon="-1.53878">
        <ele>5</ele>
        <time>2019-04-02T08:53:36.000Z</time>
      </trkpt>
      <trkpt lat="47.25147" lon="-1.53878">
        <ele>5</ele>
        <time>2019-04-02T08:53:37.000Z</time>
      </trkpt>
      <trkpt lat="47.25149" lon="-1.53877">
        <ele>5</ele>
        <time>2019-04-02T08:53:38.000Z</time>
      </trkpt>
      <trkpt lat="47.25149" lon="-1.53877">
        <ele>5</ele>
        <time>2019-04-02T08:53:39.000Z</time>
      </trkpt>
      <trkpt lat="47.25152" lon="-1.53877">
        <ele>5.1999998092651</ele>
        <time>2019-04-02T08:53:40.000Z</time>
      </trkpt>
      <trkpt lat="47.25152" lon="-1.53877">
        <ele>5.1999998092651</ele>
        <time>2019-04-02T08:53:41.000Z</time>
      </trkpt>
      <trkpt lat="47.25153" lon="-1.53877">
        <ele>5.1999998092651</ele>
        <time>2019-04-02T08:53:42.000Z</time>
      </trkpt>
      <trkpt lat="47.25154" lon="-1.53876">
        <ele>5.1999998092651</ele>
        <time>2019-04-02T08:53:43.000Z</time>
      </trkpt>
      <trkpt lat="47.25156" lon="-1.53876">
        <ele>5.4000000953674</ele>
        <time>2019-04-02T08:53:44.000Z</time>
      </trkpt>
      <trkpt lat="47.25157" lon="-1.53875">
        <ele>5.4000000953674</ele>
        <time>2019-04-02T08:53:45.000Z</time>
      </trkpt>
      <trkpt lat="47.25158" lon="-1.53875">
        <ele>5.4000000953674</ele>
        <time>2019-04-02T08:53:46.000Z</time>
      </trkpt>
      <trkpt lat="47.25159" lon="-1.53874">
        <ele>5.4000000953674</ele>
        <time>2019-04-02T08:53:47.000Z</time>
      </trkpt>
      <trkpt lat="47.25161" lon="-1.53874">
        <ele>5.5999999046326</ele>
        <time>2019-04-02T08:53:48.000Z</time>
      </trkpt>
      <trkpt lat="47.25162" lon="-1.53873">
        <ele>5.5999999046326</ele>
        <time>2019-04-02T08:53:49.000Z</time>
      </trkpt>
      <trkpt lat="47.25163" lon="-1.53873">
        <ele>5.5999999046326</ele>
        <time>2019-04-02T08:53:50.000Z</time>
      </trkpt>
      <trkpt lat="47.25165" lon="-1.53872">
        <ele>5.5999999046326</ele>
        <time>2019-04-02T08:53:51.000Z</time>
      </trkpt>
      <trkpt lat="47.25166" lon="-1.53871">
        <ele>5.8000001907349</ele>
        <time>2019-04-02T08:53:52.000Z</time>
      </trkpt>
      <trkpt lat="47.25167" lon="-1.5387">
        <ele>5.8000001907349</ele>
        <time>2019-04-02T08:53:53.000Z</time>
      </trkpt>
      <trkpt lat="47.25169" lon="-1.53869">
        <ele>5.8000001907349</ele>
        <time>2019-04-02T08:53:54.000Z</time>
      </trkpt>
      <trkpt lat="47.2517" lon="-1.53869">
        <ele>5.8000001907349</ele>
        <time>2019-04-02T08:53:55.000Z</time>
      </trkpt>
      <trkpt lat="47.25172" lon="-1.53868">
        <ele>5.8000001907349</ele>
        <time>2019-04-02T08:53:56.000Z</time>
      </trkpt>
      <trkpt lat="47.25173" lon="-1.53868">
        <ele>5.8000001907349</ele>
        <time>2019-04-02T08:53:57.000Z</time>
      </trkpt>
      <trkpt lat="47.25175" lon="-1.53867">
        <ele>5.8000001907349</ele>
        <time>2019-04-02T08:53:58.000Z</time>
      </trkpt>
      <trkpt lat="47.25176" lon="-1.53867">
        <ele>5.8000001907349</ele>
        <time>2019-04-02T08:53:59.000Z</time>
      </trkpt>
      <trkpt lat="47.25177" lon="-1.53866">
        <ele>5.8000001907349</ele>
        <time>2019-04-02T08:54:00.000Z</time>
      </trkpt>
      <trkpt lat="47.25178" lon="-1.53866">
        <ele>5.8000001907349</ele>
        <time>2019-04-02T08:54:01.000Z</time>
      </trkpt>
      <trkpt lat="47.2518" lon="-1.53866">
        <ele>5.5999999046326</ele>
        <time>2019-04-02T08:54:02.000Z</time>
      </trkpt>
      <trkpt lat="47.2518" lon="-1.53866">
        <ele>5.5999999046326</ele>
        <time>2019-04-02T08:54:03.000Z</time>
      </trkpt>
      <trkpt lat="47.25182" lon="-1.53866">
        <ele>5.5999999046326</ele>
        <time>2019-04-02T08:54:04.000Z</time>
      </trkpt>
      <trkpt lat="47.25183" lon="-1.53865">
        <ele>5.5999999046326</ele>
        <time>2019-04-02T08:54:05.000Z</time>
      </trkpt>
      <trkpt lat="47.25185" lon="-1.53865">
        <ele>5.5999999046326</ele>
        <time>2019-04-02T08:54:06.000Z</time>
      </trkpt>
      <trkpt lat="47.25187" lon="-1.53864">
        <ele>5.5999999046326</ele>
        <time>2019-04-02T08:54:07.000Z</time>
      </trkpt>
      <trkpt lat="47.25188" lon="-1.53864">
        <ele>5.5999999046326</ele>
        <time>2019-04-02T08:54:08.000Z</time>
      </trkpt>
      <trkpt lat="47.2519" lon="-1.53864">
        <ele>5.4000000953674</ele>
        <time>2019-04-02T08:54:09.000Z</time>
      </trkpt>
      <trkpt lat="47.25194" lon="-1.53865">
        <ele>5.1999998092651</ele>
        <time>2019-04-02T08:54:10.000Z</time>
      </trkpt>
      <trkpt lat="47.25194" lon="-1.53865">
        <ele>5.1999998092651</ele>
        <time>2019-04-02T08:54:11.000Z</time>
      </trkpt>
      <trkpt lat="47.25195" lon="-1.53865">
        <ele>5.1999998092651</ele>
        <time>2019-04-02T08:54:12.000Z</time>
      </trkpt>
      <trkpt lat="47.25197" lon="-1.53865">
        <ele>5.1999998092651</ele>
        <time>2019-04-02T08:54:13.000Z</time>
      </trkpt>
      <trkpt lat="47.25198" lon="-1.53864">
        <ele>5.1999998092651</ele>
        <time>2019-04-02T08:54:14.000Z</time>
      </trkpt>
      <trkpt lat="47.25201" lon="-1.53864">
        <ele>5.1999998092651</ele>
        <time>2019-04-02T08:54:15.000Z</time>
      </trkpt>
      <trkpt lat="47.25201" lon="-1.53864">
        <ele>5.1999998092651</ele>
        <time>2019-04-02T08:54:16.000Z</time>
      </trkpt>
      <trkpt lat="47.25203" lon="-1.53863">
        <ele>5.1999998092651</ele>
        <time>2019-04-02T08:54:17.000Z</time>
      </trkpt>
      <trkpt lat="47.25205" lon="-1.53862">
        <ele>5.4000000953674</ele>
        <time>2019-04-02T08:54:18.000Z</time>
      </trkpt>
      <trkpt lat="47.25205" lon="-1.53862">
        <ele>5.4000000953674</ele>
        <time>2019-04-02T08:54:19.000Z</time>
      </trkpt>
      <trkpt lat="47.25207" lon="-1.53862">
        <ele>5.4000000953674</ele>
        <time>2019-04-02T08:54:20.000Z</time>
      </trkpt>
      <trkpt lat="47.25208" lon="-1.53862">
        <ele>5.4000000953674</ele>
        <time>2019-04-02T08:54:21.000Z</time>
      </trkpt>
      <trkpt lat="47.25209" lon="-1.53861">
        <ele>5.4000000953674</ele>
        <time>2019-04-02T08:54:22.000Z</time>
      </trkpt>
      <trkpt lat="47.25211" lon="-1.53861">
        <ele>5.4000000953674</ele>
        <time>2019-04-02T08:54:23.000Z</time>
      </trkpt>
      <trkpt lat="47.25213" lon="-1.5386">
        <ele>5.4000000953674</ele>
        <time>2019-04-02T08:54:24.000Z</time>
      </trkpt>
      <trkpt lat="47.25215" lon="-1.5386">
        <ele>5.4000000953674</ele>
        <time>2019-04-02T08:54:25.000Z</time>
      </trkpt>
      <trkpt lat="47.25217" lon="-1.5386">
        <ele>5.4000000953674</ele>
        <time>2019-04-02T08:54:26.000Z</time>
      </trkpt>
      <trkpt lat="47.25218" lon="-1.53859">
        <ele>5.4000000953674</ele>
        <time>2019-04-02T08:54:27.000Z</time>
      </trkpt>
      <trkpt lat="47.25219" lon="-1.53859">
        <ele>5.5999999046326</ele>
        <time>2019-04-02T08:54:28.000Z</time>
      </trkpt>
      <trkpt lat="47.2522" lon="-1.53858">
        <ele>5.5999999046326</ele>
        <time>2019-04-02T08:54:29.000Z</time>
      </trkpt>
      <trkpt lat="47.25221" lon="-1.53858">
        <ele>5.5999999046326</ele>
        <time>2019-04-02T08:54:30.000Z</time>
      </trkpt>
      <trkpt lat="47.25222" lon="-1.53857">
        <ele>5.5999999046326</ele>
        <time>2019-04-02T08:54:31.000Z</time>
      </trkpt>
      <trkpt lat="47.25223" lon="-1.53856">
        <ele>5.5999999046326</ele>
        <time>2019-04-02T08:54:32.000Z</time>
      </trkpt>
      <trkpt lat="47.25225" lon="-1.53855">
        <ele>5.8000001907349</ele>
        <time>2019-04-02T08:54:33.000Z</time>
      </trkpt>
      <trkpt lat="47.25226" lon="-1.53854">
        <ele>5.8000001907349</ele>
        <time>2019-04-02T08:54:34.000Z</time>
      </trkpt>
      <trkpt lat="47.25227" lon="-1.53853">
        <ele>5.8000001907349</ele>
        <time>2019-04-02T08:54:35.000Z</time>
      </trkpt>
      <trkpt lat="47.25228" lon="-1.53852">
        <ele>5.8000001907349</ele>
        <time>2019-04-02T08:54:36.000Z</time>
      </trkpt>
      <trkpt lat="47.2523" lon="-1.53851">
        <ele>6</ele>
        <time>2019-04-02T08:54:37.000Z</time>
      </trkpt>
      <trkpt lat="47.25231" lon="-1.5385">
        <ele>6</ele>
        <time>2019-04-02T08:54:38.000Z</time>
      </trkpt>
      <trkpt lat="47.25233" lon="-1.53849">
        <ele>6.1999998092651</ele>
        <time>2019-04-02T08:54:39.000Z</time>
      </trkpt>
      <trkpt lat="47.25234" lon="-1.53848">
        <ele>6.1999998092651</ele>
        <time>2019-04-02T08:54:40.000Z</time>
      </trkpt>
      <trkpt lat="47.25235" lon="-1.53846">
        <ele>6.1999998092651</ele>
        <time>2019-04-02T08:54:41.000Z</time>
      </trkpt>
      <trkpt lat="47.25237" lon="-1.53845">
        <ele>6.4000000953674</ele>
        <time>2019-04-02T08:54:42.000Z</time>
      </trkpt>
      <trkpt lat="47.25238" lon="-1.53843">
        <ele>6.4000000953674</ele>
        <time>2019-04-02T08:54:43.000Z</time>
      </trkpt>
      <trkpt lat="47.25239" lon="-1.53842">
        <ele>6.5999999046326</ele>
        <time>2019-04-02T08:54:44.000Z</time>
      </trkpt>
      <trkpt lat="47.2524" lon="-1.53841">
        <ele>6.5999999046326</ele>
        <time>2019-04-02T08:54:45.000Z</time>
      </trkpt>
      <trkpt lat="47.25242" lon="-1.5384">
        <ele>6.5999999046326</ele>
        <time>2019-04-02T08:54:46.000Z</time>
      </trkpt>
      <trkpt lat="47.25243" lon="-1.53838">
        <ele>6.8000001907349</ele>
        <time>2019-04-02T08:54:47.000Z</time>
      </trkpt>
      <trkpt lat="47.25244" lon="-1.53837">
        <ele>6.8000001907349</ele>
        <time>2019-04-02T08:54:48.000Z</time>
      </trkpt>
      <trkpt lat="47.25246" lon="-1.53834">
        <ele>7</ele>
        <time>2019-04-02T08:54:49.000Z</time>
      </trkpt>
      <trkpt lat="47.25246" lon="-1.53834">
        <ele>7</ele>
        <time>2019-04-02T08:54:50.000Z</time>
      </trkpt>
      <trkpt lat="47.25247" lon="-1.53833">
        <ele>7</ele>
        <time>2019-04-02T08:54:51.000Z</time>
      </trkpt>
      <trkpt lat="47.25248" lon="-1.53831">
        <ele>7.1999998092651</ele>
        <time>2019-04-02T08:54:52.000Z</time>
      </trkpt>
      <trkpt lat="47.2525" lon="-1.53829">
        <ele>7.4000000953674</ele>
        <time>2019-04-02T08:54:53.000Z</time>
      </trkpt>
      <trkpt lat="47.25252" lon="-1.53827">
        <ele>7.4000000953674</ele>
        <time>2019-04-02T08:54:54.000Z</time>
      </trkpt>
      <trkpt lat="47.25254" lon="-1.53826">
        <ele>7.4000000953674</ele>
        <time>2019-04-02T08:54:55.000Z</time>
      </trkpt>
      <trkpt lat="47.25256" lon="-1.53825">
        <ele>7.5999999046326</ele>
        <time>2019-04-02T08:54:56.000Z</time>
      </trkpt>
      <trkpt lat="47.25258" lon="-1.53824">
        <ele>7.5999999046326</ele>
        <time>2019-04-02T08:54:57.000Z</time>
      </trkpt>
      <trkpt lat="47.25259" lon="-1.53823">
        <ele>7.5999999046326</ele>
        <time>2019-04-02T08:54:58.000Z</time>
      </trkpt>
      <trkpt lat="47.25261" lon="-1.53823">
        <ele>7.5999999046326</ele>
        <time>2019-04-02T08:54:59.000Z</time>
      </trkpt>
      <trkpt lat="47.25263" lon="-1.53823">
        <ele>7.5999999046326</ele>
        <time>2019-04-02T08:55:00.000Z</time>
      </trkpt>
      <trkpt lat="47.25264" lon="-1.53822">
        <ele>7.5999999046326</ele>
        <time>2019-04-02T08:55:01.000Z</time>
      </trkpt>
      <trkpt lat="47.25266" lon="-1.53822">
        <ele>7.8000001907349</ele>
        <time>2019-04-02T08:55:02.000Z</time>
      </trkpt>
      <trkpt lat="47.25267" lon="-1.53821">
        <ele>7.8000001907349</ele>
        <time>2019-04-02T08:55:03.000Z</time>
      </trkpt>
      <trkpt lat="47.25268" lon="-1.53821">
        <ele>7.8000001907349</ele>
        <time>2019-04-02T08:55:04.000Z</time>
      </trkpt>
      <trkpt lat="47.25269" lon="-1.5382">
        <ele>7.8000001907349</ele>
        <time>2019-04-02T08:55:05.000Z</time>
      </trkpt>
      <trkpt lat="47.2527" lon="-1.53819">
        <ele>7.8000001907349</ele>
        <time>2019-04-02T08:55:06.000Z</time>
      </trkpt>
      <trkpt lat="47.25272" lon="-1.53819">
        <ele>8</ele>
        <time>2019-04-02T08:55:07.000Z</time>
      </trkpt>
      <trkpt lat="47.25273" lon="-1.53818">
        <ele>8</ele>
        <time>2019-04-02T08:55:08.000Z</time>
      </trkpt>
      <trkpt lat="47.25277" lon="-1.53816">
        <ele>8.1999998092651</ele>
        <time>2019-04-02T08:55:09.000Z</time>
      </trkpt>
      <trkpt lat="47.25277" lon="-1.53816">
        <ele>8.1999998092651</ele>
        <time>2019-04-02T08:55:10.000Z</time>
      </trkpt>
      <trkpt lat="47.25279" lon="-1.53815">
        <ele>8.1999998092651</ele>
        <time>2019-04-02T08:55:11.000Z</time>
      </trkpt>
      <trkpt lat="47.2528" lon="-1.53814">
        <ele>8.1999998092651</ele>
        <time>2019-04-02T08:55:12.000Z</time>
      </trkpt>
      <trkpt lat="47.25282" lon="-1.53813">
        <ele>8.3999996185303</ele>
        <time>2019-04-02T08:55:13.000Z</time>
      </trkpt>
      <trkpt lat="47.25284" lon="-1.53812">
        <ele>8.3999996185303</ele>
        <time>2019-04-02T08:55:14.000Z</time>
      </trkpt>
      <trkpt lat="47.25286" lon="-1.53811">
        <ele>8.6000003814697</ele>
        <time>2019-04-02T08:55:15.000Z</time>
      </trkpt>
      <trkpt lat="47.25288" lon="-1.53811">
        <ele>8.6000003814697</ele>
        <time>2019-04-02T08:55:16.000Z</time>
      </trkpt>
      <trkpt lat="47.25289" lon="-1.53811">
        <ele>8.6000003814697</ele>
        <time>2019-04-02T08:55:17.000Z</time>
      </trkpt>
      <trkpt lat="47.2529" lon="-1.53811">
        <ele>8.6000003814697</ele>
        <time>2019-04-02T08:55:18.000Z</time>
      </trkpt>
      <trkpt lat="47.25292" lon="-1.53811">
        <ele>8.6000003814697</ele>
        <time>2019-04-02T08:55:19.000Z</time>
      </trkpt>
      <trkpt lat="47.25293" lon="-1.53811">
        <ele>8.6000003814697</ele>
        <time>2019-04-02T08:55:20.000Z</time>
      </trkpt>
      <trkpt lat="47.25294" lon="-1.5381">
        <ele>8.6000003814697</ele>
        <time>2019-04-02T08:55:21.000Z</time>
      </trkpt>
      <trkpt lat="47.25295" lon="-1.5381">
        <ele>8.6000003814697</ele>
        <time>2019-04-02T08:55:22.000Z</time>
      </trkpt>
      <trkpt lat="47.25296" lon="-1.5381">
        <ele>8.6000003814697</ele>
        <time>2019-04-02T08:55:23.000Z</time>
      </trkpt>
      <trkpt lat="47.25298" lon="-1.5381">
        <ele>8.6000003814697</ele>
        <time>2019-04-02T08:55:24.000Z</time>
      </trkpt>
      <trkpt lat="47.25299" lon="-1.5381">
        <ele>8.6000003814697</ele>
        <time>2019-04-02T08:55:25.000Z</time>
      </trkpt>
      <trkpt lat="47.25301" lon="-1.5381">
        <ele>8.6000003814697</ele>
        <time>2019-04-02T08:55:26.000Z</time>
      </trkpt>
      <trkpt lat="47.25303" lon="-1.5381">
        <ele>8.6000003814697</ele>
        <time>2019-04-02T08:55:27.000Z</time>
      </trkpt>
      <trkpt lat="47.25306" lon="-1.5381">
        <ele>8.6000003814697</ele>
        <time>2019-04-02T08:55:28.000Z</time>
      </trkpt>
      <trkpt lat="47.25306" lon="-1.5381">
        <ele>8.6000003814697</ele>
        <time>2019-04-02T08:55:29.000Z</time>
      </trkpt>
      <trkpt lat="47.25308" lon="-1.5381">
        <ele>8.6000003814697</ele>
        <time>2019-04-02T08:55:30.000Z</time>
      </trkpt>
      <trkpt lat="47.2531" lon="-1.5381">
        <ele>8.6000003814697</ele>
        <time>2019-04-02T08:55:31.000Z</time>
      </trkpt>
      <trkpt lat="47.25312" lon="-1.5381">
        <ele>8.6000003814697</ele>
        <time>2019-04-02T08:55:32.000Z</time>
      </trkpt>
      <trkpt lat="47.25313" lon="-1.5381">
        <ele>8.6000003814697</ele>
        <time>2019-04-02T08:55:33.000Z</time>
      </trkpt>
      <trkpt lat="47.25314" lon="-1.5381">
        <ele>8.6000003814697</ele>
        <time>2019-04-02T08:55:34.000Z</time>
      </trkpt>
      <trkpt lat="47.25315" lon="-1.5381">
        <ele>8.6000003814697</ele>
        <time>2019-04-02T08:55:35.000Z</time>
      </trkpt>
      <trkpt lat="47.25317" lon="-1.5381">
        <ele>8.6000003814697</ele>
        <time>2019-04-02T08:55:36.000Z</time>
      </trkpt>
      <trkpt lat="47.25318" lon="-1.53809">
        <ele>8.6000003814697</ele>
        <time>2019-04-02T08:55:37.000Z</time>
      </trkpt>
      <trkpt lat="47.25322" lon="-1.53808">
        <ele>8.8000001907349</ele>
        <time>2019-04-02T08:55:38.000Z</time>
      </trkpt>
      <trkpt lat="47.25322" lon="-1.53808">
        <ele>8.8000001907349</ele>
        <time>2019-04-02T08:55:39.000Z</time>
      </trkpt>
      <trkpt lat="47.25323" lon="-1.53809">
        <ele>8.8000001907349</ele>
        <time>2019-04-02T08:55:40.000Z</time>
      </trkpt>
      <trkpt lat="47.25324" lon="-1.53809">
        <ele>8.6000003814697</ele>
        <time>2019-04-02T08:55:41.000Z</time>
      </trkpt>
      <trkpt lat="47.25326" lon="-1.53809">
        <ele>8.6000003814697</ele>
        <time>2019-04-02T08:55:42.000Z</time>
      </trkpt>
      <trkpt lat="47.25328" lon="-1.53809">
        <ele>8.6000003814697</ele>
        <time>2019-04-02T08:55:43.000Z</time>
      </trkpt>
      <trkpt lat="47.25329" lon="-1.53809">
        <ele>8.8000001907349</ele>
        <time>2019-04-02T08:55:44.000Z</time>
      </trkpt>
      <trkpt lat="47.25331" lon="-1.53809">
        <ele>8.8000001907349</ele>
        <time>2019-04-02T08:55:45.000Z</time>
      </trkpt>
      <trkpt lat="47.25332" lon="-1.53808">
        <ele>9</ele>
        <time>2019-04-02T08:55:46.000Z</time>
      </trkpt>
      <trkpt lat="47.25334" lon="-1.53808">
        <ele>9</ele>
        <time>2019-04-02T08:55:47.000Z</time>
      </trkpt>
      <trkpt lat="47.25336" lon="-1.53808">
        <ele>9.1999998092651</ele>
        <time>2019-04-02T08:55:48.000Z</time>
      </trkpt>
      <trkpt lat="47.25337" lon="-1.53808">
        <ele>9.1999998092651</ele>
        <time>2019-04-02T08:55:49.000Z</time>
      </trkpt>
      <trkpt lat="47.25339" lon="-1.53808">
        <ele>9.3999996185303</ele>
        <time>2019-04-02T08:55:50.000Z</time>
      </trkpt>
      <trkpt lat="47.2534" lon="-1.53807">
        <ele>9.3999996185303</ele>
        <time>2019-04-02T08:55:51.000Z</time>
      </trkpt>
      <trkpt lat="47.25342" lon="-1.53808">
        <ele>9.6000003814697</ele>
        <time>2019-04-02T08:55:52.000Z</time>
      </trkpt>
      <trkpt lat="47.25343" lon="-1.53808">
        <ele>9.6000003814697</ele>
        <time>2019-04-02T08:55:53.000Z</time>
      </trkpt>
      <trkpt lat="47.25345" lon="-1.53808">
        <ele>9.6000003814697</ele>
        <time>2019-04-02T08:55:54.000Z</time>
      </trkpt>
      <trkpt lat="47.25348" lon="-1.53808">
        <ele>9.8000001907349</ele>
        <time>2019-04-02T08:55:55.000Z</time>
      </trkpt>
      <trkpt lat="47.25348" lon="-1.53808">
        <ele>9.8000001907349</ele>
        <time>2019-04-02T08:55:56.000Z</time>
      </trkpt>
      <trkpt lat="47.25349" lon="-1.53808">
        <ele>9.8000001907349</ele>
        <time>2019-04-02T08:55:57.000Z</time>
      </trkpt>
      <trkpt lat="47.25351" lon="-1.53808">
        <ele>10</ele>
        <time>2019-04-02T08:55:58.000Z</time>
      </trkpt>
      <trkpt lat="47.25352" lon="-1.53808">
        <ele>10</ele>
        <time>2019-04-02T08:55:59.000Z</time>
      </trkpt>
      <trkpt lat="47.25354" lon="-1.53809">
        <ele>10</ele>
        <time>2019-04-02T08:56:00.000Z</time>
      </trkpt>
      <trkpt lat="47.25356" lon="-1.53809">
        <ele>10</ele>
        <time>2019-04-02T08:56:01.000Z</time>
      </trkpt>
      <trkpt lat="47.25358" lon="-1.53809">
        <ele>10.199999809265</ele>
        <time>2019-04-02T08:56:02.000Z</time>
      </trkpt>
      <trkpt lat="47.25358" lon="-1.53809">
        <ele>10.199999809265</ele>
        <time>2019-04-02T08:56:03.000Z</time>
      </trkpt>
      <trkpt lat="47.2536" lon="-1.53808">
        <ele>10.39999961853</ele>
        <time>2019-04-02T08:56:04.000Z</time>
      </trkpt>
      <trkpt lat="47.25362" lon="-1.53808">
        <ele>10.39999961853</ele>
        <time>2019-04-02T08:56:05.000Z</time>
      </trkpt>
      <trkpt lat="47.25363" lon="-1.53808">
        <ele>10.39999961853</ele>
        <time>2019-04-02T08:56:06.000Z</time>
      </trkpt>
      <trkpt lat="47.25366" lon="-1.53809">
        <ele>10.60000038147</ele>
        <time>2019-04-02T08:56:07.000Z</time>
      </trkpt>
      <trkpt lat="47.25366" lon="-1.53809">
        <ele>10.60000038147</ele>
        <time>2019-04-02T08:56:08.000Z</time>
      </trkpt>
      <trkpt lat="47.25367" lon="-1.53809">
        <ele>10.60000038147</ele>
        <time>2019-04-02T08:56:09.000Z</time>
      </trkpt>
      <trkpt lat="47.25369" lon="-1.53811">
        <ele>10.60000038147</ele>
        <time>2019-04-02T08:56:10.000Z</time>
      </trkpt>
      <trkpt lat="47.25371" lon="-1.53811">
        <ele>10.60000038147</ele>
        <time>2019-04-02T08:56:11.000Z</time>
      </trkpt>
      <trkpt lat="47.25372" lon="-1.53813">
        <ele>10.39999961853</ele>
        <time>2019-04-02T08:56:12.000Z</time>
      </trkpt>
      <trkpt lat="47.25373" lon="-1.53814">
        <ele>10.39999961853</ele>
        <time>2019-04-02T08:56:13.000Z</time>
      </trkpt>
      <trkpt lat="47.25375" lon="-1.53814">
        <ele>10.39999961853</ele>
        <time>2019-04-02T08:56:14.000Z</time>
      </trkpt>
      <trkpt lat="47.25377" lon="-1.53815">
        <ele>10.60000038147</ele>
        <time>2019-04-02T08:56:15.000Z</time>
      </trkpt>
      <trkpt lat="47.25378" lon="-1.53816">
        <ele>10.39999961853</ele>
        <time>2019-04-02T08:56:16.000Z</time>
      </trkpt>
      <trkpt lat="47.2538" lon="-1.53816">
        <ele>10.60000038147</ele>
        <time>2019-04-02T08:56:17.000Z</time>
      </trkpt>
      <trkpt lat="47.25381" lon="-1.53816">
        <ele>10.60000038147</ele>
        <time>2019-04-02T08:56:18.000Z</time>
      </trkpt>
      <trkpt lat="47.25383" lon="-1.53816">
        <ele>10.60000038147</ele>
        <time>2019-04-02T08:56:19.000Z</time>
      </trkpt>
      <trkpt lat="47.25385" lon="-1.53817">
        <ele>10.800000190735</ele>
        <time>2019-04-02T08:56:20.000Z</time>
      </trkpt>
      <trkpt lat="47.25386" lon="-1.53817">
        <ele>10.800000190735</ele>
        <time>2019-04-02T08:56:21.000Z</time>
      </trkpt>
      <trkpt lat="47.25388" lon="-1.53817">
        <ele>10.800000190735</ele>
        <time>2019-04-02T08:56:22.000Z</time>
      </trkpt>
      <trkpt lat="47.2539" lon="-1.53817">
        <ele>11</ele>
        <time>2019-04-02T08:56:23.000Z</time>
      </trkpt>
      <trkpt lat="47.25391" lon="-1.53817">
        <ele>11</ele>
        <time>2019-04-02T08:56:24.000Z</time>
      </trkpt>
      <trkpt lat="47.25393" lon="-1.53816">
        <ele>11.199999809265</ele>
        <time>2019-04-02T08:56:25.000Z</time>
      </trkpt>
      <trkpt lat="47.25394" lon="-1.53816">
        <ele>11.199999809265</ele>
        <time>2019-04-02T08:56:26.000Z</time>
      </trkpt>
      <trkpt lat="47.25398" lon="-1.53815">
        <ele>11.60000038147</ele>
        <time>2019-04-02T08:56:27.000Z</time>
      </trkpt>
      <trkpt lat="47.25398" lon="-1.53815">
        <ele>11.60000038147</ele>
        <time>2019-04-02T08:56:28.000Z</time>
      </trkpt>
      <trkpt lat="47.25399" lon="-1.53815">
        <ele>11.60000038147</ele>
        <time>2019-04-02T08:56:29.000Z</time>
      </trkpt>
      <trkpt lat="47.25401" lon="-1.53815">
        <ele>11.60000038147</ele>
        <time>2019-04-02T08:56:30.000Z</time>
      </trkpt>
      <trkpt lat="47.25402" lon="-1.53816">
        <ele>11.60000038147</ele>
        <time>2019-04-02T08:56:31.000Z</time>
      </trkpt>
      <trkpt lat="47.25404" lon="-1.53816">
        <ele>11.800000190735</ele>
        <time>2019-04-02T08:56:32.000Z</time>
      </trkpt>
      <trkpt lat="47.25405" lon="-1.53816">
        <ele>11.800000190735</ele>
        <time>2019-04-02T08:56:33.000Z</time>
      </trkpt>
      <trkpt lat="47.25407" lon="-1.53816">
        <ele>11.800000190735</ele>
        <time>2019-04-02T08:56:34.000Z</time>
      </trkpt>
      <trkpt lat="47.25409" lon="-1.53817">
        <ele>12</ele>
        <time>2019-04-02T08:56:35.000Z</time>
      </trkpt>
      <trkpt lat="47.25411" lon="-1.53817">
        <ele>12</ele>
        <time>2019-04-02T08:56:36.000Z</time>
      </trkpt>
      <trkpt lat="47.25413" lon="-1.53817">
        <ele>12</ele>
        <time>2019-04-02T08:56:37.000Z</time>
      </trkpt>
      <trkpt lat="47.25415" lon="-1.53817">
        <ele>12</ele>
        <time>2019-04-02T08:56:38.000Z</time>
      </trkpt>
      <trkpt lat="47.25416" lon="-1.53817">
        <ele>11.800000190735</ele>
        <time>2019-04-02T08:56:39.000Z</time>
      </trkpt>
      <trkpt lat="47.25418" lon="-1.53818">
        <ele>11.800000190735</ele>
        <time>2019-04-02T08:56:40.000Z</time>
      </trkpt>
      <trkpt lat="47.2542" lon="-1.53818">
        <ele>11.800000190735</ele>
        <time>2019-04-02T08:56:41.000Z</time>
      </trkpt>
      <trkpt lat="47.25422" lon="-1.53818">
        <ele>11.800000190735</ele>
        <time>2019-04-02T08:56:42.000Z</time>
      </trkpt>
      <trkpt lat="47.25425" lon="-1.53818">
        <ele>11.60000038147</ele>
        <time>2019-04-02T08:56:43.000Z</time>
      </trkpt>
      <trkpt lat="47.25425" lon="-1.53818">
        <ele>11.60000038147</ele>
        <time>2019-04-02T08:56:44.000Z</time>
      </trkpt>
      <trkpt lat="47.25427" lon="-1.53817">
        <ele>11.60000038147</ele>
        <time>2019-04-02T08:56:45.000Z</time>
      </trkpt>
      <trkpt lat="47.25428" lon="-1.53817">
        <ele>11.60000038147</ele>
        <time>2019-04-02T08:56:46.000Z</time>
      </trkpt>
      <trkpt lat="47.2543" lon="-1.53817">
        <ele>11.60000038147</ele>
        <time>2019-04-02T08:56:47.000Z</time>
      </trkpt>
      <trkpt lat="47.25431" lon="-1.53817">
        <ele>11.60000038147</ele>
        <time>2019-04-02T08:56:48.000Z</time>
      </trkpt>
      <trkpt lat="47.25432" lon="-1.53816">
        <ele>11.60000038147</ele>
        <time>2019-04-02T08:56:49.000Z</time>
      </trkpt>
      <trkpt lat="47.25434" lon="-1.53816">
        <ele>11.60000038147</ele>
        <time>2019-04-02T08:56:50.000Z</time>
      </trkpt>
      <trkpt lat="47.25435" lon="-1.53817">
        <ele>11.39999961853</ele>
        <time>2019-04-02T08:56:51.000Z</time>
      </trkpt>
      <trkpt lat="47.25437" lon="-1.53818">
        <ele>11.39999961853</ele>
        <time>2019-04-02T08:56:52.000Z</time>
      </trkpt>
      <trkpt lat="47.25438" lon="-1.53818">
        <ele>11.39999961853</ele>
        <time>2019-04-02T08:56:53.000Z</time>
      </trkpt>
      <trkpt lat="47.2544" lon="-1.53818">
        <ele>11.199999809265</ele>
        <time>2019-04-02T08:56:54.000Z</time>
      </trkpt>
      <trkpt lat="47.25441" lon="-1.53818">
        <ele>11.199999809265</ele>
        <time>2019-04-02T08:56:55.000Z</time>
      </trkpt>
      <trkpt lat="47.25443" lon="-1.53818">
        <ele>11.199999809265</ele>
        <time>2019-04-02T08:56:56.000Z</time>
      </trkpt>
      <trkpt lat="47.25445" lon="-1.53818">
        <ele>11.199999809265</ele>
        <time>2019-04-02T08:56:57.000Z</time>
      </trkpt>
      <trkpt lat="47.25446" lon="-1.53818">
        <ele>11.199999809265</ele>
        <time>2019-04-02T08:56:58.000Z</time>
      </trkpt>
      <trkpt lat="47.25447" lon="-1.53817">
        <ele>11.199999809265</ele>
        <time>2019-04-02T08:56:59.000Z</time>
      </trkpt>
      <trkpt lat="47.25448" lon="-1.53817">
        <ele>11.199999809265</ele>
        <time>2019-04-02T08:57:00.000Z</time>
      </trkpt>
      <trkpt lat="47.25449" lon="-1.53817">
        <ele>11.199999809265</ele>
        <time>2019-04-02T08:57:01.000Z</time>
      </trkpt>
      <trkpt lat="47.25451" lon="-1.53817">
        <ele>11.199999809265</ele>
        <time>2019-04-02T08:57:02.000Z</time>
      </trkpt>
      <trkpt lat="47.25452" lon="-1.53817">
        <ele>11</ele>
        <time>2019-04-02T08:57:03.000Z</time>
      </trkpt>
      <trkpt lat="47.25454" lon="-1.53818">
        <ele>11</ele>
        <time>2019-04-02T08:57:04.000Z</time>
      </trkpt>
      <trkpt lat="47.25455" lon="-1.53818">
        <ele>10.800000190735</ele>
        <time>2019-04-02T08:57:05.000Z</time>
      </trkpt>
      <trkpt lat="47.25457" lon="-1.53818">
        <ele>10.800000190735</ele>
        <time>2019-04-02T08:57:06.000Z</time>
      </trkpt>
      <trkpt lat="47.25459" lon="-1.53818">
        <ele>10.800000190735</ele>
        <time>2019-04-02T08:57:07.000Z</time>
      </trkpt>
      <trkpt lat="47.2546" lon="-1.53818">
        <ele>10.800000190735</ele>
        <time>2019-04-02T08:57:08.000Z</time>
      </trkpt>
      <trkpt lat="47.25462" lon="-1.53818">
        <ele>10.800000190735</ele>
        <time>2019-04-02T08:57:09.000Z</time>
      </trkpt>
      <trkpt lat="47.25463" lon="-1.53819">
        <ele>10.60000038147</ele>
        <time>2019-04-02T08:57:10.000Z</time>
      </trkpt>
      <trkpt lat="47.25464" lon="-1.5382">
        <ele>10.39999961853</ele>
        <time>2019-04-02T08:57:11.000Z</time>
      </trkpt>
      <trkpt lat="47.25465" lon="-1.5382">
        <ele>10.39999961853</ele>
        <time>2019-04-02T08:57:12.000Z</time>
      </trkpt>
      <trkpt lat="47.25466" lon="-1.5382">
        <ele>10.39999961853</ele>
        <time>2019-04-02T08:57:13.000Z</time>
      </trkpt>
      <trkpt lat="47.25468" lon="-1.53821">
        <ele>10.39999961853</ele>
        <time>2019-04-02T08:57:14.000Z</time>
      </trkpt>
      <trkpt lat="47.25469" lon="-1.53821">
        <ele>10.199999809265</ele>
        <time>2019-04-02T08:57:15.000Z</time>
      </trkpt>
      <trkpt lat="47.2547" lon="-1.53821">
        <ele>10.199999809265</ele>
        <time>2019-04-02T08:57:16.000Z</time>
      </trkpt>
      <trkpt lat="47.25472" lon="-1.53821">
        <ele>10.199999809265</ele>
        <time>2019-04-02T08:57:17.000Z</time>
      </trkpt>
      <trkpt lat="47.25473" lon="-1.53821">
        <ele>10.199999809265</ele>
        <time>2019-04-02T08:57:18.000Z</time>
      </trkpt>
      <trkpt lat="47.25474" lon="-1.53821">
        <ele>10</ele>
        <time>2019-04-02T08:57:19.000Z</time>
      </trkpt>
      <trkpt lat="47.25475" lon="-1.53822">
        <ele>10</ele>
        <time>2019-04-02T08:57:20.000Z</time>
      </trkpt>
      <trkpt lat="47.25477" lon="-1.53823">
        <ele>9.8000001907349</ele>
        <time>2019-04-02T08:57:21.000Z</time>
      </trkpt>
      <trkpt lat="47.25477" lon="-1.53823">
        <ele>9.8000001907349</ele>
        <time>2019-04-02T08:57:22.000Z</time>
      </trkpt>
      <trkpt lat="47.25479" lon="-1.53824">
        <ele>9.6000003814697</ele>
        <time>2019-04-02T08:57:23.000Z</time>
      </trkpt>
      <trkpt lat="47.25479" lon="-1.53824">
        <ele>9.6000003814697</ele>
        <time>2019-04-02T08:57:24.000Z</time>
      </trkpt>
      <trkpt lat="47.25481" lon="-1.53825">
        <ele>9.3999996185303</ele>
        <time>2019-04-02T08:57:25.000Z</time>
      </trkpt>
      <trkpt lat="47.25482" lon="-1.53826">
        <ele>9.3999996185303</ele>
        <time>2019-04-02T08:57:26.000Z</time>
      </trkpt>
      <trkpt lat="47.25483" lon="-1.53827">
        <ele>9.1999998092651</ele>
        <time>2019-04-02T08:57:27.000Z</time>
      </trkpt>
      <trkpt lat="47.25485" lon="-1.53828">
        <ele>9.1999998092651</ele>
        <time>2019-04-02T08:57:28.000Z</time>
      </trkpt>
      <trkpt lat="47.25487" lon="-1.53828">
        <ele>9</ele>
        <time>2019-04-02T08:57:29.000Z</time>
      </trkpt>
      <trkpt lat="47.25488" lon="-1.53828">
        <ele>9</ele>
        <time>2019-04-02T08:57:30.000Z</time>
      </trkpt>
      <trkpt lat="47.2549" lon="-1.53829">
        <ele>9</ele>
        <time>2019-04-02T08:57:31.000Z</time>
      </trkpt>
      <trkpt lat="47.25491" lon="-1.53829">
        <ele>9</ele>
        <time>2019-04-02T08:57:32.000Z</time>
      </trkpt>
      <trkpt lat="47.25493" lon="-1.53829">
        <ele>9</ele>
        <time>2019-04-02T08:57:33.000Z</time>
      </trkpt>
      <trkpt lat="47.25494" lon="-1.5383">
        <ele>9</ele>
        <time>2019-04-02T08:57:34.000Z</time>
      </trkpt>
      <trkpt lat="47.25496" lon="-1.5383">
        <ele>9</ele>
        <time>2019-04-02T08:57:35.000Z</time>
      </trkpt>
      <trkpt lat="47.25497" lon="-1.5383">
        <ele>9</ele>
        <time>2019-04-02T08:57:36.000Z</time>
      </trkpt>
      <trkpt lat="47.25498" lon="-1.53829">
        <ele>9</ele>
        <time>2019-04-02T08:57:37.000Z</time>
      </trkpt>
      <trkpt lat="47.255" lon="-1.53829">
        <ele>9</ele>
        <time>2019-04-02T08:57:38.000Z</time>
      </trkpt>
      <trkpt lat="47.255" lon="-1.53829">
        <ele>9</ele>
        <time>2019-04-02T08:57:39.000Z</time>
      </trkpt>
      <trkpt lat="47.25501" lon="-1.53829">
        <ele>9</ele>
        <time>2019-04-02T08:57:40.000Z</time>
      </trkpt>
      <trkpt lat="47.25502" lon="-1.53829">
        <ele>9</ele>
        <time>2019-04-02T08:57:41.000Z</time>
      </trkpt>
      <trkpt lat="47.25503" lon="-1.53829">
        <ele>9</ele>
        <time>2019-04-02T08:57:42.000Z</time>
      </trkpt>
      <trkpt lat="47.25504" lon="-1.53828">
        <ele>9</ele>
        <time>2019-04-02T08:57:43.000Z</time>
      </trkpt>
      <trkpt lat="47.25506" lon="-1.53828">
        <ele>9.1999998092651</ele>
        <time>2019-04-02T08:57:44.000Z</time>
      </trkpt>
      <trkpt lat="47.25507" lon="-1.53827">
        <ele>9.1999998092651</ele>
        <time>2019-04-02T08:57:45.000Z</time>
      </trkpt>
      <trkpt lat="47.25508" lon="-1.53827">
        <ele>9.1999998092651</ele>
        <time>2019-04-02T08:57:46.000Z</time>
      </trkpt>
      <trkpt lat="47.2551" lon="-1.53827">
        <ele>9.1999998092651</ele>
        <time>2019-04-02T08:57:47.000Z</time>
      </trkpt>
      <trkpt lat="47.25511" lon="-1.53827">
        <ele>9.1999998092651</ele>
        <time>2019-04-02T08:57:48.000Z</time>
      </trkpt>
      <trkpt lat="47.25513" lon="-1.53826">
        <ele>9.1999998092651</ele>
        <time>2019-04-02T08:57:49.000Z</time>
      </trkpt>
      <trkpt lat="47.25514" lon="-1.53826">
        <ele>9.1999998092651</ele>
        <time>2019-04-02T08:57:50.000Z</time>
      </trkpt>
      <trkpt lat="47.25516" lon="-1.53826">
        <ele>9.1999998092651</ele>
        <time>2019-04-02T08:57:51.000Z</time>
      </trkpt>
      <trkpt lat="47.25517" lon="-1.53826">
        <ele>9.3999996185303</ele>
        <time>2019-04-02T08:57:52.000Z</time>
      </trkpt>
      <trkpt lat="47.25518" lon="-1.53825">
        <ele>9.3999996185303</ele>
        <time>2019-04-02T08:57:53.000Z</time>
      </trkpt>
      <trkpt lat="47.2552" lon="-1.53825">
        <ele>9.3999996185303</ele>
        <time>2019-04-02T08:57:54.000Z</time>
      </trkpt>
      <trkpt lat="47.25521" lon="-1.53825">
        <ele>9.3999996185303</ele>
        <time>2019-04-02T08:57:55.000Z</time>
      </trkpt>
      <trkpt lat="47.25524" lon="-1.53824">
        <ele>9.3999996185303</ele>
        <time>2019-04-02T08:57:56.000Z</time>
      </trkpt>
      <trkpt lat="47.25524" lon="-1.53824">
        <ele>9.3999996185303</ele>
        <time>2019-04-02T08:57:57.000Z</time>
      </trkpt>
      <trkpt lat="47.25526" lon="-1.53824">
        <ele>9.3999996185303</ele>
        <time>2019-04-02T08:57:58.000Z</time>
      </trkpt>
      <trkpt lat="47.25527" lon="-1.53824">
        <ele>9.3999996185303</ele>
        <time>2019-04-02T08:57:59.000Z</time>
      </trkpt>
      <trkpt lat="47.25529" lon="-1.53825">
        <ele>9.3999996185303</ele>
        <time>2019-04-02T08:58:00.000Z</time>
      </trkpt>
      <trkpt lat="47.2553" lon="-1.53825">
        <ele>9.3999996185303</ele>
        <time>2019-04-02T08:58:01.000Z</time>
      </trkpt>
      <trkpt lat="47.25533" lon="-1.53824">
        <ele>9.3999996185303</ele>
        <time>2019-04-02T08:58:02.000Z</time>
      </trkpt>
      <trkpt lat="47.25533" lon="-1.53824">
        <ele>9.3999996185303</ele>
        <time>2019-04-02T08:58:03.000Z</time>
      </trkpt>
      <trkpt lat="47.25534" lon="-1.53824">
        <ele>9.3999996185303</ele>
        <time>2019-04-02T08:58:04.000Z</time>
      </trkpt>
      <trkpt lat="47.25535" lon="-1.53825">
        <ele>9.3999996185303</ele>
        <time>2019-04-02T08:58:05.000Z</time>
      </trkpt>
      <trkpt lat="47.25536" lon="-1.53825">
        <ele>9.3999996185303</ele>
        <time>2019-04-02T08:58:06.000Z</time>
      </trkpt>
      <trkpt lat="47.25537" lon="-1.53826">
        <ele>9.1999998092651</ele>
        <time>2019-04-02T08:58:07.000Z</time>
      </trkpt>
      <trkpt lat="47.25538" lon="-1.53826">
        <ele>9.1999998092651</ele>
        <time>2019-04-02T08:58:08.000Z</time>
      </trkpt>
      <trkpt lat="47.25539" lon="-1.53827">
        <ele>9.1999998092651</ele>
        <time>2019-04-02T08:58:09.000Z</time>
      </trkpt>
      <trkpt lat="47.25539" lon="-1.53828">
        <ele>9.1999998092651</ele>
        <time>2019-04-02T08:58:10.000Z</time>
      </trkpt>
      <trkpt lat="47.25539" lon="-1.53828">
        <ele>9</ele>
        <time>2019-04-02T08:58:11.000Z</time>
      </trkpt>
      <trkpt lat="47.25539" lon="-1.53829">
        <ele>9</ele>
        <time>2019-04-02T08:58:12.000Z</time>
      </trkpt>
      <trkpt lat="47.25571" lon="-1.53912">
        <ele>4</ele>
        <time>2019-04-02T09:00:33.000Z</time>
      </trkpt>
      <trkpt lat="47.25572" lon="-1.53913">
        <ele>4.4000000953674</ele>
        <time>2019-04-02T09:00:34.000Z</time>
      </trkpt>
      <trkpt lat="47.25572" lon="-1.53915">
        <ele>4.5999999046326</ele>
        <time>2019-04-02T09:00:35.000Z</time>
      </trkpt>
      <trkpt lat="47.25573" lon="-1.53916">
        <ele>4.8000001907349</ele>
        <time>2019-04-02T09:00:36.000Z</time>
      </trkpt>
      <trkpt lat="47.25573" lon="-1.53918">
        <ele>5</ele>
        <time>2019-04-02T09:00:37.000Z</time>
      </trkpt>
      <trkpt lat="47.25574" lon="-1.53922">
        <ele>5.5999999046326</ele>
        <time>2019-04-02T09:00:38.000Z</time>
      </trkpt>
      <trkpt lat="47.25574" lon="-1.53922">
        <ele>5.5999999046326</ele>
        <time>2019-04-02T09:00:39.000Z</time>
      </trkpt>
      <trkpt lat="47.25575" lon="-1.53923">
        <ele>5.8000001907349</ele>
        <time>2019-04-02T09:00:40.000Z</time>
      </trkpt>
      <trkpt lat="47.25575" lon="-1.53925">
        <ele>6</ele>
        <time>2019-04-02T09:00:41.000Z</time>
      </trkpt>
      <trkpt lat="47.25576" lon="-1.53927">
        <ele>6.4000000953674</ele>
        <time>2019-04-02T09:00:42.000Z</time>
      </trkpt>
      <trkpt lat="47.25576" lon="-1.53929">
        <ele>6.5999999046326</ele>
        <time>2019-04-02T09:00:43.000Z</time>
      </trkpt>
      <trkpt lat="47.25577" lon="-1.53932">
        <ele>7</ele>
        <time>2019-04-02T09:00:44.000Z</time>
      </trkpt>
      <trkpt lat="47.25577" lon="-1.53932">
        <ele>7</ele>
        <time>2019-04-02T09:00:45.000Z</time>
      </trkpt>
      <trkpt lat="47.25578" lon="-1.53934">
        <ele>7.4000000953674</ele>
        <time>2019-04-02T09:00:46.000Z</time>
      </trkpt>
      <trkpt lat="47.25578" lon="-1.53936">
        <ele>7.5999999046326</ele>
        <time>2019-04-02T09:00:47.000Z</time>
      </trkpt>
      <trkpt lat="47.25578" lon="-1.53938">
        <ele>7.8000001907349</ele>
        <time>2019-04-02T09:00:48.000Z</time>
      </trkpt>
      <trkpt lat="47.25578" lon="-1.53939">
        <ele>8</ele>
        <time>2019-04-02T09:00:49.000Z</time>
      </trkpt>
      <trkpt lat="47.25579" lon="-1.53941">
        <ele>8.3999996185303</ele>
        <time>2019-04-02T09:00:50.000Z</time>
      </trkpt>
      <trkpt lat="47.25579" lon="-1.53943">
        <ele>8.6000003814697</ele>
        <time>2019-04-02T09:00:51.000Z</time>
      </trkpt>
      <trkpt lat="47.2558" lon="-1.53945">
        <ele>8.8000001907349</ele>
        <time>2019-04-02T09:00:52.000Z</time>
      </trkpt>
      <trkpt lat="47.25581" lon="-1.53946">
        <ele>9.1999998092651</ele>
        <time>2019-04-02T09:00:53.000Z</time>
      </trkpt>
      <trkpt lat="47.25581" lon="-1.53948">
        <ele>9.3999996185303</ele>
        <time>2019-04-02T09:00:54.000Z</time>
      </trkpt>
      <trkpt lat="47.25582" lon="-1.5395">
        <ele>9.6000003814697</ele>
        <time>2019-04-02T09:00:55.000Z</time>
      </trkpt>
      <trkpt lat="47.25582" lon="-1.53952">
        <ele>10</ele>
        <time>2019-04-02T09:00:56.000Z</time>
      </trkpt>
      <trkpt lat="47.25582" lon="-1.53953">
        <ele>10.199999809265</ele>
        <time>2019-04-02T09:00:57.000Z</time>
      </trkpt>
      <trkpt lat="47.25583" lon="-1.53957">
        <ele>10.60000038147</ele>
        <time>2019-04-02T09:00:58.000Z</time>
      </trkpt>
      <trkpt lat="47.25583" lon="-1.53957">
        <ele>10.60000038147</ele>
        <time>2019-04-02T09:00:59.000Z</time>
      </trkpt>
      <trkpt lat="47.25583" lon="-1.53959">
        <ele>11</ele>
        <time>2019-04-02T09:01:00.000Z</time>
      </trkpt>
      <trkpt lat="47.25584" lon="-1.5396">
        <ele>11.199999809265</ele>
        <time>2019-04-02T09:01:01.000Z</time>
      </trkpt>
      <trkpt lat="47.25584" lon="-1.53962">
        <ele>11.39999961853</ele>
        <time>2019-04-02T09:01:02.000Z</time>
      </trkpt>
      <trkpt lat="47.25585" lon="-1.53963">
        <ele>11.60000038147</ele>
        <time>2019-04-02T09:01:03.000Z</time>
      </trkpt>
      <trkpt lat="47.25585" lon="-1.53965">
        <ele>12</ele>
        <time>2019-04-02T09:01:04.000Z</time>
      </trkpt>
      <trkpt lat="47.25586" lon="-1.53966">
        <ele>12.199999809265</ele>
        <time>2019-04-02T09:01:05.000Z</time>
      </trkpt>
      <trkpt lat="47.25586" lon="-1.53968">
        <ele>12.39999961853</ele>
        <time>2019-04-02T09:01:06.000Z</time>
      </trkpt>
      <trkpt lat="47.25586" lon="-1.53969">
        <ele>12.60000038147</ele>
        <time>2019-04-02T09:01:07.000Z</time>
      </trkpt>
      <trkpt lat="47.25586" lon="-1.53969">
        <ele>12.60000038147</ele>
        <time>2019-04-02T09:01:08.000Z</time>
      </trkpt>
      <trkpt lat="47.25677" lon="-1.53928">
        <ele>10</ele>
        <time>2019-04-02T09:04:14.000Z</time>
      </trkpt>
      <trkpt lat="47.25678" lon="-1.53927">
        <ele>10</ele>
        <time>2019-04-02T09:04:15.000Z</time>
      </trkpt>
      <trkpt lat="47.25679" lon="-1.53926">
        <ele>9.8000001907349</ele>
        <time>2019-04-02T09:04:16.000Z</time>
      </trkpt>
      <trkpt lat="47.25681" lon="-1.53925">
        <ele>9.8000001907349</ele>
        <time>2019-04-02T09:04:17.000Z</time>
      </trkpt>
      <trkpt lat="47.25682" lon="-1.53924">
        <ele>9.6000003814697</ele>
        <time>2019-04-02T09:04:18.000Z</time>
      </trkpt>
      <trkpt lat="47.25683" lon="-1.53923">
        <ele>9.6000003814697</ele>
        <time>2019-04-02T09:04:19.000Z</time>
      </trkpt>
      <trkpt lat="47.25684" lon="-1.53922">
        <ele>9.6000003814697</ele>
        <time>2019-04-02T09:04:20.000Z</time>
      </trkpt>
      <trkpt lat="47.25685" lon="-1.53921">
        <ele>9.3999996185303</ele>
        <time>2019-04-02T09:04:21.000Z</time>
      </trkpt>
      <trkpt lat="47.25687" lon="-1.53921">
        <ele>9.3999996185303</ele>
        <time>2019-04-02T09:04:22.000Z</time>
      </trkpt>
      <trkpt lat="47.25688" lon="-1.5392">
        <ele>9.3999996185303</ele>
        <time>2019-04-02T09:04:23.000Z</time>
      </trkpt>
      <trkpt lat="47.25689" lon="-1.53919">
        <ele>9.1999998092651</ele>
        <time>2019-04-02T09:04:24.000Z</time>
      </trkpt>
      <trkpt lat="47.2569" lon="-1.53918">
        <ele>9.1999998092651</ele>
        <time>2019-04-02T09:04:25.000Z</time>
      </trkpt>
      <trkpt lat="47.25692" lon="-1.53917">
        <ele>9.1999998092651</ele>
        <time>2019-04-02T09:04:26.000Z</time>
      </trkpt>
      <trkpt lat="47.25693" lon="-1.53917">
        <ele>9</ele>
        <time>2019-04-02T09:04:27.000Z</time>
      </trkpt>
      <trkpt lat="47.25694" lon="-1.53916">
        <ele>9</ele>
        <time>2019-04-02T09:04:28.000Z</time>
      </trkpt>
      <trkpt lat="47.25695" lon="-1.53915">
        <ele>9</ele>
        <time>2019-04-02T09:04:29.000Z</time>
      </trkpt>
      <trkpt lat="47.25696" lon="-1.53914">
        <ele>8.8000001907349</ele>
        <time>2019-04-02T09:04:30.000Z</time>
      </trkpt>
      <trkpt lat="47.25698" lon="-1.53914">
        <ele>8.8000001907349</ele>
        <time>2019-04-02T09:04:31.000Z</time>
      </trkpt>
      <trkpt lat="47.25699" lon="-1.53913">
        <ele>8.8000001907349</ele>
        <time>2019-04-02T09:04:32.000Z</time>
      </trkpt>
      <trkpt lat="47.257" lon="-1.53912">
        <ele>8.6000003814697</ele>
        <time>2019-04-02T09:04:33.000Z</time>
      </trkpt>
      <trkpt lat="47.25701" lon="-1.53912">
        <ele>8.6000003814697</ele>
        <time>2019-04-02T09:04:34.000Z</time>
      </trkpt>
      <trkpt lat="47.25702" lon="-1.53911">
        <ele>8.6000003814697</ele>
        <time>2019-04-02T09:04:35.000Z</time>
      </trkpt>
      <trkpt lat="47.25703" lon="-1.5391">
        <ele>8.3999996185303</ele>
        <time>2019-04-02T09:04:36.000Z</time>
      </trkpt>
      <trkpt lat="47.25705" lon="-1.5391">
        <ele>8.3999996185303</ele>
        <time>2019-04-02T09:04:37.000Z</time>
      </trkpt>
      <trkpt lat="47.25707" lon="-1.5391">
        <ele>8.3999996185303</ele>
        <time>2019-04-02T09:04:38.000Z</time>
      </trkpt>
      <trkpt lat="47.25707" lon="-1.5391">
        <ele>8.3999996185303</ele>
        <time>2019-04-02T09:04:39.000Z</time>
      </trkpt>
      <trkpt lat="47.25709" lon="-1.5391">
        <ele>8.3999996185303</ele>
        <time>2019-04-02T09:04:40.000Z</time>
      </trkpt>
      <trkpt lat="47.2571" lon="-1.5391">
        <ele>8.3999996185303</ele>
        <time>2019-04-02T09:04:41.000Z</time>
      </trkpt>
      <trkpt lat="47.25712" lon="-1.53911">
        <ele>8.3999996185303</ele>
        <time>2019-04-02T09:04:42.000Z</time>
      </trkpt>
      <trkpt lat="47.25712" lon="-1.53911">
        <ele>8.3999996185303</ele>
        <time>2019-04-02T09:04:43.000Z</time>
      </trkpt>
      <trkpt lat="47.25713" lon="-1.53912">
        <ele>8.3999996185303</ele>
        <time>2019-04-02T09:04:44.000Z</time>
      </trkpt>
      <trkpt lat="47.25714" lon="-1.53912">
        <ele>8.3999996185303</ele>
        <time>2019-04-02T09:04:45.000Z</time>
      </trkpt>
      <trkpt lat="47.25715" lon="-1.53913">
        <ele>8.3999996185303</ele>
        <time>2019-04-02T09:04:46.000Z</time>
      </trkpt>
      <trkpt lat="47.25716" lon="-1.53914">
        <ele>8.3999996185303</ele>
        <time>2019-04-02T09:04:47.000Z</time>
      </trkpt>
      <trkpt lat="47.25717" lon="-1.53915">
        <ele>8.3999996185303</ele>
        <time>2019-04-02T09:04:48.000Z</time>
      </trkpt>
      <trkpt lat="47.25718" lon="-1.53916">
        <ele>8.3999996185303</ele>
        <time>2019-04-02T09:04:49.000Z</time>
      </trkpt>
      <trkpt lat="47.25719" lon="-1.53917">
        <ele>8.3999996185303</ele>
        <time>2019-04-02T09:04:50.000Z</time>
      </trkpt>
      <trkpt lat="47.2572" lon="-1.53918">
        <ele>8.3999996185303</ele>
        <time>2019-04-02T09:04:51.000Z</time>
      </trkpt>
      <trkpt lat="47.25722" lon="-1.5392">
        <ele>8.6000003814697</ele>
        <time>2019-04-02T09:04:52.000Z</time>
      </trkpt>
      <trkpt lat="47.25722" lon="-1.5392">
        <ele>8.6000003814697</ele>
        <time>2019-04-02T09:04:53.000Z</time>
      </trkpt>
      <trkpt lat="47.25723" lon="-1.53921">
        <ele>8.6000003814697</ele>
        <time>2019-04-02T09:04:54.000Z</time>
      </trkpt>
      <trkpt lat="47.25724" lon="-1.53922">
        <ele>8.6000003814697</ele>
        <time>2019-04-02T09:04:55.000Z</time>
      </trkpt>
      <trkpt lat="47.25725" lon="-1.53923">
        <ele>8.6000003814697</ele>
        <time>2019-04-02T09:04:56.000Z</time>
      </trkpt>
      <trkpt lat="47.25726" lon="-1.53925">
        <ele>8.6000003814697</ele>
        <time>2019-04-02T09:04:57.000Z</time>
      </trkpt>
      <trkpt lat="47.25727" lon="-1.53926">
        <ele>8.8000001907349</ele>
        <time>2019-04-02T09:04:58.000Z</time>
      </trkpt>
      <trkpt lat="47.25728" lon="-1.53928">
        <ele>8.8000001907349</ele>
        <time>2019-04-02T09:04:59.000Z</time>
      </trkpt>
      <trkpt lat="47.25729" lon="-1.5393">
        <ele>9</ele>
        <time>2019-04-02T09:05:00.000Z</time>
      </trkpt>
      <trkpt lat="47.2573" lon="-1.53931">
        <ele>9</ele>
        <time>2019-04-02T09:05:01.000Z</time>
      </trkpt>
      <trkpt lat="47.25731" lon="-1.53933">
        <ele>9.1999998092651</ele>
        <time>2019-04-02T09:05:02.000Z</time>
      </trkpt>
      <trkpt lat="47.25732" lon="-1.53934">
        <ele>9.1999998092651</ele>
        <time>2019-04-02T09:05:03.000Z</time>
      </trkpt>
      <trkpt lat="47.25732" lon="-1.53936">
        <ele>9.1999998092651</ele>
        <time>2019-04-02T09:05:04.000Z</time>
      </trkpt>
      <trkpt lat="47.25733" lon="-1.53937">
        <ele>9.3999996185303</ele>
        <time>2019-04-02T09:05:05.000Z</time>
      </trkpt>
      <trkpt lat="47.25734" lon="-1.53938">
        <ele>9.3999996185303</ele>
        <time>2019-04-02T09:05:06.000Z</time>
      </trkpt>
      <trkpt lat="47.25735" lon="-1.53939">
        <ele>9.3999996185303</ele>
        <time>2019-04-02T09:05:07.000Z</time>
      </trkpt>
      <trkpt lat="47.25736" lon="-1.53941">
        <ele>9.6000003814697</ele>
        <time>2019-04-02T09:05:08.000Z</time>
      </trkpt>
      <trkpt lat="47.25737" lon="-1.53942">
        <ele>9.6000003814697</ele>
        <time>2019-04-02T09:05:09.000Z</time>
      </trkpt>
      <trkpt lat="47.25739" lon="-1.53944">
        <ele>9.6000003814697</ele>
        <time>2019-04-02T09:05:10.000Z</time>
      </trkpt>
      <trkpt lat="47.25739" lon="-1.53944">
        <ele>9.6000003814697</ele>
        <time>2019-04-02T09:05:11.000Z</time>
      </trkpt>
      <trkpt lat="47.2574" lon="-1.53945">
        <ele>9.8000001907349</ele>
        <time>2019-04-02T09:05:12.000Z</time>
      </trkpt>
      <trkpt lat="47.25742" lon="-1.53947">
        <ele>9.8000001907349</ele>
        <time>2019-04-02T09:05:13.000Z</time>
      </trkpt>
      <trkpt lat="47.25742" lon="-1.53947">
        <ele>9.8000001907349</ele>
        <time>2019-04-02T09:05:14.000Z</time>
      </trkpt>
      <trkpt lat="47.25743" lon="-1.53949">
        <ele>10</ele>
        <time>2019-04-02T09:05:15.000Z</time>
      </trkpt>
      <trkpt lat="47.25744" lon="-1.53949">
        <ele>10</ele>
        <time>2019-04-02T09:05:16.000Z</time>
      </trkpt>
      <trkpt lat="47.25745" lon="-1.5395">
        <ele>10</ele>
        <time>2019-04-02T09:05:17.000Z</time>
      </trkpt>
      <trkpt lat="47.25746" lon="-1.53952">
        <ele>10</ele>
        <time>2019-04-02T09:05:18.000Z</time>
      </trkpt>
      <trkpt lat="47.25747" lon="-1.53953">
        <ele>10.199999809265</ele>
        <time>2019-04-02T09:05:19.000Z</time>
      </trkpt>
      <trkpt lat="47.25748" lon="-1.53954">
        <ele>10.199999809265</ele>
        <time>2019-04-02T09:05:20.000Z</time>
      </trkpt>
      <trkpt lat="47.25749" lon="-1.53955">
        <ele>10.199999809265</ele>
        <time>2019-04-02T09:05:21.000Z</time>
      </trkpt>
      <trkpt lat="47.25751" lon="-1.53956">
        <ele>10.39999961853</ele>
        <time>2019-04-02T09:05:22.000Z</time>
      </trkpt>
      <trkpt lat="47.25751" lon="-1.53956">
        <ele>10.39999961853</ele>
        <time>2019-04-02T09:05:23.000Z</time>
      </trkpt>
      <trkpt lat="47.25752" lon="-1.53957">
        <ele>10.39999961853</ele>
        <time>2019-04-02T09:05:24.000Z</time>
      </trkpt>
      <trkpt lat="47.25753" lon="-1.53957">
        <ele>10.39999961853</ele>
        <time>2019-04-02T09:05:25.000Z</time>
      </trkpt>
      <trkpt lat="47.25755" lon="-1.53958">
        <ele>10.39999961853</ele>
        <time>2019-04-02T09:05:26.000Z</time>
      </trkpt>
      <trkpt lat="47.25756" lon="-1.53959">
        <ele>10.60000038147</ele>
        <time>2019-04-02T09:05:27.000Z</time>
      </trkpt>
      <trkpt lat="47.25758" lon="-1.5396">
        <ele>10.60000038147</ele>
        <time>2019-04-02T09:05:28.000Z</time>
      </trkpt>
      <trkpt lat="47.25758" lon="-1.5396">
        <ele>10.60000038147</ele>
        <time>2019-04-02T09:05:29.000Z</time>
      </trkpt>
      <trkpt lat="47.25759" lon="-1.5396">
        <ele>10.60000038147</ele>
        <time>2019-04-02T09:05:30.000Z</time>
      </trkpt>
      <trkpt lat="47.2576" lon="-1.5396">
        <ele>10.60000038147</ele>
        <time>2019-04-02T09:05:31.000Z</time>
      </trkpt>
      <trkpt lat="47.25761" lon="-1.53961">
        <ele>10.60000038147</ele>
        <time>2019-04-02T09:05:32.000Z</time>
      </trkpt>
      <trkpt lat="47.25762" lon="-1.53962">
        <ele>10.60000038147</ele>
        <time>2019-04-02T09:05:33.000Z</time>
      </trkpt>
      <trkpt lat="47.25763" lon="-1.53962">
        <ele>10.60000038147</ele>
        <time>2019-04-02T09:05:34.000Z</time>
      </trkpt>
      <trkpt lat="47.25764" lon="-1.53962">
        <ele>10.60000038147</ele>
        <time>2019-04-02T09:05:35.000Z</time>
      </trkpt>
      <trkpt lat="47.25764" lon="-1.53962">
        <ele>10.60000038147</ele>
        <time>2019-04-02T09:05:36.000Z</time>
      </trkpt>
      <trkpt lat="47.25765" lon="-1.53962">
        <ele>10.60000038147</ele>
        <time>2019-04-02T09:05:37.000Z</time>
      </trkpt>
      <trkpt lat="47.25766" lon="-1.53962">
        <ele>10.60000038147</ele>
        <time>2019-04-02T09:05:38.000Z</time>
      </trkpt>
      <trkpt lat="47.25767" lon="-1.53962">
        <ele>10.60000038147</ele>
        <time>2019-04-02T09:05:39.000Z</time>
      </trkpt>
      <trkpt lat="47.25769" lon="-1.53962">
        <ele>10.60000038147</ele>
        <time>2019-04-02T09:05:40.000Z</time>
      </trkpt>
      <trkpt lat="47.25769" lon="-1.53962">
        <ele>10.60000038147</ele>
        <time>2019-04-02T09:05:41.000Z</time>
      </trkpt>
      <trkpt lat="47.25771" lon="-1.53962">
        <ele>10.800000190735</ele>
        <time>2019-04-02T09:05:42.000Z</time>
      </trkpt>
      <trkpt lat="47.25772" lon="-1.53962">
        <ele>10.800000190735</ele>
        <time>2019-04-02T09:05:43.000Z</time>
      </trkpt>
      <trkpt lat="47.25773" lon="-1.53961">
        <ele>10.60000038147</ele>
        <time>2019-04-02T09:05:44.000Z</time>
      </trkpt>
      <trkpt lat="47.25775" lon="-1.5396">
        <ele>10.60000038147</ele>
        <time>2019-04-02T09:05:45.000Z</time>
      </trkpt>
      <trkpt lat="47.25776" lon="-1.5396">
        <ele>10.60000038147</ele>
        <time>2019-04-02T09:05:46.000Z</time>
      </trkpt>
      <trkpt lat="47.25777" lon="-1.5396">
        <ele>10.60000038147</ele>
        <time>2019-04-02T09:05:47.000Z</time>
      </trkpt>
      <trkpt lat="47.25779" lon="-1.5396">
        <ele>10.60000038147</ele>
        <time>2019-04-02T09:05:48.000Z</time>
      </trkpt>
      <trkpt lat="47.2578" lon="-1.53959">
        <ele>10.60000038147</ele>
        <time>2019-04-02T09:05:49.000Z</time>
      </trkpt>
      <trkpt lat="47.25782" lon="-1.53959">
        <ele>10.60000038147</ele>
        <time>2019-04-02T09:05:50.000Z</time>
      </trkpt>
      <trkpt lat="47.25783" lon="-1.53959">
        <ele>10.60000038147</ele>
        <time>2019-04-02T09:05:51.000Z</time>
      </trkpt>
      <trkpt lat="47.25785" lon="-1.53958">
        <ele>10.60000038147</ele>
        <time>2019-04-02T09:05:52.000Z</time>
      </trkpt>
      <trkpt lat="47.25787" lon="-1.53958">
        <ele>10.60000038147</ele>
        <time>2019-04-02T09:05:53.000Z</time>
      </trkpt>
      <trkpt lat="47.25788" lon="-1.53958">
        <ele>10.60000038147</ele>
        <time>2019-04-02T09:05:54.000Z</time>
      </trkpt>
      <trkpt lat="47.2579" lon="-1.53958">
        <ele>10.60000038147</ele>
        <time>2019-04-02T09:05:55.000Z</time>
      </trkpt>
      <trkpt lat="47.25791" lon="-1.53957">
        <ele>10.60000038147</ele>
        <time>2019-04-02T09:05:56.000Z</time>
      </trkpt>
      <trkpt lat="47.25792" lon="-1.53957">
        <ele>10.60000038147</ele>
        <time>2019-04-02T09:05:57.000Z</time>
      </trkpt>
      <trkpt lat="47.25793" lon="-1.53957">
        <ele>10.60000038147</ele>
        <time>2019-04-02T09:05:58.000Z</time>
      </trkpt>
      <trkpt lat="47.25794" lon="-1.53957">
        <ele>10.60000038147</ele>
        <time>2019-04-02T09:05:59.000Z</time>
      </trkpt>
      <trkpt lat="47.25795" lon="-1.53956">
        <ele>10.60000038147</ele>
        <time>2019-04-02T09:06:00.000Z</time>
      </trkpt>
      <trkpt lat="47.25796" lon="-1.53955">
        <ele>10.60000038147</ele>
        <time>2019-04-02T09:06:01.000Z</time>
      </trkpt>
      <trkpt lat="47.25799" lon="-1.53954">
        <ele>10.39999961853</ele>
        <time>2019-04-02T09:06:02.000Z</time>
      </trkpt>
      <trkpt lat="47.25799" lon="-1.53954">
        <ele>10.39999961853</ele>
        <time>2019-04-02T09:06:03.000Z</time>
      </trkpt>
      <trkpt lat="47.25801" lon="-1.53954">
        <ele>10.39999961853</ele>
        <time>2019-04-02T09:06:04.000Z</time>
      </trkpt>
      <trkpt lat="47.25802" lon="-1.53953">
        <ele>10.39999961853</ele>
        <time>2019-04-02T09:06:05.000Z</time>
      </trkpt>
      <trkpt lat="47.25803" lon="-1.53952">
        <ele>10.39999961853</ele>
        <time>2019-04-02T09:06:06.000Z</time>
      </trkpt>
      <trkpt lat="47.25804" lon="-1.53952">
        <ele>10.39999961853</ele>
        <time>2019-04-02T09:06:07.000Z</time>
      </trkpt>
      <trkpt lat="47.25805" lon="-1.53951">
        <ele>10.39999961853</ele>
        <time>2019-04-02T09:06:08.000Z</time>
      </trkpt>
      <trkpt lat="47.25806" lon="-1.5395">
        <ele>10.199999809265</ele>
        <time>2019-04-02T09:06:09.000Z</time>
      </trkpt>
      <trkpt lat="47.25809" lon="-1.53949">
        <ele>10.199999809265</ele>
        <time>2019-04-02T09:06:10.000Z</time>
      </trkpt>
      <trkpt lat="47.25809" lon="-1.53949">
        <ele>10.199999809265</ele>
        <time>2019-04-02T09:06:11.000Z</time>
      </trkpt>
      <trkpt lat="47.2581" lon="-1.53949">
        <ele>10.199999809265</ele>
        <time>2019-04-02T09:06:12.000Z</time>
      </trkpt>
      <trkpt lat="47.25812" lon="-1.53949">
        <ele>10.199999809265</ele>
        <time>2019-04-02T09:06:13.000Z</time>
      </trkpt>
      <trkpt lat="47.25813" lon="-1.53948">
        <ele>10.199999809265</ele>
        <time>2019-04-02T09:06:14.000Z</time>
      </trkpt>
      <trkpt lat="47.25814" lon="-1.53948">
        <ele>10.199999809265</ele>
        <time>2019-04-02T09:06:15.000Z</time>
      </trkpt>
      <trkpt lat="47.25815" lon="-1.53948">
        <ele>10.199999809265</ele>
        <time>2019-04-02T09:06:16.000Z</time>
      </trkpt>
      <trkpt lat="47.25816" lon="-1.53948">
        <ele>10.199999809265</ele>
        <time>2019-04-02T09:06:17.000Z</time>
      </trkpt>
      <trkpt lat="47.25817" lon="-1.53947">
        <ele>10.199999809265</ele>
        <time>2019-04-02T09:06:18.000Z</time>
      </trkpt>
      <trkpt lat="47.25819" lon="-1.53947">
        <ele>10.199999809265</ele>
        <time>2019-04-02T09:06:19.000Z</time>
      </trkpt>
      <trkpt lat="47.25821" lon="-1.53947">
        <ele>10.199999809265</ele>
        <time>2019-04-02T09:06:20.000Z</time>
      </trkpt>
      <trkpt lat="47.25822" lon="-1.53946">
        <ele>10.199999809265</ele>
        <time>2019-04-02T09:06:21.000Z</time>
      </trkpt>
      <trkpt lat="47.25823" lon="-1.53946">
        <ele>10.199999809265</ele>
        <time>2019-04-02T09:06:22.000Z</time>
      </trkpt>
      <trkpt lat="47.25825" lon="-1.53945">
        <ele>10.199999809265</ele>
        <time>2019-04-02T09:06:23.000Z</time>
      </trkpt>
      <trkpt lat="47.25826" lon="-1.53945">
        <ele>10.199999809265</ele>
        <time>2019-04-02T09:06:24.000Z</time>
      </trkpt>
      <trkpt lat="47.25827" lon="-1.53944">
        <ele>10.199999809265</ele>
        <time>2019-04-02T09:06:25.000Z</time>
      </trkpt>
      <trkpt lat="47.25828" lon="-1.53944">
        <ele>10.199999809265</ele>
        <time>2019-04-02T09:06:26.000Z</time>
      </trkpt>
      <trkpt lat="47.25829" lon="-1.53944">
        <ele>10</ele>
        <time>2019-04-02T09:06:27.000Z</time>
      </trkpt>
      <trkpt lat="47.25831" lon="-1.53943">
        <ele>10.199999809265</ele>
        <time>2019-04-02T09:06:28.000Z</time>
      </trkpt>
      <trkpt lat="47.25832" lon="-1.53942">
        <ele>10.199999809265</ele>
        <time>2019-04-02T09:06:29.000Z</time>
      </trkpt>
      <trkpt lat="47.25834" lon="-1.53941">
        <ele>10</ele>
        <time>2019-04-02T09:06:30.000Z</time>
      </trkpt>
      <trkpt lat="47.25836" lon="-1.5394">
        <ele>10</ele>
        <time>2019-04-02T09:06:31.000Z</time>
      </trkpt>
      <trkpt lat="47.25838" lon="-1.5394">
        <ele>10.199999809265</ele>
        <time>2019-04-02T09:06:32.000Z</time>
      </trkpt>
      <trkpt lat="47.2584" lon="-1.53939">
        <ele>10.199999809265</ele>
        <time>2019-04-02T09:06:33.000Z</time>
      </trkpt>
      <trkpt lat="47.25841" lon="-1.53938">
        <ele>10</ele>
        <time>2019-04-02T09:06:34.000Z</time>
      </trkpt>
      <trkpt lat="47.25842" lon="-1.53937">
        <ele>10</ele>
        <time>2019-04-02T09:06:35.000Z</time>
      </trkpt>
      <trkpt lat="47.25843" lon="-1.53935">
        <ele>10</ele>
        <time>2019-04-02T09:06:36.000Z</time>
      </trkpt>
      <trkpt lat="47.25844" lon="-1.53934">
        <ele>10</ele>
        <time>2019-04-02T09:06:37.000Z</time>
      </trkpt>
      <trkpt lat="47.25847" lon="-1.53933">
        <ele>10</ele>
        <time>2019-04-02T09:06:38.000Z</time>
      </trkpt>
      <trkpt lat="47.25847" lon="-1.53933">
        <ele>10</ele>
        <time>2019-04-02T09:06:39.000Z</time>
      </trkpt>
      <trkpt lat="47.25848" lon="-1.53932">
        <ele>10</ele>
        <time>2019-04-02T09:06:40.000Z</time>
      </trkpt>
      <trkpt lat="47.2585" lon="-1.5393">
        <ele>9.8000001907349</ele>
        <time>2019-04-02T09:06:41.000Z</time>
      </trkpt>
      <trkpt lat="47.25852" lon="-1.53929">
        <ele>9.8000001907349</ele>
        <time>2019-04-02T09:06:42.000Z</time>
      </trkpt>
      <trkpt lat="47.25854" lon="-1.53928">
        <ele>9.8000001907349</ele>
        <time>2019-04-02T09:06:43.000Z</time>
      </trkpt>
      <trkpt lat="47.25855" lon="-1.53927">
        <ele>9.8000001907349</ele>
        <time>2019-04-02T09:06:44.000Z</time>
      </trkpt>
      <trkpt lat="47.25857" lon="-1.53927">
        <ele>9.8000001907349</ele>
        <time>2019-04-02T09:06:45.000Z</time>
      </trkpt>
      <trkpt lat="47.25858" lon="-1.53926">
        <ele>9.8000001907349</ele>
        <time>2019-04-02T09:06:46.000Z</time>
      </trkpt>
      <trkpt lat="47.25859" lon="-1.53926">
        <ele>9.8000001907349</ele>
        <time>2019-04-02T09:06:47.000Z</time>
      </trkpt>
      <trkpt lat="47.25861" lon="-1.53925">
        <ele>9.8000001907349</ele>
        <time>2019-04-02T09:06:48.000Z</time>
      </trkpt>
      <trkpt lat="47.25862" lon="-1.53924">
        <ele>9.8000001907349</ele>
        <time>2019-04-02T09:06:49.000Z</time>
      </trkpt>
      <trkpt lat="47.25863" lon="-1.53924">
        <ele>9.8000001907349</ele>
        <time>2019-04-02T09:06:50.000Z</time>
      </trkpt>
      <trkpt lat="47.25865" lon="-1.53923">
        <ele>9.8000001907349</ele>
        <time>2019-04-02T09:06:51.000Z</time>
      </trkpt>
      <trkpt lat="47.25866" lon="-1.53923">
        <ele>10</ele>
        <time>2019-04-02T09:06:52.000Z</time>
      </trkpt>
      <trkpt lat="47.25868" lon="-1.53922">
        <ele>10</ele>
        <time>2019-04-02T09:06:53.000Z</time>
      </trkpt>
      <trkpt lat="47.25869" lon="-1.53921">
        <ele>10</ele>
        <time>2019-04-02T09:06:54.000Z</time>
      </trkpt>
      <trkpt lat="47.25871" lon="-1.5392">
        <ele>10</ele>
        <time>2019-04-02T09:06:55.000Z</time>
      </trkpt>
      <trkpt lat="47.25873" lon="-1.53919">
        <ele>10</ele>
        <time>2019-04-02T09:06:56.000Z</time>
      </trkpt>
      <trkpt lat="47.25874" lon="-1.53918">
        <ele>9.8000001907349</ele>
        <time>2019-04-02T09:06:57.000Z</time>
      </trkpt>
      <trkpt lat="47.25875" lon="-1.53918">
        <ele>9.8000001907349</ele>
        <time>2019-04-02T09:06:58.000Z</time>
      </trkpt>
      <trkpt lat="47.25876" lon="-1.53917">
        <ele>9.8000001907349</ele>
        <time>2019-04-02T09:06:59.000Z</time>
      </trkpt>
      <trkpt lat="47.25877" lon="-1.53916">
        <ele>9.8000001907349</ele>
        <time>2019-04-02T09:07:00.000Z</time>
      </trkpt>
      <trkpt lat="47.25879" lon="-1.53915">
        <ele>9.8000001907349</ele>
        <time>2019-04-02T09:07:01.000Z</time>
      </trkpt>
      <trkpt lat="47.25881" lon="-1.53913">
        <ele>9.8000001907349</ele>
        <time>2019-04-02T09:07:02.000Z</time>
      </trkpt>
      <trkpt lat="47.25881" lon="-1.53913">
        <ele>9.8000001907349</ele>
        <time>2019-04-02T09:07:03.000Z</time>
      </trkpt>
      <trkpt lat="47.25882" lon="-1.53912">
        <ele>9.8000001907349</ele>
        <time>2019-04-02T09:07:04.000Z</time>
      </trkpt>
      <trkpt lat="47.25884" lon="-1.53911">
        <ele>9.8000001907349</ele>
        <time>2019-04-02T09:07:05.000Z</time>
      </trkpt>
      <trkpt lat="47.25885" lon="-1.5391">
        <ele>9.8000001907349</ele>
        <time>2019-04-02T09:07:06.000Z</time>
      </trkpt>
      <trkpt lat="47.25887" lon="-1.5391">
        <ele>9.8000001907349</ele>
        <time>2019-04-02T09:07:07.000Z</time>
      </trkpt>
      <trkpt lat="47.25889" lon="-1.53909">
        <ele>9.8000001907349</ele>
        <time>2019-04-02T09:07:08.000Z</time>
      </trkpt>
      <trkpt lat="47.25891" lon="-1.53908">
        <ele>9.8000001907349</ele>
        <time>2019-04-02T09:07:09.000Z</time>
      </trkpt>
      <trkpt lat="47.25892" lon="-1.53907">
        <ele>9.8000001907349</ele>
        <time>2019-04-02T09:07:10.000Z</time>
      </trkpt>
      <trkpt lat="47.25894" lon="-1.53906">
        <ele>9.8000001907349</ele>
        <time>2019-04-02T09:07:11.000Z</time>
      </trkpt>
      <trkpt lat="47.25895" lon="-1.53905">
        <ele>9.6000003814697</ele>
        <time>2019-04-02T09:07:12.000Z</time>
      </trkpt>
      <trkpt lat="47.25896" lon="-1.53904">
        <ele>9.6000003814697</ele>
        <time>2019-04-02T09:07:13.000Z</time>
      </trkpt>
      <trkpt lat="47.25897" lon="-1.53903">
        <ele>9.6000003814697</ele>
        <time>2019-04-02T09:07:14.000Z</time>
      </trkpt>
      <trkpt lat="47.25898" lon="-1.53902">
        <ele>9.6000003814697</ele>
        <time>2019-04-02T09:07:15.000Z</time>
      </trkpt>
      <trkpt lat="47.25899" lon="-1.53901">
        <ele>9.6000003814697</ele>
        <time>2019-04-02T09:07:16.000Z</time>
      </trkpt>
      <trkpt lat="47.259" lon="-1.539">
        <ele>9.3999996185303</ele>
        <time>2019-04-02T09:07:17.000Z</time>
      </trkpt>
      <trkpt lat="47.25901" lon="-1.53899">
        <ele>9.3999996185303</ele>
        <time>2019-04-02T09:07:18.000Z</time>
      </trkpt>
      <trkpt lat="47.25903" lon="-1.53898">
        <ele>9.3999996185303</ele>
        <time>2019-04-02T09:07:19.000Z</time>
      </trkpt>
      <trkpt lat="47.25904" lon="-1.53897">
        <ele>9.3999996185303</ele>
        <time>2019-04-02T09:07:20.000Z</time>
      </trkpt>
      <trkpt lat="47.25906" lon="-1.53896">
        <ele>9.3999996185303</ele>
        <time>2019-04-02T09:07:21.000Z</time>
      </trkpt>
      <trkpt lat="47.25907" lon="-1.53895">
        <ele>9.3999996185303</ele>
        <time>2019-04-02T09:07:22.000Z</time>
      </trkpt>
      <trkpt lat="47.25909" lon="-1.53894">
        <ele>9.1999998092651</ele>
        <time>2019-04-02T09:07:23.000Z</time>
      </trkpt>
      <trkpt lat="47.25909" lon="-1.53894">
        <ele>9.1999998092651</ele>
        <time>2019-04-02T09:07:24.000Z</time>
      </trkpt>
      <trkpt lat="47.2591" lon="-1.53893">
        <ele>9.1999998092651</ele>
        <time>2019-04-02T09:07:25.000Z</time>
      </trkpt>
      <trkpt lat="47.25912" lon="-1.53893">
        <ele>9.1999998092651</ele>
        <time>2019-04-02T09:07:26.000Z</time>
      </trkpt>
      <trkpt lat="47.25913" lon="-1.53892">
        <ele>9.3999996185303</ele>
        <time>2019-04-02T09:07:27.000Z</time>
      </trkpt>
      <trkpt lat="47.25915" lon="-1.53892">
        <ele>9.3999996185303</ele>
        <time>2019-04-02T09:07:28.000Z</time>
      </trkpt>
      <trkpt lat="47.25916" lon="-1.53892">
        <ele>9.3999996185303</ele>
        <time>2019-04-02T09:07:29.000Z</time>
      </trkpt>
      <trkpt lat="47.25918" lon="-1.53891">
        <ele>9.3999996185303</ele>
        <time>2019-04-02T09:07:30.000Z</time>
      </trkpt>
      <trkpt lat="47.2592" lon="-1.53891">
        <ele>9.3999996185303</ele>
        <time>2019-04-02T09:07:31.000Z</time>
      </trkpt>
      <trkpt lat="47.25922" lon="-1.5389">
        <ele>9.3999996185303</ele>
        <time>2019-04-02T09:07:32.000Z</time>
      </trkpt>
      <trkpt lat="47.25923" lon="-1.53889">
        <ele>9.3999996185303</ele>
        <time>2019-04-02T09:07:33.000Z</time>
      </trkpt>
      <trkpt lat="47.25924" lon="-1.53889">
        <ele>9.3999996185303</ele>
        <time>2019-04-02T09:07:34.000Z</time>
      </trkpt>
      <trkpt lat="47.25926" lon="-1.53888">
        <ele>9.3999996185303</ele>
        <time>2019-04-02T09:07:35.000Z</time>
      </trkpt>
      <trkpt lat="47.25927" lon="-1.53887">
        <ele>9.3999996185303</ele>
        <time>2019-04-02T09:07:36.000Z</time>
      </trkpt>
      <trkpt lat="47.25928" lon="-1.53886">
        <ele>9.3999996185303</ele>
        <time>2019-04-02T09:07:37.000Z</time>
      </trkpt>
      <trkpt lat="47.2593" lon="-1.53885">
        <ele>9.1999998092651</ele>
        <time>2019-04-02T09:07:38.000Z</time>
      </trkpt>
      <trkpt lat="47.25931" lon="-1.53885">
        <ele>9.3999996185303</ele>
        <time>2019-04-02T09:07:39.000Z</time>
      </trkpt>
      <trkpt lat="47.25932" lon="-1.53885">
        <ele>9.3999996185303</ele>
        <time>2019-04-02T09:07:40.000Z</time>
      </trkpt>
      <trkpt lat="47.25933" lon="-1.53885">
        <ele>9.3999996185303</ele>
        <time>2019-04-02T09:07:41.000Z</time>
      </trkpt>
      <trkpt lat="47.25934" lon="-1.53884">
        <ele>9.3999996185303</ele>
        <time>2019-04-02T09:07:42.000Z</time>
      </trkpt>
      <trkpt lat="47.25935" lon="-1.53883">
        <ele>9.1999998092651</ele>
        <time>2019-04-02T09:07:43.000Z</time>
      </trkpt>
      <trkpt lat="47.25937" lon="-1.53882">
        <ele>9.1999998092651</ele>
        <time>2019-04-02T09:07:44.000Z</time>
      </trkpt>
      <trkpt lat="47.25938" lon="-1.53881">
        <ele>9.1999998092651</ele>
        <time>2019-04-02T09:07:45.000Z</time>
      </trkpt>
      <trkpt lat="47.25939" lon="-1.5388">
        <ele>9.1999998092651</ele>
        <time>2019-04-02T09:07:46.000Z</time>
      </trkpt>
      <trkpt lat="47.2594" lon="-1.53879">
        <ele>9</ele>
        <time>2019-04-02T09:07:47.000Z</time>
      </trkpt>
      <trkpt lat="47.25941" lon="-1.53877">
        <ele>9</ele>
        <time>2019-04-02T09:07:48.000Z</time>
      </trkpt>
      <trkpt lat="47.25942" lon="-1.53876">
        <ele>9</ele>
        <time>2019-04-02T09:07:49.000Z</time>
      </trkpt>
      <trkpt lat="47.25943" lon="-1.53874">
        <ele>8.8000001907349</ele>
        <time>2019-04-02T09:07:50.000Z</time>
      </trkpt>
      <trkpt lat="47.25944" lon="-1.53873">
        <ele>8.8000001907349</ele>
        <time>2019-04-02T09:07:51.000Z</time>
      </trkpt>
      <trkpt lat="47.25945" lon="-1.53872">
        <ele>8.8000001907349</ele>
        <time>2019-04-02T09:07:52.000Z</time>
      </trkpt>
      <trkpt lat="47.25947" lon="-1.53871">
        <ele>8.6000003814697</ele>
        <time>2019-04-02T09:07:53.000Z</time>
      </trkpt>
      <trkpt lat="47.25948" lon="-1.53869">
        <ele>8.6000003814697</ele>
        <time>2019-04-02T09:07:54.000Z</time>
      </trkpt>
      <trkpt lat="47.2595" lon="-1.53867">
        <ele>8.3999996185303</ele>
        <time>2019-04-02T09:07:55.000Z</time>
      </trkpt>
      <trkpt lat="47.2595" lon="-1.53867">
        <ele>8.3999996185303</ele>
        <time>2019-04-02T09:07:56.000Z</time>
      </trkpt>
      <trkpt lat="47.25951" lon="-1.53865">
        <ele>8.3999996185303</ele>
        <time>2019-04-02T09:07:57.000Z</time>
      </trkpt>
      <trkpt lat="47.25952" lon="-1.53864">
        <ele>8.3999996185303</ele>
        <time>2019-04-02T09:07:58.000Z</time>
      </trkpt>
      <trkpt lat="47.25953" lon="-1.53863">
        <ele>8.1999998092651</ele>
        <time>2019-04-02T09:07:59.000Z</time>
      </trkpt>
      <trkpt lat="47.25954" lon="-1.53862">
        <ele>8.1999998092651</ele>
        <time>2019-04-02T09:08:00.000Z</time>
      </trkpt>
      <trkpt lat="47.25955" lon="-1.5386">
        <ele>8.1999998092651</ele>
        <time>2019-04-02T09:08:01.000Z</time>
      </trkpt>
      <trkpt lat="47.25957" lon="-1.53858">
        <ele>8</ele>
        <time>2019-04-02T09:08:02.000Z</time>
      </trkpt>
      <trkpt lat="47.25957" lon="-1.53858">
        <ele>8</ele>
        <time>2019-04-02T09:08:03.000Z</time>
      </trkpt>
      <trkpt lat="47.25958" lon="-1.53857">
        <ele>8</ele>
        <time>2019-04-02T09:08:04.000Z</time>
      </trkpt>
      <trkpt lat="47.2596" lon="-1.53856">
        <ele>8</ele>
        <time>2019-04-02T09:08:05.000Z</time>
      </trkpt>
      <trkpt lat="47.25961" lon="-1.53855">
        <ele>7.8000001907349</ele>
        <time>2019-04-02T09:08:06.000Z</time>
      </trkpt>
      <trkpt lat="47.25963" lon="-1.53854">
        <ele>7.8000001907349</ele>
        <time>2019-04-02T09:08:07.000Z</time>
      </trkpt>
      <trkpt lat="47.25964" lon="-1.53854">
        <ele>7.8000001907349</ele>
        <time>2019-04-02T09:08:08.000Z</time>
      </trkpt>
      <trkpt lat="47.25966" lon="-1.53853">
        <ele>7.8000001907349</ele>
        <time>2019-04-02T09:08:09.000Z</time>
      </trkpt>
      <trkpt lat="47.25967" lon="-1.53853">
        <ele>7.8000001907349</ele>
        <time>2019-04-02T09:08:10.000Z</time>
      </trkpt>
      <trkpt lat="47.25968" lon="-1.53852">
        <ele>7.8000001907349</ele>
        <time>2019-04-02T09:08:11.000Z</time>
      </trkpt>
      <trkpt lat="47.25969" lon="-1.53852">
        <ele>7.8000001907349</ele>
        <time>2019-04-02T09:08:12.000Z</time>
      </trkpt>
      <trkpt lat="47.2597" lon="-1.53851">
        <ele>7.8000001907349</ele>
        <time>2019-04-02T09:08:13.000Z</time>
      </trkpt>
      <trkpt lat="47.25972" lon="-1.5385">
        <ele>7.8000001907349</ele>
        <time>2019-04-02T09:08:14.000Z</time>
      </trkpt>
      <trkpt lat="47.25973" lon="-1.53849">
        <ele>7.8000001907349</ele>
        <time>2019-04-02T09:08:15.000Z</time>
      </trkpt>
      <trkpt lat="47.25974" lon="-1.53849">
        <ele>7.8000001907349</ele>
        <time>2019-04-02T09:08:16.000Z</time>
      </trkpt>
      <trkpt lat="47.25975" lon="-1.53849">
        <ele>7.8000001907349</ele>
        <time>2019-04-02T09:08:17.000Z</time>
      </trkpt>
      <trkpt lat="47.25976" lon="-1.53848">
        <ele>7.8000001907349</ele>
        <time>2019-04-02T09:08:18.000Z</time>
      </trkpt>
      <trkpt lat="47.25977" lon="-1.53848">
        <ele>7.8000001907349</ele>
        <time>2019-04-02T09:08:19.000Z</time>
      </trkpt>
      <trkpt lat="47.25979" lon="-1.53848">
        <ele>7.8000001907349</ele>
        <time>2019-04-02T09:08:20.000Z</time>
      </trkpt>
      <trkpt lat="47.2598" lon="-1.53847">
        <ele>7.8000001907349</ele>
        <time>2019-04-02T09:08:21.000Z</time>
      </trkpt>
      <trkpt lat="47.25981" lon="-1.53846">
        <ele>7.8000001907349</ele>
        <time>2019-04-02T09:08:22.000Z</time>
      </trkpt>
      <trkpt lat="47.25982" lon="-1.53846">
        <ele>7.8000001907349</ele>
        <time>2019-04-02T09:08:23.000Z</time>
      </trkpt>
      <trkpt lat="47.25984" lon="-1.53846">
        <ele>7.8000001907349</ele>
        <time>2019-04-02T09:08:24.000Z</time>
      </trkpt>
      <trkpt lat="47.25985" lon="-1.53845">
        <ele>7.8000001907349</ele>
        <time>2019-04-02T09:08:25.000Z</time>
      </trkpt>
      <trkpt lat="47.25986" lon="-1.53845">
        <ele>7.8000001907349</ele>
        <time>2019-04-02T09:08:26.000Z</time>
      </trkpt>
      <trkpt lat="47.25988" lon="-1.53845">
        <ele>7.8000001907349</ele>
        <time>2019-04-02T09:08:27.000Z</time>
      </trkpt>
      <trkpt lat="47.2599" lon="-1.53844">
        <ele>7.8000001907349</ele>
        <time>2019-04-02T09:08:28.000Z</time>
      </trkpt>
      <trkpt lat="47.25992" lon="-1.53844">
        <ele>7.8000001907349</ele>
        <time>2019-04-02T09:08:29.000Z</time>
      </trkpt>
      <trkpt lat="47.25993" lon="-1.53843">
        <ele>7.8000001907349</ele>
        <time>2019-04-02T09:08:30.000Z</time>
      </trkpt>
      <trkpt lat="47.25995" lon="-1.53843">
        <ele>7.8000001907349</ele>
        <time>2019-04-02T09:08:31.000Z</time>
      </trkpt>
      <trkpt lat="47.25997" lon="-1.53842">
        <ele>7.8000001907349</ele>
        <time>2019-04-02T09:08:32.000Z</time>
      </trkpt>
      <trkpt lat="47.25998" lon="-1.53842">
        <ele>7.8000001907349</ele>
        <time>2019-04-02T09:08:33.000Z</time>
      </trkpt>
      <trkpt lat="47.25999" lon="-1.53842">
        <ele>7.8000001907349</ele>
        <time>2019-04-02T09:08:34.000Z</time>
      </trkpt>
      <trkpt lat="47.26001" lon="-1.53842">
        <ele>7.8000001907349</ele>
        <time>2019-04-02T09:08:35.000Z</time>
      </trkpt>
      <trkpt lat="47.26002" lon="-1.53842">
        <ele>7.5999999046326</ele>
        <time>2019-04-02T09:08:36.000Z</time>
      </trkpt>
      <trkpt lat="47.26005" lon="-1.53842">
        <ele>7.5999999046326</ele>
        <time>2019-04-02T09:08:37.000Z</time>
      </trkpt>
      <trkpt lat="47.26007" lon="-1.53842">
        <ele>7.5999999046326</ele>
        <time>2019-04-02T09:08:38.000Z</time>
      </trkpt>
      <trkpt lat="47.26007" lon="-1.53842">
        <ele>7.5999999046326</ele>
        <time>2019-04-02T09:08:39.000Z</time>
      </trkpt>
      <trkpt lat="47.26009" lon="-1.53841">
        <ele>7.5999999046326</ele>
        <time>2019-04-02T09:08:40.000Z</time>
      </trkpt>
      <trkpt lat="47.26011" lon="-1.53841">
        <ele>7.5999999046326</ele>
        <time>2019-04-02T09:08:41.000Z</time>
      </trkpt>
      <trkpt lat="47.26012" lon="-1.53841">
        <ele>7.4000000953674</ele>
        <time>2019-04-02T09:08:42.000Z</time>
      </trkpt>
      <trkpt lat="47.26015" lon="-1.5384">
        <ele>7.4000000953674</ele>
        <time>2019-04-02T09:08:43.000Z</time>
      </trkpt>
      <trkpt lat="47.26015" lon="-1.5384">
        <ele>7.4000000953674</ele>
        <time>2019-04-02T09:08:44.000Z</time>
      </trkpt>
      <trkpt lat="47.26016" lon="-1.53839">
        <ele>7.4000000953674</ele>
        <time>2019-04-02T09:08:45.000Z</time>
      </trkpt>
      <trkpt lat="47.26017" lon="-1.53839">
        <ele>7.4000000953674</ele>
        <time>2019-04-02T09:08:46.000Z</time>
      </trkpt>
      <trkpt lat="47.26018" lon="-1.53839">
        <ele>7.4000000953674</ele>
        <time>2019-04-02T09:08:47.000Z</time>
      </trkpt>
      <trkpt lat="47.2602" lon="-1.53839">
        <ele>7.4000000953674</ele>
        <time>2019-04-02T09:08:48.000Z</time>
      </trkpt>
      <trkpt lat="47.26021" lon="-1.53839">
        <ele>7.1999998092651</ele>
        <time>2019-04-02T09:08:49.000Z</time>
      </trkpt>
      <trkpt lat="47.26023" lon="-1.53839">
        <ele>7.1999998092651</ele>
        <time>2019-04-02T09:08:50.000Z</time>
      </trkpt>
      <trkpt lat="47.26025" lon="-1.53839">
        <ele>7.1999998092651</ele>
        <time>2019-04-02T09:08:51.000Z</time>
      </trkpt>
      <trkpt lat="47.26027" lon="-1.53839">
        <ele>7.1999998092651</ele>
        <time>2019-04-02T09:08:52.000Z</time>
      </trkpt>
      <trkpt lat="47.26028" lon="-1.53839">
        <ele>7.1999998092651</ele>
        <time>2019-04-02T09:08:53.000Z</time>
      </trkpt>
      <trkpt lat="47.2603" lon="-1.53839">
        <ele>7.1999998092651</ele>
        <time>2019-04-02T09:08:54.000Z</time>
      </trkpt>
      <trkpt lat="47.26031" lon="-1.5384">
        <ele>7.1999998092651</ele>
        <time>2019-04-02T09:08:55.000Z</time>
      </trkpt>
      <trkpt lat="47.26033" lon="-1.53839">
        <ele>7.1999998092651</ele>
        <time>2019-04-02T09:08:56.000Z</time>
      </trkpt>
      <trkpt lat="47.26035" lon="-1.53839">
        <ele>7.1999998092651</ele>
        <time>2019-04-02T09:08:57.000Z</time>
      </trkpt>
      <trkpt lat="47.26036" lon="-1.53839">
        <ele>7</ele>
        <time>2019-04-02T09:08:58.000Z</time>
      </trkpt>
      <trkpt lat="47.26038" lon="-1.53839">
        <ele>7</ele>
        <time>2019-04-02T09:08:59.000Z</time>
      </trkpt>
      <trkpt lat="47.26039" lon="-1.53839">
        <ele>7</ele>
        <time>2019-04-02T09:09:00.000Z</time>
      </trkpt>
      <trkpt lat="47.26041" lon="-1.53839">
        <ele>7</ele>
        <time>2019-04-02T09:09:01.000Z</time>
      </trkpt>
      <trkpt lat="47.26043" lon="-1.53839">
        <ele>7</ele>
        <time>2019-04-02T09:09:02.000Z</time>
      </trkpt>
      <trkpt lat="47.26044" lon="-1.53839">
        <ele>7</ele>
        <time>2019-04-02T09:09:03.000Z</time>
      </trkpt>
      <trkpt lat="47.26046" lon="-1.53839">
        <ele>7</ele>
        <time>2019-04-02T09:09:04.000Z</time>
      </trkpt>
      <trkpt lat="47.26047" lon="-1.5384">
        <ele>7</ele>
        <time>2019-04-02T09:09:05.000Z</time>
      </trkpt>
      <trkpt lat="47.26049" lon="-1.5384">
        <ele>7</ele>
        <time>2019-04-02T09:09:06.000Z</time>
      </trkpt>
      <trkpt lat="47.2605" lon="-1.5384">
        <ele>7</ele>
        <time>2019-04-02T09:09:07.000Z</time>
      </trkpt>
      <trkpt lat="47.26051" lon="-1.5384">
        <ele>7</ele>
        <time>2019-04-02T09:09:08.000Z</time>
      </trkpt>
      <trkpt lat="47.26054" lon="-1.5384">
        <ele>7</ele>
        <time>2019-04-02T09:09:09.000Z</time>
      </trkpt>
      <trkpt lat="47.26054" lon="-1.5384">
        <ele>7</ele>
        <time>2019-04-02T09:09:10.000Z</time>
      </trkpt>
      <trkpt lat="47.26055" lon="-1.5384">
        <ele>7</ele>
        <time>2019-04-02T09:09:11.000Z</time>
      </trkpt>
      <trkpt lat="47.26057" lon="-1.5384">
        <ele>7</ele>
        <time>2019-04-02T09:09:12.000Z</time>
      </trkpt>
      <trkpt lat="47.26057" lon="-1.5384">
        <ele>7</ele>
        <time>2019-04-02T09:09:13.000Z</time>
      </trkpt>
      <trkpt lat="47.26058" lon="-1.5384">
        <ele>7</ele>
        <time>2019-04-02T09:09:14.000Z</time>
      </trkpt>
      <trkpt lat="47.26059" lon="-1.5384">
        <ele>7</ele>
        <time>2019-04-02T09:09:15.000Z</time>
      </trkpt>
      <trkpt lat="47.26061" lon="-1.5384">
        <ele>7</ele>
        <time>2019-04-02T09:09:16.000Z</time>
      </trkpt>
      <trkpt lat="47.26062" lon="-1.5384">
        <ele>7</ele>
        <time>2019-04-02T09:09:17.000Z</time>
      </trkpt>
      <trkpt lat="47.26064" lon="-1.5384">
        <ele>7</ele>
        <time>2019-04-02T09:09:18.000Z</time>
      </trkpt>
      <trkpt lat="47.26065" lon="-1.53841">
        <ele>7.1999998092651</ele>
        <time>2019-04-02T09:09:19.000Z</time>
      </trkpt>
      <trkpt lat="47.26067" lon="-1.53841">
        <ele>7.1999998092651</ele>
        <time>2019-04-02T09:09:20.000Z</time>
      </trkpt>
      <trkpt lat="47.26068" lon="-1.53842">
        <ele>7.4000000953674</ele>
        <time>2019-04-02T09:09:21.000Z</time>
      </trkpt>
      <trkpt lat="47.26069" lon="-1.53842">
        <ele>7.4000000953674</ele>
        <time>2019-04-02T09:09:22.000Z</time>
      </trkpt>
      <trkpt lat="47.26071" lon="-1.53842">
        <ele>7.4000000953674</ele>
        <time>2019-04-02T09:09:23.000Z</time>
      </trkpt>
      <trkpt lat="47.26072" lon="-1.53842">
        <ele>7.5999999046326</ele>
        <time>2019-04-02T09:09:24.000Z</time>
      </trkpt>
      <trkpt lat="47.26073" lon="-1.53842">
        <ele>7.5999999046326</ele>
        <time>2019-04-02T09:09:25.000Z</time>
      </trkpt>
      <trkpt lat="47.26075" lon="-1.53842">
        <ele>7.5999999046326</ele>
        <time>2019-04-02T09:09:26.000Z</time>
      </trkpt>
      <trkpt lat="47.26076" lon="-1.53843">
        <ele>7.5999999046326</ele>
        <time>2019-04-02T09:09:27.000Z</time>
      </trkpt>
      <trkpt lat="47.26077" lon="-1.53842">
        <ele>7.5999999046326</ele>
        <time>2019-04-02T09:09:28.000Z</time>
      </trkpt>
      <trkpt lat="47.26079" lon="-1.53842">
        <ele>7.5999999046326</ele>
        <time>2019-04-02T09:09:29.000Z</time>
      </trkpt>
      <trkpt lat="47.26081" lon="-1.53842">
        <ele>7.8000001907349</ele>
        <time>2019-04-02T09:09:30.000Z</time>
      </trkpt>
      <trkpt lat="47.26082" lon="-1.53841">
        <ele>7.8000001907349</ele>
        <time>2019-04-02T09:09:31.000Z</time>
      </trkpt>
      <trkpt lat="47.26085" lon="-1.5384">
        <ele>8</ele>
        <time>2019-04-02T09:09:32.000Z</time>
      </trkpt>
      <trkpt lat="47.26085" lon="-1.5384">
        <ele>8</ele>
        <time>2019-04-02T09:09:33.000Z</time>
      </trkpt>
      <trkpt lat="47.26086" lon="-1.5384">
        <ele>8</ele>
        <time>2019-04-02T09:09:34.000Z</time>
      </trkpt>
      <trkpt lat="47.26087" lon="-1.53839">
        <ele>8</ele>
        <time>2019-04-02T09:09:35.000Z</time>
      </trkpt>
      <trkpt lat="47.26088" lon="-1.53839">
        <ele>8</ele>
        <time>2019-04-02T09:09:36.000Z</time>
      </trkpt>
      <trkpt lat="47.26089" lon="-1.53838">
        <ele>8</ele>
        <time>2019-04-02T09:09:37.000Z</time>
      </trkpt>
      <trkpt lat="47.2609" lon="-1.53838">
        <ele>8.1999998092651</ele>
        <time>2019-04-02T09:09:38.000Z</time>
      </trkpt>
      <trkpt lat="47.26092" lon="-1.53838">
        <ele>8.1999998092651</ele>
        <time>2019-04-02T09:09:39.000Z</time>
      </trkpt>
      <trkpt lat="47.26093" lon="-1.53837">
        <ele>8.3999996185303</ele>
        <time>2019-04-02T09:09:40.000Z</time>
      </trkpt>
      <trkpt lat="47.26095" lon="-1.53837">
        <ele>8.3999996185303</ele>
        <time>2019-04-02T09:09:41.000Z</time>
      </trkpt>
      <trkpt lat="47.26096" lon="-1.53837">
        <ele>8.6000003814697</ele>
        <time>2019-04-02T09:09:42.000Z</time>
      </trkpt>
      <trkpt lat="47.26098" lon="-1.53836">
        <ele>8.6000003814697</ele>
        <time>2019-04-02T09:09:43.000Z</time>
      </trkpt>
      <trkpt lat="47.261" lon="-1.53836">
        <ele>8.8000001907349</ele>
        <time>2019-04-02T09:09:44.000Z</time>
      </trkpt>
      <trkpt lat="47.26102" lon="-1.53837">
        <ele>9</ele>
        <time>2019-04-02T09:09:45.000Z</time>
      </trkpt>
      <trkpt lat="47.26103" lon="-1.53836">
        <ele>9</ele>
        <time>2019-04-02T09:09:46.000Z</time>
      </trkpt>
      <trkpt lat="47.26105" lon="-1.53836">
        <ele>9.1999998092651</ele>
        <time>2019-04-02T09:09:47.000Z</time>
      </trkpt>
      <trkpt lat="47.26106" lon="-1.53835">
        <ele>9.1999998092651</ele>
        <time>2019-04-02T09:09:48.000Z</time>
      </trkpt>
      <trkpt lat="47.26107" lon="-1.53835">
        <ele>9.1999998092651</ele>
        <time>2019-04-02T09:09:49.000Z</time>
      </trkpt>
      <trkpt lat="47.26109" lon="-1.53835">
        <ele>9.3999996185303</ele>
        <time>2019-04-02T09:09:50.000Z</time>
      </trkpt>
      <trkpt lat="47.2611" lon="-1.53835">
        <ele>9.3999996185303</ele>
        <time>2019-04-02T09:09:51.000Z</time>
      </trkpt>
      <trkpt lat="47.26111" lon="-1.53834">
        <ele>9.6000003814697</ele>
        <time>2019-04-02T09:09:52.000Z</time>
      </trkpt>
      <trkpt lat="47.26113" lon="-1.53834">
        <ele>9.6000003814697</ele>
        <time>2019-04-02T09:09:53.000Z</time>
      </trkpt>
      <trkpt lat="47.26115" lon="-1.53834">
        <ele>9.8000001907349</ele>
        <time>2019-04-02T09:09:54.000Z</time>
      </trkpt>
      <trkpt lat="47.26119" lon="-1.53834">
        <ele>10.199999809265</ele>
        <time>2019-04-02T09:09:55.000Z</time>
      </trkpt>
      <trkpt lat="47.26119" lon="-1.53834">
        <ele>10.199999809265</ele>
        <time>2019-04-02T09:09:56.000Z</time>
      </trkpt>
      <trkpt lat="47.26121" lon="-1.53834">
        <ele>10.39999961853</ele>
        <time>2019-04-02T09:09:57.000Z</time>
      </trkpt>
      <trkpt lat="47.26122" lon="-1.53835">
        <ele>10.39999961853</ele>
        <time>2019-04-02T09:09:58.000Z</time>
      </trkpt>
      <trkpt lat="47.26124" lon="-1.53835">
        <ele>10.60000038147</ele>
        <time>2019-04-02T09:09:59.000Z</time>
      </trkpt>
      <trkpt lat="47.26125" lon="-1.53835">
        <ele>10.800000190735</ele>
        <time>2019-04-02T09:10:00.000Z</time>
      </trkpt>
      <trkpt lat="47.26127" lon="-1.53835">
        <ele>11</ele>
        <time>2019-04-02T09:10:01.000Z</time>
      </trkpt>
      <trkpt lat="47.26128" lon="-1.53835">
        <ele>11</ele>
        <time>2019-04-02T09:10:02.000Z</time>
      </trkpt>
      <trkpt lat="47.2613" lon="-1.53835">
        <ele>11.199999809265</ele>
        <time>2019-04-02T09:10:03.000Z</time>
      </trkpt>
      <trkpt lat="47.26131" lon="-1.53835">
        <ele>11.199999809265</ele>
        <time>2019-04-02T09:10:04.000Z</time>
      </trkpt>
      <trkpt lat="47.26133" lon="-1.53835">
        <ele>11.39999961853</ele>
        <time>2019-04-02T09:10:05.000Z</time>
      </trkpt>
      <trkpt lat="47.26135" lon="-1.53835">
        <ele>11.60000038147</ele>
        <time>2019-04-02T09:10:06.000Z</time>
      </trkpt>
      <trkpt lat="47.26137" lon="-1.53834">
        <ele>11.60000038147</ele>
        <time>2019-04-02T09:10:07.000Z</time>
      </trkpt>
      <trkpt lat="47.26138" lon="-1.53834">
        <ele>11.800000190735</ele>
        <time>2019-04-02T09:10:08.000Z</time>
      </trkpt>
      <trkpt lat="47.26139" lon="-1.53834">
        <ele>11.800000190735</ele>
        <time>2019-04-02T09:10:09.000Z</time>
      </trkpt>
      <trkpt lat="47.26141" lon="-1.53834">
        <ele>12</ele>
        <time>2019-04-02T09:10:10.000Z</time>
      </trkpt>
      <trkpt lat="47.26143" lon="-1.53835">
        <ele>12.199999809265</ele>
        <time>2019-04-02T09:10:11.000Z</time>
      </trkpt>
      <trkpt lat="47.26146" lon="-1.53835">
        <ele>12.60000038147</ele>
        <time>2019-04-02T09:10:12.000Z</time>
      </trkpt>
      <trkpt lat="47.26146" lon="-1.53835">
        <ele>12.60000038147</ele>
        <time>2019-04-02T09:10:13.000Z</time>
      </trkpt>
      <trkpt lat="47.26148" lon="-1.53835">
        <ele>12.60000038147</ele>
        <time>2019-04-02T09:10:14.000Z</time>
      </trkpt>
      <trkpt lat="47.2615" lon="-1.53836">
        <ele>12.800000190735</ele>
        <time>2019-04-02T09:10:15.000Z</time>
      </trkpt>
      <trkpt lat="47.2615" lon="-1.53836">
        <ele>12.800000190735</ele>
        <time>2019-04-02T09:10:16.000Z</time>
      </trkpt>
      <trkpt lat="47.26152" lon="-1.53836">
        <ele>13</ele>
        <time>2019-04-02T09:10:17.000Z</time>
      </trkpt>
      <trkpt lat="47.26153" lon="-1.53837">
        <ele>13.199999809265</ele>
        <time>2019-04-02T09:10:18.000Z</time>
      </trkpt>
      <trkpt lat="47.26154" lon="-1.53837">
        <ele>13.39999961853</ele>
        <time>2019-04-02T09:10:19.000Z</time>
      </trkpt>
      <trkpt lat="47.26156" lon="-1.53838">
        <ele>13.39999961853</ele>
        <time>2019-04-02T09:10:20.000Z</time>
      </trkpt>
      <trkpt lat="47.26157" lon="-1.53838">
        <ele>13.60000038147</ele>
        <time>2019-04-02T09:10:21.000Z</time>
      </trkpt>
      <trkpt lat="47.26158" lon="-1.53839">
        <ele>13.800000190735</ele>
        <time>2019-04-02T09:10:22.000Z</time>
      </trkpt>
      <trkpt lat="47.26159" lon="-1.53839">
        <ele>13.800000190735</ele>
        <time>2019-04-02T09:10:23.000Z</time>
      </trkpt>
      <trkpt lat="47.2616" lon="-1.53839">
        <ele>14</ele>
        <time>2019-04-02T09:10:24.000Z</time>
      </trkpt>
      <trkpt lat="47.26161" lon="-1.5384">
        <ele>14</ele>
        <time>2019-04-02T09:10:25.000Z</time>
      </trkpt>
      <trkpt lat="47.26162" lon="-1.5384">
        <ele>14.199999809265</ele>
        <time>2019-04-02T09:10:26.000Z</time>
      </trkpt>
      <trkpt lat="47.26164" lon="-1.53841">
        <ele>14.199999809265</ele>
        <time>2019-04-02T09:10:27.000Z</time>
      </trkpt>
      <trkpt lat="47.26165" lon="-1.53841">
        <ele>14</ele>
        <time>2019-04-02T09:10:28.000Z</time>
      </trkpt>
      <trkpt lat="47.26166" lon="-1.53841">
        <ele>13.800000190735</ele>
        <time>2019-04-02T09:10:29.000Z</time>
      </trkpt>
      <trkpt lat="47.26168" lon="-1.53841">
        <ele>13.800000190735</ele>
        <time>2019-04-02T09:10:30.000Z</time>
      </trkpt>
      <trkpt lat="47.26168" lon="-1.53841">
        <ele>13.60000038147</ele>
        <time>2019-04-02T09:10:31.000Z</time>
      </trkpt>
      <trkpt lat="47.2617" lon="-1.53842">
        <ele>13.60000038147</ele>
        <time>2019-04-02T09:10:32.000Z</time>
      </trkpt>
      <trkpt lat="47.26171" lon="-1.53842">
        <ele>13.39999961853</ele>
        <time>2019-04-02T09:10:33.000Z</time>
      </trkpt>
      <trkpt lat="47.26172" lon="-1.53842">
        <ele>13.39999961853</ele>
        <time>2019-04-02T09:10:34.000Z</time>
      </trkpt>
      <trkpt lat="47.26173" lon="-1.53842">
        <ele>13.199999809265</ele>
        <time>2019-04-02T09:10:35.000Z</time>
      </trkpt>
      <trkpt lat="47.26174" lon="-1.53843">
        <ele>13.199999809265</ele>
        <time>2019-04-02T09:10:36.000Z</time>
      </trkpt>
      <trkpt lat="47.26175" lon="-1.53843">
        <ele>13.199999809265</ele>
        <time>2019-04-02T09:10:37.000Z</time>
      </trkpt>
      <trkpt lat="47.26178" lon="-1.53844">
        <ele>13</ele>
        <time>2019-04-02T09:10:38.000Z</time>
      </trkpt>
      <trkpt lat="47.26178" lon="-1.53844">
        <ele>13</ele>
        <time>2019-04-02T09:10:39.000Z</time>
      </trkpt>
      <trkpt lat="47.26179" lon="-1.53845">
        <ele>12.800000190735</ele>
        <time>2019-04-02T09:10:40.000Z</time>
      </trkpt>
      <trkpt lat="47.26181" lon="-1.53846">
        <ele>12.800000190735</ele>
        <time>2019-04-02T09:10:41.000Z</time>
      </trkpt>
      <trkpt lat="47.26182" lon="-1.53846">
        <ele>12.800000190735</ele>
        <time>2019-04-02T09:10:42.000Z</time>
      </trkpt>
      <trkpt lat="47.26184" lon="-1.53847">
        <ele>12.60000038147</ele>
        <time>2019-04-02T09:10:43.000Z</time>
      </trkpt>
      <trkpt lat="47.26185" lon="-1.53848">
        <ele>12.60000038147</ele>
        <time>2019-04-02T09:10:44.000Z</time>
      </trkpt>
      <trkpt lat="47.26187" lon="-1.53849">
        <ele>12.39999961853</ele>
        <time>2019-04-02T09:10:45.000Z</time>
      </trkpt>
      <trkpt lat="47.26188" lon="-1.5385">
        <ele>12.39999961853</ele>
        <time>2019-04-02T09:10:46.000Z</time>
      </trkpt>
      <trkpt lat="47.26189" lon="-1.53851">
        <ele>12.39999961853</ele>
        <time>2019-04-02T09:10:47.000Z</time>
      </trkpt>
      <trkpt lat="47.2619" lon="-1.53852">
        <ele>12.39999961853</ele>
        <time>2019-04-02T09:10:48.000Z</time>
      </trkpt>
      <trkpt lat="47.26191" lon="-1.53853">
        <ele>12.39999961853</ele>
        <time>2019-04-02T09:10:49.000Z</time>
      </trkpt>
      <trkpt lat="47.26192" lon="-1.53854">
        <ele>12.39999961853</ele>
        <time>2019-04-02T09:10:50.000Z</time>
      </trkpt>
      <trkpt lat="47.26193" lon="-1.53855">
        <ele>12.39999961853</ele>
        <time>2019-04-02T09:10:51.000Z</time>
      </trkpt>
      <trkpt lat="47.26194" lon="-1.53856">
        <ele>12.39999961853</ele>
        <time>2019-04-02T09:10:52.000Z</time>
      </trkpt>
      <trkpt lat="47.26196" lon="-1.53857">
        <ele>12.199999809265</ele>
        <time>2019-04-02T09:10:53.000Z</time>
      </trkpt>
      <trkpt lat="47.26197" lon="-1.53858">
        <ele>12.199999809265</ele>
        <time>2019-04-02T09:10:54.000Z</time>
      </trkpt>
      <trkpt lat="47.26198" lon="-1.53859">
        <ele>12.199999809265</ele>
        <time>2019-04-02T09:10:55.000Z</time>
      </trkpt>
      <trkpt lat="47.262" lon="-1.5386">
        <ele>12</ele>
        <time>2019-04-02T09:10:56.000Z</time>
      </trkpt>
      <trkpt lat="47.26201" lon="-1.53861">
        <ele>12</ele>
        <time>2019-04-02T09:10:57.000Z</time>
      </trkpt>
      <trkpt lat="47.26203" lon="-1.53862">
        <ele>12</ele>
        <time>2019-04-02T09:10:58.000Z</time>
      </trkpt>
      <trkpt lat="47.26204" lon="-1.53863">
        <ele>12</ele>
        <time>2019-04-02T09:10:59.000Z</time>
      </trkpt>
      <trkpt lat="47.26206" lon="-1.53864">
        <ele>12</ele>
        <time>2019-04-02T09:11:00.000Z</time>
      </trkpt>
      <trkpt lat="47.26207" lon="-1.53865">
        <ele>12</ele>
        <time>2019-04-02T09:11:01.000Z</time>
      </trkpt>
      <trkpt lat="47.26209" lon="-1.53868">
        <ele>12.199999809265</ele>
        <time>2019-04-02T09:11:02.000Z</time>
      </trkpt>
      <trkpt lat="47.26209" lon="-1.53868">
        <ele>12.199999809265</ele>
        <time>2019-04-02T09:11:03.000Z</time>
      </trkpt>
      <trkpt lat="47.2621" lon="-1.5387">
        <ele>12.39999961853</ele>
        <time>2019-04-02T09:11:04.000Z</time>
      </trkpt>
      <trkpt lat="47.2621" lon="-1.53871">
        <ele>12.39999961853</ele>
        <time>2019-04-02T09:11:05.000Z</time>
      </trkpt>
      <trkpt lat="47.26211" lon="-1.53872">
        <ele>12.60000038147</ele>
        <time>2019-04-02T09:11:06.000Z</time>
      </trkpt>
      <trkpt lat="47.26212" lon="-1.53873">
        <ele>12.60000038147</ele>
        <time>2019-04-02T09:11:07.000Z</time>
      </trkpt>
      <trkpt lat="47.26214" lon="-1.53874">
        <ele>12.60000038147</ele>
        <time>2019-04-02T09:11:08.000Z</time>
      </trkpt>
      <trkpt lat="47.26215" lon="-1.53875">
        <ele>12.60000038147</ele>
        <time>2019-04-02T09:11:09.000Z</time>
      </trkpt>
      <trkpt lat="47.26216" lon="-1.53876">
        <ele>12.60000038147</ele>
        <time>2019-04-02T09:11:10.000Z</time>
      </trkpt>
      <trkpt lat="47.26217" lon="-1.53878">
        <ele>12.60000038147</ele>
        <time>2019-04-02T09:11:11.000Z</time>
      </trkpt>
      <trkpt lat="47.26218" lon="-1.53879">
        <ele>12.800000190735</ele>
        <time>2019-04-02T09:11:12.000Z</time>
      </trkpt>
      <trkpt lat="47.26219" lon="-1.5388">
        <ele>12.800000190735</ele>
        <time>2019-04-02T09:11:13.000Z</time>
      </trkpt>
      <trkpt lat="47.2622" lon="-1.53882">
        <ele>13</ele>
        <time>2019-04-02T09:11:14.000Z</time>
      </trkpt>
      <trkpt lat="47.2622" lon="-1.53883">
        <ele>13</ele>
        <time>2019-04-02T09:11:15.000Z</time>
      </trkpt>
      <trkpt lat="47.26221" lon="-1.53884">
        <ele>13.199999809265</ele>
        <time>2019-04-02T09:11:16.000Z</time>
      </trkpt>
      <trkpt lat="47.26222" lon="-1.53885">
        <ele>13.199999809265</ele>
        <time>2019-04-02T09:11:17.000Z</time>
      </trkpt>
      <trkpt lat="47.26223" lon="-1.53887">
        <ele>13.199999809265</ele>
        <time>2019-04-02T09:11:18.000Z</time>
      </trkpt>
      <trkpt lat="47.26224" lon="-1.53888">
        <ele>13.39999961853</ele>
        <time>2019-04-02T09:11:19.000Z</time>
      </trkpt>
      <trkpt lat="47.26224" lon="-1.53889">
        <ele>13.39999961853</ele>
        <time>2019-04-02T09:11:20.000Z</time>
      </trkpt>
      <trkpt lat="47.26226" lon="-1.5389">
        <ele>13.39999961853</ele>
        <time>2019-04-02T09:11:21.000Z</time>
      </trkpt>
      <trkpt lat="47.26227" lon="-1.53891">
        <ele>13.39999961853</ele>
        <time>2019-04-02T09:11:22.000Z</time>
      </trkpt>
      <trkpt lat="47.26228" lon="-1.53893">
        <ele>13.60000038147</ele>
        <time>2019-04-02T09:11:23.000Z</time>
      </trkpt>
      <trkpt lat="47.2623" lon="-1.53894">
        <ele>13.60000038147</ele>
        <time>2019-04-02T09:11:24.000Z</time>
      </trkpt>
      <trkpt lat="47.26231" lon="-1.53896">
        <ele>13.60000038147</ele>
        <time>2019-04-02T09:11:25.000Z</time>
      </trkpt>
      <trkpt lat="47.26233" lon="-1.53897">
        <ele>13.60000038147</ele>
        <time>2019-04-02T09:11:26.000Z</time>
      </trkpt>
      <trkpt lat="47.26234" lon="-1.53898">
        <ele>13.60000038147</ele>
        <time>2019-04-02T09:11:27.000Z</time>
      </trkpt>
      <trkpt lat="47.26236" lon="-1.53899">
        <ele>13.60000038147</ele>
        <time>2019-04-02T09:11:28.000Z</time>
      </trkpt>
      <trkpt lat="47.26237" lon="-1.539">
        <ele>13.60000038147</ele>
        <time>2019-04-02T09:11:29.000Z</time>
      </trkpt>
      <trkpt lat="47.26238" lon="-1.53901">
        <ele>13.60000038147</ele>
        <time>2019-04-02T09:11:30.000Z</time>
      </trkpt>
      <trkpt lat="47.26239" lon="-1.53902">
        <ele>13.60000038147</ele>
        <time>2019-04-02T09:11:31.000Z</time>
      </trkpt>
      <trkpt lat="47.26241" lon="-1.53903">
        <ele>13.60000038147</ele>
        <time>2019-04-02T09:11:32.000Z</time>
      </trkpt>
      <trkpt lat="47.26242" lon="-1.53904">
        <ele>13.39999961853</ele>
        <time>2019-04-02T09:11:33.000Z</time>
      </trkpt>
      <trkpt lat="47.26245" lon="-1.53906">
        <ele>13.199999809265</ele>
        <time>2019-04-02T09:11:34.000Z</time>
      </trkpt>
      <trkpt lat="47.26245" lon="-1.53906">
        <ele>13.199999809265</ele>
        <time>2019-04-02T09:11:35.000Z</time>
      </trkpt>
      <trkpt lat="47.26246" lon="-1.53907">
        <ele>13</ele>
        <time>2019-04-02T09:11:36.000Z</time>
      </trkpt>
      <trkpt lat="47.26248" lon="-1.53908">
        <ele>12.800000190735</ele>
        <time>2019-04-02T09:11:37.000Z</time>
      </trkpt>
      <trkpt lat="47.2625" lon="-1.53909">
        <ele>12.800000190735</ele>
        <time>2019-04-02T09:11:38.000Z</time>
      </trkpt>
      <trkpt lat="47.26252" lon="-1.5391">
        <ele>12.60000038147</ele>
        <time>2019-04-02T09:11:39.000Z</time>
      </trkpt>
      <trkpt lat="47.26253" lon="-1.53911">
        <ele>12.39999961853</ele>
        <time>2019-04-02T09:11:40.000Z</time>
      </trkpt>
      <trkpt lat="47.26255" lon="-1.53912">
        <ele>12.39999961853</ele>
        <time>2019-04-02T09:11:41.000Z</time>
      </trkpt>
      <trkpt lat="47.26256" lon="-1.53913">
        <ele>12.199999809265</ele>
        <time>2019-04-02T09:11:42.000Z</time>
      </trkpt>
      <trkpt lat="47.26257" lon="-1.53914">
        <ele>12</ele>
        <time>2019-04-02T09:11:43.000Z</time>
      </trkpt>
      <trkpt lat="47.26259" lon="-1.53915">
        <ele>12</ele>
        <time>2019-04-02T09:11:44.000Z</time>
      </trkpt>
      <trkpt lat="47.2626" lon="-1.53916">
        <ele>11.800000190735</ele>
        <time>2019-04-02T09:11:45.000Z</time>
      </trkpt>
      <trkpt lat="47.26261" lon="-1.53917">
        <ele>11.800000190735</ele>
        <time>2019-04-02T09:11:46.000Z</time>
      </trkpt>
      <trkpt lat="47.26262" lon="-1.53918">
        <ele>11.60000038147</ele>
        <time>2019-04-02T09:11:47.000Z</time>
      </trkpt>
      <trkpt lat="47.26263" lon="-1.53919">
        <ele>11.60000038147</ele>
        <time>2019-04-02T09:11:48.000Z</time>
      </trkpt>
      <trkpt lat="47.26265" lon="-1.5392">
        <ele>11.39999961853</ele>
        <time>2019-04-02T09:11:49.000Z</time>
      </trkpt>
      <trkpt lat="47.26266" lon="-1.53921">
        <ele>11.39999961853</ele>
        <time>2019-04-02T09:11:50.000Z</time>
      </trkpt>
      <trkpt lat="47.26267" lon="-1.53922">
        <ele>11.199999809265</ele>
        <time>2019-04-02T09:11:51.000Z</time>
      </trkpt>
      <trkpt lat="47.26269" lon="-1.53924">
        <ele>11</ele>
        <time>2019-04-02T09:11:52.000Z</time>
      </trkpt>
      <trkpt lat="47.26271" lon="-1.53925">
        <ele>10.800000190735</ele>
        <time>2019-04-02T09:11:53.000Z</time>
      </trkpt>
      <trkpt lat="47.26274" lon="-1.53927">
        <ele>10.60000038147</ele>
        <time>2019-04-02T09:11:54.000Z</time>
      </trkpt>
      <trkpt lat="47.26274" lon="-1.53927">
        <ele>10.60000038147</ele>
        <time>2019-04-02T09:11:55.000Z</time>
      </trkpt>
      <trkpt lat="47.26276" lon="-1.53928">
        <ele>10.39999961853</ele>
        <time>2019-04-02T09:11:56.000Z</time>
      </trkpt>
      <trkpt lat="47.26278" lon="-1.53929">
        <ele>10.199999809265</ele>
        <time>2019-04-02T09:11:57.000Z</time>
      </trkpt>
      <trkpt lat="47.2628" lon="-1.5393">
        <ele>10.199999809265</ele>
        <time>2019-04-02T09:11:58.000Z</time>
      </trkpt>
      <trkpt lat="47.26281" lon="-1.53931">
        <ele>10</ele>
        <time>2019-04-02T09:11:59.000Z</time>
      </trkpt>
      <trkpt lat="47.26282" lon="-1.53932">
        <ele>9.8000001907349</ele>
        <time>2019-04-02T09:12:00.000Z</time>
      </trkpt>
      <trkpt lat="47.26284" lon="-1.53933">
        <ele>9.8000001907349</ele>
        <time>2019-04-02T09:12:01.000Z</time>
      </trkpt>
      <trkpt lat="47.26285" lon="-1.53934">
        <ele>9.8000001907349</ele>
        <time>2019-04-02T09:12:02.000Z</time>
      </trkpt>
      <trkpt lat="47.26286" lon="-1.53935">
        <ele>9.6000003814697</ele>
        <time>2019-04-02T09:12:03.000Z</time>
      </trkpt>
      <trkpt lat="47.26287" lon="-1.53937">
        <ele>9.3999996185303</ele>
        <time>2019-04-02T09:12:04.000Z</time>
      </trkpt>
      <trkpt lat="47.26288" lon="-1.53938">
        <ele>9.3999996185303</ele>
        <time>2019-04-02T09:12:05.000Z</time>
      </trkpt>
      <trkpt lat="47.26289" lon="-1.5394">
        <ele>9.3999996185303</ele>
        <time>2019-04-02T09:12:06.000Z</time>
      </trkpt>
      <trkpt lat="47.26291" lon="-1.53942">
        <ele>9.3999996185303</ele>
        <time>2019-04-02T09:12:07.000Z</time>
      </trkpt>
      <trkpt lat="47.26292" lon="-1.53944">
        <ele>9.3999996185303</ele>
        <time>2019-04-02T09:12:08.000Z</time>
      </trkpt>
      <trkpt lat="47.26294" lon="-1.53945">
        <ele>9.1999998092651</ele>
        <time>2019-04-02T09:12:09.000Z</time>
      </trkpt>
      <trkpt lat="47.26295" lon="-1.53946">
        <ele>9.1999998092651</ele>
        <time>2019-04-02T09:12:10.000Z</time>
      </trkpt>
      <trkpt lat="47.26297" lon="-1.53947">
        <ele>9.1999998092651</ele>
        <time>2019-04-02T09:12:11.000Z</time>
      </trkpt>
      <trkpt lat="47.26298" lon="-1.53948">
        <ele>9.1999998092651</ele>
        <time>2019-04-02T09:12:12.000Z</time>
      </trkpt>
      <trkpt lat="47.263" lon="-1.53949">
        <ele>9.1999998092651</ele>
        <time>2019-04-02T09:12:13.000Z</time>
      </trkpt>
      <trkpt lat="47.26301" lon="-1.5395">
        <ele>9</ele>
        <time>2019-04-02T09:12:14.000Z</time>
      </trkpt>
      <trkpt lat="47.26302" lon="-1.53951">
        <ele>9</ele>
        <time>2019-04-02T09:12:15.000Z</time>
      </trkpt>
      <trkpt lat="47.26303" lon="-1.53952">
        <ele>9</ele>
        <time>2019-04-02T09:12:16.000Z</time>
      </trkpt>
      <trkpt lat="47.26304" lon="-1.53953">
        <ele>9</ele>
        <time>2019-04-02T09:12:17.000Z</time>
      </trkpt>
      <trkpt lat="47.26306" lon="-1.53954">
        <ele>9</ele>
        <time>2019-04-02T09:12:18.000Z</time>
      </trkpt>
      <trkpt lat="47.26307" lon="-1.53955">
        <ele>9</ele>
        <time>2019-04-02T09:12:19.000Z</time>
      </trkpt>
      <trkpt lat="47.26309" lon="-1.53956">
        <ele>8.8000001907349</ele>
        <time>2019-04-02T09:12:20.000Z</time>
      </trkpt>
      <trkpt lat="47.26311" lon="-1.53956">
        <ele>8.8000001907349</ele>
        <time>2019-04-02T09:12:21.000Z</time>
      </trkpt>
      <trkpt lat="47.26312" lon="-1.53957">
        <ele>8.8000001907349</ele>
        <time>2019-04-02T09:12:22.000Z</time>
      </trkpt>
      <trkpt lat="47.26314" lon="-1.53958">
        <ele>8.6000003814697</ele>
        <time>2019-04-02T09:12:23.000Z</time>
      </trkpt>
      <trkpt lat="47.26316" lon="-1.53959">
        <ele>8.6000003814697</ele>
        <time>2019-04-02T09:12:24.000Z</time>
      </trkpt>
      <trkpt lat="47.26317" lon="-1.53959">
        <ele>8.6000003814697</ele>
        <time>2019-04-02T09:12:25.000Z</time>
      </trkpt>
      <trkpt lat="47.26319" lon="-1.5396">
        <ele>8.3999996185303</ele>
        <time>2019-04-02T09:12:26.000Z</time>
      </trkpt>
      <trkpt lat="47.2632" lon="-1.53962">
        <ele>8.3999996185303</ele>
        <time>2019-04-02T09:12:27.000Z</time>
      </trkpt>
      <trkpt lat="47.26322" lon="-1.53963">
        <ele>8.3999996185303</ele>
        <time>2019-04-02T09:12:28.000Z</time>
      </trkpt>
      <trkpt lat="47.26323" lon="-1.53964">
        <ele>8.3999996185303</ele>
        <time>2019-04-02T09:12:29.000Z</time>
      </trkpt>
      <trkpt lat="47.26325" lon="-1.53965">
        <ele>8.3999996185303</ele>
        <time>2019-04-02T09:12:30.000Z</time>
      </trkpt>
      <trkpt lat="47.26326" lon="-1.53967">
        <ele>8.3999996185303</ele>
        <time>2019-04-02T09:12:31.000Z</time>
      </trkpt>
      <trkpt lat="47.26328" lon="-1.53968">
        <ele>8.3999996185303</ele>
        <time>2019-04-02T09:12:32.000Z</time>
      </trkpt>
      <trkpt lat="47.26329" lon="-1.53968">
        <ele>8.1999998092651</ele>
        <time>2019-04-02T09:12:33.000Z</time>
      </trkpt>
      <trkpt lat="47.26331" lon="-1.53969">
        <ele>8.1999998092651</ele>
        <time>2019-04-02T09:12:34.000Z</time>
      </trkpt>
      <trkpt lat="47.26332" lon="-1.5397">
        <ele>8.1999998092651</ele>
        <time>2019-04-02T09:12:35.000Z</time>
      </trkpt>
      <trkpt lat="47.26333" lon="-1.53971">
        <ele>8.3999996185303</ele>
        <time>2019-04-02T09:12:36.000Z</time>
      </trkpt>
      <trkpt lat="47.26334" lon="-1.53972">
        <ele>8.3999996185303</ele>
        <time>2019-04-02T09:12:37.000Z</time>
      </trkpt>
      <trkpt lat="47.26337" lon="-1.53973">
        <ele>8.1999998092651</ele>
        <time>2019-04-02T09:12:38.000Z</time>
      </trkpt>
      <trkpt lat="47.26337" lon="-1.53973">
        <ele>8.1999998092651</ele>
        <time>2019-04-02T09:12:39.000Z</time>
      </trkpt>
      <trkpt lat="47.26339" lon="-1.53973">
        <ele>8.1999998092651</ele>
        <time>2019-04-02T09:12:40.000Z</time>
      </trkpt>
      <trkpt lat="47.2634" lon="-1.53973">
        <ele>8.1999998092651</ele>
        <time>2019-04-02T09:12:41.000Z</time>
      </trkpt>
      <trkpt lat="47.26341" lon="-1.53974">
        <ele>8.1999998092651</ele>
        <time>2019-04-02T09:12:42.000Z</time>
      </trkpt>
      <trkpt lat="47.26342" lon="-1.53974">
        <ele>8.1999998092651</ele>
        <time>2019-04-02T09:12:43.000Z</time>
      </trkpt>
      <trkpt lat="47.26344" lon="-1.53975">
        <ele>8.1999998092651</ele>
        <time>2019-04-02T09:12:44.000Z</time>
      </trkpt>
      <trkpt lat="47.26345" lon="-1.53975">
        <ele>8.1999998092651</ele>
        <time>2019-04-02T09:12:45.000Z</time>
      </trkpt>
      <trkpt lat="47.26347" lon="-1.53976">
        <ele>8</ele>
        <time>2019-04-02T09:12:46.000Z</time>
      </trkpt>
      <trkpt lat="47.26348" lon="-1.53977">
        <ele>8</ele>
        <time>2019-04-02T09:12:47.000Z</time>
      </trkpt>
      <trkpt lat="47.2635" lon="-1.53978">
        <ele>8</ele>
        <time>2019-04-02T09:12:48.000Z</time>
      </trkpt>
      <trkpt lat="47.26351" lon="-1.53978">
        <ele>8</ele>
        <time>2019-04-02T09:12:49.000Z</time>
      </trkpt>
      <trkpt lat="47.26352" lon="-1.53979">
        <ele>8</ele>
        <time>2019-04-02T09:12:50.000Z</time>
      </trkpt>
      <trkpt lat="47.26354" lon="-1.53979">
        <ele>8</ele>
        <time>2019-04-02T09:12:51.000Z</time>
      </trkpt>
      <trkpt lat="47.26355" lon="-1.5398">
        <ele>8</ele>
        <time>2019-04-02T09:12:52.000Z</time>
      </trkpt>
      <trkpt lat="47.26356" lon="-1.53981">
        <ele>8</ele>
        <time>2019-04-02T09:12:53.000Z</time>
      </trkpt>
      <trkpt lat="47.26358" lon="-1.53982">
        <ele>8</ele>
        <time>2019-04-02T09:12:54.000Z</time>
      </trkpt>
      <trkpt lat="47.26359" lon="-1.53982">
        <ele>7.8000001907349</ele>
        <time>2019-04-02T09:12:55.000Z</time>
      </trkpt>
      <trkpt lat="47.26361" lon="-1.53983">
        <ele>7.8000001907349</ele>
        <time>2019-04-02T09:12:56.000Z</time>
      </trkpt>
      <trkpt lat="47.26362" lon="-1.53983">
        <ele>7.8000001907349</ele>
        <time>2019-04-02T09:12:57.000Z</time>
      </trkpt>
      <trkpt lat="47.26364" lon="-1.53982">
        <ele>7.8000001907349</ele>
        <time>2019-04-02T09:12:58.000Z</time>
      </trkpt>
      <trkpt lat="47.26365" lon="-1.53983">
        <ele>7.5999999046326</ele>
        <time>2019-04-02T09:12:59.000Z</time>
      </trkpt>
      <trkpt lat="47.26367" lon="-1.53983">
        <ele>7.5999999046326</ele>
        <time>2019-04-02T09:13:00.000Z</time>
      </trkpt>
      <trkpt lat="47.26368" lon="-1.53983">
        <ele>7.5999999046326</ele>
        <time>2019-04-02T09:13:01.000Z</time>
      </trkpt>
      <trkpt lat="47.26372" lon="-1.53983">
        <ele>7.4000000953674</ele>
        <time>2019-04-02T09:13:02.000Z</time>
      </trkpt>
      <trkpt lat="47.26372" lon="-1.53983">
        <ele>7.4000000953674</ele>
        <time>2019-04-02T09:13:03.000Z</time>
      </trkpt>
      <trkpt lat="47.26373" lon="-1.53983">
        <ele>7.4000000953674</ele>
        <time>2019-04-02T09:13:04.000Z</time>
      </trkpt>
      <trkpt lat="47.26375" lon="-1.53984">
        <ele>7.4000000953674</ele>
        <time>2019-04-02T09:13:05.000Z</time>
      </trkpt>
      <trkpt lat="47.26376" lon="-1.53984">
        <ele>7.4000000953674</ele>
        <time>2019-04-02T09:13:06.000Z</time>
      </trkpt>
      <trkpt lat="47.26378" lon="-1.53985">
        <ele>7.4000000953674</ele>
        <time>2019-04-02T09:13:07.000Z</time>
      </trkpt>
      <trkpt lat="47.26379" lon="-1.53986">
        <ele>7.1999998092651</ele>
        <time>2019-04-02T09:13:08.000Z</time>
      </trkpt>
      <trkpt lat="47.26381" lon="-1.53986">
        <ele>7.1999998092651</ele>
        <time>2019-04-02T09:13:09.000Z</time>
      </trkpt>
      <trkpt lat="47.26382" lon="-1.53987">
        <ele>7.1999998092651</ele>
        <time>2019-04-02T09:13:10.000Z</time>
      </trkpt>
      <trkpt lat="47.26384" lon="-1.53987">
        <ele>7.1999998092651</ele>
        <time>2019-04-02T09:13:11.000Z</time>
      </trkpt>
      <trkpt lat="47.26386" lon="-1.53988">
        <ele>7</ele>
        <time>2019-04-02T09:13:12.000Z</time>
      </trkpt>
      <trkpt lat="47.26388" lon="-1.53988">
        <ele>7</ele>
        <time>2019-04-02T09:13:13.000Z</time>
      </trkpt>
      <trkpt lat="47.2639" lon="-1.53988">
        <ele>7</ele>
        <time>2019-04-02T09:13:14.000Z</time>
      </trkpt>
      <trkpt lat="47.26392" lon="-1.53988">
        <ele>7</ele>
        <time>2019-04-02T09:13:15.000Z</time>
      </trkpt>
      <trkpt lat="47.26394" lon="-1.53989">
        <ele>6.8000001907349</ele>
        <time>2019-04-02T09:13:16.000Z</time>
      </trkpt>
      <trkpt lat="47.26396" lon="-1.53989">
        <ele>6.8000001907349</ele>
        <time>2019-04-02T09:13:17.000Z</time>
      </trkpt>
      <trkpt lat="47.26398" lon="-1.53989">
        <ele>6.8000001907349</ele>
        <time>2019-04-02T09:13:18.000Z</time>
      </trkpt>
      <trkpt lat="47.264" lon="-1.53989">
        <ele>6.5999999046326</ele>
        <time>2019-04-02T09:13:19.000Z</time>
      </trkpt>
      <trkpt lat="47.26402" lon="-1.53989">
        <ele>6.5999999046326</ele>
        <time>2019-04-02T09:13:20.000Z</time>
      </trkpt>
      <trkpt lat="47.26403" lon="-1.5399">
        <ele>6.5999999046326</ele>
        <time>2019-04-02T09:13:21.000Z</time>
      </trkpt>
      <trkpt lat="47.26405" lon="-1.5399">
        <ele>6.5999999046326</ele>
        <time>2019-04-02T09:13:22.000Z</time>
      </trkpt>
      <trkpt lat="47.26406" lon="-1.53991">
        <ele>6.4000000953674</ele>
        <time>2019-04-02T09:13:23.000Z</time>
      </trkpt>
      <trkpt lat="47.26407" lon="-1.53991">
        <ele>6.4000000953674</ele>
        <time>2019-04-02T09:13:24.000Z</time>
      </trkpt>
      <trkpt lat="47.26408" lon="-1.53992">
        <ele>6.4000000953674</ele>
        <time>2019-04-02T09:13:25.000Z</time>
      </trkpt>
      <trkpt lat="47.2641" lon="-1.53993">
        <ele>6.4000000953674</ele>
        <time>2019-04-02T09:13:26.000Z</time>
      </trkpt>
      <trkpt lat="47.2641" lon="-1.53993">
        <ele>6.4000000953674</ele>
        <time>2019-04-02T09:13:27.000Z</time>
      </trkpt>
      <trkpt lat="47.26411" lon="-1.53992">
        <ele>6.1999998092651</ele>
        <time>2019-04-02T09:13:28.000Z</time>
      </trkpt>
      <trkpt lat="47.26412" lon="-1.53992">
        <ele>6.1999998092651</ele>
        <time>2019-04-02T09:13:29.000Z</time>
      </trkpt>
      <trkpt lat="47.26413" lon="-1.53992">
        <ele>6.1999998092651</ele>
        <time>2019-04-02T09:13:30.000Z</time>
      </trkpt>
      <trkpt lat="47.26414" lon="-1.53992">
        <ele>6.1999998092651</ele>
        <time>2019-04-02T09:13:31.000Z</time>
      </trkpt>
      <trkpt lat="47.26415" lon="-1.53992">
        <ele>6.1999998092651</ele>
        <time>2019-04-02T09:13:32.000Z</time>
      </trkpt>
      <trkpt lat="47.26417" lon="-1.53993">
        <ele>6.1999998092651</ele>
        <time>2019-04-02T09:13:33.000Z</time>
      </trkpt>
      <trkpt lat="47.26417" lon="-1.53993">
        <ele>6.1999998092651</ele>
        <time>2019-04-02T09:13:34.000Z</time>
      </trkpt>
      <trkpt lat="47.26418" lon="-1.53994">
        <ele>6.1999998092651</ele>
        <time>2019-04-02T09:13:35.000Z</time>
      </trkpt>
      <trkpt lat="47.2642" lon="-1.53995">
        <ele>6.1999998092651</ele>
        <time>2019-04-02T09:13:36.000Z</time>
      </trkpt>
      <trkpt lat="47.26422" lon="-1.53995">
        <ele>6.1999998092651</ele>
        <time>2019-04-02T09:13:37.000Z</time>
      </trkpt>
      <trkpt lat="47.26426" lon="-1.53996">
        <ele>6.1999998092651</ele>
        <time>2019-04-02T09:13:38.000Z</time>
      </trkpt>
      <trkpt lat="47.26426" lon="-1.53996">
        <ele>6.1999998092651</ele>
        <time>2019-04-02T09:13:39.000Z</time>
      </trkpt>
      <trkpt lat="47.26428" lon="-1.53997">
        <ele>6.4000000953674</ele>
        <time>2019-04-02T09:13:40.000Z</time>
      </trkpt>
      <trkpt lat="47.26429" lon="-1.53997">
        <ele>6.4000000953674</ele>
        <time>2019-04-02T09:13:41.000Z</time>
      </trkpt>
      <trkpt lat="47.2643" lon="-1.53998">
        <ele>6.4000000953674</ele>
        <time>2019-04-02T09:13:42.000Z</time>
      </trkpt>
      <trkpt lat="47.26432" lon="-1.53999">
        <ele>6.4000000953674</ele>
        <time>2019-04-02T09:13:43.000Z</time>
      </trkpt>
      <trkpt lat="47.26433" lon="-1.54">
        <ele>6.4000000953674</ele>
        <time>2019-04-02T09:13:44.000Z</time>
      </trkpt>
      <trkpt lat="47.26434" lon="-1.54">
        <ele>6.4000000953674</ele>
        <time>2019-04-02T09:13:45.000Z</time>
      </trkpt>
      <trkpt lat="47.26436" lon="-1.54001">
        <ele>6.4000000953674</ele>
        <time>2019-04-02T09:13:46.000Z</time>
      </trkpt>
      <trkpt lat="47.26438" lon="-1.54001">
        <ele>6.4000000953674</ele>
        <time>2019-04-02T09:13:47.000Z</time>
      </trkpt>
      <trkpt lat="47.26438" lon="-1.54001">
        <ele>6.4000000953674</ele>
        <time>2019-04-02T09:13:48.000Z</time>
      </trkpt>
      <trkpt lat="47.2644" lon="-1.54002">
        <ele>6.4000000953674</ele>
        <time>2019-04-02T09:13:49.000Z</time>
      </trkpt>
      <trkpt lat="47.26441" lon="-1.54002">
        <ele>6.4000000953674</ele>
        <time>2019-04-02T09:13:50.000Z</time>
      </trkpt>
      <trkpt lat="47.26443" lon="-1.54002">
        <ele>6.4000000953674</ele>
        <time>2019-04-02T09:13:51.000Z</time>
      </trkpt>
      <trkpt lat="47.26444" lon="-1.54002">
        <ele>6.4000000953674</ele>
        <time>2019-04-02T09:13:52.000Z</time>
      </trkpt>
      <trkpt lat="47.26445" lon="-1.54002">
        <ele>6.4000000953674</ele>
        <time>2019-04-02T09:13:53.000Z</time>
      </trkpt>
      <trkpt lat="47.26446" lon="-1.54002">
        <ele>6.4000000953674</ele>
        <time>2019-04-02T09:13:54.000Z</time>
      </trkpt>
      <trkpt lat="47.26449" lon="-1.54001">
        <ele>6.4000000953674</ele>
        <time>2019-04-02T09:13:55.000Z</time>
      </trkpt>
      <trkpt lat="47.26449" lon="-1.54001">
        <ele>6.4000000953674</ele>
        <time>2019-04-02T09:13:56.000Z</time>
      </trkpt>
      <trkpt lat="47.26451" lon="-1.54001">
        <ele>6.4000000953674</ele>
        <time>2019-04-02T09:13:57.000Z</time>
      </trkpt>
      <trkpt lat="47.26452" lon="-1.54">
        <ele>6.4000000953674</ele>
        <time>2019-04-02T09:13:58.000Z</time>
      </trkpt>
      <trkpt lat="47.26454" lon="-1.54">
        <ele>6.4000000953674</ele>
        <time>2019-04-02T09:13:59.000Z</time>
      </trkpt>
      <trkpt lat="47.26455" lon="-1.53999">
        <ele>6.4000000953674</ele>
        <time>2019-04-02T09:14:00.000Z</time>
      </trkpt>
      <trkpt lat="47.26456" lon="-1.53999">
        <ele>6.4000000953674</ele>
        <time>2019-04-02T09:14:01.000Z</time>
      </trkpt>
      <trkpt lat="47.26458" lon="-1.53998">
        <ele>6.4000000953674</ele>
        <time>2019-04-02T09:14:02.000Z</time>
      </trkpt>
      <trkpt lat="47.26459" lon="-1.53997">
        <ele>6.4000000953674</ele>
        <time>2019-04-02T09:14:03.000Z</time>
      </trkpt>
      <trkpt lat="47.2646" lon="-1.53996">
        <ele>6.1999998092651</ele>
        <time>2019-04-02T09:14:04.000Z</time>
      </trkpt>
      <trkpt lat="47.26463" lon="-1.53995">
        <ele>6.1999998092651</ele>
        <time>2019-04-02T09:14:05.000Z</time>
      </trkpt>
      <trkpt lat="47.26463" lon="-1.53995">
        <ele>6.1999998092651</ele>
        <time>2019-04-02T09:14:06.000Z</time>
      </trkpt>
      <trkpt lat="47.26465" lon="-1.53995">
        <ele>6.1999998092651</ele>
        <time>2019-04-02T09:14:07.000Z</time>
      </trkpt>
      <trkpt lat="47.26466" lon="-1.53994">
        <ele>6.1999998092651</ele>
        <time>2019-04-02T09:14:08.000Z</time>
      </trkpt>
      <trkpt lat="47.26468" lon="-1.53993">
        <ele>6.1999998092651</ele>
        <time>2019-04-02T09:14:09.000Z</time>
      </trkpt>
      <trkpt lat="47.26469" lon="-1.53993">
        <ele>6.1999998092651</ele>
        <time>2019-04-02T09:14:10.000Z</time>
      </trkpt>
      <trkpt lat="47.2647" lon="-1.53992">
        <ele>6.1999998092651</ele>
        <time>2019-04-02T09:14:11.000Z</time>
      </trkpt>
      <trkpt lat="47.26471" lon="-1.53991">
        <ele>6.1999998092651</ele>
        <time>2019-04-02T09:14:12.000Z</time>
      </trkpt>
      <trkpt lat="47.26472" lon="-1.53991">
        <ele>6.1999998092651</ele>
        <time>2019-04-02T09:14:13.000Z</time>
      </trkpt>
      <trkpt lat="47.26474" lon="-1.53989">
        <ele>6.1999998092651</ele>
        <time>2019-04-02T09:14:14.000Z</time>
      </trkpt>
      <trkpt lat="47.26474" lon="-1.53989">
        <ele>6.1999998092651</ele>
        <time>2019-04-02T09:14:15.000Z</time>
      </trkpt>
      <trkpt lat="47.26475" lon="-1.53989">
        <ele>6.1999998092651</ele>
        <time>2019-04-02T09:14:16.000Z</time>
      </trkpt>
      <trkpt lat="47.26476" lon="-1.53989">
        <ele>6.1999998092651</ele>
        <time>2019-04-02T09:14:17.000Z</time>
      </trkpt>
      <trkpt lat="47.26477" lon="-1.53988">
        <ele>6.1999998092651</ele>
        <time>2019-04-02T09:14:18.000Z</time>
      </trkpt>
      <trkpt lat="47.26478" lon="-1.53988">
        <ele>6</ele>
        <time>2019-04-02T09:14:19.000Z</time>
      </trkpt>
      <trkpt lat="47.26479" lon="-1.53987">
        <ele>6</ele>
        <time>2019-04-02T09:14:20.000Z</time>
      </trkpt>
      <trkpt lat="47.2648" lon="-1.53987">
        <ele>6</ele>
        <time>2019-04-02T09:14:21.000Z</time>
      </trkpt>
      <trkpt lat="47.26481" lon="-1.53986">
        <ele>6</ele>
        <time>2019-04-02T09:14:22.000Z</time>
      </trkpt>
      <trkpt lat="47.26481" lon="-1.53985">
        <ele>6</ele>
        <time>2019-04-02T09:14:23.000Z</time>
      </trkpt>
      <trkpt lat="47.26482" lon="-1.53985">
        <ele>6</ele>
        <time>2019-04-02T09:14:24.000Z</time>
      </trkpt>
      <trkpt lat="47.26482" lon="-1.53985">
        <ele>6</ele>
        <time>2019-04-02T09:14:25.000Z</time>
      </trkpt>
      <trkpt lat="47.26482" lon="-1.53985">
        <ele>6</ele>
        <time>2019-04-02T09:14:26.000Z</time>
      </trkpt>
      <trkpt lat="47.26482" lon="-1.53985">
        <ele>6</ele>
        <time>2019-04-02T09:14:27.000Z</time>
      </trkpt>
      <trkpt lat="47.26498" lon="-1.53978">
        <ele>6</ele>
        <time>2019-04-02T09:15:00.000Z</time>
      </trkpt>
      <trkpt lat="47.26499" lon="-1.53978">
        <ele>6.1999998092651</ele>
        <time>2019-04-02T09:15:01.000Z</time>
      </trkpt>
      <trkpt lat="47.26501" lon="-1.5398">
        <ele>6.1999998092651</ele>
        <time>2019-04-02T09:15:02.000Z</time>
      </trkpt>
      <trkpt lat="47.26501" lon="-1.5398">
        <ele>6.1999998092651</ele>
        <time>2019-04-02T09:15:03.000Z</time>
      </trkpt>
      <trkpt lat="47.26502" lon="-1.5398">
        <ele>6.4000000953674</ele>
        <time>2019-04-02T09:15:04.000Z</time>
      </trkpt>
      <trkpt lat="47.26505" lon="-1.53981">
        <ele>6.5999999046326</ele>
        <time>2019-04-02T09:15:05.000Z</time>
      </trkpt>
      <trkpt lat="47.26505" lon="-1.53981">
        <ele>6.5999999046326</ele>
        <time>2019-04-02T09:15:06.000Z</time>
      </trkpt>
      <trkpt lat="47.26508" lon="-1.53982">
        <ele>7</ele>
        <time>2019-04-02T09:15:07.000Z</time>
      </trkpt>
      <trkpt lat="47.26508" lon="-1.53982">
        <ele>7</ele>
        <time>2019-04-02T09:15:08.000Z</time>
      </trkpt>
      <trkpt lat="47.26511" lon="-1.53982">
        <ele>7.1999998092651</ele>
        <time>2019-04-02T09:15:09.000Z</time>
      </trkpt>
      <trkpt lat="47.26511" lon="-1.53982">
        <ele>7.1999998092651</ele>
        <time>2019-04-02T09:15:10.000Z</time>
      </trkpt>
      <trkpt lat="47.26514" lon="-1.53984">
        <ele>7.5999999046326</ele>
        <time>2019-04-02T09:15:11.000Z</time>
      </trkpt>
      <trkpt lat="47.26514" lon="-1.53984">
        <ele>7.5999999046326</ele>
        <time>2019-04-02T09:15:12.000Z</time>
      </trkpt>
      <trkpt lat="47.26517" lon="-1.53985">
        <ele>7.8000001907349</ele>
        <time>2019-04-02T09:15:13.000Z</time>
      </trkpt>
      <trkpt lat="47.26517" lon="-1.53985">
        <ele>7.8000001907349</ele>
        <time>2019-04-02T09:15:14.000Z</time>
      </trkpt>
      <trkpt lat="47.26521" lon="-1.53985">
        <ele>8.1999998092651</ele>
        <time>2019-04-02T09:15:15.000Z</time>
      </trkpt>
      <trkpt lat="47.26522" lon="-1.53986">
        <ele>8.1999998092651</ele>
        <time>2019-04-02T09:15:16.000Z</time>
      </trkpt>
      <trkpt lat="47.26522" lon="-1.53986">
        <ele>8.1999998092651</ele>
        <time>2019-04-02T09:15:17.000Z</time>
      </trkpt>
      <trkpt lat="47.26525" lon="-1.53987">
        <ele>8.6000003814697</ele>
        <time>2019-04-02T09:15:18.000Z</time>
      </trkpt>
      <trkpt lat="47.26525" lon="-1.53987">
        <ele>8.6000003814697</ele>
        <time>2019-04-02T09:15:19.000Z</time>
      </trkpt>
      <trkpt lat="47.26528" lon="-1.53989">
        <ele>8.8000001907349</ele>
        <time>2019-04-02T09:15:20.000Z</time>
      </trkpt>
      <trkpt lat="47.26528" lon="-1.53989">
        <ele>8.8000001907349</ele>
        <time>2019-04-02T09:15:21.000Z</time>
      </trkpt>
      <trkpt lat="47.2653" lon="-1.5399">
        <ele>9.1999998092651</ele>
        <time>2019-04-02T09:15:22.000Z</time>
      </trkpt>
      <trkpt lat="47.2653" lon="-1.5399">
        <ele>9.1999998092651</ele>
        <time>2019-04-02T09:15:23.000Z</time>
      </trkpt>
      <trkpt lat="47.26533" lon="-1.53991">
        <ele>9.3999996185303</ele>
        <time>2019-04-02T09:15:24.000Z</time>
      </trkpt>
      <trkpt lat="47.26533" lon="-1.53991">
        <ele>9.3999996185303</ele>
        <time>2019-04-02T09:15:25.000Z</time>
      </trkpt>
      <trkpt lat="47.26535" lon="-1.53991">
        <ele>9.6000003814697</ele>
        <time>2019-04-02T09:15:26.000Z</time>
      </trkpt>
      <trkpt lat="47.26535" lon="-1.53991">
        <ele>9.6000003814697</ele>
        <time>2019-04-02T09:15:27.000Z</time>
      </trkpt>
      <trkpt lat="47.26538" lon="-1.53992">
        <ele>9.8000001907349</ele>
        <time>2019-04-02T09:15:28.000Z</time>
      </trkpt>
      <trkpt lat="47.26538" lon="-1.53992">
        <ele>9.8000001907349</ele>
        <time>2019-04-02T09:15:29.000Z</time>
      </trkpt>
      <trkpt lat="47.26539" lon="-1.53992">
        <ele>10</ele>
        <time>2019-04-02T09:15:30.000Z</time>
      </trkpt>
      <trkpt lat="47.26542" lon="-1.53994">
        <ele>10.39999961853</ele>
        <time>2019-04-02T09:15:31.000Z</time>
      </trkpt>
      <trkpt lat="47.26542" lon="-1.53994">
        <ele>10.39999961853</ele>
        <time>2019-04-02T09:15:32.000Z</time>
      </trkpt>
      <trkpt lat="47.26544" lon="-1.53995">
        <ele>10.60000038147</ele>
        <time>2019-04-02T09:15:33.000Z</time>
      </trkpt>
      <trkpt lat="47.26544" lon="-1.53995">
        <ele>10.60000038147</ele>
        <time>2019-04-02T09:15:34.000Z</time>
      </trkpt>
      <trkpt lat="47.26547" lon="-1.53996">
        <ele>10.800000190735</ele>
        <time>2019-04-02T09:15:35.000Z</time>
      </trkpt>
      <trkpt lat="47.26548" lon="-1.53997">
        <ele>11</ele>
        <time>2019-04-02T09:15:36.000Z</time>
      </trkpt>
      <trkpt lat="47.26548" lon="-1.53997">
        <ele>11</ele>
        <time>2019-04-02T09:15:37.000Z</time>
      </trkpt>
      <trkpt lat="47.26549" lon="-1.53998">
        <ele>11.199999809265</ele>
        <time>2019-04-02T09:15:38.000Z</time>
      </trkpt>
      <trkpt lat="47.2655" lon="-1.53999">
        <ele>11.199999809265</ele>
        <time>2019-04-02T09:15:39.000Z</time>
      </trkpt>
      <trkpt lat="47.26553" lon="-1.54001">
        <ele>11.60000038147</ele>
        <time>2019-04-02T09:15:40.000Z</time>
      </trkpt>
      <trkpt lat="47.26553" lon="-1.54001">
        <ele>11.60000038147</ele>
        <time>2019-04-02T09:15:41.000Z</time>
      </trkpt>
      <trkpt lat="47.26555" lon="-1.54004">
        <ele>11.800000190735</ele>
        <time>2019-04-02T09:15:42.000Z</time>
      </trkpt>
      <trkpt lat="47.26555" lon="-1.54004">
        <ele>11.800000190735</ele>
        <time>2019-04-02T09:15:43.000Z</time>
      </trkpt>
      <trkpt lat="47.26557" lon="-1.54006">
        <ele>12.199999809265</ele>
        <time>2019-04-02T09:15:44.000Z</time>
      </trkpt>
      <trkpt lat="47.26557" lon="-1.54006">
        <ele>12.199999809265</ele>
        <time>2019-04-02T09:15:45.000Z</time>
      </trkpt>
      <trkpt lat="47.2656" lon="-1.54006">
        <ele>12.39999961853</ele>
        <time>2019-04-02T09:15:46.000Z</time>
      </trkpt>
      <trkpt lat="47.2656" lon="-1.54006">
        <ele>12.39999961853</ele>
        <time>2019-04-02T09:15:47.000Z</time>
      </trkpt>
      <trkpt lat="47.26562" lon="-1.54007">
        <ele>12.39999961853</ele>
        <time>2019-04-02T09:15:48.000Z</time>
      </trkpt>
      <trkpt lat="47.26562" lon="-1.54007">
        <ele>12.39999961853</ele>
        <time>2019-04-02T09:15:49.000Z</time>
      </trkpt>
      <trkpt lat="47.26564" lon="-1.54007">
        <ele>12.60000038147</ele>
        <time>2019-04-02T09:15:50.000Z</time>
      </trkpt>
      <trkpt lat="47.26564" lon="-1.54007">
        <ele>12.60000038147</ele>
        <time>2019-04-02T09:15:51.000Z</time>
      </trkpt>
      <trkpt lat="47.26565" lon="-1.54008">
        <ele>12.800000190735</ele>
        <time>2019-04-02T09:15:52.000Z</time>
      </trkpt>
      <trkpt lat="47.26565" lon="-1.54008">
        <ele>12.800000190735</ele>
        <time>2019-04-02T09:15:53.000Z</time>
      </trkpt>
      <trkpt lat="47.26568" lon="-1.54009">
        <ele>13</ele>
        <time>2019-04-02T09:15:54.000Z</time>
      </trkpt>
      <trkpt lat="47.26569" lon="-1.54009">
        <ele>13</ele>
        <time>2019-04-02T09:15:55.000Z</time>
      </trkpt>
      <trkpt lat="47.26569" lon="-1.54009">
        <ele>13</ele>
        <time>2019-04-02T09:15:56.000Z</time>
      </trkpt>
      <trkpt lat="47.2657" lon="-1.5401">
        <ele>13</ele>
        <time>2019-04-02T09:15:57.000Z</time>
      </trkpt>
      <trkpt lat="47.2657" lon="-1.5401">
        <ele>13</ele>
        <time>2019-04-02T09:15:58.000Z</time>
      </trkpt>
      <trkpt lat="47.26571" lon="-1.5401">
        <ele>13.199999809265</ele>
        <time>2019-04-02T09:15:59.000Z</time>
      </trkpt>
      <trkpt lat="47.26571" lon="-1.5401">
        <ele>13.199999809265</ele>
        <time>2019-04-02T09:16:00.000Z</time>
      </trkpt>
      <trkpt lat="47.26571" lon="-1.5401">
        <ele>13.199999809265</ele>
        <time>2019-04-02T09:16:01.000Z</time>
      </trkpt>
      <trkpt lat="47.26572" lon="-1.54011">
        <ele>13.199999809265</ele>
        <time>2019-04-02T09:16:02.000Z</time>
      </trkpt>
      <trkpt lat="47.26572" lon="-1.54011">
        <ele>13.199999809265</ele>
        <time>2019-04-02T09:16:03.000Z</time>
      </trkpt>
      <trkpt lat="47.26573" lon="-1.54012">
        <ele>13.199999809265</ele>
        <time>2019-04-02T09:16:04.000Z</time>
      </trkpt>
      <trkpt lat="47.26573" lon="-1.54012">
        <ele>13.199999809265</ele>
        <time>2019-04-02T09:16:05.000Z</time>
      </trkpt>
      <trkpt lat="47.26575" lon="-1.54012">
        <ele>13.39999961853</ele>
        <time>2019-04-02T09:16:06.000Z</time>
      </trkpt>
      <trkpt lat="47.26575" lon="-1.54012">
        <ele>13.39999961853</ele>
        <time>2019-04-02T09:16:07.000Z</time>
      </trkpt>
      <trkpt lat="47.26576" lon="-1.54013">
        <ele>13.60000038147</ele>
        <time>2019-04-02T09:16:08.000Z</time>
      </trkpt>
      <trkpt lat="47.26577" lon="-1.54014">
        <ele>13.60000038147</ele>
        <time>2019-04-02T09:16:09.000Z</time>
      </trkpt>
      <trkpt lat="47.26577" lon="-1.54014">
        <ele>13.60000038147</ele>
        <time>2019-04-02T09:16:10.000Z</time>
      </trkpt>
      <trkpt lat="47.26579" lon="-1.54014">
        <ele>13.60000038147</ele>
        <time>2019-04-02T09:16:11.000Z</time>
      </trkpt>
      <trkpt lat="47.26579" lon="-1.54014">
        <ele>13.60000038147</ele>
        <time>2019-04-02T09:16:12.000Z</time>
      </trkpt>
      <trkpt lat="47.26579" lon="-1.54014">
        <ele>13.800000190735</ele>
        <time>2019-04-02T09:16:13.000Z</time>
      </trkpt>
      <trkpt lat="47.26579" lon="-1.54014">
        <ele>13.800000190735</ele>
        <time>2019-04-02T09:16:14.000Z</time>
      </trkpt>
      <trkpt lat="47.2658" lon="-1.54014">
        <ele>13.800000190735</ele>
        <time>2019-04-02T09:16:15.000Z</time>
      </trkpt>
      <trkpt lat="47.26582" lon="-1.54013">
        <ele>13.800000190735</ele>
        <time>2019-04-02T09:16:16.000Z</time>
      </trkpt>
      <trkpt lat="47.26582" lon="-1.54013">
        <ele>13.800000190735</ele>
        <time>2019-04-02T09:16:17.000Z</time>
      </trkpt>
      <trkpt lat="47.26583" lon="-1.54012">
        <ele>14</ele>
        <time>2019-04-02T09:16:18.000Z</time>
      </trkpt>
      <trkpt lat="47.26583" lon="-1.54012">
        <ele>14</ele>
        <time>2019-04-02T09:16:19.000Z</time>
      </trkpt>
      <trkpt lat="47.26585" lon="-1.54011">
        <ele>14</ele>
        <time>2019-04-02T09:16:20.000Z</time>
      </trkpt>
      <trkpt lat="47.26585" lon="-1.54011">
        <ele>14</ele>
        <time>2019-04-02T09:16:21.000Z</time>
      </trkpt>
      <trkpt lat="47.26587" lon="-1.54011">
        <ele>14.199999809265</ele>
        <time>2019-04-02T09:16:22.000Z</time>
      </trkpt>
      <trkpt lat="47.26587" lon="-1.54011">
        <ele>14.199999809265</ele>
        <time>2019-04-02T09:16:23.000Z</time>
      </trkpt>
      <trkpt lat="47.26589" lon="-1.54011">
        <ele>14.39999961853</ele>
        <time>2019-04-02T09:16:24.000Z</time>
      </trkpt>
      <trkpt lat="47.26589" lon="-1.54011">
        <ele>14.39999961853</ele>
        <time>2019-04-02T09:16:25.000Z</time>
      </trkpt>
      <trkpt lat="47.26591" lon="-1.5401">
        <ele>14.60000038147</ele>
        <time>2019-04-02T09:16:26.000Z</time>
      </trkpt>
      <trkpt lat="47.26591" lon="-1.5401">
        <ele>14.60000038147</ele>
        <time>2019-04-02T09:16:27.000Z</time>
      </trkpt>
      <trkpt lat="47.26592" lon="-1.5401">
        <ele>14.60000038147</ele>
        <time>2019-04-02T09:16:28.000Z</time>
      </trkpt>
      <trkpt lat="47.26594" lon="-1.54011">
        <ele>14.800000190735</ele>
        <time>2019-04-02T09:16:29.000Z</time>
      </trkpt>
      <trkpt lat="47.26594" lon="-1.54011">
        <ele>14.800000190735</ele>
        <time>2019-04-02T09:16:30.000Z</time>
      </trkpt>
      <trkpt lat="47.26596" lon="-1.54012">
        <ele>15</ele>
        <time>2019-04-02T09:16:31.000Z</time>
      </trkpt>
      <trkpt lat="47.26596" lon="-1.54012">
        <ele>15</ele>
        <time>2019-04-02T09:16:32.000Z</time>
      </trkpt>
      <trkpt lat="47.26597" lon="-1.54012">
        <ele>15.199999809265</ele>
        <time>2019-04-02T09:16:33.000Z</time>
      </trkpt>
      <trkpt lat="47.26599" lon="-1.54013">
        <ele>15.39999961853</ele>
        <time>2019-04-02T09:16:34.000Z</time>
      </trkpt>
      <trkpt lat="47.266" lon="-1.54014">
        <ele>15.39999961853</ele>
        <time>2019-04-02T09:16:35.000Z</time>
      </trkpt>
      <trkpt lat="47.266" lon="-1.54014">
        <ele>15.39999961853</ele>
        <time>2019-04-02T09:16:36.000Z</time>
      </trkpt>
      <trkpt lat="47.26603" lon="-1.54016">
        <ele>15.800000190735</ele>
        <time>2019-04-02T09:16:37.000Z</time>
      </trkpt>
      <trkpt lat="47.26603" lon="-1.54017">
        <ele>15.800000190735</ele>
        <time>2019-04-02T09:16:38.000Z</time>
      </trkpt>
      <trkpt lat="47.26604" lon="-1.54018">
        <ele>16</ele>
        <time>2019-04-02T09:16:39.000Z</time>
      </trkpt>
      <trkpt lat="47.26604" lon="-1.54018">
        <ele>16</ele>
        <time>2019-04-02T09:16:40.000Z</time>
      </trkpt>
      <trkpt lat="47.26606" lon="-1.54021">
        <ele>16.200000762939</ele>
        <time>2019-04-02T09:16:41.000Z</time>
      </trkpt>
      <trkpt lat="47.26606" lon="-1.54021">
        <ele>16.200000762939</ele>
        <time>2019-04-02T09:16:42.000Z</time>
      </trkpt>
      <trkpt lat="47.26606" lon="-1.54023">
        <ele>16.200000762939</ele>
        <time>2019-04-02T09:16:43.000Z</time>
      </trkpt>
      <trkpt lat="47.26607" lon="-1.54027">
        <ele>16.39999961853</ele>
        <time>2019-04-02T09:16:44.000Z</time>
      </trkpt>
      <trkpt lat="47.26607" lon="-1.54027">
        <ele>16.39999961853</ele>
        <time>2019-04-02T09:16:45.000Z</time>
      </trkpt>
      <trkpt lat="47.26608" lon="-1.5403">
        <ele>16.39999961853</ele>
        <time>2019-04-02T09:16:46.000Z</time>
      </trkpt>
      <trkpt lat="47.26608" lon="-1.5403">
        <ele>16.39999961853</ele>
        <time>2019-04-02T09:16:47.000Z</time>
      </trkpt>
      <trkpt lat="47.26608" lon="-1.54031">
        <ele>16.60000038147</ele>
        <time>2019-04-02T09:16:48.000Z</time>
      </trkpt>
      <trkpt lat="47.26609" lon="-1.54034">
        <ele>16.799999237061</ele>
        <time>2019-04-02T09:16:49.000Z</time>
      </trkpt>
      <trkpt lat="47.26609" lon="-1.54034">
        <ele>16.799999237061</ele>
        <time>2019-04-02T09:16:50.000Z</time>
      </trkpt>
      <trkpt lat="47.26611" lon="-1.54036">
        <ele>17</ele>
        <time>2019-04-02T09:16:51.000Z</time>
      </trkpt>
      <trkpt lat="47.26611" lon="-1.54036">
        <ele>17</ele>
        <time>2019-04-02T09:16:52.000Z</time>
      </trkpt>
      <trkpt lat="47.26611" lon="-1.54037">
        <ele>17</ele>
        <time>2019-04-02T09:16:53.000Z</time>
      </trkpt>
      <trkpt lat="47.26612" lon="-1.54038">
        <ele>17.200000762939</ele>
        <time>2019-04-02T09:16:54.000Z</time>
      </trkpt>
      <trkpt lat="47.26613" lon="-1.54041">
        <ele>17.39999961853</ele>
        <time>2019-04-02T09:16:55.000Z</time>
      </trkpt>
      <trkpt lat="47.26613" lon="-1.54041">
        <ele>17.39999961853</ele>
        <time>2019-04-02T09:16:56.000Z</time>
      </trkpt>
      <trkpt lat="47.26614" lon="-1.54042">
        <ele>17.60000038147</ele>
        <time>2019-04-02T09:16:57.000Z</time>
      </trkpt>
      <trkpt lat="47.26616" lon="-1.54045">
        <ele>18</ele>
        <time>2019-04-02T09:16:58.000Z</time>
      </trkpt>
      <trkpt lat="47.26616" lon="-1.54045">
        <ele>18</ele>
        <time>2019-04-02T09:16:59.000Z</time>
      </trkpt>
      <trkpt lat="47.26616" lon="-1.54046">
        <ele>18.200000762939</ele>
        <time>2019-04-02T09:17:00.000Z</time>
      </trkpt>
      <trkpt lat="47.26618" lon="-1.54049">
        <ele>18.60000038147</ele>
        <time>2019-04-02T09:17:01.000Z</time>
      </trkpt>
      <trkpt lat="47.26618" lon="-1.54049">
        <ele>18.60000038147</ele>
        <time>2019-04-02T09:17:02.000Z</time>
      </trkpt>
      <trkpt lat="47.2662" lon="-1.54052">
        <ele>19</ele>
        <time>2019-04-02T09:17:03.000Z</time>
      </trkpt>
      <trkpt lat="47.2662" lon="-1.54052">
        <ele>19</ele>
        <time>2019-04-02T09:17:04.000Z</time>
      </trkpt>
      <trkpt lat="47.2662" lon="-1.54054">
        <ele>19</ele>
        <time>2019-04-02T09:17:05.000Z</time>
      </trkpt>
      <trkpt lat="47.26622" lon="-1.54057">
        <ele>19.39999961853</ele>
        <time>2019-04-02T09:17:06.000Z</time>
      </trkpt>
      <trkpt lat="47.26622" lon="-1.54057">
        <ele>19.39999961853</ele>
        <time>2019-04-02T09:17:07.000Z</time>
      </trkpt>
      <trkpt lat="47.26622" lon="-1.54058">
        <ele>19.60000038147</ele>
        <time>2019-04-02T09:17:08.000Z</time>
      </trkpt>
      <trkpt lat="47.26624" lon="-1.54061">
        <ele>20</ele>
        <time>2019-04-02T09:17:09.000Z</time>
      </trkpt>
      <trkpt lat="47.26624" lon="-1.54061">
        <ele>20</ele>
        <time>2019-04-02T09:17:10.000Z</time>
      </trkpt>
      <trkpt lat="47.26624" lon="-1.54064">
        <ele>20.200000762939</ele>
        <time>2019-04-02T09:17:11.000Z</time>
      </trkpt>
      <trkpt lat="47.26625" lon="-1.54067">
        <ele>20.39999961853</ele>
        <time>2019-04-02T09:17:12.000Z</time>
      </trkpt>
      <trkpt lat="47.26625" lon="-1.54067">
        <ele>20.39999961853</ele>
        <time>2019-04-02T09:17:13.000Z</time>
      </trkpt>
      <trkpt lat="47.26626" lon="-1.54069">
        <ele>20.60000038147</ele>
        <time>2019-04-02T09:17:14.000Z</time>
      </trkpt>
      <trkpt lat="47.26627" lon="-1.54072">
        <ele>20.799999237061</ele>
        <time>2019-04-02T09:17:15.000Z</time>
      </trkpt>
      <trkpt lat="47.26627" lon="-1.54072">
        <ele>20.799999237061</ele>
        <time>2019-04-02T09:17:16.000Z</time>
      </trkpt>
      <trkpt lat="47.26627" lon="-1.54074">
        <ele>20.799999237061</ele>
        <time>2019-04-02T09:17:17.000Z</time>
      </trkpt>
      <trkpt lat="47.26628" lon="-1.54078">
        <ele>21</ele>
        <time>2019-04-02T09:17:18.000Z</time>
      </trkpt>
      <trkpt lat="47.26628" lon="-1.54078">
        <ele>21</ele>
        <time>2019-04-02T09:17:19.000Z</time>
      </trkpt>
      <trkpt lat="47.26629" lon="-1.54082">
        <ele>21.200000762939</ele>
        <time>2019-04-02T09:17:20.000Z</time>
      </trkpt>
      <trkpt lat="47.26629" lon="-1.54082">
        <ele>21.200000762939</ele>
        <time>2019-04-02T09:17:21.000Z</time>
      </trkpt>
      <trkpt lat="47.26631" lon="-1.54085">
        <ele>21.39999961853</ele>
        <time>2019-04-02T09:17:22.000Z</time>
      </trkpt>
      <trkpt lat="47.26631" lon="-1.54085">
        <ele>21.39999961853</ele>
        <time>2019-04-02T09:17:23.000Z</time>
      </trkpt>
      <trkpt lat="47.26633" lon="-1.54088">
        <ele>21.60000038147</ele>
        <time>2019-04-02T09:17:24.000Z</time>
      </trkpt>
      <trkpt lat="47.26633" lon="-1.54088">
        <ele>21.60000038147</ele>
        <time>2019-04-02T09:17:25.000Z</time>
      </trkpt>
      <trkpt lat="47.26635" lon="-1.54089">
        <ele>22</ele>
        <time>2019-04-02T09:17:26.000Z</time>
      </trkpt>
      <trkpt lat="47.26635" lon="-1.54089">
        <ele>22</ele>
        <time>2019-04-02T09:17:27.000Z</time>
      </trkpt>
      <trkpt lat="47.26637" lon="-1.54091">
        <ele>22.200000762939</ele>
        <time>2019-04-02T09:17:28.000Z</time>
      </trkpt>
      <trkpt lat="47.26637" lon="-1.54091">
        <ele>22.200000762939</ele>
        <time>2019-04-02T09:17:29.000Z</time>
      </trkpt>
      <trkpt lat="47.26639" lon="-1.54093">
        <ele>22.39999961853</ele>
        <time>2019-04-02T09:17:30.000Z</time>
      </trkpt>
      <trkpt lat="47.26639" lon="-1.54093">
        <ele>22.39999961853</ele>
        <time>2019-04-02T09:17:31.000Z</time>
      </trkpt>
      <trkpt lat="47.26641" lon="-1.54096">
        <ele>22.60000038147</ele>
        <time>2019-04-02T09:17:32.000Z</time>
      </trkpt>
      <trkpt lat="47.26641" lon="-1.54096">
        <ele>22.60000038147</ele>
        <time>2019-04-02T09:17:33.000Z</time>
      </trkpt>
      <trkpt lat="47.26643" lon="-1.54098">
        <ele>22.799999237061</ele>
        <time>2019-04-02T09:17:34.000Z</time>
      </trkpt>
      <trkpt lat="47.26643" lon="-1.54098">
        <ele>22.799999237061</ele>
        <time>2019-04-02T09:17:35.000Z</time>
      </trkpt>
      <trkpt lat="47.26645" lon="-1.541">
        <ele>22.799999237061</ele>
        <time>2019-04-02T09:17:36.000Z</time>
      </trkpt>
      <trkpt lat="47.26645" lon="-1.541">
        <ele>22.799999237061</ele>
        <time>2019-04-02T09:17:37.000Z</time>
      </trkpt>
      <trkpt lat="47.26646" lon="-1.54101">
        <ele>23</ele>
        <time>2019-04-02T09:17:38.000Z</time>
      </trkpt>
      <trkpt lat="47.26647" lon="-1.54102">
        <ele>23</ele>
        <time>2019-04-02T09:17:39.000Z</time>
      </trkpt>
      <trkpt lat="47.26649" lon="-1.54104">
        <ele>23.200000762939</ele>
        <time>2019-04-02T09:17:40.000Z</time>
      </trkpt>
      <trkpt lat="47.26649" lon="-1.54104">
        <ele>23.200000762939</ele>
        <time>2019-04-02T09:17:41.000Z</time>
      </trkpt>
      <trkpt lat="47.26651" lon="-1.54106">
        <ele>23.39999961853</ele>
        <time>2019-04-02T09:17:42.000Z</time>
      </trkpt>
      <trkpt lat="47.26651" lon="-1.54106">
        <ele>23.39999961853</ele>
        <time>2019-04-02T09:17:43.000Z</time>
      </trkpt>
      <trkpt lat="47.26653" lon="-1.54109">
        <ele>23.60000038147</ele>
        <time>2019-04-02T09:17:44.000Z</time>
      </trkpt>
      <trkpt lat="47.26653" lon="-1.54109">
        <ele>23.60000038147</ele>
        <time>2019-04-02T09:17:45.000Z</time>
      </trkpt>
      <trkpt lat="47.26655" lon="-1.54111">
        <ele>23.60000038147</ele>
        <time>2019-04-02T09:17:46.000Z</time>
      </trkpt>
      <trkpt lat="47.26655" lon="-1.54111">
        <ele>23.60000038147</ele>
        <time>2019-04-02T09:17:47.000Z</time>
      </trkpt>
      <trkpt lat="47.26656" lon="-1.54114">
        <ele>23.799999237061</ele>
        <time>2019-04-02T09:17:48.000Z</time>
      </trkpt>
      <trkpt lat="47.26656" lon="-1.54114">
        <ele>23.799999237061</ele>
        <time>2019-04-02T09:17:49.000Z</time>
      </trkpt>
      <trkpt lat="47.26657" lon="-1.54115">
        <ele>23.799999237061</ele>
        <time>2019-04-02T09:17:50.000Z</time>
      </trkpt>
      <trkpt lat="47.26658" lon="-1.54118">
        <ele>24</ele>
        <time>2019-04-02T09:17:51.000Z</time>
      </trkpt>
      <trkpt lat="47.26658" lon="-1.54118">
        <ele>24</ele>
        <time>2019-04-02T09:17:52.000Z</time>
      </trkpt>
      <trkpt lat="47.26659" lon="-1.5412">
        <ele>24</ele>
        <time>2019-04-02T09:17:53.000Z</time>
      </trkpt>
      <trkpt lat="47.2666" lon="-1.54123">
        <ele>24</ele>
        <time>2019-04-02T09:17:54.000Z</time>
      </trkpt>
      <trkpt lat="47.2666" lon="-1.54123">
        <ele>24</ele>
        <time>2019-04-02T09:17:55.000Z</time>
      </trkpt>
      <trkpt lat="47.26661" lon="-1.54125">
        <ele>24.200000762939</ele>
        <time>2019-04-02T09:17:56.000Z</time>
      </trkpt>
      <trkpt lat="47.26662" lon="-1.54128">
        <ele>24.200000762939</ele>
        <time>2019-04-02T09:17:57.000Z</time>
      </trkpt>
      <trkpt lat="47.26662" lon="-1.54128">
        <ele>24.200000762939</ele>
        <time>2019-04-02T09:17:58.000Z</time>
      </trkpt>
      <trkpt lat="47.26662" lon="-1.5413">
        <ele>24.200000762939</ele>
        <time>2019-04-02T09:17:59.000Z</time>
      </trkpt>
      <trkpt lat="47.26664" lon="-1.54133">
        <ele>24.200000762939</ele>
        <time>2019-04-02T09:18:00.000Z</time>
      </trkpt>
      <trkpt lat="47.26664" lon="-1.54133">
        <ele>24.200000762939</ele>
        <time>2019-04-02T09:18:01.000Z</time>
      </trkpt>
      <trkpt lat="47.26665" lon="-1.54134">
        <ele>24.200000762939</ele>
        <time>2019-04-02T09:18:02.000Z</time>
      </trkpt>
      <trkpt lat="47.26667" lon="-1.54137">
        <ele>24</ele>
        <time>2019-04-02T09:18:03.000Z</time>
      </trkpt>
      <trkpt lat="47.26667" lon="-1.54137">
        <ele>24</ele>
        <time>2019-04-02T09:18:04.000Z</time>
      </trkpt>
      <trkpt lat="47.26668" lon="-1.54139">
        <ele>24</ele>
        <time>2019-04-02T09:18:05.000Z</time>
      </trkpt>
      <trkpt lat="47.2667" lon="-1.54142">
        <ele>23.799999237061</ele>
        <time>2019-04-02T09:18:06.000Z</time>
      </trkpt>
      <trkpt lat="47.2667" lon="-1.54142">
        <ele>23.799999237061</ele>
        <time>2019-04-02T09:18:07.000Z</time>
      </trkpt>
      <trkpt lat="47.26671" lon="-1.54143">
        <ele>23.799999237061</ele>
        <time>2019-04-02T09:18:08.000Z</time>
      </trkpt>
      <trkpt lat="47.26672" lon="-1.54146">
        <ele>24</ele>
        <time>2019-04-02T09:18:09.000Z</time>
      </trkpt>
      <trkpt lat="47.26672" lon="-1.54146">
        <ele>24</ele>
        <time>2019-04-02T09:18:10.000Z</time>
      </trkpt>
      <trkpt lat="47.26673" lon="-1.5415">
        <ele>24.39999961853</ele>
        <time>2019-04-02T09:18:11.000Z</time>
      </trkpt>
      <trkpt lat="47.26673" lon="-1.5415">
        <ele>24.39999961853</ele>
        <time>2019-04-02T09:18:12.000Z</time>
      </trkpt>
      <trkpt lat="47.26674" lon="-1.54153">
        <ele>24.39999961853</ele>
        <time>2019-04-02T09:18:13.000Z</time>
      </trkpt>
      <trkpt lat="47.26674" lon="-1.54153">
        <ele>24.39999961853</ele>
        <time>2019-04-02T09:18:14.000Z</time>
      </trkpt>
      <trkpt lat="47.26676" lon="-1.54156">
        <ele>24.200000762939</ele>
        <time>2019-04-02T09:18:15.000Z</time>
      </trkpt>
      <trkpt lat="47.26676" lon="-1.54156">
        <ele>24.200000762939</ele>
        <time>2019-04-02T09:18:16.000Z</time>
      </trkpt>
      <trkpt lat="47.26676" lon="-1.54158">
        <ele>24.200000762939</ele>
        <time>2019-04-02T09:18:17.000Z</time>
      </trkpt>
      <trkpt lat="47.26678" lon="-1.54161">
        <ele>24.200000762939</ele>
        <time>2019-04-02T09:18:18.000Z</time>
      </trkpt>
      <trkpt lat="47.26678" lon="-1.54161">
        <ele>24.200000762939</ele>
        <time>2019-04-02T09:18:19.000Z</time>
      </trkpt>
      <trkpt lat="47.26678" lon="-1.54162">
        <ele>24.200000762939</ele>
        <time>2019-04-02T09:18:20.000Z</time>
      </trkpt>
      <trkpt lat="47.26679" lon="-1.54164">
        <ele>24</ele>
        <time>2019-04-02T09:18:21.000Z</time>
      </trkpt>
      <trkpt lat="47.26679" lon="-1.54164">
        <ele>24</ele>
        <time>2019-04-02T09:18:22.000Z</time>
      </trkpt>
      <trkpt lat="47.2668" lon="-1.54165">
        <ele>24</ele>
        <time>2019-04-02T09:18:23.000Z</time>
      </trkpt>
      <trkpt lat="47.2668" lon="-1.54165">
        <ele>24</ele>
        <time>2019-04-02T09:18:24.000Z</time>
      </trkpt>
      <trkpt lat="47.26681" lon="-1.54165">
        <ele>24.200000762939</ele>
        <time>2019-04-02T09:18:25.000Z</time>
      </trkpt>
      <trkpt lat="47.26681" lon="-1.54165">
        <ele>24.200000762939</ele>
        <time>2019-04-02T09:18:26.000Z</time>
      </trkpt>
      <trkpt lat="47.26682" lon="-1.54165">
        <ele>24.200000762939</ele>
        <time>2019-04-02T09:18:27.000Z</time>
      </trkpt>
      <trkpt lat="47.26682" lon="-1.54165">
        <ele>24.200000762939</ele>
        <time>2019-04-02T09:18:28.000Z</time>
      </trkpt>
      <trkpt lat="47.26684" lon="-1.54165">
        <ele>24.200000762939</ele>
        <time>2019-04-02T09:18:29.000Z</time>
      </trkpt>
      <trkpt lat="47.26684" lon="-1.54165">
        <ele>24.200000762939</ele>
        <time>2019-04-02T09:18:30.000Z</time>
      </trkpt>
      <trkpt lat="47.26684" lon="-1.54164">
        <ele>24.200000762939</ele>
        <time>2019-04-02T09:18:31.000Z</time>
      </trkpt>
      <trkpt lat="47.26686" lon="-1.54163">
        <ele>24.39999961853</ele>
        <time>2019-04-02T09:18:32.000Z</time>
      </trkpt>
      <trkpt lat="47.26687" lon="-1.54162">
        <ele>24.39999961853</ele>
        <time>2019-04-02T09:18:33.000Z</time>
      </trkpt>
      <trkpt lat="47.26687" lon="-1.54162">
        <ele>24.39999961853</ele>
        <time>2019-04-02T09:18:34.000Z</time>
      </trkpt>
      <trkpt lat="47.26687" lon="-1.54161">
        <ele>24.39999961853</ele>
        <time>2019-04-02T09:18:35.000Z</time>
      </trkpt>
      <trkpt lat="47.26689" lon="-1.5416">
        <ele>24.60000038147</ele>
        <time>2019-04-02T09:18:36.000Z</time>
      </trkpt>
      <trkpt lat="47.26689" lon="-1.5416">
        <ele>24.60000038147</ele>
        <time>2019-04-02T09:18:37.000Z</time>
      </trkpt>
      <trkpt lat="47.26691" lon="-1.54159">
        <ele>24.60000038147</ele>
        <time>2019-04-02T09:18:38.000Z</time>
      </trkpt>
      <trkpt lat="47.26691" lon="-1.54159">
        <ele>24.60000038147</ele>
        <time>2019-04-02T09:18:39.000Z</time>
      </trkpt>
      <trkpt lat="47.26693" lon="-1.54157">
        <ele>24.799999237061</ele>
        <time>2019-04-02T09:18:40.000Z</time>
      </trkpt>
      <trkpt lat="47.26693" lon="-1.54157">
        <ele>24.799999237061</ele>
        <time>2019-04-02T09:18:41.000Z</time>
      </trkpt>
      <trkpt lat="47.26695" lon="-1.54156">
        <ele>25</ele>
        <time>2019-04-02T09:18:42.000Z</time>
      </trkpt>
      <trkpt lat="47.26695" lon="-1.54156">
        <ele>25</ele>
        <time>2019-04-02T09:18:43.000Z</time>
      </trkpt>
      <trkpt lat="47.26697" lon="-1.54155">
        <ele>25</ele>
        <time>2019-04-02T09:18:44.000Z</time>
      </trkpt>
      <trkpt lat="47.26697" lon="-1.54155">
        <ele>25</ele>
        <time>2019-04-02T09:18:45.000Z</time>
      </trkpt>
      <trkpt lat="47.26699" lon="-1.54152">
        <ele>25.200000762939</ele>
        <time>2019-04-02T09:18:46.000Z</time>
      </trkpt>
      <trkpt lat="47.26699" lon="-1.54152">
        <ele>25.200000762939</ele>
        <time>2019-04-02T09:18:47.000Z</time>
      </trkpt>
      <trkpt lat="47.267" lon="-1.54151">
        <ele>25.39999961853</ele>
        <time>2019-04-02T09:18:48.000Z</time>
      </trkpt>
      <trkpt lat="47.26702" lon="-1.54149">
        <ele>25.200000762939</ele>
        <time>2019-04-02T09:18:49.000Z</time>
      </trkpt>
      <trkpt lat="47.26702" lon="-1.54149">
        <ele>25.200000762939</ele>
        <time>2019-04-02T09:18:50.000Z</time>
      </trkpt>
      <trkpt lat="47.26703" lon="-1.54148">
        <ele>25.200000762939</ele>
        <time>2019-04-02T09:18:51.000Z</time>
      </trkpt>
      <trkpt lat="47.26705" lon="-1.54144">
        <ele>25.200000762939</ele>
        <time>2019-04-02T09:18:52.000Z</time>
      </trkpt>
      <trkpt lat="47.26706" lon="-1.54143">
        <ele>25.200000762939</ele>
        <time>2019-04-02T09:18:53.000Z</time>
      </trkpt>
      <trkpt lat="47.26706" lon="-1.54143">
        <ele>25.200000762939</ele>
        <time>2019-04-02T09:18:54.000Z</time>
      </trkpt>
      <trkpt lat="47.26707" lon="-1.54142">
        <ele>25</ele>
        <time>2019-04-02T09:18:55.000Z</time>
      </trkpt>
      <trkpt lat="47.26709" lon="-1.5414">
        <ele>25</ele>
        <time>2019-04-02T09:18:56.000Z</time>
      </trkpt>
      <trkpt lat="47.26709" lon="-1.5414">
        <ele>25</ele>
        <time>2019-04-02T09:18:57.000Z</time>
      </trkpt>
      <trkpt lat="47.2671" lon="-1.54139">
        <ele>25</ele>
        <time>2019-04-02T09:18:58.000Z</time>
      </trkpt>
      <trkpt lat="47.26713" lon="-1.54137">
        <ele>25</ele>
        <time>2019-04-02T09:18:59.000Z</time>
      </trkpt>
      <trkpt lat="47.26713" lon="-1.54137">
        <ele>25</ele>
        <time>2019-04-02T09:19:00.000Z</time>
      </trkpt>
      <trkpt lat="47.26714" lon="-1.54135">
        <ele>25</ele>
        <time>2019-04-02T09:19:01.000Z</time>
      </trkpt>
      <trkpt lat="47.26716" lon="-1.54133">
        <ele>24.799999237061</ele>
        <time>2019-04-02T09:19:02.000Z</time>
      </trkpt>
      <trkpt lat="47.26716" lon="-1.54133">
        <ele>24.799999237061</ele>
        <time>2019-04-02T09:19:03.000Z</time>
      </trkpt>
      <trkpt lat="47.26719" lon="-1.54131">
        <ele>24.799999237061</ele>
        <time>2019-04-02T09:19:04.000Z</time>
      </trkpt>
      <trkpt lat="47.26719" lon="-1.54131">
        <ele>24.799999237061</ele>
        <time>2019-04-02T09:19:05.000Z</time>
      </trkpt>
      <trkpt lat="47.2672" lon="-1.5413">
        <ele>24.799999237061</ele>
        <time>2019-04-02T09:19:06.000Z</time>
      </trkpt>
      <trkpt lat="47.26723" lon="-1.54128">
        <ele>24.799999237061</ele>
        <time>2019-04-02T09:19:07.000Z</time>
      </trkpt>
      <trkpt lat="47.26723" lon="-1.54128">
        <ele>24.799999237061</ele>
        <time>2019-04-02T09:19:08.000Z</time>
      </trkpt>
      <trkpt lat="47.26724" lon="-1.54126">
        <ele>24.799999237061</ele>
        <time>2019-04-02T09:19:09.000Z</time>
      </trkpt>
      <trkpt lat="47.26726" lon="-1.54124">
        <ele>24.60000038147</ele>
        <time>2019-04-02T09:19:10.000Z</time>
      </trkpt>
      <trkpt lat="47.26726" lon="-1.54124">
        <ele>24.60000038147</ele>
        <time>2019-04-02T09:19:11.000Z</time>
      </trkpt>
      <trkpt lat="47.26729" lon="-1.54121">
        <ele>24.60000038147</ele>
        <time>2019-04-02T09:19:12.000Z</time>
      </trkpt>
      <trkpt lat="47.26729" lon="-1.54121">
        <ele>24.60000038147</ele>
        <time>2019-04-02T09:19:13.000Z</time>
      </trkpt>
      <trkpt lat="47.26732" lon="-1.54119">
        <ele>24.60000038147</ele>
        <time>2019-04-02T09:19:14.000Z</time>
      </trkpt>
      <trkpt lat="47.26732" lon="-1.54119">
        <ele>24.60000038147</ele>
        <time>2019-04-02T09:19:15.000Z</time>
      </trkpt>
      <trkpt lat="47.26734" lon="-1.54118">
        <ele>24.60000038147</ele>
        <time>2019-04-02T09:19:16.000Z</time>
      </trkpt>
      <trkpt lat="47.26736" lon="-1.54116">
        <ele>24.60000038147</ele>
        <time>2019-04-02T09:19:17.000Z</time>
      </trkpt>
      <trkpt lat="47.26736" lon="-1.54116">
        <ele>24.60000038147</ele>
        <time>2019-04-02T09:19:18.000Z</time>
      </trkpt>
      <trkpt lat="47.26738" lon="-1.54113">
        <ele>24.39999961853</ele>
        <time>2019-04-02T09:19:19.000Z</time>
      </trkpt>
      <trkpt lat="47.26738" lon="-1.54113">
        <ele>24.39999961853</ele>
        <time>2019-04-02T09:19:20.000Z</time>
      </trkpt>
      <trkpt lat="47.26741" lon="-1.54112">
        <ele>24.39999961853</ele>
        <time>2019-04-02T09:19:21.000Z</time>
      </trkpt>
      <trkpt lat="47.26741" lon="-1.54112">
        <ele>24.39999961853</ele>
        <time>2019-04-02T09:19:22.000Z</time>
      </trkpt>
      <trkpt lat="47.26743" lon="-1.54111">
        <ele>24.60000038147</ele>
        <time>2019-04-02T09:19:23.000Z</time>
      </trkpt>
      <trkpt lat="47.26745" lon="-1.5411">
        <ele>24.60000038147</ele>
        <time>2019-04-02T09:19:24.000Z</time>
      </trkpt>
      <trkpt lat="47.26745" lon="-1.5411">
        <ele>24.60000038147</ele>
        <time>2019-04-02T09:19:25.000Z</time>
      </trkpt>
      <trkpt lat="47.26748" lon="-1.54108">
        <ele>24.39999961853</ele>
        <time>2019-04-02T09:19:26.000Z</time>
      </trkpt>
      <trkpt lat="47.26748" lon="-1.54108">
        <ele>24.39999961853</ele>
        <time>2019-04-02T09:19:27.000Z</time>
      </trkpt>
      <trkpt lat="47.2675" lon="-1.54106">
        <ele>24.39999961853</ele>
        <time>2019-04-02T09:19:28.000Z</time>
      </trkpt>
      <trkpt lat="47.26753" lon="-1.54104">
        <ele>24.39999961853</ele>
        <time>2019-04-02T09:19:29.000Z</time>
      </trkpt>
      <trkpt lat="47.26753" lon="-1.54104">
        <ele>24.39999961853</ele>
        <time>2019-04-02T09:19:30.000Z</time>
      </trkpt>
      <trkpt lat="47.26754" lon="-1.54103">
        <ele>24.39999961853</ele>
        <time>2019-04-02T09:19:31.000Z</time>
      </trkpt>
      <trkpt lat="47.26757" lon="-1.54101">
        <ele>24.39999961853</ele>
        <time>2019-04-02T09:19:32.000Z</time>
      </trkpt>
      <trkpt lat="47.26757" lon="-1.54101">
        <ele>24.39999961853</ele>
        <time>2019-04-02T09:19:33.000Z</time>
      </trkpt>
      <trkpt lat="47.2676" lon="-1.541">
        <ele>24.39999961853</ele>
        <time>2019-04-02T09:19:34.000Z</time>
      </trkpt>
      <trkpt lat="47.2676" lon="-1.541">
        <ele>24.39999961853</ele>
        <time>2019-04-02T09:19:35.000Z</time>
      </trkpt>
      <trkpt lat="47.26763" lon="-1.54097">
        <ele>24.200000762939</ele>
        <time>2019-04-02T09:19:36.000Z</time>
      </trkpt>
      <trkpt lat="47.26763" lon="-1.54097">
        <ele>24.200000762939</ele>
        <time>2019-04-02T09:19:37.000Z</time>
      </trkpt>
      <trkpt lat="47.26764" lon="-1.54097">
        <ele>24.200000762939</ele>
        <time>2019-04-02T09:19:38.000Z</time>
      </trkpt>
      <trkpt lat="47.26766" lon="-1.54096">
        <ele>24.200000762939</ele>
        <time>2019-04-02T09:19:39.000Z</time>
      </trkpt>
      <trkpt lat="47.26768" lon="-1.54094">
        <ele>24.200000762939</ele>
        <time>2019-04-02T09:19:40.000Z</time>
      </trkpt>
      <trkpt lat="47.26768" lon="-1.54094">
        <ele>24.200000762939</ele>
        <time>2019-04-02T09:19:41.000Z</time>
      </trkpt>
      <trkpt lat="47.26769" lon="-1.54091">
        <ele>24</ele>
        <time>2019-04-02T09:19:42.000Z</time>
      </trkpt>
      <trkpt lat="47.26769" lon="-1.54091">
        <ele>24</ele>
        <time>2019-04-02T09:19:43.000Z</time>
      </trkpt>
      <trkpt lat="47.26771" lon="-1.54088">
        <ele>23.799999237061</ele>
        <time>2019-04-02T09:19:44.000Z</time>
      </trkpt>
      <trkpt lat="47.26771" lon="-1.54088">
        <ele>23.799999237061</ele>
        <time>2019-04-02T09:19:45.000Z</time>
      </trkpt>
      <trkpt lat="47.26773" lon="-1.54084">
        <ele>23.60000038147</ele>
        <time>2019-04-02T09:19:46.000Z</time>
      </trkpt>
      <trkpt lat="47.26773" lon="-1.54084">
        <ele>23.60000038147</ele>
        <time>2019-04-02T09:19:47.000Z</time>
      </trkpt>
      <trkpt lat="47.26774" lon="-1.54083">
        <ele>23.60000038147</ele>
        <time>2019-04-02T09:19:48.000Z</time>
      </trkpt>
      <trkpt lat="47.26776" lon="-1.54079">
        <ele>23.39999961853</ele>
        <time>2019-04-02T09:19:49.000Z</time>
      </trkpt>
      <trkpt lat="47.26776" lon="-1.54079">
        <ele>23.39999961853</ele>
        <time>2019-04-02T09:19:50.000Z</time>
      </trkpt>
      <trkpt lat="47.26778" lon="-1.54078">
        <ele>23.39999961853</ele>
        <time>2019-04-02T09:19:51.000Z</time>
      </trkpt>
      <trkpt lat="47.26781" lon="-1.54076">
        <ele>23.39999961853</ele>
        <time>2019-04-02T09:19:52.000Z</time>
      </trkpt>
      <trkpt lat="47.26781" lon="-1.54076">
        <ele>23.39999961853</ele>
        <time>2019-04-02T09:19:53.000Z</time>
      </trkpt>
      <trkpt lat="47.26781" lon="-1.54076">
        <ele>23.39999961853</ele>
        <time>2019-04-02T09:19:54.000Z</time>
      </trkpt>
      <trkpt lat="47.26783" lon="-1.54074">
        <ele>23.200000762939</ele>
        <time>2019-04-02T09:19:55.000Z</time>
      </trkpt>
      <trkpt lat="47.26783" lon="-1.54074">
        <ele>23.200000762939</ele>
        <time>2019-04-02T09:19:56.000Z</time>
      </trkpt>
      <trkpt lat="47.26785" lon="-1.54071">
        <ele>23.200000762939</ele>
        <time>2019-04-02T09:19:57.000Z</time>
      </trkpt>
      <trkpt lat="47.26785" lon="-1.54071">
        <ele>23.200000762939</ele>
        <time>2019-04-02T09:19:58.000Z</time>
      </trkpt>
      <trkpt lat="47.26788" lon="-1.54069">
        <ele>23.200000762939</ele>
        <time>2019-04-02T09:19:59.000Z</time>
      </trkpt>
      <trkpt lat="47.26788" lon="-1.54069">
        <ele>23.200000762939</ele>
        <time>2019-04-02T09:20:00.000Z</time>
      </trkpt>
      <trkpt lat="47.26789" lon="-1.54067">
        <ele>23</ele>
        <time>2019-04-02T09:20:01.000Z</time>
      </trkpt>
      <trkpt lat="47.26789" lon="-1.54067">
        <ele>23</ele>
        <time>2019-04-02T09:20:02.000Z</time>
      </trkpt>
      <trkpt lat="47.2679" lon="-1.54066">
        <ele>23</ele>
        <time>2019-04-02T09:20:03.000Z</time>
      </trkpt>
      <trkpt lat="47.26791" lon="-1.54065">
        <ele>23</ele>
        <time>2019-04-02T09:20:04.000Z</time>
      </trkpt>
      <trkpt lat="47.26792" lon="-1.54064">
        <ele>23</ele>
        <time>2019-04-02T09:20:05.000Z</time>
      </trkpt>
      <trkpt lat="47.26795" lon="-1.54061">
        <ele>23</ele>
        <time>2019-04-02T09:20:06.000Z</time>
      </trkpt>
      <trkpt lat="47.26795" lon="-1.54061">
        <ele>23</ele>
        <time>2019-04-02T09:20:07.000Z</time>
      </trkpt>
      <trkpt lat="47.26797" lon="-1.5406">
        <ele>23</ele>
        <time>2019-04-02T09:20:08.000Z</time>
      </trkpt>
      <trkpt lat="47.26799" lon="-1.54058">
        <ele>23</ele>
        <time>2019-04-02T09:20:09.000Z</time>
      </trkpt>
      <trkpt lat="47.26799" lon="-1.54058">
        <ele>23</ele>
        <time>2019-04-02T09:20:10.000Z</time>
      </trkpt>
      <trkpt lat="47.26801" lon="-1.54057">
        <ele>23</ele>
        <time>2019-04-02T09:20:11.000Z</time>
      </trkpt>
      <trkpt lat="47.26802" lon="-1.54056">
        <ele>23</ele>
        <time>2019-04-02T09:20:12.000Z</time>
      </trkpt>
      <trkpt lat="47.26802" lon="-1.54056">
        <ele>23</ele>
        <time>2019-04-02T09:20:13.000Z</time>
      </trkpt>
      <trkpt lat="47.26804" lon="-1.54054">
        <ele>23</ele>
        <time>2019-04-02T09:20:14.000Z</time>
      </trkpt>
      <trkpt lat="47.26804" lon="-1.54054">
        <ele>23</ele>
        <time>2019-04-02T09:20:15.000Z</time>
      </trkpt>
      <trkpt lat="47.26806" lon="-1.54052">
        <ele>22.799999237061</ele>
        <time>2019-04-02T09:20:16.000Z</time>
      </trkpt>
      <trkpt lat="47.26808" lon="-1.54049">
        <ele>22.799999237061</ele>
        <time>2019-04-02T09:20:17.000Z</time>
      </trkpt>
      <trkpt lat="47.26808" lon="-1.54049">
        <ele>22.799999237061</ele>
        <time>2019-04-02T09:20:18.000Z</time>
      </trkpt>
      <trkpt lat="47.26811" lon="-1.54047">
        <ele>22.799999237061</ele>
        <time>2019-04-02T09:20:19.000Z</time>
      </trkpt>
      <trkpt lat="47.26811" lon="-1.54047">
        <ele>22.799999237061</ele>
        <time>2019-04-02T09:20:20.000Z</time>
      </trkpt>
      <trkpt lat="47.26814" lon="-1.54045">
        <ele>22.799999237061</ele>
        <time>2019-04-02T09:20:21.000Z</time>
      </trkpt>
      <trkpt lat="47.26814" lon="-1.54045">
        <ele>22.799999237061</ele>
        <time>2019-04-02T09:20:22.000Z</time>
      </trkpt>
      <trkpt lat="47.26817" lon="-1.54043">
        <ele>22.799999237061</ele>
        <time>2019-04-02T09:20:23.000Z</time>
      </trkpt>
      <trkpt lat="47.26817" lon="-1.54043">
        <ele>22.799999237061</ele>
        <time>2019-04-02T09:20:24.000Z</time>
      </trkpt>
      <trkpt lat="47.26817" lon="-1.54042">
        <ele>22.799999237061</ele>
        <time>2019-04-02T09:20:25.000Z</time>
      </trkpt>
      <trkpt lat="47.2682" lon="-1.5404">
        <ele>22.799999237061</ele>
        <time>2019-04-02T09:20:26.000Z</time>
      </trkpt>
      <trkpt lat="47.2682" lon="-1.5404">
        <ele>22.799999237061</ele>
        <time>2019-04-02T09:20:27.000Z</time>
      </trkpt>
      <trkpt lat="47.26823" lon="-1.54037">
        <ele>22.799999237061</ele>
        <time>2019-04-02T09:20:28.000Z</time>
      </trkpt>
      <trkpt lat="47.26823" lon="-1.54037">
        <ele>22.799999237061</ele>
        <time>2019-04-02T09:20:29.000Z</time>
      </trkpt>
      <trkpt lat="47.26826" lon="-1.54035">
        <ele>22.799999237061</ele>
        <time>2019-04-02T09:20:30.000Z</time>
      </trkpt>
      <trkpt lat="47.26826" lon="-1.54035">
        <ele>22.799999237061</ele>
        <time>2019-04-02T09:20:31.000Z</time>
      </trkpt>
      <trkpt lat="47.26829" lon="-1.54032">
        <ele>22.799999237061</ele>
        <time>2019-04-02T09:20:32.000Z</time>
      </trkpt>
      <trkpt lat="47.26829" lon="-1.54032">
        <ele>22.799999237061</ele>
        <time>2019-04-02T09:20:33.000Z</time>
      </trkpt>
      <trkpt lat="47.26831" lon="-1.5403">
        <ele>22.799999237061</ele>
        <time>2019-04-02T09:20:34.000Z</time>
      </trkpt>
      <trkpt lat="47.26831" lon="-1.5403">
        <ele>22.799999237061</ele>
        <time>2019-04-02T09:20:35.000Z</time>
      </trkpt>
      <trkpt lat="47.26833" lon="-1.54028">
        <ele>22.799999237061</ele>
        <time>2019-04-02T09:20:36.000Z</time>
      </trkpt>
      <trkpt lat="47.26833" lon="-1.54028">
        <ele>22.799999237061</ele>
        <time>2019-04-02T09:20:37.000Z</time>
      </trkpt>
      <trkpt lat="47.26835" lon="-1.54026">
        <ele>22.799999237061</ele>
        <time>2019-04-02T09:20:38.000Z</time>
      </trkpt>
      <trkpt lat="47.26835" lon="-1.54026">
        <ele>22.799999237061</ele>
        <time>2019-04-02T09:20:39.000Z</time>
      </trkpt>
      <trkpt lat="47.26838" lon="-1.54025">
        <ele>22.799999237061</ele>
        <time>2019-04-02T09:20:40.000Z</time>
      </trkpt>
      <trkpt lat="47.26838" lon="-1.54025">
        <ele>22.799999237061</ele>
        <time>2019-04-02T09:20:41.000Z</time>
      </trkpt>
      <trkpt lat="47.26839" lon="-1.54023">
        <ele>22.799999237061</ele>
        <time>2019-04-02T09:20:42.000Z</time>
      </trkpt>
      <trkpt lat="47.26839" lon="-1.54023">
        <ele>22.799999237061</ele>
        <time>2019-04-02T09:20:43.000Z</time>
      </trkpt>
      <trkpt lat="47.26842" lon="-1.54021">
        <ele>23</ele>
        <time>2019-04-02T09:20:44.000Z</time>
      </trkpt>
      <trkpt lat="47.26842" lon="-1.54021">
        <ele>23</ele>
        <time>2019-04-02T09:20:45.000Z</time>
      </trkpt>
      <trkpt lat="47.26844" lon="-1.54019">
        <ele>23</ele>
        <time>2019-04-02T09:20:46.000Z</time>
      </trkpt>
      <trkpt lat="47.26844" lon="-1.54019">
        <ele>23</ele>
        <time>2019-04-02T09:20:47.000Z</time>
      </trkpt>
      <trkpt lat="47.26847" lon="-1.54016">
        <ele>23</ele>
        <time>2019-04-02T09:20:48.000Z</time>
      </trkpt>
      <trkpt lat="47.26847" lon="-1.54016">
        <ele>23</ele>
        <time>2019-04-02T09:20:49.000Z</time>
      </trkpt>
      <trkpt lat="47.26848" lon="-1.54015">
        <ele>23</ele>
        <time>2019-04-02T09:20:50.000Z</time>
      </trkpt>
      <trkpt lat="47.2685" lon="-1.54013">
        <ele>23</ele>
        <time>2019-04-02T09:20:51.000Z</time>
      </trkpt>
      <trkpt lat="47.2685" lon="-1.54013">
        <ele>23</ele>
        <time>2019-04-02T09:20:52.000Z</time>
      </trkpt>
      <trkpt lat="47.26851" lon="-1.54012">
        <ele>23</ele>
        <time>2019-04-02T09:20:53.000Z</time>
      </trkpt>
      <trkpt lat="47.26854" lon="-1.5401">
        <ele>23</ele>
        <time>2019-04-02T09:20:54.000Z</time>
      </trkpt>
      <trkpt lat="47.26854" lon="-1.5401">
        <ele>23</ele>
        <time>2019-04-02T09:20:55.000Z</time>
      </trkpt>
      <trkpt lat="47.26856" lon="-1.54008">
        <ele>23.200000762939</ele>
        <time>2019-04-02T09:20:56.000Z</time>
      </trkpt>
      <trkpt lat="47.26856" lon="-1.54008">
        <ele>23.200000762939</ele>
        <time>2019-04-02T09:20:57.000Z</time>
      </trkpt>
      <trkpt lat="47.26858" lon="-1.54008">
        <ele>23.200000762939</ele>
        <time>2019-04-02T09:20:58.000Z</time>
      </trkpt>
      <trkpt lat="47.2686" lon="-1.54006">
        <ele>23.200000762939</ele>
        <time>2019-04-02T09:20:59.000Z</time>
      </trkpt>
      <trkpt lat="47.2686" lon="-1.54006">
        <ele>23.200000762939</ele>
        <time>2019-04-02T09:21:00.000Z</time>
      </trkpt>
      <trkpt lat="47.26861" lon="-1.54005">
        <ele>23.200000762939</ele>
        <time>2019-04-02T09:21:01.000Z</time>
      </trkpt>
      <trkpt lat="47.26864" lon="-1.54003">
        <ele>23.39999961853</ele>
        <time>2019-04-02T09:21:02.000Z</time>
      </trkpt>
      <trkpt lat="47.26864" lon="-1.54003">
        <ele>23.39999961853</ele>
        <time>2019-04-02T09:21:03.000Z</time>
      </trkpt>
      <trkpt lat="47.26866" lon="-1.54002">
        <ele>23.39999961853</ele>
        <time>2019-04-02T09:21:04.000Z</time>
      </trkpt>
      <trkpt lat="47.26866" lon="-1.54002">
        <ele>23.39999961853</ele>
        <time>2019-04-02T09:21:05.000Z</time>
      </trkpt>
      <trkpt lat="47.26867" lon="-1.54002">
        <ele>23.39999961853</ele>
        <time>2019-04-02T09:21:06.000Z</time>
      </trkpt>
      <trkpt lat="47.26869" lon="-1.53999">
        <ele>23.39999961853</ele>
        <time>2019-04-02T09:21:07.000Z</time>
      </trkpt>
      <trkpt lat="47.26869" lon="-1.53999">
        <ele>23.39999961853</ele>
        <time>2019-04-02T09:21:08.000Z</time>
      </trkpt>
      <trkpt lat="47.2687" lon="-1.53999">
        <ele>23.39999961853</ele>
        <time>2019-04-02T09:21:09.000Z</time>
      </trkpt>
      <trkpt lat="47.26874" lon="-1.53996">
        <ele>23.60000038147</ele>
        <time>2019-04-02T09:21:10.000Z</time>
      </trkpt>
      <trkpt lat="47.26874" lon="-1.53996">
        <ele>23.60000038147</ele>
        <time>2019-04-02T09:21:11.000Z</time>
      </trkpt>
      <trkpt lat="47.26876" lon="-1.53995">
        <ele>23.60000038147</ele>
        <time>2019-04-02T09:21:12.000Z</time>
      </trkpt>
      <trkpt lat="47.26876" lon="-1.53995">
        <ele>23.60000038147</ele>
        <time>2019-04-02T09:21:13.000Z</time>
      </trkpt>
      <trkpt lat="47.26877" lon="-1.53993">
        <ele>23.60000038147</ele>
        <time>2019-04-02T09:21:14.000Z</time>
      </trkpt>
      <trkpt lat="47.26877" lon="-1.53993">
        <ele>23.60000038147</ele>
        <time>2019-04-02T09:21:15.000Z</time>
      </trkpt>
      <trkpt lat="47.26878" lon="-1.53992">
        <ele>23.60000038147</ele>
        <time>2019-04-02T09:21:16.000Z</time>
      </trkpt>
      <trkpt lat="47.26881" lon="-1.53991">
        <ele>23.799999237061</ele>
        <time>2019-04-02T09:21:17.000Z</time>
      </trkpt>
      <trkpt lat="47.26881" lon="-1.53991">
        <ele>23.799999237061</ele>
        <time>2019-04-02T09:21:18.000Z</time>
      </trkpt>
      <trkpt lat="47.26883" lon="-1.5399">
        <ele>23.799999237061</ele>
        <time>2019-04-02T09:21:19.000Z</time>
      </trkpt>
      <trkpt lat="47.26883" lon="-1.5399">
        <ele>23.799999237061</ele>
        <time>2019-04-02T09:21:20.000Z</time>
      </trkpt>
      <trkpt lat="47.26886" lon="-1.53989">
        <ele>23.799999237061</ele>
        <time>2019-04-02T09:21:21.000Z</time>
      </trkpt>
      <trkpt lat="47.26886" lon="-1.53989">
        <ele>23.799999237061</ele>
        <time>2019-04-02T09:21:22.000Z</time>
      </trkpt>
      <trkpt lat="47.26888" lon="-1.53987">
        <ele>24</ele>
        <time>2019-04-02T09:21:23.000Z</time>
      </trkpt>
      <trkpt lat="47.26888" lon="-1.53987">
        <ele>24</ele>
        <time>2019-04-02T09:21:24.000Z</time>
      </trkpt>
      <trkpt lat="47.2689" lon="-1.53986">
        <ele>24</ele>
        <time>2019-04-02T09:21:25.000Z</time>
      </trkpt>
      <trkpt lat="47.26893" lon="-1.53985">
        <ele>24</ele>
        <time>2019-04-02T09:21:26.000Z</time>
      </trkpt>
      <trkpt lat="47.26893" lon="-1.53985">
        <ele>24</ele>
        <time>2019-04-02T09:21:27.000Z</time>
      </trkpt>
      <trkpt lat="47.26895" lon="-1.53983">
        <ele>24.200000762939</ele>
        <time>2019-04-02T09:21:28.000Z</time>
      </trkpt>
      <trkpt lat="47.26895" lon="-1.53983">
        <ele>24.200000762939</ele>
        <time>2019-04-02T09:21:29.000Z</time>
      </trkpt>
      <trkpt lat="47.26898" lon="-1.53982">
        <ele>24.200000762939</ele>
        <time>2019-04-02T09:21:30.000Z</time>
      </trkpt>
      <trkpt lat="47.26898" lon="-1.53982">
        <ele>24.200000762939</ele>
        <time>2019-04-02T09:21:31.000Z</time>
      </trkpt>
      <trkpt lat="47.26901" lon="-1.53981">
        <ele>24.39999961853</ele>
        <time>2019-04-02T09:21:32.000Z</time>
      </trkpt>
      <trkpt lat="47.26901" lon="-1.53981">
        <ele>24.39999961853</ele>
        <time>2019-04-02T09:21:33.000Z</time>
      </trkpt>
      <trkpt lat="47.26902" lon="-1.53981">
        <ele>24.39999961853</ele>
        <time>2019-04-02T09:21:34.000Z</time>
      </trkpt>
      <trkpt lat="47.26906" lon="-1.53981">
        <ele>24.60000038147</ele>
        <time>2019-04-02T09:21:35.000Z</time>
      </trkpt>
      <trkpt lat="47.26906" lon="-1.53981">
        <ele>24.60000038147</ele>
        <time>2019-04-02T09:21:36.000Z</time>
      </trkpt>
      <trkpt lat="47.26907" lon="-1.53982">
        <ele>24.60000038147</ele>
        <time>2019-04-02T09:21:37.000Z</time>
      </trkpt>
      <trkpt lat="47.26909" lon="-1.53982">
        <ele>24.60000038147</ele>
        <time>2019-04-02T09:21:38.000Z</time>
      </trkpt>
      <trkpt lat="47.2691" lon="-1.53982">
        <ele>24.799999237061</ele>
        <time>2019-04-02T09:21:39.000Z</time>
      </trkpt>
      <trkpt lat="47.26913" lon="-1.53982">
        <ele>24.799999237061</ele>
        <time>2019-04-02T09:21:40.000Z</time>
      </trkpt>
      <trkpt lat="47.26913" lon="-1.53982">
        <ele>24.799999237061</ele>
        <time>2019-04-02T09:21:41.000Z</time>
      </trkpt>
      <trkpt lat="47.26914" lon="-1.53981">
        <ele>24.799999237061</ele>
        <time>2019-04-02T09:21:42.000Z</time>
      </trkpt>
      <trkpt lat="47.26916" lon="-1.53981">
        <ele>24.799999237061</ele>
        <time>2019-04-02T09:21:43.000Z</time>
      </trkpt>
      <trkpt lat="47.26916" lon="-1.53981">
        <ele>24.799999237061</ele>
        <time>2019-04-02T09:21:44.000Z</time>
      </trkpt>
      <trkpt lat="47.26918" lon="-1.5398">
        <ele>24.60000038147</ele>
        <time>2019-04-02T09:21:45.000Z</time>
      </trkpt>
      <trkpt lat="47.26918" lon="-1.5398">
        <ele>24.60000038147</ele>
        <time>2019-04-02T09:21:46.000Z</time>
      </trkpt>
      <trkpt lat="47.26921" lon="-1.53979">
        <ele>24.60000038147</ele>
        <time>2019-04-02T09:21:47.000Z</time>
      </trkpt>
      <trkpt lat="47.26921" lon="-1.53979">
        <ele>24.60000038147</ele>
        <time>2019-04-02T09:21:48.000Z</time>
      </trkpt>
      <trkpt lat="47.26924" lon="-1.53978">
        <ele>24.39999961853</ele>
        <time>2019-04-02T09:21:49.000Z</time>
      </trkpt>
      <trkpt lat="47.26924" lon="-1.53978">
        <ele>24.39999961853</ele>
        <time>2019-04-02T09:21:50.000Z</time>
      </trkpt>
      <trkpt lat="47.26926" lon="-1.53977">
        <ele>24.200000762939</ele>
        <time>2019-04-02T09:21:51.000Z</time>
      </trkpt>
      <trkpt lat="47.26929" lon="-1.53977">
        <ele>24.200000762939</ele>
        <time>2019-04-02T09:21:52.000Z</time>
      </trkpt>
      <trkpt lat="47.26929" lon="-1.53977">
        <ele>24.200000762939</ele>
        <time>2019-04-02T09:21:53.000Z</time>
      </trkpt>
      <trkpt lat="47.2693" lon="-1.53976">
        <ele>24.200000762939</ele>
        <time>2019-04-02T09:21:54.000Z</time>
      </trkpt>
      <trkpt lat="47.26932" lon="-1.53976">
        <ele>24</ele>
        <time>2019-04-02T09:21:55.000Z</time>
      </trkpt>
      <trkpt lat="47.26932" lon="-1.53976">
        <ele>24</ele>
        <time>2019-04-02T09:21:56.000Z</time>
      </trkpt>
      <trkpt lat="47.26933" lon="-1.53975">
        <ele>24</ele>
        <time>2019-04-02T09:21:57.000Z</time>
      </trkpt>
      <trkpt lat="47.26935" lon="-1.53974">
        <ele>23.799999237061</ele>
        <time>2019-04-02T09:21:58.000Z</time>
      </trkpt>
      <trkpt lat="47.26935" lon="-1.53974">
        <ele>23.799999237061</ele>
        <time>2019-04-02T09:21:59.000Z</time>
      </trkpt>
      <trkpt lat="47.26938" lon="-1.53973">
        <ele>23.799999237061</ele>
        <time>2019-04-02T09:22:00.000Z</time>
      </trkpt>
      <trkpt lat="47.26938" lon="-1.53973">
        <ele>23.799999237061</ele>
        <time>2019-04-02T09:22:01.000Z</time>
      </trkpt>
      <trkpt lat="47.2694" lon="-1.53972">
        <ele>23.60000038147</ele>
        <time>2019-04-02T09:22:02.000Z</time>
      </trkpt>
      <trkpt lat="47.26943" lon="-1.5397">
        <ele>23.39999961853</ele>
        <time>2019-04-02T09:22:03.000Z</time>
      </trkpt>
      <trkpt lat="47.26943" lon="-1.5397">
        <ele>23.39999961853</ele>
        <time>2019-04-02T09:22:04.000Z</time>
      </trkpt>
      <trkpt lat="47.26945" lon="-1.5397">
        <ele>23.39999961853</ele>
        <time>2019-04-02T09:22:05.000Z</time>
      </trkpt>
      <trkpt lat="47.26947" lon="-1.53968">
        <ele>23.200000762939</ele>
        <time>2019-04-02T09:22:06.000Z</time>
      </trkpt>
      <trkpt lat="47.26947" lon="-1.53968">
        <ele>23.200000762939</ele>
        <time>2019-04-02T09:22:07.000Z</time>
      </trkpt>
      <trkpt lat="47.2695" lon="-1.53968">
        <ele>23.200000762939</ele>
        <time>2019-04-02T09:22:08.000Z</time>
      </trkpt>
      <trkpt lat="47.26951" lon="-1.53966">
        <ele>23</ele>
        <time>2019-04-02T09:22:09.000Z</time>
      </trkpt>
      <trkpt lat="47.26951" lon="-1.53966">
        <ele>23</ele>
        <time>2019-04-02T09:22:10.000Z</time>
      </trkpt>
      <trkpt lat="47.26953" lon="-1.53966">
        <ele>23</ele>
        <time>2019-04-02T09:22:11.000Z</time>
      </trkpt>
      <trkpt lat="47.26956" lon="-1.53965">
        <ele>22.799999237061</ele>
        <time>2019-04-02T09:22:12.000Z</time>
      </trkpt>
      <trkpt lat="47.26956" lon="-1.53965">
        <ele>22.799999237061</ele>
        <time>2019-04-02T09:22:13.000Z</time>
      </trkpt>
      <trkpt lat="47.26957" lon="-1.53965">
        <ele>22.799999237061</ele>
        <time>2019-04-02T09:22:14.000Z</time>
      </trkpt>
      <trkpt lat="47.2696" lon="-1.53964">
        <ele>22.60000038147</ele>
        <time>2019-04-02T09:22:15.000Z</time>
      </trkpt>
      <trkpt lat="47.2696" lon="-1.53964">
        <ele>22.60000038147</ele>
        <time>2019-04-02T09:22:16.000Z</time>
      </trkpt>
      <trkpt lat="47.26963" lon="-1.53964">
        <ele>22.60000038147</ele>
        <time>2019-04-02T09:22:17.000Z</time>
      </trkpt>
      <trkpt lat="47.26963" lon="-1.53964">
        <ele>22.60000038147</ele>
        <time>2019-04-02T09:22:18.000Z</time>
      </trkpt>
      <trkpt lat="47.26966" lon="-1.53963">
        <ele>22.60000038147</ele>
        <time>2019-04-02T09:22:19.000Z</time>
      </trkpt>
      <trkpt lat="47.26966" lon="-1.53963">
        <ele>22.60000038147</ele>
        <time>2019-04-02T09:22:20.000Z</time>
      </trkpt>
      <trkpt lat="47.26967" lon="-1.53963">
        <ele>22.39999961853</ele>
        <time>2019-04-02T09:22:21.000Z</time>
      </trkpt>
      <trkpt lat="47.2697" lon="-1.53961">
        <ele>22.200000762939</ele>
        <time>2019-04-02T09:22:22.000Z</time>
      </trkpt>
      <trkpt lat="47.2697" lon="-1.53961">
        <ele>22.200000762939</ele>
        <time>2019-04-02T09:22:23.000Z</time>
      </trkpt>
      <trkpt lat="47.26972" lon="-1.53961">
        <ele>22.200000762939</ele>
        <time>2019-04-02T09:22:24.000Z</time>
      </trkpt>
      <trkpt lat="47.26972" lon="-1.53961">
        <ele>22.200000762939</ele>
        <time>2019-04-02T09:22:25.000Z</time>
      </trkpt>
      <trkpt lat="47.26976" lon="-1.5396">
        <ele>22</ele>
        <time>2019-04-02T09:22:26.000Z</time>
      </trkpt>
      <trkpt lat="47.26976" lon="-1.5396">
        <ele>22</ele>
        <time>2019-04-02T09:22:27.000Z</time>
      </trkpt>
      <trkpt lat="47.26979" lon="-1.53959">
        <ele>22</ele>
        <time>2019-04-02T09:22:28.000Z</time>
      </trkpt>
      <trkpt lat="47.26981" lon="-1.53958">
        <ele>21.799999237061</ele>
        <time>2019-04-02T09:22:29.000Z</time>
      </trkpt>
      <trkpt lat="47.26981" lon="-1.53958">
        <ele>21.799999237061</ele>
        <time>2019-04-02T09:22:30.000Z</time>
      </trkpt>
      <trkpt lat="47.26984" lon="-1.53956">
        <ele>21.60000038147</ele>
        <time>2019-04-02T09:22:31.000Z</time>
      </trkpt>
      <trkpt lat="47.26984" lon="-1.53956">
        <ele>21.60000038147</ele>
        <time>2019-04-02T09:22:32.000Z</time>
      </trkpt>
      <trkpt lat="47.26987" lon="-1.53953">
        <ele>21.39999961853</ele>
        <time>2019-04-02T09:22:33.000Z</time>
      </trkpt>
      <trkpt lat="47.26987" lon="-1.53953">
        <ele>21.39999961853</ele>
        <time>2019-04-02T09:22:34.000Z</time>
      </trkpt>
      <trkpt lat="47.2699" lon="-1.53951">
        <ele>21.200000762939</ele>
        <time>2019-04-02T09:22:35.000Z</time>
      </trkpt>
      <trkpt lat="47.2699" lon="-1.53951">
        <ele>21.200000762939</ele>
        <time>2019-04-02T09:22:36.000Z</time>
      </trkpt>
      <trkpt lat="47.26993" lon="-1.53949">
        <ele>21</ele>
        <time>2019-04-02T09:22:37.000Z</time>
      </trkpt>
      <trkpt lat="47.26994" lon="-1.53947">
        <ele>20.799999237061</ele>
        <time>2019-04-02T09:22:38.000Z</time>
      </trkpt>
      <trkpt lat="47.26995" lon="-1.53946">
        <ele>20.799999237061</ele>
        <time>2019-04-02T09:22:39.000Z</time>
      </trkpt>
      <trkpt lat="47.26995" lon="-1.53946">
        <ele>20.799999237061</ele>
        <time>2019-04-02T09:22:40.000Z</time>
      </trkpt>
      <trkpt lat="47.26999" lon="-1.53943">
        <ele>20.60000038147</ele>
        <time>2019-04-02T09:22:41.000Z</time>
      </trkpt>
      <trkpt lat="47.26999" lon="-1.53943">
        <ele>20.60000038147</ele>
        <time>2019-04-02T09:22:42.000Z</time>
      </trkpt>
      <trkpt lat="47.27002" lon="-1.5394">
        <ele>20.39999961853</ele>
        <time>2019-04-02T09:22:43.000Z</time>
      </trkpt>
      <trkpt lat="47.27002" lon="-1.5394">
        <ele>20.39999961853</ele>
        <time>2019-04-02T09:22:44.000Z</time>
      </trkpt>
      <trkpt lat="47.27004" lon="-1.53938">
        <ele>20.200000762939</ele>
        <time>2019-04-02T09:22:45.000Z</time>
      </trkpt>
      <trkpt lat="47.27004" lon="-1.53938">
        <ele>20.200000762939</ele>
        <time>2019-04-02T09:22:46.000Z</time>
      </trkpt>
      <trkpt lat="47.27005" lon="-1.53935">
        <ele>20</ele>
        <time>2019-04-02T09:22:47.000Z</time>
      </trkpt>
      <trkpt lat="47.27005" lon="-1.53935">
        <ele>20</ele>
        <time>2019-04-02T09:22:48.000Z</time>
      </trkpt>
      <trkpt lat="47.27007" lon="-1.53932">
        <ele>19.799999237061</ele>
        <time>2019-04-02T09:22:49.000Z</time>
      </trkpt>
      <trkpt lat="47.27007" lon="-1.53932">
        <ele>19.799999237061</ele>
        <time>2019-04-02T09:22:50.000Z</time>
      </trkpt>
      <trkpt lat="47.27009" lon="-1.53928">
        <ele>19.60000038147</ele>
        <time>2019-04-02T09:22:51.000Z</time>
      </trkpt>
      <trkpt lat="47.27009" lon="-1.53928">
        <ele>19.60000038147</ele>
        <time>2019-04-02T09:22:52.000Z</time>
      </trkpt>
      <trkpt lat="47.27012" lon="-1.53925">
        <ele>19.39999961853</ele>
        <time>2019-04-02T09:22:53.000Z</time>
      </trkpt>
      <trkpt lat="47.27012" lon="-1.53925">
        <ele>19.39999961853</ele>
        <time>2019-04-02T09:22:54.000Z</time>
      </trkpt>
      <trkpt lat="47.27015" lon="-1.53923">
        <ele>19.39999961853</ele>
        <time>2019-04-02T09:22:55.000Z</time>
      </trkpt>
      <trkpt lat="47.27015" lon="-1.53923">
        <ele>19.39999961853</ele>
        <time>2019-04-02T09:22:56.000Z</time>
      </trkpt>
      <trkpt lat="47.27017" lon="-1.53919">
        <ele>19.200000762939</ele>
        <time>2019-04-02T09:22:57.000Z</time>
      </trkpt>
      <trkpt lat="47.27017" lon="-1.53919">
        <ele>19.200000762939</ele>
        <time>2019-04-02T09:22:58.000Z</time>
      </trkpt>
      <trkpt lat="47.27018" lon="-1.53916">
        <ele>19</ele>
        <time>2019-04-02T09:22:59.000Z</time>
      </trkpt>
      <trkpt lat="47.27018" lon="-1.53916">
        <ele>19</ele>
        <time>2019-04-02T09:23:00.000Z</time>
      </trkpt>
      <trkpt lat="47.2702" lon="-1.53913">
        <ele>18.799999237061</ele>
        <time>2019-04-02T09:23:01.000Z</time>
      </trkpt>
      <trkpt lat="47.2702" lon="-1.53913">
        <ele>18.799999237061</ele>
        <time>2019-04-02T09:23:02.000Z</time>
      </trkpt>
      <trkpt lat="47.27021" lon="-1.53911">
        <ele>18.60000038147</ele>
        <time>2019-04-02T09:23:03.000Z</time>
      </trkpt>
      <trkpt lat="47.27021" lon="-1.53911">
        <ele>18.60000038147</ele>
        <time>2019-04-02T09:23:04.000Z</time>
      </trkpt>
      <trkpt lat="47.27023" lon="-1.53907">
        <ele>18.39999961853</ele>
        <time>2019-04-02T09:23:05.000Z</time>
      </trkpt>
      <trkpt lat="47.27023" lon="-1.53907">
        <ele>18.39999961853</ele>
        <time>2019-04-02T09:23:06.000Z</time>
      </trkpt>
      <trkpt lat="47.27026" lon="-1.53903">
        <ele>18.200000762939</ele>
        <time>2019-04-02T09:23:07.000Z</time>
      </trkpt>
      <trkpt lat="47.27027" lon="-1.53902">
        <ele>18</ele>
        <time>2019-04-02T09:23:08.000Z</time>
      </trkpt>
      <trkpt lat="47.27027" lon="-1.53902">
        <ele>18</ele>
        <time>2019-04-02T09:23:09.000Z</time>
      </trkpt>
      <trkpt lat="47.27029" lon="-1.53898">
        <ele>18</ele>
        <time>2019-04-02T09:23:10.000Z</time>
      </trkpt>
      <trkpt lat="47.27029" lon="-1.53898">
        <ele>18</ele>
        <time>2019-04-02T09:23:11.000Z</time>
      </trkpt>
      <trkpt lat="47.27032" lon="-1.53895">
        <ele>18</ele>
        <time>2019-04-02T09:23:12.000Z</time>
      </trkpt>
      <trkpt lat="47.27032" lon="-1.53895">
        <ele>18</ele>
        <time>2019-04-02T09:23:13.000Z</time>
      </trkpt>
      <trkpt lat="47.27035" lon="-1.53892">
        <ele>18</ele>
        <time>2019-04-02T09:23:14.000Z</time>
      </trkpt>
      <trkpt lat="47.27035" lon="-1.53892">
        <ele>18</ele>
        <time>2019-04-02T09:23:15.000Z</time>
      </trkpt>
      <trkpt lat="47.27036" lon="-1.53889">
        <ele>18</ele>
        <time>2019-04-02T09:23:16.000Z</time>
      </trkpt>
      <trkpt lat="47.27036" lon="-1.53889">
        <ele>18</ele>
        <time>2019-04-02T09:23:17.000Z</time>
      </trkpt>
      <trkpt lat="47.27039" lon="-1.53885">
        <ele>18</ele>
        <time>2019-04-02T09:23:18.000Z</time>
      </trkpt>
      <trkpt lat="47.27039" lon="-1.53885">
        <ele>18</ele>
        <time>2019-04-02T09:23:19.000Z</time>
      </trkpt>
      <trkpt lat="47.27041" lon="-1.53882">
        <ele>18</ele>
        <time>2019-04-02T09:23:20.000Z</time>
      </trkpt>
      <trkpt lat="47.27041" lon="-1.53882">
        <ele>18</ele>
        <time>2019-04-02T09:23:21.000Z</time>
      </trkpt>
      <trkpt lat="47.27043" lon="-1.53878">
        <ele>18</ele>
        <time>2019-04-02T09:23:22.000Z</time>
      </trkpt>
      <trkpt lat="47.27043" lon="-1.53878">
        <ele>18</ele>
        <time>2019-04-02T09:23:23.000Z</time>
      </trkpt>
      <trkpt lat="47.27045" lon="-1.53874">
        <ele>18</ele>
        <time>2019-04-02T09:23:24.000Z</time>
      </trkpt>
      <trkpt lat="47.27045" lon="-1.53874">
        <ele>18</ele>
        <time>2019-04-02T09:23:25.000Z</time>
      </trkpt>
      <trkpt lat="47.27047" lon="-1.53871">
        <ele>18</ele>
        <time>2019-04-02T09:23:26.000Z</time>
      </trkpt>
      <trkpt lat="47.27047" lon="-1.53871">
        <ele>18</ele>
        <time>2019-04-02T09:23:27.000Z</time>
      </trkpt>
      <trkpt lat="47.27049" lon="-1.53868">
        <ele>18</ele>
        <time>2019-04-02T09:23:28.000Z</time>
      </trkpt>
      <trkpt lat="47.27049" lon="-1.53868">
        <ele>18</ele>
        <time>2019-04-02T09:23:29.000Z</time>
      </trkpt>
      <trkpt lat="47.2705" lon="-1.53865">
        <ele>18</ele>
        <time>2019-04-02T09:23:30.000Z</time>
      </trkpt>
      <trkpt lat="47.2705" lon="-1.53865">
        <ele>18</ele>
        <time>2019-04-02T09:23:31.000Z</time>
      </trkpt>
      <trkpt lat="47.27052" lon="-1.53862">
        <ele>18</ele>
        <time>2019-04-02T09:23:32.000Z</time>
      </trkpt>
      <trkpt lat="47.27052" lon="-1.53862">
        <ele>18</ele>
        <time>2019-04-02T09:23:33.000Z</time>
      </trkpt>
      <trkpt lat="47.27054" lon="-1.53859">
        <ele>18</ele>
        <time>2019-04-02T09:23:34.000Z</time>
      </trkpt>
      <trkpt lat="47.27054" lon="-1.53859">
        <ele>18</ele>
        <time>2019-04-02T09:23:35.000Z</time>
      </trkpt>
      <trkpt lat="47.27055" lon="-1.53856">
        <ele>18</ele>
        <time>2019-04-02T09:23:36.000Z</time>
      </trkpt>
      <trkpt lat="47.27055" lon="-1.53856">
        <ele>18</ele>
        <time>2019-04-02T09:23:37.000Z</time>
      </trkpt>
      <trkpt lat="47.27056" lon="-1.53855">
        <ele>18</ele>
        <time>2019-04-02T09:23:38.000Z</time>
      </trkpt>
      <trkpt lat="47.27057" lon="-1.53853">
        <ele>18</ele>
        <time>2019-04-02T09:23:39.000Z</time>
      </trkpt>
      <trkpt lat="47.27059" lon="-1.53849">
        <ele>18</ele>
        <time>2019-04-02T09:23:40.000Z</time>
      </trkpt>
      <trkpt lat="47.27059" lon="-1.53849">
        <ele>18</ele>
        <time>2019-04-02T09:23:41.000Z</time>
      </trkpt>
      <trkpt lat="47.2706" lon="-1.53845">
        <ele>18</ele>
        <time>2019-04-02T09:23:42.000Z</time>
      </trkpt>
      <trkpt lat="47.2706" lon="-1.53845">
        <ele>18</ele>
        <time>2019-04-02T09:23:43.000Z</time>
      </trkpt>
      <trkpt lat="47.27063" lon="-1.53842">
        <ele>18</ele>
        <time>2019-04-02T09:23:44.000Z</time>
      </trkpt>
      <trkpt lat="47.27063" lon="-1.53842">
        <ele>18</ele>
        <time>2019-04-02T09:23:45.000Z</time>
      </trkpt>
      <trkpt lat="47.27065" lon="-1.53839">
        <ele>18</ele>
        <time>2019-04-02T09:23:46.000Z</time>
      </trkpt>
      <trkpt lat="47.27065" lon="-1.53839">
        <ele>18</ele>
        <time>2019-04-02T09:23:47.000Z</time>
      </trkpt>
      <trkpt lat="47.27068" lon="-1.53837">
        <ele>18</ele>
        <time>2019-04-02T09:23:48.000Z</time>
      </trkpt>
      <trkpt lat="47.27068" lon="-1.53837">
        <ele>18</ele>
        <time>2019-04-02T09:23:49.000Z</time>
      </trkpt>
      <trkpt lat="47.2707" lon="-1.53835">
        <ele>18</ele>
        <time>2019-04-02T09:23:50.000Z</time>
      </trkpt>
      <trkpt lat="47.2707" lon="-1.53835">
        <ele>18</ele>
        <time>2019-04-02T09:23:51.000Z</time>
      </trkpt>
      <trkpt lat="47.27073" lon="-1.53832">
        <ele>18</ele>
        <time>2019-04-02T09:23:52.000Z</time>
      </trkpt>
      <trkpt lat="47.27073" lon="-1.53832">
        <ele>18</ele>
        <time>2019-04-02T09:23:53.000Z</time>
      </trkpt>
      <trkpt lat="47.27076" lon="-1.5383">
        <ele>18</ele>
        <time>2019-04-02T09:23:54.000Z</time>
      </trkpt>
      <trkpt lat="47.27076" lon="-1.5383">
        <ele>18</ele>
        <time>2019-04-02T09:23:55.000Z</time>
      </trkpt>
      <trkpt lat="47.27078" lon="-1.53828">
        <ele>18</ele>
        <time>2019-04-02T09:23:56.000Z</time>
      </trkpt>
      <trkpt lat="47.27078" lon="-1.53828">
        <ele>18</ele>
        <time>2019-04-02T09:23:57.000Z</time>
      </trkpt>
      <trkpt lat="47.27081" lon="-1.53825">
        <ele>18</ele>
        <time>2019-04-02T09:23:58.000Z</time>
      </trkpt>
      <trkpt lat="47.27081" lon="-1.53825">
        <ele>18</ele>
        <time>2019-04-02T09:23:59.000Z</time>
      </trkpt>
      <trkpt lat="47.27083" lon="-1.53823">
        <ele>18</ele>
        <time>2019-04-02T09:24:00.000Z</time>
      </trkpt>
      <trkpt lat="47.27083" lon="-1.53823">
        <ele>18</ele>
        <time>2019-04-02T09:24:01.000Z</time>
      </trkpt>
      <trkpt lat="47.27085" lon="-1.5382">
        <ele>17.799999237061</ele>
        <time>2019-04-02T09:24:02.000Z</time>
      </trkpt>
      <trkpt lat="47.27085" lon="-1.5382">
        <ele>17.799999237061</ele>
        <time>2019-04-02T09:24:03.000Z</time>
      </trkpt>
      <trkpt lat="47.27088" lon="-1.53817">
        <ele>17.799999237061</ele>
        <time>2019-04-02T09:24:04.000Z</time>
      </trkpt>
      <trkpt lat="47.27088" lon="-1.53817">
        <ele>17.799999237061</ele>
        <time>2019-04-02T09:24:05.000Z</time>
      </trkpt>
      <trkpt lat="47.27091" lon="-1.53814">
        <ele>17.799999237061</ele>
        <time>2019-04-02T09:24:06.000Z</time>
      </trkpt>
      <trkpt lat="47.27092" lon="-1.53812">
        <ele>17.799999237061</ele>
        <time>2019-04-02T09:24:07.000Z</time>
      </trkpt>
      <trkpt lat="47.27092" lon="-1.53812">
        <ele>17.799999237061</ele>
        <time>2019-04-02T09:24:08.000Z</time>
      </trkpt>
      <trkpt lat="47.27094" lon="-1.5381">
        <ele>17.799999237061</ele>
        <time>2019-04-02T09:24:09.000Z</time>
      </trkpt>
      <trkpt lat="47.27094" lon="-1.5381">
        <ele>17.799999237061</ele>
        <time>2019-04-02T09:24:10.000Z</time>
      </trkpt>
      <trkpt lat="47.27097" lon="-1.53807">
        <ele>17.799999237061</ele>
        <time>2019-04-02T09:24:11.000Z</time>
      </trkpt>
      <trkpt lat="47.27097" lon="-1.53807">
        <ele>17.799999237061</ele>
        <time>2019-04-02T09:24:12.000Z</time>
      </trkpt>
      <trkpt lat="47.27099" lon="-1.53805">
        <ele>17.799999237061</ele>
        <time>2019-04-02T09:24:13.000Z</time>
      </trkpt>
      <trkpt lat="47.27099" lon="-1.53805">
        <ele>17.799999237061</ele>
        <time>2019-04-02T09:24:14.000Z</time>
      </trkpt>
      <trkpt lat="47.27102" lon="-1.53803">
        <ele>17.799999237061</ele>
        <time>2019-04-02T09:24:15.000Z</time>
      </trkpt>
      <trkpt lat="47.27102" lon="-1.53803">
        <ele>17.799999237061</ele>
        <time>2019-04-02T09:24:16.000Z</time>
      </trkpt>
      <trkpt lat="47.27104" lon="-1.53801">
        <ele>17.799999237061</ele>
        <time>2019-04-02T09:24:17.000Z</time>
      </trkpt>
      <trkpt lat="47.27104" lon="-1.53801">
        <ele>17.799999237061</ele>
        <time>2019-04-02T09:24:18.000Z</time>
      </trkpt>
      <trkpt lat="47.27107" lon="-1.53799">
        <ele>17.799999237061</ele>
        <time>2019-04-02T09:24:19.000Z</time>
      </trkpt>
      <trkpt lat="47.27107" lon="-1.53799">
        <ele>17.799999237061</ele>
        <time>2019-04-02T09:24:20.000Z</time>
      </trkpt>
      <trkpt lat="47.27109" lon="-1.53796">
        <ele>17.799999237061</ele>
        <time>2019-04-02T09:24:21.000Z</time>
      </trkpt>
      <trkpt lat="47.27109" lon="-1.53796">
        <ele>17.799999237061</ele>
        <time>2019-04-02T09:24:22.000Z</time>
      </trkpt>
      <trkpt lat="47.27111" lon="-1.53793">
        <ele>17.799999237061</ele>
        <time>2019-04-02T09:24:23.000Z</time>
      </trkpt>
      <trkpt lat="47.27111" lon="-1.53793">
        <ele>17.799999237061</ele>
        <time>2019-04-02T09:24:24.000Z</time>
      </trkpt>
      <trkpt lat="47.27114" lon="-1.5379">
        <ele>17.799999237061</ele>
        <time>2019-04-02T09:24:25.000Z</time>
      </trkpt>
      <trkpt lat="47.27114" lon="-1.5379">
        <ele>17.799999237061</ele>
        <time>2019-04-02T09:24:26.000Z</time>
      </trkpt>
      <trkpt lat="47.27115" lon="-1.53787">
        <ele>17.799999237061</ele>
        <time>2019-04-02T09:24:27.000Z</time>
      </trkpt>
      <trkpt lat="47.27115" lon="-1.53787">
        <ele>17.799999237061</ele>
        <time>2019-04-02T09:24:28.000Z</time>
      </trkpt>
      <trkpt lat="47.27118" lon="-1.53784">
        <ele>17.799999237061</ele>
        <time>2019-04-02T09:24:29.000Z</time>
      </trkpt>
      <trkpt lat="47.27118" lon="-1.53784">
        <ele>17.799999237061</ele>
        <time>2019-04-02T09:24:30.000Z</time>
      </trkpt>
      <trkpt lat="47.27121" lon="-1.53781">
        <ele>17.799999237061</ele>
        <time>2019-04-02T09:24:31.000Z</time>
      </trkpt>
      <trkpt lat="47.27121" lon="-1.53781">
        <ele>17.799999237061</ele>
        <time>2019-04-02T09:24:32.000Z</time>
      </trkpt>
      <trkpt lat="47.27124" lon="-1.53777">
        <ele>17.799999237061</ele>
        <time>2019-04-02T09:24:33.000Z</time>
      </trkpt>
      <trkpt lat="47.27124" lon="-1.53777">
        <ele>17.799999237061</ele>
        <time>2019-04-02T09:24:34.000Z</time>
      </trkpt>
      <trkpt lat="47.27125" lon="-1.53776">
        <ele>17.799999237061</ele>
        <time>2019-04-02T09:24:35.000Z</time>
      </trkpt>
      <trkpt lat="47.27127" lon="-1.53775">
        <ele>17.799999237061</ele>
        <time>2019-04-02T09:24:36.000Z</time>
      </trkpt>
      <trkpt lat="47.27128" lon="-1.53773">
        <ele>17.799999237061</ele>
        <time>2019-04-02T09:24:37.000Z</time>
      </trkpt>
      <trkpt lat="47.2713" lon="-1.53771">
        <ele>17.799999237061</ele>
        <time>2019-04-02T09:24:38.000Z</time>
      </trkpt>
      <trkpt lat="47.2713" lon="-1.53771">
        <ele>17.799999237061</ele>
        <time>2019-04-02T09:24:39.000Z</time>
      </trkpt>
      <trkpt lat="47.27131" lon="-1.5377">
        <ele>17.799999237061</ele>
        <time>2019-04-02T09:24:40.000Z</time>
      </trkpt>
      <trkpt lat="47.27133" lon="-1.53769">
        <ele>17.799999237061</ele>
        <time>2019-04-02T09:24:41.000Z</time>
      </trkpt>
      <trkpt lat="47.27136" lon="-1.53767">
        <ele>17.799999237061</ele>
        <time>2019-04-02T09:24:42.000Z</time>
      </trkpt>
      <trkpt lat="47.27136" lon="-1.53767">
        <ele>17.799999237061</ele>
        <time>2019-04-02T09:24:43.000Z</time>
      </trkpt>
      <trkpt lat="47.27137" lon="-1.53765">
        <ele>17.799999237061</ele>
        <time>2019-04-02T09:24:44.000Z</time>
      </trkpt>
      <trkpt lat="47.27139" lon="-1.53763">
        <ele>17.799999237061</ele>
        <time>2019-04-02T09:24:45.000Z</time>
      </trkpt>
      <trkpt lat="47.27139" lon="-1.53763">
        <ele>17.799999237061</ele>
        <time>2019-04-02T09:24:46.000Z</time>
      </trkpt>
      <trkpt lat="47.2714" lon="-1.53762">
        <ele>17.799999237061</ele>
        <time>2019-04-02T09:24:47.000Z</time>
      </trkpt>
      <trkpt lat="47.27142" lon="-1.5376">
        <ele>17.799999237061</ele>
        <time>2019-04-02T09:24:48.000Z</time>
      </trkpt>
      <trkpt lat="47.27142" lon="-1.5376">
        <ele>17.799999237061</ele>
        <time>2019-04-02T09:24:49.000Z</time>
      </trkpt>
      <trkpt lat="47.27143" lon="-1.53759">
        <ele>17.799999237061</ele>
        <time>2019-04-02T09:24:50.000Z</time>
      </trkpt>
      <trkpt lat="47.27144" lon="-1.53757">
        <ele>17.799999237061</ele>
        <time>2019-04-02T09:24:51.000Z</time>
      </trkpt>
      <trkpt lat="47.27144" lon="-1.53757">
        <ele>17.799999237061</ele>
        <time>2019-04-02T09:24:52.000Z</time>
      </trkpt>
      <trkpt lat="47.27145" lon="-1.53756">
        <ele>17.799999237061</ele>
        <time>2019-04-02T09:24:53.000Z</time>
      </trkpt>
      <trkpt lat="47.27148" lon="-1.53753">
        <ele>18</ele>
        <time>2019-04-02T09:24:54.000Z</time>
      </trkpt>
      <trkpt lat="47.27148" lon="-1.53753">
        <ele>18</ele>
        <time>2019-04-02T09:24:55.000Z</time>
      </trkpt>
      <trkpt lat="47.27149" lon="-1.53752">
        <ele>18</ele>
        <time>2019-04-02T09:24:56.000Z</time>
      </trkpt>
      <trkpt lat="47.27152" lon="-1.5375">
        <ele>17.799999237061</ele>
        <time>2019-04-02T09:24:57.000Z</time>
      </trkpt>
      <trkpt lat="47.27152" lon="-1.5375">
        <ele>17.799999237061</ele>
        <time>2019-04-02T09:24:58.000Z</time>
      </trkpt>
      <trkpt lat="47.27153" lon="-1.53748">
        <ele>18</ele>
        <time>2019-04-02T09:24:59.000Z</time>
      </trkpt>
      <trkpt lat="47.27155" lon="-1.53746">
        <ele>18</ele>
        <time>2019-04-02T09:25:00.000Z</time>
      </trkpt>
      <trkpt lat="47.27156" lon="-1.53745">
        <ele>18</ele>
        <time>2019-04-02T09:25:01.000Z</time>
      </trkpt>
      <trkpt lat="47.27156" lon="-1.53745">
        <ele>18</ele>
        <time>2019-04-02T09:25:02.000Z</time>
      </trkpt>
      <trkpt lat="47.27157" lon="-1.53743">
        <ele>18</ele>
        <time>2019-04-02T09:25:03.000Z</time>
      </trkpt>
      <trkpt lat="47.2716" lon="-1.5374">
        <ele>18</ele>
        <time>2019-04-02T09:25:04.000Z</time>
      </trkpt>
      <trkpt lat="47.2716" lon="-1.5374">
        <ele>18</ele>
        <time>2019-04-02T09:25:05.000Z</time>
      </trkpt>
      <trkpt lat="47.27161" lon="-1.53739">
        <ele>18</ele>
        <time>2019-04-02T09:25:06.000Z</time>
      </trkpt>
      <trkpt lat="47.27164" lon="-1.53737">
        <ele>18</ele>
        <time>2019-04-02T09:25:07.000Z</time>
      </trkpt>
      <trkpt lat="47.27164" lon="-1.53737">
        <ele>18</ele>
        <time>2019-04-02T09:25:08.000Z</time>
      </trkpt>
      <trkpt lat="47.27165" lon="-1.53735">
        <ele>18</ele>
        <time>2019-04-02T09:25:09.000Z</time>
      </trkpt>
      <trkpt lat="47.27168" lon="-1.53732">
        <ele>18.200000762939</ele>
        <time>2019-04-02T09:25:10.000Z</time>
      </trkpt>
      <trkpt lat="47.27168" lon="-1.53732">
        <ele>18.200000762939</ele>
        <time>2019-04-02T09:25:11.000Z</time>
      </trkpt>
      <trkpt lat="47.27169" lon="-1.53731">
        <ele>18.200000762939</ele>
        <time>2019-04-02T09:25:12.000Z</time>
      </trkpt>
      <trkpt lat="47.27171" lon="-1.53728">
        <ele>18.200000762939</ele>
        <time>2019-04-02T09:25:13.000Z</time>
      </trkpt>
      <trkpt lat="47.27171" lon="-1.53728">
        <ele>18.200000762939</ele>
        <time>2019-04-02T09:25:14.000Z</time>
      </trkpt>
      <trkpt lat="47.27173" lon="-1.53727">
        <ele>18.39999961853</ele>
        <time>2019-04-02T09:25:15.000Z</time>
      </trkpt>
      <trkpt lat="47.27175" lon="-1.53725">
        <ele>18.39999961853</ele>
        <time>2019-04-02T09:25:16.000Z</time>
      </trkpt>
      <trkpt lat="47.27175" lon="-1.53725">
        <ele>18.39999961853</ele>
        <time>2019-04-02T09:25:17.000Z</time>
      </trkpt>
      <trkpt lat="47.27177" lon="-1.53724">
        <ele>18.60000038147</ele>
        <time>2019-04-02T09:25:18.000Z</time>
      </trkpt>
      <trkpt lat="47.27179" lon="-1.53722">
        <ele>18.60000038147</ele>
        <time>2019-04-02T09:25:19.000Z</time>
      </trkpt>
      <trkpt lat="47.27179" lon="-1.53722">
        <ele>18.60000038147</ele>
        <time>2019-04-02T09:25:20.000Z</time>
      </trkpt>
      <trkpt lat="47.27181" lon="-1.53721">
        <ele>18.60000038147</ele>
        <time>2019-04-02T09:25:21.000Z</time>
      </trkpt>
      <trkpt lat="47.27183" lon="-1.53718">
        <ele>18.799999237061</ele>
        <time>2019-04-02T09:25:22.000Z</time>
      </trkpt>
      <trkpt lat="47.27183" lon="-1.53718">
        <ele>18.799999237061</ele>
        <time>2019-04-02T09:25:23.000Z</time>
      </trkpt>
      <trkpt lat="47.27184" lon="-1.53717">
        <ele>18.799999237061</ele>
        <time>2019-04-02T09:25:24.000Z</time>
      </trkpt>
      <trkpt lat="47.27187" lon="-1.53714">
        <ele>18.799999237061</ele>
        <time>2019-04-02T09:25:25.000Z</time>
      </trkpt>
      <trkpt lat="47.27187" lon="-1.53714">
        <ele>18.799999237061</ele>
        <time>2019-04-02T09:25:26.000Z</time>
      </trkpt>
      <trkpt lat="47.27188" lon="-1.53713">
        <ele>19</ele>
        <time>2019-04-02T09:25:27.000Z</time>
      </trkpt>
      <trkpt lat="47.2719" lon="-1.53711">
        <ele>19</ele>
        <time>2019-04-02T09:25:28.000Z</time>
      </trkpt>
      <trkpt lat="47.2719" lon="-1.53711">
        <ele>19</ele>
        <time>2019-04-02T09:25:29.000Z</time>
      </trkpt>
      <trkpt lat="47.27191" lon="-1.5371">
        <ele>19</ele>
        <time>2019-04-02T09:25:30.000Z</time>
      </trkpt>
      <trkpt lat="47.27192" lon="-1.53709">
        <ele>19</ele>
        <time>2019-04-02T09:25:31.000Z</time>
      </trkpt>
      <trkpt lat="47.27195" lon="-1.53707">
        <ele>19.200000762939</ele>
        <time>2019-04-02T09:25:32.000Z</time>
      </trkpt>
      <trkpt lat="47.27195" lon="-1.53707">
        <ele>19.200000762939</ele>
        <time>2019-04-02T09:25:33.000Z</time>
      </trkpt>
      <trkpt lat="47.27196" lon="-1.53706">
        <ele>19.200000762939</ele>
        <time>2019-04-02T09:25:34.000Z</time>
      </trkpt>
      <trkpt lat="47.27198" lon="-1.53703">
        <ele>19.200000762939</ele>
        <time>2019-04-02T09:25:35.000Z</time>
      </trkpt>
      <trkpt lat="47.27198" lon="-1.53703">
        <ele>19.200000762939</ele>
        <time>2019-04-02T09:25:36.000Z</time>
      </trkpt>
      <trkpt lat="47.272" lon="-1.53701">
        <ele>19.39999961853</ele>
        <time>2019-04-02T09:25:37.000Z</time>
      </trkpt>
      <trkpt lat="47.27201" lon="-1.537">
        <ele>19.39999961853</ele>
        <time>2019-04-02T09:25:38.000Z</time>
      </trkpt>
      <trkpt lat="47.27202" lon="-1.53699">
        <ele>19.39999961853</ele>
        <time>2019-04-02T09:25:39.000Z</time>
      </trkpt>
      <trkpt lat="47.27204" lon="-1.53697">
        <ele>19.39999961853</ele>
        <time>2019-04-02T09:25:40.000Z</time>
      </trkpt>
      <trkpt lat="47.27204" lon="-1.53697">
        <ele>19.39999961853</ele>
        <time>2019-04-02T09:25:41.000Z</time>
      </trkpt>
      <trkpt lat="47.27205" lon="-1.53696">
        <ele>19.60000038147</ele>
        <time>2019-04-02T09:25:42.000Z</time>
      </trkpt>
      <trkpt lat="47.27208" lon="-1.53694">
        <ele>19.60000038147</ele>
        <time>2019-04-02T09:25:43.000Z</time>
      </trkpt>
      <trkpt lat="47.27208" lon="-1.53694">
        <ele>19.60000038147</ele>
        <time>2019-04-02T09:25:44.000Z</time>
      </trkpt>
      <trkpt lat="47.27209" lon="-1.53692">
        <ele>19.60000038147</ele>
        <time>2019-04-02T09:25:45.000Z</time>
      </trkpt>
      <trkpt lat="47.27211" lon="-1.53689">
        <ele>19.799999237061</ele>
        <time>2019-04-02T09:25:46.000Z</time>
      </trkpt>
      <trkpt lat="47.27211" lon="-1.53689">
        <ele>19.799999237061</ele>
        <time>2019-04-02T09:25:47.000Z</time>
      </trkpt>
      <trkpt lat="47.27212" lon="-1.53688">
        <ele>19.799999237061</ele>
        <time>2019-04-02T09:25:48.000Z</time>
      </trkpt>
      <trkpt lat="47.27214" lon="-1.53685">
        <ele>19.799999237061</ele>
        <time>2019-04-02T09:25:49.000Z</time>
      </trkpt>
      <trkpt lat="47.27214" lon="-1.53685">
        <ele>19.799999237061</ele>
        <time>2019-04-02T09:25:50.000Z</time>
      </trkpt>
      <trkpt lat="47.27215" lon="-1.53683">
        <ele>19.799999237061</ele>
        <time>2019-04-02T09:25:51.000Z</time>
      </trkpt>
      <trkpt lat="47.27218" lon="-1.53681">
        <ele>20</ele>
        <time>2019-04-02T09:25:52.000Z</time>
      </trkpt>
      <trkpt lat="47.27218" lon="-1.53681">
        <ele>20</ele>
        <time>2019-04-02T09:25:53.000Z</time>
      </trkpt>
      <trkpt lat="47.27219" lon="-1.53681">
        <ele>20</ele>
        <time>2019-04-02T09:25:54.000Z</time>
      </trkpt>
      <trkpt lat="47.27221" lon="-1.5368">
        <ele>20.200000762939</ele>
        <time>2019-04-02T09:25:55.000Z</time>
      </trkpt>
      <trkpt lat="47.27221" lon="-1.5368">
        <ele>20.200000762939</ele>
        <time>2019-04-02T09:25:56.000Z</time>
      </trkpt>
      <trkpt lat="47.27223" lon="-1.5368">
        <ele>20.200000762939</ele>
        <time>2019-04-02T09:25:57.000Z</time>
      </trkpt>
      <trkpt lat="47.27225" lon="-1.5368">
        <ele>20.200000762939</ele>
        <time>2019-04-02T09:25:58.000Z</time>
      </trkpt>
      <trkpt lat="47.27225" lon="-1.5368">
        <ele>20.200000762939</ele>
        <time>2019-04-02T09:25:59.000Z</time>
      </trkpt>
      <trkpt lat="47.27227" lon="-1.5368">
        <ele>20.200000762939</ele>
        <time>2019-04-02T09:26:00.000Z</time>
      </trkpt>
      <trkpt lat="47.27229" lon="-1.53682">
        <ele>20.39999961853</ele>
        <time>2019-04-02T09:26:01.000Z</time>
      </trkpt>
      <trkpt lat="47.2723" lon="-1.53684">
        <ele>20.39999961853</ele>
        <time>2019-04-02T09:26:02.000Z</time>
      </trkpt>
      <trkpt lat="47.2723" lon="-1.53684">
        <ele>20.39999961853</ele>
        <time>2019-04-02T09:26:03.000Z</time>
      </trkpt>
      <trkpt lat="47.27231" lon="-1.53687">
        <ele>20.39999961853</ele>
        <time>2019-04-02T09:26:04.000Z</time>
      </trkpt>
      <trkpt lat="47.27231" lon="-1.53687">
        <ele>20.39999961853</ele>
        <time>2019-04-02T09:26:05.000Z</time>
      </trkpt>
      <trkpt lat="47.27232" lon="-1.53689">
        <ele>20.39999961853</ele>
        <time>2019-04-02T09:26:06.000Z</time>
      </trkpt>
      <trkpt lat="47.27234" lon="-1.53692">
        <ele>20.60000038147</ele>
        <time>2019-04-02T09:26:07.000Z</time>
      </trkpt>
      <trkpt lat="47.27234" lon="-1.53692">
        <ele>20.60000038147</ele>
        <time>2019-04-02T09:26:08.000Z</time>
      </trkpt>
      <trkpt lat="47.27235" lon="-1.53694">
        <ele>20.60000038147</ele>
        <time>2019-04-02T09:26:09.000Z</time>
      </trkpt>
      <trkpt lat="47.27237" lon="-1.53697">
        <ele>20.60000038147</ele>
        <time>2019-04-02T09:26:10.000Z</time>
      </trkpt>
      <trkpt lat="47.27237" lon="-1.53697">
        <ele>20.60000038147</ele>
        <time>2019-04-02T09:26:11.000Z</time>
      </trkpt>
      <trkpt lat="47.27238" lon="-1.53699">
        <ele>20.60000038147</ele>
        <time>2019-04-02T09:26:12.000Z</time>
      </trkpt>
      <trkpt lat="47.27239" lon="-1.53702">
        <ele>20.799999237061</ele>
        <time>2019-04-02T09:26:13.000Z</time>
      </trkpt>
      <trkpt lat="47.27239" lon="-1.53702">
        <ele>20.799999237061</ele>
        <time>2019-04-02T09:26:14.000Z</time>
      </trkpt>
      <trkpt lat="47.2724" lon="-1.53704">
        <ele>20.799999237061</ele>
        <time>2019-04-02T09:26:15.000Z</time>
      </trkpt>
      <trkpt lat="47.27242" lon="-1.53707">
        <ele>20.799999237061</ele>
        <time>2019-04-02T09:26:16.000Z</time>
      </trkpt>
      <trkpt lat="47.27242" lon="-1.53707">
        <ele>20.799999237061</ele>
        <time>2019-04-02T09:26:17.000Z</time>
      </trkpt>
      <trkpt lat="47.27243" lon="-1.53709">
        <ele>20.799999237061</ele>
        <time>2019-04-02T09:26:18.000Z</time>
      </trkpt>
      <trkpt lat="47.27245" lon="-1.53712">
        <ele>21</ele>
        <time>2019-04-02T09:26:19.000Z</time>
      </trkpt>
      <trkpt lat="47.27245" lon="-1.53712">
        <ele>21</ele>
        <time>2019-04-02T09:26:20.000Z</time>
      </trkpt>
      <trkpt lat="47.27246" lon="-1.53713">
        <ele>21</ele>
        <time>2019-04-02T09:26:21.000Z</time>
      </trkpt>
      <trkpt lat="47.27248" lon="-1.53716">
        <ele>21</ele>
        <time>2019-04-02T09:26:22.000Z</time>
      </trkpt>
      <trkpt lat="47.27248" lon="-1.53716">
        <ele>21</ele>
        <time>2019-04-02T09:26:23.000Z</time>
      </trkpt>
      <trkpt lat="47.2725" lon="-1.53718">
        <ele>21</ele>
        <time>2019-04-02T09:26:24.000Z</time>
      </trkpt>
      <trkpt lat="47.27252" lon="-1.53721">
        <ele>21</ele>
        <time>2019-04-02T09:26:25.000Z</time>
      </trkpt>
      <trkpt lat="47.27252" lon="-1.53721">
        <ele>21</ele>
        <time>2019-04-02T09:26:26.000Z</time>
      </trkpt>
      <trkpt lat="47.27253" lon="-1.53723">
        <ele>21</ele>
        <time>2019-04-02T09:26:27.000Z</time>
      </trkpt>
      <trkpt lat="47.27254" lon="-1.53727">
        <ele>21</ele>
        <time>2019-04-02T09:26:28.000Z</time>
      </trkpt>
      <trkpt lat="47.27254" lon="-1.53727">
        <ele>21</ele>
        <time>2019-04-02T09:26:29.000Z</time>
      </trkpt>
      <trkpt lat="47.27255" lon="-1.53728">
        <ele>21.200000762939</ele>
        <time>2019-04-02T09:26:30.000Z</time>
      </trkpt>
      <trkpt lat="47.27257" lon="-1.53731">
        <ele>21.39999961853</ele>
        <time>2019-04-02T09:26:31.000Z</time>
      </trkpt>
      <trkpt lat="47.27257" lon="-1.53731">
        <ele>21.39999961853</ele>
        <time>2019-04-02T09:26:32.000Z</time>
      </trkpt>
      <trkpt lat="47.27258" lon="-1.53733">
        <ele>21.60000038147</ele>
        <time>2019-04-02T09:26:33.000Z</time>
      </trkpt>
      <trkpt lat="47.2726" lon="-1.53737">
        <ele>21.799999237061</ele>
        <time>2019-04-02T09:26:34.000Z</time>
      </trkpt>
      <trkpt lat="47.2726" lon="-1.53737">
        <ele>21.799999237061</ele>
        <time>2019-04-02T09:26:35.000Z</time>
      </trkpt>
      <trkpt lat="47.27261" lon="-1.53738">
        <ele>21.799999237061</ele>
        <time>2019-04-02T09:26:36.000Z</time>
      </trkpt>
      <trkpt lat="47.27262" lon="-1.53742">
        <ele>21.799999237061</ele>
        <time>2019-04-02T09:26:37.000Z</time>
      </trkpt>
      <trkpt lat="47.27263" lon="-1.53743">
        <ele>21.799999237061</ele>
        <time>2019-04-02T09:26:38.000Z</time>
      </trkpt>
      <trkpt lat="47.27264" lon="-1.53745">
        <ele>21.799999237061</ele>
        <time>2019-04-02T09:26:39.000Z</time>
      </trkpt>
      <trkpt lat="47.27264" lon="-1.53745">
        <ele>21.799999237061</ele>
        <time>2019-04-02T09:26:40.000Z</time>
      </trkpt>
      <trkpt lat="47.27265" lon="-1.53747">
        <ele>21.799999237061</ele>
        <time>2019-04-02T09:26:41.000Z</time>
      </trkpt>
      <trkpt lat="47.27266" lon="-1.53751">
        <ele>21.799999237061</ele>
        <time>2019-04-02T09:26:42.000Z</time>
      </trkpt>
      <trkpt lat="47.27266" lon="-1.53751">
        <ele>21.799999237061</ele>
        <time>2019-04-02T09:26:43.000Z</time>
      </trkpt>
      <trkpt lat="47.27267" lon="-1.53752">
        <ele>21.799999237061</ele>
        <time>2019-04-02T09:26:44.000Z</time>
      </trkpt>
      <trkpt lat="47.27269" lon="-1.53756">
        <ele>21.799999237061</ele>
        <time>2019-04-02T09:26:45.000Z</time>
      </trkpt>
      <trkpt lat="47.27269" lon="-1.53756">
        <ele>21.799999237061</ele>
        <time>2019-04-02T09:26:46.000Z</time>
      </trkpt>
      <trkpt lat="47.2727" lon="-1.53757">
        <ele>21.799999237061</ele>
        <time>2019-04-02T09:26:47.000Z</time>
      </trkpt>
      <trkpt lat="47.27271" lon="-1.53761">
        <ele>21.799999237061</ele>
        <time>2019-04-02T09:26:48.000Z</time>
      </trkpt>
      <trkpt lat="47.27271" lon="-1.53761">
        <ele>21.799999237061</ele>
        <time>2019-04-02T09:26:49.000Z</time>
      </trkpt>
      <trkpt lat="47.27273" lon="-1.53765">
        <ele>21.799999237061</ele>
        <time>2019-04-02T09:26:50.000Z</time>
      </trkpt>
      <trkpt lat="47.27273" lon="-1.53765">
        <ele>21.799999237061</ele>
        <time>2019-04-02T09:26:51.000Z</time>
      </trkpt>
      <trkpt lat="47.27274" lon="-1.53767">
        <ele>21.799999237061</ele>
        <time>2019-04-02T09:26:52.000Z</time>
      </trkpt>
      <trkpt lat="47.27276" lon="-1.53771">
        <ele>21.799999237061</ele>
        <time>2019-04-02T09:26:53.000Z</time>
      </trkpt>
      <trkpt lat="47.27276" lon="-1.53771">
        <ele>21.799999237061</ele>
        <time>2019-04-02T09:26:54.000Z</time>
      </trkpt>
      <trkpt lat="47.27277" lon="-1.53772">
        <ele>22</ele>
        <time>2019-04-02T09:26:55.000Z</time>
      </trkpt>
      <trkpt lat="47.27278" lon="-1.53776">
        <ele>22</ele>
        <time>2019-04-02T09:26:56.000Z</time>
      </trkpt>
      <trkpt lat="47.27278" lon="-1.53776">
        <ele>22</ele>
        <time>2019-04-02T09:26:57.000Z</time>
      </trkpt>
      <trkpt lat="47.27279" lon="-1.53778">
        <ele>22</ele>
        <time>2019-04-02T09:26:58.000Z</time>
      </trkpt>
      <trkpt lat="47.27281" lon="-1.53782">
        <ele>22</ele>
        <time>2019-04-02T09:26:59.000Z</time>
      </trkpt>
      <trkpt lat="47.27281" lon="-1.53782">
        <ele>22</ele>
        <time>2019-04-02T09:27:00.000Z</time>
      </trkpt>
      <trkpt lat="47.27282" lon="-1.53783">
        <ele>22</ele>
        <time>2019-04-02T09:27:01.000Z</time>
      </trkpt>
      <trkpt lat="47.27284" lon="-1.53786">
        <ele>22</ele>
        <time>2019-04-02T09:27:02.000Z</time>
      </trkpt>
      <trkpt lat="47.27284" lon="-1.53786">
        <ele>22</ele>
        <time>2019-04-02T09:27:03.000Z</time>
      </trkpt>
      <trkpt lat="47.27286" lon="-1.53789">
        <ele>22</ele>
        <time>2019-04-02T09:27:04.000Z</time>
      </trkpt>
      <trkpt lat="47.27286" lon="-1.53789">
        <ele>22</ele>
        <time>2019-04-02T09:27:05.000Z</time>
      </trkpt>
      <trkpt lat="47.27287" lon="-1.53791">
        <ele>22</ele>
        <time>2019-04-02T09:27:06.000Z</time>
      </trkpt>
      <trkpt lat="47.27288" lon="-1.53794">
        <ele>22</ele>
        <time>2019-04-02T09:27:07.000Z</time>
      </trkpt>
      <trkpt lat="47.27288" lon="-1.53794">
        <ele>22</ele>
        <time>2019-04-02T09:27:08.000Z</time>
      </trkpt>
      <trkpt lat="47.27289" lon="-1.53796">
        <ele>22</ele>
        <time>2019-04-02T09:27:09.000Z</time>
      </trkpt>
      <trkpt lat="47.2729" lon="-1.53799">
        <ele>22</ele>
        <time>2019-04-02T09:27:10.000Z</time>
      </trkpt>
      <trkpt lat="47.2729" lon="-1.53799">
        <ele>22</ele>
        <time>2019-04-02T09:27:11.000Z</time>
      </trkpt>
      <trkpt lat="47.27291" lon="-1.53801">
        <ele>22</ele>
        <time>2019-04-02T09:27:12.000Z</time>
      </trkpt>
      <trkpt lat="47.27292" lon="-1.53805">
        <ele>22</ele>
        <time>2019-04-02T09:27:13.000Z</time>
      </trkpt>
      <trkpt lat="47.27292" lon="-1.53805">
        <ele>22</ele>
        <time>2019-04-02T09:27:14.000Z</time>
      </trkpt>
      <trkpt lat="47.27293" lon="-1.53807">
        <ele>22</ele>
        <time>2019-04-02T09:27:15.000Z</time>
      </trkpt>
      <trkpt lat="47.27294" lon="-1.5381">
        <ele>22</ele>
        <time>2019-04-02T09:27:16.000Z</time>
      </trkpt>
      <trkpt lat="47.27294" lon="-1.5381">
        <ele>22</ele>
        <time>2019-04-02T09:27:17.000Z</time>
      </trkpt>
      <trkpt lat="47.27295" lon="-1.53812">
        <ele>22</ele>
        <time>2019-04-02T09:27:18.000Z</time>
      </trkpt>
      <trkpt lat="47.27296" lon="-1.53816">
        <ele>22</ele>
        <time>2019-04-02T09:27:19.000Z</time>
      </trkpt>
      <trkpt lat="47.27296" lon="-1.53816">
        <ele>22</ele>
        <time>2019-04-02T09:27:20.000Z</time>
      </trkpt>
      <trkpt lat="47.27297" lon="-1.53818">
        <ele>22</ele>
        <time>2019-04-02T09:27:21.000Z</time>
      </trkpt>
      <trkpt lat="47.27298" lon="-1.53822">
        <ele>22.200000762939</ele>
        <time>2019-04-02T09:27:22.000Z</time>
      </trkpt>
      <trkpt lat="47.27298" lon="-1.53822">
        <ele>22.200000762939</ele>
        <time>2019-04-02T09:27:23.000Z</time>
      </trkpt>
      <trkpt lat="47.27299" lon="-1.53824">
        <ele>22.200000762939</ele>
        <time>2019-04-02T09:27:24.000Z</time>
      </trkpt>
      <trkpt lat="47.27301" lon="-1.53828">
        <ele>22.39999961853</ele>
        <time>2019-04-02T09:27:25.000Z</time>
      </trkpt>
      <trkpt lat="47.27301" lon="-1.53828">
        <ele>22.39999961853</ele>
        <time>2019-04-02T09:27:26.000Z</time>
      </trkpt>
      <trkpt lat="47.27302" lon="-1.53829">
        <ele>22.39999961853</ele>
        <time>2019-04-02T09:27:27.000Z</time>
      </trkpt>
      <trkpt lat="47.27303" lon="-1.53833">
        <ele>22.60000038147</ele>
        <time>2019-04-02T09:27:28.000Z</time>
      </trkpt>
      <trkpt lat="47.27303" lon="-1.53833">
        <ele>22.60000038147</ele>
        <time>2019-04-02T09:27:29.000Z</time>
      </trkpt>
      <trkpt lat="47.27304" lon="-1.53835">
        <ele>22.60000038147</ele>
        <time>2019-04-02T09:27:30.000Z</time>
      </trkpt>
      <trkpt lat="47.27305" lon="-1.53839">
        <ele>22.799999237061</ele>
        <time>2019-04-02T09:27:31.000Z</time>
      </trkpt>
      <trkpt lat="47.27305" lon="-1.53839">
        <ele>22.799999237061</ele>
        <time>2019-04-02T09:27:32.000Z</time>
      </trkpt>
      <trkpt lat="47.27307" lon="-1.53842">
        <ele>22.799999237061</ele>
        <time>2019-04-02T09:27:33.000Z</time>
      </trkpt>
      <trkpt lat="47.27307" lon="-1.53842">
        <ele>22.799999237061</ele>
        <time>2019-04-02T09:27:34.000Z</time>
      </trkpt>
      <trkpt lat="47.27307" lon="-1.53844">
        <ele>22.799999237061</ele>
        <time>2019-04-02T09:27:35.000Z</time>
      </trkpt>
      <trkpt lat="47.27309" lon="-1.53848">
        <ele>22.60000038147</ele>
        <time>2019-04-02T09:27:36.000Z</time>
      </trkpt>
      <trkpt lat="47.27309" lon="-1.53848">
        <ele>22.60000038147</ele>
        <time>2019-04-02T09:27:37.000Z</time>
      </trkpt>
      <trkpt lat="47.27309" lon="-1.5385">
        <ele>22.60000038147</ele>
        <time>2019-04-02T09:27:38.000Z</time>
      </trkpt>
      <trkpt lat="47.27311" lon="-1.53853">
        <ele>22.39999961853</ele>
        <time>2019-04-02T09:27:39.000Z</time>
      </trkpt>
      <trkpt lat="47.27311" lon="-1.53853">
        <ele>22.39999961853</ele>
        <time>2019-04-02T09:27:40.000Z</time>
      </trkpt>
      <trkpt lat="47.27312" lon="-1.53857">
        <ele>22.39999961853</ele>
        <time>2019-04-02T09:27:41.000Z</time>
      </trkpt>
      <trkpt lat="47.27312" lon="-1.53857">
        <ele>22.39999961853</ele>
        <time>2019-04-02T09:27:42.000Z</time>
      </trkpt>
      <trkpt lat="47.27313" lon="-1.53858">
        <ele>22.39999961853</ele>
        <time>2019-04-02T09:27:43.000Z</time>
      </trkpt>
      <trkpt lat="47.27314" lon="-1.53862">
        <ele>22.200000762939</ele>
        <time>2019-04-02T09:27:44.000Z</time>
      </trkpt>
      <trkpt lat="47.27314" lon="-1.53862">
        <ele>22.200000762939</ele>
        <time>2019-04-02T09:27:45.000Z</time>
      </trkpt>
      <trkpt lat="47.27315" lon="-1.53864">
        <ele>22.200000762939</ele>
        <time>2019-04-02T09:27:46.000Z</time>
      </trkpt>
      <trkpt lat="47.27316" lon="-1.53867">
        <ele>22</ele>
        <time>2019-04-02T09:27:47.000Z</time>
      </trkpt>
      <trkpt lat="47.27316" lon="-1.53867">
        <ele>22</ele>
        <time>2019-04-02T09:27:48.000Z</time>
      </trkpt>
      <trkpt lat="47.27317" lon="-1.53868">
        <ele>22</ele>
        <time>2019-04-02T09:27:49.000Z</time>
      </trkpt>
      <trkpt lat="47.27317" lon="-1.53873">
        <ele>21.799999237061</ele>
        <time>2019-04-02T09:27:50.000Z</time>
      </trkpt>
      <trkpt lat="47.27317" lon="-1.53873">
        <ele>21.799999237061</ele>
        <time>2019-04-02T09:27:51.000Z</time>
      </trkpt>
      <trkpt lat="47.27318" lon="-1.53875">
        <ele>21.799999237061</ele>
        <time>2019-04-02T09:27:52.000Z</time>
      </trkpt>
      <trkpt lat="47.27319" lon="-1.53878">
        <ele>21.60000038147</ele>
        <time>2019-04-02T09:27:53.000Z</time>
      </trkpt>
      <trkpt lat="47.27319" lon="-1.53878">
        <ele>21.60000038147</ele>
        <time>2019-04-02T09:27:54.000Z</time>
      </trkpt>
      <trkpt lat="47.2732" lon="-1.5388">
        <ele>21.60000038147</ele>
        <time>2019-04-02T09:27:55.000Z</time>
      </trkpt>
      <trkpt lat="47.27321" lon="-1.53884">
        <ele>21.39999961853</ele>
        <time>2019-04-02T09:27:56.000Z</time>
      </trkpt>
      <trkpt lat="47.27321" lon="-1.53884">
        <ele>21.39999961853</ele>
        <time>2019-04-02T09:27:57.000Z</time>
      </trkpt>
      <trkpt lat="47.27322" lon="-1.53888">
        <ele>21.39999961853</ele>
        <time>2019-04-02T09:27:58.000Z</time>
      </trkpt>
      <trkpt lat="47.27322" lon="-1.53888">
        <ele>21.39999961853</ele>
        <time>2019-04-02T09:27:59.000Z</time>
      </trkpt>
      <trkpt lat="47.27323" lon="-1.53889">
        <ele>21.39999961853</ele>
        <time>2019-04-02T09:28:00.000Z</time>
      </trkpt>
      <trkpt lat="47.27324" lon="-1.53893">
        <ele>21.200000762939</ele>
        <time>2019-04-02T09:28:01.000Z</time>
      </trkpt>
      <trkpt lat="47.27325" lon="-1.53894">
        <ele>21.200000762939</ele>
        <time>2019-04-02T09:28:02.000Z</time>
      </trkpt>
      <trkpt lat="47.27325" lon="-1.53894">
        <ele>21.200000762939</ele>
        <time>2019-04-02T09:28:03.000Z</time>
      </trkpt>
      <trkpt lat="47.27326" lon="-1.53898">
        <ele>21</ele>
        <time>2019-04-02T09:28:04.000Z</time>
      </trkpt>
      <trkpt lat="47.27326" lon="-1.53898">
        <ele>21</ele>
        <time>2019-04-02T09:28:05.000Z</time>
      </trkpt>
      <trkpt lat="47.27327" lon="-1.539">
        <ele>21</ele>
        <time>2019-04-02T09:28:06.000Z</time>
      </trkpt>
      <trkpt lat="47.27329" lon="-1.53904">
        <ele>21</ele>
        <time>2019-04-02T09:28:07.000Z</time>
      </trkpt>
      <trkpt lat="47.27329" lon="-1.53904">
        <ele>21</ele>
        <time>2019-04-02T09:28:08.000Z</time>
      </trkpt>
      <trkpt lat="47.2733" lon="-1.53907">
        <ele>21.200000762939</ele>
        <time>2019-04-02T09:28:09.000Z</time>
      </trkpt>
      <trkpt lat="47.27332" lon="-1.53911">
        <ele>21.200000762939</ele>
        <time>2019-04-02T09:28:10.000Z</time>
      </trkpt>
      <trkpt lat="47.27332" lon="-1.53911">
        <ele>21.200000762939</ele>
        <time>2019-04-02T09:28:11.000Z</time>
      </trkpt>
      <trkpt lat="47.27332" lon="-1.53913">
        <ele>21.200000762939</ele>
        <time>2019-04-02T09:28:12.000Z</time>
      </trkpt>
      <trkpt lat="47.27334" lon="-1.53917">
        <ele>21.39999961853</ele>
        <time>2019-04-02T09:28:13.000Z</time>
      </trkpt>
      <trkpt lat="47.27334" lon="-1.53917">
        <ele>21.39999961853</ele>
        <time>2019-04-02T09:28:14.000Z</time>
      </trkpt>
      <trkpt lat="47.27335" lon="-1.53919">
        <ele>21.39999961853</ele>
        <time>2019-04-02T09:28:15.000Z</time>
      </trkpt>
      <trkpt lat="47.27337" lon="-1.53923">
        <ele>21.39999961853</ele>
        <time>2019-04-02T09:28:16.000Z</time>
      </trkpt>
      <trkpt lat="47.27337" lon="-1.53925">
        <ele>21.39999961853</ele>
        <time>2019-04-02T09:28:17.000Z</time>
      </trkpt>
      <trkpt lat="47.27337" lon="-1.53925">
        <ele>21.39999961853</ele>
        <time>2019-04-02T09:28:18.000Z</time>
      </trkpt>
      <trkpt lat="47.27338" lon="-1.53927">
        <ele>21.60000038147</ele>
        <time>2019-04-02T09:28:19.000Z</time>
      </trkpt>
      <trkpt lat="47.2734" lon="-1.5393">
        <ele>21.60000038147</ele>
        <time>2019-04-02T09:28:20.000Z</time>
      </trkpt>
      <trkpt lat="47.2734" lon="-1.5393">
        <ele>21.60000038147</ele>
        <time>2019-04-02T09:28:21.000Z</time>
      </trkpt>
      <trkpt lat="47.27341" lon="-1.53932">
        <ele>21.60000038147</ele>
        <time>2019-04-02T09:28:22.000Z</time>
      </trkpt>
      <trkpt lat="47.27343" lon="-1.53936">
        <ele>21.60000038147</ele>
        <time>2019-04-02T09:28:23.000Z</time>
      </trkpt>
      <trkpt lat="47.27343" lon="-1.53936">
        <ele>21.60000038147</ele>
        <time>2019-04-02T09:28:24.000Z</time>
      </trkpt>
      <trkpt lat="47.27344" lon="-1.53937">
        <ele>21.799999237061</ele>
        <time>2019-04-02T09:28:25.000Z</time>
      </trkpt>
      <trkpt lat="47.27345" lon="-1.53941">
        <ele>21.799999237061</ele>
        <time>2019-04-02T09:28:26.000Z</time>
      </trkpt>
      <trkpt lat="47.27345" lon="-1.53941">
        <ele>21.799999237061</ele>
        <time>2019-04-02T09:28:27.000Z</time>
      </trkpt>
      <trkpt lat="47.27346" lon="-1.53942">
        <ele>21.799999237061</ele>
        <time>2019-04-02T09:28:28.000Z</time>
      </trkpt>
      <trkpt lat="47.27348" lon="-1.53946">
        <ele>21.799999237061</ele>
        <time>2019-04-02T09:28:29.000Z</time>
      </trkpt>
      <trkpt lat="47.27348" lon="-1.53946">
        <ele>21.799999237061</ele>
        <time>2019-04-02T09:28:30.000Z</time>
      </trkpt>
      <trkpt lat="47.27349" lon="-1.53948">
        <ele>21.799999237061</ele>
        <time>2019-04-02T09:28:31.000Z</time>
      </trkpt>
      <trkpt lat="47.27351" lon="-1.53951">
        <ele>22</ele>
        <time>2019-04-02T09:28:32.000Z</time>
      </trkpt>
      <trkpt lat="47.27351" lon="-1.53951">
        <ele>22</ele>
        <time>2019-04-02T09:28:33.000Z</time>
      </trkpt>
      <trkpt lat="47.27351" lon="-1.53953">
        <ele>22</ele>
        <time>2019-04-02T09:28:34.000Z</time>
      </trkpt>
      <trkpt lat="47.27353" lon="-1.53957">
        <ele>22</ele>
        <time>2019-04-02T09:28:35.000Z</time>
      </trkpt>
      <trkpt lat="47.27353" lon="-1.53957">
        <ele>22</ele>
        <time>2019-04-02T09:28:36.000Z</time>
      </trkpt>
      <trkpt lat="47.27353" lon="-1.53959">
        <ele>22.200000762939</ele>
        <time>2019-04-02T09:28:37.000Z</time>
      </trkpt>
      <trkpt lat="47.27355" lon="-1.53962">
        <ele>22.200000762939</ele>
        <time>2019-04-02T09:28:38.000Z</time>
      </trkpt>
      <trkpt lat="47.27355" lon="-1.53962">
        <ele>22.200000762939</ele>
        <time>2019-04-02T09:28:39.000Z</time>
      </trkpt>
      <trkpt lat="47.27356" lon="-1.53965">
        <ele>22.200000762939</ele>
        <time>2019-04-02T09:28:40.000Z</time>
      </trkpt>
      <trkpt lat="47.27356" lon="-1.53965">
        <ele>22.200000762939</ele>
        <time>2019-04-02T09:28:41.000Z</time>
      </trkpt>
      <trkpt lat="47.27358" lon="-1.53968">
        <ele>22.200000762939</ele>
        <time>2019-04-02T09:28:42.000Z</time>
      </trkpt>
      <trkpt lat="47.27358" lon="-1.53968">
        <ele>22.200000762939</ele>
        <time>2019-04-02T09:28:43.000Z</time>
      </trkpt>
      <trkpt lat="47.27359" lon="-1.53969">
        <ele>22.200000762939</ele>
        <time>2019-04-02T09:28:44.000Z</time>
      </trkpt>
      <trkpt lat="47.27361" lon="-1.53972">
        <ele>22.39999961853</ele>
        <time>2019-04-02T09:28:45.000Z</time>
      </trkpt>
      <trkpt lat="47.27361" lon="-1.53972">
        <ele>22.39999961853</ele>
        <time>2019-04-02T09:28:46.000Z</time>
      </trkpt>
      <trkpt lat="47.27361" lon="-1.53974">
        <ele>22.39999961853</ele>
        <time>2019-04-02T09:28:47.000Z</time>
      </trkpt>
      <trkpt lat="47.27363" lon="-1.53977">
        <ele>22.39999961853</ele>
        <time>2019-04-02T09:28:48.000Z</time>
      </trkpt>
      <trkpt lat="47.27363" lon="-1.53977">
        <ele>22.39999961853</ele>
        <time>2019-04-02T09:28:49.000Z</time>
      </trkpt>
      <trkpt lat="47.27364" lon="-1.53979">
        <ele>22.39999961853</ele>
        <time>2019-04-02T09:28:50.000Z</time>
      </trkpt>
      <trkpt lat="47.27365" lon="-1.53983">
        <ele>22.60000038147</ele>
        <time>2019-04-02T09:28:51.000Z</time>
      </trkpt>
      <trkpt lat="47.27365" lon="-1.53983">
        <ele>22.60000038147</ele>
        <time>2019-04-02T09:28:52.000Z</time>
      </trkpt>
      <trkpt lat="47.27366" lon="-1.53985">
        <ele>22.60000038147</ele>
        <time>2019-04-02T09:28:53.000Z</time>
      </trkpt>
      <trkpt lat="47.27368" lon="-1.53988">
        <ele>22.39999961853</ele>
        <time>2019-04-02T09:28:54.000Z</time>
      </trkpt>
      <trkpt lat="47.27368" lon="-1.53988">
        <ele>22.39999961853</ele>
        <time>2019-04-02T09:28:55.000Z</time>
      </trkpt>
      <trkpt lat="47.27369" lon="-1.5399">
        <ele>22.39999961853</ele>
        <time>2019-04-02T09:28:56.000Z</time>
      </trkpt>
      <trkpt lat="47.27371" lon="-1.53993">
        <ele>22.39999961853</ele>
        <time>2019-04-02T09:28:57.000Z</time>
      </trkpt>
      <trkpt lat="47.27371" lon="-1.53993">
        <ele>22.39999961853</ele>
        <time>2019-04-02T09:28:58.000Z</time>
      </trkpt>
      <trkpt lat="47.27371" lon="-1.53995">
        <ele>22.39999961853</ele>
        <time>2019-04-02T09:28:59.000Z</time>
      </trkpt>
      <trkpt lat="47.27373" lon="-1.53999">
        <ele>22.200000762939</ele>
        <time>2019-04-02T09:29:00.000Z</time>
      </trkpt>
      <trkpt lat="47.27373" lon="-1.53999">
        <ele>22.200000762939</ele>
        <time>2019-04-02T09:29:01.000Z</time>
      </trkpt>
      <trkpt lat="47.27374" lon="-1.54001">
        <ele>22.200000762939</ele>
        <time>2019-04-02T09:29:02.000Z</time>
      </trkpt>
      <trkpt lat="47.27375" lon="-1.54004">
        <ele>22.200000762939</ele>
        <time>2019-04-02T09:29:03.000Z</time>
      </trkpt>
      <trkpt lat="47.27375" lon="-1.54004">
        <ele>22.200000762939</ele>
        <time>2019-04-02T09:29:04.000Z</time>
      </trkpt>
      <trkpt lat="47.27376" lon="-1.54006">
        <ele>22.200000762939</ele>
        <time>2019-04-02T09:29:05.000Z</time>
      </trkpt>
      <trkpt lat="47.27378" lon="-1.5401">
        <ele>22.200000762939</ele>
        <time>2019-04-02T09:29:06.000Z</time>
      </trkpt>
      <trkpt lat="47.27378" lon="-1.5401">
        <ele>22.200000762939</ele>
        <time>2019-04-02T09:29:07.000Z</time>
      </trkpt>
      <trkpt lat="47.27378" lon="-1.54012">
        <ele>22</ele>
        <time>2019-04-02T09:29:08.000Z</time>
      </trkpt>
      <trkpt lat="47.27379" lon="-1.54015">
        <ele>22</ele>
        <time>2019-04-02T09:29:09.000Z</time>
      </trkpt>
      <trkpt lat="47.27379" lon="-1.54015">
        <ele>22</ele>
        <time>2019-04-02T09:29:10.000Z</time>
      </trkpt>
      <trkpt lat="47.2738" lon="-1.54017">
        <ele>22</ele>
        <time>2019-04-02T09:29:11.000Z</time>
      </trkpt>
      <trkpt lat="47.27382" lon="-1.5402">
        <ele>22.200000762939</ele>
        <time>2019-04-02T09:29:12.000Z</time>
      </trkpt>
      <trkpt lat="47.27382" lon="-1.5402">
        <ele>22.200000762939</ele>
        <time>2019-04-02T09:29:13.000Z</time>
      </trkpt>
      <trkpt lat="47.27383" lon="-1.54022">
        <ele>22.200000762939</ele>
        <time>2019-04-02T09:29:14.000Z</time>
      </trkpt>
      <trkpt lat="47.27384" lon="-1.54025">
        <ele>22.200000762939</ele>
        <time>2019-04-02T09:29:15.000Z</time>
      </trkpt>
      <trkpt lat="47.27384" lon="-1.54025">
        <ele>22.200000762939</ele>
        <time>2019-04-02T09:29:16.000Z</time>
      </trkpt>
      <trkpt lat="47.27385" lon="-1.54026">
        <ele>22.39999961853</ele>
        <time>2019-04-02T09:29:17.000Z</time>
      </trkpt>
      <trkpt lat="47.27386" lon="-1.5403">
        <ele>22.39999961853</ele>
        <time>2019-04-02T09:29:18.000Z</time>
      </trkpt>
      <trkpt lat="47.27386" lon="-1.5403">
        <ele>22.39999961853</ele>
        <time>2019-04-02T09:29:19.000Z</time>
      </trkpt>
      <trkpt lat="47.27387" lon="-1.54031">
        <ele>22.60000038147</ele>
        <time>2019-04-02T09:29:20.000Z</time>
      </trkpt>
      <trkpt lat="47.27388" lon="-1.54034">
        <ele>22.60000038147</ele>
        <time>2019-04-02T09:29:21.000Z</time>
      </trkpt>
      <trkpt lat="47.27388" lon="-1.54034">
        <ele>22.60000038147</ele>
        <time>2019-04-02T09:29:22.000Z</time>
      </trkpt>
      <trkpt lat="47.27389" lon="-1.54035">
        <ele>22.60000038147</ele>
        <time>2019-04-02T09:29:23.000Z</time>
      </trkpt>
      <trkpt lat="47.2739" lon="-1.54038">
        <ele>22.799999237061</ele>
        <time>2019-04-02T09:29:24.000Z</time>
      </trkpt>
      <trkpt lat="47.2739" lon="-1.54038">
        <ele>22.799999237061</ele>
        <time>2019-04-02T09:29:25.000Z</time>
      </trkpt>
      <trkpt lat="47.27391" lon="-1.54039">
        <ele>22.799999237061</ele>
        <time>2019-04-02T09:29:26.000Z</time>
      </trkpt>
      <trkpt lat="47.27392" lon="-1.54042">
        <ele>23</ele>
        <time>2019-04-02T09:29:27.000Z</time>
      </trkpt>
      <trkpt lat="47.27392" lon="-1.54042">
        <ele>23</ele>
        <time>2019-04-02T09:29:28.000Z</time>
      </trkpt>
      <trkpt lat="47.27394" lon="-1.54045">
        <ele>23</ele>
        <time>2019-04-02T09:29:29.000Z</time>
      </trkpt>
      <trkpt lat="47.27394" lon="-1.54045">
        <ele>23</ele>
        <time>2019-04-02T09:29:30.000Z</time>
      </trkpt>
      <trkpt lat="47.27394" lon="-1.54046">
        <ele>23</ele>
        <time>2019-04-02T09:29:31.000Z</time>
      </trkpt>
      <trkpt lat="47.27395" lon="-1.54049">
        <ele>23.200000762939</ele>
        <time>2019-04-02T09:29:32.000Z</time>
      </trkpt>
      <trkpt lat="47.27395" lon="-1.54049">
        <ele>23.200000762939</ele>
        <time>2019-04-02T09:29:33.000Z</time>
      </trkpt>
      <trkpt lat="47.27396" lon="-1.5405">
        <ele>23.200000762939</ele>
        <time>2019-04-02T09:29:34.000Z</time>
      </trkpt>
      <trkpt lat="47.27398" lon="-1.54053">
        <ele>23.200000762939</ele>
        <time>2019-04-02T09:29:35.000Z</time>
      </trkpt>
      <trkpt lat="47.27398" lon="-1.54054">
        <ele>23.39999961853</ele>
        <time>2019-04-02T09:29:36.000Z</time>
      </trkpt>
      <trkpt lat="47.27398" lon="-1.54054">
        <ele>23.39999961853</ele>
        <time>2019-04-02T09:29:37.000Z</time>
      </trkpt>
      <trkpt lat="47.27399" lon="-1.54056">
        <ele>23.39999961853</ele>
        <time>2019-04-02T09:29:38.000Z</time>
      </trkpt>
      <trkpt lat="47.274" lon="-1.54057">
        <ele>23.39999961853</ele>
        <time>2019-04-02T09:29:39.000Z</time>
      </trkpt>
      <trkpt lat="47.27401" lon="-1.54059">
        <ele>23.60000038147</ele>
        <time>2019-04-02T09:29:40.000Z</time>
      </trkpt>
      <trkpt lat="47.27401" lon="-1.54059">
        <ele>23.60000038147</ele>
        <time>2019-04-02T09:29:41.000Z</time>
      </trkpt>
      <trkpt lat="47.27403" lon="-1.54063">
        <ele>23.60000038147</ele>
        <time>2019-04-02T09:29:42.000Z</time>
      </trkpt>
      <trkpt lat="47.27403" lon="-1.54063">
        <ele>23.60000038147</ele>
        <time>2019-04-02T09:29:43.000Z</time>
      </trkpt>
      <trkpt lat="47.27404" lon="-1.54064">
        <ele>23.799999237061</ele>
        <time>2019-04-02T09:29:44.000Z</time>
      </trkpt>
      <trkpt lat="47.27405" lon="-1.54067">
        <ele>23.799999237061</ele>
        <time>2019-04-02T09:29:45.000Z</time>
      </trkpt>
      <trkpt lat="47.27405" lon="-1.54067">
        <ele>23.799999237061</ele>
        <time>2019-04-02T09:29:46.000Z</time>
      </trkpt>
      <trkpt lat="47.27406" lon="-1.54068">
        <ele>23.799999237061</ele>
        <time>2019-04-02T09:29:47.000Z</time>
      </trkpt>
      <trkpt lat="47.27408" lon="-1.54072">
        <ele>23.799999237061</ele>
        <time>2019-04-02T09:29:48.000Z</time>
      </trkpt>
      <trkpt lat="47.27408" lon="-1.54072">
        <ele>23.799999237061</ele>
        <time>2019-04-02T09:29:49.000Z</time>
      </trkpt>
      <trkpt lat="47.27408" lon="-1.54073">
        <ele>23.799999237061</ele>
        <time>2019-04-02T09:29:50.000Z</time>
      </trkpt>
      <trkpt lat="47.27409" lon="-1.54076">
        <ele>24</ele>
        <time>2019-04-02T09:29:51.000Z</time>
      </trkpt>
      <trkpt lat="47.27409" lon="-1.54076">
        <ele>24</ele>
        <time>2019-04-02T09:29:52.000Z</time>
      </trkpt>
      <trkpt lat="47.2741" lon="-1.54078">
        <ele>24</ele>
        <time>2019-04-02T09:29:53.000Z</time>
      </trkpt>
      <trkpt lat="47.27411" lon="-1.54081">
        <ele>24.200000762939</ele>
        <time>2019-04-02T09:29:54.000Z</time>
      </trkpt>
      <trkpt lat="47.27411" lon="-1.54081">
        <ele>24.200000762939</ele>
        <time>2019-04-02T09:29:55.000Z</time>
      </trkpt>
      <trkpt lat="47.27412" lon="-1.54082">
        <ele>24.200000762939</ele>
        <time>2019-04-02T09:29:56.000Z</time>
      </trkpt>
      <trkpt lat="47.27414" lon="-1.54085">
        <ele>24.200000762939</ele>
        <time>2019-04-02T09:29:57.000Z</time>
      </trkpt>
      <trkpt lat="47.27414" lon="-1.54085">
        <ele>24.200000762939</ele>
        <time>2019-04-02T09:29:58.000Z</time>
      </trkpt>
      <trkpt lat="47.27414" lon="-1.54087">
        <ele>24.200000762939</ele>
        <time>2019-04-02T09:29:59.000Z</time>
      </trkpt>
      <trkpt lat="47.27415" lon="-1.5409">
        <ele>24.200000762939</ele>
        <time>2019-04-02T09:30:00.000Z</time>
      </trkpt>
      <trkpt lat="47.27415" lon="-1.5409">
        <ele>24.200000762939</ele>
        <time>2019-04-02T09:30:01.000Z</time>
      </trkpt>
      <trkpt lat="47.27416" lon="-1.54092">
        <ele>24.39999961853</ele>
        <time>2019-04-02T09:30:02.000Z</time>
      </trkpt>
      <trkpt lat="47.27417" lon="-1.54095">
        <ele>24.39999961853</ele>
        <time>2019-04-02T09:30:03.000Z</time>
      </trkpt>
      <trkpt lat="47.27417" lon="-1.54095">
        <ele>24.39999961853</ele>
        <time>2019-04-02T09:30:04.000Z</time>
      </trkpt>
      <trkpt lat="47.27418" lon="-1.54096">
        <ele>24.39999961853</ele>
        <time>2019-04-02T09:30:05.000Z</time>
      </trkpt>
      <trkpt lat="47.27418" lon="-1.541">
        <ele>24.39999961853</ele>
        <time>2019-04-02T09:30:06.000Z</time>
      </trkpt>
      <trkpt lat="47.27418" lon="-1.541">
        <ele>24.39999961853</ele>
        <time>2019-04-02T09:30:07.000Z</time>
      </trkpt>
      <trkpt lat="47.27419" lon="-1.54102">
        <ele>24.39999961853</ele>
        <time>2019-04-02T09:30:08.000Z</time>
      </trkpt>
      <trkpt lat="47.2742" lon="-1.54105">
        <ele>24.60000038147</ele>
        <time>2019-04-02T09:30:09.000Z</time>
      </trkpt>
      <trkpt lat="47.2742" lon="-1.54105">
        <ele>24.60000038147</ele>
        <time>2019-04-02T09:30:10.000Z</time>
      </trkpt>
      <trkpt lat="47.27421" lon="-1.54106">
        <ele>24.60000038147</ele>
        <time>2019-04-02T09:30:11.000Z</time>
      </trkpt>
      <trkpt lat="47.27422" lon="-1.54109">
        <ele>24.60000038147</ele>
        <time>2019-04-02T09:30:12.000Z</time>
      </trkpt>
      <trkpt lat="47.27422" lon="-1.54109">
        <ele>24.60000038147</ele>
        <time>2019-04-02T09:30:13.000Z</time>
      </trkpt>
      <trkpt lat="47.27423" lon="-1.54111">
        <ele>24.60000038147</ele>
        <time>2019-04-02T09:30:14.000Z</time>
      </trkpt>
      <trkpt lat="47.27424" lon="-1.54113">
        <ele>24.60000038147</ele>
        <time>2019-04-02T09:30:15.000Z</time>
      </trkpt>
      <trkpt lat="47.27424" lon="-1.54114">
        <ele>24.60000038147</ele>
        <time>2019-04-02T09:30:16.000Z</time>
      </trkpt>
      <trkpt lat="47.27424" lon="-1.54114">
        <ele>24.60000038147</ele>
        <time>2019-04-02T09:30:17.000Z</time>
      </trkpt>
      <trkpt lat="47.27425" lon="-1.54115">
        <ele>24.799999237061</ele>
        <time>2019-04-02T09:30:18.000Z</time>
      </trkpt>
      <trkpt lat="47.27425" lon="-1.54117">
        <ele>24.799999237061</ele>
        <time>2019-04-02T09:30:19.000Z</time>
      </trkpt>
      <trkpt lat="47.27425" lon="-1.54117">
        <ele>24.799999237061</ele>
        <time>2019-04-02T09:30:20.000Z</time>
      </trkpt>
      <trkpt lat="47.27426" lon="-1.54118">
        <ele>24.799999237061</ele>
        <time>2019-04-02T09:30:21.000Z</time>
      </trkpt>
      <trkpt lat="47.27426" lon="-1.54119">
        <ele>24.799999237061</ele>
        <time>2019-04-02T09:30:22.000Z</time>
      </trkpt>
      <trkpt lat="47.27426" lon="-1.54119">
        <ele>24.799999237061</ele>
        <time>2019-04-02T09:30:23.000Z</time>
      </trkpt>
      <trkpt lat="47.27429" lon="-1.54136">
        <ele>25</ele>
        <time>2019-04-02T09:30:43.000Z</time>
      </trkpt>
      <trkpt lat="47.27429" lon="-1.54137">
        <ele>25</ele>
        <time>2019-04-02T09:30:44.000Z</time>
      </trkpt>
      <trkpt lat="47.2743" lon="-1.54139">
        <ele>25</ele>
        <time>2019-04-02T09:30:45.000Z</time>
      </trkpt>
      <trkpt lat="47.27431" lon="-1.54141">
        <ele>25</ele>
        <time>2019-04-02T09:30:46.000Z</time>
      </trkpt>
      <trkpt lat="47.27431" lon="-1.54143">
        <ele>25</ele>
        <time>2019-04-02T09:30:47.000Z</time>
      </trkpt>
      <trkpt lat="47.27432" lon="-1.54145">
        <ele>25</ele>
        <time>2019-04-02T09:30:48.000Z</time>
      </trkpt>
      <trkpt lat="47.27432" lon="-1.54147">
        <ele>25</ele>
        <time>2019-04-02T09:30:49.000Z</time>
      </trkpt>
      <trkpt lat="47.27433" lon="-1.54148">
        <ele>25</ele>
        <time>2019-04-02T09:30:50.000Z</time>
      </trkpt>
      <trkpt lat="47.27433" lon="-1.5415">
        <ele>25</ele>
        <time>2019-04-02T09:30:51.000Z</time>
      </trkpt>
      <trkpt lat="47.27434" lon="-1.54152">
        <ele>25</ele>
        <time>2019-04-02T09:30:52.000Z</time>
      </trkpt>
      <trkpt lat="47.27435" lon="-1.54155">
        <ele>25</ele>
        <time>2019-04-02T09:30:53.000Z</time>
      </trkpt>
      <trkpt lat="47.27435" lon="-1.54157">
        <ele>25.200000762939</ele>
        <time>2019-04-02T09:30:54.000Z</time>
      </trkpt>
      <trkpt lat="47.27436" lon="-1.54159">
        <ele>25.200000762939</ele>
        <time>2019-04-02T09:30:55.000Z</time>
      </trkpt>
      <trkpt lat="47.27437" lon="-1.54161">
        <ele>25.200000762939</ele>
        <time>2019-04-02T09:30:56.000Z</time>
      </trkpt>
      <trkpt lat="47.27437" lon="-1.54163">
        <ele>25.200000762939</ele>
        <time>2019-04-02T09:30:57.000Z</time>
      </trkpt>
      <trkpt lat="47.27438" lon="-1.54165">
        <ele>25.39999961853</ele>
        <time>2019-04-02T09:30:58.000Z</time>
      </trkpt>
      <trkpt lat="47.27439" lon="-1.54167">
        <ele>25.39999961853</ele>
        <time>2019-04-02T09:30:59.000Z</time>
      </trkpt>
      <trkpt lat="47.27439" lon="-1.54171">
        <ele>25.39999961853</ele>
        <time>2019-04-02T09:31:00.000Z</time>
      </trkpt>
      <trkpt lat="47.27439" lon="-1.54171">
        <ele>25.39999961853</ele>
        <time>2019-04-02T09:31:01.000Z</time>
      </trkpt>
      <trkpt lat="47.2744" lon="-1.54173">
        <ele>25.60000038147</ele>
        <time>2019-04-02T09:31:02.000Z</time>
      </trkpt>
      <trkpt lat="47.2744" lon="-1.54175">
        <ele>25.60000038147</ele>
        <time>2019-04-02T09:31:03.000Z</time>
      </trkpt>
      <trkpt lat="47.2744" lon="-1.54177">
        <ele>25.60000038147</ele>
        <time>2019-04-02T09:31:04.000Z</time>
      </trkpt>
      <trkpt lat="47.27441" lon="-1.54179">
        <ele>25.60000038147</ele>
        <time>2019-04-02T09:31:05.000Z</time>
      </trkpt>
      <trkpt lat="47.27442" lon="-1.54181">
        <ele>25.799999237061</ele>
        <time>2019-04-02T09:31:06.000Z</time>
      </trkpt>
      <trkpt lat="47.27442" lon="-1.54183">
        <ele>25.799999237061</ele>
        <time>2019-04-02T09:31:07.000Z</time>
      </trkpt>
      <trkpt lat="47.27443" lon="-1.54185">
        <ele>25.799999237061</ele>
        <time>2019-04-02T09:31:08.000Z</time>
      </trkpt>
      <trkpt lat="47.27443" lon="-1.54186">
        <ele>25.799999237061</ele>
        <time>2019-04-02T09:31:09.000Z</time>
      </trkpt>
      <trkpt lat="47.27444" lon="-1.54188">
        <ele>26</ele>
        <time>2019-04-02T09:31:10.000Z</time>
      </trkpt>
      <trkpt lat="47.27445" lon="-1.54192">
        <ele>26</ele>
        <time>2019-04-02T09:31:11.000Z</time>
      </trkpt>
      <trkpt lat="47.27445" lon="-1.54192">
        <ele>26</ele>
        <time>2019-04-02T09:31:12.000Z</time>
      </trkpt>
      <trkpt lat="47.27445" lon="-1.54194">
        <ele>26</ele>
        <time>2019-04-02T09:31:13.000Z</time>
      </trkpt>
      <trkpt lat="47.27446" lon="-1.54196">
        <ele>26</ele>
        <time>2019-04-02T09:31:14.000Z</time>
      </trkpt>
      <trkpt lat="47.27447" lon="-1.54198">
        <ele>26.200000762939</ele>
        <time>2019-04-02T09:31:15.000Z</time>
      </trkpt>
      <trkpt lat="47.27447" lon="-1.542">
        <ele>26.200000762939</ele>
        <time>2019-04-02T09:31:16.000Z</time>
      </trkpt>
      <trkpt lat="47.27448" lon="-1.54201">
        <ele>26.200000762939</ele>
        <time>2019-04-02T09:31:17.000Z</time>
      </trkpt>
      <trkpt lat="47.27449" lon="-1.54203">
        <ele>26.39999961853</ele>
        <time>2019-04-02T09:31:18.000Z</time>
      </trkpt>
      <trkpt lat="47.27449" lon="-1.54205">
        <ele>26.39999961853</ele>
        <time>2019-04-02T09:31:19.000Z</time>
      </trkpt>
      <trkpt lat="47.2745" lon="-1.54207">
        <ele>26.39999961853</ele>
        <time>2019-04-02T09:31:20.000Z</time>
      </trkpt>
      <trkpt lat="47.2745" lon="-1.54209">
        <ele>26.60000038147</ele>
        <time>2019-04-02T09:31:21.000Z</time>
      </trkpt>
      <trkpt lat="47.27451" lon="-1.5421">
        <ele>26.60000038147</ele>
        <time>2019-04-02T09:31:22.000Z</time>
      </trkpt>
      <trkpt lat="47.27452" lon="-1.54214">
        <ele>26.799999237061</ele>
        <time>2019-04-02T09:31:23.000Z</time>
      </trkpt>
      <trkpt lat="47.27452" lon="-1.54214">
        <ele>26.799999237061</ele>
        <time>2019-04-02T09:31:24.000Z</time>
      </trkpt>
      <trkpt lat="47.27453" lon="-1.54215">
        <ele>26.799999237061</ele>
        <time>2019-04-02T09:31:25.000Z</time>
      </trkpt>
      <trkpt lat="47.27453" lon="-1.54217">
        <ele>26.799999237061</ele>
        <time>2019-04-02T09:31:26.000Z</time>
      </trkpt>
      <trkpt lat="47.27453" lon="-1.54219">
        <ele>27</ele>
        <time>2019-04-02T09:31:27.000Z</time>
      </trkpt>
      <trkpt lat="47.27454" lon="-1.54221">
        <ele>27</ele>
        <time>2019-04-02T09:31:28.000Z</time>
      </trkpt>
      <trkpt lat="47.27454" lon="-1.54223">
        <ele>27</ele>
        <time>2019-04-02T09:31:29.000Z</time>
      </trkpt>
      <trkpt lat="47.27455" lon="-1.54224">
        <ele>27.200000762939</ele>
        <time>2019-04-02T09:31:30.000Z</time>
      </trkpt>
      <trkpt lat="47.27455" lon="-1.54228">
        <ele>27.200000762939</ele>
        <time>2019-04-02T09:31:31.000Z</time>
      </trkpt>
      <trkpt lat="47.27455" lon="-1.54228">
        <ele>27.200000762939</ele>
        <time>2019-04-02T09:31:32.000Z</time>
      </trkpt>
      <trkpt lat="47.27455" lon="-1.5423">
        <ele>27.39999961853</ele>
        <time>2019-04-02T09:31:33.000Z</time>
      </trkpt>
      <trkpt lat="47.27456" lon="-1.54231">
        <ele>27.39999961853</ele>
        <time>2019-04-02T09:31:34.000Z</time>
      </trkpt>
      <trkpt lat="47.27456" lon="-1.54233">
        <ele>27.39999961853</ele>
        <time>2019-04-02T09:31:35.000Z</time>
      </trkpt>
      <trkpt lat="47.27457" lon="-1.54235">
        <ele>27.60000038147</ele>
        <time>2019-04-02T09:31:36.000Z</time>
      </trkpt>
      <trkpt lat="47.27457" lon="-1.54238">
        <ele>27.60000038147</ele>
        <time>2019-04-02T09:31:37.000Z</time>
      </trkpt>
      <trkpt lat="47.27458" lon="-1.5424">
        <ele>27.60000038147</ele>
        <time>2019-04-02T09:31:38.000Z</time>
      </trkpt>
      <trkpt lat="47.27459" lon="-1.54243">
        <ele>27.60000038147</ele>
        <time>2019-04-02T09:31:39.000Z</time>
      </trkpt>
      <trkpt lat="47.2746" lon="-1.54246">
        <ele>27.799999237061</ele>
        <time>2019-04-02T09:31:40.000Z</time>
      </trkpt>
      <trkpt lat="47.27461" lon="-1.54248">
        <ele>27.799999237061</ele>
        <time>2019-04-02T09:31:41.000Z</time>
      </trkpt>
      <trkpt lat="47.27463" lon="-1.54253">
        <ele>27.799999237061</ele>
        <time>2019-04-02T09:31:42.000Z</time>
      </trkpt>
      <trkpt lat="47.27463" lon="-1.54253">
        <ele>27.799999237061</ele>
        <time>2019-04-02T09:31:43.000Z</time>
      </trkpt>
      <trkpt lat="47.27464" lon="-1.54255">
        <ele>27.799999237061</ele>
        <time>2019-04-02T09:31:44.000Z</time>
      </trkpt>
      <trkpt lat="47.27465" lon="-1.54258">
        <ele>28</ele>
        <time>2019-04-02T09:31:45.000Z</time>
      </trkpt>
      <trkpt lat="47.27466" lon="-1.54261">
        <ele>28</ele>
        <time>2019-04-02T09:31:46.000Z</time>
      </trkpt>
      <trkpt lat="47.27466" lon="-1.54263">
        <ele>28</ele>
        <time>2019-04-02T09:31:47.000Z</time>
      </trkpt>
      <trkpt lat="47.27467" lon="-1.54265">
        <ele>28</ele>
        <time>2019-04-02T09:31:48.000Z</time>
      </trkpt>
      <trkpt lat="47.27467" lon="-1.54267">
        <ele>28</ele>
        <time>2019-04-02T09:31:49.000Z</time>
      </trkpt>
      <trkpt lat="47.27468" lon="-1.54269">
        <ele>28</ele>
        <time>2019-04-02T09:31:50.000Z</time>
      </trkpt>
      <trkpt lat="47.27469" lon="-1.54273">
        <ele>28.200000762939</ele>
        <time>2019-04-02T09:31:51.000Z</time>
      </trkpt>
      <trkpt lat="47.27469" lon="-1.54273">
        <ele>28.200000762939</ele>
        <time>2019-04-02T09:31:52.000Z</time>
      </trkpt>
      <trkpt lat="47.2747" lon="-1.54275">
        <ele>28.200000762939</ele>
        <time>2019-04-02T09:31:53.000Z</time>
      </trkpt>
      <trkpt lat="47.2747" lon="-1.54277">
        <ele>28.200000762939</ele>
        <time>2019-04-02T09:31:54.000Z</time>
      </trkpt>
      <trkpt lat="47.27471" lon="-1.54279">
        <ele>28.200000762939</ele>
        <time>2019-04-02T09:31:55.000Z</time>
      </trkpt>
      <trkpt lat="47.27471" lon="-1.54282">
        <ele>28.200000762939</ele>
        <time>2019-04-02T09:31:56.000Z</time>
      </trkpt>
      <trkpt lat="47.27471" lon="-1.54284">
        <ele>28.200000762939</ele>
        <time>2019-04-02T09:31:57.000Z</time>
      </trkpt>
      <trkpt lat="47.27471" lon="-1.54286">
        <ele>28.39999961853</ele>
        <time>2019-04-02T09:31:58.000Z</time>
      </trkpt>
      <trkpt lat="47.27472" lon="-1.54288">
        <ele>28.39999961853</ele>
        <time>2019-04-02T09:31:59.000Z</time>
      </trkpt>
      <trkpt lat="47.27473" lon="-1.5429">
        <ele>28.39999961853</ele>
        <time>2019-04-02T09:32:00.000Z</time>
      </trkpt>
      <trkpt lat="47.27473" lon="-1.54292">
        <ele>28.39999961853</ele>
        <time>2019-04-02T09:32:01.000Z</time>
      </trkpt>
      <trkpt lat="47.27475" lon="-1.54296">
        <ele>28.39999961853</ele>
        <time>2019-04-02T09:32:02.000Z</time>
      </trkpt>
      <trkpt lat="47.27476" lon="-1.54298">
        <ele>28.60000038147</ele>
        <time>2019-04-02T09:32:03.000Z</time>
      </trkpt>
      <trkpt lat="47.27476" lon="-1.54298">
        <ele>28.60000038147</ele>
        <time>2019-04-02T09:32:04.000Z</time>
      </trkpt>
      <trkpt lat="47.27477" lon="-1.543">
        <ele>28.60000038147</ele>
        <time>2019-04-02T09:32:05.000Z</time>
      </trkpt>
      <trkpt lat="47.27477" lon="-1.54302">
        <ele>28.60000038147</ele>
        <time>2019-04-02T09:32:06.000Z</time>
      </trkpt>
      <trkpt lat="47.27479" lon="-1.54306">
        <ele>28.60000038147</ele>
        <time>2019-04-02T09:32:07.000Z</time>
      </trkpt>
      <trkpt lat="47.27479" lon="-1.54306">
        <ele>28.60000038147</ele>
        <time>2019-04-02T09:32:08.000Z</time>
      </trkpt>
      <trkpt lat="47.27479" lon="-1.54308">
        <ele>28.60000038147</ele>
        <time>2019-04-02T09:32:09.000Z</time>
      </trkpt>
      <trkpt lat="47.2748" lon="-1.5431">
        <ele>28.799999237061</ele>
        <time>2019-04-02T09:32:10.000Z</time>
      </trkpt>
      <trkpt lat="47.2748" lon="-1.54312">
        <ele>28.799999237061</ele>
        <time>2019-04-02T09:32:11.000Z</time>
      </trkpt>
      <trkpt lat="47.27481" lon="-1.54313">
        <ele>28.799999237061</ele>
        <time>2019-04-02T09:32:12.000Z</time>
      </trkpt>
      <trkpt lat="47.27482" lon="-1.54316">
        <ele>28.799999237061</ele>
        <time>2019-04-02T09:32:13.000Z</time>
      </trkpt>
      <trkpt lat="47.27482" lon="-1.54318">
        <ele>28.799999237061</ele>
        <time>2019-04-02T09:32:14.000Z</time>
      </trkpt>
      <trkpt lat="47.27483" lon="-1.5432">
        <ele>28.799999237061</ele>
        <time>2019-04-02T09:32:15.000Z</time>
      </trkpt>
      <trkpt lat="47.27483" lon="-1.54322">
        <ele>29</ele>
        <time>2019-04-02T09:32:16.000Z</time>
      </trkpt>
      <trkpt lat="47.27484" lon="-1.54324">
        <ele>29</ele>
        <time>2019-04-02T09:32:17.000Z</time>
      </trkpt>
      <trkpt lat="47.27485" lon="-1.54326">
        <ele>29</ele>
        <time>2019-04-02T09:32:18.000Z</time>
      </trkpt>
      <trkpt lat="47.27485" lon="-1.54328">
        <ele>29</ele>
        <time>2019-04-02T09:32:19.000Z</time>
      </trkpt>
      <trkpt lat="47.27486" lon="-1.5433">
        <ele>29</ele>
        <time>2019-04-02T09:32:20.000Z</time>
      </trkpt>
      <trkpt lat="47.27486" lon="-1.54331">
        <ele>29.200000762939</ele>
        <time>2019-04-02T09:32:21.000Z</time>
      </trkpt>
      <trkpt lat="47.27487" lon="-1.54333">
        <ele>29.200000762939</ele>
        <time>2019-04-02T09:32:22.000Z</time>
      </trkpt>
      <trkpt lat="47.27488" lon="-1.54335">
        <ele>29.39999961853</ele>
        <time>2019-04-02T09:32:23.000Z</time>
      </trkpt>
      <trkpt lat="47.27488" lon="-1.54337">
        <ele>29.39999961853</ele>
        <time>2019-04-02T09:32:24.000Z</time>
      </trkpt>
      <trkpt lat="47.27489" lon="-1.54339">
        <ele>29.60000038147</ele>
        <time>2019-04-02T09:32:25.000Z</time>
      </trkpt>
      <trkpt lat="47.2749" lon="-1.54341">
        <ele>29.60000038147</ele>
        <time>2019-04-02T09:32:26.000Z</time>
      </trkpt>
      <trkpt lat="47.2749" lon="-1.54343">
        <ele>29.799999237061</ele>
        <time>2019-04-02T09:32:27.000Z</time>
      </trkpt>
      <trkpt lat="47.27491" lon="-1.54347">
        <ele>29.799999237061</ele>
        <time>2019-04-02T09:32:28.000Z</time>
      </trkpt>
      <trkpt lat="47.27491" lon="-1.54347">
        <ele>29.799999237061</ele>
        <time>2019-04-02T09:32:29.000Z</time>
      </trkpt>
      <trkpt lat="47.27492" lon="-1.54349">
        <ele>30</ele>
        <time>2019-04-02T09:32:30.000Z</time>
      </trkpt>
      <trkpt lat="47.27492" lon="-1.54351">
        <ele>30</ele>
        <time>2019-04-02T09:32:31.000Z</time>
      </trkpt>
      <trkpt lat="47.27493" lon="-1.54353">
        <ele>30.200000762939</ele>
        <time>2019-04-02T09:32:32.000Z</time>
      </trkpt>
      <trkpt lat="47.27493" lon="-1.54355">
        <ele>30.200000762939</ele>
        <time>2019-04-02T09:32:33.000Z</time>
      </trkpt>
      <trkpt lat="47.27494" lon="-1.54356">
        <ele>30.39999961853</ele>
        <time>2019-04-02T09:32:34.000Z</time>
      </trkpt>
      <trkpt lat="47.27495" lon="-1.54358">
        <ele>30.39999961853</ele>
        <time>2019-04-02T09:32:35.000Z</time>
      </trkpt>
      <trkpt lat="47.27495" lon="-1.5436">
        <ele>30.39999961853</ele>
        <time>2019-04-02T09:32:36.000Z</time>
      </trkpt>
      <trkpt lat="47.27496" lon="-1.54361">
        <ele>30.60000038147</ele>
        <time>2019-04-02T09:32:37.000Z</time>
      </trkpt>
      <trkpt lat="47.27497" lon="-1.54365">
        <ele>30.60000038147</ele>
        <time>2019-04-02T09:32:38.000Z</time>
      </trkpt>
      <trkpt lat="47.27497" lon="-1.54365">
        <ele>30.60000038147</ele>
        <time>2019-04-02T09:32:39.000Z</time>
      </trkpt>
      <trkpt lat="47.27497" lon="-1.54367">
        <ele>30.799999237061</ele>
        <time>2019-04-02T09:32:40.000Z</time>
      </trkpt>
      <trkpt lat="47.27498" lon="-1.54369">
        <ele>30.799999237061</ele>
        <time>2019-04-02T09:32:41.000Z</time>
      </trkpt>
      <trkpt lat="47.27498" lon="-1.54371">
        <ele>30.799999237061</ele>
        <time>2019-04-02T09:32:42.000Z</time>
      </trkpt>
      <trkpt lat="47.27499" lon="-1.54375">
        <ele>31</ele>
        <time>2019-04-02T09:32:43.000Z</time>
      </trkpt>
      <trkpt lat="47.27499" lon="-1.54375">
        <ele>31</ele>
        <time>2019-04-02T09:32:44.000Z</time>
      </trkpt>
      <trkpt lat="47.27499" lon="-1.54377">
        <ele>31</ele>
        <time>2019-04-02T09:32:45.000Z</time>
      </trkpt>
      <trkpt lat="47.27499" lon="-1.54379">
        <ele>31.200000762939</ele>
        <time>2019-04-02T09:32:46.000Z</time>
      </trkpt>
      <trkpt lat="47.275" lon="-1.54381">
        <ele>31.200000762939</ele>
        <time>2019-04-02T09:32:47.000Z</time>
      </trkpt>
      <trkpt lat="47.27501" lon="-1.54383">
        <ele>31.200000762939</ele>
        <time>2019-04-02T09:32:48.000Z</time>
      </trkpt>
      <trkpt lat="47.27502" lon="-1.54385">
        <ele>31.39999961853</ele>
        <time>2019-04-02T09:32:49.000Z</time>
      </trkpt>
      <trkpt lat="47.27502" lon="-1.54388">
        <ele>31.39999961853</ele>
        <time>2019-04-02T09:32:50.000Z</time>
      </trkpt>
      <trkpt lat="47.27503" lon="-1.5439">
        <ele>31.39999961853</ele>
        <time>2019-04-02T09:32:51.000Z</time>
      </trkpt>
      <trkpt lat="47.27503" lon="-1.54392">
        <ele>31.60000038147</ele>
        <time>2019-04-02T09:32:52.000Z</time>
      </trkpt>
      <trkpt lat="47.27504" lon="-1.54394">
        <ele>31.60000038147</ele>
        <time>2019-04-02T09:32:53.000Z</time>
      </trkpt>
      <trkpt lat="47.27505" lon="-1.54396">
        <ele>31.60000038147</ele>
        <time>2019-04-02T09:32:54.000Z</time>
      </trkpt>
      <trkpt lat="47.27506" lon="-1.54398">
        <ele>31.60000038147</ele>
        <time>2019-04-02T09:32:55.000Z</time>
      </trkpt>
      <trkpt lat="47.27507" lon="-1.54402">
        <ele>31.60000038147</ele>
        <time>2019-04-02T09:32:56.000Z</time>
      </trkpt>
      <trkpt lat="47.27507" lon="-1.54402">
        <ele>31.60000038147</ele>
        <time>2019-04-02T09:32:57.000Z</time>
      </trkpt>
      <trkpt lat="47.27508" lon="-1.54404">
        <ele>31.60000038147</ele>
        <time>2019-04-02T09:32:58.000Z</time>
      </trkpt>
      <trkpt lat="47.27509" lon="-1.54406">
        <ele>31.60000038147</ele>
        <time>2019-04-02T09:32:59.000Z</time>
      </trkpt>
      <trkpt lat="47.27509" lon="-1.54408">
        <ele>31.60000038147</ele>
        <time>2019-04-02T09:33:00.000Z</time>
      </trkpt>
      <trkpt lat="47.2751" lon="-1.5441">
        <ele>31.60000038147</ele>
        <time>2019-04-02T09:33:01.000Z</time>
      </trkpt>
      <trkpt lat="47.2751" lon="-1.54412">
        <ele>31.60000038147</ele>
        <time>2019-04-02T09:33:02.000Z</time>
      </trkpt>
      <trkpt lat="47.27511" lon="-1.54414">
        <ele>31.60000038147</ele>
        <time>2019-04-02T09:33:03.000Z</time>
      </trkpt>
      <trkpt lat="47.27512" lon="-1.54416">
        <ele>31.60000038147</ele>
        <time>2019-04-02T09:33:04.000Z</time>
      </trkpt>
      <trkpt lat="47.27512" lon="-1.54418">
        <ele>31.60000038147</ele>
        <time>2019-04-02T09:33:05.000Z</time>
      </trkpt>
      <trkpt lat="47.27513" lon="-1.5442">
        <ele>31.60000038147</ele>
        <time>2019-04-02T09:33:06.000Z</time>
      </trkpt>
      <trkpt lat="47.27514" lon="-1.54422">
        <ele>31.60000038147</ele>
        <time>2019-04-02T09:33:07.000Z</time>
      </trkpt>
      <trkpt lat="47.27514" lon="-1.54424">
        <ele>31.60000038147</ele>
        <time>2019-04-02T09:33:08.000Z</time>
      </trkpt>
      <trkpt lat="47.27516" lon="-1.54427">
        <ele>31.60000038147</ele>
        <time>2019-04-02T09:33:09.000Z</time>
      </trkpt>
      <trkpt lat="47.27516" lon="-1.54427">
        <ele>31.60000038147</ele>
        <time>2019-04-02T09:33:10.000Z</time>
      </trkpt>
      <trkpt lat="47.27516" lon="-1.54429">
        <ele>31.60000038147</ele>
        <time>2019-04-02T09:33:11.000Z</time>
      </trkpt>
      <trkpt lat="47.27516" lon="-1.54431">
        <ele>31.60000038147</ele>
        <time>2019-04-02T09:33:12.000Z</time>
      </trkpt>
      <trkpt lat="47.27517" lon="-1.54433">
        <ele>31.60000038147</ele>
        <time>2019-04-02T09:33:13.000Z</time>
      </trkpt>
      <trkpt lat="47.27518" lon="-1.54436">
        <ele>31.60000038147</ele>
        <time>2019-04-02T09:33:14.000Z</time>
      </trkpt>
      <trkpt lat="47.27518" lon="-1.54438">
        <ele>31.60000038147</ele>
        <time>2019-04-02T09:33:15.000Z</time>
      </trkpt>
      <trkpt lat="47.27519" lon="-1.5444">
        <ele>31.60000038147</ele>
        <time>2019-04-02T09:33:16.000Z</time>
      </trkpt>
      <trkpt lat="47.27519" lon="-1.54443">
        <ele>31.60000038147</ele>
        <time>2019-04-02T09:33:17.000Z</time>
      </trkpt>
      <trkpt lat="47.2752" lon="-1.54445">
        <ele>31.60000038147</ele>
        <time>2019-04-02T09:33:18.000Z</time>
      </trkpt>
      <trkpt lat="47.2752" lon="-1.54447">
        <ele>31.60000038147</ele>
        <time>2019-04-02T09:33:19.000Z</time>
      </trkpt>
      <trkpt lat="47.27521" lon="-1.54448">
        <ele>31.60000038147</ele>
        <time>2019-04-02T09:33:20.000Z</time>
      </trkpt>
      <trkpt lat="47.27522" lon="-1.5445">
        <ele>31.60000038147</ele>
        <time>2019-04-02T09:33:21.000Z</time>
      </trkpt>
      <trkpt lat="47.27522" lon="-1.54452">
        <ele>31.60000038147</ele>
        <time>2019-04-02T09:33:22.000Z</time>
      </trkpt>
      <trkpt lat="47.27523" lon="-1.54454">
        <ele>31.60000038147</ele>
        <time>2019-04-02T09:33:23.000Z</time>
      </trkpt>
      <trkpt lat="47.27524" lon="-1.54456">
        <ele>31.60000038147</ele>
        <time>2019-04-02T09:33:24.000Z</time>
      </trkpt>
      <trkpt lat="47.27525" lon="-1.54458">
        <ele>31.799999237061</ele>
        <time>2019-04-02T09:33:25.000Z</time>
      </trkpt>
      <trkpt lat="47.27526" lon="-1.5446">
        <ele>31.799999237061</ele>
        <time>2019-04-02T09:33:26.000Z</time>
      </trkpt>
      <trkpt lat="47.27527" lon="-1.54462">
        <ele>31.799999237061</ele>
        <time>2019-04-02T09:33:27.000Z</time>
      </trkpt>
      <trkpt lat="47.27528" lon="-1.54466">
        <ele>32</ele>
        <time>2019-04-02T09:33:28.000Z</time>
      </trkpt>
      <trkpt lat="47.27528" lon="-1.54466">
        <ele>32</ele>
        <time>2019-04-02T09:33:29.000Z</time>
      </trkpt>
      <trkpt lat="47.27529" lon="-1.54468">
        <ele>32</ele>
        <time>2019-04-02T09:33:30.000Z</time>
      </trkpt>
      <trkpt lat="47.27529" lon="-1.54471">
        <ele>32.200000762939</ele>
        <time>2019-04-02T09:33:31.000Z</time>
      </trkpt>
      <trkpt lat="47.27529" lon="-1.54473">
        <ele>32.200000762939</ele>
        <time>2019-04-02T09:33:32.000Z</time>
      </trkpt>
      <trkpt lat="47.2753" lon="-1.54475">
        <ele>32.200000762939</ele>
        <time>2019-04-02T09:33:33.000Z</time>
      </trkpt>
      <trkpt lat="47.2753" lon="-1.54477">
        <ele>32.400001525879</ele>
        <time>2019-04-02T09:33:34.000Z</time>
      </trkpt>
      <trkpt lat="47.2753" lon="-1.54479">
        <ele>32.400001525879</ele>
        <time>2019-04-02T09:33:35.000Z</time>
      </trkpt>
      <trkpt lat="47.27531" lon="-1.54481">
        <ele>32.400001525879</ele>
        <time>2019-04-02T09:33:36.000Z</time>
      </trkpt>
      <trkpt lat="47.27531" lon="-1.54484">
        <ele>32.599998474121</ele>
        <time>2019-04-02T09:33:37.000Z</time>
      </trkpt>
      <trkpt lat="47.27531" lon="-1.54486">
        <ele>32.599998474121</ele>
        <time>2019-04-02T09:33:38.000Z</time>
      </trkpt>
      <trkpt lat="47.27532" lon="-1.54488">
        <ele>32.599998474121</ele>
        <time>2019-04-02T09:33:39.000Z</time>
      </trkpt>
      <trkpt lat="47.27532" lon="-1.5449">
        <ele>32.599998474121</ele>
        <time>2019-04-02T09:33:40.000Z</time>
      </trkpt>
      <trkpt lat="47.27532" lon="-1.54493">
        <ele>32.599998474121</ele>
        <time>2019-04-02T09:33:41.000Z</time>
      </trkpt>
      <trkpt lat="47.27532" lon="-1.54495">
        <ele>32.599998474121</ele>
        <time>2019-04-02T09:33:42.000Z</time>
      </trkpt>
      <trkpt lat="47.27532" lon="-1.54499">
        <ele>32.799999237061</ele>
        <time>2019-04-02T09:33:43.000Z</time>
      </trkpt>
      <trkpt lat="47.27532" lon="-1.54499">
        <ele>32.799999237061</ele>
        <time>2019-04-02T09:33:44.000Z</time>
      </trkpt>
      <trkpt lat="47.27532" lon="-1.54501">
        <ele>32.799999237061</ele>
        <time>2019-04-02T09:33:45.000Z</time>
      </trkpt>
      <trkpt lat="47.27532" lon="-1.54503">
        <ele>32.799999237061</ele>
        <time>2019-04-02T09:33:46.000Z</time>
      </trkpt>
      <trkpt lat="47.27531" lon="-1.54506">
        <ele>32.799999237061</ele>
        <time>2019-04-02T09:33:47.000Z</time>
      </trkpt>
      <trkpt lat="47.27531" lon="-1.54508">
        <ele>32.799999237061</ele>
        <time>2019-04-02T09:33:48.000Z</time>
      </trkpt>
      <trkpt lat="47.27531" lon="-1.5451">
        <ele>32.799999237061</ele>
        <time>2019-04-02T09:33:49.000Z</time>
      </trkpt>
      <trkpt lat="47.27531" lon="-1.54512">
        <ele>33</ele>
        <time>2019-04-02T09:33:50.000Z</time>
      </trkpt>
      <trkpt lat="47.2753" lon="-1.54515">
        <ele>33</ele>
        <time>2019-04-02T09:33:51.000Z</time>
      </trkpt>
      <trkpt lat="47.27531" lon="-1.54517">
        <ele>33</ele>
        <time>2019-04-02T09:33:52.000Z</time>
      </trkpt>
      <trkpt lat="47.27531" lon="-1.54519">
        <ele>33</ele>
        <time>2019-04-02T09:33:53.000Z</time>
      </trkpt>
      <trkpt lat="47.2753" lon="-1.54521">
        <ele>33</ele>
        <time>2019-04-02T09:33:54.000Z</time>
      </trkpt>
      <trkpt lat="47.2753" lon="-1.54523">
        <ele>33</ele>
        <time>2019-04-02T09:33:55.000Z</time>
      </trkpt>
      <trkpt lat="47.2753" lon="-1.54525">
        <ele>33</ele>
        <time>2019-04-02T09:33:56.000Z</time>
      </trkpt>
      <trkpt lat="47.27529" lon="-1.54526">
        <ele>33.200000762939</ele>
        <time>2019-04-02T09:33:57.000Z</time>
      </trkpt>
      <trkpt lat="47.27529" lon="-1.54529">
        <ele>33.200000762939</ele>
        <time>2019-04-02T09:33:58.000Z</time>
      </trkpt>
      <trkpt lat="47.27528" lon="-1.54533">
        <ele>33.200000762939</ele>
        <time>2019-04-02T09:33:59.000Z</time>
      </trkpt>
      <trkpt lat="47.27528" lon="-1.54533">
        <ele>33.200000762939</ele>
        <time>2019-04-02T09:34:00.000Z</time>
      </trkpt>
      <trkpt lat="47.27528" lon="-1.54535">
        <ele>33.200000762939</ele>
        <time>2019-04-02T09:34:01.000Z</time>
      </trkpt>
      <trkpt lat="47.27527" lon="-1.54537">
        <ele>33.200000762939</ele>
        <time>2019-04-02T09:34:02.000Z</time>
      </trkpt>
      <trkpt lat="47.27527" lon="-1.54539">
        <ele>33.400001525879</ele>
        <time>2019-04-02T09:34:03.000Z</time>
      </trkpt>
      <trkpt lat="47.27526" lon="-1.5454">
        <ele>33.400001525879</ele>
        <time>2019-04-02T09:34:04.000Z</time>
      </trkpt>
      <trkpt lat="47.27526" lon="-1.54542">
        <ele>33.400001525879</ele>
        <time>2019-04-02T09:34:05.000Z</time>
      </trkpt>
      <trkpt lat="47.27525" lon="-1.54544">
        <ele>33.400001525879</ele>
        <time>2019-04-02T09:34:06.000Z</time>
      </trkpt>
      <trkpt lat="47.27524" lon="-1.54546">
        <ele>33.400001525879</ele>
        <time>2019-04-02T09:34:07.000Z</time>
      </trkpt>
      <trkpt lat="47.27523" lon="-1.54549">
        <ele>33.599998474121</ele>
        <time>2019-04-02T09:34:08.000Z</time>
      </trkpt>
      <trkpt lat="47.27522" lon="-1.54551">
        <ele>33.599998474121</ele>
        <time>2019-04-02T09:34:09.000Z</time>
      </trkpt>
      <trkpt lat="47.27522" lon="-1.54551">
        <ele>33.599998474121</ele>
        <time>2019-04-02T09:34:10.000Z</time>
      </trkpt>
      <trkpt lat="47.27521" lon="-1.54552">
        <ele>33.599998474121</ele>
        <time>2019-04-02T09:34:11.000Z</time>
      </trkpt>
      <trkpt lat="47.2752" lon="-1.54554">
        <ele>33.599998474121</ele>
        <time>2019-04-02T09:34:12.000Z</time>
      </trkpt>
      <trkpt lat="47.27519" lon="-1.54555">
        <ele>33.799999237061</ele>
        <time>2019-04-02T09:34:13.000Z</time>
      </trkpt>
      <trkpt lat="47.27518" lon="-1.54557">
        <ele>33.799999237061</ele>
        <time>2019-04-02T09:34:14.000Z</time>
      </trkpt>
      <trkpt lat="47.27517" lon="-1.54559">
        <ele>33.799999237061</ele>
        <time>2019-04-02T09:34:15.000Z</time>
      </trkpt>
      <trkpt lat="47.27516" lon="-1.5456">
        <ele>33.799999237061</ele>
        <time>2019-04-02T09:34:16.000Z</time>
      </trkpt>
      <trkpt lat="47.27515" lon="-1.54562">
        <ele>33.799999237061</ele>
        <time>2019-04-02T09:34:17.000Z</time>
      </trkpt>
      <trkpt lat="47.27514" lon="-1.54563">
        <ele>34</ele>
        <time>2019-04-02T09:34:18.000Z</time>
      </trkpt>
      <trkpt lat="47.27513" lon="-1.54565">
        <ele>34</ele>
        <time>2019-04-02T09:34:19.000Z</time>
      </trkpt>
      <trkpt lat="47.27512" lon="-1.54566">
        <ele>34</ele>
        <time>2019-04-02T09:34:20.000Z</time>
      </trkpt>
      <trkpt lat="47.27511" lon="-1.54568">
        <ele>34</ele>
        <time>2019-04-02T09:34:21.000Z</time>
      </trkpt>
      <trkpt lat="47.2751" lon="-1.54569">
        <ele>34</ele>
        <time>2019-04-02T09:34:22.000Z</time>
      </trkpt>
      <trkpt lat="47.27508" lon="-1.5457">
        <ele>34</ele>
        <time>2019-04-02T09:34:23.000Z</time>
      </trkpt>
      <trkpt lat="47.27507" lon="-1.54571">
        <ele>34</ele>
        <time>2019-04-02T09:34:24.000Z</time>
      </trkpt>
      <trkpt lat="47.27506" lon="-1.54573">
        <ele>34</ele>
        <time>2019-04-02T09:34:25.000Z</time>
      </trkpt>
      <trkpt lat="47.27505" lon="-1.54574">
        <ele>34</ele>
        <time>2019-04-02T09:34:26.000Z</time>
      </trkpt>
      <trkpt lat="47.27504" lon="-1.54575">
        <ele>34</ele>
        <time>2019-04-02T09:34:27.000Z</time>
      </trkpt>
      <trkpt lat="47.27501" lon="-1.54578">
        <ele>34</ele>
        <time>2019-04-02T09:34:28.000Z</time>
      </trkpt>
      <trkpt lat="47.275" lon="-1.54579">
        <ele>34</ele>
        <time>2019-04-02T09:34:29.000Z</time>
      </trkpt>
      <trkpt lat="47.275" lon="-1.54579">
        <ele>34</ele>
        <time>2019-04-02T09:34:30.000Z</time>
      </trkpt>
      <trkpt lat="47.27499" lon="-1.54579">
        <ele>34</ele>
        <time>2019-04-02T09:34:31.000Z</time>
      </trkpt>
      <trkpt lat="47.27497" lon="-1.5458">
        <ele>34</ele>
        <time>2019-04-02T09:34:32.000Z</time>
      </trkpt>
      <trkpt lat="47.27496" lon="-1.54581">
        <ele>34</ele>
        <time>2019-04-02T09:34:33.000Z</time>
      </trkpt>
      <trkpt lat="47.27494" lon="-1.54582">
        <ele>34</ele>
        <time>2019-04-02T09:34:34.000Z</time>
      </trkpt>
      <trkpt lat="47.27493" lon="-1.54582">
        <ele>34</ele>
        <time>2019-04-02T09:34:35.000Z</time>
      </trkpt>
      <trkpt lat="47.27492" lon="-1.54583">
        <ele>34</ele>
        <time>2019-04-02T09:34:36.000Z</time>
      </trkpt>
      <trkpt lat="47.2749" lon="-1.54583">
        <ele>34</ele>
        <time>2019-04-02T09:34:37.000Z</time>
      </trkpt>
      <trkpt lat="47.27487" lon="-1.54585">
        <ele>33.799999237061</ele>
        <time>2019-04-02T09:34:38.000Z</time>
      </trkpt>
      <trkpt lat="47.27487" lon="-1.54585">
        <ele>33.799999237061</ele>
        <time>2019-04-02T09:34:39.000Z</time>
      </trkpt>
      <trkpt lat="47.27486" lon="-1.54586">
        <ele>33.799999237061</ele>
        <time>2019-04-02T09:34:40.000Z</time>
      </trkpt>
      <trkpt lat="47.27485" lon="-1.54586">
        <ele>33.799999237061</ele>
        <time>2019-04-02T09:34:41.000Z</time>
      </trkpt>
      <trkpt lat="47.27484" lon="-1.54587">
        <ele>33.799999237061</ele>
        <time>2019-04-02T09:34:42.000Z</time>
      </trkpt>
      <trkpt lat="47.27483" lon="-1.54588">
        <ele>33.799999237061</ele>
        <time>2019-04-02T09:34:43.000Z</time>
      </trkpt>
      <trkpt lat="47.27482" lon="-1.54589">
        <ele>33.799999237061</ele>
        <time>2019-04-02T09:34:44.000Z</time>
      </trkpt>
      <trkpt lat="47.27481" lon="-1.54589">
        <ele>33.799999237061</ele>
        <time>2019-04-02T09:34:45.000Z</time>
      </trkpt>
      <trkpt lat="47.2748" lon="-1.5459">
        <ele>33.799999237061</ele>
        <time>2019-04-02T09:34:46.000Z</time>
      </trkpt>
      <trkpt lat="47.27479" lon="-1.54591">
        <ele>33.799999237061</ele>
        <time>2019-04-02T09:34:47.000Z</time>
      </trkpt>
      <trkpt lat="47.27477" lon="-1.54593">
        <ele>33.799999237061</ele>
        <time>2019-04-02T09:34:48.000Z</time>
      </trkpt>
      <trkpt lat="47.27477" lon="-1.54593">
        <ele>33.799999237061</ele>
        <time>2019-04-02T09:34:49.000Z</time>
      </trkpt>
      <trkpt lat="47.27476" lon="-1.54594">
        <ele>33.799999237061</ele>
        <time>2019-04-02T09:34:50.000Z</time>
      </trkpt>
      <trkpt lat="47.27474" lon="-1.54595">
        <ele>33.799999237061</ele>
        <time>2019-04-02T09:34:51.000Z</time>
      </trkpt>
      <trkpt lat="47.27473" lon="-1.54596">
        <ele>33.799999237061</ele>
        <time>2019-04-02T09:34:52.000Z</time>
      </trkpt>
      <trkpt lat="47.27471" lon="-1.54597">
        <ele>33.599998474121</ele>
        <time>2019-04-02T09:34:53.000Z</time>
      </trkpt>
      <trkpt lat="47.2747" lon="-1.54598">
        <ele>33.599998474121</ele>
        <time>2019-04-02T09:34:54.000Z</time>
      </trkpt>
      <trkpt lat="47.27468" lon="-1.54599">
        <ele>33.599998474121</ele>
        <time>2019-04-02T09:34:55.000Z</time>
      </trkpt>
      <trkpt lat="47.27467" lon="-1.546">
        <ele>33.599998474121</ele>
        <time>2019-04-02T09:34:56.000Z</time>
      </trkpt>
      <trkpt lat="47.27466" lon="-1.54601">
        <ele>33.599998474121</ele>
        <time>2019-04-02T09:34:57.000Z</time>
      </trkpt>
      <trkpt lat="47.27465" lon="-1.54602">
        <ele>33.599998474121</ele>
        <time>2019-04-02T09:34:58.000Z</time>
      </trkpt>
      <trkpt lat="47.27464" lon="-1.54604">
        <ele>33.599998474121</ele>
        <time>2019-04-02T09:34:59.000Z</time>
      </trkpt>
      <trkpt lat="47.27464" lon="-1.54605">
        <ele>33.599998474121</ele>
        <time>2019-04-02T09:35:00.000Z</time>
      </trkpt>
      <trkpt lat="47.27463" lon="-1.54606">
        <ele>33.599998474121</ele>
        <time>2019-04-02T09:35:01.000Z</time>
      </trkpt>
      <trkpt lat="47.27462" lon="-1.54608">
        <ele>33.599998474121</ele>
        <time>2019-04-02T09:35:02.000Z</time>
      </trkpt>
      <trkpt lat="47.2746" lon="-1.54609">
        <ele>33.599998474121</ele>
        <time>2019-04-02T09:35:03.000Z</time>
      </trkpt>
      <trkpt lat="47.27459" lon="-1.54611">
        <ele>33.599998474121</ele>
        <time>2019-04-02T09:35:04.000Z</time>
      </trkpt>
      <trkpt lat="47.27458" lon="-1.54612">
        <ele>33.599998474121</ele>
        <time>2019-04-02T09:35:05.000Z</time>
      </trkpt>
      <trkpt lat="47.27457" lon="-1.54614">
        <ele>33.599998474121</ele>
        <time>2019-04-02T09:35:06.000Z</time>
      </trkpt>
      <trkpt lat="47.27456" lon="-1.54615">
        <ele>33.599998474121</ele>
        <time>2019-04-02T09:35:07.000Z</time>
      </trkpt>
      <trkpt lat="47.27455" lon="-1.54617">
        <ele>33.400001525879</ele>
        <time>2019-04-02T09:35:08.000Z</time>
      </trkpt>
      <trkpt lat="47.27454" lon="-1.54619">
        <ele>33.400001525879</ele>
        <time>2019-04-02T09:35:09.000Z</time>
      </trkpt>
      <trkpt lat="47.27453" lon="-1.5462">
        <ele>33.400001525879</ele>
        <time>2019-04-02T09:35:10.000Z</time>
      </trkpt>
      <trkpt lat="47.27452" lon="-1.54621">
        <ele>33.400001525879</ele>
        <time>2019-04-02T09:35:11.000Z</time>
      </trkpt>
      <trkpt lat="47.27451" lon="-1.54622">
        <ele>33.400001525879</ele>
        <time>2019-04-02T09:35:12.000Z</time>
      </trkpt>
      <trkpt lat="47.2745" lon="-1.54624">
        <ele>33.400001525879</ele>
        <time>2019-04-02T09:35:13.000Z</time>
      </trkpt>
      <trkpt lat="47.27449" lon="-1.54625">
        <ele>33.400001525879</ele>
        <time>2019-04-02T09:35:14.000Z</time>
      </trkpt>
      <trkpt lat="47.27447" lon="-1.54626">
        <ele>33.400001525879</ele>
        <time>2019-04-02T09:35:15.000Z</time>
      </trkpt>
      <trkpt lat="47.27446" lon="-1.54627">
        <ele>33.400001525879</ele>
        <time>2019-04-02T09:35:16.000Z</time>
      </trkpt>
      <trkpt lat="47.27445" lon="-1.54628">
        <ele>33.400001525879</ele>
        <time>2019-04-02T09:35:17.000Z</time>
      </trkpt>
      <trkpt lat="47.27444" lon="-1.5463">
        <ele>33.400001525879</ele>
        <time>2019-04-02T09:35:18.000Z</time>
      </trkpt>
      <trkpt lat="47.27443" lon="-1.54631">
        <ele>33.400001525879</ele>
        <time>2019-04-02T09:35:19.000Z</time>
      </trkpt>
      <trkpt lat="47.27442" lon="-1.54632">
        <ele>33.400001525879</ele>
        <time>2019-04-02T09:35:20.000Z</time>
      </trkpt>
      <trkpt lat="47.27441" lon="-1.54634">
        <ele>33.400001525879</ele>
        <time>2019-04-02T09:35:21.000Z</time>
      </trkpt>
      <trkpt lat="47.2744" lon="-1.54635">
        <ele>33.400001525879</ele>
        <time>2019-04-02T09:35:22.000Z</time>
      </trkpt>
      <trkpt lat="47.2744" lon="-1.54637">
        <ele>33.400001525879</ele>
        <time>2019-04-02T09:35:23.000Z</time>
      </trkpt>
      <trkpt lat="47.27439" lon="-1.54639">
        <ele>33.400001525879</ele>
        <time>2019-04-02T09:35:24.000Z</time>
      </trkpt>
      <trkpt lat="47.27438" lon="-1.5464">
        <ele>33.200000762939</ele>
        <time>2019-04-02T09:35:25.000Z</time>
      </trkpt>
      <trkpt lat="47.27437" lon="-1.54641">
        <ele>33.200000762939</ele>
        <time>2019-04-02T09:35:26.000Z</time>
      </trkpt>
      <trkpt lat="47.27436" lon="-1.54643">
        <ele>33.200000762939</ele>
        <time>2019-04-02T09:35:27.000Z</time>
      </trkpt>
      <trkpt lat="47.27435" lon="-1.54645">
        <ele>33.200000762939</ele>
        <time>2019-04-02T09:35:28.000Z</time>
      </trkpt>
      <trkpt lat="47.27434" lon="-1.54647">
        <ele>33.200000762939</ele>
        <time>2019-04-02T09:35:29.000Z</time>
      </trkpt>
      <trkpt lat="47.27434" lon="-1.54649">
        <ele>33.200000762939</ele>
        <time>2019-04-02T09:35:30.000Z</time>
      </trkpt>
      <trkpt lat="47.27433" lon="-1.54651">
        <ele>33.200000762939</ele>
        <time>2019-04-02T09:35:31.000Z</time>
      </trkpt>
      <trkpt lat="47.27432" lon="-1.54653">
        <ele>33.200000762939</ele>
        <time>2019-04-02T09:35:32.000Z</time>
      </trkpt>
      <trkpt lat="47.27431" lon="-1.54655">
        <ele>33.200000762939</ele>
        <time>2019-04-02T09:35:33.000Z</time>
      </trkpt>
      <trkpt lat="47.2743" lon="-1.54656">
        <ele>33.200000762939</ele>
        <time>2019-04-02T09:35:34.000Z</time>
      </trkpt>
      <trkpt lat="47.27429" lon="-1.54658">
        <ele>33.200000762939</ele>
        <time>2019-04-02T09:35:35.000Z</time>
      </trkpt>
      <trkpt lat="47.27428" lon="-1.5466">
        <ele>33.200000762939</ele>
        <time>2019-04-02T09:35:36.000Z</time>
      </trkpt>
      <trkpt lat="47.27427" lon="-1.54663">
        <ele>33.400001525879</ele>
        <time>2019-04-02T09:35:37.000Z</time>
      </trkpt>
      <trkpt lat="47.27427" lon="-1.54663">
        <ele>33.400001525879</ele>
        <time>2019-04-02T09:35:38.000Z</time>
      </trkpt>
      <trkpt lat="47.27426" lon="-1.54664">
        <ele>33.400001525879</ele>
        <time>2019-04-02T09:35:39.000Z</time>
      </trkpt>
      <trkpt lat="47.27424" lon="-1.54666">
        <ele>33.400001525879</ele>
        <time>2019-04-02T09:35:40.000Z</time>
      </trkpt>
      <trkpt lat="47.27422" lon="-1.54669">
        <ele>33.400001525879</ele>
        <time>2019-04-02T09:35:41.000Z</time>
      </trkpt>
      <trkpt lat="47.27422" lon="-1.54669">
        <ele>33.400001525879</ele>
        <time>2019-04-02T09:35:42.000Z</time>
      </trkpt>
      <trkpt lat="47.27421" lon="-1.5467">
        <ele>33.400001525879</ele>
        <time>2019-04-02T09:35:43.000Z</time>
      </trkpt>
      <trkpt lat="47.27419" lon="-1.54671">
        <ele>33.400001525879</ele>
        <time>2019-04-02T09:35:44.000Z</time>
      </trkpt>
      <trkpt lat="47.27418" lon="-1.54672">
        <ele>33.400001525879</ele>
        <time>2019-04-02T09:35:45.000Z</time>
      </trkpt>
      <trkpt lat="47.27417" lon="-1.54673">
        <ele>33.400001525879</ele>
        <time>2019-04-02T09:35:46.000Z</time>
      </trkpt>
      <trkpt lat="47.27416" lon="-1.54673">
        <ele>33.400001525879</ele>
        <time>2019-04-02T09:35:47.000Z</time>
      </trkpt>
      <trkpt lat="47.27414" lon="-1.54674">
        <ele>33.200000762939</ele>
        <time>2019-04-02T09:35:48.000Z</time>
      </trkpt>
      <trkpt lat="47.27413" lon="-1.54675">
        <ele>33.200000762939</ele>
        <time>2019-04-02T09:35:49.000Z</time>
      </trkpt>
      <trkpt lat="47.27412" lon="-1.54676">
        <ele>33.200000762939</ele>
        <time>2019-04-02T09:35:50.000Z</time>
      </trkpt>
      <trkpt lat="47.27411" lon="-1.54678">
        <ele>33.200000762939</ele>
        <time>2019-04-02T09:35:51.000Z</time>
      </trkpt>
      <trkpt lat="47.2741" lon="-1.54679">
        <ele>33.200000762939</ele>
        <time>2019-04-02T09:35:52.000Z</time>
      </trkpt>
      <trkpt lat="47.27408" lon="-1.5468">
        <ele>33.200000762939</ele>
        <time>2019-04-02T09:35:53.000Z</time>
      </trkpt>
      <trkpt lat="47.27407" lon="-1.54681">
        <ele>33.200000762939</ele>
        <time>2019-04-02T09:35:54.000Z</time>
      </trkpt>
      <trkpt lat="47.27405" lon="-1.54683">
        <ele>33.400001525879</ele>
        <time>2019-04-02T09:35:55.000Z</time>
      </trkpt>
      <trkpt lat="47.27405" lon="-1.54683">
        <ele>33.400001525879</ele>
        <time>2019-04-02T09:35:56.000Z</time>
      </trkpt>
      <trkpt lat="47.27404" lon="-1.54685">
        <ele>33.400001525879</ele>
        <time>2019-04-02T09:35:57.000Z</time>
      </trkpt>
      <trkpt lat="47.27403" lon="-1.54686">
        <ele>33.400001525879</ele>
        <time>2019-04-02T09:35:58.000Z</time>
      </trkpt>
      <trkpt lat="47.27402" lon="-1.54686">
        <ele>33.200000762939</ele>
        <time>2019-04-02T09:35:59.000Z</time>
      </trkpt>
      <trkpt lat="47.27401" lon="-1.54687">
        <ele>33.200000762939</ele>
        <time>2019-04-02T09:36:00.000Z</time>
      </trkpt>
      <trkpt lat="47.27399" lon="-1.54689">
        <ele>33.400001525879</ele>
        <time>2019-04-02T09:36:01.000Z</time>
      </trkpt>
      <trkpt lat="47.27398" lon="-1.5469">
        <ele>33.400001525879</ele>
        <time>2019-04-02T09:36:02.000Z</time>
      </trkpt>
      <trkpt lat="47.27398" lon="-1.5469">
        <ele>33.400001525879</ele>
        <time>2019-04-02T09:36:03.000Z</time>
      </trkpt>
      <trkpt lat="47.27398" lon="-1.54691">
        <ele>33.200000762939</ele>
        <time>2019-04-02T09:36:04.000Z</time>
      </trkpt>
      <trkpt lat="47.27395" lon="-1.54692">
        <ele>33.200000762939</ele>
        <time>2019-04-02T09:36:05.000Z</time>
      </trkpt>
      <trkpt lat="47.27395" lon="-1.54692">
        <ele>33.200000762939</ele>
        <time>2019-04-02T09:36:06.000Z</time>
      </trkpt>
      <trkpt lat="47.27394" lon="-1.54692">
        <ele>33.200000762939</ele>
        <time>2019-04-02T09:36:07.000Z</time>
      </trkpt>
      <trkpt lat="47.27393" lon="-1.54692">
        <ele>33.200000762939</ele>
        <time>2019-04-02T09:36:08.000Z</time>
      </trkpt>
      <trkpt lat="47.27392" lon="-1.54693">
        <ele>33.200000762939</ele>
        <time>2019-04-02T09:36:09.000Z</time>
      </trkpt>
      <trkpt lat="47.27391" lon="-1.54693">
        <ele>33.200000762939</ele>
        <time>2019-04-02T09:36:10.000Z</time>
      </trkpt>
      <trkpt lat="47.27391" lon="-1.54694">
        <ele>33.200000762939</ele>
        <time>2019-04-02T09:36:11.000Z</time>
      </trkpt>
      <trkpt lat="47.27391" lon="-1.54694">
        <ele>33.200000762939</ele>
        <time>2019-04-02T09:36:12.000Z</time>
      </trkpt>
      <trkpt lat="47.27389" lon="-1.54699">
        <ele>33.200000762939</ele>
        <time>2019-04-02T09:36:54.000Z</time>
      </trkpt>
      <trkpt lat="47.27389" lon="-1.54702">
        <ele>33.400001525879</ele>
        <time>2019-04-02T09:36:55.000Z</time>
      </trkpt>
      <trkpt lat="47.27389" lon="-1.54704">
        <ele>33.400001525879</ele>
        <time>2019-04-02T09:36:56.000Z</time>
      </trkpt>
      <trkpt lat="47.27389" lon="-1.54706">
        <ele>33.400001525879</ele>
        <time>2019-04-02T09:36:57.000Z</time>
      </trkpt>
      <trkpt lat="47.27389" lon="-1.54708">
        <ele>33.400001525879</ele>
        <time>2019-04-02T09:36:58.000Z</time>
      </trkpt>
      <trkpt lat="47.27388" lon="-1.5471">
        <ele>33.400001525879</ele>
        <time>2019-04-02T09:36:59.000Z</time>
      </trkpt>
      <trkpt lat="47.27388" lon="-1.54712">
        <ele>33.400001525879</ele>
        <time>2019-04-02T09:37:00.000Z</time>
      </trkpt>
      <trkpt lat="47.27388" lon="-1.54715">
        <ele>33.400001525879</ele>
        <time>2019-04-02T09:37:01.000Z</time>
      </trkpt>
      <trkpt lat="47.27388" lon="-1.54717">
        <ele>33.400001525879</ele>
        <time>2019-04-02T09:37:02.000Z</time>
      </trkpt>
      <trkpt lat="47.27388" lon="-1.54719">
        <ele>33.599998474121</ele>
        <time>2019-04-02T09:37:03.000Z</time>
      </trkpt>
      <trkpt lat="47.27389" lon="-1.5472">
        <ele>33.599998474121</ele>
        <time>2019-04-02T09:37:04.000Z</time>
      </trkpt>
      <trkpt lat="47.2739" lon="-1.54721">
        <ele>33.599998474121</ele>
        <time>2019-04-02T09:37:05.000Z</time>
      </trkpt>
      <trkpt lat="47.2739" lon="-1.54722">
        <ele>33.599998474121</ele>
        <time>2019-04-02T09:37:06.000Z</time>
      </trkpt>
      <trkpt lat="47.27391" lon="-1.54724">
        <ele>33.599998474121</ele>
        <time>2019-04-02T09:37:07.000Z</time>
      </trkpt>
      <trkpt lat="47.27392" lon="-1.54725">
        <ele>33.599998474121</ele>
        <time>2019-04-02T09:37:08.000Z</time>
      </trkpt>
      <trkpt lat="47.27393" lon="-1.54727">
        <ele>33.599998474121</ele>
        <time>2019-04-02T09:37:09.000Z</time>
      </trkpt>
      <trkpt lat="47.27394" lon="-1.54729">
        <ele>33.799999237061</ele>
        <time>2019-04-02T09:37:10.000Z</time>
      </trkpt>
      <trkpt lat="47.27394" lon="-1.54731">
        <ele>33.799999237061</ele>
        <time>2019-04-02T09:37:11.000Z</time>
      </trkpt>
      <trkpt lat="47.27395" lon="-1.54733">
        <ele>33.799999237061</ele>
        <time>2019-04-02T09:37:12.000Z</time>
      </trkpt>
      <trkpt lat="47.27395" lon="-1.54735">
        <ele>33.799999237061</ele>
        <time>2019-04-02T09:37:13.000Z</time>
      </trkpt>
      <trkpt lat="47.27396" lon="-1.54737">
        <ele>33.799999237061</ele>
        <time>2019-04-02T09:37:14.000Z</time>
      </trkpt>
      <trkpt lat="47.27396" lon="-1.54739">
        <ele>33.799999237061</ele>
        <time>2019-04-02T09:37:15.000Z</time>
      </trkpt>
      <trkpt lat="47.27397" lon="-1.54741">
        <ele>33.799999237061</ele>
        <time>2019-04-02T09:37:16.000Z</time>
      </trkpt>
      <trkpt lat="47.27398" lon="-1.54742">
        <ele>34</ele>
        <time>2019-04-02T09:37:17.000Z</time>
      </trkpt>
      <trkpt lat="47.274" lon="-1.54744">
        <ele>34</ele>
        <time>2019-04-02T09:37:18.000Z</time>
      </trkpt>
      <trkpt lat="47.274" lon="-1.54744">
        <ele>34</ele>
        <time>2019-04-02T09:37:19.000Z</time>
      </trkpt>
      <trkpt lat="47.27401" lon="-1.54745">
        <ele>34</ele>
        <time>2019-04-02T09:37:20.000Z</time>
      </trkpt>
      <trkpt lat="47.27402" lon="-1.54746">
        <ele>34</ele>
        <time>2019-04-02T09:37:21.000Z</time>
      </trkpt>
      <trkpt lat="47.27402" lon="-1.54748">
        <ele>34</ele>
        <time>2019-04-02T09:37:22.000Z</time>
      </trkpt>
      <trkpt lat="47.27403" lon="-1.54749">
        <ele>34</ele>
        <time>2019-04-02T09:37:23.000Z</time>
      </trkpt>
      <trkpt lat="47.27404" lon="-1.54751">
        <ele>34</ele>
        <time>2019-04-02T09:37:24.000Z</time>
      </trkpt>
      <trkpt lat="47.27404" lon="-1.54753">
        <ele>33.799999237061</ele>
        <time>2019-04-02T09:37:25.000Z</time>
      </trkpt>
      <trkpt lat="47.27404" lon="-1.54755">
        <ele>33.799999237061</ele>
        <time>2019-04-02T09:37:26.000Z</time>
      </trkpt>
      <trkpt lat="47.27404" lon="-1.54757">
        <ele>33.799999237061</ele>
        <time>2019-04-02T09:37:27.000Z</time>
      </trkpt>
      <trkpt lat="47.27404" lon="-1.54759">
        <ele>33.799999237061</ele>
        <time>2019-04-02T09:37:28.000Z</time>
      </trkpt>
      <trkpt lat="47.27404" lon="-1.54762">
        <ele>33.799999237061</ele>
        <time>2019-04-02T09:37:29.000Z</time>
      </trkpt>
      <trkpt lat="47.27404" lon="-1.54764">
        <ele>33.799999237061</ele>
        <time>2019-04-02T09:37:30.000Z</time>
      </trkpt>
      <trkpt lat="47.27403" lon="-1.54766">
        <ele>33.799999237061</ele>
        <time>2019-04-02T09:37:31.000Z</time>
      </trkpt>
      <trkpt lat="47.27403" lon="-1.54767">
        <ele>33.799999237061</ele>
        <time>2019-04-02T09:37:32.000Z</time>
      </trkpt>
      <trkpt lat="47.27403" lon="-1.54772">
        <ele>33.599998474121</ele>
        <time>2019-04-02T09:37:33.000Z</time>
      </trkpt>
      <trkpt lat="47.27403" lon="-1.54772">
        <ele>33.599998474121</ele>
        <time>2019-04-02T09:37:34.000Z</time>
      </trkpt>
      <trkpt lat="47.27404" lon="-1.54773">
        <ele>33.599998474121</ele>
        <time>2019-04-02T09:37:35.000Z</time>
      </trkpt>
      <trkpt lat="47.27405" lon="-1.54775">
        <ele>33.599998474121</ele>
        <time>2019-04-02T09:37:36.000Z</time>
      </trkpt>
      <trkpt lat="47.27407" lon="-1.54776">
        <ele>33.599998474121</ele>
        <time>2019-04-02T09:37:37.000Z</time>
      </trkpt>
      <trkpt lat="47.27408" lon="-1.54777">
        <ele>33.599998474121</ele>
        <time>2019-04-02T09:37:38.000Z</time>
      </trkpt>
      <trkpt lat="47.27409" lon="-1.54779">
        <ele>33.599998474121</ele>
        <time>2019-04-02T09:37:39.000Z</time>
      </trkpt>
      <trkpt lat="47.27411" lon="-1.5478">
        <ele>33.400001525879</ele>
        <time>2019-04-02T09:37:40.000Z</time>
      </trkpt>
      <trkpt lat="47.27411" lon="-1.54782">
        <ele>33.400001525879</ele>
        <time>2019-04-02T09:37:41.000Z</time>
      </trkpt>
      <trkpt lat="47.27412" lon="-1.54783">
        <ele>33.400001525879</ele>
        <time>2019-04-02T09:37:42.000Z</time>
      </trkpt>
      <trkpt lat="47.27412" lon="-1.54785">
        <ele>33.400001525879</ele>
        <time>2019-04-02T09:37:43.000Z</time>
      </trkpt>
      <trkpt lat="47.27412" lon="-1.54786">
        <ele>33.400001525879</ele>
        <time>2019-04-02T09:37:44.000Z</time>
      </trkpt>
      <trkpt lat="47.27411" lon="-1.54788">
        <ele>33.400001525879</ele>
        <time>2019-04-02T09:37:45.000Z</time>
      </trkpt>
      <trkpt lat="47.2741" lon="-1.5479">
        <ele>33.400001525879</ele>
        <time>2019-04-02T09:37:46.000Z</time>
      </trkpt>
      <trkpt lat="47.27409" lon="-1.54792">
        <ele>33.400001525879</ele>
        <time>2019-04-02T09:37:47.000Z</time>
      </trkpt>
      <trkpt lat="47.27408" lon="-1.54795">
        <ele>33.400001525879</ele>
        <time>2019-04-02T09:37:48.000Z</time>
      </trkpt>
      <trkpt lat="47.27408" lon="-1.54795">
        <ele>33.400001525879</ele>
        <time>2019-04-02T09:37:49.000Z</time>
      </trkpt>
      <trkpt lat="47.27407" lon="-1.54797">
        <ele>33.400001525879</ele>
        <time>2019-04-02T09:37:50.000Z</time>
      </trkpt>
      <trkpt lat="47.27406" lon="-1.54799">
        <ele>33.400001525879</ele>
        <time>2019-04-02T09:37:51.000Z</time>
      </trkpt>
      <trkpt lat="47.27405" lon="-1.54801">
        <ele>33.200000762939</ele>
        <time>2019-04-02T09:37:52.000Z</time>
      </trkpt>
      <trkpt lat="47.27405" lon="-1.54802">
        <ele>33.200000762939</ele>
        <time>2019-04-02T09:37:53.000Z</time>
      </trkpt>
      <trkpt lat="47.27404" lon="-1.54804">
        <ele>33.200000762939</ele>
        <time>2019-04-02T09:37:54.000Z</time>
      </trkpt>
      <trkpt lat="47.27403" lon="-1.54806">
        <ele>33.200000762939</ele>
        <time>2019-04-02T09:37:55.000Z</time>
      </trkpt>
      <trkpt lat="47.27403" lon="-1.54807">
        <ele>33.200000762939</ele>
        <time>2019-04-02T09:37:56.000Z</time>
      </trkpt>
      <trkpt lat="47.27402" lon="-1.54809">
        <ele>33.200000762939</ele>
        <time>2019-04-02T09:37:57.000Z</time>
      </trkpt>
      <trkpt lat="47.27402" lon="-1.54811">
        <ele>33.200000762939</ele>
        <time>2019-04-02T09:37:58.000Z</time>
      </trkpt>
      <trkpt lat="47.27402" lon="-1.54813">
        <ele>33.200000762939</ele>
        <time>2019-04-02T09:37:59.000Z</time>
      </trkpt>
      <trkpt lat="47.27401" lon="-1.54815">
        <ele>33.200000762939</ele>
        <time>2019-04-02T09:38:00.000Z</time>
      </trkpt>
      <trkpt lat="47.27402" lon="-1.54817">
        <ele>33.200000762939</ele>
        <time>2019-04-02T09:38:01.000Z</time>
      </trkpt>
      <trkpt lat="47.27404" lon="-1.54821">
        <ele>33.200000762939</ele>
        <time>2019-04-02T09:38:02.000Z</time>
      </trkpt>
      <trkpt lat="47.27405" lon="-1.54822">
        <ele>33.200000762939</ele>
        <time>2019-04-02T09:38:03.000Z</time>
      </trkpt>
      <trkpt lat="47.27405" lon="-1.54822">
        <ele>33.200000762939</ele>
        <time>2019-04-02T09:38:04.000Z</time>
      </trkpt>
      <trkpt lat="47.27405" lon="-1.54823">
        <ele>33.200000762939</ele>
        <time>2019-04-02T09:38:05.000Z</time>
      </trkpt>
      <trkpt lat="47.27406" lon="-1.54825">
        <ele>33.200000762939</ele>
        <time>2019-04-02T09:38:06.000Z</time>
      </trkpt>
      <trkpt lat="47.27407" lon="-1.54827">
        <ele>33.200000762939</ele>
        <time>2019-04-02T09:38:07.000Z</time>
      </trkpt>
      <trkpt lat="47.27407" lon="-1.54829">
        <ele>33.200000762939</ele>
        <time>2019-04-02T09:38:08.000Z</time>
      </trkpt>
      <trkpt lat="47.27407" lon="-1.54831">
        <ele>33.400001525879</ele>
        <time>2019-04-02T09:38:09.000Z</time>
      </trkpt>
      <trkpt lat="47.27407" lon="-1.54836">
        <ele>33.400001525879</ele>
        <time>2019-04-02T09:38:10.000Z</time>
      </trkpt>
      <trkpt lat="47.27407" lon="-1.54836">
        <ele>33.400001525879</ele>
        <time>2019-04-02T09:38:11.000Z</time>
      </trkpt>
      <trkpt lat="47.27407" lon="-1.54838">
        <ele>33.599998474121</ele>
        <time>2019-04-02T09:38:12.000Z</time>
      </trkpt>
      <trkpt lat="47.27407" lon="-1.54841">
        <ele>33.599998474121</ele>
        <time>2019-04-02T09:38:13.000Z</time>
      </trkpt>
      <trkpt lat="47.27407" lon="-1.54843">
        <ele>33.599998474121</ele>
        <time>2019-04-02T09:38:14.000Z</time>
      </trkpt>
      <trkpt lat="47.27408" lon="-1.54845">
        <ele>33.599998474121</ele>
        <time>2019-04-02T09:38:15.000Z</time>
      </trkpt>
      <trkpt lat="47.27408" lon="-1.54848">
        <ele>33.799999237061</ele>
        <time>2019-04-02T09:38:16.000Z</time>
      </trkpt>
      <trkpt lat="47.27408" lon="-1.5485">
        <ele>33.799999237061</ele>
        <time>2019-04-02T09:38:17.000Z</time>
      </trkpt>
      <trkpt lat="47.27408" lon="-1.54852">
        <ele>33.799999237061</ele>
        <time>2019-04-02T09:38:18.000Z</time>
      </trkpt>
      <trkpt lat="47.27408" lon="-1.54854">
        <ele>33.799999237061</ele>
        <time>2019-04-02T09:38:19.000Z</time>
      </trkpt>
      <trkpt lat="47.27408" lon="-1.54856">
        <ele>34</ele>
        <time>2019-04-02T09:38:20.000Z</time>
      </trkpt>
      <trkpt lat="47.27409" lon="-1.54858">
        <ele>34</ele>
        <time>2019-04-02T09:38:21.000Z</time>
      </trkpt>
      <trkpt lat="47.27409" lon="-1.5486">
        <ele>34</ele>
        <time>2019-04-02T09:38:22.000Z</time>
      </trkpt>
      <trkpt lat="47.27409" lon="-1.54863">
        <ele>34</ele>
        <time>2019-04-02T09:38:23.000Z</time>
      </trkpt>
      <trkpt lat="47.27409" lon="-1.54865">
        <ele>34.200000762939</ele>
        <time>2019-04-02T09:38:24.000Z</time>
      </trkpt>
      <trkpt lat="47.27409" lon="-1.54867">
        <ele>34.200000762939</ele>
        <time>2019-04-02T09:38:25.000Z</time>
      </trkpt>
      <trkpt lat="47.2741" lon="-1.54869">
        <ele>34.200000762939</ele>
        <time>2019-04-02T09:38:26.000Z</time>
      </trkpt>
      <trkpt lat="47.2741" lon="-1.54871">
        <ele>34.200000762939</ele>
        <time>2019-04-02T09:38:27.000Z</time>
      </trkpt>
      <trkpt lat="47.27411" lon="-1.54873">
        <ele>34.400001525879</ele>
        <time>2019-04-02T09:38:28.000Z</time>
      </trkpt>
      <trkpt lat="47.27411" lon="-1.54876">
        <ele>34.400001525879</ele>
        <time>2019-04-02T09:38:29.000Z</time>
      </trkpt>
      <trkpt lat="47.27412" lon="-1.54878">
        <ele>34.400001525879</ele>
        <time>2019-04-02T09:38:30.000Z</time>
      </trkpt>
      <trkpt lat="47.27412" lon="-1.5488">
        <ele>34.400001525879</ele>
        <time>2019-04-02T09:38:31.000Z</time>
      </trkpt>
      <trkpt lat="47.27412" lon="-1.54882">
        <ele>34.599998474121</ele>
        <time>2019-04-02T09:38:32.000Z</time>
      </trkpt>
      <trkpt lat="47.27412" lon="-1.54884">
        <ele>34.599998474121</ele>
        <time>2019-04-02T09:38:33.000Z</time>
      </trkpt>
      <trkpt lat="47.27413" lon="-1.54886">
        <ele>34.599998474121</ele>
        <time>2019-04-02T09:38:34.000Z</time>
      </trkpt>
      <trkpt lat="47.27413" lon="-1.54888">
        <ele>34.799999237061</ele>
        <time>2019-04-02T09:38:35.000Z</time>
      </trkpt>
      <trkpt lat="47.27413" lon="-1.5489">
        <ele>34.799999237061</ele>
        <time>2019-04-02T09:38:36.000Z</time>
      </trkpt>
      <trkpt lat="47.27413" lon="-1.54893">
        <ele>34.799999237061</ele>
        <time>2019-04-02T09:38:37.000Z</time>
      </trkpt>
      <trkpt lat="47.27413" lon="-1.54897">
        <ele>35</ele>
        <time>2019-04-02T09:38:38.000Z</time>
      </trkpt>
      <trkpt lat="47.27413" lon="-1.54897">
        <ele>35</ele>
        <time>2019-04-02T09:38:39.000Z</time>
      </trkpt>
      <trkpt lat="47.27414" lon="-1.54899">
        <ele>35</ele>
        <time>2019-04-02T09:38:40.000Z</time>
      </trkpt>
      <trkpt lat="47.27414" lon="-1.54901">
        <ele>35</ele>
        <time>2019-04-02T09:38:41.000Z</time>
      </trkpt>
      <trkpt lat="47.27414" lon="-1.54903">
        <ele>35</ele>
        <time>2019-04-02T09:38:42.000Z</time>
      </trkpt>
      <trkpt lat="47.27414" lon="-1.54905">
        <ele>35</ele>
        <time>2019-04-02T09:38:43.000Z</time>
      </trkpt>
      <trkpt lat="47.27414" lon="-1.54908">
        <ele>35.200000762939</ele>
        <time>2019-04-02T09:38:44.000Z</time>
      </trkpt>
      <trkpt lat="47.27415" lon="-1.5491">
        <ele>35.200000762939</ele>
        <time>2019-04-02T09:38:45.000Z</time>
      </trkpt>
      <trkpt lat="47.27415" lon="-1.54912">
        <ele>35.200000762939</ele>
        <time>2019-04-02T09:38:46.000Z</time>
      </trkpt>
      <trkpt lat="47.27415" lon="-1.54914">
        <ele>35.200000762939</ele>
        <time>2019-04-02T09:38:47.000Z</time>
      </trkpt>
      <trkpt lat="47.27416" lon="-1.54916">
        <ele>35.400001525879</ele>
        <time>2019-04-02T09:38:48.000Z</time>
      </trkpt>
      <trkpt lat="47.27416" lon="-1.54918">
        <ele>35.400001525879</ele>
        <time>2019-04-02T09:38:49.000Z</time>
      </trkpt>
      <trkpt lat="47.27416" lon="-1.5492">
        <ele>35.400001525879</ele>
        <time>2019-04-02T09:38:50.000Z</time>
      </trkpt>
      <trkpt lat="47.27416" lon="-1.54922">
        <ele>35.400001525879</ele>
        <time>2019-04-02T09:38:51.000Z</time>
      </trkpt>
      <trkpt lat="47.27416" lon="-1.54925">
        <ele>35.599998474121</ele>
        <time>2019-04-02T09:38:52.000Z</time>
      </trkpt>
      <trkpt lat="47.27416" lon="-1.54927">
        <ele>35.599998474121</ele>
        <time>2019-04-02T09:38:53.000Z</time>
      </trkpt>
      <trkpt lat="47.27416" lon="-1.54929">
        <ele>35.599998474121</ele>
        <time>2019-04-02T09:38:54.000Z</time>
      </trkpt>
      <trkpt lat="47.27417" lon="-1.54931">
        <ele>35.599998474121</ele>
        <time>2019-04-02T09:38:55.000Z</time>
      </trkpt>
      <trkpt lat="47.27417" lon="-1.54933">
        <ele>35.799999237061</ele>
        <time>2019-04-02T09:38:56.000Z</time>
      </trkpt>
      <trkpt lat="47.27417" lon="-1.54935">
        <ele>35.799999237061</ele>
        <time>2019-04-02T09:38:57.000Z</time>
      </trkpt>
      <trkpt lat="47.27417" lon="-1.54937">
        <ele>35.799999237061</ele>
        <time>2019-04-02T09:38:58.000Z</time>
      </trkpt>
      <trkpt lat="47.27417" lon="-1.54939">
        <ele>35.799999237061</ele>
        <time>2019-04-02T09:38:59.000Z</time>
      </trkpt>
      <trkpt lat="47.27417" lon="-1.54941">
        <ele>36</ele>
        <time>2019-04-02T09:39:00.000Z</time>
      </trkpt>
      <trkpt lat="47.27417" lon="-1.54943">
        <ele>36</ele>
        <time>2019-04-02T09:39:01.000Z</time>
      </trkpt>
      <trkpt lat="47.27417" lon="-1.54945">
        <ele>36</ele>
        <time>2019-04-02T09:39:02.000Z</time>
      </trkpt>
      <trkpt lat="47.27418" lon="-1.54947">
        <ele>36</ele>
        <time>2019-04-02T09:39:03.000Z</time>
      </trkpt>
      <trkpt lat="47.27418" lon="-1.54949">
        <ele>36.200000762939</ele>
        <time>2019-04-02T09:39:04.000Z</time>
      </trkpt>
      <trkpt lat="47.27418" lon="-1.54951">
        <ele>36.200000762939</ele>
        <time>2019-04-02T09:39:05.000Z</time>
      </trkpt>
      <trkpt lat="47.27418" lon="-1.54953">
        <ele>36.200000762939</ele>
        <time>2019-04-02T09:39:06.000Z</time>
      </trkpt>
      <trkpt lat="47.27418" lon="-1.54956">
        <ele>36.200000762939</ele>
        <time>2019-04-02T09:39:07.000Z</time>
      </trkpt>
      <trkpt lat="47.27418" lon="-1.54958">
        <ele>36.400001525879</ele>
        <time>2019-04-02T09:39:08.000Z</time>
      </trkpt>
      <trkpt lat="47.27418" lon="-1.5496">
        <ele>36.400001525879</ele>
        <time>2019-04-02T09:39:09.000Z</time>
      </trkpt>
      <trkpt lat="47.27418" lon="-1.54962">
        <ele>36.400001525879</ele>
        <time>2019-04-02T09:39:10.000Z</time>
      </trkpt>
      <trkpt lat="47.27418" lon="-1.54964">
        <ele>36.400001525879</ele>
        <time>2019-04-02T09:39:11.000Z</time>
      </trkpt>
      <trkpt lat="47.27419" lon="-1.54967">
        <ele>36.599998474121</ele>
        <time>2019-04-02T09:39:12.000Z</time>
      </trkpt>
      <trkpt lat="47.27419" lon="-1.54969">
        <ele>36.599998474121</ele>
        <time>2019-04-02T09:39:13.000Z</time>
      </trkpt>
      <trkpt lat="47.27418" lon="-1.54971">
        <ele>36.599998474121</ele>
        <time>2019-04-02T09:39:14.000Z</time>
      </trkpt>
      <trkpt lat="47.27418" lon="-1.54973">
        <ele>36.599998474121</ele>
        <time>2019-04-02T09:39:15.000Z</time>
      </trkpt>
      <trkpt lat="47.27418" lon="-1.54975">
        <ele>36.799999237061</ele>
        <time>2019-04-02T09:39:16.000Z</time>
      </trkpt>
      <trkpt lat="47.27419" lon="-1.54977">
        <ele>36.799999237061</ele>
        <time>2019-04-02T09:39:17.000Z</time>
      </trkpt>
      <trkpt lat="47.27419" lon="-1.54981">
        <ele>36.799999237061</ele>
        <time>2019-04-02T09:39:18.000Z</time>
      </trkpt>
      <trkpt lat="47.27419" lon="-1.54981">
        <ele>36.799999237061</ele>
        <time>2019-04-02T09:39:19.000Z</time>
      </trkpt>
      <trkpt lat="47.27419" lon="-1.54984">
        <ele>37</ele>
        <time>2019-04-02T09:39:20.000Z</time>
      </trkpt>
      <trkpt lat="47.27419" lon="-1.54986">
        <ele>37</ele>
        <time>2019-04-02T09:39:21.000Z</time>
      </trkpt>
      <trkpt lat="47.27419" lon="-1.54988">
        <ele>37</ele>
        <time>2019-04-02T09:39:22.000Z</time>
      </trkpt>
      <trkpt lat="47.2742" lon="-1.54991">
        <ele>37</ele>
        <time>2019-04-02T09:39:23.000Z</time>
      </trkpt>
      <trkpt lat="47.27419" lon="-1.54993">
        <ele>37</ele>
        <time>2019-04-02T09:39:24.000Z</time>
      </trkpt>
      <trkpt lat="47.2742" lon="-1.54996">
        <ele>37</ele>
        <time>2019-04-02T09:39:25.000Z</time>
      </trkpt>
      <trkpt lat="47.2742" lon="-1.54998">
        <ele>37</ele>
        <time>2019-04-02T09:39:26.000Z</time>
      </trkpt>
      <trkpt lat="47.2742" lon="-1.55">
        <ele>37</ele>
        <time>2019-04-02T09:39:27.000Z</time>
      </trkpt>
      <trkpt lat="47.27421" lon="-1.55002">
        <ele>37.200000762939</ele>
        <time>2019-04-02T09:39:28.000Z</time>
      </trkpt>
      <trkpt lat="47.27421" lon="-1.55004">
        <ele>37.200000762939</ele>
        <time>2019-04-02T09:39:29.000Z</time>
      </trkpt>
      <trkpt lat="47.27421" lon="-1.55006">
        <ele>37.200000762939</ele>
        <time>2019-04-02T09:39:30.000Z</time>
      </trkpt>
      <trkpt lat="47.27421" lon="-1.55008">
        <ele>37.200000762939</ele>
        <time>2019-04-02T09:39:31.000Z</time>
      </trkpt>
      <trkpt lat="47.27422" lon="-1.55013">
        <ele>37.200000762939</ele>
        <time>2019-04-02T09:39:32.000Z</time>
      </trkpt>
      <trkpt lat="47.27422" lon="-1.55013">
        <ele>37.200000762939</ele>
        <time>2019-04-02T09:39:33.000Z</time>
      </trkpt>
      <trkpt lat="47.27422" lon="-1.55015">
        <ele>37.200000762939</ele>
        <time>2019-04-02T09:39:34.000Z</time>
      </trkpt>
      <trkpt lat="47.27422" lon="-1.55017">
        <ele>37.200000762939</ele>
        <time>2019-04-02T09:39:35.000Z</time>
      </trkpt>
      <trkpt lat="47.27422" lon="-1.55019">
        <ele>37.400001525879</ele>
        <time>2019-04-02T09:39:36.000Z</time>
      </trkpt>
      <trkpt lat="47.27422" lon="-1.55022">
        <ele>37.400001525879</ele>
        <time>2019-04-02T09:39:37.000Z</time>
      </trkpt>
      <trkpt lat="47.27422" lon="-1.55024">
        <ele>37.400001525879</ele>
        <time>2019-04-02T09:39:38.000Z</time>
      </trkpt>
      <trkpt lat="47.27421" lon="-1.55026">
        <ele>37.400001525879</ele>
        <time>2019-04-02T09:39:39.000Z</time>
      </trkpt>
      <trkpt lat="47.27421" lon="-1.55028">
        <ele>37.400001525879</ele>
        <time>2019-04-02T09:39:40.000Z</time>
      </trkpt>
      <trkpt lat="47.27421" lon="-1.5503">
        <ele>37.400001525879</ele>
        <time>2019-04-02T09:39:41.000Z</time>
      </trkpt>
      <trkpt lat="47.27421" lon="-1.55032">
        <ele>37.400001525879</ele>
        <time>2019-04-02T09:39:42.000Z</time>
      </trkpt>
      <trkpt lat="47.27422" lon="-1.55033">
        <ele>37.400001525879</ele>
        <time>2019-04-02T09:39:43.000Z</time>
      </trkpt>
      <trkpt lat="47.27421" lon="-1.55035">
        <ele>37.599998474121</ele>
        <time>2019-04-02T09:39:44.000Z</time>
      </trkpt>
      <trkpt lat="47.27421" lon="-1.55037">
        <ele>37.599998474121</ele>
        <time>2019-04-02T09:39:45.000Z</time>
      </trkpt>
      <trkpt lat="47.2742" lon="-1.55038">
        <ele>37.599998474121</ele>
        <time>2019-04-02T09:39:46.000Z</time>
      </trkpt>
      <trkpt lat="47.2742" lon="-1.55041">
        <ele>37.599998474121</ele>
        <time>2019-04-02T09:39:47.000Z</time>
      </trkpt>
      <trkpt lat="47.27419" lon="-1.55043">
        <ele>37.599998474121</ele>
        <time>2019-04-02T09:39:48.000Z</time>
      </trkpt>
      <trkpt lat="47.27419" lon="-1.55045">
        <ele>37.599998474121</ele>
        <time>2019-04-02T09:39:49.000Z</time>
      </trkpt>
      <trkpt lat="47.27419" lon="-1.55047">
        <ele>37.599998474121</ele>
        <time>2019-04-02T09:39:50.000Z</time>
      </trkpt>
      <trkpt lat="47.27418" lon="-1.55049">
        <ele>37.799999237061</ele>
        <time>2019-04-02T09:39:51.000Z</time>
      </trkpt>
      <trkpt lat="47.27418" lon="-1.55051">
        <ele>37.799999237061</ele>
        <time>2019-04-02T09:39:52.000Z</time>
      </trkpt>
      <trkpt lat="47.27417" lon="-1.55053">
        <ele>37.799999237061</ele>
        <time>2019-04-02T09:39:53.000Z</time>
      </trkpt>
      <trkpt lat="47.27417" lon="-1.55057">
        <ele>37.799999237061</ele>
        <time>2019-04-02T09:39:54.000Z</time>
      </trkpt>
      <trkpt lat="47.27417" lon="-1.55057">
        <ele>37.799999237061</ele>
        <time>2019-04-02T09:39:55.000Z</time>
      </trkpt>
      <trkpt lat="47.27416" lon="-1.55058">
        <ele>37.799999237061</ele>
        <time>2019-04-02T09:39:56.000Z</time>
      </trkpt>
      <trkpt lat="47.27416" lon="-1.5506">
        <ele>37.799999237061</ele>
        <time>2019-04-02T09:39:57.000Z</time>
      </trkpt>
      <trkpt lat="47.27415" lon="-1.55062">
        <ele>38</ele>
        <time>2019-04-02T09:39:58.000Z</time>
      </trkpt>
      <trkpt lat="47.27414" lon="-1.55063">
        <ele>38</ele>
        <time>2019-04-02T09:39:59.000Z</time>
      </trkpt>
      <trkpt lat="47.27414" lon="-1.55065">
        <ele>38</ele>
        <time>2019-04-02T09:40:00.000Z</time>
      </trkpt>
      <trkpt lat="47.27413" lon="-1.55066">
        <ele>38</ele>
        <time>2019-04-02T09:40:01.000Z</time>
      </trkpt>
      <trkpt lat="47.27412" lon="-1.55069">
        <ele>38</ele>
        <time>2019-04-02T09:40:02.000Z</time>
      </trkpt>
      <trkpt lat="47.27411" lon="-1.55071">
        <ele>38</ele>
        <time>2019-04-02T09:40:03.000Z</time>
      </trkpt>
      <trkpt lat="47.27411" lon="-1.55071">
        <ele>38</ele>
        <time>2019-04-02T09:40:04.000Z</time>
      </trkpt>
      <trkpt lat="47.27409" lon="-1.55073">
        <ele>38</ele>
        <time>2019-04-02T09:40:05.000Z</time>
      </trkpt>
      <trkpt lat="47.27408" lon="-1.55074">
        <ele>38</ele>
        <time>2019-04-02T09:40:06.000Z</time>
      </trkpt>
      <trkpt lat="47.27407" lon="-1.55076">
        <ele>38</ele>
        <time>2019-04-02T09:40:07.000Z</time>
      </trkpt>
      <trkpt lat="47.27406" lon="-1.55078">
        <ele>38</ele>
        <time>2019-04-02T09:40:08.000Z</time>
      </trkpt>
      <trkpt lat="47.27405" lon="-1.55079">
        <ele>38</ele>
        <time>2019-04-02T09:40:09.000Z</time>
      </trkpt>
      <trkpt lat="47.27404" lon="-1.55081">
        <ele>38</ele>
        <time>2019-04-02T09:40:10.000Z</time>
      </trkpt>
      <trkpt lat="47.27403" lon="-1.55082">
        <ele>38</ele>
        <time>2019-04-02T09:40:11.000Z</time>
      </trkpt>
      <trkpt lat="47.27401" lon="-1.55085">
        <ele>38</ele>
        <time>2019-04-02T09:40:12.000Z</time>
      </trkpt>
      <trkpt lat="47.27401" lon="-1.55085">
        <ele>38</ele>
        <time>2019-04-02T09:40:13.000Z</time>
      </trkpt>
      <trkpt lat="47.274" lon="-1.55087">
        <ele>38</ele>
        <time>2019-04-02T09:40:14.000Z</time>
      </trkpt>
      <trkpt lat="47.27398" lon="-1.55089">
        <ele>38</ele>
        <time>2019-04-02T09:40:15.000Z</time>
      </trkpt>
      <trkpt lat="47.27397" lon="-1.5509">
        <ele>38.200000762939</ele>
        <time>2019-04-02T09:40:16.000Z</time>
      </trkpt>
      <trkpt lat="47.27395" lon="-1.55093">
        <ele>38.200000762939</ele>
        <time>2019-04-02T09:40:17.000Z</time>
      </trkpt>
      <trkpt lat="47.27395" lon="-1.55093">
        <ele>38.200000762939</ele>
        <time>2019-04-02T09:40:18.000Z</time>
      </trkpt>
      <trkpt lat="47.27395" lon="-1.55094">
        <ele>38.200000762939</ele>
        <time>2019-04-02T09:40:19.000Z</time>
      </trkpt>
      <trkpt lat="47.27395" lon="-1.55094">
        <ele>38.200000762939</ele>
        <time>2019-04-02T09:40:20.000Z</time>
      </trkpt>
      <trkpt lat="47.27394" lon="-1.55095">
        <ele>38.200000762939</ele>
        <time>2019-04-02T09:40:21.000Z</time>
      </trkpt>
      <trkpt lat="47.27374" lon="-1.55094">
        <ele>38.599998474121</ele>
        <time>2019-04-02T09:40:48.000Z</time>
      </trkpt>
      <trkpt lat="47.27372" lon="-1.55095">
        <ele>38.599998474121</ele>
        <time>2019-04-02T09:40:49.000Z</time>
      </trkpt>
      <trkpt lat="47.27371" lon="-1.55095">
        <ele>38.599998474121</ele>
        <time>2019-04-02T09:40:50.000Z</time>
      </trkpt>
      <trkpt lat="47.27369" lon="-1.55096">
        <ele>38.799999237061</ele>
        <time>2019-04-02T09:40:51.000Z</time>
      </trkpt>
      <trkpt lat="47.27367" lon="-1.55096">
        <ele>38.799999237061</ele>
        <time>2019-04-02T09:40:52.000Z</time>
      </trkpt>
      <trkpt lat="47.27366" lon="-1.55096">
        <ele>38.799999237061</ele>
        <time>2019-04-02T09:40:53.000Z</time>
      </trkpt>
      <trkpt lat="47.27365" lon="-1.55097">
        <ele>38.799999237061</ele>
        <time>2019-04-02T09:40:54.000Z</time>
      </trkpt>
      <trkpt lat="47.27363" lon="-1.55097">
        <ele>38.799999237061</ele>
        <time>2019-04-02T09:40:55.000Z</time>
      </trkpt>
      <trkpt lat="47.27362" lon="-1.55098">
        <ele>38.799999237061</ele>
        <time>2019-04-02T09:40:56.000Z</time>
      </trkpt>
      <trkpt lat="47.2736" lon="-1.55098">
        <ele>38.799999237061</ele>
        <time>2019-04-02T09:40:57.000Z</time>
      </trkpt>
      <trkpt lat="47.27359" lon="-1.55098">
        <ele>39</ele>
        <time>2019-04-02T09:40:58.000Z</time>
      </trkpt>
      <trkpt lat="47.27358" lon="-1.55099">
        <ele>39</ele>
        <time>2019-04-02T09:40:59.000Z</time>
      </trkpt>
      <trkpt lat="47.27356" lon="-1.55099">
        <ele>39</ele>
        <time>2019-04-02T09:41:00.000Z</time>
      </trkpt>
      <trkpt lat="47.27355" lon="-1.551">
        <ele>39</ele>
        <time>2019-04-02T09:41:01.000Z</time>
      </trkpt>
      <trkpt lat="47.27354" lon="-1.551">
        <ele>39</ele>
        <time>2019-04-02T09:41:02.000Z</time>
      </trkpt>
      <trkpt lat="47.27352" lon="-1.55101">
        <ele>39</ele>
        <time>2019-04-02T09:41:03.000Z</time>
      </trkpt>
      <trkpt lat="47.27351" lon="-1.55102">
        <ele>39</ele>
        <time>2019-04-02T09:41:04.000Z</time>
      </trkpt>
      <trkpt lat="47.2735" lon="-1.55103">
        <ele>39</ele>
        <time>2019-04-02T09:41:05.000Z</time>
      </trkpt>
      <trkpt lat="47.27348" lon="-1.55104">
        <ele>39.200000762939</ele>
        <time>2019-04-02T09:41:06.000Z</time>
      </trkpt>
      <trkpt lat="47.27346" lon="-1.55104">
        <ele>39.200000762939</ele>
        <time>2019-04-02T09:41:07.000Z</time>
      </trkpt>
      <trkpt lat="47.27345" lon="-1.55105">
        <ele>39.200000762939</ele>
        <time>2019-04-02T09:41:08.000Z</time>
      </trkpt>
      <trkpt lat="47.27343" lon="-1.55105">
        <ele>39.200000762939</ele>
        <time>2019-04-02T09:41:09.000Z</time>
      </trkpt>
      <trkpt lat="47.27342" lon="-1.55106">
        <ele>39.200000762939</ele>
        <time>2019-04-02T09:41:10.000Z</time>
      </trkpt>
      <trkpt lat="47.27341" lon="-1.55107">
        <ele>39.200000762939</ele>
        <time>2019-04-02T09:41:11.000Z</time>
      </trkpt>
      <trkpt lat="47.27339" lon="-1.55107">
        <ele>39.200000762939</ele>
        <time>2019-04-02T09:41:12.000Z</time>
      </trkpt>
      <trkpt lat="47.27339" lon="-1.55108">
        <ele>39.400001525879</ele>
        <time>2019-04-02T09:41:13.000Z</time>
      </trkpt>
      <trkpt lat="47.27338" lon="-1.55107">
        <ele>39.400001525879</ele>
        <time>2019-04-02T09:41:14.000Z</time>
      </trkpt>
      <trkpt lat="47.27338" lon="-1.55107">
        <ele>39.400001525879</ele>
        <time>2019-04-02T09:41:15.000Z</time>
      </trkpt>
      <trkpt lat="47.2732" lon="-1.55118">
        <ele>38.799999237061</ele>
        <time>2019-04-02T09:41:33.000Z</time>
      </trkpt>
      <trkpt lat="47.27318" lon="-1.55118">
        <ele>38.799999237061</ele>
        <time>2019-04-02T09:41:34.000Z</time>
      </trkpt>
      <trkpt lat="47.27317" lon="-1.55119">
        <ele>38.599998474121</ele>
        <time>2019-04-02T09:41:35.000Z</time>
      </trkpt>
      <trkpt lat="47.27314" lon="-1.5512">
        <ele>38.400001525879</ele>
        <time>2019-04-02T09:41:36.000Z</time>
      </trkpt>
      <trkpt lat="47.27314" lon="-1.5512">
        <ele>38.400001525879</ele>
        <time>2019-04-02T09:41:37.000Z</time>
      </trkpt>
      <trkpt lat="47.27312" lon="-1.5512">
        <ele>38.400001525879</ele>
        <time>2019-04-02T09:41:38.000Z</time>
      </trkpt>
      <trkpt lat="47.27311" lon="-1.55121">
        <ele>38.200000762939</ele>
        <time>2019-04-02T09:41:39.000Z</time>
      </trkpt>
      <trkpt lat="47.27309" lon="-1.55121">
        <ele>38.200000762939</ele>
        <time>2019-04-02T09:41:40.000Z</time>
      </trkpt>
      <trkpt lat="47.27308" lon="-1.55121">
        <ele>38</ele>
        <time>2019-04-02T09:41:41.000Z</time>
      </trkpt>
      <trkpt lat="47.27307" lon="-1.55122">
        <ele>38</ele>
        <time>2019-04-02T09:41:42.000Z</time>
      </trkpt>
      <trkpt lat="47.27305" lon="-1.55122">
        <ele>37.799999237061</ele>
        <time>2019-04-02T09:41:43.000Z</time>
      </trkpt>
      <trkpt lat="47.27304" lon="-1.55122">
        <ele>37.799999237061</ele>
        <time>2019-04-02T09:41:44.000Z</time>
      </trkpt>
      <trkpt lat="47.27301" lon="-1.55123">
        <ele>37.599998474121</ele>
        <time>2019-04-02T09:41:45.000Z</time>
      </trkpt>
      <trkpt lat="47.27301" lon="-1.55123">
        <ele>37.599998474121</ele>
        <time>2019-04-02T09:41:46.000Z</time>
      </trkpt>
      <trkpt lat="47.27299" lon="-1.55123">
        <ele>37.599998474121</ele>
        <time>2019-04-02T09:41:47.000Z</time>
      </trkpt>
      <trkpt lat="47.27298" lon="-1.55123">
        <ele>37.400001525879</ele>
        <time>2019-04-02T09:41:48.000Z</time>
      </trkpt>
      <trkpt lat="47.27297" lon="-1.55124">
        <ele>37.400001525879</ele>
        <time>2019-04-02T09:41:49.000Z</time>
      </trkpt>
      <trkpt lat="47.27295" lon="-1.55124">
        <ele>37.200000762939</ele>
        <time>2019-04-02T09:41:50.000Z</time>
      </trkpt>
      <trkpt lat="47.27294" lon="-1.55124">
        <ele>37.200000762939</ele>
        <time>2019-04-02T09:41:51.000Z</time>
      </trkpt>
      <trkpt lat="47.27293" lon="-1.55124">
        <ele>37</ele>
        <time>2019-04-02T09:41:52.000Z</time>
      </trkpt>
      <trkpt lat="47.27291" lon="-1.55125">
        <ele>37</ele>
        <time>2019-04-02T09:41:53.000Z</time>
      </trkpt>
      <trkpt lat="47.2729" lon="-1.55125">
        <ele>37</ele>
        <time>2019-04-02T09:41:54.000Z</time>
      </trkpt>
      <trkpt lat="47.27288" lon="-1.55126">
        <ele>36.799999237061</ele>
        <time>2019-04-02T09:41:55.000Z</time>
      </trkpt>
      <trkpt lat="47.27287" lon="-1.55126">
        <ele>36.799999237061</ele>
        <time>2019-04-02T09:41:56.000Z</time>
      </trkpt>
      <trkpt lat="47.27286" lon="-1.55126">
        <ele>36.599998474121</ele>
        <time>2019-04-02T09:41:57.000Z</time>
      </trkpt>
      <trkpt lat="47.27285" lon="-1.55127">
        <ele>36.599998474121</ele>
        <time>2019-04-02T09:41:58.000Z</time>
      </trkpt>
      <trkpt lat="47.27284" lon="-1.55127">
        <ele>36.599998474121</ele>
        <time>2019-04-02T09:41:59.000Z</time>
      </trkpt>
      <trkpt lat="47.27283" lon="-1.55127">
        <ele>36.400001525879</ele>
        <time>2019-04-02T09:42:00.000Z</time>
      </trkpt>
      <trkpt lat="47.27282" lon="-1.55128">
        <ele>36.400001525879</ele>
        <time>2019-04-02T09:42:01.000Z</time>
      </trkpt>
      <trkpt lat="47.27279" lon="-1.55129">
        <ele>36.200000762939</ele>
        <time>2019-04-02T09:42:02.000Z</time>
      </trkpt>
      <trkpt lat="47.27277" lon="-1.55129">
        <ele>36.200000762939</ele>
        <time>2019-04-02T09:42:03.000Z</time>
      </trkpt>
      <trkpt lat="47.27277" lon="-1.55129">
        <ele>36.200000762939</ele>
        <time>2019-04-02T09:42:04.000Z</time>
      </trkpt>
      <trkpt lat="47.27276" lon="-1.5513">
        <ele>36</ele>
        <time>2019-04-02T09:42:05.000Z</time>
      </trkpt>
      <trkpt lat="47.27274" lon="-1.5513">
        <ele>36</ele>
        <time>2019-04-02T09:42:06.000Z</time>
      </trkpt>
      <trkpt lat="47.27274" lon="-1.55131">
        <ele>35.799999237061</ele>
        <time>2019-04-02T09:42:07.000Z</time>
      </trkpt>
      <trkpt lat="47.27273" lon="-1.55132">
        <ele>35.799999237061</ele>
        <time>2019-04-02T09:42:08.000Z</time>
      </trkpt>
      <trkpt lat="47.27271" lon="-1.55132">
        <ele>35.799999237061</ele>
        <time>2019-04-02T09:42:09.000Z</time>
      </trkpt>
      <trkpt lat="47.2727" lon="-1.55132">
        <ele>35.599998474121</ele>
        <time>2019-04-02T09:42:10.000Z</time>
      </trkpt>
      <trkpt lat="47.27269" lon="-1.55132">
        <ele>35.599998474121</ele>
        <time>2019-04-02T09:42:11.000Z</time>
      </trkpt>
      <trkpt lat="47.27268" lon="-1.55133">
        <ele>35.599998474121</ele>
        <time>2019-04-02T09:42:12.000Z</time>
      </trkpt>
      <trkpt lat="47.27266" lon="-1.55134">
        <ele>35.400001525879</ele>
        <time>2019-04-02T09:42:13.000Z</time>
      </trkpt>
      <trkpt lat="47.27265" lon="-1.55134">
        <ele>35.400001525879</ele>
        <time>2019-04-02T09:42:14.000Z</time>
      </trkpt>
      <trkpt lat="47.27262" lon="-1.55136">
        <ele>35.200000762939</ele>
        <time>2019-04-02T09:42:15.000Z</time>
      </trkpt>
      <trkpt lat="47.27262" lon="-1.55136">
        <ele>35.200000762939</ele>
        <time>2019-04-02T09:42:16.000Z</time>
      </trkpt>
      <trkpt lat="47.27261" lon="-1.55137">
        <ele>35</ele>
        <time>2019-04-02T09:42:17.000Z</time>
      </trkpt>
      <trkpt lat="47.27259" lon="-1.55137">
        <ele>35</ele>
        <time>2019-04-02T09:42:18.000Z</time>
      </trkpt>
      <trkpt lat="47.27258" lon="-1.55138">
        <ele>34.799999237061</ele>
        <time>2019-04-02T09:42:19.000Z</time>
      </trkpt>
      <trkpt lat="47.27257" lon="-1.55138">
        <ele>34.799999237061</ele>
        <time>2019-04-02T09:42:20.000Z</time>
      </trkpt>
      <trkpt lat="47.27255" lon="-1.55139">
        <ele>34.599998474121</ele>
        <time>2019-04-02T09:42:21.000Z</time>
      </trkpt>
      <trkpt lat="47.27254" lon="-1.5514">
        <ele>34.599998474121</ele>
        <time>2019-04-02T09:42:22.000Z</time>
      </trkpt>
      <trkpt lat="47.27252" lon="-1.55141">
        <ele>34.400001525879</ele>
        <time>2019-04-02T09:42:23.000Z</time>
      </trkpt>
      <trkpt lat="47.27252" lon="-1.55141">
        <ele>34.400001525879</ele>
        <time>2019-04-02T09:42:24.000Z</time>
      </trkpt>
      <trkpt lat="47.2725" lon="-1.55141">
        <ele>34.400001525879</ele>
        <time>2019-04-02T09:42:25.000Z</time>
      </trkpt>
      <trkpt lat="47.27249" lon="-1.55141">
        <ele>34.200000762939</ele>
        <time>2019-04-02T09:42:26.000Z</time>
      </trkpt>
      <trkpt lat="47.27248" lon="-1.55142">
        <ele>34.200000762939</ele>
        <time>2019-04-02T09:42:27.000Z</time>
      </trkpt>
      <trkpt lat="47.27247" lon="-1.55142">
        <ele>34</ele>
        <time>2019-04-02T09:42:28.000Z</time>
      </trkpt>
      <trkpt lat="47.27245" lon="-1.55143">
        <ele>34</ele>
        <time>2019-04-02T09:42:29.000Z</time>
      </trkpt>
      <trkpt lat="47.27244" lon="-1.55143">
        <ele>34</ele>
        <time>2019-04-02T09:42:30.000Z</time>
      </trkpt>
      <trkpt lat="47.27243" lon="-1.55144">
        <ele>33.799999237061</ele>
        <time>2019-04-02T09:42:31.000Z</time>
      </trkpt>
      <trkpt lat="47.27241" lon="-1.55145">
        <ele>33.799999237061</ele>
        <time>2019-04-02T09:42:32.000Z</time>
      </trkpt>
      <trkpt lat="47.27241" lon="-1.55145">
        <ele>33.799999237061</ele>
        <time>2019-04-02T09:42:33.000Z</time>
      </trkpt>
      <trkpt lat="47.27239" lon="-1.55146">
        <ele>33.799999237061</ele>
        <time>2019-04-02T09:42:34.000Z</time>
      </trkpt>
      <trkpt lat="47.27238" lon="-1.55146">
        <ele>33.799999237061</ele>
        <time>2019-04-02T09:42:35.000Z</time>
      </trkpt>
      <trkpt lat="47.27236" lon="-1.55147">
        <ele>33.599998474121</ele>
        <time>2019-04-02T09:42:36.000Z</time>
      </trkpt>
      <trkpt lat="47.27234" lon="-1.55147">
        <ele>33.599998474121</ele>
        <time>2019-04-02T09:42:37.000Z</time>
      </trkpt>
      <trkpt lat="47.27231" lon="-1.55148">
        <ele>33.400001525879</ele>
        <time>2019-04-02T09:42:38.000Z</time>
      </trkpt>
      <trkpt lat="47.27231" lon="-1.55148">
        <ele>33.400001525879</ele>
        <time>2019-04-02T09:42:39.000Z</time>
      </trkpt>
      <trkpt lat="47.27229" lon="-1.55148">
        <ele>33.400001525879</ele>
        <time>2019-04-02T09:42:40.000Z</time>
      </trkpt>
      <trkpt lat="47.27228" lon="-1.55148">
        <ele>33.400001525879</ele>
        <time>2019-04-02T09:42:41.000Z</time>
      </trkpt>
      <trkpt lat="47.27227" lon="-1.55148">
        <ele>33.200000762939</ele>
        <time>2019-04-02T09:42:42.000Z</time>
      </trkpt>
      <trkpt lat="47.27225" lon="-1.55149">
        <ele>33.200000762939</ele>
        <time>2019-04-02T09:42:43.000Z</time>
      </trkpt>
      <trkpt lat="47.27224" lon="-1.55149">
        <ele>33.200000762939</ele>
        <time>2019-04-02T09:42:44.000Z</time>
      </trkpt>
      <trkpt lat="47.27223" lon="-1.5515">
        <ele>33.200000762939</ele>
        <time>2019-04-02T09:42:45.000Z</time>
      </trkpt>
      <trkpt lat="47.27221" lon="-1.55151">
        <ele>33</ele>
        <time>2019-04-02T09:42:46.000Z</time>
      </trkpt>
      <trkpt lat="47.2722" lon="-1.55151">
        <ele>33</ele>
        <time>2019-04-02T09:42:47.000Z</time>
      </trkpt>
      <trkpt lat="47.27218" lon="-1.55152">
        <ele>33</ele>
        <time>2019-04-02T09:42:48.000Z</time>
      </trkpt>
      <trkpt lat="47.27217" lon="-1.55152">
        <ele>33</ele>
        <time>2019-04-02T09:42:49.000Z</time>
      </trkpt>
      <trkpt lat="47.27215" lon="-1.55153">
        <ele>32.799999237061</ele>
        <time>2019-04-02T09:42:50.000Z</time>
      </trkpt>
      <trkpt lat="47.27214" lon="-1.55154">
        <ele>32.799999237061</ele>
        <time>2019-04-02T09:42:51.000Z</time>
      </trkpt>
      <trkpt lat="47.27212" lon="-1.55154">
        <ele>32.799999237061</ele>
        <time>2019-04-02T09:42:52.000Z</time>
      </trkpt>
      <trkpt lat="47.27211" lon="-1.55155">
        <ele>32.799999237061</ele>
        <time>2019-04-02T09:42:53.000Z</time>
      </trkpt>
      <trkpt lat="47.27209" lon="-1.55156">
        <ele>32.599998474121</ele>
        <time>2019-04-02T09:42:54.000Z</time>
      </trkpt>
      <trkpt lat="47.27208" lon="-1.55156">
        <ele>32.599998474121</ele>
        <time>2019-04-02T09:42:55.000Z</time>
      </trkpt>
      <trkpt lat="47.27206" lon="-1.55157">
        <ele>32.599998474121</ele>
        <time>2019-04-02T09:42:56.000Z</time>
      </trkpt>
      <trkpt lat="47.27205" lon="-1.55157">
        <ele>32.599998474121</ele>
        <time>2019-04-02T09:42:57.000Z</time>
      </trkpt>
      <trkpt lat="47.27204" lon="-1.55157">
        <ele>32.400001525879</ele>
        <time>2019-04-02T09:42:58.000Z</time>
      </trkpt>
      <trkpt lat="47.27203" lon="-1.55158">
        <ele>32.400001525879</ele>
        <time>2019-04-02T09:42:59.000Z</time>
      </trkpt>
      <trkpt lat="47.27201" lon="-1.55158">
        <ele>32.400001525879</ele>
        <time>2019-04-02T09:43:00.000Z</time>
      </trkpt>
      <trkpt lat="47.272" lon="-1.55159">
        <ele>32.400001525879</ele>
        <time>2019-04-02T09:43:01.000Z</time>
      </trkpt>
      <trkpt lat="47.27198" lon="-1.5516">
        <ele>32.200000762939</ele>
        <time>2019-04-02T09:43:02.000Z</time>
      </trkpt>
      <trkpt lat="47.27197" lon="-1.5516">
        <ele>32.200000762939</ele>
        <time>2019-04-02T09:43:03.000Z</time>
      </trkpt>
      <trkpt lat="47.27196" lon="-1.55161">
        <ele>32.200000762939</ele>
        <time>2019-04-02T09:43:04.000Z</time>
      </trkpt>
      <trkpt lat="47.27195" lon="-1.55161">
        <ele>32.200000762939</ele>
        <time>2019-04-02T09:43:05.000Z</time>
      </trkpt>
      <trkpt lat="47.27193" lon="-1.55162">
        <ele>32</ele>
        <time>2019-04-02T09:43:06.000Z</time>
      </trkpt>
      <trkpt lat="47.27193" lon="-1.55162">
        <ele>32</ele>
        <time>2019-04-02T09:43:07.000Z</time>
      </trkpt>
      <trkpt lat="47.27191" lon="-1.55163">
        <ele>32</ele>
        <time>2019-04-02T09:43:08.000Z</time>
      </trkpt>
      <trkpt lat="47.2719" lon="-1.55163">
        <ele>32</ele>
        <time>2019-04-02T09:43:09.000Z</time>
      </trkpt>
      <trkpt lat="47.27189" lon="-1.55164">
        <ele>32</ele>
        <time>2019-04-02T09:43:10.000Z</time>
      </trkpt>
      <trkpt lat="47.27188" lon="-1.55164">
        <ele>31.799999237061</ele>
        <time>2019-04-02T09:43:11.000Z</time>
      </trkpt>
      <trkpt lat="47.27187" lon="-1.55164">
        <ele>31.799999237061</ele>
        <time>2019-04-02T09:43:12.000Z</time>
      </trkpt>
      <trkpt lat="47.27186" lon="-1.55165">
        <ele>31.799999237061</ele>
        <time>2019-04-02T09:43:13.000Z</time>
      </trkpt>
      <trkpt lat="47.27184" lon="-1.55165">
        <ele>31.799999237061</ele>
        <time>2019-04-02T09:43:14.000Z</time>
      </trkpt>
      <trkpt lat="47.2718" lon="-1.55166">
        <ele>31.60000038147</ele>
        <time>2019-04-02T09:43:15.000Z</time>
      </trkpt>
      <trkpt lat="47.2718" lon="-1.55166">
        <ele>31.60000038147</ele>
        <time>2019-04-02T09:43:16.000Z</time>
      </trkpt>
      <trkpt lat="47.27178" lon="-1.55166">
        <ele>31.60000038147</ele>
        <time>2019-04-02T09:43:17.000Z</time>
      </trkpt>
      <trkpt lat="47.27177" lon="-1.55166">
        <ele>31.39999961853</ele>
        <time>2019-04-02T09:43:18.000Z</time>
      </trkpt>
      <trkpt lat="47.27175" lon="-1.55166">
        <ele>31.39999961853</ele>
        <time>2019-04-02T09:43:19.000Z</time>
      </trkpt>
      <trkpt lat="47.27174" lon="-1.55167">
        <ele>31.39999961853</ele>
        <time>2019-04-02T09:43:20.000Z</time>
      </trkpt>
      <trkpt lat="47.27172" lon="-1.55168">
        <ele>31.39999961853</ele>
        <time>2019-04-02T09:43:21.000Z</time>
      </trkpt>
      <trkpt lat="47.27171" lon="-1.55168">
        <ele>31.200000762939</ele>
        <time>2019-04-02T09:43:22.000Z</time>
      </trkpt>
      <trkpt lat="47.2717" lon="-1.55168">
        <ele>31.200000762939</ele>
        <time>2019-04-02T09:43:23.000Z</time>
      </trkpt>
      <trkpt lat="47.27168" lon="-1.55169">
        <ele>31.200000762939</ele>
        <time>2019-04-02T09:43:24.000Z</time>
      </trkpt>
      <trkpt lat="47.27167" lon="-1.5517">
        <ele>31.200000762939</ele>
        <time>2019-04-02T09:43:25.000Z</time>
      </trkpt>
      <trkpt lat="47.27165" lon="-1.5517">
        <ele>31</ele>
        <time>2019-04-02T09:43:26.000Z</time>
      </trkpt>
      <trkpt lat="47.27164" lon="-1.55171">
        <ele>31</ele>
        <time>2019-04-02T09:43:27.000Z</time>
      </trkpt>
      <trkpt lat="47.27162" lon="-1.55172">
        <ele>31</ele>
        <time>2019-04-02T09:43:28.000Z</time>
      </trkpt>
      <trkpt lat="47.27161" lon="-1.55173">
        <ele>31</ele>
        <time>2019-04-02T09:43:29.000Z</time>
      </trkpt>
      <trkpt lat="47.27159" lon="-1.55174">
        <ele>31</ele>
        <time>2019-04-02T09:43:30.000Z</time>
      </trkpt>
      <trkpt lat="47.27158" lon="-1.55175">
        <ele>31</ele>
        <time>2019-04-02T09:43:31.000Z</time>
      </trkpt>
      <trkpt lat="47.27156" lon="-1.55175">
        <ele>31</ele>
        <time>2019-04-02T09:43:32.000Z</time>
      </trkpt>
      <trkpt lat="47.27153" lon="-1.55176">
        <ele>30.799999237061</ele>
        <time>2019-04-02T09:43:33.000Z</time>
      </trkpt>
      <trkpt lat="47.27153" lon="-1.55176">
        <ele>30.799999237061</ele>
        <time>2019-04-02T09:43:34.000Z</time>
      </trkpt>
      <trkpt lat="47.27152" lon="-1.55176">
        <ele>30.799999237061</ele>
        <time>2019-04-02T09:43:35.000Z</time>
      </trkpt>
      <trkpt lat="47.2715" lon="-1.55176">
        <ele>30.799999237061</ele>
        <time>2019-04-02T09:43:36.000Z</time>
      </trkpt>
      <trkpt lat="47.27149" lon="-1.55177">
        <ele>30.799999237061</ele>
        <time>2019-04-02T09:43:37.000Z</time>
      </trkpt>
      <trkpt lat="47.27148" lon="-1.55177">
        <ele>30.799999237061</ele>
        <time>2019-04-02T09:43:38.000Z</time>
      </trkpt>
      <trkpt lat="47.27147" lon="-1.55177">
        <ele>30.799999237061</ele>
        <time>2019-04-02T09:43:39.000Z</time>
      </trkpt>
      <trkpt lat="47.27146" lon="-1.55177">
        <ele>30.799999237061</ele>
        <time>2019-04-02T09:43:40.000Z</time>
      </trkpt>
      <trkpt lat="47.27144" lon="-1.55178">
        <ele>30.799999237061</ele>
        <time>2019-04-02T09:43:41.000Z</time>
      </trkpt>
      <trkpt lat="47.27143" lon="-1.55178">
        <ele>30.799999237061</ele>
        <time>2019-04-02T09:43:42.000Z</time>
      </trkpt>
      <trkpt lat="47.27141" lon="-1.55178">
        <ele>30.799999237061</ele>
        <time>2019-04-02T09:43:43.000Z</time>
      </trkpt>
      <trkpt lat="47.2714" lon="-1.55178">
        <ele>30.799999237061</ele>
        <time>2019-04-02T09:43:44.000Z</time>
      </trkpt>
      <trkpt lat="47.27138" lon="-1.55178">
        <ele>30.799999237061</ele>
        <time>2019-04-02T09:43:45.000Z</time>
      </trkpt>
      <trkpt lat="47.27137" lon="-1.55177">
        <ele>30.60000038147</ele>
        <time>2019-04-02T09:43:46.000Z</time>
      </trkpt>
      <trkpt lat="47.27136" lon="-1.55177">
        <ele>30.60000038147</ele>
        <time>2019-04-02T09:43:47.000Z</time>
      </trkpt>
      <trkpt lat="47.27132" lon="-1.55176">
        <ele>30.60000038147</ele>
        <time>2019-04-02T09:43:48.000Z</time>
      </trkpt>
      <trkpt lat="47.27132" lon="-1.55176">
        <ele>30.60000038147</ele>
        <time>2019-04-02T09:43:49.000Z</time>
      </trkpt>
      <trkpt lat="47.27131" lon="-1.55176">
        <ele>30.60000038147</ele>
        <time>2019-04-02T09:43:50.000Z</time>
      </trkpt>
      <trkpt lat="47.27129" lon="-1.55175">
        <ele>30.60000038147</ele>
        <time>2019-04-02T09:43:51.000Z</time>
      </trkpt>
      <trkpt lat="47.27128" lon="-1.55175">
        <ele>30.60000038147</ele>
        <time>2019-04-02T09:43:52.000Z</time>
      </trkpt>
      <trkpt lat="47.27127" lon="-1.55174">
        <ele>30.60000038147</ele>
        <time>2019-04-02T09:43:53.000Z</time>
      </trkpt>
      <trkpt lat="47.27125" lon="-1.55174">
        <ele>30.60000038147</ele>
        <time>2019-04-02T09:43:54.000Z</time>
      </trkpt>
      <trkpt lat="47.27124" lon="-1.55173">
        <ele>30.60000038147</ele>
        <time>2019-04-02T09:43:55.000Z</time>
      </trkpt>
      <trkpt lat="47.27123" lon="-1.55172">
        <ele>30.60000038147</ele>
        <time>2019-04-02T09:43:56.000Z</time>
      </trkpt>
      <trkpt lat="47.27122" lon="-1.55172">
        <ele>30.60000038147</ele>
        <time>2019-04-02T09:43:57.000Z</time>
      </trkpt>
      <trkpt lat="47.2712" lon="-1.55171">
        <ele>30.39999961853</ele>
        <time>2019-04-02T09:43:58.000Z</time>
      </trkpt>
      <trkpt lat="47.27119" lon="-1.55171">
        <ele>30.39999961853</ele>
        <time>2019-04-02T09:43:59.000Z</time>
      </trkpt>
      <trkpt lat="47.27118" lon="-1.55171">
        <ele>30.39999961853</ele>
        <time>2019-04-02T09:44:00.000Z</time>
      </trkpt>
      <trkpt lat="47.27116" lon="-1.5517">
        <ele>30.39999961853</ele>
        <time>2019-04-02T09:44:01.000Z</time>
      </trkpt>
      <trkpt lat="47.27116" lon="-1.5517">
        <ele>30.39999961853</ele>
        <time>2019-04-02T09:44:02.000Z</time>
      </trkpt>
      <trkpt lat="47.27114" lon="-1.55169">
        <ele>30.39999961853</ele>
        <time>2019-04-02T09:44:03.000Z</time>
      </trkpt>
      <trkpt lat="47.27113" lon="-1.55169">
        <ele>30.39999961853</ele>
        <time>2019-04-02T09:44:04.000Z</time>
      </trkpt>
      <trkpt lat="47.27111" lon="-1.55168">
        <ele>30.39999961853</ele>
        <time>2019-04-02T09:44:05.000Z</time>
      </trkpt>
      <trkpt lat="47.2711" lon="-1.55168">
        <ele>30.39999961853</ele>
        <time>2019-04-02T09:44:06.000Z</time>
      </trkpt>
      <trkpt lat="47.27108" lon="-1.55167">
        <ele>30.39999961853</ele>
        <time>2019-04-02T09:44:07.000Z</time>
      </trkpt>
      <trkpt lat="47.27107" lon="-1.55167">
        <ele>30.39999961853</ele>
        <time>2019-04-02T09:44:08.000Z</time>
      </trkpt>
      <trkpt lat="47.27105" lon="-1.55166">
        <ele>30.39999961853</ele>
        <time>2019-04-02T09:44:09.000Z</time>
      </trkpt>
      <trkpt lat="47.27103" lon="-1.55166">
        <ele>30.200000762939</ele>
        <time>2019-04-02T09:44:10.000Z</time>
      </trkpt>
      <trkpt lat="47.27102" lon="-1.55165">
        <ele>30.200000762939</ele>
        <time>2019-04-02T09:44:11.000Z</time>
      </trkpt>
      <trkpt lat="47.271" lon="-1.55165">
        <ele>30.200000762939</ele>
        <time>2019-04-02T09:44:12.000Z</time>
      </trkpt>
      <trkpt lat="47.27099" lon="-1.55164">
        <ele>30.200000762939</ele>
        <time>2019-04-02T09:44:13.000Z</time>
      </trkpt>
      <trkpt lat="47.27096" lon="-1.55164">
        <ele>30.200000762939</ele>
        <time>2019-04-02T09:44:14.000Z</time>
      </trkpt>
      <trkpt lat="47.27096" lon="-1.55164">
        <ele>30.200000762939</ele>
        <time>2019-04-02T09:44:15.000Z</time>
      </trkpt>
      <trkpt lat="47.27094" lon="-1.55163">
        <ele>30.200000762939</ele>
        <time>2019-04-02T09:44:16.000Z</time>
      </trkpt>
      <trkpt lat="47.27093" lon="-1.55163">
        <ele>30.200000762939</ele>
        <time>2019-04-02T09:44:17.000Z</time>
      </trkpt>
      <trkpt lat="47.27091" lon="-1.55163">
        <ele>30.200000762939</ele>
        <time>2019-04-02T09:44:18.000Z</time>
      </trkpt>
      <trkpt lat="47.2709" lon="-1.55163">
        <ele>30.200000762939</ele>
        <time>2019-04-02T09:44:19.000Z</time>
      </trkpt>
      <trkpt lat="47.27089" lon="-1.55163">
        <ele>30.200000762939</ele>
        <time>2019-04-02T09:44:20.000Z</time>
      </trkpt>
      <trkpt lat="47.27087" lon="-1.55163">
        <ele>30</ele>
        <time>2019-04-02T09:44:21.000Z</time>
      </trkpt>
      <trkpt lat="47.27086" lon="-1.55163">
        <ele>30</ele>
        <time>2019-04-02T09:44:22.000Z</time>
      </trkpt>
      <trkpt lat="47.27084" lon="-1.55164">
        <ele>30</ele>
        <time>2019-04-02T09:44:23.000Z</time>
      </trkpt>
      <trkpt lat="47.27083" lon="-1.55164">
        <ele>30</ele>
        <time>2019-04-02T09:44:24.000Z</time>
      </trkpt>
      <trkpt lat="47.27081" lon="-1.55164">
        <ele>30</ele>
        <time>2019-04-02T09:44:25.000Z</time>
      </trkpt>
      <trkpt lat="47.2708" lon="-1.55164">
        <ele>30</ele>
        <time>2019-04-02T09:44:26.000Z</time>
      </trkpt>
      <trkpt lat="47.27078" lon="-1.55164">
        <ele>30</ele>
        <time>2019-04-02T09:44:27.000Z</time>
      </trkpt>
      <trkpt lat="47.27077" lon="-1.55164">
        <ele>30</ele>
        <time>2019-04-02T09:44:28.000Z</time>
      </trkpt>
      <trkpt lat="47.27074" lon="-1.55165">
        <ele>30</ele>
        <time>2019-04-02T09:44:29.000Z</time>
      </trkpt>
      <trkpt lat="47.27074" lon="-1.55165">
        <ele>30</ele>
        <time>2019-04-02T09:44:30.000Z</time>
      </trkpt>
      <trkpt lat="47.27072" lon="-1.55165">
        <ele>30</ele>
        <time>2019-04-02T09:44:31.000Z</time>
      </trkpt>
      <trkpt lat="47.27071" lon="-1.55165">
        <ele>30</ele>
        <time>2019-04-02T09:44:32.000Z</time>
      </trkpt>
      <trkpt lat="47.2707" lon="-1.55166">
        <ele>30</ele>
        <time>2019-04-02T09:44:33.000Z</time>
      </trkpt>
      <trkpt lat="47.27068" lon="-1.55167">
        <ele>30</ele>
        <time>2019-04-02T09:44:34.000Z</time>
      </trkpt>
      <trkpt lat="47.27067" lon="-1.55167">
        <ele>30</ele>
        <time>2019-04-02T09:44:35.000Z</time>
      </trkpt>
      <trkpt lat="47.27065" lon="-1.55168">
        <ele>30</ele>
        <time>2019-04-02T09:44:36.000Z</time>
      </trkpt>
      <trkpt lat="47.27063" lon="-1.55168">
        <ele>30</ele>
        <time>2019-04-02T09:44:37.000Z</time>
      </trkpt>
      <trkpt lat="47.2706" lon="-1.55168">
        <ele>30</ele>
        <time>2019-04-02T09:44:38.000Z</time>
      </trkpt>
      <trkpt lat="47.2706" lon="-1.55168">
        <ele>30</ele>
        <time>2019-04-02T09:44:39.000Z</time>
      </trkpt>
      <trkpt lat="47.27056" lon="-1.55169">
        <ele>30</ele>
        <time>2019-04-02T09:44:40.000Z</time>
      </trkpt>
      <trkpt lat="47.27056" lon="-1.55169">
        <ele>30</ele>
        <time>2019-04-02T09:44:41.000Z</time>
      </trkpt>
      <trkpt lat="47.27054" lon="-1.55169">
        <ele>30</ele>
        <time>2019-04-02T09:44:42.000Z</time>
      </trkpt>
      <trkpt lat="47.27053" lon="-1.55169">
        <ele>29.799999237061</ele>
        <time>2019-04-02T09:44:43.000Z</time>
      </trkpt>
      <trkpt lat="47.27051" lon="-1.5517">
        <ele>29.799999237061</ele>
        <time>2019-04-02T09:44:44.000Z</time>
      </trkpt>
      <trkpt lat="47.2705" lon="-1.5517">
        <ele>29.799999237061</ele>
        <time>2019-04-02T09:44:45.000Z</time>
      </trkpt>
      <trkpt lat="47.27048" lon="-1.55171">
        <ele>29.799999237061</ele>
        <time>2019-04-02T09:44:46.000Z</time>
      </trkpt>
      <trkpt lat="47.27047" lon="-1.55171">
        <ele>29.799999237061</ele>
        <time>2019-04-02T09:44:47.000Z</time>
      </trkpt>
      <trkpt lat="47.27046" lon="-1.55172">
        <ele>29.799999237061</ele>
        <time>2019-04-02T09:44:48.000Z</time>
      </trkpt>
      <trkpt lat="47.27045" lon="-1.55172">
        <ele>29.799999237061</ele>
        <time>2019-04-02T09:44:49.000Z</time>
      </trkpt>
      <trkpt lat="47.27044" lon="-1.55173">
        <ele>29.799999237061</ele>
        <time>2019-04-02T09:44:50.000Z</time>
      </trkpt>
      <trkpt lat="47.27043" lon="-1.55174">
        <ele>29.799999237061</ele>
        <time>2019-04-02T09:44:51.000Z</time>
      </trkpt>
      <trkpt lat="47.27042" lon="-1.55175">
        <ele>29.799999237061</ele>
        <time>2019-04-02T09:44:52.000Z</time>
      </trkpt>
      <trkpt lat="47.2704" lon="-1.55176">
        <ele>29.799999237061</ele>
        <time>2019-04-02T09:44:53.000Z</time>
      </trkpt>
      <trkpt lat="47.27039" lon="-1.55177">
        <ele>29.799999237061</ele>
        <time>2019-04-02T09:44:54.000Z</time>
      </trkpt>
      <trkpt lat="47.27037" lon="-1.55178">
        <ele>29.799999237061</ele>
        <time>2019-04-02T09:44:55.000Z</time>
      </trkpt>
      <trkpt lat="47.27035" lon="-1.55178">
        <ele>29.799999237061</ele>
        <time>2019-04-02T09:44:56.000Z</time>
      </trkpt>
      <trkpt lat="47.27034" lon="-1.55179">
        <ele>29.799999237061</ele>
        <time>2019-04-02T09:44:57.000Z</time>
      </trkpt>
      <trkpt lat="47.27033" lon="-1.5518">
        <ele>29.799999237061</ele>
        <time>2019-04-02T09:44:58.000Z</time>
      </trkpt>
      <trkpt lat="47.27032" lon="-1.5518">
        <ele>29.799999237061</ele>
        <time>2019-04-02T09:44:59.000Z</time>
      </trkpt>
      <trkpt lat="47.27031" lon="-1.55181">
        <ele>29.799999237061</ele>
        <time>2019-04-02T09:45:00.000Z</time>
      </trkpt>
      <trkpt lat="47.27029" lon="-1.55181">
        <ele>29.799999237061</ele>
        <time>2019-04-02T09:45:01.000Z</time>
      </trkpt>
      <trkpt lat="47.27028" lon="-1.55182">
        <ele>29.799999237061</ele>
        <time>2019-04-02T09:45:02.000Z</time>
      </trkpt>
      <trkpt lat="47.27027" lon="-1.55182">
        <ele>29.799999237061</ele>
        <time>2019-04-02T09:45:03.000Z</time>
      </trkpt>
      <trkpt lat="47.27026" lon="-1.55182">
        <ele>29.799999237061</ele>
        <time>2019-04-02T09:45:04.000Z</time>
      </trkpt>
      <trkpt lat="47.27024" lon="-1.55183">
        <ele>29.799999237061</ele>
        <time>2019-04-02T09:45:05.000Z</time>
      </trkpt>
      <trkpt lat="47.27023" lon="-1.55184">
        <ele>29.799999237061</ele>
        <time>2019-04-02T09:45:06.000Z</time>
      </trkpt>
      <trkpt lat="47.27021" lon="-1.55184">
        <ele>29.799999237061</ele>
        <time>2019-04-02T09:45:07.000Z</time>
      </trkpt>
      <trkpt lat="47.2702" lon="-1.55185">
        <ele>29.60000038147</ele>
        <time>2019-04-02T09:45:08.000Z</time>
      </trkpt>
      <trkpt lat="47.27018" lon="-1.55186">
        <ele>29.60000038147</ele>
        <time>2019-04-02T09:45:09.000Z</time>
      </trkpt>
      <trkpt lat="47.27017" lon="-1.55187">
        <ele>29.60000038147</ele>
        <time>2019-04-02T09:45:10.000Z</time>
      </trkpt>
      <trkpt lat="47.27015" lon="-1.55188">
        <ele>29.60000038147</ele>
        <time>2019-04-02T09:45:11.000Z</time>
      </trkpt>
      <trkpt lat="47.27014" lon="-1.55188">
        <ele>29.60000038147</ele>
        <time>2019-04-02T09:45:12.000Z</time>
      </trkpt>
      <trkpt lat="47.27012" lon="-1.55189">
        <ele>29.60000038147</ele>
        <time>2019-04-02T09:45:13.000Z</time>
      </trkpt>
      <trkpt lat="47.27012" lon="-1.55189">
        <ele>29.60000038147</ele>
        <time>2019-04-02T09:45:14.000Z</time>
      </trkpt>
      <trkpt lat="47.27011" lon="-1.55189">
        <ele>29.60000038147</ele>
        <time>2019-04-02T09:45:15.000Z</time>
      </trkpt>
      <trkpt lat="47.27009" lon="-1.5519">
        <ele>29.60000038147</ele>
        <time>2019-04-02T09:45:16.000Z</time>
      </trkpt>
      <trkpt lat="47.27008" lon="-1.5519">
        <ele>29.60000038147</ele>
        <time>2019-04-02T09:45:17.000Z</time>
      </trkpt>
      <trkpt lat="47.27007" lon="-1.55191">
        <ele>29.60000038147</ele>
        <time>2019-04-02T09:45:18.000Z</time>
      </trkpt>
      <trkpt lat="47.27006" lon="-1.55191">
        <ele>29.60000038147</ele>
        <time>2019-04-02T09:45:19.000Z</time>
      </trkpt>
      <trkpt lat="47.27005" lon="-1.55191">
        <ele>29.60000038147</ele>
        <time>2019-04-02T09:45:20.000Z</time>
      </trkpt>
      <trkpt lat="47.27004" lon="-1.55192">
        <ele>29.60000038147</ele>
        <time>2019-04-02T09:45:21.000Z</time>
      </trkpt>
      <trkpt lat="47.27003" lon="-1.55192">
        <ele>29.60000038147</ele>
        <time>2019-04-02T09:45:22.000Z</time>
      </trkpt>
      <trkpt lat="47.27001" lon="-1.55193">
        <ele>29.60000038147</ele>
        <time>2019-04-02T09:45:23.000Z</time>
      </trkpt>
      <trkpt lat="47.27" lon="-1.55194">
        <ele>29.60000038147</ele>
        <time>2019-04-02T09:45:24.000Z</time>
      </trkpt>
      <trkpt lat="47.26999" lon="-1.55194">
        <ele>29.60000038147</ele>
        <time>2019-04-02T09:45:25.000Z</time>
      </trkpt>
      <trkpt lat="47.26998" lon="-1.55194">
        <ele>29.60000038147</ele>
        <time>2019-04-02T09:45:26.000Z</time>
      </trkpt>
      <trkpt lat="47.26997" lon="-1.55195">
        <ele>29.60000038147</ele>
        <time>2019-04-02T09:45:27.000Z</time>
      </trkpt>
      <trkpt lat="47.26996" lon="-1.55196">
        <ele>29.60000038147</ele>
        <time>2019-04-02T09:45:28.000Z</time>
      </trkpt>
      <trkpt lat="47.26995" lon="-1.55198">
        <ele>29.60000038147</ele>
        <time>2019-04-02T09:45:29.000Z</time>
      </trkpt>
      <trkpt lat="47.26994" lon="-1.55199">
        <ele>29.60000038147</ele>
        <time>2019-04-02T09:45:30.000Z</time>
      </trkpt>
      <trkpt lat="47.26994" lon="-1.55201">
        <ele>29.60000038147</ele>
        <time>2019-04-02T09:45:31.000Z</time>
      </trkpt>
      <trkpt lat="47.26994" lon="-1.55202">
        <ele>29.60000038147</ele>
        <time>2019-04-02T09:45:32.000Z</time>
      </trkpt>
      <trkpt lat="47.26995" lon="-1.55204">
        <ele>29.60000038147</ele>
        <time>2019-04-02T09:45:33.000Z</time>
      </trkpt>
      <trkpt lat="47.26995" lon="-1.55206">
        <ele>29.60000038147</ele>
        <time>2019-04-02T09:45:34.000Z</time>
      </trkpt>
      <trkpt lat="47.26996" lon="-1.55207">
        <ele>29.60000038147</ele>
        <time>2019-04-02T09:45:35.000Z</time>
      </trkpt>
      <trkpt lat="47.26996" lon="-1.55209">
        <ele>29.60000038147</ele>
        <time>2019-04-02T09:45:36.000Z</time>
      </trkpt>
      <trkpt lat="47.26996" lon="-1.5521">
        <ele>29.799999237061</ele>
        <time>2019-04-02T09:45:37.000Z</time>
      </trkpt>
      <trkpt lat="47.26996" lon="-1.55211">
        <ele>29.799999237061</ele>
        <time>2019-04-02T09:45:38.000Z</time>
      </trkpt>
      <trkpt lat="47.26996" lon="-1.55212">
        <ele>29.799999237061</ele>
        <time>2019-04-02T09:45:39.000Z</time>
      </trkpt>
      <trkpt lat="47.26996" lon="-1.55213">
        <ele>29.799999237061</ele>
        <time>2019-04-02T09:45:40.000Z</time>
      </trkpt>
      <trkpt lat="47.26996" lon="-1.55213">
        <ele>29.799999237061</ele>
        <time>2019-04-02T09:45:41.000Z</time>
      </trkpt>
    </trkseg>
  </trk>
</gpx>